<?xml version="1.0" encoding="UTF-8" standalone="no" ?>
<gpx xmlns="http://www.topografix.com/GPX/1/1" xmlns:xsi="http://www.w3.org/2001/XMLSchema-instance" xsi:schemaLocation="http://www.topografix.com/GPX/1/1 http://www.topografix.com/GPX/1/1/gpx.xsd" version="1.1" creator="VisuGPX - https://www.visugpx.com">
  <metadata>
    <name>Courmes</name>
    <desc><![CDATA[Bramafan - Courmes - Saint Barnabé - Pré Royer]]></desc>
  </metadata>
  <trk>
    <name><![CDATA[Courmes_1]]></name>
    <trkseg>
      <trkpt lat="43.76143" lon="6.98894">
        <ele>468</ele>
        <time>2011-07-16T13:45:38Z</time>
      </trkpt>
      <trkpt lat="43.76143" lon="6.98894">
        <ele>468</ele>
        <time>2011-07-16T13:45:46Z</time>
      </trkpt>
      <trkpt lat="43.76144" lon="6.98896">
        <ele>468</ele>
        <time>2011-07-16T13:45:47Z</time>
      </trkpt>
      <trkpt lat="43.76146" lon="6.98898">
        <ele>468</ele>
        <time>2011-07-16T13:45:48Z</time>
      </trkpt>
      <trkpt lat="43.76148" lon="6.98899">
        <ele>468</ele>
        <time>2011-07-16T13:45:49Z</time>
      </trkpt>
      <trkpt lat="43.76151" lon="6.98898">
        <ele>468</ele>
        <time>2011-07-16T13:45:50Z</time>
      </trkpt>
      <trkpt lat="43.76154" lon="6.98897">
        <ele>468</ele>
        <time>2011-07-16T13:45:51Z</time>
      </trkpt>
      <trkpt lat="43.76156" lon="6.98895">
        <ele>468</ele>
        <time>2011-07-16T13:45:52Z</time>
      </trkpt>
      <trkpt lat="43.76159" lon="6.98893">
        <ele>469</ele>
        <time>2011-07-16T13:45:53Z</time>
      </trkpt>
      <trkpt lat="43.76161" lon="6.9889">
        <ele>469</ele>
        <time>2011-07-16T13:45:54Z</time>
      </trkpt>
      <trkpt lat="43.76163" lon="6.98886">
        <ele>468</ele>
        <time>2011-07-16T13:45:55Z</time>
      </trkpt>
      <trkpt lat="43.76165" lon="6.98883">
        <ele>468</ele>
        <time>2011-07-16T13:45:56Z</time>
      </trkpt>
      <trkpt lat="43.76167" lon="6.98879">
        <ele>468</ele>
        <time>2011-07-16T13:45:57Z</time>
      </trkpt>
      <trkpt lat="43.76169" lon="6.98875">
        <ele>468</ele>
        <time>2011-07-16T13:45:58Z</time>
      </trkpt>
      <trkpt lat="43.76171" lon="6.98871">
        <ele>468</ele>
        <time>2011-07-16T13:45:59Z</time>
      </trkpt>
      <trkpt lat="43.76173" lon="6.98867">
        <ele>468</ele>
        <time>2011-07-16T13:46:00Z</time>
      </trkpt>
      <trkpt lat="43.76175" lon="6.98863">
        <ele>468</ele>
        <time>2011-07-16T13:46:01Z</time>
      </trkpt>
      <trkpt lat="43.76177" lon="6.98859">
        <ele>468</ele>
        <time>2011-07-16T13:46:02Z</time>
      </trkpt>
      <trkpt lat="43.7618" lon="6.98855">
        <ele>468</ele>
        <time>2011-07-16T13:46:03Z</time>
      </trkpt>
      <trkpt lat="43.76182" lon="6.98851">
        <ele>469</ele>
        <time>2011-07-16T13:46:04Z</time>
      </trkpt>
      <trkpt lat="43.76184" lon="6.98847">
        <ele>469</ele>
        <time>2011-07-16T13:46:05Z</time>
      </trkpt>
      <trkpt lat="43.7619" lon="6.98839">
        <ele>469</ele>
        <time>2011-07-16T13:46:07Z</time>
      </trkpt>
      <trkpt lat="43.76192" lon="6.98834">
        <ele>469</ele>
        <time>2011-07-16T13:46:08Z</time>
      </trkpt>
      <trkpt lat="43.76194" lon="6.9883">
        <ele>469</ele>
        <time>2011-07-16T13:46:09Z</time>
      </trkpt>
      <trkpt lat="43.76197" lon="6.98825">
        <ele>469</ele>
        <time>2011-07-16T13:46:10Z</time>
      </trkpt>
      <trkpt lat="43.76199" lon="6.98821">
        <ele>469</ele>
        <time>2011-07-16T13:46:11Z</time>
      </trkpt>
      <trkpt lat="43.76202" lon="6.98816">
        <ele>469</ele>
        <time>2011-07-16T13:46:12Z</time>
      </trkpt>
      <trkpt lat="43.76203" lon="6.98812">
        <ele>469</ele>
        <time>2011-07-16T13:46:13Z</time>
      </trkpt>
      <trkpt lat="43.76206" lon="6.98808">
        <ele>469</ele>
        <time>2011-07-16T13:46:14Z</time>
      </trkpt>
      <trkpt lat="43.76209" lon="6.98805">
        <ele>469</ele>
        <time>2011-07-16T13:46:15Z</time>
      </trkpt>
      <trkpt lat="43.76213" lon="6.98803">
        <ele>469</ele>
        <time>2011-07-16T13:46:16Z</time>
      </trkpt>
      <trkpt lat="43.76216" lon="6.988">
        <ele>469</ele>
        <time>2011-07-16T13:46:17Z</time>
      </trkpt>
      <trkpt lat="43.76219" lon="6.98799">
        <ele>469</ele>
        <time>2011-07-16T13:46:18Z</time>
      </trkpt>
      <trkpt lat="43.76223" lon="6.98797">
        <ele>469</ele>
        <time>2011-07-16T13:46:19Z</time>
      </trkpt>
      <trkpt lat="43.76227" lon="6.98795">
        <ele>469</ele>
        <time>2011-07-16T13:46:20Z</time>
      </trkpt>
      <trkpt lat="43.76231" lon="6.98794">
        <ele>469</ele>
        <time>2011-07-16T13:46:21Z</time>
      </trkpt>
      <trkpt lat="43.76239" lon="6.98792">
        <ele>469</ele>
        <time>2011-07-16T13:46:23Z</time>
      </trkpt>
      <trkpt lat="43.76242" lon="6.9879">
        <ele>469</ele>
        <time>2011-07-16T13:46:24Z</time>
      </trkpt>
      <trkpt lat="43.76245" lon="6.98789">
        <ele>469</ele>
        <time>2011-07-16T13:46:25Z</time>
      </trkpt>
      <trkpt lat="43.76248" lon="6.98788">
        <ele>469</ele>
        <time>2011-07-16T13:46:26Z</time>
      </trkpt>
      <trkpt lat="43.7625" lon="6.98787">
        <ele>469</ele>
        <time>2011-07-16T13:46:27Z</time>
      </trkpt>
      <trkpt lat="43.76252" lon="6.98785">
        <ele>469</ele>
        <time>2011-07-16T13:46:28Z</time>
      </trkpt>
      <trkpt lat="43.76254" lon="6.98783">
        <ele>470</ele>
        <time>2011-07-16T13:46:29Z</time>
      </trkpt>
      <trkpt lat="43.76256" lon="6.98781">
        <ele>470</ele>
        <time>2011-07-16T13:46:30Z</time>
      </trkpt>
      <trkpt lat="43.76258" lon="6.98779">
        <ele>470</ele>
        <time>2011-07-16T13:46:31Z</time>
      </trkpt>
      <trkpt lat="43.7626" lon="6.98777">
        <ele>470</ele>
        <time>2011-07-16T13:46:32Z</time>
      </trkpt>
      <trkpt lat="43.76262" lon="6.98775">
        <ele>471</ele>
        <time>2011-07-16T13:46:33Z</time>
      </trkpt>
      <trkpt lat="43.76264" lon="6.98775">
        <ele>471</ele>
        <time>2011-07-16T13:46:34Z</time>
      </trkpt>
      <trkpt lat="43.76265" lon="6.98776">
        <ele>471</ele>
        <time>2011-07-16T13:46:35Z</time>
      </trkpt>
      <trkpt lat="43.76266" lon="6.98779">
        <ele>472</ele>
        <time>2011-07-16T13:46:36Z</time>
      </trkpt>
      <trkpt lat="43.76265" lon="6.98781">
        <ele>472</ele>
        <time>2011-07-16T13:46:37Z</time>
      </trkpt>
      <trkpt lat="43.76264" lon="6.98783">
        <ele>472</ele>
        <time>2011-07-16T13:46:38Z</time>
      </trkpt>
      <trkpt lat="43.76261" lon="6.98785">
        <ele>472</ele>
        <time>2011-07-16T13:46:40Z</time>
      </trkpt>
      <trkpt lat="43.76259" lon="6.98787">
        <ele>472</ele>
        <time>2011-07-16T13:46:41Z</time>
      </trkpt>
      <trkpt lat="43.76257" lon="6.98788">
        <ele>472</ele>
        <time>2011-07-16T13:46:42Z</time>
      </trkpt>
      <trkpt lat="43.76255" lon="6.98789">
        <ele>472</ele>
        <time>2011-07-16T13:46:43Z</time>
      </trkpt>
      <trkpt lat="43.76253" lon="6.9879">
        <ele>472</ele>
        <time>2011-07-16T13:46:44Z</time>
      </trkpt>
      <trkpt lat="43.76252" lon="6.98791">
        <ele>472</ele>
        <time>2011-07-16T13:46:45Z</time>
      </trkpt>
      <trkpt lat="43.7625" lon="6.98792">
        <ele>473</ele>
        <time>2011-07-16T13:46:46Z</time>
      </trkpt>
      <trkpt lat="43.76249" lon="6.98793">
        <ele>473</ele>
        <time>2011-07-16T13:46:47Z</time>
      </trkpt>
      <trkpt lat="43.76248" lon="6.98794">
        <ele>473</ele>
        <time>2011-07-16T13:46:48Z</time>
      </trkpt>
      <trkpt lat="43.76246" lon="6.98795">
        <ele>473</ele>
        <time>2011-07-16T13:46:49Z</time>
      </trkpt>
      <trkpt lat="43.76246" lon="6.98795">
        <ele>473</ele>
        <time>2011-07-16T13:46:50Z</time>
      </trkpt>
      <trkpt lat="43.76244" lon="6.98796">
        <ele>473</ele>
        <time>2011-07-16T13:46:51Z</time>
      </trkpt>
      <trkpt lat="43.76243" lon="6.98798">
        <ele>474</ele>
        <time>2011-07-16T13:46:52Z</time>
      </trkpt>
      <trkpt lat="43.76242" lon="6.98799">
        <ele>474</ele>
        <time>2011-07-16T13:46:53Z</time>
      </trkpt>
      <trkpt lat="43.76241" lon="6.98799">
        <ele>474</ele>
        <time>2011-07-16T13:46:54Z</time>
      </trkpt>
      <trkpt lat="43.76239" lon="6.988">
        <ele>474</ele>
        <time>2011-07-16T13:46:55Z</time>
      </trkpt>
      <trkpt lat="43.76237" lon="6.98801">
        <ele>474</ele>
        <time>2011-07-16T13:46:56Z</time>
      </trkpt>
      <trkpt lat="43.76235" lon="6.98801">
        <ele>474</ele>
        <time>2011-07-16T13:46:57Z</time>
      </trkpt>
      <trkpt lat="43.76234" lon="6.98802">
        <ele>474</ele>
        <time>2011-07-16T13:46:58Z</time>
      </trkpt>
      <trkpt lat="43.76232" lon="6.98803">
        <ele>474</ele>
        <time>2011-07-16T13:46:59Z</time>
      </trkpt>
      <trkpt lat="43.76231" lon="6.98804">
        <ele>474</ele>
        <time>2011-07-16T13:47:00Z</time>
      </trkpt>
      <trkpt lat="43.7623" lon="6.98806">
        <ele>474</ele>
        <time>2011-07-16T13:47:01Z</time>
      </trkpt>
      <trkpt lat="43.76228" lon="6.98807">
        <ele>474</ele>
        <time>2011-07-16T13:47:02Z</time>
      </trkpt>
      <trkpt lat="43.76226" lon="6.98808">
        <ele>474</ele>
        <time>2011-07-16T13:47:03Z</time>
      </trkpt>
      <trkpt lat="43.76224" lon="6.98809">
        <ele>474</ele>
        <time>2011-07-16T13:47:04Z</time>
      </trkpt>
      <trkpt lat="43.76222" lon="6.98811">
        <ele>474</ele>
        <time>2011-07-16T13:47:05Z</time>
      </trkpt>
      <trkpt lat="43.76221" lon="6.98813">
        <ele>475</ele>
        <time>2011-07-16T13:47:06Z</time>
      </trkpt>
      <trkpt lat="43.76219" lon="6.98814">
        <ele>475</ele>
        <time>2011-07-16T13:47:07Z</time>
      </trkpt>
      <trkpt lat="43.76218" lon="6.98816">
        <ele>475</ele>
        <time>2011-07-16T13:47:08Z</time>
      </trkpt>
      <trkpt lat="43.76216" lon="6.98818">
        <ele>475</ele>
        <time>2011-07-16T13:47:09Z</time>
      </trkpt>
      <trkpt lat="43.76215" lon="6.9882">
        <ele>475</ele>
        <time>2011-07-16T13:47:10Z</time>
      </trkpt>
      <trkpt lat="43.76214" lon="6.98822">
        <ele>476</ele>
        <time>2011-07-16T13:47:11Z</time>
      </trkpt>
      <trkpt lat="43.76212" lon="6.98824">
        <ele>476</ele>
        <time>2011-07-16T13:47:12Z</time>
      </trkpt>
      <trkpt lat="43.76211" lon="6.98826">
        <ele>476</ele>
        <time>2011-07-16T13:47:13Z</time>
      </trkpt>
      <trkpt lat="43.7621" lon="6.98828">
        <ele>476</ele>
        <time>2011-07-16T13:47:14Z</time>
      </trkpt>
      <trkpt lat="43.76209" lon="6.98831">
        <ele>476</ele>
        <time>2011-07-16T13:47:15Z</time>
      </trkpt>
      <trkpt lat="43.76209" lon="6.98833">
        <ele>476</ele>
        <time>2011-07-16T13:47:16Z</time>
      </trkpt>
      <trkpt lat="43.76208" lon="6.98836">
        <ele>476</ele>
        <time>2011-07-16T13:47:17Z</time>
      </trkpt>
      <trkpt lat="43.76208" lon="6.98838">
        <ele>476</ele>
        <time>2011-07-16T13:47:18Z</time>
      </trkpt>
      <trkpt lat="43.76207" lon="6.9884">
        <ele>476</ele>
        <time>2011-07-16T13:47:19Z</time>
      </trkpt>
      <trkpt lat="43.76206" lon="6.98841">
        <ele>477</ele>
        <time>2011-07-16T13:47:20Z</time>
      </trkpt>
      <trkpt lat="43.76206" lon="6.98844">
        <ele>477</ele>
        <time>2011-07-16T13:47:21Z</time>
      </trkpt>
      <trkpt lat="43.76205" lon="6.98846">
        <ele>478</ele>
        <time>2011-07-16T13:47:22Z</time>
      </trkpt>
      <trkpt lat="43.76204" lon="6.98848">
        <ele>478</ele>
        <time>2011-07-16T13:47:23Z</time>
      </trkpt>
      <trkpt lat="43.76204" lon="6.9885">
        <ele>478</ele>
        <time>2011-07-16T13:47:24Z</time>
      </trkpt>
      <trkpt lat="43.76203" lon="6.98852">
        <ele>478</ele>
        <time>2011-07-16T13:47:25Z</time>
      </trkpt>
      <trkpt lat="43.76202" lon="6.98855">
        <ele>478</ele>
        <time>2011-07-16T13:47:26Z</time>
      </trkpt>
      <trkpt lat="43.76201" lon="6.98857">
        <ele>478</ele>
        <time>2011-07-16T13:47:27Z</time>
      </trkpt>
      <trkpt lat="43.762" lon="6.98859">
        <ele>478</ele>
        <time>2011-07-16T13:47:28Z</time>
      </trkpt>
      <trkpt lat="43.762" lon="6.98862">
        <ele>479</ele>
        <time>2011-07-16T13:47:29Z</time>
      </trkpt>
      <trkpt lat="43.76199" lon="6.98864">
        <ele>479</ele>
        <time>2011-07-16T13:47:30Z</time>
      </trkpt>
      <trkpt lat="43.76198" lon="6.98866">
        <ele>479</ele>
        <time>2011-07-16T13:47:31Z</time>
      </trkpt>
      <trkpt lat="43.76197" lon="6.98869">
        <ele>479</ele>
        <time>2011-07-16T13:47:32Z</time>
      </trkpt>
      <trkpt lat="43.76196" lon="6.98871">
        <ele>480</ele>
        <time>2011-07-16T13:47:33Z</time>
      </trkpt>
      <trkpt lat="43.76195" lon="6.98876">
        <ele>480</ele>
        <time>2011-07-16T13:47:35Z</time>
      </trkpt>
      <trkpt lat="43.76194" lon="6.98878">
        <ele>481</ele>
        <time>2011-07-16T13:47:36Z</time>
      </trkpt>
      <trkpt lat="43.76194" lon="6.98881">
        <ele>481</ele>
        <time>2011-07-16T13:47:37Z</time>
      </trkpt>
      <trkpt lat="43.76193" lon="6.98883">
        <ele>481</ele>
        <time>2011-07-16T13:47:38Z</time>
      </trkpt>
      <trkpt lat="43.76194" lon="6.98885">
        <ele>481</ele>
        <time>2011-07-16T13:47:39Z</time>
      </trkpt>
      <trkpt lat="43.76193" lon="6.98888">
        <ele>481</ele>
        <time>2011-07-16T13:47:40Z</time>
      </trkpt>
      <trkpt lat="43.76193" lon="6.98895">
        <ele>482</ele>
        <time>2011-07-16T13:47:43Z</time>
      </trkpt>
      <trkpt lat="43.76194" lon="6.98897">
        <ele>482</ele>
        <time>2011-07-16T13:47:44Z</time>
      </trkpt>
      <trkpt lat="43.76194" lon="6.98901">
        <ele>483</ele>
        <time>2011-07-16T13:47:46Z</time>
      </trkpt>
      <trkpt lat="43.76194" lon="6.98907">
        <ele>484</ele>
        <time>2011-07-16T13:47:49Z</time>
      </trkpt>
      <trkpt lat="43.76194" lon="6.98909">
        <ele>485</ele>
        <time>2011-07-16T13:47:50Z</time>
      </trkpt>
      <trkpt lat="43.76194" lon="6.98911">
        <ele>485</ele>
        <time>2011-07-16T13:47:51Z</time>
      </trkpt>
      <trkpt lat="43.76196" lon="6.98915">
        <ele>485</ele>
        <time>2011-07-16T13:47:53Z</time>
      </trkpt>
      <trkpt lat="43.76197" lon="6.98917">
        <ele>485</ele>
        <time>2011-07-16T13:47:54Z</time>
      </trkpt>
      <trkpt lat="43.76197" lon="6.98918">
        <ele>486</ele>
        <time>2011-07-16T13:47:55Z</time>
      </trkpt>
      <trkpt lat="43.76198" lon="6.9892">
        <ele>486</ele>
        <time>2011-07-16T13:47:56Z</time>
      </trkpt>
      <trkpt lat="43.76198" lon="6.98922">
        <ele>486</ele>
        <time>2011-07-16T13:47:57Z</time>
      </trkpt>
      <trkpt lat="43.76198" lon="6.98923">
        <ele>487</ele>
        <time>2011-07-16T13:47:58Z</time>
      </trkpt>
      <trkpt lat="43.76199" lon="6.98925">
        <ele>487</ele>
        <time>2011-07-16T13:47:59Z</time>
      </trkpt>
      <trkpt lat="43.762" lon="6.98927">
        <ele>487</ele>
        <time>2011-07-16T13:48:00Z</time>
      </trkpt>
      <trkpt lat="43.762" lon="6.98928">
        <ele>488</ele>
        <time>2011-07-16T13:48:01Z</time>
      </trkpt>
      <trkpt lat="43.762" lon="6.9893">
        <ele>488</ele>
        <time>2011-07-16T13:48:02Z</time>
      </trkpt>
      <trkpt lat="43.76201" lon="6.98932">
        <ele>488</ele>
        <time>2011-07-16T13:48:03Z</time>
      </trkpt>
      <trkpt lat="43.76201" lon="6.98934">
        <ele>488</ele>
        <time>2011-07-16T13:48:04Z</time>
      </trkpt>
      <trkpt lat="43.76202" lon="6.98935">
        <ele>488</ele>
        <time>2011-07-16T13:48:05Z</time>
      </trkpt>
      <trkpt lat="43.76204" lon="6.98936">
        <ele>489</ele>
        <time>2011-07-16T13:48:06Z</time>
      </trkpt>
      <trkpt lat="43.76205" lon="6.98937">
        <ele>489</ele>
        <time>2011-07-16T13:48:07Z</time>
      </trkpt>
      <trkpt lat="43.76205" lon="6.98939">
        <ele>489</ele>
        <time>2011-07-16T13:48:08Z</time>
      </trkpt>
      <trkpt lat="43.76206" lon="6.98941">
        <ele>489</ele>
        <time>2011-07-16T13:48:09Z</time>
      </trkpt>
      <trkpt lat="43.76207" lon="6.98942">
        <ele>490</ele>
        <time>2011-07-16T13:48:10Z</time>
      </trkpt>
      <trkpt lat="43.76208" lon="6.98944">
        <ele>490</ele>
        <time>2011-07-16T13:48:11Z</time>
      </trkpt>
      <trkpt lat="43.76208" lon="6.98946">
        <ele>490</ele>
        <time>2011-07-16T13:48:12Z</time>
      </trkpt>
      <trkpt lat="43.76209" lon="6.98948">
        <ele>491</ele>
        <time>2011-07-16T13:48:13Z</time>
      </trkpt>
      <trkpt lat="43.76211" lon="6.9895">
        <ele>491</ele>
        <time>2011-07-16T13:48:15Z</time>
      </trkpt>
      <trkpt lat="43.76211" lon="6.98952">
        <ele>492</ele>
        <time>2011-07-16T13:48:16Z</time>
      </trkpt>
      <trkpt lat="43.76213" lon="6.98955">
        <ele>492</ele>
        <time>2011-07-16T13:48:18Z</time>
      </trkpt>
      <trkpt lat="43.76214" lon="6.98956">
        <ele>492</ele>
        <time>2011-07-16T13:48:19Z</time>
      </trkpt>
      <trkpt lat="43.76214" lon="6.98958">
        <ele>493</ele>
        <time>2011-07-16T13:48:20Z</time>
      </trkpt>
      <trkpt lat="43.76215" lon="6.98959">
        <ele>493</ele>
        <time>2011-07-16T13:48:21Z</time>
      </trkpt>
      <trkpt lat="43.76216" lon="6.9896">
        <ele>493</ele>
        <time>2011-07-16T13:48:22Z</time>
      </trkpt>
      <trkpt lat="43.76217" lon="6.98962">
        <ele>494</ele>
        <time>2011-07-16T13:48:23Z</time>
      </trkpt>
      <trkpt lat="43.76218" lon="6.98962">
        <ele>494</ele>
        <time>2011-07-16T13:48:24Z</time>
      </trkpt>
      <trkpt lat="43.7622" lon="6.98963">
        <ele>494</ele>
        <time>2011-07-16T13:48:25Z</time>
      </trkpt>
      <trkpt lat="43.76221" lon="6.98965">
        <ele>494</ele>
        <time>2011-07-16T13:48:26Z</time>
      </trkpt>
      <trkpt lat="43.76222" lon="6.98966">
        <ele>494</ele>
        <time>2011-07-16T13:48:27Z</time>
      </trkpt>
      <trkpt lat="43.76223" lon="6.98968">
        <ele>494</ele>
        <time>2011-07-16T13:48:28Z</time>
      </trkpt>
      <trkpt lat="43.76225" lon="6.98971">
        <ele>494</ele>
        <time>2011-07-16T13:48:30Z</time>
      </trkpt>
      <trkpt lat="43.76225" lon="6.98973">
        <ele>495</ele>
        <time>2011-07-16T13:48:31Z</time>
      </trkpt>
      <trkpt lat="43.76227" lon="6.98975">
        <ele>495</ele>
        <time>2011-07-16T13:48:32Z</time>
      </trkpt>
      <trkpt lat="43.76228" lon="6.98976">
        <ele>495</ele>
        <time>2011-07-16T13:48:33Z</time>
      </trkpt>
      <trkpt lat="43.76229" lon="6.98978">
        <ele>494</ele>
        <time>2011-07-16T13:48:34Z</time>
      </trkpt>
      <trkpt lat="43.76231" lon="6.9898">
        <ele>494</ele>
        <time>2011-07-16T13:48:35Z</time>
      </trkpt>
      <trkpt lat="43.76232" lon="6.98982">
        <ele>495</ele>
        <time>2011-07-16T13:48:36Z</time>
      </trkpt>
      <trkpt lat="43.76233" lon="6.98984">
        <ele>495</ele>
        <time>2011-07-16T13:48:37Z</time>
      </trkpt>
      <trkpt lat="43.76233" lon="6.98986">
        <ele>495</ele>
        <time>2011-07-16T13:48:38Z</time>
      </trkpt>
      <trkpt lat="43.76233" lon="6.98988">
        <ele>495</ele>
        <time>2011-07-16T13:48:39Z</time>
      </trkpt>
      <trkpt lat="43.76234" lon="6.98989">
        <ele>495</ele>
        <time>2011-07-16T13:48:40Z</time>
      </trkpt>
      <trkpt lat="43.76235" lon="6.98991">
        <ele>496</ele>
        <time>2011-07-16T13:48:41Z</time>
      </trkpt>
      <trkpt lat="43.76235" lon="6.98993">
        <ele>496</ele>
        <time>2011-07-16T13:48:42Z</time>
      </trkpt>
      <trkpt lat="43.76235" lon="6.98995">
        <ele>496</ele>
        <time>2011-07-16T13:48:43Z</time>
      </trkpt>
      <trkpt lat="43.76235" lon="6.98997">
        <ele>497</ele>
        <time>2011-07-16T13:48:44Z</time>
      </trkpt>
      <trkpt lat="43.76236" lon="6.98999">
        <ele>497</ele>
        <time>2011-07-16T13:48:45Z</time>
      </trkpt>
      <trkpt lat="43.76236" lon="6.99001">
        <ele>498</ele>
        <time>2011-07-16T13:48:46Z</time>
      </trkpt>
      <trkpt lat="43.76236" lon="6.99005">
        <ele>498</ele>
        <time>2011-07-16T13:48:48Z</time>
      </trkpt>
      <trkpt lat="43.76236" lon="6.99007">
        <ele>498</ele>
        <time>2011-07-16T13:48:49Z</time>
      </trkpt>
      <trkpt lat="43.76237" lon="6.99009">
        <ele>499</ele>
        <time>2011-07-16T13:48:50Z</time>
      </trkpt>
      <trkpt lat="43.76237" lon="6.99011">
        <ele>499</ele>
        <time>2011-07-16T13:48:51Z</time>
      </trkpt>
      <trkpt lat="43.76237" lon="6.99013">
        <ele>499</ele>
        <time>2011-07-16T13:48:52Z</time>
      </trkpt>
      <trkpt lat="43.76237" lon="6.99015">
        <ele>500</ele>
        <time>2011-07-16T13:48:53Z</time>
      </trkpt>
      <trkpt lat="43.76237" lon="6.99018">
        <ele>500</ele>
        <time>2011-07-16T13:48:54Z</time>
      </trkpt>
      <trkpt lat="43.76237" lon="6.9902">
        <ele>500</ele>
        <time>2011-07-16T13:48:55Z</time>
      </trkpt>
      <trkpt lat="43.76237" lon="6.99022">
        <ele>500</ele>
        <time>2011-07-16T13:48:56Z</time>
      </trkpt>
      <trkpt lat="43.76237" lon="6.99024">
        <ele>500</ele>
        <time>2011-07-16T13:48:57Z</time>
      </trkpt>
      <trkpt lat="43.76237" lon="6.99026">
        <ele>501</ele>
        <time>2011-07-16T13:48:58Z</time>
      </trkpt>
      <trkpt lat="43.76237" lon="6.99029">
        <ele>501</ele>
        <time>2011-07-16T13:48:59Z</time>
      </trkpt>
      <trkpt lat="43.76237" lon="6.99031">
        <ele>501</ele>
        <time>2011-07-16T13:49:00Z</time>
      </trkpt>
      <trkpt lat="43.76237" lon="6.99035">
        <ele>502</ele>
        <time>2011-07-16T13:49:02Z</time>
      </trkpt>
      <trkpt lat="43.76236" lon="6.99037">
        <ele>502</ele>
        <time>2011-07-16T13:49:03Z</time>
      </trkpt>
      <trkpt lat="43.76236" lon="6.99039">
        <ele>502</ele>
        <time>2011-07-16T13:49:04Z</time>
      </trkpt>
      <trkpt lat="43.76236" lon="6.99041">
        <ele>502</ele>
        <time>2011-07-16T13:49:05Z</time>
      </trkpt>
      <trkpt lat="43.76236" lon="6.99042">
        <ele>502</ele>
        <time>2011-07-16T13:49:06Z</time>
      </trkpt>
      <trkpt lat="43.76236" lon="6.99044">
        <ele>502</ele>
        <time>2011-07-16T13:49:07Z</time>
      </trkpt>
      <trkpt lat="43.76236" lon="6.99049">
        <ele>503</ele>
        <time>2011-07-16T13:49:10Z</time>
      </trkpt>
      <trkpt lat="43.76236" lon="6.9905">
        <ele>503</ele>
        <time>2011-07-16T13:49:11Z</time>
      </trkpt>
      <trkpt lat="43.76236" lon="6.99051">
        <ele>503</ele>
        <time>2011-07-16T13:49:12Z</time>
      </trkpt>
      <trkpt lat="43.76237" lon="6.99052">
        <ele>503</ele>
        <time>2011-07-16T13:49:13Z</time>
      </trkpt>
      <trkpt lat="43.76238" lon="6.99052">
        <ele>504</ele>
        <time>2011-07-16T13:49:14Z</time>
      </trkpt>
      <trkpt lat="43.76238" lon="6.99052">
        <ele>504</ele>
        <time>2011-07-16T13:49:16Z</time>
      </trkpt>
      <trkpt lat="43.76238" lon="6.99051">
        <ele>504</ele>
        <time>2011-07-16T13:49:26Z</time>
      </trkpt>
      <trkpt lat="43.76238" lon="6.99052">
        <ele>504</ele>
        <time>2011-07-16T13:49:36Z</time>
      </trkpt>
      <trkpt lat="43.76238" lon="6.99052">
        <ele>504</ele>
        <time>2011-07-16T13:49:37Z</time>
      </trkpt>
      <trkpt lat="43.76238" lon="6.99052">
        <ele>504</ele>
        <time>2011-07-16T13:49:38Z</time>
      </trkpt>
      <trkpt lat="43.76237" lon="6.99052">
        <ele>504</ele>
        <time>2011-07-16T13:49:39Z</time>
      </trkpt>
      <trkpt lat="43.76235" lon="6.99053">
        <ele>504</ele>
        <time>2011-07-16T13:49:41Z</time>
      </trkpt>
      <trkpt lat="43.76234" lon="6.99055">
        <ele>505</ele>
        <time>2011-07-16T13:49:42Z</time>
      </trkpt>
      <trkpt lat="43.76233" lon="6.99057">
        <ele>505</ele>
        <time>2011-07-16T13:49:43Z</time>
      </trkpt>
      <trkpt lat="43.76232" lon="6.99059">
        <ele>505</ele>
        <time>2011-07-16T13:49:44Z</time>
      </trkpt>
      <trkpt lat="43.76231" lon="6.99062">
        <ele>505</ele>
        <time>2011-07-16T13:49:45Z</time>
      </trkpt>
      <trkpt lat="43.7623" lon="6.99064">
        <ele>505</ele>
        <time>2011-07-16T13:49:46Z</time>
      </trkpt>
      <trkpt lat="43.7623" lon="6.99066">
        <ele>505</ele>
        <time>2011-07-16T13:49:47Z</time>
      </trkpt>
      <trkpt lat="43.76229" lon="6.99068">
        <ele>505</ele>
        <time>2011-07-16T13:49:48Z</time>
      </trkpt>
      <trkpt lat="43.76228" lon="6.9907">
        <ele>505</ele>
        <time>2011-07-16T13:49:49Z</time>
      </trkpt>
      <trkpt lat="43.76227" lon="6.99072">
        <ele>505</ele>
        <time>2011-07-16T13:49:50Z</time>
      </trkpt>
      <trkpt lat="43.76226" lon="6.99074">
        <ele>505</ele>
        <time>2011-07-16T13:49:51Z</time>
      </trkpt>
      <trkpt lat="43.76226" lon="6.99075">
        <ele>505</ele>
        <time>2011-07-16T13:49:52Z</time>
      </trkpt>
      <trkpt lat="43.76225" lon="6.99078">
        <ele>505</ele>
        <time>2011-07-16T13:49:53Z</time>
      </trkpt>
      <trkpt lat="43.76225" lon="6.99079">
        <ele>505</ele>
        <time>2011-07-16T13:49:54Z</time>
      </trkpt>
      <trkpt lat="43.76223" lon="6.99084">
        <ele>505</ele>
        <time>2011-07-16T13:49:56Z</time>
      </trkpt>
      <trkpt lat="43.76222" lon="6.99086">
        <ele>505</ele>
        <time>2011-07-16T13:49:57Z</time>
      </trkpt>
      <trkpt lat="43.76221" lon="6.99088">
        <ele>505</ele>
        <time>2011-07-16T13:49:58Z</time>
      </trkpt>
      <trkpt lat="43.7622" lon="6.99091">
        <ele>505</ele>
        <time>2011-07-16T13:49:59Z</time>
      </trkpt>
      <trkpt lat="43.76219" lon="6.99092">
        <ele>505</ele>
        <time>2011-07-16T13:50:00Z</time>
      </trkpt>
      <trkpt lat="43.76218" lon="6.99095">
        <ele>505</ele>
        <time>2011-07-16T13:50:01Z</time>
      </trkpt>
      <trkpt lat="43.76217" lon="6.99097">
        <ele>505</ele>
        <time>2011-07-16T13:50:02Z</time>
      </trkpt>
      <trkpt lat="43.76216" lon="6.99099">
        <ele>505</ele>
        <time>2011-07-16T13:50:03Z</time>
      </trkpt>
      <trkpt lat="43.76215" lon="6.991">
        <ele>505</ele>
        <time>2011-07-16T13:50:04Z</time>
      </trkpt>
      <trkpt lat="43.76214" lon="6.99102">
        <ele>505</ele>
        <time>2011-07-16T13:50:05Z</time>
      </trkpt>
      <trkpt lat="43.76213" lon="6.99103">
        <ele>506</ele>
        <time>2011-07-16T13:50:06Z</time>
      </trkpt>
      <trkpt lat="43.76212" lon="6.99105">
        <ele>506</ele>
        <time>2011-07-16T13:50:07Z</time>
      </trkpt>
      <trkpt lat="43.76211" lon="6.99106">
        <ele>506</ele>
        <time>2011-07-16T13:50:08Z</time>
      </trkpt>
      <trkpt lat="43.76209" lon="6.99107">
        <ele>506</ele>
        <time>2011-07-16T13:50:09Z</time>
      </trkpt>
      <trkpt lat="43.76208" lon="6.99108">
        <ele>506</ele>
        <time>2011-07-16T13:50:10Z</time>
      </trkpt>
      <trkpt lat="43.76207" lon="6.99109">
        <ele>506</ele>
        <time>2011-07-16T13:50:11Z</time>
      </trkpt>
      <trkpt lat="43.76206" lon="6.99111">
        <ele>506</ele>
        <time>2011-07-16T13:50:12Z</time>
      </trkpt>
      <trkpt lat="43.76205" lon="6.99112">
        <ele>506</ele>
        <time>2011-07-16T13:50:13Z</time>
      </trkpt>
      <trkpt lat="43.76204" lon="6.99113">
        <ele>506</ele>
        <time>2011-07-16T13:50:14Z</time>
      </trkpt>
      <trkpt lat="43.76203" lon="6.99115">
        <ele>507</ele>
        <time>2011-07-16T13:50:15Z</time>
      </trkpt>
      <trkpt lat="43.76202" lon="6.99116">
        <ele>507</ele>
        <time>2011-07-16T13:50:16Z</time>
      </trkpt>
      <trkpt lat="43.76201" lon="6.99117">
        <ele>507</ele>
        <time>2011-07-16T13:50:17Z</time>
      </trkpt>
      <trkpt lat="43.762" lon="6.99118">
        <ele>507</ele>
        <time>2011-07-16T13:50:18Z</time>
      </trkpt>
      <trkpt lat="43.76198" lon="6.99119">
        <ele>507</ele>
        <time>2011-07-16T13:50:19Z</time>
      </trkpt>
      <trkpt lat="43.76197" lon="6.9912">
        <ele>507</ele>
        <time>2011-07-16T13:50:20Z</time>
      </trkpt>
      <trkpt lat="43.76196" lon="6.99122">
        <ele>508</ele>
        <time>2011-07-16T13:50:21Z</time>
      </trkpt>
      <trkpt lat="43.76196" lon="6.99123">
        <ele>508</ele>
        <time>2011-07-16T13:50:22Z</time>
      </trkpt>
      <trkpt lat="43.76195" lon="6.99125">
        <ele>508</ele>
        <time>2011-07-16T13:50:23Z</time>
      </trkpt>
      <trkpt lat="43.76195" lon="6.99127">
        <ele>508</ele>
        <time>2011-07-16T13:50:24Z</time>
      </trkpt>
      <trkpt lat="43.76195" lon="6.99128">
        <ele>508</ele>
        <time>2011-07-16T13:50:25Z</time>
      </trkpt>
      <trkpt lat="43.76195" lon="6.9913">
        <ele>509</ele>
        <time>2011-07-16T13:50:26Z</time>
      </trkpt>
      <trkpt lat="43.76196" lon="6.99131">
        <ele>509</ele>
        <time>2011-07-16T13:50:27Z</time>
      </trkpt>
      <trkpt lat="43.76197" lon="6.99133">
        <ele>509</ele>
        <time>2011-07-16T13:50:28Z</time>
      </trkpt>
      <trkpt lat="43.76198" lon="6.99133">
        <ele>510</ele>
        <time>2011-07-16T13:50:29Z</time>
      </trkpt>
      <trkpt lat="43.762" lon="6.99133">
        <ele>510</ele>
        <time>2011-07-16T13:50:30Z</time>
      </trkpt>
      <trkpt lat="43.76201" lon="6.99133">
        <ele>510</ele>
        <time>2011-07-16T13:50:31Z</time>
      </trkpt>
      <trkpt lat="43.76202" lon="6.99132">
        <ele>511</ele>
        <time>2011-07-16T13:50:32Z</time>
      </trkpt>
      <trkpt lat="43.76203" lon="6.99131">
        <ele>511</ele>
        <time>2011-07-16T13:50:33Z</time>
      </trkpt>
      <trkpt lat="43.76205" lon="6.9913">
        <ele>511</ele>
        <time>2011-07-16T13:50:34Z</time>
      </trkpt>
      <trkpt lat="43.76206" lon="6.99129">
        <ele>511</ele>
        <time>2011-07-16T13:50:35Z</time>
      </trkpt>
      <trkpt lat="43.76208" lon="6.99128">
        <ele>512</ele>
        <time>2011-07-16T13:50:36Z</time>
      </trkpt>
      <trkpt lat="43.7621" lon="6.99126">
        <ele>512</ele>
        <time>2011-07-16T13:50:38Z</time>
      </trkpt>
      <trkpt lat="43.76211" lon="6.99125">
        <ele>512</ele>
        <time>2011-07-16T13:50:39Z</time>
      </trkpt>
      <trkpt lat="43.76212" lon="6.99124">
        <ele>513</ele>
        <time>2011-07-16T13:50:40Z</time>
      </trkpt>
      <trkpt lat="43.76213" lon="6.99123">
        <ele>513</ele>
        <time>2011-07-16T13:50:41Z</time>
      </trkpt>
      <trkpt lat="43.76213" lon="6.99123">
        <ele>513</ele>
        <time>2011-07-16T13:50:45Z</time>
      </trkpt>
      <trkpt lat="43.76214" lon="6.99122">
        <ele>514</ele>
        <time>2011-07-16T13:50:46Z</time>
      </trkpt>
      <trkpt lat="43.76214" lon="6.99121">
        <ele>514</ele>
        <time>2011-07-16T13:50:47Z</time>
      </trkpt>
      <trkpt lat="43.76214" lon="6.99121">
        <ele>514</ele>
        <time>2011-07-16T13:50:48Z</time>
      </trkpt>
      <trkpt lat="43.76214" lon="6.99122">
        <ele>514</ele>
        <time>2011-07-16T13:50:50Z</time>
      </trkpt>
      <trkpt lat="43.76215" lon="6.99122">
        <ele>514</ele>
        <time>2011-07-16T13:50:51Z</time>
      </trkpt>
      <trkpt lat="43.76215" lon="6.99121">
        <ele>514</ele>
        <time>2011-07-16T13:50:52Z</time>
      </trkpt>
      <trkpt lat="43.76216" lon="6.9912">
        <ele>514</ele>
        <time>2011-07-16T13:50:53Z</time>
      </trkpt>
      <trkpt lat="43.76217" lon="6.99119">
        <ele>514</ele>
        <time>2011-07-16T13:50:54Z</time>
      </trkpt>
      <trkpt lat="43.76217" lon="6.99118">
        <ele>514</ele>
        <time>2011-07-16T13:50:55Z</time>
      </trkpt>
      <trkpt lat="43.76218" lon="6.99117">
        <ele>514</ele>
        <time>2011-07-16T13:50:56Z</time>
      </trkpt>
      <trkpt lat="43.76219" lon="6.99116">
        <ele>515</ele>
        <time>2011-07-16T13:50:57Z</time>
      </trkpt>
      <trkpt lat="43.7622" lon="6.99115">
        <ele>514</ele>
        <time>2011-07-16T13:50:58Z</time>
      </trkpt>
      <trkpt lat="43.76221" lon="6.99115">
        <ele>514</ele>
        <time>2011-07-16T13:50:59Z</time>
      </trkpt>
      <trkpt lat="43.76222" lon="6.99114">
        <ele>515</ele>
        <time>2011-07-16T13:51:00Z</time>
      </trkpt>
      <trkpt lat="43.76224" lon="6.99114">
        <ele>515</ele>
        <time>2011-07-16T13:51:02Z</time>
      </trkpt>
      <trkpt lat="43.76225" lon="6.99114">
        <ele>515</ele>
        <time>2011-07-16T13:51:03Z</time>
      </trkpt>
      <trkpt lat="43.76226" lon="6.99113">
        <ele>515</ele>
        <time>2011-07-16T13:51:04Z</time>
      </trkpt>
      <trkpt lat="43.76227" lon="6.99113">
        <ele>515</ele>
        <time>2011-07-16T13:51:05Z</time>
      </trkpt>
      <trkpt lat="43.76228" lon="6.99112">
        <ele>515</ele>
        <time>2011-07-16T13:51:06Z</time>
      </trkpt>
      <trkpt lat="43.7623" lon="6.99111">
        <ele>515</ele>
        <time>2011-07-16T13:51:08Z</time>
      </trkpt>
      <trkpt lat="43.76232" lon="6.99109">
        <ele>516</ele>
        <time>2011-07-16T13:51:10Z</time>
      </trkpt>
      <trkpt lat="43.76233" lon="6.99107">
        <ele>516</ele>
        <time>2011-07-16T13:51:12Z</time>
      </trkpt>
      <trkpt lat="43.76233" lon="6.99106">
        <ele>516</ele>
        <time>2011-07-16T13:51:13Z</time>
      </trkpt>
      <trkpt lat="43.76234" lon="6.99106">
        <ele>517</ele>
        <time>2011-07-16T13:51:14Z</time>
      </trkpt>
      <trkpt lat="43.76235" lon="6.99106">
        <ele>517</ele>
        <time>2011-07-16T13:51:15Z</time>
      </trkpt>
      <trkpt lat="43.76236" lon="6.99105">
        <ele>516</ele>
        <time>2011-07-16T13:51:16Z</time>
      </trkpt>
      <trkpt lat="43.76237" lon="6.99104">
        <ele>516</ele>
        <time>2011-07-16T13:51:17Z</time>
      </trkpt>
      <trkpt lat="43.76239" lon="6.99102">
        <ele>516</ele>
        <time>2011-07-16T13:51:19Z</time>
      </trkpt>
      <trkpt lat="43.7624" lon="6.99102">
        <ele>516</ele>
        <time>2011-07-16T13:51:20Z</time>
      </trkpt>
      <trkpt lat="43.7624" lon="6.99101">
        <ele>517</ele>
        <time>2011-07-16T13:51:21Z</time>
      </trkpt>
      <trkpt lat="43.76241" lon="6.991">
        <ele>517</ele>
        <time>2011-07-16T13:51:22Z</time>
      </trkpt>
      <trkpt lat="43.76242" lon="6.991">
        <ele>518</ele>
        <time>2011-07-16T13:51:23Z</time>
      </trkpt>
      <trkpt lat="43.76243" lon="6.99099">
        <ele>518</ele>
        <time>2011-07-16T13:51:24Z</time>
      </trkpt>
      <trkpt lat="43.76244" lon="6.99099">
        <ele>518</ele>
        <time>2011-07-16T13:51:25Z</time>
      </trkpt>
      <trkpt lat="43.76245" lon="6.99099">
        <ele>519</ele>
        <time>2011-07-16T13:51:26Z</time>
      </trkpt>
      <trkpt lat="43.76246" lon="6.99098">
        <ele>519</ele>
        <time>2011-07-16T13:51:27Z</time>
      </trkpt>
      <trkpt lat="43.76248" lon="6.99098">
        <ele>520</ele>
        <time>2011-07-16T13:51:28Z</time>
      </trkpt>
      <trkpt lat="43.76249" lon="6.99097">
        <ele>520</ele>
        <time>2011-07-16T13:51:29Z</time>
      </trkpt>
      <trkpt lat="43.7625" lon="6.99097">
        <ele>520</ele>
        <time>2011-07-16T13:51:30Z</time>
      </trkpt>
      <trkpt lat="43.76252" lon="6.99096">
        <ele>520</ele>
        <time>2011-07-16T13:51:31Z</time>
      </trkpt>
      <trkpt lat="43.76253" lon="6.99096">
        <ele>520</ele>
        <time>2011-07-16T13:51:32Z</time>
      </trkpt>
      <trkpt lat="43.76254" lon="6.99096">
        <ele>520</ele>
        <time>2011-07-16T13:51:33Z</time>
      </trkpt>
      <trkpt lat="43.76255" lon="6.99095">
        <ele>520</ele>
        <time>2011-07-16T13:51:34Z</time>
      </trkpt>
      <trkpt lat="43.76257" lon="6.99095">
        <ele>521</ele>
        <time>2011-07-16T13:51:35Z</time>
      </trkpt>
      <trkpt lat="43.76258" lon="6.99094">
        <ele>521</ele>
        <time>2011-07-16T13:51:36Z</time>
      </trkpt>
      <trkpt lat="43.76259" lon="6.99094">
        <ele>521</ele>
        <time>2011-07-16T13:51:37Z</time>
      </trkpt>
      <trkpt lat="43.7626" lon="6.99093">
        <ele>522</ele>
        <time>2011-07-16T13:51:38Z</time>
      </trkpt>
      <trkpt lat="43.76262" lon="6.99093">
        <ele>522</ele>
        <time>2011-07-16T13:51:39Z</time>
      </trkpt>
      <trkpt lat="43.76263" lon="6.99093">
        <ele>522</ele>
        <time>2011-07-16T13:51:40Z</time>
      </trkpt>
      <trkpt lat="43.76264" lon="6.99093">
        <ele>522</ele>
        <time>2011-07-16T13:51:41Z</time>
      </trkpt>
      <trkpt lat="43.76266" lon="6.99093">
        <ele>522</ele>
        <time>2011-07-16T13:51:42Z</time>
      </trkpt>
      <trkpt lat="43.76267" lon="6.99093">
        <ele>522</ele>
        <time>2011-07-16T13:51:43Z</time>
      </trkpt>
      <trkpt lat="43.76269" lon="6.99093">
        <ele>522</ele>
        <time>2011-07-16T13:51:44Z</time>
      </trkpt>
      <trkpt lat="43.7627" lon="6.99092">
        <ele>522</ele>
        <time>2011-07-16T13:51:45Z</time>
      </trkpt>
      <trkpt lat="43.76272" lon="6.99092">
        <ele>522</ele>
        <time>2011-07-16T13:51:46Z</time>
      </trkpt>
      <trkpt lat="43.76273" lon="6.99091">
        <ele>523</ele>
        <time>2011-07-16T13:51:47Z</time>
      </trkpt>
      <trkpt lat="43.76274" lon="6.99091">
        <ele>523</ele>
        <time>2011-07-16T13:51:48Z</time>
      </trkpt>
      <trkpt lat="43.76276" lon="6.9909">
        <ele>522</ele>
        <time>2011-07-16T13:51:49Z</time>
      </trkpt>
      <trkpt lat="43.76277" lon="6.99089">
        <ele>522</ele>
        <time>2011-07-16T13:51:50Z</time>
      </trkpt>
      <trkpt lat="43.76278" lon="6.99089">
        <ele>522</ele>
        <time>2011-07-16T13:51:51Z</time>
      </trkpt>
      <trkpt lat="43.7628" lon="6.99088">
        <ele>522</ele>
        <time>2011-07-16T13:51:52Z</time>
      </trkpt>
      <trkpt lat="43.76281" lon="6.99087">
        <ele>522</ele>
        <time>2011-07-16T13:51:53Z</time>
      </trkpt>
      <trkpt lat="43.76282" lon="6.99086">
        <ele>522</ele>
        <time>2011-07-16T13:51:54Z</time>
      </trkpt>
      <trkpt lat="43.76283" lon="6.99085">
        <ele>522</ele>
        <time>2011-07-16T13:51:55Z</time>
      </trkpt>
      <trkpt lat="43.76284" lon="6.99085">
        <ele>522</ele>
        <time>2011-07-16T13:51:56Z</time>
      </trkpt>
      <trkpt lat="43.76285" lon="6.99084">
        <ele>522</ele>
        <time>2011-07-16T13:51:57Z</time>
      </trkpt>
      <trkpt lat="43.76287" lon="6.99083">
        <ele>522</ele>
        <time>2011-07-16T13:51:58Z</time>
      </trkpt>
      <trkpt lat="43.76288" lon="6.99082">
        <ele>522</ele>
        <time>2011-07-16T13:51:59Z</time>
      </trkpt>
      <trkpt lat="43.76289" lon="6.99082">
        <ele>522</ele>
        <time>2011-07-16T13:52:00Z</time>
      </trkpt>
      <trkpt lat="43.7629" lon="6.99082">
        <ele>523</ele>
        <time>2011-07-16T13:52:01Z</time>
      </trkpt>
      <trkpt lat="43.76291" lon="6.99081">
        <ele>523</ele>
        <time>2011-07-16T13:52:02Z</time>
      </trkpt>
      <trkpt lat="43.76291" lon="6.99082">
        <ele>523</ele>
        <time>2011-07-16T13:52:03Z</time>
      </trkpt>
      <trkpt lat="43.76292" lon="6.99082">
        <ele>524</ele>
        <time>2011-07-16T13:52:04Z</time>
      </trkpt>
      <trkpt lat="43.76292" lon="6.99084">
        <ele>524</ele>
        <time>2011-07-16T13:52:05Z</time>
      </trkpt>
      <trkpt lat="43.76292" lon="6.99085">
        <ele>524</ele>
        <time>2011-07-16T13:52:06Z</time>
      </trkpt>
      <trkpt lat="43.76292" lon="6.99086">
        <ele>524</ele>
        <time>2011-07-16T13:52:07Z</time>
      </trkpt>
      <trkpt lat="43.76291" lon="6.99088">
        <ele>524</ele>
        <time>2011-07-16T13:52:08Z</time>
      </trkpt>
      <trkpt lat="43.76291" lon="6.99089">
        <ele>524</ele>
        <time>2011-07-16T13:52:09Z</time>
      </trkpt>
      <trkpt lat="43.7629" lon="6.99091">
        <ele>524</ele>
        <time>2011-07-16T13:52:10Z</time>
      </trkpt>
      <trkpt lat="43.76288" lon="6.99092">
        <ele>524</ele>
        <time>2011-07-16T13:52:11Z</time>
      </trkpt>
      <trkpt lat="43.76287" lon="6.99094">
        <ele>524</ele>
        <time>2011-07-16T13:52:12Z</time>
      </trkpt>
      <trkpt lat="43.76286" lon="6.99095">
        <ele>523</ele>
        <time>2011-07-16T13:52:13Z</time>
      </trkpt>
      <trkpt lat="43.76285" lon="6.99096">
        <ele>523</ele>
        <time>2011-07-16T13:52:14Z</time>
      </trkpt>
      <trkpt lat="43.76284" lon="6.99097">
        <ele>523</ele>
        <time>2011-07-16T13:52:15Z</time>
      </trkpt>
      <trkpt lat="43.76282" lon="6.99098">
        <ele>524</ele>
        <time>2011-07-16T13:52:16Z</time>
      </trkpt>
      <trkpt lat="43.76281" lon="6.99099">
        <ele>524</ele>
        <time>2011-07-16T13:52:17Z</time>
      </trkpt>
      <trkpt lat="43.76281" lon="6.991">
        <ele>524</ele>
        <time>2011-07-16T13:52:18Z</time>
      </trkpt>
      <trkpt lat="43.7628" lon="6.99101">
        <ele>524</ele>
        <time>2011-07-16T13:52:19Z</time>
      </trkpt>
      <trkpt lat="43.76279" lon="6.99102">
        <ele>524</ele>
        <time>2011-07-16T13:52:20Z</time>
      </trkpt>
      <trkpt lat="43.76278" lon="6.99104">
        <ele>524</ele>
        <time>2011-07-16T13:52:21Z</time>
      </trkpt>
      <trkpt lat="43.76277" lon="6.99105">
        <ele>524</ele>
        <time>2011-07-16T13:52:22Z</time>
      </trkpt>
      <trkpt lat="43.76276" lon="6.99106">
        <ele>524</ele>
        <time>2011-07-16T13:52:23Z</time>
      </trkpt>
      <trkpt lat="43.76275" lon="6.99108">
        <ele>524</ele>
        <time>2011-07-16T13:52:24Z</time>
      </trkpt>
      <trkpt lat="43.76274" lon="6.99111">
        <ele>525</ele>
        <time>2011-07-16T13:52:26Z</time>
      </trkpt>
      <trkpt lat="43.76273" lon="6.99112">
        <ele>525</ele>
        <time>2011-07-16T13:52:27Z</time>
      </trkpt>
      <trkpt lat="43.76273" lon="6.99113">
        <ele>525</ele>
        <time>2011-07-16T13:52:28Z</time>
      </trkpt>
      <trkpt lat="43.76273" lon="6.99115">
        <ele>525</ele>
        <time>2011-07-16T13:52:29Z</time>
      </trkpt>
      <trkpt lat="43.76272" lon="6.99117">
        <ele>525</ele>
        <time>2011-07-16T13:52:30Z</time>
      </trkpt>
      <trkpt lat="43.76272" lon="6.99118">
        <ele>525</ele>
        <time>2011-07-16T13:52:31Z</time>
      </trkpt>
      <trkpt lat="43.76272" lon="6.9912">
        <ele>525</ele>
        <time>2011-07-16T13:52:32Z</time>
      </trkpt>
      <trkpt lat="43.76271" lon="6.99121">
        <ele>525</ele>
        <time>2011-07-16T13:52:33Z</time>
      </trkpt>
      <trkpt lat="43.76271" lon="6.99123">
        <ele>525</ele>
        <time>2011-07-16T13:52:34Z</time>
      </trkpt>
      <trkpt lat="43.7627" lon="6.99125">
        <ele>525</ele>
        <time>2011-07-16T13:52:35Z</time>
      </trkpt>
      <trkpt lat="43.76269" lon="6.99127">
        <ele>524</ele>
        <time>2011-07-16T13:52:36Z</time>
      </trkpt>
      <trkpt lat="43.76268" lon="6.99128">
        <ele>524</ele>
        <time>2011-07-16T13:52:37Z</time>
      </trkpt>
      <trkpt lat="43.76268" lon="6.9913">
        <ele>524</ele>
        <time>2011-07-16T13:52:38Z</time>
      </trkpt>
      <trkpt lat="43.76267" lon="6.99131">
        <ele>524</ele>
        <time>2011-07-16T13:52:39Z</time>
      </trkpt>
      <trkpt lat="43.76266" lon="6.99133">
        <ele>524</ele>
        <time>2011-07-16T13:52:40Z</time>
      </trkpt>
      <trkpt lat="43.76266" lon="6.99134">
        <ele>524</ele>
        <time>2011-07-16T13:52:41Z</time>
      </trkpt>
      <trkpt lat="43.76266" lon="6.99135">
        <ele>524</ele>
        <time>2011-07-16T13:52:42Z</time>
      </trkpt>
      <trkpt lat="43.76265" lon="6.99137">
        <ele>524</ele>
        <time>2011-07-16T13:52:43Z</time>
      </trkpt>
      <trkpt lat="43.76264" lon="6.99138">
        <ele>524</ele>
        <time>2011-07-16T13:52:44Z</time>
      </trkpt>
      <trkpt lat="43.76263" lon="6.99139">
        <ele>524</ele>
        <time>2011-07-16T13:52:45Z</time>
      </trkpt>
      <trkpt lat="43.7626" lon="6.9914">
        <ele>525</ele>
        <time>2011-07-16T13:52:46Z</time>
      </trkpt>
      <trkpt lat="43.76259" lon="6.99141">
        <ele>525</ele>
        <time>2011-07-16T13:52:47Z</time>
      </trkpt>
      <trkpt lat="43.76257" lon="6.99142">
        <ele>525</ele>
        <time>2011-07-16T13:52:48Z</time>
      </trkpt>
      <trkpt lat="43.76256" lon="6.99144">
        <ele>526</ele>
        <time>2011-07-16T13:52:49Z</time>
      </trkpt>
      <trkpt lat="43.76254" lon="6.99145">
        <ele>526</ele>
        <time>2011-07-16T13:52:50Z</time>
      </trkpt>
      <trkpt lat="43.76253" lon="6.99146">
        <ele>526</ele>
        <time>2011-07-16T13:52:51Z</time>
      </trkpt>
      <trkpt lat="43.76251" lon="6.99147">
        <ele>527</ele>
        <time>2011-07-16T13:52:52Z</time>
      </trkpt>
      <trkpt lat="43.7625" lon="6.99148">
        <ele>527</ele>
        <time>2011-07-16T13:52:53Z</time>
      </trkpt>
      <trkpt lat="43.76248" lon="6.99149">
        <ele>527</ele>
        <time>2011-07-16T13:52:54Z</time>
      </trkpt>
      <trkpt lat="43.76247" lon="6.9915">
        <ele>528</ele>
        <time>2011-07-16T13:52:55Z</time>
      </trkpt>
      <trkpt lat="43.76246" lon="6.99151">
        <ele>528</ele>
        <time>2011-07-16T13:52:56Z</time>
      </trkpt>
      <trkpt lat="43.76245" lon="6.99152">
        <ele>528</ele>
        <time>2011-07-16T13:52:57Z</time>
      </trkpt>
      <trkpt lat="43.76244" lon="6.99155">
        <ele>528</ele>
        <time>2011-07-16T13:52:59Z</time>
      </trkpt>
      <trkpt lat="43.76243" lon="6.99156">
        <ele>528</ele>
        <time>2011-07-16T13:53:00Z</time>
      </trkpt>
      <trkpt lat="43.76242" lon="6.99158">
        <ele>527</ele>
        <time>2011-07-16T13:53:01Z</time>
      </trkpt>
      <trkpt lat="43.76241" lon="6.99159">
        <ele>527</ele>
        <time>2011-07-16T13:53:02Z</time>
      </trkpt>
      <trkpt lat="43.7624" lon="6.99161">
        <ele>527</ele>
        <time>2011-07-16T13:53:03Z</time>
      </trkpt>
      <trkpt lat="43.76239" lon="6.99162">
        <ele>527</ele>
        <time>2011-07-16T13:53:04Z</time>
      </trkpt>
      <trkpt lat="43.76238" lon="6.99163">
        <ele>527</ele>
        <time>2011-07-16T13:53:05Z</time>
      </trkpt>
      <trkpt lat="43.76236" lon="6.99164">
        <ele>527</ele>
        <time>2011-07-16T13:53:06Z</time>
      </trkpt>
      <trkpt lat="43.76235" lon="6.99165">
        <ele>528</ele>
        <time>2011-07-16T13:53:07Z</time>
      </trkpt>
      <trkpt lat="43.76234" lon="6.99167">
        <ele>528</ele>
        <time>2011-07-16T13:53:08Z</time>
      </trkpt>
      <trkpt lat="43.76232" lon="6.99168">
        <ele>528</ele>
        <time>2011-07-16T13:53:09Z</time>
      </trkpt>
      <trkpt lat="43.76231" lon="6.99169">
        <ele>528</ele>
        <time>2011-07-16T13:53:10Z</time>
      </trkpt>
      <trkpt lat="43.7623" lon="6.99171">
        <ele>528</ele>
        <time>2011-07-16T13:53:11Z</time>
      </trkpt>
      <trkpt lat="43.76229" lon="6.99172">
        <ele>529</ele>
        <time>2011-07-16T13:53:12Z</time>
      </trkpt>
      <trkpt lat="43.76227" lon="6.99174">
        <ele>529</ele>
        <time>2011-07-16T13:53:13Z</time>
      </trkpt>
      <trkpt lat="43.76226" lon="6.99175">
        <ele>529</ele>
        <time>2011-07-16T13:53:14Z</time>
      </trkpt>
      <trkpt lat="43.76225" lon="6.99176">
        <ele>529</ele>
        <time>2011-07-16T13:53:15Z</time>
      </trkpt>
      <trkpt lat="43.76223" lon="6.99178">
        <ele>529</ele>
        <time>2011-07-16T13:53:16Z</time>
      </trkpt>
      <trkpt lat="43.76222" lon="6.99179">
        <ele>529</ele>
        <time>2011-07-16T13:53:17Z</time>
      </trkpt>
      <trkpt lat="43.76221" lon="6.99181">
        <ele>529</ele>
        <time>2011-07-16T13:53:18Z</time>
      </trkpt>
      <trkpt lat="43.76219" lon="6.99182">
        <ele>529</ele>
        <time>2011-07-16T13:53:19Z</time>
      </trkpt>
      <trkpt lat="43.76218" lon="6.99184">
        <ele>529</ele>
        <time>2011-07-16T13:53:20Z</time>
      </trkpt>
      <trkpt lat="43.76215" lon="6.99185">
        <ele>529</ele>
        <time>2011-07-16T13:53:21Z</time>
      </trkpt>
      <trkpt lat="43.76214" lon="6.99186">
        <ele>529</ele>
        <time>2011-07-16T13:53:22Z</time>
      </trkpt>
      <trkpt lat="43.76212" lon="6.99187">
        <ele>529</ele>
        <time>2011-07-16T13:53:23Z</time>
      </trkpt>
      <trkpt lat="43.76211" lon="6.99189">
        <ele>529</ele>
        <time>2011-07-16T13:53:24Z</time>
      </trkpt>
      <trkpt lat="43.76209" lon="6.9919">
        <ele>529</ele>
        <time>2011-07-16T13:53:25Z</time>
      </trkpt>
      <trkpt lat="43.76207" lon="6.99192">
        <ele>529</ele>
        <time>2011-07-16T13:53:26Z</time>
      </trkpt>
      <trkpt lat="43.76205" lon="6.99193">
        <ele>529</ele>
        <time>2011-07-16T13:53:27Z</time>
      </trkpt>
      <trkpt lat="43.76202" lon="6.99195">
        <ele>529</ele>
        <time>2011-07-16T13:53:28Z</time>
      </trkpt>
      <trkpt lat="43.762" lon="6.99197">
        <ele>529</ele>
        <time>2011-07-16T13:53:29Z</time>
      </trkpt>
      <trkpt lat="43.76197" lon="6.992">
        <ele>528</ele>
        <time>2011-07-16T13:53:30Z</time>
      </trkpt>
      <trkpt lat="43.76194" lon="6.99201">
        <ele>528</ele>
        <time>2011-07-16T13:53:31Z</time>
      </trkpt>
      <trkpt lat="43.76191" lon="6.99203">
        <ele>528</ele>
        <time>2011-07-16T13:53:32Z</time>
      </trkpt>
      <trkpt lat="43.76188" lon="6.99205">
        <ele>528</ele>
        <time>2011-07-16T13:53:33Z</time>
      </trkpt>
      <trkpt lat="43.76186" lon="6.99208">
        <ele>528</ele>
        <time>2011-07-16T13:53:34Z</time>
      </trkpt>
      <trkpt lat="43.76184" lon="6.9921">
        <ele>529</ele>
        <time>2011-07-16T13:53:35Z</time>
      </trkpt>
      <trkpt lat="43.76183" lon="6.99212">
        <ele>529</ele>
        <time>2011-07-16T13:53:36Z</time>
      </trkpt>
      <trkpt lat="43.76181" lon="6.99213">
        <ele>529</ele>
        <time>2011-07-16T13:53:37Z</time>
      </trkpt>
      <trkpt lat="43.7618" lon="6.99215">
        <ele>529</ele>
        <time>2011-07-16T13:53:38Z</time>
      </trkpt>
      <trkpt lat="43.7618" lon="6.99217">
        <ele>530</ele>
        <time>2011-07-16T13:53:39Z</time>
      </trkpt>
      <trkpt lat="43.76179" lon="6.99218">
        <ele>530</ele>
        <time>2011-07-16T13:53:40Z</time>
      </trkpt>
      <trkpt lat="43.76178" lon="6.99219">
        <ele>530</ele>
        <time>2011-07-16T13:53:41Z</time>
      </trkpt>
      <trkpt lat="43.76176" lon="6.9922">
        <ele>531</ele>
        <time>2011-07-16T13:53:42Z</time>
      </trkpt>
      <trkpt lat="43.76176" lon="6.99222">
        <ele>531</ele>
        <time>2011-07-16T13:53:43Z</time>
      </trkpt>
      <trkpt lat="43.76173" lon="6.99224">
        <ele>531</ele>
        <time>2011-07-16T13:53:45Z</time>
      </trkpt>
      <trkpt lat="43.76172" lon="6.99226">
        <ele>531</ele>
        <time>2011-07-16T13:53:46Z</time>
      </trkpt>
      <trkpt lat="43.76171" lon="6.99228">
        <ele>531</ele>
        <time>2011-07-16T13:53:47Z</time>
      </trkpt>
      <trkpt lat="43.7617" lon="6.99229">
        <ele>531</ele>
        <time>2011-07-16T13:53:48Z</time>
      </trkpt>
      <trkpt lat="43.76169" lon="6.9923">
        <ele>530</ele>
        <time>2011-07-16T13:53:49Z</time>
      </trkpt>
      <trkpt lat="43.76169" lon="6.99232">
        <ele>530</ele>
        <time>2011-07-16T13:53:50Z</time>
      </trkpt>
      <trkpt lat="43.76169" lon="6.99233">
        <ele>530</ele>
        <time>2011-07-16T13:53:51Z</time>
      </trkpt>
      <trkpt lat="43.76168" lon="6.99234">
        <ele>530</ele>
        <time>2011-07-16T13:53:52Z</time>
      </trkpt>
      <trkpt lat="43.76167" lon="6.99235">
        <ele>529</ele>
        <time>2011-07-16T13:53:53Z</time>
      </trkpt>
      <trkpt lat="43.76167" lon="6.99236">
        <ele>529</ele>
        <time>2011-07-16T13:53:54Z</time>
      </trkpt>
      <trkpt lat="43.76168" lon="6.99237">
        <ele>529</ele>
        <time>2011-07-16T13:53:55Z</time>
      </trkpt>
      <trkpt lat="43.76167" lon="6.99238">
        <ele>529</ele>
        <time>2011-07-16T13:53:56Z</time>
      </trkpt>
      <trkpt lat="43.76166" lon="6.9924">
        <ele>530</ele>
        <time>2011-07-16T13:53:57Z</time>
      </trkpt>
      <trkpt lat="43.76166" lon="6.99241">
        <ele>530</ele>
        <time>2011-07-16T13:53:58Z</time>
      </trkpt>
      <trkpt lat="43.76165" lon="6.99242">
        <ele>530</ele>
        <time>2011-07-16T13:53:59Z</time>
      </trkpt>
      <trkpt lat="43.76164" lon="6.99243">
        <ele>531</ele>
        <time>2011-07-16T13:54:00Z</time>
      </trkpt>
      <trkpt lat="43.76163" lon="6.99244">
        <ele>532</ele>
        <time>2011-07-16T13:54:01Z</time>
      </trkpt>
      <trkpt lat="43.7616" lon="6.99247">
        <ele>532</ele>
        <time>2011-07-16T13:54:03Z</time>
      </trkpt>
      <trkpt lat="43.76159" lon="6.99249">
        <ele>532</ele>
        <time>2011-07-16T13:54:04Z</time>
      </trkpt>
      <trkpt lat="43.76159" lon="6.9925">
        <ele>533</ele>
        <time>2011-07-16T13:54:05Z</time>
      </trkpt>
      <trkpt lat="43.76159" lon="6.99252">
        <ele>532</ele>
        <time>2011-07-16T13:54:06Z</time>
      </trkpt>
      <trkpt lat="43.76158" lon="6.99253">
        <ele>532</ele>
        <time>2011-07-16T13:54:07Z</time>
      </trkpt>
      <trkpt lat="43.76156" lon="6.99254">
        <ele>532</ele>
        <time>2011-07-16T13:54:08Z</time>
      </trkpt>
      <trkpt lat="43.76155" lon="6.99255">
        <ele>533</ele>
        <time>2011-07-16T13:54:09Z</time>
      </trkpt>
      <trkpt lat="43.76155" lon="6.99256">
        <ele>533</ele>
        <time>2011-07-16T13:54:10Z</time>
      </trkpt>
      <trkpt lat="43.76155" lon="6.99256">
        <ele>534</ele>
        <time>2011-07-16T13:54:11Z</time>
      </trkpt>
      <trkpt lat="43.76154" lon="6.99257">
        <ele>534</ele>
        <time>2011-07-16T13:54:12Z</time>
      </trkpt>
      <trkpt lat="43.76153" lon="6.99258">
        <ele>535</ele>
        <time>2011-07-16T13:54:13Z</time>
      </trkpt>
      <trkpt lat="43.76152" lon="6.9926">
        <ele>535</ele>
        <time>2011-07-16T13:54:14Z</time>
      </trkpt>
      <trkpt lat="43.76151" lon="6.99261">
        <ele>535</ele>
        <time>2011-07-16T13:54:15Z</time>
      </trkpt>
      <trkpt lat="43.7615" lon="6.99262">
        <ele>535</ele>
        <time>2011-07-16T13:54:16Z</time>
      </trkpt>
      <trkpt lat="43.76148" lon="6.99263">
        <ele>535</ele>
        <time>2011-07-16T13:54:17Z</time>
      </trkpt>
      <trkpt lat="43.76147" lon="6.99264">
        <ele>535</ele>
        <time>2011-07-16T13:54:18Z</time>
      </trkpt>
      <trkpt lat="43.76146" lon="6.99266">
        <ele>535</ele>
        <time>2011-07-16T13:54:19Z</time>
      </trkpt>
      <trkpt lat="43.76145" lon="6.99267">
        <ele>535</ele>
        <time>2011-07-16T13:54:20Z</time>
      </trkpt>
      <trkpt lat="43.76143" lon="6.99268">
        <ele>535</ele>
        <time>2011-07-16T13:54:21Z</time>
      </trkpt>
      <trkpt lat="43.76143" lon="6.99269">
        <ele>535</ele>
        <time>2011-07-16T13:54:22Z</time>
      </trkpt>
      <trkpt lat="43.76142" lon="6.99269">
        <ele>535</ele>
        <time>2011-07-16T13:54:23Z</time>
      </trkpt>
      <trkpt lat="43.76141" lon="6.9927">
        <ele>535</ele>
        <time>2011-07-16T13:54:24Z</time>
      </trkpt>
      <trkpt lat="43.76138" lon="6.99271">
        <ele>535</ele>
        <time>2011-07-16T13:54:25Z</time>
      </trkpt>
      <trkpt lat="43.76137" lon="6.99272">
        <ele>535</ele>
        <time>2011-07-16T13:54:26Z</time>
      </trkpt>
      <trkpt lat="43.76136" lon="6.99272">
        <ele>535</ele>
        <time>2011-07-16T13:54:27Z</time>
      </trkpt>
      <trkpt lat="43.76135" lon="6.99273">
        <ele>535</ele>
        <time>2011-07-16T13:54:28Z</time>
      </trkpt>
      <trkpt lat="43.76134" lon="6.99274">
        <ele>536</ele>
        <time>2011-07-16T13:54:29Z</time>
      </trkpt>
      <trkpt lat="43.76131" lon="6.99276">
        <ele>536</ele>
        <time>2011-07-16T13:54:31Z</time>
      </trkpt>
      <trkpt lat="43.7613" lon="6.99277">
        <ele>536</ele>
        <time>2011-07-16T13:54:32Z</time>
      </trkpt>
      <trkpt lat="43.76128" lon="6.99277">
        <ele>536</ele>
        <time>2011-07-16T13:54:33Z</time>
      </trkpt>
      <trkpt lat="43.76127" lon="6.99278">
        <ele>536</ele>
        <time>2011-07-16T13:54:34Z</time>
      </trkpt>
      <trkpt lat="43.76127" lon="6.99279">
        <ele>537</ele>
        <time>2011-07-16T13:54:35Z</time>
      </trkpt>
      <trkpt lat="43.76126" lon="6.9928">
        <ele>537</ele>
        <time>2011-07-16T13:54:36Z</time>
      </trkpt>
      <trkpt lat="43.76126" lon="6.9928">
        <ele>537</ele>
        <time>2011-07-16T13:54:46Z</time>
      </trkpt>
      <trkpt lat="43.76125" lon="6.9928">
        <ele>537</ele>
        <time>2011-07-16T13:54:47Z</time>
      </trkpt>
      <trkpt lat="43.76125" lon="6.99281">
        <ele>537</ele>
        <time>2011-07-16T13:54:48Z</time>
      </trkpt>
      <trkpt lat="43.76124" lon="6.99281">
        <ele>537</ele>
        <time>2011-07-16T13:54:50Z</time>
      </trkpt>
      <trkpt lat="43.76124" lon="6.99281">
        <ele>537</ele>
        <time>2011-07-16T13:54:51Z</time>
      </trkpt>
      <trkpt lat="43.76124" lon="6.99282">
        <ele>537</ele>
        <time>2011-07-16T13:54:52Z</time>
      </trkpt>
      <trkpt lat="43.76123" lon="6.99282">
        <ele>537</ele>
        <time>2011-07-16T13:54:53Z</time>
      </trkpt>
      <trkpt lat="43.76122" lon="6.99283">
        <ele>537</ele>
        <time>2011-07-16T13:54:54Z</time>
      </trkpt>
      <trkpt lat="43.76121" lon="6.99284">
        <ele>537</ele>
        <time>2011-07-16T13:54:55Z</time>
      </trkpt>
      <trkpt lat="43.7612" lon="6.99284">
        <ele>537</ele>
        <time>2011-07-16T13:54:56Z</time>
      </trkpt>
      <trkpt lat="43.76119" lon="6.99285">
        <ele>537</ele>
        <time>2011-07-16T13:54:57Z</time>
      </trkpt>
      <trkpt lat="43.76119" lon="6.99285">
        <ele>537</ele>
        <time>2011-07-16T13:55:01Z</time>
      </trkpt>
      <trkpt lat="43.76118" lon="6.99287">
        <ele>537</ele>
        <time>2011-07-16T13:55:05Z</time>
      </trkpt>
      <trkpt lat="43.76117" lon="6.99288">
        <ele>537</ele>
        <time>2011-07-16T13:55:06Z</time>
      </trkpt>
      <trkpt lat="43.76115" lon="6.99289">
        <ele>538</ele>
        <time>2011-07-16T13:55:07Z</time>
      </trkpt>
      <trkpt lat="43.76115" lon="6.99291">
        <ele>537</ele>
        <time>2011-07-16T13:55:08Z</time>
      </trkpt>
      <trkpt lat="43.76114" lon="6.99291">
        <ele>538</ele>
        <time>2011-07-16T13:55:09Z</time>
      </trkpt>
      <trkpt lat="43.76113" lon="6.99292">
        <ele>538</ele>
        <time>2011-07-16T13:55:10Z</time>
      </trkpt>
      <trkpt lat="43.76112" lon="6.99293">
        <ele>538</ele>
        <time>2011-07-16T13:55:11Z</time>
      </trkpt>
      <trkpt lat="43.76112" lon="6.99292">
        <ele>538</ele>
        <time>2011-07-16T13:55:12Z</time>
      </trkpt>
      <trkpt lat="43.76112" lon="6.99292">
        <ele>538</ele>
        <time>2011-07-16T13:55:13Z</time>
      </trkpt>
      <trkpt lat="43.7611" lon="6.99292">
        <ele>538</ele>
        <time>2011-07-16T13:55:14Z</time>
      </trkpt>
      <trkpt lat="43.76109" lon="6.99292">
        <ele>538</ele>
        <time>2011-07-16T13:55:15Z</time>
      </trkpt>
      <trkpt lat="43.76108" lon="6.99292">
        <ele>538</ele>
        <time>2011-07-16T13:55:16Z</time>
      </trkpt>
      <trkpt lat="43.76107" lon="6.99293">
        <ele>538</ele>
        <time>2011-07-16T13:55:17Z</time>
      </trkpt>
      <trkpt lat="43.76106" lon="6.99293">
        <ele>538</ele>
        <time>2011-07-16T13:55:18Z</time>
      </trkpt>
      <trkpt lat="43.76105" lon="6.99294">
        <ele>538</ele>
        <time>2011-07-16T13:55:19Z</time>
      </trkpt>
      <trkpt lat="43.76104" lon="6.99294">
        <ele>538</ele>
        <time>2011-07-16T13:55:20Z</time>
      </trkpt>
      <trkpt lat="43.76102" lon="6.99294">
        <ele>538</ele>
        <time>2011-07-16T13:55:21Z</time>
      </trkpt>
      <trkpt lat="43.761" lon="6.99294">
        <ele>538</ele>
        <time>2011-07-16T13:55:22Z</time>
      </trkpt>
      <trkpt lat="43.76099" lon="6.99295">
        <ele>538</ele>
        <time>2011-07-16T13:55:23Z</time>
      </trkpt>
      <trkpt lat="43.76097" lon="6.99295">
        <ele>538</ele>
        <time>2011-07-16T13:55:24Z</time>
      </trkpt>
      <trkpt lat="43.76096" lon="6.99296">
        <ele>538</ele>
        <time>2011-07-16T13:55:25Z</time>
      </trkpt>
      <trkpt lat="43.76094" lon="6.99297">
        <ele>538</ele>
        <time>2011-07-16T13:55:26Z</time>
      </trkpt>
      <trkpt lat="43.76092" lon="6.99298">
        <ele>538</ele>
        <time>2011-07-16T13:55:27Z</time>
      </trkpt>
      <trkpt lat="43.76091" lon="6.99298">
        <ele>538</ele>
        <time>2011-07-16T13:55:28Z</time>
      </trkpt>
      <trkpt lat="43.76089" lon="6.99299">
        <ele>538</ele>
        <time>2011-07-16T13:55:29Z</time>
      </trkpt>
      <trkpt lat="43.76087" lon="6.993">
        <ele>538</ele>
        <time>2011-07-16T13:55:30Z</time>
      </trkpt>
      <trkpt lat="43.76085" lon="6.99301">
        <ele>538</ele>
        <time>2011-07-16T13:55:31Z</time>
      </trkpt>
      <trkpt lat="43.76083" lon="6.99302">
        <ele>538</ele>
        <time>2011-07-16T13:55:32Z</time>
      </trkpt>
      <trkpt lat="43.76081" lon="6.99303">
        <ele>538</ele>
        <time>2011-07-16T13:55:33Z</time>
      </trkpt>
      <trkpt lat="43.7608" lon="6.99303">
        <ele>538</ele>
        <time>2011-07-16T13:55:34Z</time>
      </trkpt>
      <trkpt lat="43.76078" lon="6.99304">
        <ele>538</ele>
        <time>2011-07-16T13:55:35Z</time>
      </trkpt>
      <trkpt lat="43.76078" lon="6.99304">
        <ele>538</ele>
        <time>2011-07-16T13:55:36Z</time>
      </trkpt>
      <trkpt lat="43.76078" lon="6.99305">
        <ele>538</ele>
        <time>2011-07-16T13:55:37Z</time>
      </trkpt>
      <trkpt lat="43.76077" lon="6.99305">
        <ele>538</ele>
        <time>2011-07-16T13:55:38Z</time>
      </trkpt>
      <trkpt lat="43.76077" lon="6.99306">
        <ele>539</ele>
        <time>2011-07-16T13:55:39Z</time>
      </trkpt>
      <trkpt lat="43.76078" lon="6.99306">
        <ele>539</ele>
        <time>2011-07-16T13:55:41Z</time>
      </trkpt>
      <trkpt lat="43.76075" lon="6.99307">
        <ele>539</ele>
        <time>2011-07-16T13:55:43Z</time>
      </trkpt>
      <trkpt lat="43.76074" lon="6.99308">
        <ele>539</ele>
        <time>2011-07-16T13:55:44Z</time>
      </trkpt>
      <trkpt lat="43.76073" lon="6.99309">
        <ele>539</ele>
        <time>2011-07-16T13:55:45Z</time>
      </trkpt>
      <trkpt lat="43.76072" lon="6.99309">
        <ele>539</ele>
        <time>2011-07-16T13:55:46Z</time>
      </trkpt>
      <trkpt lat="43.76071" lon="6.99309">
        <ele>539</ele>
        <time>2011-07-16T13:55:47Z</time>
      </trkpt>
      <trkpt lat="43.76069" lon="6.9931">
        <ele>539</ele>
        <time>2011-07-16T13:55:48Z</time>
      </trkpt>
      <trkpt lat="43.76068" lon="6.99311">
        <ele>539</ele>
        <time>2011-07-16T13:55:49Z</time>
      </trkpt>
      <trkpt lat="43.76069" lon="6.99311">
        <ele>539</ele>
        <time>2011-07-16T13:55:51Z</time>
      </trkpt>
      <trkpt lat="43.76069" lon="6.99312">
        <ele>539</ele>
        <time>2011-07-16T13:55:52Z</time>
      </trkpt>
      <trkpt lat="43.76069" lon="6.99312">
        <ele>539</ele>
        <time>2011-07-16T13:55:53Z</time>
      </trkpt>
      <trkpt lat="43.76068" lon="6.99313">
        <ele>539</ele>
        <time>2011-07-16T13:55:55Z</time>
      </trkpt>
      <trkpt lat="43.76065" lon="6.99314">
        <ele>539</ele>
        <time>2011-07-16T13:55:57Z</time>
      </trkpt>
      <trkpt lat="43.76065" lon="6.99314">
        <ele>539</ele>
        <time>2011-07-16T13:55:58Z</time>
      </trkpt>
      <trkpt lat="43.76063" lon="6.99315">
        <ele>539</ele>
        <time>2011-07-16T13:56:00Z</time>
      </trkpt>
      <trkpt lat="43.76062" lon="6.99316">
        <ele>539</ele>
        <time>2011-07-16T13:56:01Z</time>
      </trkpt>
      <trkpt lat="43.76062" lon="6.99316">
        <ele>539</ele>
        <time>2011-07-16T13:56:02Z</time>
      </trkpt>
      <trkpt lat="43.76062" lon="6.99316">
        <ele>539</ele>
        <time>2011-07-16T13:56:03Z</time>
      </trkpt>
      <trkpt lat="43.76061" lon="6.99316">
        <ele>539</ele>
        <time>2011-07-16T13:56:04Z</time>
      </trkpt>
      <trkpt lat="43.7606" lon="6.99316">
        <ele>539</ele>
        <time>2011-07-16T13:56:05Z</time>
      </trkpt>
      <trkpt lat="43.7606" lon="6.99317">
        <ele>539</ele>
        <time>2011-07-16T13:56:06Z</time>
      </trkpt>
      <trkpt lat="43.76059" lon="6.99317">
        <ele>539</ele>
        <time>2011-07-16T13:56:07Z</time>
      </trkpt>
      <trkpt lat="43.76059" lon="6.99318">
        <ele>539</ele>
        <time>2011-07-16T13:56:08Z</time>
      </trkpt>
      <trkpt lat="43.76059" lon="6.99318">
        <ele>539</ele>
        <time>2011-07-16T13:56:11Z</time>
      </trkpt>
      <trkpt lat="43.76059" lon="6.99318">
        <ele>539</ele>
        <time>2011-07-16T13:56:13Z</time>
      </trkpt>
      <trkpt lat="43.76058" lon="6.99319">
        <ele>539</ele>
        <time>2011-07-16T13:56:14Z</time>
      </trkpt>
      <trkpt lat="43.76057" lon="6.99319">
        <ele>539</ele>
        <time>2011-07-16T13:56:15Z</time>
      </trkpt>
      <trkpt lat="43.76056" lon="6.9932">
        <ele>539</ele>
        <time>2011-07-16T13:56:16Z</time>
      </trkpt>
      <trkpt lat="43.76055" lon="6.99321">
        <ele>539</ele>
        <time>2011-07-16T13:56:17Z</time>
      </trkpt>
      <trkpt lat="43.76053" lon="6.99323">
        <ele>540</ele>
        <time>2011-07-16T13:56:18Z</time>
      </trkpt>
      <trkpt lat="43.76052" lon="6.99324">
        <ele>540</ele>
        <time>2011-07-16T13:56:19Z</time>
      </trkpt>
      <trkpt lat="43.76049" lon="6.99326">
        <ele>541</ele>
        <time>2011-07-16T13:56:21Z</time>
      </trkpt>
      <trkpt lat="43.76048" lon="6.99327">
        <ele>541</ele>
        <time>2011-07-16T13:56:22Z</time>
      </trkpt>
      <trkpt lat="43.76046" lon="6.99328">
        <ele>542</ele>
        <time>2011-07-16T13:56:23Z</time>
      </trkpt>
      <trkpt lat="43.76045" lon="6.99329">
        <ele>542</ele>
        <time>2011-07-16T13:56:24Z</time>
      </trkpt>
      <trkpt lat="43.76044" lon="6.9933">
        <ele>542</ele>
        <time>2011-07-16T13:56:25Z</time>
      </trkpt>
      <trkpt lat="43.76043" lon="6.9933">
        <ele>542</ele>
        <time>2011-07-16T13:56:26Z</time>
      </trkpt>
      <trkpt lat="43.76043" lon="6.99331">
        <ele>542</ele>
        <time>2011-07-16T13:56:27Z</time>
      </trkpt>
      <trkpt lat="43.76044" lon="6.99331">
        <ele>542</ele>
        <time>2011-07-16T13:56:28Z</time>
      </trkpt>
      <trkpt lat="43.76043" lon="6.99331">
        <ele>542</ele>
        <time>2011-07-16T13:56:30Z</time>
      </trkpt>
      <trkpt lat="43.76041" lon="6.99332">
        <ele>542</ele>
        <time>2011-07-16T13:56:33Z</time>
      </trkpt>
      <trkpt lat="43.76041" lon="6.99332">
        <ele>542</ele>
        <time>2011-07-16T13:56:34Z</time>
      </trkpt>
      <trkpt lat="43.76041" lon="6.99333">
        <ele>542</ele>
        <time>2011-07-16T13:56:35Z</time>
      </trkpt>
      <trkpt lat="43.7604" lon="6.99333">
        <ele>542</ele>
        <time>2011-07-16T13:56:36Z</time>
      </trkpt>
      <trkpt lat="43.76039" lon="6.99333">
        <ele>542</ele>
        <time>2011-07-16T13:56:37Z</time>
      </trkpt>
      <trkpt lat="43.76038" lon="6.99334">
        <ele>542</ele>
        <time>2011-07-16T13:56:38Z</time>
      </trkpt>
      <trkpt lat="43.76037" lon="6.99334">
        <ele>543</ele>
        <time>2011-07-16T13:56:39Z</time>
      </trkpt>
      <trkpt lat="43.76036" lon="6.99335">
        <ele>543</ele>
        <time>2011-07-16T13:56:40Z</time>
      </trkpt>
      <trkpt lat="43.76035" lon="6.99335">
        <ele>543</ele>
        <time>2011-07-16T13:56:41Z</time>
      </trkpt>
      <trkpt lat="43.76035" lon="6.99336">
        <ele>543</ele>
        <time>2011-07-16T13:56:42Z</time>
      </trkpt>
      <trkpt lat="43.76034" lon="6.99337">
        <ele>543</ele>
        <time>2011-07-16T13:56:44Z</time>
      </trkpt>
      <trkpt lat="43.76034" lon="6.99337">
        <ele>543</ele>
        <time>2011-07-16T13:56:46Z</time>
      </trkpt>
      <trkpt lat="43.76033" lon="6.99338">
        <ele>543</ele>
        <time>2011-07-16T13:56:47Z</time>
      </trkpt>
      <trkpt lat="43.76033" lon="6.99338">
        <ele>543</ele>
        <time>2011-07-16T13:56:48Z</time>
      </trkpt>
      <trkpt lat="43.76033" lon="6.99339">
        <ele>543</ele>
        <time>2011-07-16T13:56:49Z</time>
      </trkpt>
      <trkpt lat="43.76031" lon="6.9934">
        <ele>543</ele>
        <time>2011-07-16T13:56:51Z</time>
      </trkpt>
      <trkpt lat="43.76031" lon="6.99341">
        <ele>543</ele>
        <time>2011-07-16T13:56:52Z</time>
      </trkpt>
      <trkpt lat="43.76031" lon="6.99341">
        <ele>543</ele>
        <time>2011-07-16T13:56:53Z</time>
      </trkpt>
      <trkpt lat="43.7603" lon="6.99342">
        <ele>543</ele>
        <time>2011-07-16T13:56:56Z</time>
      </trkpt>
      <trkpt lat="43.76032" lon="6.9934">
        <ele>544</ele>
        <time>2011-07-16T13:56:58Z</time>
      </trkpt>
      <trkpt lat="43.76031" lon="6.9934">
        <ele>544</ele>
        <time>2011-07-16T13:56:59Z</time>
      </trkpt>
      <trkpt lat="43.7603" lon="6.9934">
        <ele>545</ele>
        <time>2011-07-16T13:57:00Z</time>
      </trkpt>
      <trkpt lat="43.76028" lon="6.99341">
        <ele>545</ele>
        <time>2011-07-16T13:57:01Z</time>
      </trkpt>
      <trkpt lat="43.76028" lon="6.99341">
        <ele>545</ele>
        <time>2011-07-16T13:57:02Z</time>
      </trkpt>
      <trkpt lat="43.76026" lon="6.99342">
        <ele>545</ele>
        <time>2011-07-16T13:57:03Z</time>
      </trkpt>
      <trkpt lat="43.76025" lon="6.99342">
        <ele>545</ele>
        <time>2011-07-16T13:57:04Z</time>
      </trkpt>
      <trkpt lat="43.76024" lon="6.99342">
        <ele>545</ele>
        <time>2011-07-16T13:57:05Z</time>
      </trkpt>
      <trkpt lat="43.76022" lon="6.99342">
        <ele>545</ele>
        <time>2011-07-16T13:57:06Z</time>
      </trkpt>
      <trkpt lat="43.7602" lon="6.99342">
        <ele>545</ele>
        <time>2011-07-16T13:57:07Z</time>
      </trkpt>
      <trkpt lat="43.76017" lon="6.99342">
        <ele>545</ele>
        <time>2011-07-16T13:57:09Z</time>
      </trkpt>
      <trkpt lat="43.76016" lon="6.99342">
        <ele>545</ele>
        <time>2011-07-16T13:57:10Z</time>
      </trkpt>
      <trkpt lat="43.76014" lon="6.99342">
        <ele>545</ele>
        <time>2011-07-16T13:57:11Z</time>
      </trkpt>
      <trkpt lat="43.76013" lon="6.99342">
        <ele>546</ele>
        <time>2011-07-16T13:57:12Z</time>
      </trkpt>
      <trkpt lat="43.76012" lon="6.99341">
        <ele>546</ele>
        <time>2011-07-16T13:57:13Z</time>
      </trkpt>
      <trkpt lat="43.7601" lon="6.99341">
        <ele>546</ele>
        <time>2011-07-16T13:57:14Z</time>
      </trkpt>
      <trkpt lat="43.76008" lon="6.99341">
        <ele>546</ele>
        <time>2011-07-16T13:57:15Z</time>
      </trkpt>
      <trkpt lat="43.76007" lon="6.9934">
        <ele>546</ele>
        <time>2011-07-16T13:57:16Z</time>
      </trkpt>
      <trkpt lat="43.76006" lon="6.99339">
        <ele>546</ele>
        <time>2011-07-16T13:57:17Z</time>
      </trkpt>
      <trkpt lat="43.76004" lon="6.99338">
        <ele>546</ele>
        <time>2011-07-16T13:57:19Z</time>
      </trkpt>
      <trkpt lat="43.76003" lon="6.99337">
        <ele>547</ele>
        <time>2011-07-16T13:57:20Z</time>
      </trkpt>
      <trkpt lat="43.76001" lon="6.99337">
        <ele>547</ele>
        <time>2011-07-16T13:57:21Z</time>
      </trkpt>
      <trkpt lat="43.76" lon="6.99337">
        <ele>547</ele>
        <time>2011-07-16T13:57:22Z</time>
      </trkpt>
      <trkpt lat="43.75998" lon="6.99337">
        <ele>547</ele>
        <time>2011-07-16T13:57:23Z</time>
      </trkpt>
      <trkpt lat="43.75998" lon="6.99336">
        <ele>547</ele>
        <time>2011-07-16T13:57:24Z</time>
      </trkpt>
      <trkpt lat="43.75997" lon="6.99337">
        <ele>548</ele>
        <time>2011-07-16T13:57:25Z</time>
      </trkpt>
      <trkpt lat="43.75995" lon="6.99338">
        <ele>548</ele>
        <time>2011-07-16T13:57:26Z</time>
      </trkpt>
      <trkpt lat="43.75994" lon="6.99339">
        <ele>548</ele>
        <time>2011-07-16T13:57:27Z</time>
      </trkpt>
      <trkpt lat="43.75992" lon="6.9934">
        <ele>548</ele>
        <time>2011-07-16T13:57:28Z</time>
      </trkpt>
      <trkpt lat="43.7599" lon="6.9934">
        <ele>549</ele>
        <time>2011-07-16T13:57:29Z</time>
      </trkpt>
      <trkpt lat="43.7599" lon="6.9934">
        <ele>549</ele>
        <time>2011-07-16T13:57:30Z</time>
      </trkpt>
      <trkpt lat="43.75988" lon="6.9934">
        <ele>549</ele>
        <time>2011-07-16T13:57:31Z</time>
      </trkpt>
      <trkpt lat="43.75986" lon="6.9934">
        <ele>549</ele>
        <time>2011-07-16T13:57:32Z</time>
      </trkpt>
      <trkpt lat="43.75984" lon="6.99341">
        <ele>550</ele>
        <time>2011-07-16T13:57:33Z</time>
      </trkpt>
      <trkpt lat="43.75982" lon="6.99341">
        <ele>550</ele>
        <time>2011-07-16T13:57:34Z</time>
      </trkpt>
      <trkpt lat="43.7598" lon="6.99342">
        <ele>550</ele>
        <time>2011-07-16T13:57:35Z</time>
      </trkpt>
      <trkpt lat="43.75978" lon="6.99344">
        <ele>550</ele>
        <time>2011-07-16T13:57:36Z</time>
      </trkpt>
      <trkpt lat="43.75976" lon="6.99346">
        <ele>551</ele>
        <time>2011-07-16T13:57:37Z</time>
      </trkpt>
      <trkpt lat="43.75974" lon="6.99348">
        <ele>551</ele>
        <time>2011-07-16T13:57:38Z</time>
      </trkpt>
      <trkpt lat="43.75971" lon="6.9935">
        <ele>551</ele>
        <time>2011-07-16T13:57:39Z</time>
      </trkpt>
      <trkpt lat="43.75969" lon="6.99351">
        <ele>551</ele>
        <time>2011-07-16T13:57:40Z</time>
      </trkpt>
      <trkpt lat="43.75967" lon="6.99353">
        <ele>551</ele>
        <time>2011-07-16T13:57:41Z</time>
      </trkpt>
      <trkpt lat="43.75967" lon="6.99356">
        <ele>552</ele>
        <time>2011-07-16T13:57:42Z</time>
      </trkpt>
      <trkpt lat="43.75965" lon="6.99357">
        <ele>552</ele>
        <time>2011-07-16T13:57:43Z</time>
      </trkpt>
      <trkpt lat="43.75963" lon="6.9936">
        <ele>552</ele>
        <time>2011-07-16T13:57:44Z</time>
      </trkpt>
      <trkpt lat="43.7596" lon="6.99362">
        <ele>552</ele>
        <time>2011-07-16T13:57:45Z</time>
      </trkpt>
      <trkpt lat="43.75957" lon="6.99363">
        <ele>552</ele>
        <time>2011-07-16T13:57:46Z</time>
      </trkpt>
      <trkpt lat="43.75954" lon="6.99364">
        <ele>552</ele>
        <time>2011-07-16T13:57:47Z</time>
      </trkpt>
      <trkpt lat="43.7595" lon="6.99364">
        <ele>552</ele>
        <time>2011-07-16T13:57:48Z</time>
      </trkpt>
      <trkpt lat="43.75948" lon="6.99367">
        <ele>552</ele>
        <time>2011-07-16T13:57:49Z</time>
      </trkpt>
      <trkpt lat="43.75946" lon="6.99369">
        <ele>553</ele>
        <time>2011-07-16T13:57:50Z</time>
      </trkpt>
      <trkpt lat="43.75944" lon="6.99371">
        <ele>553</ele>
        <time>2011-07-16T13:57:51Z</time>
      </trkpt>
      <trkpt lat="43.75942" lon="6.99372">
        <ele>553</ele>
        <time>2011-07-16T13:57:52Z</time>
      </trkpt>
      <trkpt lat="43.75938" lon="6.99372">
        <ele>553</ele>
        <time>2011-07-16T13:57:53Z</time>
      </trkpt>
      <trkpt lat="43.75935" lon="6.99372">
        <ele>553</ele>
        <time>2011-07-16T13:57:54Z</time>
      </trkpt>
      <trkpt lat="43.75931" lon="6.99372">
        <ele>553</ele>
        <time>2011-07-16T13:57:55Z</time>
      </trkpt>
      <trkpt lat="43.7593" lon="6.99371">
        <ele>554</ele>
        <time>2011-07-16T13:57:56Z</time>
      </trkpt>
      <trkpt lat="43.75927" lon="6.99371">
        <ele>554</ele>
        <time>2011-07-16T13:57:57Z</time>
      </trkpt>
      <trkpt lat="43.75925" lon="6.99371">
        <ele>554</ele>
        <time>2011-07-16T13:57:58Z</time>
      </trkpt>
      <trkpt lat="43.7592" lon="6.99371">
        <ele>554</ele>
        <time>2011-07-16T13:58:00Z</time>
      </trkpt>
      <trkpt lat="43.75917" lon="6.9937">
        <ele>554</ele>
        <time>2011-07-16T13:58:01Z</time>
      </trkpt>
      <trkpt lat="43.75914" lon="6.9937">
        <ele>554</ele>
        <time>2011-07-16T13:58:02Z</time>
      </trkpt>
      <trkpt lat="43.75912" lon="6.99368">
        <ele>555</ele>
        <time>2011-07-16T13:58:03Z</time>
      </trkpt>
      <trkpt lat="43.7591" lon="6.99367">
        <ele>555</ele>
        <time>2011-07-16T13:58:04Z</time>
      </trkpt>
      <trkpt lat="43.75908" lon="6.99365">
        <ele>555</ele>
        <time>2011-07-16T13:58:05Z</time>
      </trkpt>
      <trkpt lat="43.75905" lon="6.99364">
        <ele>555</ele>
        <time>2011-07-16T13:58:06Z</time>
      </trkpt>
      <trkpt lat="43.75905" lon="6.99362">
        <ele>555</ele>
        <time>2011-07-16T13:58:07Z</time>
      </trkpt>
      <trkpt lat="43.75904" lon="6.99361">
        <ele>555</ele>
        <time>2011-07-16T13:58:08Z</time>
      </trkpt>
      <trkpt lat="43.75903" lon="6.99359">
        <ele>555</ele>
        <time>2011-07-16T13:58:09Z</time>
      </trkpt>
      <trkpt lat="43.75902" lon="6.99357">
        <ele>555</ele>
        <time>2011-07-16T13:58:10Z</time>
      </trkpt>
      <trkpt lat="43.75901" lon="6.99356">
        <ele>555</ele>
        <time>2011-07-16T13:58:11Z</time>
      </trkpt>
      <trkpt lat="43.759" lon="6.99354">
        <ele>555</ele>
        <time>2011-07-16T13:58:12Z</time>
      </trkpt>
      <trkpt lat="43.75898" lon="6.99353">
        <ele>555</ele>
        <time>2011-07-16T13:58:13Z</time>
      </trkpt>
      <trkpt lat="43.75897" lon="6.99352">
        <ele>555</ele>
        <time>2011-07-16T13:58:14Z</time>
      </trkpt>
      <trkpt lat="43.75895" lon="6.99351">
        <ele>556</ele>
        <time>2011-07-16T13:58:15Z</time>
      </trkpt>
      <trkpt lat="43.75892" lon="6.9935">
        <ele>556</ele>
        <time>2011-07-16T13:58:16Z</time>
      </trkpt>
      <trkpt lat="43.7589" lon="6.99349">
        <ele>556</ele>
        <time>2011-07-16T13:58:17Z</time>
      </trkpt>
      <trkpt lat="43.75886" lon="6.99348">
        <ele>556</ele>
        <time>2011-07-16T13:58:18Z</time>
      </trkpt>
      <trkpt lat="43.75882" lon="6.99348">
        <ele>556</ele>
        <time>2011-07-16T13:58:19Z</time>
      </trkpt>
      <trkpt lat="43.75877" lon="6.99348">
        <ele>556</ele>
        <time>2011-07-16T13:58:20Z</time>
      </trkpt>
      <trkpt lat="43.75873" lon="6.99349">
        <ele>556</ele>
        <time>2011-07-16T13:58:21Z</time>
      </trkpt>
      <trkpt lat="43.75869" lon="6.99349">
        <ele>557</ele>
        <time>2011-07-16T13:58:22Z</time>
      </trkpt>
      <trkpt lat="43.75864" lon="6.99351">
        <ele>557</ele>
        <time>2011-07-16T13:58:23Z</time>
      </trkpt>
      <trkpt lat="43.75858" lon="6.99351">
        <ele>557</ele>
        <time>2011-07-16T13:58:24Z</time>
      </trkpt>
      <trkpt lat="43.75853" lon="6.99352">
        <ele>557</ele>
        <time>2011-07-16T13:58:25Z</time>
      </trkpt>
      <trkpt lat="43.75848" lon="6.99354">
        <ele>557</ele>
        <time>2011-07-16T13:58:26Z</time>
      </trkpt>
      <trkpt lat="43.758" lon="6.99366">
        <ele>558</ele>
        <time>2011-07-16T13:58:36Z</time>
      </trkpt>
      <trkpt lat="43.75794" lon="6.99367">
        <ele>557</ele>
        <time>2011-07-16T13:58:37Z</time>
      </trkpt>
      <trkpt lat="43.75789" lon="6.99367">
        <ele>557</ele>
        <time>2011-07-16T13:58:38Z</time>
      </trkpt>
      <trkpt lat="43.75785" lon="6.99368">
        <ele>558</ele>
        <time>2011-07-16T13:58:39Z</time>
      </trkpt>
      <trkpt lat="43.75782" lon="6.99368">
        <ele>558</ele>
        <time>2011-07-16T13:58:40Z</time>
      </trkpt>
      <trkpt lat="43.7578" lon="6.99368">
        <ele>558</ele>
        <time>2011-07-16T13:58:41Z</time>
      </trkpt>
      <trkpt lat="43.75778" lon="6.99367">
        <ele>558</ele>
        <time>2011-07-16T13:58:43Z</time>
      </trkpt>
      <trkpt lat="43.75778" lon="6.99367">
        <ele>559</ele>
        <time>2011-07-16T13:58:44Z</time>
      </trkpt>
      <trkpt lat="43.75778" lon="6.99367">
        <ele>559</ele>
        <time>2011-07-16T13:58:46Z</time>
      </trkpt>
      <trkpt lat="43.75777" lon="6.99367">
        <ele>560</ele>
        <time>2011-07-16T13:59:50Z</time>
      </trkpt>
      <trkpt lat="43.75776" lon="6.99367">
        <ele>559</ele>
        <time>2011-07-16T13:59:51Z</time>
      </trkpt>
      <trkpt lat="43.75775" lon="6.99367">
        <ele>559</ele>
        <time>2011-07-16T13:59:52Z</time>
      </trkpt>
      <trkpt lat="43.75774" lon="6.99368">
        <ele>560</ele>
        <time>2011-07-16T13:59:53Z</time>
      </trkpt>
      <trkpt lat="43.75773" lon="6.99368">
        <ele>560</ele>
        <time>2011-07-16T13:59:54Z</time>
      </trkpt>
      <trkpt lat="43.75772" lon="6.99369">
        <ele>560</ele>
        <time>2011-07-16T14:00:27Z</time>
      </trkpt>
      <trkpt lat="43.75771" lon="6.99369">
        <ele>560</ele>
        <time>2011-07-16T14:00:28Z</time>
      </trkpt>
      <trkpt lat="43.7577" lon="6.99369">
        <ele>560</ele>
        <time>2011-07-16T14:00:29Z</time>
      </trkpt>
      <trkpt lat="43.75769" lon="6.9937">
        <ele>560</ele>
        <time>2011-07-16T14:00:30Z</time>
      </trkpt>
      <trkpt lat="43.75768" lon="6.99371">
        <ele>560</ele>
        <time>2011-07-16T14:00:31Z</time>
      </trkpt>
      <trkpt lat="43.75766" lon="6.99371">
        <ele>560</ele>
        <time>2011-07-16T14:00:32Z</time>
      </trkpt>
      <trkpt lat="43.75764" lon="6.99371">
        <ele>560</ele>
        <time>2011-07-16T14:00:33Z</time>
      </trkpt>
      <trkpt lat="43.75762" lon="6.99372">
        <ele>560</ele>
        <time>2011-07-16T14:00:34Z</time>
      </trkpt>
      <trkpt lat="43.75761" lon="6.99373">
        <ele>560</ele>
        <time>2011-07-16T14:00:35Z</time>
      </trkpt>
      <trkpt lat="43.75758" lon="6.99374">
        <ele>560</ele>
        <time>2011-07-16T14:00:36Z</time>
      </trkpt>
      <trkpt lat="43.75756" lon="6.99375">
        <ele>560</ele>
        <time>2011-07-16T14:00:37Z</time>
      </trkpt>
      <trkpt lat="43.75754" lon="6.99377">
        <ele>560</ele>
        <time>2011-07-16T14:00:38Z</time>
      </trkpt>
      <trkpt lat="43.7575" lon="6.9938">
        <ele>560</ele>
        <time>2011-07-16T14:00:40Z</time>
      </trkpt>
      <trkpt lat="43.75747" lon="6.99382">
        <ele>560</ele>
        <time>2011-07-16T14:00:41Z</time>
      </trkpt>
      <trkpt lat="43.75746" lon="6.99384">
        <ele>560</ele>
        <time>2011-07-16T14:00:42Z</time>
      </trkpt>
      <trkpt lat="43.75742" lon="6.99388">
        <ele>561</ele>
        <time>2011-07-16T14:00:44Z</time>
      </trkpt>
      <trkpt lat="43.75741" lon="6.99391">
        <ele>561</ele>
        <time>2011-07-16T14:00:45Z</time>
      </trkpt>
      <trkpt lat="43.7574" lon="6.99392">
        <ele>561</ele>
        <time>2011-07-16T14:00:46Z</time>
      </trkpt>
      <trkpt lat="43.75738" lon="6.99394">
        <ele>561</ele>
        <time>2011-07-16T14:00:47Z</time>
      </trkpt>
      <trkpt lat="43.75737" lon="6.99397">
        <ele>561</ele>
        <time>2011-07-16T14:00:48Z</time>
      </trkpt>
      <trkpt lat="43.75735" lon="6.99399">
        <ele>561</ele>
        <time>2011-07-16T14:00:49Z</time>
      </trkpt>
      <trkpt lat="43.75733" lon="6.99401">
        <ele>561</ele>
        <time>2011-07-16T14:00:50Z</time>
      </trkpt>
      <trkpt lat="43.75732" lon="6.99403">
        <ele>562</ele>
        <time>2011-07-16T14:00:51Z</time>
      </trkpt>
      <trkpt lat="43.7573" lon="6.99406">
        <ele>562</ele>
        <time>2011-07-16T14:00:52Z</time>
      </trkpt>
      <trkpt lat="43.75729" lon="6.99408">
        <ele>562</ele>
        <time>2011-07-16T14:00:53Z</time>
      </trkpt>
      <trkpt lat="43.75727" lon="6.9941">
        <ele>562</ele>
        <time>2011-07-16T14:00:54Z</time>
      </trkpt>
      <trkpt lat="43.75726" lon="6.99413">
        <ele>562</ele>
        <time>2011-07-16T14:00:55Z</time>
      </trkpt>
      <trkpt lat="43.75724" lon="6.99415">
        <ele>562</ele>
        <time>2011-07-16T14:00:56Z</time>
      </trkpt>
      <trkpt lat="43.75722" lon="6.99417">
        <ele>563</ele>
        <time>2011-07-16T14:00:57Z</time>
      </trkpt>
      <trkpt lat="43.7572" lon="6.99418">
        <ele>563</ele>
        <time>2011-07-16T14:00:58Z</time>
      </trkpt>
      <trkpt lat="43.75719" lon="6.9942">
        <ele>563</ele>
        <time>2011-07-16T14:00:59Z</time>
      </trkpt>
      <trkpt lat="43.75717" lon="6.99421">
        <ele>563</ele>
        <time>2011-07-16T14:01:00Z</time>
      </trkpt>
      <trkpt lat="43.75714" lon="6.99422">
        <ele>563</ele>
        <time>2011-07-16T14:01:01Z</time>
      </trkpt>
      <trkpt lat="43.75712" lon="6.99424">
        <ele>563</ele>
        <time>2011-07-16T14:01:02Z</time>
      </trkpt>
      <trkpt lat="43.75711" lon="6.99426">
        <ele>563</ele>
        <time>2011-07-16T14:01:03Z</time>
      </trkpt>
      <trkpt lat="43.75709" lon="6.99429">
        <ele>564</ele>
        <time>2011-07-16T14:01:04Z</time>
      </trkpt>
      <trkpt lat="43.75708" lon="6.99431">
        <ele>564</ele>
        <time>2011-07-16T14:01:05Z</time>
      </trkpt>
      <trkpt lat="43.75707" lon="6.99434">
        <ele>564</ele>
        <time>2011-07-16T14:01:06Z</time>
      </trkpt>
      <trkpt lat="43.75706" lon="6.99437">
        <ele>564</ele>
        <time>2011-07-16T14:01:07Z</time>
      </trkpt>
      <trkpt lat="43.75705" lon="6.9944">
        <ele>564</ele>
        <time>2011-07-16T14:01:08Z</time>
      </trkpt>
      <trkpt lat="43.75703" lon="6.99443">
        <ele>564</ele>
        <time>2011-07-16T14:01:09Z</time>
      </trkpt>
      <trkpt lat="43.75701" lon="6.99445">
        <ele>564</ele>
        <time>2011-07-16T14:01:10Z</time>
      </trkpt>
      <trkpt lat="43.75699" lon="6.99448">
        <ele>564</ele>
        <time>2011-07-16T14:01:11Z</time>
      </trkpt>
      <trkpt lat="43.75697" lon="6.99451">
        <ele>564</ele>
        <time>2011-07-16T14:01:12Z</time>
      </trkpt>
      <trkpt lat="43.75696" lon="6.99454">
        <ele>565</ele>
        <time>2011-07-16T14:01:13Z</time>
      </trkpt>
      <trkpt lat="43.75694" lon="6.99456">
        <ele>565</ele>
        <time>2011-07-16T14:01:14Z</time>
      </trkpt>
      <trkpt lat="43.75693" lon="6.99459">
        <ele>565</ele>
        <time>2011-07-16T14:01:15Z</time>
      </trkpt>
      <trkpt lat="43.7569" lon="6.99461">
        <ele>565</ele>
        <time>2011-07-16T14:01:16Z</time>
      </trkpt>
      <trkpt lat="43.75686" lon="6.99466">
        <ele>565</ele>
        <time>2011-07-16T14:01:18Z</time>
      </trkpt>
      <trkpt lat="43.75683" lon="6.99469">
        <ele>565</ele>
        <time>2011-07-16T14:01:19Z</time>
      </trkpt>
      <trkpt lat="43.7568" lon="6.99472">
        <ele>565</ele>
        <time>2011-07-16T14:01:20Z</time>
      </trkpt>
      <trkpt lat="43.75676" lon="6.99474">
        <ele>565</ele>
        <time>2011-07-16T14:01:21Z</time>
      </trkpt>
      <trkpt lat="43.75673" lon="6.99477">
        <ele>565</ele>
        <time>2011-07-16T14:01:22Z</time>
      </trkpt>
      <trkpt lat="43.75669" lon="6.99479">
        <ele>565</ele>
        <time>2011-07-16T14:01:23Z</time>
      </trkpt>
      <trkpt lat="43.75666" lon="6.99482">
        <ele>565</ele>
        <time>2011-07-16T14:01:24Z</time>
      </trkpt>
      <trkpt lat="43.75662" lon="6.99484">
        <ele>565</ele>
        <time>2011-07-16T14:01:25Z</time>
      </trkpt>
      <trkpt lat="43.75658" lon="6.99487">
        <ele>565</ele>
        <time>2011-07-16T14:01:26Z</time>
      </trkpt>
      <trkpt lat="43.75654" lon="6.9949">
        <ele>565</ele>
        <time>2011-07-16T14:01:27Z</time>
      </trkpt>
      <trkpt lat="43.75651" lon="6.99494">
        <ele>565</ele>
        <time>2011-07-16T14:01:28Z</time>
      </trkpt>
      <trkpt lat="43.75649" lon="6.99499">
        <ele>565</ele>
        <time>2011-07-16T14:01:29Z</time>
      </trkpt>
      <trkpt lat="43.75646" lon="6.99504">
        <ele>565</ele>
        <time>2011-07-16T14:01:30Z</time>
      </trkpt>
      <trkpt lat="43.75645" lon="6.99511">
        <ele>565</ele>
        <time>2011-07-16T14:01:31Z</time>
      </trkpt>
      <trkpt lat="43.75642" lon="6.99518">
        <ele>565</ele>
        <time>2011-07-16T14:01:32Z</time>
      </trkpt>
      <trkpt lat="43.75607" lon="6.99589">
        <ele>564</ele>
        <time>2011-07-16T14:01:42Z</time>
      </trkpt>
      <trkpt lat="43.75572" lon="6.99626">
        <ele>563</ele>
        <time>2011-07-16T14:01:52Z</time>
      </trkpt>
      <trkpt lat="43.7557" lon="6.99629">
        <ele>563</ele>
        <time>2011-07-16T14:01:53Z</time>
      </trkpt>
      <trkpt lat="43.75568" lon="6.99632">
        <ele>563</ele>
        <time>2011-07-16T14:01:54Z</time>
      </trkpt>
      <trkpt lat="43.75565" lon="6.99634">
        <ele>563</ele>
        <time>2011-07-16T14:01:55Z</time>
      </trkpt>
      <trkpt lat="43.75564" lon="6.99636">
        <ele>563</ele>
        <time>2011-07-16T14:01:56Z</time>
      </trkpt>
      <trkpt lat="43.75561" lon="6.99638">
        <ele>563</ele>
        <time>2011-07-16T14:01:57Z</time>
      </trkpt>
      <trkpt lat="43.75558" lon="6.99641">
        <ele>563</ele>
        <time>2011-07-16T14:01:58Z</time>
      </trkpt>
      <trkpt lat="43.75556" lon="6.99644">
        <ele>563</ele>
        <time>2011-07-16T14:01:59Z</time>
      </trkpt>
      <trkpt lat="43.75554" lon="6.99647">
        <ele>563</ele>
        <time>2011-07-16T14:02:00Z</time>
      </trkpt>
      <trkpt lat="43.75553" lon="6.9965">
        <ele>563</ele>
        <time>2011-07-16T14:02:01Z</time>
      </trkpt>
      <trkpt lat="43.75551" lon="6.99653">
        <ele>563</ele>
        <time>2011-07-16T14:02:02Z</time>
      </trkpt>
      <trkpt lat="43.7555" lon="6.99659">
        <ele>563</ele>
        <time>2011-07-16T14:02:03Z</time>
      </trkpt>
      <trkpt lat="43.75548" lon="6.99663">
        <ele>563</ele>
        <time>2011-07-16T14:02:04Z</time>
      </trkpt>
      <trkpt lat="43.75548" lon="6.9967">
        <ele>563</ele>
        <time>2011-07-16T14:02:05Z</time>
      </trkpt>
      <trkpt lat="43.75548" lon="6.99675">
        <ele>563</ele>
        <time>2011-07-16T14:02:06Z</time>
      </trkpt>
      <trkpt lat="43.7555" lon="6.99684">
        <ele>563</ele>
        <time>2011-07-16T14:02:07Z</time>
      </trkpt>
      <trkpt lat="43.7555" lon="6.9969">
        <ele>563</ele>
        <time>2011-07-16T14:02:08Z</time>
      </trkpt>
      <trkpt lat="43.75551" lon="6.99697">
        <ele>563</ele>
        <time>2011-07-16T14:02:09Z</time>
      </trkpt>
      <trkpt lat="43.75552" lon="6.99703">
        <ele>563</ele>
        <time>2011-07-16T14:02:10Z</time>
      </trkpt>
      <trkpt lat="43.75553" lon="6.9971">
        <ele>563</ele>
        <time>2011-07-16T14:02:11Z</time>
      </trkpt>
      <trkpt lat="43.75554" lon="6.99717">
        <ele>563</ele>
        <time>2011-07-16T14:02:12Z</time>
      </trkpt>
      <trkpt lat="43.75554" lon="6.99725">
        <ele>563</ele>
        <time>2011-07-16T14:02:13Z</time>
      </trkpt>
      <trkpt lat="43.75551" lon="6.99815">
        <ele>562</ele>
        <time>2011-07-16T14:02:23Z</time>
      </trkpt>
      <trkpt lat="43.75509" lon="6.99866">
        <ele>562</ele>
        <time>2011-07-16T14:02:33Z</time>
      </trkpt>
      <trkpt lat="43.75506" lon="6.99868">
        <ele>562</ele>
        <time>2011-07-16T14:02:34Z</time>
      </trkpt>
      <trkpt lat="43.75503" lon="6.9987">
        <ele>562</ele>
        <time>2011-07-16T14:02:35Z</time>
      </trkpt>
      <trkpt lat="43.75502" lon="6.99873">
        <ele>562</ele>
        <time>2011-07-16T14:02:36Z</time>
      </trkpt>
      <trkpt lat="43.755" lon="6.99876">
        <ele>562</ele>
        <time>2011-07-16T14:02:37Z</time>
      </trkpt>
      <trkpt lat="43.75499" lon="6.99878">
        <ele>562</ele>
        <time>2011-07-16T14:02:38Z</time>
      </trkpt>
      <trkpt lat="43.75498" lon="6.99881">
        <ele>562</ele>
        <time>2011-07-16T14:02:39Z</time>
      </trkpt>
      <trkpt lat="43.75497" lon="6.99883">
        <ele>562</ele>
        <time>2011-07-16T14:02:40Z</time>
      </trkpt>
      <trkpt lat="43.75497" lon="6.99885">
        <ele>562</ele>
        <time>2011-07-16T14:02:41Z</time>
      </trkpt>
      <trkpt lat="43.75496" lon="6.99887">
        <ele>562</ele>
        <time>2011-07-16T14:02:42Z</time>
      </trkpt>
      <trkpt lat="43.75495" lon="6.9989">
        <ele>562</ele>
        <time>2011-07-16T14:02:43Z</time>
      </trkpt>
      <trkpt lat="43.75495" lon="6.99892">
        <ele>562</ele>
        <time>2011-07-16T14:02:44Z</time>
      </trkpt>
      <trkpt lat="43.75494" lon="6.99894">
        <ele>562</ele>
        <time>2011-07-16T14:02:45Z</time>
      </trkpt>
      <trkpt lat="43.75492" lon="6.99895">
        <ele>562</ele>
        <time>2011-07-16T14:02:46Z</time>
      </trkpt>
      <trkpt lat="43.7549" lon="6.99895">
        <ele>562</ele>
        <time>2011-07-16T14:02:47Z</time>
      </trkpt>
      <trkpt lat="43.75489" lon="6.99896">
        <ele>563</ele>
        <time>2011-07-16T14:02:48Z</time>
      </trkpt>
      <trkpt lat="43.75487" lon="6.99897">
        <ele>563</ele>
        <time>2011-07-16T14:02:49Z</time>
      </trkpt>
      <trkpt lat="43.75486" lon="6.99899">
        <ele>563</ele>
        <time>2011-07-16T14:02:50Z</time>
      </trkpt>
      <trkpt lat="43.75485" lon="6.999">
        <ele>563</ele>
        <time>2011-07-16T14:02:51Z</time>
      </trkpt>
      <trkpt lat="43.75484" lon="6.99901">
        <ele>563</ele>
        <time>2011-07-16T14:02:52Z</time>
      </trkpt>
      <trkpt lat="43.75482" lon="6.99902">
        <ele>563</ele>
        <time>2011-07-16T14:02:53Z</time>
      </trkpt>
      <trkpt lat="43.75481" lon="6.99903">
        <ele>563</ele>
        <time>2011-07-16T14:02:54Z</time>
      </trkpt>
      <trkpt lat="43.75479" lon="6.99905">
        <ele>563</ele>
        <time>2011-07-16T14:02:55Z</time>
      </trkpt>
      <trkpt lat="43.75478" lon="6.99906">
        <ele>563</ele>
        <time>2011-07-16T14:02:56Z</time>
      </trkpt>
      <trkpt lat="43.75476" lon="6.99908">
        <ele>564</ele>
        <time>2011-07-16T14:02:57Z</time>
      </trkpt>
      <trkpt lat="43.75475" lon="6.99909">
        <ele>564</ele>
        <time>2011-07-16T14:02:58Z</time>
      </trkpt>
      <trkpt lat="43.75474" lon="6.9991">
        <ele>564</ele>
        <time>2011-07-16T14:02:59Z</time>
      </trkpt>
      <trkpt lat="43.75472" lon="6.99911">
        <ele>564</ele>
        <time>2011-07-16T14:03:00Z</time>
      </trkpt>
      <trkpt lat="43.75471" lon="6.99912">
        <ele>564</ele>
        <time>2011-07-16T14:03:01Z</time>
      </trkpt>
      <trkpt lat="43.75469" lon="6.99913">
        <ele>564</ele>
        <time>2011-07-16T14:03:02Z</time>
      </trkpt>
      <trkpt lat="43.75467" lon="6.99913">
        <ele>565</ele>
        <time>2011-07-16T14:03:03Z</time>
      </trkpt>
      <trkpt lat="43.75465" lon="6.99915">
        <ele>565</ele>
        <time>2011-07-16T14:03:04Z</time>
      </trkpt>
      <trkpt lat="43.75463" lon="6.99916">
        <ele>565</ele>
        <time>2011-07-16T14:03:05Z</time>
      </trkpt>
      <trkpt lat="43.75461" lon="6.99917">
        <ele>565</ele>
        <time>2011-07-16T14:03:06Z</time>
      </trkpt>
      <trkpt lat="43.75459" lon="6.99918">
        <ele>565</ele>
        <time>2011-07-16T14:03:07Z</time>
      </trkpt>
      <trkpt lat="43.75458" lon="6.99919">
        <ele>564</ele>
        <time>2011-07-16T14:03:08Z</time>
      </trkpt>
      <trkpt lat="43.75457" lon="6.99919">
        <ele>565</ele>
        <time>2011-07-16T14:03:09Z</time>
      </trkpt>
      <trkpt lat="43.75455" lon="6.9992">
        <ele>565</ele>
        <time>2011-07-16T14:03:10Z</time>
      </trkpt>
      <trkpt lat="43.75454" lon="6.9992">
        <ele>565</ele>
        <time>2011-07-16T14:03:11Z</time>
      </trkpt>
      <trkpt lat="43.75453" lon="6.99921">
        <ele>564</ele>
        <time>2011-07-16T14:03:12Z</time>
      </trkpt>
      <trkpt lat="43.7545" lon="6.99923">
        <ele>564</ele>
        <time>2011-07-16T14:03:14Z</time>
      </trkpt>
      <trkpt lat="43.7545" lon="6.99924">
        <ele>564</ele>
        <time>2011-07-16T14:03:15Z</time>
      </trkpt>
      <trkpt lat="43.75448" lon="6.99925">
        <ele>564</ele>
        <time>2011-07-16T14:03:16Z</time>
      </trkpt>
      <trkpt lat="43.75447" lon="6.99926">
        <ele>564</ele>
        <time>2011-07-16T14:03:17Z</time>
      </trkpt>
      <trkpt lat="43.75446" lon="6.99926">
        <ele>564</ele>
        <time>2011-07-16T14:03:18Z</time>
      </trkpt>
      <trkpt lat="43.75445" lon="6.99927">
        <ele>564</ele>
        <time>2011-07-16T14:03:19Z</time>
      </trkpt>
      <trkpt lat="43.75445" lon="6.99927">
        <ele>563</ele>
        <time>2011-07-16T14:03:31Z</time>
      </trkpt>
      <trkpt lat="43.75444" lon="6.99928">
        <ele>563</ele>
        <time>2011-07-16T14:03:32Z</time>
      </trkpt>
      <trkpt lat="43.75444" lon="6.99929">
        <ele>563</ele>
        <time>2011-07-16T14:03:33Z</time>
      </trkpt>
      <trkpt lat="43.75443" lon="6.9993">
        <ele>563</ele>
        <time>2011-07-16T14:03:34Z</time>
      </trkpt>
      <trkpt lat="43.75442" lon="6.99931">
        <ele>563</ele>
        <time>2011-07-16T14:03:35Z</time>
      </trkpt>
      <trkpt lat="43.75441" lon="6.99932">
        <ele>563</ele>
        <time>2011-07-16T14:03:36Z</time>
      </trkpt>
      <trkpt lat="43.75439" lon="6.99936">
        <ele>563</ele>
        <time>2011-07-16T14:03:37Z</time>
      </trkpt>
      <trkpt lat="43.75438" lon="6.99939">
        <ele>563</ele>
        <time>2011-07-16T14:03:38Z</time>
      </trkpt>
      <trkpt lat="43.75436" lon="6.99943">
        <ele>563</ele>
        <time>2011-07-16T14:03:39Z</time>
      </trkpt>
      <trkpt lat="43.75434" lon="6.99947">
        <ele>563</ele>
        <time>2011-07-16T14:03:40Z</time>
      </trkpt>
      <trkpt lat="43.75431" lon="6.9995">
        <ele>563</ele>
        <time>2011-07-16T14:03:41Z</time>
      </trkpt>
      <trkpt lat="43.75429" lon="6.99955">
        <ele>563</ele>
        <time>2011-07-16T14:03:42Z</time>
      </trkpt>
      <trkpt lat="43.75426" lon="6.9996">
        <ele>563</ele>
        <time>2011-07-16T14:03:43Z</time>
      </trkpt>
      <trkpt lat="43.75424" lon="6.99966">
        <ele>563</ele>
        <time>2011-07-16T14:03:44Z</time>
      </trkpt>
      <trkpt lat="43.75421" lon="6.99973">
        <ele>563</ele>
        <time>2011-07-16T14:03:45Z</time>
      </trkpt>
      <trkpt lat="43.75419" lon="6.99979">
        <ele>563</ele>
        <time>2011-07-16T14:03:46Z</time>
      </trkpt>
      <trkpt lat="43.75416" lon="6.99986">
        <ele>563</ele>
        <time>2011-07-16T14:03:47Z</time>
      </trkpt>
      <trkpt lat="43.75371" lon="6.9999">
        <ele>563</ele>
        <time>2011-07-16T14:03:57Z</time>
      </trkpt>
      <trkpt lat="43.75369" lon="6.9999">
        <ele>563</ele>
        <time>2011-07-16T14:03:58Z</time>
      </trkpt>
      <trkpt lat="43.75366" lon="6.9999">
        <ele>563</ele>
        <time>2011-07-16T14:03:59Z</time>
      </trkpt>
      <trkpt lat="43.75363" lon="6.99992">
        <ele>563</ele>
        <time>2011-07-16T14:04:00Z</time>
      </trkpt>
      <trkpt lat="43.75362" lon="6.99994">
        <ele>563</ele>
        <time>2011-07-16T14:04:01Z</time>
      </trkpt>
      <trkpt lat="43.75361" lon="6.99996">
        <ele>563</ele>
        <time>2011-07-16T14:04:02Z</time>
      </trkpt>
      <trkpt lat="43.75362" lon="6.99999">
        <ele>563</ele>
        <time>2011-07-16T14:04:03Z</time>
      </trkpt>
      <trkpt lat="43.75363" lon="7">
        <ele>563</ele>
        <time>2011-07-16T14:04:04Z</time>
      </trkpt>
      <trkpt lat="43.75367" lon="7.00002">
        <ele>564</ele>
        <time>2011-07-16T14:04:06Z</time>
      </trkpt>
      <trkpt lat="43.7537" lon="7.00003">
        <ele>564</ele>
        <time>2011-07-16T14:04:07Z</time>
      </trkpt>
      <trkpt lat="43.75372" lon="7.00004">
        <ele>564</ele>
        <time>2011-07-16T14:04:08Z</time>
      </trkpt>
      <trkpt lat="43.75374" lon="7.00005">
        <ele>564</ele>
        <time>2011-07-16T14:04:09Z</time>
      </trkpt>
      <trkpt lat="43.75376" lon="7.00007">
        <ele>564</ele>
        <time>2011-07-16T14:04:10Z</time>
      </trkpt>
      <trkpt lat="43.75378" lon="7.00009">
        <ele>565</ele>
        <time>2011-07-16T14:04:11Z</time>
      </trkpt>
      <trkpt lat="43.7538" lon="7.00012">
        <ele>566</ele>
        <time>2011-07-16T14:04:12Z</time>
      </trkpt>
      <trkpt lat="43.75382" lon="7.00014">
        <ele>566</ele>
        <time>2011-07-16T14:04:13Z</time>
      </trkpt>
      <trkpt lat="43.75384" lon="7.00016">
        <ele>567</ele>
        <time>2011-07-16T14:04:14Z</time>
      </trkpt>
      <trkpt lat="43.75387" lon="7.0002">
        <ele>566</ele>
        <time>2011-07-16T14:04:16Z</time>
      </trkpt>
      <trkpt lat="43.75389" lon="7.00022">
        <ele>566</ele>
        <time>2011-07-16T14:04:17Z</time>
      </trkpt>
      <trkpt lat="43.7539" lon="7.00025">
        <ele>566</ele>
        <time>2011-07-16T14:04:18Z</time>
      </trkpt>
      <trkpt lat="43.75391" lon="7.00028">
        <ele>565</ele>
        <time>2011-07-16T14:04:19Z</time>
      </trkpt>
      <trkpt lat="43.75392" lon="7.0003">
        <ele>565</ele>
        <time>2011-07-16T14:04:20Z</time>
      </trkpt>
      <trkpt lat="43.75393" lon="7.00033">
        <ele>565</ele>
        <time>2011-07-16T14:04:21Z</time>
      </trkpt>
      <trkpt lat="43.75394" lon="7.00036">
        <ele>564</ele>
        <time>2011-07-16T14:04:22Z</time>
      </trkpt>
      <trkpt lat="43.75394" lon="7.00039">
        <ele>564</ele>
        <time>2011-07-16T14:04:23Z</time>
      </trkpt>
      <trkpt lat="43.75395" lon="7.00042">
        <ele>564</ele>
        <time>2011-07-16T14:04:24Z</time>
      </trkpt>
      <trkpt lat="43.75395" lon="7.00045">
        <ele>564</ele>
        <time>2011-07-16T14:04:25Z</time>
      </trkpt>
      <trkpt lat="43.75395" lon="7.00048">
        <ele>564</ele>
        <time>2011-07-16T14:04:26Z</time>
      </trkpt>
      <trkpt lat="43.75395" lon="7.00051">
        <ele>564</ele>
        <time>2011-07-16T14:04:27Z</time>
      </trkpt>
      <trkpt lat="43.75395" lon="7.00054">
        <ele>564</ele>
        <time>2011-07-16T14:04:28Z</time>
      </trkpt>
      <trkpt lat="43.75395" lon="7.00058">
        <ele>564</ele>
        <time>2011-07-16T14:04:29Z</time>
      </trkpt>
      <trkpt lat="43.75395" lon="7.00061">
        <ele>563</ele>
        <time>2011-07-16T14:04:30Z</time>
      </trkpt>
      <trkpt lat="43.75395" lon="7.00064">
        <ele>563</ele>
        <time>2011-07-16T14:04:31Z</time>
      </trkpt>
      <trkpt lat="43.75395" lon="7.00068">
        <ele>563</ele>
        <time>2011-07-16T14:04:32Z</time>
      </trkpt>
      <trkpt lat="43.75394" lon="7.00071">
        <ele>563</ele>
        <time>2011-07-16T14:04:33Z</time>
      </trkpt>
      <trkpt lat="43.75395" lon="7.00074">
        <ele>561</ele>
        <time>2011-07-16T14:04:34Z</time>
      </trkpt>
      <trkpt lat="43.75394" lon="7.00077">
        <ele>560</ele>
        <time>2011-07-16T14:04:35Z</time>
      </trkpt>
      <trkpt lat="43.75394" lon="7.00083">
        <ele>560</ele>
        <time>2011-07-16T14:04:37Z</time>
      </trkpt>
      <trkpt lat="43.75394" lon="7.00086">
        <ele>560</ele>
        <time>2011-07-16T14:04:38Z</time>
      </trkpt>
      <trkpt lat="43.75394" lon="7.0009">
        <ele>560</ele>
        <time>2011-07-16T14:04:39Z</time>
      </trkpt>
      <trkpt lat="43.75393" lon="7.00093">
        <ele>560</ele>
        <time>2011-07-16T14:04:40Z</time>
      </trkpt>
      <trkpt lat="43.75393" lon="7.00096">
        <ele>560</ele>
        <time>2011-07-16T14:04:41Z</time>
      </trkpt>
      <trkpt lat="43.75393" lon="7.00099">
        <ele>560</ele>
        <time>2011-07-16T14:04:42Z</time>
      </trkpt>
      <trkpt lat="43.75393" lon="7.00103">
        <ele>560</ele>
        <time>2011-07-16T14:04:43Z</time>
      </trkpt>
      <trkpt lat="43.75392" lon="7.00106">
        <ele>560</ele>
        <time>2011-07-16T14:04:44Z</time>
      </trkpt>
      <trkpt lat="43.75392" lon="7.00109">
        <ele>560</ele>
        <time>2011-07-16T14:04:45Z</time>
      </trkpt>
      <trkpt lat="43.75392" lon="7.00112">
        <ele>560</ele>
        <time>2011-07-16T14:04:46Z</time>
      </trkpt>
      <trkpt lat="43.75392" lon="7.00116">
        <ele>560</ele>
        <time>2011-07-16T14:04:47Z</time>
      </trkpt>
      <trkpt lat="43.75392" lon="7.00119">
        <ele>560</ele>
        <time>2011-07-16T14:04:48Z</time>
      </trkpt>
      <trkpt lat="43.75392" lon="7.00122">
        <ele>560</ele>
        <time>2011-07-16T14:04:49Z</time>
      </trkpt>
      <trkpt lat="43.75391" lon="7.00129">
        <ele>560</ele>
        <time>2011-07-16T14:04:51Z</time>
      </trkpt>
      <trkpt lat="43.75391" lon="7.00133">
        <ele>560</ele>
        <time>2011-07-16T14:04:52Z</time>
      </trkpt>
      <trkpt lat="43.75392" lon="7.00136">
        <ele>560</ele>
        <time>2011-07-16T14:04:53Z</time>
      </trkpt>
      <trkpt lat="43.75392" lon="7.00139">
        <ele>561</ele>
        <time>2011-07-16T14:04:54Z</time>
      </trkpt>
      <trkpt lat="43.75392" lon="7.00142">
        <ele>561</ele>
        <time>2011-07-16T14:04:55Z</time>
      </trkpt>
      <trkpt lat="43.75393" lon="7.00145">
        <ele>561</ele>
        <time>2011-07-16T14:04:56Z</time>
      </trkpt>
      <trkpt lat="43.75394" lon="7.00148">
        <ele>561</ele>
        <time>2011-07-16T14:04:57Z</time>
      </trkpt>
      <trkpt lat="43.75394" lon="7.00152">
        <ele>561</ele>
        <time>2011-07-16T14:04:58Z</time>
      </trkpt>
      <trkpt lat="43.75395" lon="7.00155">
        <ele>561</ele>
        <time>2011-07-16T14:04:59Z</time>
      </trkpt>
      <trkpt lat="43.75396" lon="7.00158">
        <ele>561</ele>
        <time>2011-07-16T14:05:00Z</time>
      </trkpt>
      <trkpt lat="43.75397" lon="7.00161">
        <ele>561</ele>
        <time>2011-07-16T14:05:01Z</time>
      </trkpt>
      <trkpt lat="43.75398" lon="7.00164">
        <ele>561</ele>
        <time>2011-07-16T14:05:02Z</time>
      </trkpt>
      <trkpt lat="43.75399" lon="7.00167">
        <ele>561</ele>
        <time>2011-07-16T14:05:03Z</time>
      </trkpt>
      <trkpt lat="43.754" lon="7.0017">
        <ele>561</ele>
        <time>2011-07-16T14:05:04Z</time>
      </trkpt>
      <trkpt lat="43.75401" lon="7.00173">
        <ele>561</ele>
        <time>2011-07-16T14:05:05Z</time>
      </trkpt>
      <trkpt lat="43.75402" lon="7.00176">
        <ele>561</ele>
        <time>2011-07-16T14:05:06Z</time>
      </trkpt>
      <trkpt lat="43.75403" lon="7.00179">
        <ele>562</ele>
        <time>2011-07-16T14:05:07Z</time>
      </trkpt>
      <trkpt lat="43.75405" lon="7.00182">
        <ele>561</ele>
        <time>2011-07-16T14:05:08Z</time>
      </trkpt>
      <trkpt lat="43.75406" lon="7.00185">
        <ele>562</ele>
        <time>2011-07-16T14:05:09Z</time>
      </trkpt>
      <trkpt lat="43.75408" lon="7.00188">
        <ele>562</ele>
        <time>2011-07-16T14:05:10Z</time>
      </trkpt>
      <trkpt lat="43.75409" lon="7.00191">
        <ele>561</ele>
        <time>2011-07-16T14:05:11Z</time>
      </trkpt>
      <trkpt lat="43.75411" lon="7.00194">
        <ele>561</ele>
        <time>2011-07-16T14:05:12Z</time>
      </trkpt>
      <trkpt lat="43.75412" lon="7.00197">
        <ele>561</ele>
        <time>2011-07-16T14:05:13Z</time>
      </trkpt>
      <trkpt lat="43.75413" lon="7.002">
        <ele>561</ele>
        <time>2011-07-16T14:05:14Z</time>
      </trkpt>
      <trkpt lat="43.75415" lon="7.00203">
        <ele>561</ele>
        <time>2011-07-16T14:05:15Z</time>
      </trkpt>
      <trkpt lat="43.75416" lon="7.00205">
        <ele>561</ele>
        <time>2011-07-16T14:05:16Z</time>
      </trkpt>
      <trkpt lat="43.75418" lon="7.00207">
        <ele>561</ele>
        <time>2011-07-16T14:05:17Z</time>
      </trkpt>
      <trkpt lat="43.7542" lon="7.0021">
        <ele>561</ele>
        <time>2011-07-16T14:05:18Z</time>
      </trkpt>
      <trkpt lat="43.75422" lon="7.00213">
        <ele>561</ele>
        <time>2011-07-16T14:05:19Z</time>
      </trkpt>
      <trkpt lat="43.75423" lon="7.00215">
        <ele>561</ele>
        <time>2011-07-16T14:05:20Z</time>
      </trkpt>
      <trkpt lat="43.75425" lon="7.00218">
        <ele>561</ele>
        <time>2011-07-16T14:05:21Z</time>
      </trkpt>
      <trkpt lat="43.75426" lon="7.00221">
        <ele>561</ele>
        <time>2011-07-16T14:05:22Z</time>
      </trkpt>
      <trkpt lat="43.75428" lon="7.00224">
        <ele>561</ele>
        <time>2011-07-16T14:05:23Z</time>
      </trkpt>
      <trkpt lat="43.75429" lon="7.00226">
        <ele>561</ele>
        <time>2011-07-16T14:05:24Z</time>
      </trkpt>
      <trkpt lat="43.75431" lon="7.00229">
        <ele>561</ele>
        <time>2011-07-16T14:05:25Z</time>
      </trkpt>
      <trkpt lat="43.75433" lon="7.00231">
        <ele>561</ele>
        <time>2011-07-16T14:05:26Z</time>
      </trkpt>
      <trkpt lat="43.75434" lon="7.00234">
        <ele>561</ele>
        <time>2011-07-16T14:05:27Z</time>
      </trkpt>
      <trkpt lat="43.75435" lon="7.00237">
        <ele>561</ele>
        <time>2011-07-16T14:05:28Z</time>
      </trkpt>
      <trkpt lat="43.75436" lon="7.0024">
        <ele>561</ele>
        <time>2011-07-16T14:05:29Z</time>
      </trkpt>
      <trkpt lat="43.75437" lon="7.00243">
        <ele>561</ele>
        <time>2011-07-16T14:05:30Z</time>
      </trkpt>
      <trkpt lat="43.75438" lon="7.00246">
        <ele>561</ele>
        <time>2011-07-16T14:05:31Z</time>
      </trkpt>
      <trkpt lat="43.75439" lon="7.00249">
        <ele>561</ele>
        <time>2011-07-16T14:05:32Z</time>
      </trkpt>
      <trkpt lat="43.7544" lon="7.00253">
        <ele>561</ele>
        <time>2011-07-16T14:05:33Z</time>
      </trkpt>
      <trkpt lat="43.75441" lon="7.00256">
        <ele>560</ele>
        <time>2011-07-16T14:05:34Z</time>
      </trkpt>
      <trkpt lat="43.75441" lon="7.00259">
        <ele>560</ele>
        <time>2011-07-16T14:05:35Z</time>
      </trkpt>
      <trkpt lat="43.75441" lon="7.00263">
        <ele>560</ele>
        <time>2011-07-16T14:05:36Z</time>
      </trkpt>
      <trkpt lat="43.75442" lon="7.00266">
        <ele>560</ele>
        <time>2011-07-16T14:05:37Z</time>
      </trkpt>
      <trkpt lat="43.75441" lon="7.00269">
        <ele>560</ele>
        <time>2011-07-16T14:05:38Z</time>
      </trkpt>
      <trkpt lat="43.75441" lon="7.00272">
        <ele>560</ele>
        <time>2011-07-16T14:05:39Z</time>
      </trkpt>
      <trkpt lat="43.7544" lon="7.00275">
        <ele>560</ele>
        <time>2011-07-16T14:05:40Z</time>
      </trkpt>
      <trkpt lat="43.75439" lon="7.00278">
        <ele>560</ele>
        <time>2011-07-16T14:05:41Z</time>
      </trkpt>
      <trkpt lat="43.75439" lon="7.00281">
        <ele>560</ele>
        <time>2011-07-16T14:05:42Z</time>
      </trkpt>
      <trkpt lat="43.75438" lon="7.00284">
        <ele>560</ele>
        <time>2011-07-16T14:05:43Z</time>
      </trkpt>
      <trkpt lat="43.75436" lon="7.00287">
        <ele>560</ele>
        <time>2011-07-16T14:05:44Z</time>
      </trkpt>
      <trkpt lat="43.75435" lon="7.0029">
        <ele>560</ele>
        <time>2011-07-16T14:05:45Z</time>
      </trkpt>
      <trkpt lat="43.75434" lon="7.00293">
        <ele>560</ele>
        <time>2011-07-16T14:05:46Z</time>
      </trkpt>
      <trkpt lat="43.75433" lon="7.00296">
        <ele>560</ele>
        <time>2011-07-16T14:05:47Z</time>
      </trkpt>
      <trkpt lat="43.75431" lon="7.00299">
        <ele>560</ele>
        <time>2011-07-16T14:05:48Z</time>
      </trkpt>
      <trkpt lat="43.7543" lon="7.00301">
        <ele>560</ele>
        <time>2011-07-16T14:05:49Z</time>
      </trkpt>
      <trkpt lat="43.75428" lon="7.00304">
        <ele>560</ele>
        <time>2011-07-16T14:05:50Z</time>
      </trkpt>
      <trkpt lat="43.75427" lon="7.00307">
        <ele>560</ele>
        <time>2011-07-16T14:05:51Z</time>
      </trkpt>
      <trkpt lat="43.75426" lon="7.0031">
        <ele>561</ele>
        <time>2011-07-16T14:05:52Z</time>
      </trkpt>
      <trkpt lat="43.75424" lon="7.00313">
        <ele>560</ele>
        <time>2011-07-16T14:05:53Z</time>
      </trkpt>
      <trkpt lat="43.75422" lon="7.00315">
        <ele>560</ele>
        <time>2011-07-16T14:05:54Z</time>
      </trkpt>
      <trkpt lat="43.75419" lon="7.0032">
        <ele>561</ele>
        <time>2011-07-16T14:05:56Z</time>
      </trkpt>
      <trkpt lat="43.75418" lon="7.00323">
        <ele>561</ele>
        <time>2011-07-16T14:05:57Z</time>
      </trkpt>
      <trkpt lat="43.75417" lon="7.00326">
        <ele>561</ele>
        <time>2011-07-16T14:05:58Z</time>
      </trkpt>
      <trkpt lat="43.75414" lon="7.00332">
        <ele>561</ele>
        <time>2011-07-16T14:06:00Z</time>
      </trkpt>
      <trkpt lat="43.75412" lon="7.00338">
        <ele>561</ele>
        <time>2011-07-16T14:06:02Z</time>
      </trkpt>
      <trkpt lat="43.75409" lon="7.00344">
        <ele>560</ele>
        <time>2011-07-16T14:06:04Z</time>
      </trkpt>
      <trkpt lat="43.75408" lon="7.00347">
        <ele>560</ele>
        <time>2011-07-16T14:06:05Z</time>
      </trkpt>
      <trkpt lat="43.75406" lon="7.0035">
        <ele>560</ele>
        <time>2011-07-16T14:06:06Z</time>
      </trkpt>
      <trkpt lat="43.75405" lon="7.00352">
        <ele>560</ele>
        <time>2011-07-16T14:06:07Z</time>
      </trkpt>
      <trkpt lat="43.75404" lon="7.00355">
        <ele>560</ele>
        <time>2011-07-16T14:06:08Z</time>
      </trkpt>
      <trkpt lat="43.75402" lon="7.00358">
        <ele>560</ele>
        <time>2011-07-16T14:06:09Z</time>
      </trkpt>
      <trkpt lat="43.75401" lon="7.00361">
        <ele>559</ele>
        <time>2011-07-16T14:06:10Z</time>
      </trkpt>
      <trkpt lat="43.754" lon="7.00363">
        <ele>559</ele>
        <time>2011-07-16T14:06:11Z</time>
      </trkpt>
      <trkpt lat="43.75399" lon="7.00366">
        <ele>559</ele>
        <time>2011-07-16T14:06:12Z</time>
      </trkpt>
      <trkpt lat="43.75398" lon="7.00368">
        <ele>559</ele>
        <time>2011-07-16T14:06:13Z</time>
      </trkpt>
      <trkpt lat="43.75396" lon="7.00371">
        <ele>560</ele>
        <time>2011-07-16T14:06:14Z</time>
      </trkpt>
      <trkpt lat="43.75395" lon="7.00373">
        <ele>559</ele>
        <time>2011-07-16T14:06:15Z</time>
      </trkpt>
      <trkpt lat="43.75394" lon="7.00375">
        <ele>560</ele>
        <time>2011-07-16T14:06:16Z</time>
      </trkpt>
      <trkpt lat="43.75393" lon="7.00377">
        <ele>560</ele>
        <time>2011-07-16T14:06:17Z</time>
      </trkpt>
      <trkpt lat="43.75391" lon="7.0038">
        <ele>560</ele>
        <time>2011-07-16T14:06:18Z</time>
      </trkpt>
      <trkpt lat="43.7539" lon="7.00383">
        <ele>560</ele>
        <time>2011-07-16T14:06:19Z</time>
      </trkpt>
      <trkpt lat="43.75389" lon="7.00386">
        <ele>560</ele>
        <time>2011-07-16T14:06:20Z</time>
      </trkpt>
      <trkpt lat="43.75388" lon="7.0039">
        <ele>560</ele>
        <time>2011-07-16T14:06:21Z</time>
      </trkpt>
      <trkpt lat="43.75387" lon="7.00393">
        <ele>560</ele>
        <time>2011-07-16T14:06:22Z</time>
      </trkpt>
      <trkpt lat="43.75385" lon="7.00396">
        <ele>560</ele>
        <time>2011-07-16T14:06:23Z</time>
      </trkpt>
      <trkpt lat="43.75383" lon="7.00403">
        <ele>559</ele>
        <time>2011-07-16T14:06:25Z</time>
      </trkpt>
      <trkpt lat="43.75382" lon="7.00406">
        <ele>560</ele>
        <time>2011-07-16T14:06:26Z</time>
      </trkpt>
      <trkpt lat="43.75381" lon="7.00409">
        <ele>560</ele>
        <time>2011-07-16T14:06:27Z</time>
      </trkpt>
      <trkpt lat="43.7538" lon="7.00412">
        <ele>560</ele>
        <time>2011-07-16T14:06:28Z</time>
      </trkpt>
      <trkpt lat="43.75378" lon="7.00415">
        <ele>560</ele>
        <time>2011-07-16T14:06:29Z</time>
      </trkpt>
      <trkpt lat="43.75377" lon="7.00418">
        <ele>560</ele>
        <time>2011-07-16T14:06:30Z</time>
      </trkpt>
      <trkpt lat="43.75374" lon="7.00423">
        <ele>561</ele>
        <time>2011-07-16T14:06:32Z</time>
      </trkpt>
      <trkpt lat="43.75373" lon="7.00426">
        <ele>561</ele>
        <time>2011-07-16T14:06:33Z</time>
      </trkpt>
      <trkpt lat="43.75372" lon="7.00428">
        <ele>561</ele>
        <time>2011-07-16T14:06:34Z</time>
      </trkpt>
      <trkpt lat="43.75371" lon="7.00431">
        <ele>561</ele>
        <time>2011-07-16T14:06:35Z</time>
      </trkpt>
      <trkpt lat="43.7537" lon="7.00434">
        <ele>561</ele>
        <time>2011-07-16T14:06:36Z</time>
      </trkpt>
      <trkpt lat="43.75368" lon="7.00437">
        <ele>562</ele>
        <time>2011-07-16T14:06:37Z</time>
      </trkpt>
      <trkpt lat="43.75366" lon="7.00439">
        <ele>563</ele>
        <time>2011-07-16T14:06:38Z</time>
      </trkpt>
      <trkpt lat="43.75365" lon="7.00442">
        <ele>563</ele>
        <time>2011-07-16T14:06:39Z</time>
      </trkpt>
      <trkpt lat="43.75364" lon="7.00444">
        <ele>563</ele>
        <time>2011-07-16T14:06:40Z</time>
      </trkpt>
      <trkpt lat="43.75363" lon="7.00447">
        <ele>564</ele>
        <time>2011-07-16T14:06:41Z</time>
      </trkpt>
      <trkpt lat="43.7536" lon="7.00452">
        <ele>564</ele>
        <time>2011-07-16T14:06:43Z</time>
      </trkpt>
      <trkpt lat="43.75359" lon="7.00454">
        <ele>564</ele>
        <time>2011-07-16T14:06:44Z</time>
      </trkpt>
      <trkpt lat="43.75358" lon="7.00457">
        <ele>564</ele>
        <time>2011-07-16T14:06:45Z</time>
      </trkpt>
      <trkpt lat="43.75357" lon="7.0046">
        <ele>564</ele>
        <time>2011-07-16T14:06:46Z</time>
      </trkpt>
      <trkpt lat="43.75356" lon="7.00462">
        <ele>564</ele>
        <time>2011-07-16T14:06:47Z</time>
      </trkpt>
      <trkpt lat="43.75355" lon="7.00465">
        <ele>564</ele>
        <time>2011-07-16T14:06:48Z</time>
      </trkpt>
      <trkpt lat="43.75353" lon="7.00467">
        <ele>564</ele>
        <time>2011-07-16T14:06:49Z</time>
      </trkpt>
      <trkpt lat="43.75352" lon="7.0047">
        <ele>564</ele>
        <time>2011-07-16T14:06:50Z</time>
      </trkpt>
      <trkpt lat="43.75351" lon="7.00472">
        <ele>564</ele>
        <time>2011-07-16T14:06:51Z</time>
      </trkpt>
      <trkpt lat="43.75349" lon="7.00475">
        <ele>564</ele>
        <time>2011-07-16T14:06:52Z</time>
      </trkpt>
      <trkpt lat="43.75348" lon="7.00478">
        <ele>564</ele>
        <time>2011-07-16T14:06:53Z</time>
      </trkpt>
      <trkpt lat="43.75347" lon="7.0048">
        <ele>564</ele>
        <time>2011-07-16T14:06:54Z</time>
      </trkpt>
      <trkpt lat="43.75345" lon="7.00483">
        <ele>565</ele>
        <time>2011-07-16T14:06:55Z</time>
      </trkpt>
      <trkpt lat="43.75344" lon="7.00485">
        <ele>565</ele>
        <time>2011-07-16T14:06:56Z</time>
      </trkpt>
      <trkpt lat="43.75343" lon="7.00488">
        <ele>565</ele>
        <time>2011-07-16T14:06:57Z</time>
      </trkpt>
      <trkpt lat="43.75341" lon="7.0049">
        <ele>565</ele>
        <time>2011-07-16T14:06:58Z</time>
      </trkpt>
      <trkpt lat="43.75339" lon="7.00493">
        <ele>565</ele>
        <time>2011-07-16T14:06:59Z</time>
      </trkpt>
      <trkpt lat="43.75338" lon="7.00495">
        <ele>565</ele>
        <time>2011-07-16T14:07:00Z</time>
      </trkpt>
      <trkpt lat="43.75337" lon="7.00498">
        <ele>565</ele>
        <time>2011-07-16T14:07:01Z</time>
      </trkpt>
      <trkpt lat="43.75335" lon="7.00501">
        <ele>565</ele>
        <time>2011-07-16T14:07:02Z</time>
      </trkpt>
      <trkpt lat="43.75334" lon="7.00503">
        <ele>565</ele>
        <time>2011-07-16T14:07:03Z</time>
      </trkpt>
      <trkpt lat="43.75332" lon="7.00506">
        <ele>565</ele>
        <time>2011-07-16T14:07:04Z</time>
      </trkpt>
      <trkpt lat="43.7533" lon="7.00508">
        <ele>565</ele>
        <time>2011-07-16T14:07:05Z</time>
      </trkpt>
      <trkpt lat="43.75328" lon="7.0051">
        <ele>565</ele>
        <time>2011-07-16T14:07:06Z</time>
      </trkpt>
      <trkpt lat="43.75327" lon="7.00513">
        <ele>565</ele>
        <time>2011-07-16T14:07:07Z</time>
      </trkpt>
      <trkpt lat="43.75325" lon="7.00515">
        <ele>565</ele>
        <time>2011-07-16T14:07:08Z</time>
      </trkpt>
      <trkpt lat="43.75324" lon="7.00518">
        <ele>565</ele>
        <time>2011-07-16T14:07:09Z</time>
      </trkpt>
      <trkpt lat="43.75322" lon="7.00521">
        <ele>566</ele>
        <time>2011-07-16T14:07:10Z</time>
      </trkpt>
      <trkpt lat="43.75321" lon="7.00523">
        <ele>566</ele>
        <time>2011-07-16T14:07:11Z</time>
      </trkpt>
      <trkpt lat="43.75319" lon="7.00526">
        <ele>566</ele>
        <time>2011-07-16T14:07:12Z</time>
      </trkpt>
      <trkpt lat="43.75318" lon="7.00528">
        <ele>566</ele>
        <time>2011-07-16T14:07:13Z</time>
      </trkpt>
      <trkpt lat="43.75317" lon="7.00531">
        <ele>566</ele>
        <time>2011-07-16T14:07:14Z</time>
      </trkpt>
      <trkpt lat="43.75315" lon="7.00533">
        <ele>566</ele>
        <time>2011-07-16T14:07:15Z</time>
      </trkpt>
      <trkpt lat="43.75314" lon="7.00536">
        <ele>566</ele>
        <time>2011-07-16T14:07:16Z</time>
      </trkpt>
      <trkpt lat="43.75312" lon="7.00538">
        <ele>566</ele>
        <time>2011-07-16T14:07:17Z</time>
      </trkpt>
      <trkpt lat="43.75311" lon="7.0054">
        <ele>566</ele>
        <time>2011-07-16T14:07:18Z</time>
      </trkpt>
      <trkpt lat="43.75309" lon="7.00543">
        <ele>566</ele>
        <time>2011-07-16T14:07:19Z</time>
      </trkpt>
      <trkpt lat="43.75307" lon="7.00545">
        <ele>566</ele>
        <time>2011-07-16T14:07:20Z</time>
      </trkpt>
      <trkpt lat="43.75304" lon="7.0055">
        <ele>567</ele>
        <time>2011-07-16T14:07:22Z</time>
      </trkpt>
      <trkpt lat="43.75303" lon="7.00552">
        <ele>567</ele>
        <time>2011-07-16T14:07:23Z</time>
      </trkpt>
      <trkpt lat="43.75301" lon="7.00554">
        <ele>567</ele>
        <time>2011-07-16T14:07:24Z</time>
      </trkpt>
      <trkpt lat="43.75299" lon="7.00556">
        <ele>567</ele>
        <time>2011-07-16T14:07:25Z</time>
      </trkpt>
      <trkpt lat="43.75297" lon="7.00558">
        <ele>567</ele>
        <time>2011-07-16T14:07:26Z</time>
      </trkpt>
      <trkpt lat="43.75295" lon="7.0056">
        <ele>567</ele>
        <time>2011-07-16T14:07:27Z</time>
      </trkpt>
      <trkpt lat="43.75293" lon="7.00562">
        <ele>567</ele>
        <time>2011-07-16T14:07:28Z</time>
      </trkpt>
      <trkpt lat="43.75291" lon="7.00564">
        <ele>567</ele>
        <time>2011-07-16T14:07:29Z</time>
      </trkpt>
      <trkpt lat="43.75289" lon="7.00566">
        <ele>567</ele>
        <time>2011-07-16T14:07:30Z</time>
      </trkpt>
      <trkpt lat="43.75287" lon="7.00567">
        <ele>568</ele>
        <time>2011-07-16T14:07:31Z</time>
      </trkpt>
      <trkpt lat="43.75286" lon="7.00569">
        <ele>568</ele>
        <time>2011-07-16T14:07:32Z</time>
      </trkpt>
      <trkpt lat="43.75283" lon="7.0057">
        <ele>568</ele>
        <time>2011-07-16T14:07:33Z</time>
      </trkpt>
      <trkpt lat="43.75281" lon="7.00572">
        <ele>568</ele>
        <time>2011-07-16T14:07:34Z</time>
      </trkpt>
      <trkpt lat="43.75279" lon="7.00574">
        <ele>568</ele>
        <time>2011-07-16T14:07:35Z</time>
      </trkpt>
      <trkpt lat="43.75277" lon="7.00575">
        <ele>568</ele>
        <time>2011-07-16T14:07:36Z</time>
      </trkpt>
      <trkpt lat="43.75273" lon="7.00579">
        <ele>568</ele>
        <time>2011-07-16T14:07:38Z</time>
      </trkpt>
      <trkpt lat="43.75271" lon="7.0058">
        <ele>568</ele>
        <time>2011-07-16T14:07:39Z</time>
      </trkpt>
      <trkpt lat="43.75269" lon="7.00582">
        <ele>568</ele>
        <time>2011-07-16T14:07:40Z</time>
      </trkpt>
      <trkpt lat="43.75267" lon="7.00583">
        <ele>568</ele>
        <time>2011-07-16T14:07:41Z</time>
      </trkpt>
      <trkpt lat="43.75265" lon="7.00585">
        <ele>568</ele>
        <time>2011-07-16T14:07:42Z</time>
      </trkpt>
      <trkpt lat="43.75263" lon="7.00586">
        <ele>569</ele>
        <time>2011-07-16T14:07:43Z</time>
      </trkpt>
      <trkpt lat="43.75261" lon="7.00588">
        <ele>569</ele>
        <time>2011-07-16T14:07:44Z</time>
      </trkpt>
      <trkpt lat="43.75259" lon="7.00589">
        <ele>569</ele>
        <time>2011-07-16T14:07:45Z</time>
      </trkpt>
      <trkpt lat="43.75257" lon="7.0059">
        <ele>569</ele>
        <time>2011-07-16T14:07:46Z</time>
      </trkpt>
      <trkpt lat="43.75255" lon="7.00591">
        <ele>569</ele>
        <time>2011-07-16T14:07:47Z</time>
      </trkpt>
      <trkpt lat="43.75251" lon="7.00594">
        <ele>569</ele>
        <time>2011-07-16T14:07:49Z</time>
      </trkpt>
      <trkpt lat="43.75248" lon="7.00595">
        <ele>569</ele>
        <time>2011-07-16T14:07:50Z</time>
      </trkpt>
      <trkpt lat="43.75247" lon="7.00597">
        <ele>570</ele>
        <time>2011-07-16T14:07:51Z</time>
      </trkpt>
      <trkpt lat="43.75244" lon="7.00598">
        <ele>570</ele>
        <time>2011-07-16T14:07:52Z</time>
      </trkpt>
      <trkpt lat="43.75242" lon="7.00599">
        <ele>570</ele>
        <time>2011-07-16T14:07:53Z</time>
      </trkpt>
      <trkpt lat="43.75238" lon="7.00602">
        <ele>570</ele>
        <time>2011-07-16T14:07:55Z</time>
      </trkpt>
      <trkpt lat="43.75236" lon="7.00603">
        <ele>570</ele>
        <time>2011-07-16T14:07:56Z</time>
      </trkpt>
      <trkpt lat="43.75233" lon="7.00605">
        <ele>570</ele>
        <time>2011-07-16T14:07:57Z</time>
      </trkpt>
      <trkpt lat="43.75231" lon="7.00606">
        <ele>570</ele>
        <time>2011-07-16T14:07:58Z</time>
      </trkpt>
      <trkpt lat="43.75227" lon="7.00609">
        <ele>570</ele>
        <time>2011-07-16T14:08:00Z</time>
      </trkpt>
      <trkpt lat="43.75225" lon="7.0061">
        <ele>570</ele>
        <time>2011-07-16T14:08:01Z</time>
      </trkpt>
      <trkpt lat="43.75223" lon="7.00612">
        <ele>570</ele>
        <time>2011-07-16T14:08:02Z</time>
      </trkpt>
      <trkpt lat="43.7522" lon="7.00613">
        <ele>570</ele>
        <time>2011-07-16T14:08:03Z</time>
      </trkpt>
      <trkpt lat="43.75218" lon="7.00615">
        <ele>570</ele>
        <time>2011-07-16T14:08:04Z</time>
      </trkpt>
      <trkpt lat="43.75216" lon="7.00616">
        <ele>571</ele>
        <time>2011-07-16T14:08:05Z</time>
      </trkpt>
      <trkpt lat="43.75212" lon="7.00619">
        <ele>571</ele>
        <time>2011-07-16T14:08:07Z</time>
      </trkpt>
      <trkpt lat="43.7521" lon="7.00621">
        <ele>571</ele>
        <time>2011-07-16T14:08:08Z</time>
      </trkpt>
      <trkpt lat="43.75208" lon="7.00622">
        <ele>571</ele>
        <time>2011-07-16T14:08:09Z</time>
      </trkpt>
      <trkpt lat="43.75206" lon="7.00623">
        <ele>571</ele>
        <time>2011-07-16T14:08:10Z</time>
      </trkpt>
      <trkpt lat="43.75203" lon="7.00625">
        <ele>571</ele>
        <time>2011-07-16T14:08:11Z</time>
      </trkpt>
      <trkpt lat="43.75201" lon="7.00626">
        <ele>571</ele>
        <time>2011-07-16T14:08:12Z</time>
      </trkpt>
      <trkpt lat="43.75199" lon="7.00627">
        <ele>572</ele>
        <time>2011-07-16T14:08:13Z</time>
      </trkpt>
      <trkpt lat="43.75195" lon="7.0063">
        <ele>572</ele>
        <time>2011-07-16T14:08:15Z</time>
      </trkpt>
      <trkpt lat="43.75192" lon="7.00631">
        <ele>572</ele>
        <time>2011-07-16T14:08:16Z</time>
      </trkpt>
      <trkpt lat="43.7519" lon="7.00633">
        <ele>572</ele>
        <time>2011-07-16T14:08:17Z</time>
      </trkpt>
      <trkpt lat="43.75188" lon="7.00633">
        <ele>572</ele>
        <time>2011-07-16T14:08:18Z</time>
      </trkpt>
      <trkpt lat="43.75186" lon="7.00635">
        <ele>572</ele>
        <time>2011-07-16T14:08:19Z</time>
      </trkpt>
      <trkpt lat="43.75184" lon="7.00636">
        <ele>572</ele>
        <time>2011-07-16T14:08:20Z</time>
      </trkpt>
      <trkpt lat="43.75182" lon="7.00637">
        <ele>572</ele>
        <time>2011-07-16T14:08:21Z</time>
      </trkpt>
      <trkpt lat="43.7518" lon="7.00638">
        <ele>573</ele>
        <time>2011-07-16T14:08:22Z</time>
      </trkpt>
      <trkpt lat="43.75178" lon="7.00639">
        <ele>573</ele>
        <time>2011-07-16T14:08:23Z</time>
      </trkpt>
      <trkpt lat="43.75174" lon="7.00641">
        <ele>573</ele>
        <time>2011-07-16T14:08:25Z</time>
      </trkpt>
      <trkpt lat="43.75171" lon="7.00642">
        <ele>574</ele>
        <time>2011-07-16T14:08:26Z</time>
      </trkpt>
      <trkpt lat="43.75169" lon="7.00644">
        <ele>574</ele>
        <time>2011-07-16T14:08:27Z</time>
      </trkpt>
      <trkpt lat="43.75167" lon="7.00645">
        <ele>574</ele>
        <time>2011-07-16T14:08:28Z</time>
      </trkpt>
      <trkpt lat="43.75165" lon="7.00646">
        <ele>574</ele>
        <time>2011-07-16T14:08:29Z</time>
      </trkpt>
      <trkpt lat="43.75163" lon="7.00647">
        <ele>574</ele>
        <time>2011-07-16T14:08:30Z</time>
      </trkpt>
      <trkpt lat="43.7516" lon="7.00648">
        <ele>574</ele>
        <time>2011-07-16T14:08:31Z</time>
      </trkpt>
      <trkpt lat="43.75158" lon="7.00649">
        <ele>574</ele>
        <time>2011-07-16T14:08:32Z</time>
      </trkpt>
      <trkpt lat="43.75156" lon="7.0065">
        <ele>575</ele>
        <time>2011-07-16T14:08:33Z</time>
      </trkpt>
      <trkpt lat="43.75154" lon="7.00652">
        <ele>575</ele>
        <time>2011-07-16T14:08:34Z</time>
      </trkpt>
      <trkpt lat="43.75152" lon="7.00653">
        <ele>575</ele>
        <time>2011-07-16T14:08:35Z</time>
      </trkpt>
      <trkpt lat="43.7515" lon="7.00654">
        <ele>575</ele>
        <time>2011-07-16T14:08:36Z</time>
      </trkpt>
      <trkpt lat="43.75148" lon="7.00655">
        <ele>575</ele>
        <time>2011-07-16T14:08:37Z</time>
      </trkpt>
      <trkpt lat="43.75146" lon="7.00656">
        <ele>575</ele>
        <time>2011-07-16T14:08:38Z</time>
      </trkpt>
      <trkpt lat="43.75143" lon="7.00657">
        <ele>575</ele>
        <time>2011-07-16T14:08:39Z</time>
      </trkpt>
      <trkpt lat="43.75141" lon="7.00658">
        <ele>575</ele>
        <time>2011-07-16T14:08:40Z</time>
      </trkpt>
      <trkpt lat="43.75139" lon="7.0066">
        <ele>575</ele>
        <time>2011-07-16T14:08:41Z</time>
      </trkpt>
      <trkpt lat="43.75137" lon="7.00661">
        <ele>576</ele>
        <time>2011-07-16T14:08:42Z</time>
      </trkpt>
      <trkpt lat="43.75135" lon="7.00662">
        <ele>576</ele>
        <time>2011-07-16T14:08:43Z</time>
      </trkpt>
      <trkpt lat="43.75133" lon="7.00663">
        <ele>576</ele>
        <time>2011-07-16T14:08:44Z</time>
      </trkpt>
      <trkpt lat="43.7513" lon="7.00664">
        <ele>576</ele>
        <time>2011-07-16T14:08:45Z</time>
      </trkpt>
      <trkpt lat="43.75128" lon="7.00665">
        <ele>576</ele>
        <time>2011-07-16T14:08:46Z</time>
      </trkpt>
      <trkpt lat="43.75126" lon="7.00667">
        <ele>577</ele>
        <time>2011-07-16T14:08:47Z</time>
      </trkpt>
      <trkpt lat="43.75123" lon="7.00668">
        <ele>577</ele>
        <time>2011-07-16T14:08:48Z</time>
      </trkpt>
      <trkpt lat="43.75121" lon="7.00669">
        <ele>577</ele>
        <time>2011-07-16T14:08:49Z</time>
      </trkpt>
      <trkpt lat="43.75119" lon="7.0067">
        <ele>577</ele>
        <time>2011-07-16T14:08:50Z</time>
      </trkpt>
      <trkpt lat="43.75117" lon="7.00672">
        <ele>577</ele>
        <time>2011-07-16T14:08:51Z</time>
      </trkpt>
      <trkpt lat="43.75115" lon="7.00673">
        <ele>577</ele>
        <time>2011-07-16T14:08:52Z</time>
      </trkpt>
      <trkpt lat="43.75108" lon="7.00676">
        <ele>577</ele>
        <time>2011-07-16T14:08:55Z</time>
      </trkpt>
      <trkpt lat="43.75105" lon="7.00676">
        <ele>577</ele>
        <time>2011-07-16T14:08:56Z</time>
      </trkpt>
      <trkpt lat="43.75103" lon="7.00677">
        <ele>577</ele>
        <time>2011-07-16T14:08:57Z</time>
      </trkpt>
      <trkpt lat="43.75098" lon="7.00679">
        <ele>578</ele>
        <time>2011-07-16T14:08:59Z</time>
      </trkpt>
      <trkpt lat="43.75096" lon="7.00679">
        <ele>578</ele>
        <time>2011-07-16T14:09:00Z</time>
      </trkpt>
      <trkpt lat="43.75094" lon="7.0068">
        <ele>579</ele>
        <time>2011-07-16T14:09:01Z</time>
      </trkpt>
      <trkpt lat="43.75091" lon="7.00681">
        <ele>579</ele>
        <time>2011-07-16T14:09:02Z</time>
      </trkpt>
      <trkpt lat="43.75089" lon="7.00681">
        <ele>579</ele>
        <time>2011-07-16T14:09:03Z</time>
      </trkpt>
      <trkpt lat="43.75087" lon="7.00682">
        <ele>579</ele>
        <time>2011-07-16T14:09:04Z</time>
      </trkpt>
      <trkpt lat="43.75084" lon="7.00683">
        <ele>579</ele>
        <time>2011-07-16T14:09:05Z</time>
      </trkpt>
      <trkpt lat="43.75082" lon="7.00683">
        <ele>579</ele>
        <time>2011-07-16T14:09:06Z</time>
      </trkpt>
      <trkpt lat="43.7508" lon="7.00684">
        <ele>579</ele>
        <time>2011-07-16T14:09:07Z</time>
      </trkpt>
      <trkpt lat="43.75077" lon="7.00684">
        <ele>580</ele>
        <time>2011-07-16T14:09:08Z</time>
      </trkpt>
      <trkpt lat="43.75075" lon="7.00685">
        <ele>580</ele>
        <time>2011-07-16T14:09:09Z</time>
      </trkpt>
      <trkpt lat="43.7507" lon="7.00686">
        <ele>580</ele>
        <time>2011-07-16T14:09:11Z</time>
      </trkpt>
      <trkpt lat="43.75068" lon="7.00687">
        <ele>580</ele>
        <time>2011-07-16T14:09:12Z</time>
      </trkpt>
      <trkpt lat="43.75066" lon="7.00687">
        <ele>580</ele>
        <time>2011-07-16T14:09:13Z</time>
      </trkpt>
      <trkpt lat="43.75063" lon="7.00687">
        <ele>580</ele>
        <time>2011-07-16T14:09:14Z</time>
      </trkpt>
      <trkpt lat="43.75061" lon="7.00688">
        <ele>580</ele>
        <time>2011-07-16T14:09:15Z</time>
      </trkpt>
      <trkpt lat="43.75059" lon="7.00688">
        <ele>581</ele>
        <time>2011-07-16T14:09:16Z</time>
      </trkpt>
      <trkpt lat="43.75057" lon="7.00689">
        <ele>581</ele>
        <time>2011-07-16T14:09:17Z</time>
      </trkpt>
      <trkpt lat="43.75053" lon="7.0069">
        <ele>581</ele>
        <time>2011-07-16T14:09:19Z</time>
      </trkpt>
      <trkpt lat="43.75051" lon="7.00691">
        <ele>581</ele>
        <time>2011-07-16T14:09:20Z</time>
      </trkpt>
      <trkpt lat="43.75048" lon="7.00691">
        <ele>581</ele>
        <time>2011-07-16T14:09:21Z</time>
      </trkpt>
      <trkpt lat="43.75045" lon="7.00692">
        <ele>581</ele>
        <time>2011-07-16T14:09:22Z</time>
      </trkpt>
      <trkpt lat="43.75043" lon="7.00693">
        <ele>581</ele>
        <time>2011-07-16T14:09:23Z</time>
      </trkpt>
      <trkpt lat="43.75041" lon="7.00693">
        <ele>581</ele>
        <time>2011-07-16T14:09:24Z</time>
      </trkpt>
      <trkpt lat="43.75038" lon="7.00694">
        <ele>581</ele>
        <time>2011-07-16T14:09:25Z</time>
      </trkpt>
      <trkpt lat="43.75036" lon="7.00694">
        <ele>581</ele>
        <time>2011-07-16T14:09:26Z</time>
      </trkpt>
      <trkpt lat="43.75034" lon="7.00695">
        <ele>581</ele>
        <time>2011-07-16T14:09:27Z</time>
      </trkpt>
      <trkpt lat="43.75031" lon="7.00695">
        <ele>581</ele>
        <time>2011-07-16T14:09:28Z</time>
      </trkpt>
      <trkpt lat="43.75029" lon="7.00695">
        <ele>581</ele>
        <time>2011-07-16T14:09:29Z</time>
      </trkpt>
      <trkpt lat="43.75026" lon="7.00696">
        <ele>581</ele>
        <time>2011-07-16T14:09:30Z</time>
      </trkpt>
      <trkpt lat="43.75024" lon="7.00696">
        <ele>581</ele>
        <time>2011-07-16T14:09:31Z</time>
      </trkpt>
      <trkpt lat="43.75021" lon="7.00697">
        <ele>581</ele>
        <time>2011-07-16T14:09:32Z</time>
      </trkpt>
      <trkpt lat="43.75019" lon="7.00698">
        <ele>581</ele>
        <time>2011-07-16T14:09:33Z</time>
      </trkpt>
      <trkpt lat="43.75017" lon="7.00699">
        <ele>581</ele>
        <time>2011-07-16T14:09:34Z</time>
      </trkpt>
      <trkpt lat="43.75014" lon="7.00699">
        <ele>581</ele>
        <time>2011-07-16T14:09:35Z</time>
      </trkpt>
      <trkpt lat="43.7501" lon="7.00701">
        <ele>580</ele>
        <time>2011-07-16T14:09:37Z</time>
      </trkpt>
      <trkpt lat="43.75007" lon="7.00702">
        <ele>580</ele>
        <time>2011-07-16T14:09:38Z</time>
      </trkpt>
      <trkpt lat="43.75005" lon="7.00702">
        <ele>580</ele>
        <time>2011-07-16T14:09:39Z</time>
      </trkpt>
      <trkpt lat="43.75003" lon="7.00703">
        <ele>580</ele>
        <time>2011-07-16T14:09:40Z</time>
      </trkpt>
      <trkpt lat="43.75" lon="7.00704">
        <ele>581</ele>
        <time>2011-07-16T14:09:41Z</time>
      </trkpt>
      <trkpt lat="43.74998" lon="7.00704">
        <ele>581</ele>
        <time>2011-07-16T14:09:42Z</time>
      </trkpt>
      <trkpt lat="43.74995" lon="7.00705">
        <ele>581</ele>
        <time>2011-07-16T14:09:43Z</time>
      </trkpt>
      <trkpt lat="43.74993" lon="7.00705">
        <ele>581</ele>
        <time>2011-07-16T14:09:44Z</time>
      </trkpt>
      <trkpt lat="43.7499" lon="7.00706">
        <ele>581</ele>
        <time>2011-07-16T14:09:45Z</time>
      </trkpt>
      <trkpt lat="43.74988" lon="7.00706">
        <ele>581</ele>
        <time>2011-07-16T14:09:46Z</time>
      </trkpt>
      <trkpt lat="43.74986" lon="7.00707">
        <ele>581</ele>
        <time>2011-07-16T14:09:47Z</time>
      </trkpt>
      <trkpt lat="43.74983" lon="7.00707">
        <ele>581</ele>
        <time>2011-07-16T14:09:48Z</time>
      </trkpt>
      <trkpt lat="43.74978" lon="7.00707">
        <ele>581</ele>
        <time>2011-07-16T14:09:50Z</time>
      </trkpt>
      <trkpt lat="43.74976" lon="7.00707">
        <ele>581</ele>
        <time>2011-07-16T14:09:51Z</time>
      </trkpt>
      <trkpt lat="43.74973" lon="7.00707">
        <ele>581</ele>
        <time>2011-07-16T14:09:52Z</time>
      </trkpt>
      <trkpt lat="43.74971" lon="7.00707">
        <ele>581</ele>
        <time>2011-07-16T14:09:53Z</time>
      </trkpt>
      <trkpt lat="43.74968" lon="7.00707">
        <ele>581</ele>
        <time>2011-07-16T14:09:54Z</time>
      </trkpt>
      <trkpt lat="43.74964" lon="7.00706">
        <ele>581</ele>
        <time>2011-07-16T14:09:56Z</time>
      </trkpt>
      <trkpt lat="43.74961" lon="7.00705">
        <ele>581</ele>
        <time>2011-07-16T14:09:57Z</time>
      </trkpt>
      <trkpt lat="43.74959" lon="7.00705">
        <ele>581</ele>
        <time>2011-07-16T14:09:58Z</time>
      </trkpt>
      <trkpt lat="43.74957" lon="7.00704">
        <ele>582</ele>
        <time>2011-07-16T14:09:59Z</time>
      </trkpt>
      <trkpt lat="43.74954" lon="7.00703">
        <ele>582</ele>
        <time>2011-07-16T14:10:00Z</time>
      </trkpt>
      <trkpt lat="43.74952" lon="7.00702">
        <ele>582</ele>
        <time>2011-07-16T14:10:01Z</time>
      </trkpt>
      <trkpt lat="43.7495" lon="7.00701">
        <ele>582</ele>
        <time>2011-07-16T14:10:02Z</time>
      </trkpt>
      <trkpt lat="43.74947" lon="7.007">
        <ele>582</ele>
        <time>2011-07-16T14:10:03Z</time>
      </trkpt>
      <trkpt lat="43.74945" lon="7.007">
        <ele>582</ele>
        <time>2011-07-16T14:10:04Z</time>
      </trkpt>
      <trkpt lat="43.74943" lon="7.00699">
        <ele>582</ele>
        <time>2011-07-16T14:10:05Z</time>
      </trkpt>
      <trkpt lat="43.7494" lon="7.007">
        <ele>582</ele>
        <time>2011-07-16T14:10:06Z</time>
      </trkpt>
      <trkpt lat="43.74938" lon="7.007">
        <ele>582</ele>
        <time>2011-07-16T14:10:07Z</time>
      </trkpt>
      <trkpt lat="43.74936" lon="7.00701">
        <ele>582</ele>
        <time>2011-07-16T14:10:08Z</time>
      </trkpt>
      <trkpt lat="43.74934" lon="7.00702">
        <ele>583</ele>
        <time>2011-07-16T14:10:09Z</time>
      </trkpt>
      <trkpt lat="43.74931" lon="7.00704">
        <ele>583</ele>
        <time>2011-07-16T14:10:10Z</time>
      </trkpt>
      <trkpt lat="43.7493" lon="7.00705">
        <ele>583</ele>
        <time>2011-07-16T14:10:11Z</time>
      </trkpt>
      <trkpt lat="43.74928" lon="7.00706">
        <ele>583</ele>
        <time>2011-07-16T14:10:12Z</time>
      </trkpt>
      <trkpt lat="43.74926" lon="7.00708">
        <ele>584</ele>
        <time>2011-07-16T14:10:13Z</time>
      </trkpt>
      <trkpt lat="43.74925" lon="7.00709">
        <ele>584</ele>
        <time>2011-07-16T14:10:14Z</time>
      </trkpt>
      <trkpt lat="43.74923" lon="7.00711">
        <ele>584</ele>
        <time>2011-07-16T14:10:15Z</time>
      </trkpt>
      <trkpt lat="43.74921" lon="7.00712">
        <ele>585</ele>
        <time>2011-07-16T14:10:16Z</time>
      </trkpt>
      <trkpt lat="43.74919" lon="7.00713">
        <ele>585</ele>
        <time>2011-07-16T14:10:17Z</time>
      </trkpt>
      <trkpt lat="43.74917" lon="7.00715">
        <ele>585</ele>
        <time>2011-07-16T14:10:18Z</time>
      </trkpt>
      <trkpt lat="43.74915" lon="7.00716">
        <ele>585</ele>
        <time>2011-07-16T14:10:19Z</time>
      </trkpt>
      <trkpt lat="43.74913" lon="7.00718">
        <ele>585</ele>
        <time>2011-07-16T14:10:20Z</time>
      </trkpt>
      <trkpt lat="43.74909" lon="7.00719">
        <ele>585</ele>
        <time>2011-07-16T14:10:22Z</time>
      </trkpt>
      <trkpt lat="43.74906" lon="7.0072">
        <ele>585</ele>
        <time>2011-07-16T14:10:23Z</time>
      </trkpt>
      <trkpt lat="43.74904" lon="7.00721">
        <ele>585</ele>
        <time>2011-07-16T14:10:24Z</time>
      </trkpt>
      <trkpt lat="43.74902" lon="7.00722">
        <ele>585</ele>
        <time>2011-07-16T14:10:25Z</time>
      </trkpt>
      <trkpt lat="43.749" lon="7.00722">
        <ele>586</ele>
        <time>2011-07-16T14:10:26Z</time>
      </trkpt>
      <trkpt lat="43.74897" lon="7.00723">
        <ele>586</ele>
        <time>2011-07-16T14:10:27Z</time>
      </trkpt>
      <trkpt lat="43.74895" lon="7.00723">
        <ele>586</ele>
        <time>2011-07-16T14:10:28Z</time>
      </trkpt>
      <trkpt lat="43.74892" lon="7.00723">
        <ele>586</ele>
        <time>2011-07-16T14:10:29Z</time>
      </trkpt>
      <trkpt lat="43.74889" lon="7.00724">
        <ele>586</ele>
        <time>2011-07-16T14:10:30Z</time>
      </trkpt>
      <trkpt lat="43.74884" lon="7.00724">
        <ele>586</ele>
        <time>2011-07-16T14:10:32Z</time>
      </trkpt>
      <trkpt lat="43.74882" lon="7.00723">
        <ele>586</ele>
        <time>2011-07-16T14:10:33Z</time>
      </trkpt>
      <trkpt lat="43.74879" lon="7.00723">
        <ele>586</ele>
        <time>2011-07-16T14:10:34Z</time>
      </trkpt>
      <trkpt lat="43.74877" lon="7.00724">
        <ele>586</ele>
        <time>2011-07-16T14:10:35Z</time>
      </trkpt>
      <trkpt lat="43.74874" lon="7.00724">
        <ele>586</ele>
        <time>2011-07-16T14:10:36Z</time>
      </trkpt>
      <trkpt lat="43.74872" lon="7.00725">
        <ele>586</ele>
        <time>2011-07-16T14:10:37Z</time>
      </trkpt>
      <trkpt lat="43.74871" lon="7.00727">
        <ele>587</ele>
        <time>2011-07-16T14:10:38Z</time>
      </trkpt>
      <trkpt lat="43.74869" lon="7.00729">
        <ele>587</ele>
        <time>2011-07-16T14:10:39Z</time>
      </trkpt>
      <trkpt lat="43.74868" lon="7.00731">
        <ele>587</ele>
        <time>2011-07-16T14:10:40Z</time>
      </trkpt>
      <trkpt lat="43.74867" lon="7.00733">
        <ele>588</ele>
        <time>2011-07-16T14:10:41Z</time>
      </trkpt>
      <trkpt lat="43.74864" lon="7.00738">
        <ele>588</ele>
        <time>2011-07-16T14:10:43Z</time>
      </trkpt>
      <trkpt lat="43.74863" lon="7.00741">
        <ele>589</ele>
        <time>2011-07-16T14:10:44Z</time>
      </trkpt>
      <trkpt lat="43.74861" lon="7.00743">
        <ele>589</ele>
        <time>2011-07-16T14:10:45Z</time>
      </trkpt>
      <trkpt lat="43.7486" lon="7.00745">
        <ele>589</ele>
        <time>2011-07-16T14:10:46Z</time>
      </trkpt>
      <trkpt lat="43.74858" lon="7.00748">
        <ele>589</ele>
        <time>2011-07-16T14:10:47Z</time>
      </trkpt>
      <trkpt lat="43.74856" lon="7.0075">
        <ele>590</ele>
        <time>2011-07-16T14:10:48Z</time>
      </trkpt>
      <trkpt lat="43.74854" lon="7.00753">
        <ele>590</ele>
        <time>2011-07-16T14:10:49Z</time>
      </trkpt>
      <trkpt lat="43.74853" lon="7.00756">
        <ele>590</ele>
        <time>2011-07-16T14:10:50Z</time>
      </trkpt>
      <trkpt lat="43.74853" lon="7.00759">
        <ele>591</ele>
        <time>2011-07-16T14:10:51Z</time>
      </trkpt>
      <trkpt lat="43.74853" lon="7.00763">
        <ele>591</ele>
        <time>2011-07-16T14:10:52Z</time>
      </trkpt>
      <trkpt lat="43.74853" lon="7.00766">
        <ele>591</ele>
        <time>2011-07-16T14:10:53Z</time>
      </trkpt>
      <trkpt lat="43.74853" lon="7.0077">
        <ele>591</ele>
        <time>2011-07-16T14:10:54Z</time>
      </trkpt>
      <trkpt lat="43.74854" lon="7.00774">
        <ele>591</ele>
        <time>2011-07-16T14:10:55Z</time>
      </trkpt>
      <trkpt lat="43.74855" lon="7.00777">
        <ele>592</ele>
        <time>2011-07-16T14:10:56Z</time>
      </trkpt>
      <trkpt lat="43.74856" lon="7.00781">
        <ele>592</ele>
        <time>2011-07-16T14:10:57Z</time>
      </trkpt>
      <trkpt lat="43.74857" lon="7.00785">
        <ele>592</ele>
        <time>2011-07-16T14:10:58Z</time>
      </trkpt>
      <trkpt lat="43.74858" lon="7.00788">
        <ele>592</ele>
        <time>2011-07-16T14:10:59Z</time>
      </trkpt>
      <trkpt lat="43.7486" lon="7.00792">
        <ele>592</ele>
        <time>2011-07-16T14:11:00Z</time>
      </trkpt>
      <trkpt lat="43.7486" lon="7.00796">
        <ele>592</ele>
        <time>2011-07-16T14:11:01Z</time>
      </trkpt>
      <trkpt lat="43.7486" lon="7.008">
        <ele>593</ele>
        <time>2011-07-16T14:11:02Z</time>
      </trkpt>
      <trkpt lat="43.74859" lon="7.00803">
        <ele>593</ele>
        <time>2011-07-16T14:11:03Z</time>
      </trkpt>
      <trkpt lat="43.74858" lon="7.00806">
        <ele>593</ele>
        <time>2011-07-16T14:11:04Z</time>
      </trkpt>
      <trkpt lat="43.74856" lon="7.00809">
        <ele>593</ele>
        <time>2011-07-16T14:11:05Z</time>
      </trkpt>
      <trkpt lat="43.74854" lon="7.00812">
        <ele>594</ele>
        <time>2011-07-16T14:11:06Z</time>
      </trkpt>
      <trkpt lat="43.74852" lon="7.00814">
        <ele>594</ele>
        <time>2011-07-16T14:11:07Z</time>
      </trkpt>
      <trkpt lat="43.7485" lon="7.00815">
        <ele>594</ele>
        <time>2011-07-16T14:11:08Z</time>
      </trkpt>
      <trkpt lat="43.74848" lon="7.00817">
        <ele>594</ele>
        <time>2011-07-16T14:11:09Z</time>
      </trkpt>
      <trkpt lat="43.74845" lon="7.00817">
        <ele>594</ele>
        <time>2011-07-16T14:11:10Z</time>
      </trkpt>
      <trkpt lat="43.74843" lon="7.00818">
        <ele>594</ele>
        <time>2011-07-16T14:11:11Z</time>
      </trkpt>
      <trkpt lat="43.7484" lon="7.00819">
        <ele>595</ele>
        <time>2011-07-16T14:11:12Z</time>
      </trkpt>
      <trkpt lat="43.74838" lon="7.0082">
        <ele>595</ele>
        <time>2011-07-16T14:11:13Z</time>
      </trkpt>
      <trkpt lat="43.74835" lon="7.00821">
        <ele>595</ele>
        <time>2011-07-16T14:11:14Z</time>
      </trkpt>
      <trkpt lat="43.74833" lon="7.00822">
        <ele>595</ele>
        <time>2011-07-16T14:11:15Z</time>
      </trkpt>
      <trkpt lat="43.7483" lon="7.00823">
        <ele>595</ele>
        <time>2011-07-16T14:11:16Z</time>
      </trkpt>
      <trkpt lat="43.74828" lon="7.00824">
        <ele>595</ele>
        <time>2011-07-16T14:11:17Z</time>
      </trkpt>
      <trkpt lat="43.74825" lon="7.00825">
        <ele>595</ele>
        <time>2011-07-16T14:11:18Z</time>
      </trkpt>
      <trkpt lat="43.74823" lon="7.00826">
        <ele>595</ele>
        <time>2011-07-16T14:11:19Z</time>
      </trkpt>
      <trkpt lat="43.7482" lon="7.00827">
        <ele>595</ele>
        <time>2011-07-16T14:11:20Z</time>
      </trkpt>
      <trkpt lat="43.74818" lon="7.00828">
        <ele>595</ele>
        <time>2011-07-16T14:11:21Z</time>
      </trkpt>
      <trkpt lat="43.74815" lon="7.00829">
        <ele>595</ele>
        <time>2011-07-16T14:11:22Z</time>
      </trkpt>
      <trkpt lat="43.74813" lon="7.00829">
        <ele>595</ele>
        <time>2011-07-16T14:11:23Z</time>
      </trkpt>
      <trkpt lat="43.7481" lon="7.0083">
        <ele>595</ele>
        <time>2011-07-16T14:11:24Z</time>
      </trkpt>
      <trkpt lat="43.74808" lon="7.0083">
        <ele>595</ele>
        <time>2011-07-16T14:11:25Z</time>
      </trkpt>
      <trkpt lat="43.74805" lon="7.0083">
        <ele>595</ele>
        <time>2011-07-16T14:11:26Z</time>
      </trkpt>
      <trkpt lat="43.74803" lon="7.0083">
        <ele>595</ele>
        <time>2011-07-16T14:11:27Z</time>
      </trkpt>
      <trkpt lat="43.748" lon="7.00829">
        <ele>595</ele>
        <time>2011-07-16T14:11:28Z</time>
      </trkpt>
      <trkpt lat="43.74798" lon="7.00828">
        <ele>595</ele>
        <time>2011-07-16T14:11:29Z</time>
      </trkpt>
      <trkpt lat="43.74795" lon="7.00828">
        <ele>595</ele>
        <time>2011-07-16T14:11:30Z</time>
      </trkpt>
      <trkpt lat="43.74793" lon="7.00827">
        <ele>595</ele>
        <time>2011-07-16T14:11:31Z</time>
      </trkpt>
      <trkpt lat="43.7479" lon="7.00826">
        <ele>595</ele>
        <time>2011-07-16T14:11:32Z</time>
      </trkpt>
      <trkpt lat="43.74788" lon="7.00826">
        <ele>595</ele>
        <time>2011-07-16T14:11:33Z</time>
      </trkpt>
      <trkpt lat="43.74786" lon="7.00825">
        <ele>596</ele>
        <time>2011-07-16T14:11:34Z</time>
      </trkpt>
      <trkpt lat="43.74783" lon="7.00824">
        <ele>596</ele>
        <time>2011-07-16T14:11:35Z</time>
      </trkpt>
      <trkpt lat="43.7478" lon="7.00823">
        <ele>596</ele>
        <time>2011-07-16T14:11:36Z</time>
      </trkpt>
      <trkpt lat="43.74778" lon="7.00822">
        <ele>596</ele>
        <time>2011-07-16T14:11:37Z</time>
      </trkpt>
      <trkpt lat="43.74776" lon="7.00821">
        <ele>596</ele>
        <time>2011-07-16T14:11:38Z</time>
      </trkpt>
      <trkpt lat="43.74773" lon="7.00821">
        <ele>596</ele>
        <time>2011-07-16T14:11:39Z</time>
      </trkpt>
      <trkpt lat="43.74771" lon="7.0082">
        <ele>596</ele>
        <time>2011-07-16T14:11:40Z</time>
      </trkpt>
      <trkpt lat="43.74766" lon="7.0082">
        <ele>596</ele>
        <time>2011-07-16T14:11:42Z</time>
      </trkpt>
      <trkpt lat="43.74763" lon="7.00821">
        <ele>596</ele>
        <time>2011-07-16T14:11:43Z</time>
      </trkpt>
      <trkpt lat="43.7476" lon="7.00821">
        <ele>595</ele>
        <time>2011-07-16T14:11:44Z</time>
      </trkpt>
      <trkpt lat="43.74758" lon="7.00822">
        <ele>595</ele>
        <time>2011-07-16T14:11:45Z</time>
      </trkpt>
      <trkpt lat="43.74756" lon="7.00824">
        <ele>596</ele>
        <time>2011-07-16T14:11:46Z</time>
      </trkpt>
      <trkpt lat="43.74754" lon="7.00825">
        <ele>596</ele>
        <time>2011-07-16T14:11:47Z</time>
      </trkpt>
      <trkpt lat="43.74752" lon="7.00827">
        <ele>596</ele>
        <time>2011-07-16T14:11:48Z</time>
      </trkpt>
      <trkpt lat="43.7475" lon="7.00828">
        <ele>596</ele>
        <time>2011-07-16T14:11:49Z</time>
      </trkpt>
      <trkpt lat="43.74748" lon="7.0083">
        <ele>596</ele>
        <time>2011-07-16T14:11:50Z</time>
      </trkpt>
      <trkpt lat="43.74744" lon="7.00833">
        <ele>596</ele>
        <time>2011-07-16T14:11:52Z</time>
      </trkpt>
      <trkpt lat="43.74743" lon="7.00834">
        <ele>596</ele>
        <time>2011-07-16T14:11:53Z</time>
      </trkpt>
      <trkpt lat="43.74741" lon="7.00835">
        <ele>597</ele>
        <time>2011-07-16T14:11:54Z</time>
      </trkpt>
      <trkpt lat="43.74739" lon="7.00837">
        <ele>597</ele>
        <time>2011-07-16T14:11:55Z</time>
      </trkpt>
      <trkpt lat="43.74737" lon="7.00838">
        <ele>597</ele>
        <time>2011-07-16T14:11:56Z</time>
      </trkpt>
      <trkpt lat="43.74735" lon="7.0084">
        <ele>597</ele>
        <time>2011-07-16T14:11:57Z</time>
      </trkpt>
      <trkpt lat="43.74734" lon="7.00842">
        <ele>597</ele>
        <time>2011-07-16T14:11:58Z</time>
      </trkpt>
      <trkpt lat="43.7473" lon="7.00845">
        <ele>598</ele>
        <time>2011-07-16T14:12:00Z</time>
      </trkpt>
      <trkpt lat="43.74728" lon="7.00847">
        <ele>598</ele>
        <time>2011-07-16T14:12:01Z</time>
      </trkpt>
      <trkpt lat="43.74727" lon="7.00849">
        <ele>598</ele>
        <time>2011-07-16T14:12:02Z</time>
      </trkpt>
      <trkpt lat="43.74725" lon="7.0085">
        <ele>598</ele>
        <time>2011-07-16T14:12:03Z</time>
      </trkpt>
      <trkpt lat="43.74723" lon="7.00852">
        <ele>598</ele>
        <time>2011-07-16T14:12:04Z</time>
      </trkpt>
      <trkpt lat="43.74721" lon="7.00854">
        <ele>598</ele>
        <time>2011-07-16T14:12:05Z</time>
      </trkpt>
      <trkpt lat="43.7472" lon="7.00856">
        <ele>598</ele>
        <time>2011-07-16T14:12:06Z</time>
      </trkpt>
      <trkpt lat="43.74718" lon="7.00858">
        <ele>599</ele>
        <time>2011-07-16T14:12:07Z</time>
      </trkpt>
      <trkpt lat="43.74716" lon="7.00859">
        <ele>599</ele>
        <time>2011-07-16T14:12:08Z</time>
      </trkpt>
      <trkpt lat="43.74714" lon="7.00861">
        <ele>599</ele>
        <time>2011-07-16T14:12:09Z</time>
      </trkpt>
      <trkpt lat="43.74712" lon="7.00863">
        <ele>599</ele>
        <time>2011-07-16T14:12:10Z</time>
      </trkpt>
      <trkpt lat="43.74711" lon="7.00865">
        <ele>599</ele>
        <time>2011-07-16T14:12:11Z</time>
      </trkpt>
      <trkpt lat="43.74709" lon="7.00866">
        <ele>599</ele>
        <time>2011-07-16T14:12:12Z</time>
      </trkpt>
      <trkpt lat="43.74707" lon="7.00868">
        <ele>600</ele>
        <time>2011-07-16T14:12:13Z</time>
      </trkpt>
      <trkpt lat="43.74705" lon="7.00869">
        <ele>600</ele>
        <time>2011-07-16T14:12:14Z</time>
      </trkpt>
      <trkpt lat="43.74702" lon="7.00873">
        <ele>600</ele>
        <time>2011-07-16T14:12:16Z</time>
      </trkpt>
      <trkpt lat="43.747" lon="7.00874">
        <ele>600</ele>
        <time>2011-07-16T14:12:17Z</time>
      </trkpt>
      <trkpt lat="43.74698" lon="7.00876">
        <ele>600</ele>
        <time>2011-07-16T14:12:18Z</time>
      </trkpt>
      <trkpt lat="43.74696" lon="7.00878">
        <ele>601</ele>
        <time>2011-07-16T14:12:19Z</time>
      </trkpt>
      <trkpt lat="43.74694" lon="7.00879">
        <ele>601</ele>
        <time>2011-07-16T14:12:20Z</time>
      </trkpt>
      <trkpt lat="43.74692" lon="7.00881">
        <ele>601</ele>
        <time>2011-07-16T14:12:21Z</time>
      </trkpt>
      <trkpt lat="43.7469" lon="7.00883">
        <ele>601</ele>
        <time>2011-07-16T14:12:22Z</time>
      </trkpt>
      <trkpt lat="43.74688" lon="7.00885">
        <ele>601</ele>
        <time>2011-07-16T14:12:23Z</time>
      </trkpt>
      <trkpt lat="43.74686" lon="7.00887">
        <ele>601</ele>
        <time>2011-07-16T14:12:24Z</time>
      </trkpt>
      <trkpt lat="43.74684" lon="7.00889">
        <ele>601</ele>
        <time>2011-07-16T14:12:25Z</time>
      </trkpt>
      <trkpt lat="43.74682" lon="7.00891">
        <ele>602</ele>
        <time>2011-07-16T14:12:26Z</time>
      </trkpt>
      <trkpt lat="43.7468" lon="7.00893">
        <ele>602</ele>
        <time>2011-07-16T14:12:27Z</time>
      </trkpt>
      <trkpt lat="43.74677" lon="7.00897">
        <ele>602</ele>
        <time>2011-07-16T14:12:29Z</time>
      </trkpt>
      <trkpt lat="43.74675" lon="7.00899">
        <ele>602</ele>
        <time>2011-07-16T14:12:30Z</time>
      </trkpt>
      <trkpt lat="43.74673" lon="7.00901">
        <ele>602</ele>
        <time>2011-07-16T14:12:31Z</time>
      </trkpt>
      <trkpt lat="43.74672" lon="7.00903">
        <ele>603</ele>
        <time>2011-07-16T14:12:32Z</time>
      </trkpt>
      <trkpt lat="43.7467" lon="7.00906">
        <ele>603</ele>
        <time>2011-07-16T14:12:33Z</time>
      </trkpt>
      <trkpt lat="43.74669" lon="7.00908">
        <ele>603</ele>
        <time>2011-07-16T14:12:34Z</time>
      </trkpt>
      <trkpt lat="43.74667" lon="7.00911">
        <ele>603</ele>
        <time>2011-07-16T14:12:35Z</time>
      </trkpt>
      <trkpt lat="43.74665" lon="7.00913">
        <ele>603</ele>
        <time>2011-07-16T14:12:36Z</time>
      </trkpt>
      <trkpt lat="43.74663" lon="7.00915">
        <ele>603</ele>
        <time>2011-07-16T14:12:37Z</time>
      </trkpt>
      <trkpt lat="43.74661" lon="7.00917">
        <ele>603</ele>
        <time>2011-07-16T14:12:38Z</time>
      </trkpt>
      <trkpt lat="43.74659" lon="7.00919">
        <ele>604</ele>
        <time>2011-07-16T14:12:39Z</time>
      </trkpt>
      <trkpt lat="43.74658" lon="7.00921">
        <ele>604</ele>
        <time>2011-07-16T14:12:40Z</time>
      </trkpt>
      <trkpt lat="43.74656" lon="7.00923">
        <ele>604</ele>
        <time>2011-07-16T14:12:41Z</time>
      </trkpt>
      <trkpt lat="43.74654" lon="7.00924">
        <ele>604</ele>
        <time>2011-07-16T14:12:42Z</time>
      </trkpt>
      <trkpt lat="43.74652" lon="7.00925">
        <ele>604</ele>
        <time>2011-07-16T14:12:43Z</time>
      </trkpt>
      <trkpt lat="43.7465" lon="7.00927">
        <ele>604</ele>
        <time>2011-07-16T14:12:44Z</time>
      </trkpt>
      <trkpt lat="43.74647" lon="7.00929">
        <ele>605</ele>
        <time>2011-07-16T14:12:46Z</time>
      </trkpt>
      <trkpt lat="43.74645" lon="7.0093">
        <ele>605</ele>
        <time>2011-07-16T14:12:47Z</time>
      </trkpt>
      <trkpt lat="43.74643" lon="7.00931">
        <ele>605</ele>
        <time>2011-07-16T14:12:48Z</time>
      </trkpt>
      <trkpt lat="43.74641" lon="7.00932">
        <ele>605</ele>
        <time>2011-07-16T14:12:49Z</time>
      </trkpt>
      <trkpt lat="43.74639" lon="7.00933">
        <ele>605</ele>
        <time>2011-07-16T14:12:50Z</time>
      </trkpt>
      <trkpt lat="43.74637" lon="7.00934">
        <ele>605</ele>
        <time>2011-07-16T14:12:51Z</time>
      </trkpt>
      <trkpt lat="43.74636" lon="7.00935">
        <ele>605</ele>
        <time>2011-07-16T14:12:52Z</time>
      </trkpt>
      <trkpt lat="43.74634" lon="7.00936">
        <ele>605</ele>
        <time>2011-07-16T14:12:53Z</time>
      </trkpt>
      <trkpt lat="43.74632" lon="7.00937">
        <ele>605</ele>
        <time>2011-07-16T14:12:54Z</time>
      </trkpt>
      <trkpt lat="43.7463" lon="7.00938">
        <ele>605</ele>
        <time>2011-07-16T14:12:55Z</time>
      </trkpt>
      <trkpt lat="43.74624" lon="7.00941">
        <ele>606</ele>
        <time>2011-07-16T14:12:58Z</time>
      </trkpt>
      <trkpt lat="43.74623" lon="7.00942">
        <ele>606</ele>
        <time>2011-07-16T14:12:59Z</time>
      </trkpt>
      <trkpt lat="43.74619" lon="7.00945">
        <ele>606</ele>
        <time>2011-07-16T14:13:01Z</time>
      </trkpt>
      <trkpt lat="43.74617" lon="7.00946">
        <ele>606</ele>
        <time>2011-07-16T14:13:02Z</time>
      </trkpt>
      <trkpt lat="43.74611" lon="7.00949">
        <ele>606</ele>
        <time>2011-07-16T14:13:05Z</time>
      </trkpt>
      <trkpt lat="43.74607" lon="7.00951">
        <ele>607</ele>
        <time>2011-07-16T14:13:07Z</time>
      </trkpt>
      <trkpt lat="43.74605" lon="7.00952">
        <ele>607</ele>
        <time>2011-07-16T14:13:08Z</time>
      </trkpt>
      <trkpt lat="43.74603" lon="7.00953">
        <ele>607</ele>
        <time>2011-07-16T14:13:09Z</time>
      </trkpt>
      <trkpt lat="43.74601" lon="7.00954">
        <ele>607</ele>
        <time>2011-07-16T14:13:10Z</time>
      </trkpt>
      <trkpt lat="43.74598" lon="7.00955">
        <ele>607</ele>
        <time>2011-07-16T14:13:11Z</time>
      </trkpt>
      <trkpt lat="43.74596" lon="7.00956">
        <ele>607</ele>
        <time>2011-07-16T14:13:12Z</time>
      </trkpt>
      <trkpt lat="43.74591" lon="7.00957">
        <ele>607</ele>
        <time>2011-07-16T14:13:14Z</time>
      </trkpt>
      <trkpt lat="43.74589" lon="7.00957">
        <ele>607</ele>
        <time>2011-07-16T14:13:15Z</time>
      </trkpt>
      <trkpt lat="43.74587" lon="7.00958">
        <ele>607</ele>
        <time>2011-07-16T14:13:16Z</time>
      </trkpt>
      <trkpt lat="43.74584" lon="7.00958">
        <ele>608</ele>
        <time>2011-07-16T14:13:17Z</time>
      </trkpt>
      <trkpt lat="43.74582" lon="7.00958">
        <ele>608</ele>
        <time>2011-07-16T14:13:18Z</time>
      </trkpt>
      <trkpt lat="43.7458" lon="7.00958">
        <ele>608</ele>
        <time>2011-07-16T14:13:19Z</time>
      </trkpt>
      <trkpt lat="43.74577" lon="7.00958">
        <ele>608</ele>
        <time>2011-07-16T14:13:20Z</time>
      </trkpt>
      <trkpt lat="43.74575" lon="7.00958">
        <ele>608</ele>
        <time>2011-07-16T14:13:21Z</time>
      </trkpt>
      <trkpt lat="43.74573" lon="7.00958">
        <ele>609</ele>
        <time>2011-07-16T14:13:22Z</time>
      </trkpt>
      <trkpt lat="43.74571" lon="7.00958">
        <ele>609</ele>
        <time>2011-07-16T14:13:23Z</time>
      </trkpt>
      <trkpt lat="43.74568" lon="7.00957">
        <ele>609</ele>
        <time>2011-07-16T14:13:24Z</time>
      </trkpt>
      <trkpt lat="43.74566" lon="7.00957">
        <ele>609</ele>
        <time>2011-07-16T14:13:25Z</time>
      </trkpt>
      <trkpt lat="43.74564" lon="7.00957">
        <ele>609</ele>
        <time>2011-07-16T14:13:26Z</time>
      </trkpt>
      <trkpt lat="43.74562" lon="7.00956">
        <ele>610</ele>
        <time>2011-07-16T14:13:27Z</time>
      </trkpt>
      <trkpt lat="43.7456" lon="7.00956">
        <ele>610</ele>
        <time>2011-07-16T14:13:28Z</time>
      </trkpt>
      <trkpt lat="43.74557" lon="7.00955">
        <ele>610</ele>
        <time>2011-07-16T14:13:29Z</time>
      </trkpt>
      <trkpt lat="43.74555" lon="7.00954">
        <ele>610</ele>
        <time>2011-07-16T14:13:30Z</time>
      </trkpt>
      <trkpt lat="43.74553" lon="7.00953">
        <ele>610</ele>
        <time>2011-07-16T14:13:31Z</time>
      </trkpt>
      <trkpt lat="43.74551" lon="7.00951">
        <ele>610</ele>
        <time>2011-07-16T14:13:32Z</time>
      </trkpt>
      <trkpt lat="43.74549" lon="7.0095">
        <ele>610</ele>
        <time>2011-07-16T14:13:33Z</time>
      </trkpt>
      <trkpt lat="43.74544" lon="7.00948">
        <ele>610</ele>
        <time>2011-07-16T14:13:35Z</time>
      </trkpt>
      <trkpt lat="43.74542" lon="7.00946">
        <ele>610</ele>
        <time>2011-07-16T14:13:36Z</time>
      </trkpt>
      <trkpt lat="43.7454" lon="7.00944">
        <ele>610</ele>
        <time>2011-07-16T14:13:37Z</time>
      </trkpt>
      <trkpt lat="43.74538" lon="7.00943">
        <ele>611</ele>
        <time>2011-07-16T14:13:38Z</time>
      </trkpt>
      <trkpt lat="43.74536" lon="7.00941">
        <ele>611</ele>
        <time>2011-07-16T14:13:39Z</time>
      </trkpt>
      <trkpt lat="43.74532" lon="7.00938">
        <ele>612</ele>
        <time>2011-07-16T14:13:41Z</time>
      </trkpt>
      <trkpt lat="43.74531" lon="7.00936">
        <ele>612</ele>
        <time>2011-07-16T14:13:42Z</time>
      </trkpt>
      <trkpt lat="43.74529" lon="7.00934">
        <ele>612</ele>
        <time>2011-07-16T14:13:43Z</time>
      </trkpt>
      <trkpt lat="43.74527" lon="7.00932">
        <ele>612</ele>
        <time>2011-07-16T14:13:44Z</time>
      </trkpt>
      <trkpt lat="43.74525" lon="7.0093">
        <ele>612</ele>
        <time>2011-07-16T14:13:45Z</time>
      </trkpt>
      <trkpt lat="43.74523" lon="7.00928">
        <ele>612</ele>
        <time>2011-07-16T14:13:46Z</time>
      </trkpt>
      <trkpt lat="43.74521" lon="7.00926">
        <ele>612</ele>
        <time>2011-07-16T14:13:47Z</time>
      </trkpt>
      <trkpt lat="43.74519" lon="7.00925">
        <ele>613</ele>
        <time>2011-07-16T14:13:48Z</time>
      </trkpt>
      <trkpt lat="43.74518" lon="7.00923">
        <ele>613</ele>
        <time>2011-07-16T14:13:49Z</time>
      </trkpt>
      <trkpt lat="43.74515" lon="7.00922">
        <ele>613</ele>
        <time>2011-07-16T14:13:50Z</time>
      </trkpt>
      <trkpt lat="43.74513" lon="7.00921">
        <ele>613</ele>
        <time>2011-07-16T14:13:51Z</time>
      </trkpt>
      <trkpt lat="43.74511" lon="7.00921">
        <ele>613</ele>
        <time>2011-07-16T14:13:52Z</time>
      </trkpt>
      <trkpt lat="43.74509" lon="7.0092">
        <ele>613</ele>
        <time>2011-07-16T14:13:53Z</time>
      </trkpt>
      <trkpt lat="43.74507" lon="7.0092">
        <ele>613</ele>
        <time>2011-07-16T14:13:54Z</time>
      </trkpt>
      <trkpt lat="43.74505" lon="7.00919">
        <ele>613</ele>
        <time>2011-07-16T14:13:55Z</time>
      </trkpt>
      <trkpt lat="43.74503" lon="7.00919">
        <ele>613</ele>
        <time>2011-07-16T14:13:56Z</time>
      </trkpt>
      <trkpt lat="43.74497" lon="7.00919">
        <ele>613</ele>
        <time>2011-07-16T14:13:59Z</time>
      </trkpt>
      <trkpt lat="43.74495" lon="7.00919">
        <ele>613</ele>
        <time>2011-07-16T14:14:00Z</time>
      </trkpt>
      <trkpt lat="43.74493" lon="7.00919">
        <ele>614</ele>
        <time>2011-07-16T14:14:01Z</time>
      </trkpt>
      <trkpt lat="43.74491" lon="7.00919">
        <ele>613</ele>
        <time>2011-07-16T14:14:02Z</time>
      </trkpt>
      <trkpt lat="43.74488" lon="7.00919">
        <ele>613</ele>
        <time>2011-07-16T14:14:03Z</time>
      </trkpt>
      <trkpt lat="43.74486" lon="7.00919">
        <ele>613</ele>
        <time>2011-07-16T14:14:04Z</time>
      </trkpt>
      <trkpt lat="43.74483" lon="7.00919">
        <ele>614</ele>
        <time>2011-07-16T14:14:05Z</time>
      </trkpt>
      <trkpt lat="43.74481" lon="7.00919">
        <ele>614</ele>
        <time>2011-07-16T14:14:06Z</time>
      </trkpt>
      <trkpt lat="43.74476" lon="7.00919">
        <ele>614</ele>
        <time>2011-07-16T14:14:08Z</time>
      </trkpt>
      <trkpt lat="43.74474" lon="7.00919">
        <ele>614</ele>
        <time>2011-07-16T14:14:09Z</time>
      </trkpt>
      <trkpt lat="43.74469" lon="7.00919">
        <ele>614</ele>
        <time>2011-07-16T14:14:11Z</time>
      </trkpt>
      <trkpt lat="43.74462" lon="7.00919">
        <ele>615</ele>
        <time>2011-07-16T14:14:14Z</time>
      </trkpt>
      <trkpt lat="43.7446" lon="7.00919">
        <ele>614</ele>
        <time>2011-07-16T14:14:15Z</time>
      </trkpt>
      <trkpt lat="43.74458" lon="7.00918">
        <ele>615</ele>
        <time>2011-07-16T14:14:16Z</time>
      </trkpt>
      <trkpt lat="43.74455" lon="7.00918">
        <ele>615</ele>
        <time>2011-07-16T14:14:17Z</time>
      </trkpt>
      <trkpt lat="43.74453" lon="7.00918">
        <ele>615</ele>
        <time>2011-07-16T14:14:18Z</time>
      </trkpt>
      <trkpt lat="43.74451" lon="7.00918">
        <ele>615</ele>
        <time>2011-07-16T14:14:19Z</time>
      </trkpt>
      <trkpt lat="43.74449" lon="7.00919">
        <ele>615</ele>
        <time>2011-07-16T14:14:20Z</time>
      </trkpt>
      <trkpt lat="43.74446" lon="7.00919">
        <ele>616</ele>
        <time>2011-07-16T14:14:21Z</time>
      </trkpt>
      <trkpt lat="43.74444" lon="7.00918">
        <ele>616</ele>
        <time>2011-07-16T14:14:22Z</time>
      </trkpt>
      <trkpt lat="43.74442" lon="7.00918">
        <ele>616</ele>
        <time>2011-07-16T14:14:23Z</time>
      </trkpt>
      <trkpt lat="43.74439" lon="7.00918">
        <ele>616</ele>
        <time>2011-07-16T14:14:24Z</time>
      </trkpt>
      <trkpt lat="43.74437" lon="7.00918">
        <ele>618</ele>
        <time>2011-07-16T14:14:25Z</time>
      </trkpt>
      <trkpt lat="43.74435" lon="7.00918">
        <ele>618</ele>
        <time>2011-07-16T14:14:26Z</time>
      </trkpt>
      <trkpt lat="43.74432" lon="7.00918">
        <ele>618</ele>
        <time>2011-07-16T14:14:27Z</time>
      </trkpt>
      <trkpt lat="43.7443" lon="7.00917">
        <ele>619</ele>
        <time>2011-07-16T14:14:28Z</time>
      </trkpt>
      <trkpt lat="43.74428" lon="7.00917">
        <ele>619</ele>
        <time>2011-07-16T14:14:29Z</time>
      </trkpt>
      <trkpt lat="43.74426" lon="7.00916">
        <ele>619</ele>
        <time>2011-07-16T14:14:30Z</time>
      </trkpt>
      <trkpt lat="43.74423" lon="7.00916">
        <ele>619</ele>
        <time>2011-07-16T14:14:31Z</time>
      </trkpt>
      <trkpt lat="43.74421" lon="7.00915">
        <ele>619</ele>
        <time>2011-07-16T14:14:32Z</time>
      </trkpt>
      <trkpt lat="43.74417" lon="7.00913">
        <ele>619</ele>
        <time>2011-07-16T14:14:34Z</time>
      </trkpt>
      <trkpt lat="43.74415" lon="7.00912">
        <ele>619</ele>
        <time>2011-07-16T14:14:35Z</time>
      </trkpt>
      <trkpt lat="43.74413" lon="7.00911">
        <ele>618</ele>
        <time>2011-07-16T14:14:36Z</time>
      </trkpt>
      <trkpt lat="43.74411" lon="7.0091">
        <ele>619</ele>
        <time>2011-07-16T14:14:37Z</time>
      </trkpt>
      <trkpt lat="43.74409" lon="7.00909">
        <ele>619</ele>
        <time>2011-07-16T14:14:38Z</time>
      </trkpt>
      <trkpt lat="43.74407" lon="7.00908">
        <ele>619</ele>
        <time>2011-07-16T14:14:39Z</time>
      </trkpt>
      <trkpt lat="43.74405" lon="7.00907">
        <ele>619</ele>
        <time>2011-07-16T14:14:40Z</time>
      </trkpt>
      <trkpt lat="43.74403" lon="7.00905">
        <ele>619</ele>
        <time>2011-07-16T14:14:41Z</time>
      </trkpt>
      <trkpt lat="43.74402" lon="7.00904">
        <ele>619</ele>
        <time>2011-07-16T14:14:42Z</time>
      </trkpt>
      <trkpt lat="43.744" lon="7.00903">
        <ele>619</ele>
        <time>2011-07-16T14:14:43Z</time>
      </trkpt>
      <trkpt lat="43.74398" lon="7.00903">
        <ele>620</ele>
        <time>2011-07-16T14:14:44Z</time>
      </trkpt>
      <trkpt lat="43.74396" lon="7.00902">
        <ele>620</ele>
        <time>2011-07-16T14:14:45Z</time>
      </trkpt>
      <trkpt lat="43.74394" lon="7.00901">
        <ele>620</ele>
        <time>2011-07-16T14:14:46Z</time>
      </trkpt>
      <trkpt lat="43.74393" lon="7.009">
        <ele>620</ele>
        <time>2011-07-16T14:14:47Z</time>
      </trkpt>
      <trkpt lat="43.74391" lon="7.00901">
        <ele>620</ele>
        <time>2011-07-16T14:14:48Z</time>
      </trkpt>
      <trkpt lat="43.74389" lon="7.00902">
        <ele>620</ele>
        <time>2011-07-16T14:14:49Z</time>
      </trkpt>
      <trkpt lat="43.74388" lon="7.00904">
        <ele>621</ele>
        <time>2011-07-16T14:14:50Z</time>
      </trkpt>
      <trkpt lat="43.74387" lon="7.00907">
        <ele>621</ele>
        <time>2011-07-16T14:14:51Z</time>
      </trkpt>
      <trkpt lat="43.74386" lon="7.00909">
        <ele>621</ele>
        <time>2011-07-16T14:14:52Z</time>
      </trkpt>
      <trkpt lat="43.74384" lon="7.00911">
        <ele>622</ele>
        <time>2011-07-16T14:14:53Z</time>
      </trkpt>
      <trkpt lat="43.74383" lon="7.00913">
        <ele>622</ele>
        <time>2011-07-16T14:14:54Z</time>
      </trkpt>
      <trkpt lat="43.74382" lon="7.00914">
        <ele>622</ele>
        <time>2011-07-16T14:14:55Z</time>
      </trkpt>
      <trkpt lat="43.74382" lon="7.00915">
        <ele>622</ele>
        <time>2011-07-16T14:14:56Z</time>
      </trkpt>
      <trkpt lat="43.74383" lon="7.00914">
        <ele>622</ele>
        <time>2011-07-16T14:14:58Z</time>
      </trkpt>
      <trkpt lat="43.74383" lon="7.00914">
        <ele>622</ele>
        <time>2011-07-16T14:14:59Z</time>
      </trkpt>
      <trkpt lat="43.74383" lon="7.00914">
        <ele>623</ele>
        <time>2011-07-16T14:15:00Z</time>
      </trkpt>
      <trkpt lat="43.74382" lon="7.00914">
        <ele>623</ele>
        <time>2011-07-16T14:15:01Z</time>
      </trkpt>
      <trkpt lat="43.74382" lon="7.00914">
        <ele>623</ele>
        <time>2011-07-16T14:15:02Z</time>
      </trkpt>
      <trkpt lat="43.74383" lon="7.00914">
        <ele>624</ele>
        <time>2011-07-16T14:15:04Z</time>
      </trkpt>
      <trkpt lat="43.74383" lon="7.00914">
        <ele>625</ele>
        <time>2011-07-16T14:18:24Z</time>
      </trkpt>
      <trkpt lat="43.74383" lon="7.00913">
        <ele>624</ele>
        <time>2011-07-16T14:18:35Z</time>
      </trkpt>
      <trkpt lat="43.74384" lon="7.00913">
        <ele>624</ele>
        <time>2011-07-16T14:18:36Z</time>
      </trkpt>
      <trkpt lat="43.74384" lon="7.00913">
        <ele>624</ele>
        <time>2011-07-16T14:18:37Z</time>
      </trkpt>
      <trkpt lat="43.74385" lon="7.00913">
        <ele>624</ele>
        <time>2011-07-16T14:19:38Z</time>
      </trkpt>
      <trkpt lat="43.74384" lon="7.00914">
        <ele>624</ele>
        <time>2011-07-16T14:19:48Z</time>
      </trkpt>
      <trkpt lat="43.74384" lon="7.00913">
        <ele>624</ele>
        <time>2011-07-16T14:20:07Z</time>
      </trkpt>
      <trkpt lat="43.74384" lon="7.00914">
        <ele>624</ele>
        <time>2011-07-16T14:20:08Z</time>
      </trkpt>
      <trkpt lat="43.74384" lon="7.00914">
        <ele>624</ele>
        <time>2011-07-16T14:20:12Z</time>
      </trkpt>
      <trkpt lat="43.74385" lon="7.00915">
        <ele>624</ele>
        <time>2011-07-16T14:20:13Z</time>
      </trkpt>
      <trkpt lat="43.74385" lon="7.00918">
        <ele>624</ele>
        <time>2011-07-16T14:20:14Z</time>
      </trkpt>
      <trkpt lat="43.74386" lon="7.0092">
        <ele>624</ele>
        <time>2011-07-16T14:20:15Z</time>
      </trkpt>
      <trkpt lat="43.74386" lon="7.00921">
        <ele>624</ele>
        <time>2011-07-16T14:20:16Z</time>
      </trkpt>
      <trkpt lat="43.74386" lon="7.00923">
        <ele>624</ele>
        <time>2011-07-16T14:20:17Z</time>
      </trkpt>
      <trkpt lat="43.74386" lon="7.00925">
        <ele>624</ele>
        <time>2011-07-16T14:20:18Z</time>
      </trkpt>
      <trkpt lat="43.74386" lon="7.00927">
        <ele>624</ele>
        <time>2011-07-16T14:20:19Z</time>
      </trkpt>
      <trkpt lat="43.74385" lon="7.00928">
        <ele>624</ele>
        <time>2011-07-16T14:20:20Z</time>
      </trkpt>
      <trkpt lat="43.74384" lon="7.00929">
        <ele>624</ele>
        <time>2011-07-16T14:20:21Z</time>
      </trkpt>
      <trkpt lat="43.74383" lon="7.00929">
        <ele>624</ele>
        <time>2011-07-16T14:20:22Z</time>
      </trkpt>
      <trkpt lat="43.74383" lon="7.0093">
        <ele>624</ele>
        <time>2011-07-16T14:20:23Z</time>
      </trkpt>
      <trkpt lat="43.74383" lon="7.00931">
        <ele>625</ele>
        <time>2011-07-16T14:20:32Z</time>
      </trkpt>
      <trkpt lat="43.74383" lon="7.00931">
        <ele>625</ele>
        <time>2011-07-16T14:20:33Z</time>
      </trkpt>
      <trkpt lat="43.74382" lon="7.00932">
        <ele>624</ele>
        <time>2011-07-16T14:20:34Z</time>
      </trkpt>
      <trkpt lat="43.74382" lon="7.00932">
        <ele>624</ele>
        <time>2011-07-16T14:20:35Z</time>
      </trkpt>
      <trkpt lat="43.74381" lon="7.00932">
        <ele>625</ele>
        <time>2011-07-16T14:20:36Z</time>
      </trkpt>
      <trkpt lat="43.74381" lon="7.00932">
        <ele>625</ele>
        <time>2011-07-16T14:20:37Z</time>
      </trkpt>
      <trkpt lat="43.74381" lon="7.00933">
        <ele>625</ele>
        <time>2011-07-16T14:20:38Z</time>
      </trkpt>
      <trkpt lat="43.74381" lon="7.00933">
        <ele>625</ele>
        <time>2011-07-16T14:20:39Z</time>
      </trkpt>
      <trkpt lat="43.74381" lon="7.00934">
        <ele>625</ele>
        <time>2011-07-16T14:20:40Z</time>
      </trkpt>
      <trkpt lat="43.7438" lon="7.00935">
        <ele>625</ele>
        <time>2011-07-16T14:20:42Z</time>
      </trkpt>
      <trkpt lat="43.7438" lon="7.00935">
        <ele>626</ele>
        <time>2011-07-16T14:20:43Z</time>
      </trkpt>
      <trkpt lat="43.74379" lon="7.00935">
        <ele>626</ele>
        <time>2011-07-16T14:20:44Z</time>
      </trkpt>
      <trkpt lat="43.74379" lon="7.00935">
        <ele>626</ele>
        <time>2011-07-16T14:20:48Z</time>
      </trkpt>
      <trkpt lat="43.74379" lon="7.00936">
        <ele>627</ele>
        <time>2011-07-16T14:20:49Z</time>
      </trkpt>
      <trkpt lat="43.74378" lon="7.00938">
        <ele>627</ele>
        <time>2011-07-16T14:20:50Z</time>
      </trkpt>
      <trkpt lat="43.74377" lon="7.00939">
        <ele>627</ele>
        <time>2011-07-16T14:20:51Z</time>
      </trkpt>
      <trkpt lat="43.74376" lon="7.00941">
        <ele>627</ele>
        <time>2011-07-16T14:20:52Z</time>
      </trkpt>
      <trkpt lat="43.74376" lon="7.00943">
        <ele>627</ele>
        <time>2011-07-16T14:20:53Z</time>
      </trkpt>
      <trkpt lat="43.74375" lon="7.00945">
        <ele>628</ele>
        <time>2011-07-16T14:20:54Z</time>
      </trkpt>
      <trkpt lat="43.74374" lon="7.00947">
        <ele>628</ele>
        <time>2011-07-16T14:20:55Z</time>
      </trkpt>
      <trkpt lat="43.74373" lon="7.00948">
        <ele>628</ele>
        <time>2011-07-16T14:20:56Z</time>
      </trkpt>
      <trkpt lat="43.74372" lon="7.0095">
        <ele>628</ele>
        <time>2011-07-16T14:20:57Z</time>
      </trkpt>
      <trkpt lat="43.74371" lon="7.00952">
        <ele>628</ele>
        <time>2011-07-16T14:20:58Z</time>
      </trkpt>
      <trkpt lat="43.7437" lon="7.00953">
        <ele>628</ele>
        <time>2011-07-16T14:20:59Z</time>
      </trkpt>
      <trkpt lat="43.74369" lon="7.00955">
        <ele>628</ele>
        <time>2011-07-16T14:21:00Z</time>
      </trkpt>
      <trkpt lat="43.74368" lon="7.00957">
        <ele>628</ele>
        <time>2011-07-16T14:21:01Z</time>
      </trkpt>
      <trkpt lat="43.74367" lon="7.00959">
        <ele>628</ele>
        <time>2011-07-16T14:21:02Z</time>
      </trkpt>
      <trkpt lat="43.74366" lon="7.00961">
        <ele>628</ele>
        <time>2011-07-16T14:21:03Z</time>
      </trkpt>
      <trkpt lat="43.74365" lon="7.00963">
        <ele>628</ele>
        <time>2011-07-16T14:21:04Z</time>
      </trkpt>
      <trkpt lat="43.74364" lon="7.00965">
        <ele>628</ele>
        <time>2011-07-16T14:21:05Z</time>
      </trkpt>
      <trkpt lat="43.74364" lon="7.00967">
        <ele>629</ele>
        <time>2011-07-16T14:21:06Z</time>
      </trkpt>
      <trkpt lat="43.74363" lon="7.00969">
        <ele>629</ele>
        <time>2011-07-16T14:21:07Z</time>
      </trkpt>
      <trkpt lat="43.74362" lon="7.0097">
        <ele>629</ele>
        <time>2011-07-16T14:21:08Z</time>
      </trkpt>
      <trkpt lat="43.7436" lon="7.00974">
        <ele>629</ele>
        <time>2011-07-16T14:21:10Z</time>
      </trkpt>
      <trkpt lat="43.74359" lon="7.00976">
        <ele>629</ele>
        <time>2011-07-16T14:21:11Z</time>
      </trkpt>
      <trkpt lat="43.74358" lon="7.00976">
        <ele>629</ele>
        <time>2011-07-16T14:21:12Z</time>
      </trkpt>
      <trkpt lat="43.74357" lon="7.00976">
        <ele>629</ele>
        <time>2011-07-16T14:21:13Z</time>
      </trkpt>
      <trkpt lat="43.74357" lon="7.00978">
        <ele>629</ele>
        <time>2011-07-16T14:21:14Z</time>
      </trkpt>
      <trkpt lat="43.74356" lon="7.00978">
        <ele>629</ele>
        <time>2011-07-16T14:21:15Z</time>
      </trkpt>
      <trkpt lat="43.74354" lon="7.00977">
        <ele>629</ele>
        <time>2011-07-16T14:21:16Z</time>
      </trkpt>
      <trkpt lat="43.74354" lon="7.00974">
        <ele>629</ele>
        <time>2011-07-16T14:21:17Z</time>
      </trkpt>
      <trkpt lat="43.74354" lon="7.00972">
        <ele>629</ele>
        <time>2011-07-16T14:21:18Z</time>
      </trkpt>
      <trkpt lat="43.74353" lon="7.0097">
        <ele>629</ele>
        <time>2011-07-16T14:21:19Z</time>
      </trkpt>
      <trkpt lat="43.74352" lon="7.0097">
        <ele>629</ele>
        <time>2011-07-16T14:21:20Z</time>
      </trkpt>
      <trkpt lat="43.74351" lon="7.00968">
        <ele>630</ele>
        <time>2011-07-16T14:21:21Z</time>
      </trkpt>
      <trkpt lat="43.7435" lon="7.00967">
        <ele>630</ele>
        <time>2011-07-16T14:21:22Z</time>
      </trkpt>
      <trkpt lat="43.74348" lon="7.00967">
        <ele>630</ele>
        <time>2011-07-16T14:21:23Z</time>
      </trkpt>
      <trkpt lat="43.74347" lon="7.00965">
        <ele>630</ele>
        <time>2011-07-16T14:21:24Z</time>
      </trkpt>
      <trkpt lat="43.74345" lon="7.00964">
        <ele>630</ele>
        <time>2011-07-16T14:21:25Z</time>
      </trkpt>
      <trkpt lat="43.74345" lon="7.00963">
        <ele>630</ele>
        <time>2011-07-16T14:21:26Z</time>
      </trkpt>
      <trkpt lat="43.74344" lon="7.00961">
        <ele>630</ele>
        <time>2011-07-16T14:21:27Z</time>
      </trkpt>
      <trkpt lat="43.74343" lon="7.0096">
        <ele>630</ele>
        <time>2011-07-16T14:21:28Z</time>
      </trkpt>
      <trkpt lat="43.74342" lon="7.00959">
        <ele>631</ele>
        <time>2011-07-16T14:21:29Z</time>
      </trkpt>
      <trkpt lat="43.7434" lon="7.00958">
        <ele>631</ele>
        <time>2011-07-16T14:21:30Z</time>
      </trkpt>
      <trkpt lat="43.74338" lon="7.00957">
        <ele>631</ele>
        <time>2011-07-16T14:21:31Z</time>
      </trkpt>
      <trkpt lat="43.74336" lon="7.00957">
        <ele>631</ele>
        <time>2011-07-16T14:21:32Z</time>
      </trkpt>
      <trkpt lat="43.74334" lon="7.00958">
        <ele>631</ele>
        <time>2011-07-16T14:21:33Z</time>
      </trkpt>
      <trkpt lat="43.74331" lon="7.00958">
        <ele>631</ele>
        <time>2011-07-16T14:21:35Z</time>
      </trkpt>
      <trkpt lat="43.74329" lon="7.00958">
        <ele>632</ele>
        <time>2011-07-16T14:21:36Z</time>
      </trkpt>
      <trkpt lat="43.74328" lon="7.00957">
        <ele>632</ele>
        <time>2011-07-16T14:21:37Z</time>
      </trkpt>
      <trkpt lat="43.74326" lon="7.00957">
        <ele>632</ele>
        <time>2011-07-16T14:21:38Z</time>
      </trkpt>
      <trkpt lat="43.74324" lon="7.00957">
        <ele>632</ele>
        <time>2011-07-16T14:21:39Z</time>
      </trkpt>
      <trkpt lat="43.74322" lon="7.00958">
        <ele>632</ele>
        <time>2011-07-16T14:21:40Z</time>
      </trkpt>
      <trkpt lat="43.74321" lon="7.00958">
        <ele>632</ele>
        <time>2011-07-16T14:21:41Z</time>
      </trkpt>
      <trkpt lat="43.74319" lon="7.00958">
        <ele>632</ele>
        <time>2011-07-16T14:21:42Z</time>
      </trkpt>
      <trkpt lat="43.74318" lon="7.00959">
        <ele>632</ele>
        <time>2011-07-16T14:21:43Z</time>
      </trkpt>
      <trkpt lat="43.74316" lon="7.0096">
        <ele>632</ele>
        <time>2011-07-16T14:21:44Z</time>
      </trkpt>
      <trkpt lat="43.74315" lon="7.0096">
        <ele>633</ele>
        <time>2011-07-16T14:21:45Z</time>
      </trkpt>
      <trkpt lat="43.74314" lon="7.0096">
        <ele>633</ele>
        <time>2011-07-16T14:21:46Z</time>
      </trkpt>
      <trkpt lat="43.74312" lon="7.0096">
        <ele>633</ele>
        <time>2011-07-16T14:21:47Z</time>
      </trkpt>
      <trkpt lat="43.74311" lon="7.00961">
        <ele>634</ele>
        <time>2011-07-16T14:21:48Z</time>
      </trkpt>
      <trkpt lat="43.7431" lon="7.00962">
        <ele>634</ele>
        <time>2011-07-16T14:21:49Z</time>
      </trkpt>
      <trkpt lat="43.74309" lon="7.00963">
        <ele>634</ele>
        <time>2011-07-16T14:21:50Z</time>
      </trkpt>
      <trkpt lat="43.74308" lon="7.00965">
        <ele>633</ele>
        <time>2011-07-16T14:21:51Z</time>
      </trkpt>
      <trkpt lat="43.74307" lon="7.00965">
        <ele>633</ele>
        <time>2011-07-16T14:21:52Z</time>
      </trkpt>
      <trkpt lat="43.74307" lon="7.00965">
        <ele>633</ele>
        <time>2011-07-16T14:21:53Z</time>
      </trkpt>
      <trkpt lat="43.74306" lon="7.00965">
        <ele>633</ele>
        <time>2011-07-16T14:21:54Z</time>
      </trkpt>
      <trkpt lat="43.74306" lon="7.00966">
        <ele>634</ele>
        <time>2011-07-16T14:21:55Z</time>
      </trkpt>
      <trkpt lat="43.74306" lon="7.00967">
        <ele>634</ele>
        <time>2011-07-16T14:21:56Z</time>
      </trkpt>
      <trkpt lat="43.74306" lon="7.00967">
        <ele>634</ele>
        <time>2011-07-16T14:21:57Z</time>
      </trkpt>
      <trkpt lat="43.74305" lon="7.0097">
        <ele>634</ele>
        <time>2011-07-16T14:21:58Z</time>
      </trkpt>
      <trkpt lat="43.74305" lon="7.0097">
        <ele>635</ele>
        <time>2011-07-16T14:21:59Z</time>
      </trkpt>
      <trkpt lat="43.74305" lon="7.00971">
        <ele>635</ele>
        <time>2011-07-16T14:22:01Z</time>
      </trkpt>
      <trkpt lat="43.74305" lon="7.00971">
        <ele>635</ele>
        <time>2011-07-16T14:22:03Z</time>
      </trkpt>
      <trkpt lat="43.74305" lon="7.00971">
        <ele>635</ele>
        <time>2011-07-16T14:22:04Z</time>
      </trkpt>
      <trkpt lat="43.74303" lon="7.00971">
        <ele>635</ele>
        <time>2011-07-16T14:22:05Z</time>
      </trkpt>
      <trkpt lat="43.74302" lon="7.00971">
        <ele>635</ele>
        <time>2011-07-16T14:22:06Z</time>
      </trkpt>
      <trkpt lat="43.74301" lon="7.00971">
        <ele>635</ele>
        <time>2011-07-16T14:22:07Z</time>
      </trkpt>
      <trkpt lat="43.743" lon="7.00972">
        <ele>635</ele>
        <time>2011-07-16T14:22:08Z</time>
      </trkpt>
      <trkpt lat="43.74299" lon="7.00972">
        <ele>635</ele>
        <time>2011-07-16T14:22:09Z</time>
      </trkpt>
      <trkpt lat="43.74299" lon="7.00975">
        <ele>635</ele>
        <time>2011-07-16T14:22:10Z</time>
      </trkpt>
      <trkpt lat="43.74299" lon="7.00975">
        <ele>635</ele>
        <time>2011-07-16T14:22:11Z</time>
      </trkpt>
      <trkpt lat="43.74298" lon="7.00974">
        <ele>636</ele>
        <time>2011-07-16T14:22:12Z</time>
      </trkpt>
      <trkpt lat="43.74297" lon="7.00974">
        <ele>636</ele>
        <time>2011-07-16T14:22:13Z</time>
      </trkpt>
      <trkpt lat="43.74297" lon="7.00976">
        <ele>636</ele>
        <time>2011-07-16T14:22:14Z</time>
      </trkpt>
      <trkpt lat="43.74296" lon="7.00976">
        <ele>636</ele>
        <time>2011-07-16T14:22:15Z</time>
      </trkpt>
      <trkpt lat="43.74296" lon="7.00977">
        <ele>636</ele>
        <time>2011-07-16T14:22:16Z</time>
      </trkpt>
      <trkpt lat="43.74295" lon="7.00978">
        <ele>636</ele>
        <time>2011-07-16T14:22:17Z</time>
      </trkpt>
      <trkpt lat="43.74295" lon="7.00977">
        <ele>637</ele>
        <time>2011-07-16T14:22:18Z</time>
      </trkpt>
      <trkpt lat="43.74295" lon="7.00979">
        <ele>635</ele>
        <time>2011-07-16T14:22:21Z</time>
      </trkpt>
      <trkpt lat="43.74295" lon="7.00979">
        <ele>634</ele>
        <time>2011-07-16T14:22:23Z</time>
      </trkpt>
      <trkpt lat="43.74294" lon="7.0098">
        <ele>634</ele>
        <time>2011-07-16T14:22:24Z</time>
      </trkpt>
      <trkpt lat="43.74294" lon="7.0098">
        <ele>634</ele>
        <time>2011-07-16T14:22:25Z</time>
      </trkpt>
      <trkpt lat="43.74294" lon="7.00981">
        <ele>634</ele>
        <time>2011-07-16T14:22:26Z</time>
      </trkpt>
      <trkpt lat="43.74293" lon="7.00981">
        <ele>634</ele>
        <time>2011-07-16T14:22:27Z</time>
      </trkpt>
      <trkpt lat="43.74293" lon="7.00983">
        <ele>634</ele>
        <time>2011-07-16T14:22:28Z</time>
      </trkpt>
      <trkpt lat="43.74292" lon="7.00983">
        <ele>634</ele>
        <time>2011-07-16T14:22:29Z</time>
      </trkpt>
      <trkpt lat="43.74292" lon="7.00983">
        <ele>634</ele>
        <time>2011-07-16T14:22:30Z</time>
      </trkpt>
      <trkpt lat="43.74291" lon="7.00983">
        <ele>635</ele>
        <time>2011-07-16T14:22:31Z</time>
      </trkpt>
      <trkpt lat="43.7429" lon="7.00983">
        <ele>635</ele>
        <time>2011-07-16T14:22:32Z</time>
      </trkpt>
      <trkpt lat="43.7429" lon="7.00984">
        <ele>636</ele>
        <time>2011-07-16T14:22:35Z</time>
      </trkpt>
      <trkpt lat="43.74291" lon="7.00984">
        <ele>637</ele>
        <time>2011-07-16T14:22:37Z</time>
      </trkpt>
      <trkpt lat="43.7429" lon="7.00985">
        <ele>637</ele>
        <time>2011-07-16T14:22:38Z</time>
      </trkpt>
      <trkpt lat="43.74289" lon="7.00985">
        <ele>638</ele>
        <time>2011-07-16T14:22:39Z</time>
      </trkpt>
      <trkpt lat="43.74288" lon="7.00986">
        <ele>638</ele>
        <time>2011-07-16T14:22:40Z</time>
      </trkpt>
      <trkpt lat="43.74287" lon="7.00987">
        <ele>638</ele>
        <time>2011-07-16T14:22:41Z</time>
      </trkpt>
      <trkpt lat="43.74286" lon="7.00988">
        <ele>638</ele>
        <time>2011-07-16T14:22:42Z</time>
      </trkpt>
      <trkpt lat="43.74285" lon="7.00989">
        <ele>638</ele>
        <time>2011-07-16T14:22:43Z</time>
      </trkpt>
      <trkpt lat="43.74284" lon="7.00989">
        <ele>639</ele>
        <time>2011-07-16T14:22:44Z</time>
      </trkpt>
      <trkpt lat="43.74284" lon="7.00991">
        <ele>639</ele>
        <time>2011-07-16T14:22:47Z</time>
      </trkpt>
      <trkpt lat="43.74284" lon="7.00991">
        <ele>639</ele>
        <time>2011-07-16T14:22:48Z</time>
      </trkpt>
      <trkpt lat="43.74284" lon="7.00991">
        <ele>639</ele>
        <time>2011-07-16T14:22:49Z</time>
      </trkpt>
      <trkpt lat="43.74284" lon="7.00991">
        <ele>640</ele>
        <time>2011-07-16T14:22:50Z</time>
      </trkpt>
      <trkpt lat="43.74283" lon="7.00992">
        <ele>640</ele>
        <time>2011-07-16T14:22:51Z</time>
      </trkpt>
      <trkpt lat="43.74282" lon="7.00992">
        <ele>641</ele>
        <time>2011-07-16T14:22:52Z</time>
      </trkpt>
      <trkpt lat="43.7428" lon="7.00991">
        <ele>642</ele>
        <time>2011-07-16T14:22:53Z</time>
      </trkpt>
      <trkpt lat="43.7428" lon="7.00993">
        <ele>642</ele>
        <time>2011-07-16T14:22:54Z</time>
      </trkpt>
      <trkpt lat="43.74279" lon="7.00993">
        <ele>643</ele>
        <time>2011-07-16T14:22:55Z</time>
      </trkpt>
      <trkpt lat="43.74278" lon="7.00995">
        <ele>643</ele>
        <time>2011-07-16T14:22:56Z</time>
      </trkpt>
      <trkpt lat="43.74277" lon="7.00995">
        <ele>643</ele>
        <time>2011-07-16T14:22:57Z</time>
      </trkpt>
      <trkpt lat="43.74275" lon="7.00996">
        <ele>644</ele>
        <time>2011-07-16T14:22:59Z</time>
      </trkpt>
      <trkpt lat="43.74275" lon="7.00997">
        <ele>644</ele>
        <time>2011-07-16T14:23:01Z</time>
      </trkpt>
      <trkpt lat="43.74276" lon="7.00999">
        <ele>644</ele>
        <time>2011-07-16T14:23:03Z</time>
      </trkpt>
      <trkpt lat="43.74276" lon="7.00999">
        <ele>644</ele>
        <time>2011-07-16T14:23:05Z</time>
      </trkpt>
      <trkpt lat="43.74276" lon="7.01">
        <ele>644</ele>
        <time>2011-07-16T14:23:06Z</time>
      </trkpt>
      <trkpt lat="43.74275" lon="7.01001">
        <ele>643</ele>
        <time>2011-07-16T14:23:07Z</time>
      </trkpt>
      <trkpt lat="43.74274" lon="7.01001">
        <ele>643</ele>
        <time>2011-07-16T14:23:08Z</time>
      </trkpt>
      <trkpt lat="43.74273" lon="7.01">
        <ele>643</ele>
        <time>2011-07-16T14:23:09Z</time>
      </trkpt>
      <trkpt lat="43.74272" lon="7.01001">
        <ele>643</ele>
        <time>2011-07-16T14:23:10Z</time>
      </trkpt>
      <trkpt lat="43.74271" lon="7.01001">
        <ele>643</ele>
        <time>2011-07-16T14:23:11Z</time>
      </trkpt>
      <trkpt lat="43.7427" lon="7.01001">
        <ele>643</ele>
        <time>2011-07-16T14:23:12Z</time>
      </trkpt>
      <trkpt lat="43.74269" lon="7.00996">
        <ele>644</ele>
        <time>2011-07-16T14:23:13Z</time>
      </trkpt>
      <trkpt lat="43.74269" lon="7.00996">
        <ele>645</ele>
        <time>2011-07-16T14:23:14Z</time>
      </trkpt>
      <trkpt lat="43.74269" lon="7.00997">
        <ele>646</ele>
        <time>2011-07-16T14:23:15Z</time>
      </trkpt>
      <trkpt lat="43.74269" lon="7.00998">
        <ele>646</ele>
        <time>2011-07-16T14:23:16Z</time>
      </trkpt>
      <trkpt lat="43.74268" lon="7.00998">
        <ele>646</ele>
        <time>2011-07-16T14:23:17Z</time>
      </trkpt>
      <trkpt lat="43.74268" lon="7.00999">
        <ele>647</ele>
        <time>2011-07-16T14:23:19Z</time>
      </trkpt>
      <trkpt lat="43.74267" lon="7.01">
        <ele>647</ele>
        <time>2011-07-16T14:23:20Z</time>
      </trkpt>
      <trkpt lat="43.74267" lon="7.01001">
        <ele>647</ele>
        <time>2011-07-16T14:23:21Z</time>
      </trkpt>
      <trkpt lat="43.74267" lon="7.01004">
        <ele>647</ele>
        <time>2011-07-16T14:23:22Z</time>
      </trkpt>
      <trkpt lat="43.74266" lon="7.01006">
        <ele>647</ele>
        <time>2011-07-16T14:23:23Z</time>
      </trkpt>
      <trkpt lat="43.74266" lon="7.01007">
        <ele>647</ele>
        <time>2011-07-16T14:23:24Z</time>
      </trkpt>
      <trkpt lat="43.74264" lon="7.01009">
        <ele>647</ele>
        <time>2011-07-16T14:23:25Z</time>
      </trkpt>
      <trkpt lat="43.74263" lon="7.01011">
        <ele>647</ele>
        <time>2011-07-16T14:23:26Z</time>
      </trkpt>
      <trkpt lat="43.74261" lon="7.01014">
        <ele>648</ele>
        <time>2011-07-16T14:23:27Z</time>
      </trkpt>
      <trkpt lat="43.74259" lon="7.01016">
        <ele>648</ele>
        <time>2011-07-16T14:23:28Z</time>
      </trkpt>
      <trkpt lat="43.74257" lon="7.01018">
        <ele>648</ele>
        <time>2011-07-16T14:23:29Z</time>
      </trkpt>
      <trkpt lat="43.74256" lon="7.0102">
        <ele>648</ele>
        <time>2011-07-16T14:23:30Z</time>
      </trkpt>
      <trkpt lat="43.74254" lon="7.01021">
        <ele>649</ele>
        <time>2011-07-16T14:23:31Z</time>
      </trkpt>
      <trkpt lat="43.74253" lon="7.01021">
        <ele>649</ele>
        <time>2011-07-16T14:23:32Z</time>
      </trkpt>
      <trkpt lat="43.74252" lon="7.01022">
        <ele>649</ele>
        <time>2011-07-16T14:23:33Z</time>
      </trkpt>
      <trkpt lat="43.7425" lon="7.01022">
        <ele>649</ele>
        <time>2011-07-16T14:23:34Z</time>
      </trkpt>
      <trkpt lat="43.74249" lon="7.01023">
        <ele>649</ele>
        <time>2011-07-16T14:23:35Z</time>
      </trkpt>
      <trkpt lat="43.74248" lon="7.01023">
        <ele>649</ele>
        <time>2011-07-16T14:23:36Z</time>
      </trkpt>
      <trkpt lat="43.74247" lon="7.01023">
        <ele>649</ele>
        <time>2011-07-16T14:23:37Z</time>
      </trkpt>
      <trkpt lat="43.74245" lon="7.01024">
        <ele>650</ele>
        <time>2011-07-16T14:23:38Z</time>
      </trkpt>
      <trkpt lat="43.74244" lon="7.01026">
        <ele>650</ele>
        <time>2011-07-16T14:23:39Z</time>
      </trkpt>
      <trkpt lat="43.74243" lon="7.01027">
        <ele>650</ele>
        <time>2011-07-16T14:23:40Z</time>
      </trkpt>
      <trkpt lat="43.74242" lon="7.01029">
        <ele>650</ele>
        <time>2011-07-16T14:23:41Z</time>
      </trkpt>
      <trkpt lat="43.74241" lon="7.0103">
        <ele>650</ele>
        <time>2011-07-16T14:23:42Z</time>
      </trkpt>
      <trkpt lat="43.7424" lon="7.01032">
        <ele>650</ele>
        <time>2011-07-16T14:23:43Z</time>
      </trkpt>
      <trkpt lat="43.74239" lon="7.01035">
        <ele>650</ele>
        <time>2011-07-16T14:23:44Z</time>
      </trkpt>
      <trkpt lat="43.74239" lon="7.01036">
        <ele>651</ele>
        <time>2011-07-16T14:23:45Z</time>
      </trkpt>
      <trkpt lat="43.74239" lon="7.01038">
        <ele>651</ele>
        <time>2011-07-16T14:23:46Z</time>
      </trkpt>
      <trkpt lat="43.74239" lon="7.01043">
        <ele>652</ele>
        <time>2011-07-16T14:23:48Z</time>
      </trkpt>
      <trkpt lat="43.74239" lon="7.01045">
        <ele>652</ele>
        <time>2011-07-16T14:23:49Z</time>
      </trkpt>
      <trkpt lat="43.74239" lon="7.01051">
        <ele>652</ele>
        <time>2011-07-16T14:23:51Z</time>
      </trkpt>
      <trkpt lat="43.74238" lon="7.01054">
        <ele>653</ele>
        <time>2011-07-16T14:23:52Z</time>
      </trkpt>
      <trkpt lat="43.74239" lon="7.01055">
        <ele>655</ele>
        <time>2011-07-16T14:23:53Z</time>
      </trkpt>
      <trkpt lat="43.74238" lon="7.01056">
        <ele>655</ele>
        <time>2011-07-16T14:23:54Z</time>
      </trkpt>
      <trkpt lat="43.74238" lon="7.01057">
        <ele>655</ele>
        <time>2011-07-16T14:23:55Z</time>
      </trkpt>
      <trkpt lat="43.74238" lon="7.0106">
        <ele>655</ele>
        <time>2011-07-16T14:23:56Z</time>
      </trkpt>
      <trkpt lat="43.74239" lon="7.01066">
        <ele>655</ele>
        <time>2011-07-16T14:23:57Z</time>
      </trkpt>
      <trkpt lat="43.74239" lon="7.01069">
        <ele>655</ele>
        <time>2011-07-16T14:23:58Z</time>
      </trkpt>
      <trkpt lat="43.74239" lon="7.01071">
        <ele>655</ele>
        <time>2011-07-16T14:23:59Z</time>
      </trkpt>
      <trkpt lat="43.74239" lon="7.01073">
        <ele>655</ele>
        <time>2011-07-16T14:24:00Z</time>
      </trkpt>
      <trkpt lat="43.74239" lon="7.01075">
        <ele>655</ele>
        <time>2011-07-16T14:24:01Z</time>
      </trkpt>
      <trkpt lat="43.7424" lon="7.01076">
        <ele>656</ele>
        <time>2011-07-16T14:24:02Z</time>
      </trkpt>
      <trkpt lat="43.7424" lon="7.01078">
        <ele>657</ele>
        <time>2011-07-16T14:24:03Z</time>
      </trkpt>
      <trkpt lat="43.7424" lon="7.0108">
        <ele>657</ele>
        <time>2011-07-16T14:24:04Z</time>
      </trkpt>
      <trkpt lat="43.7424" lon="7.01082">
        <ele>658</ele>
        <time>2011-07-16T14:24:05Z</time>
      </trkpt>
      <trkpt lat="43.7424" lon="7.01084">
        <ele>658</ele>
        <time>2011-07-16T14:24:06Z</time>
      </trkpt>
      <trkpt lat="43.7424" lon="7.01086">
        <ele>658</ele>
        <time>2011-07-16T14:24:07Z</time>
      </trkpt>
      <trkpt lat="43.7424" lon="7.01087">
        <ele>658</ele>
        <time>2011-07-16T14:24:08Z</time>
      </trkpt>
      <trkpt lat="43.7424" lon="7.01088">
        <ele>658</ele>
        <time>2011-07-16T14:24:09Z</time>
      </trkpt>
      <trkpt lat="43.74239" lon="7.01089">
        <ele>659</ele>
        <time>2011-07-16T14:24:10Z</time>
      </trkpt>
      <trkpt lat="43.74238" lon="7.0109">
        <ele>659</ele>
        <time>2011-07-16T14:24:11Z</time>
      </trkpt>
      <trkpt lat="43.74237" lon="7.0109">
        <ele>660</ele>
        <time>2011-07-16T14:24:12Z</time>
      </trkpt>
      <trkpt lat="43.74235" lon="7.0109">
        <ele>660</ele>
        <time>2011-07-16T14:24:13Z</time>
      </trkpt>
      <trkpt lat="43.74233" lon="7.01091">
        <ele>660</ele>
        <time>2011-07-16T14:24:14Z</time>
      </trkpt>
      <trkpt lat="43.74232" lon="7.01092">
        <ele>660</ele>
        <time>2011-07-16T14:24:15Z</time>
      </trkpt>
      <trkpt lat="43.74231" lon="7.01092">
        <ele>660</ele>
        <time>2011-07-16T14:24:16Z</time>
      </trkpt>
      <trkpt lat="43.74229" lon="7.01093">
        <ele>660</ele>
        <time>2011-07-16T14:24:17Z</time>
      </trkpt>
      <trkpt lat="43.74228" lon="7.01094">
        <ele>660</ele>
        <time>2011-07-16T14:24:18Z</time>
      </trkpt>
      <trkpt lat="43.74227" lon="7.01096">
        <ele>660</ele>
        <time>2011-07-16T14:24:19Z</time>
      </trkpt>
      <trkpt lat="43.74225" lon="7.01097">
        <ele>661</ele>
        <time>2011-07-16T14:24:20Z</time>
      </trkpt>
      <trkpt lat="43.74224" lon="7.01098">
        <ele>661</ele>
        <time>2011-07-16T14:24:21Z</time>
      </trkpt>
      <trkpt lat="43.74223" lon="7.01099">
        <ele>661</ele>
        <time>2011-07-16T14:24:22Z</time>
      </trkpt>
      <trkpt lat="43.74222" lon="7.011">
        <ele>661</ele>
        <time>2011-07-16T14:24:23Z</time>
      </trkpt>
      <trkpt lat="43.74221" lon="7.01101">
        <ele>661</ele>
        <time>2011-07-16T14:24:24Z</time>
      </trkpt>
      <trkpt lat="43.7422" lon="7.01102">
        <ele>661</ele>
        <time>2011-07-16T14:24:25Z</time>
      </trkpt>
      <trkpt lat="43.74218" lon="7.01103">
        <ele>661</ele>
        <time>2011-07-16T14:24:26Z</time>
      </trkpt>
      <trkpt lat="43.74217" lon="7.01104">
        <ele>661</ele>
        <time>2011-07-16T14:24:27Z</time>
      </trkpt>
      <trkpt lat="43.74216" lon="7.01105">
        <ele>662</ele>
        <time>2011-07-16T14:24:28Z</time>
      </trkpt>
      <trkpt lat="43.74216" lon="7.01105">
        <ele>662</ele>
        <time>2011-07-16T14:24:32Z</time>
      </trkpt>
      <trkpt lat="43.74215" lon="7.01105">
        <ele>662</ele>
        <time>2011-07-16T14:24:33Z</time>
      </trkpt>
      <trkpt lat="43.74214" lon="7.01106">
        <ele>662</ele>
        <time>2011-07-16T14:24:34Z</time>
      </trkpt>
      <trkpt lat="43.74213" lon="7.01106">
        <ele>662</ele>
        <time>2011-07-16T14:24:35Z</time>
      </trkpt>
      <trkpt lat="43.74212" lon="7.01106">
        <ele>662</ele>
        <time>2011-07-16T14:24:36Z</time>
      </trkpt>
      <trkpt lat="43.74211" lon="7.01107">
        <ele>662</ele>
        <time>2011-07-16T14:24:37Z</time>
      </trkpt>
      <trkpt lat="43.7421" lon="7.01107">
        <ele>662</ele>
        <time>2011-07-16T14:24:38Z</time>
      </trkpt>
      <trkpt lat="43.74209" lon="7.01108">
        <ele>662</ele>
        <time>2011-07-16T14:24:39Z</time>
      </trkpt>
      <trkpt lat="43.74208" lon="7.01108">
        <ele>663</ele>
        <time>2011-07-16T14:24:40Z</time>
      </trkpt>
      <trkpt lat="43.74206" lon="7.01108">
        <ele>663</ele>
        <time>2011-07-16T14:24:41Z</time>
      </trkpt>
      <trkpt lat="43.74205" lon="7.01109">
        <ele>663</ele>
        <time>2011-07-16T14:24:42Z</time>
      </trkpt>
      <trkpt lat="43.74203" lon="7.01109">
        <ele>663</ele>
        <time>2011-07-16T14:24:43Z</time>
      </trkpt>
      <trkpt lat="43.74202" lon="7.01109">
        <ele>663</ele>
        <time>2011-07-16T14:24:44Z</time>
      </trkpt>
      <trkpt lat="43.742" lon="7.01109">
        <ele>663</ele>
        <time>2011-07-16T14:24:45Z</time>
      </trkpt>
      <trkpt lat="43.74199" lon="7.0111">
        <ele>663</ele>
        <time>2011-07-16T14:24:46Z</time>
      </trkpt>
      <trkpt lat="43.74196" lon="7.01111">
        <ele>664</ele>
        <time>2011-07-16T14:24:48Z</time>
      </trkpt>
      <trkpt lat="43.74194" lon="7.01111">
        <ele>664</ele>
        <time>2011-07-16T14:24:49Z</time>
      </trkpt>
      <trkpt lat="43.74193" lon="7.01112">
        <ele>664</ele>
        <time>2011-07-16T14:24:50Z</time>
      </trkpt>
      <trkpt lat="43.74192" lon="7.01111">
        <ele>665</ele>
        <time>2011-07-16T14:24:51Z</time>
      </trkpt>
      <trkpt lat="43.74189" lon="7.01113">
        <ele>665</ele>
        <time>2011-07-16T14:24:53Z</time>
      </trkpt>
      <trkpt lat="43.74188" lon="7.01113">
        <ele>665</ele>
        <time>2011-07-16T14:24:54Z</time>
      </trkpt>
      <trkpt lat="43.74186" lon="7.01114">
        <ele>665</ele>
        <time>2011-07-16T14:24:55Z</time>
      </trkpt>
      <trkpt lat="43.74185" lon="7.01115">
        <ele>665</ele>
        <time>2011-07-16T14:24:56Z</time>
      </trkpt>
      <trkpt lat="43.74184" lon="7.01116">
        <ele>665</ele>
        <time>2011-07-16T14:24:57Z</time>
      </trkpt>
      <trkpt lat="43.74183" lon="7.01117">
        <ele>665</ele>
        <time>2011-07-16T14:24:58Z</time>
      </trkpt>
      <trkpt lat="43.7418" lon="7.01119">
        <ele>665</ele>
        <time>2011-07-16T14:25:00Z</time>
      </trkpt>
      <trkpt lat="43.7418" lon="7.0112">
        <ele>665</ele>
        <time>2011-07-16T14:25:01Z</time>
      </trkpt>
      <trkpt lat="43.74179" lon="7.01121">
        <ele>665</ele>
        <time>2011-07-16T14:25:03Z</time>
      </trkpt>
      <trkpt lat="43.74179" lon="7.01121">
        <ele>664</ele>
        <time>2011-07-16T14:25:04Z</time>
      </trkpt>
      <trkpt lat="43.74178" lon="7.01121">
        <ele>664</ele>
        <time>2011-07-16T14:25:05Z</time>
      </trkpt>
      <trkpt lat="43.74177" lon="7.01121">
        <ele>664</ele>
        <time>2011-07-16T14:25:06Z</time>
      </trkpt>
      <trkpt lat="43.74177" lon="7.01122">
        <ele>664</ele>
        <time>2011-07-16T14:25:07Z</time>
      </trkpt>
      <trkpt lat="43.74177" lon="7.01122">
        <ele>664</ele>
        <time>2011-07-16T14:25:08Z</time>
      </trkpt>
      <trkpt lat="43.74176" lon="7.01123">
        <ele>664</ele>
        <time>2011-07-16T14:25:09Z</time>
      </trkpt>
      <trkpt lat="43.74176" lon="7.01124">
        <ele>664</ele>
        <time>2011-07-16T14:25:10Z</time>
      </trkpt>
      <trkpt lat="43.74175" lon="7.01125">
        <ele>664</ele>
        <time>2011-07-16T14:25:11Z</time>
      </trkpt>
      <trkpt lat="43.74174" lon="7.01125">
        <ele>664</ele>
        <time>2011-07-16T14:25:12Z</time>
      </trkpt>
      <trkpt lat="43.74173" lon="7.01126">
        <ele>664</ele>
        <time>2011-07-16T14:25:13Z</time>
      </trkpt>
      <trkpt lat="43.74173" lon="7.01127">
        <ele>664</ele>
        <time>2011-07-16T14:25:14Z</time>
      </trkpt>
      <trkpt lat="43.74172" lon="7.01127">
        <ele>664</ele>
        <time>2011-07-16T14:25:15Z</time>
      </trkpt>
      <trkpt lat="43.74171" lon="7.01128">
        <ele>664</ele>
        <time>2011-07-16T14:25:17Z</time>
      </trkpt>
      <trkpt lat="43.74171" lon="7.01128">
        <ele>664</ele>
        <time>2011-07-16T14:25:18Z</time>
      </trkpt>
      <trkpt lat="43.7417" lon="7.01129">
        <ele>665</ele>
        <time>2011-07-16T14:25:19Z</time>
      </trkpt>
      <trkpt lat="43.74171" lon="7.01129">
        <ele>665</ele>
        <time>2011-07-16T14:25:20Z</time>
      </trkpt>
      <trkpt lat="43.7417" lon="7.0113">
        <ele>665</ele>
        <time>2011-07-16T14:25:21Z</time>
      </trkpt>
      <trkpt lat="43.7417" lon="7.01131">
        <ele>665</ele>
        <time>2011-07-16T14:25:22Z</time>
      </trkpt>
      <trkpt lat="43.7417" lon="7.01132">
        <ele>665</ele>
        <time>2011-07-16T14:25:23Z</time>
      </trkpt>
      <trkpt lat="43.74169" lon="7.01132">
        <ele>666</ele>
        <time>2011-07-16T14:25:24Z</time>
      </trkpt>
      <trkpt lat="43.74168" lon="7.01133">
        <ele>667</ele>
        <time>2011-07-16T14:25:27Z</time>
      </trkpt>
      <trkpt lat="43.74167" lon="7.01134">
        <ele>667</ele>
        <time>2011-07-16T14:25:28Z</time>
      </trkpt>
      <trkpt lat="43.74166" lon="7.01134">
        <ele>668</ele>
        <time>2011-07-16T14:25:29Z</time>
      </trkpt>
      <trkpt lat="43.74166" lon="7.01134">
        <ele>668</ele>
        <time>2011-07-16T14:25:30Z</time>
      </trkpt>
      <trkpt lat="43.74165" lon="7.01135">
        <ele>668</ele>
        <time>2011-07-16T14:25:32Z</time>
      </trkpt>
      <trkpt lat="43.74164" lon="7.01134">
        <ele>669</ele>
        <time>2011-07-16T14:25:33Z</time>
      </trkpt>
      <trkpt lat="43.74163" lon="7.01134">
        <ele>669</ele>
        <time>2011-07-16T14:25:34Z</time>
      </trkpt>
      <trkpt lat="43.74162" lon="7.01134">
        <ele>669</ele>
        <time>2011-07-16T14:25:35Z</time>
      </trkpt>
      <trkpt lat="43.74162" lon="7.01134">
        <ele>670</ele>
        <time>2011-07-16T14:25:36Z</time>
      </trkpt>
      <trkpt lat="43.74161" lon="7.01133">
        <ele>671</ele>
        <time>2011-07-16T14:25:37Z</time>
      </trkpt>
      <trkpt lat="43.74161" lon="7.01133">
        <ele>671</ele>
        <time>2011-07-16T14:25:38Z</time>
      </trkpt>
      <trkpt lat="43.7416" lon="7.01133">
        <ele>671</ele>
        <time>2011-07-16T14:25:39Z</time>
      </trkpt>
      <trkpt lat="43.74159" lon="7.01134">
        <ele>671</ele>
        <time>2011-07-16T14:25:41Z</time>
      </trkpt>
      <trkpt lat="43.74159" lon="7.01134">
        <ele>671</ele>
        <time>2011-07-16T14:25:42Z</time>
      </trkpt>
      <trkpt lat="43.74159" lon="7.01135">
        <ele>671</ele>
        <time>2011-07-16T14:25:44Z</time>
      </trkpt>
      <trkpt lat="43.74159" lon="7.01135">
        <ele>671</ele>
        <time>2011-07-16T14:25:52Z</time>
      </trkpt>
      <trkpt lat="43.74158" lon="7.01136">
        <ele>671</ele>
        <time>2011-07-16T14:25:53Z</time>
      </trkpt>
      <trkpt lat="43.74158" lon="7.01136">
        <ele>671</ele>
        <time>2011-07-16T14:25:54Z</time>
      </trkpt>
      <trkpt lat="43.74158" lon="7.01137">
        <ele>671</ele>
        <time>2011-07-16T14:25:56Z</time>
      </trkpt>
      <trkpt lat="43.74158" lon="7.01138">
        <ele>671</ele>
        <time>2011-07-16T14:26:01Z</time>
      </trkpt>
      <trkpt lat="43.74158" lon="7.01139">
        <ele>671</ele>
        <time>2011-07-16T14:26:02Z</time>
      </trkpt>
      <trkpt lat="43.74158" lon="7.01139">
        <ele>671</ele>
        <time>2011-07-16T14:26:03Z</time>
      </trkpt>
      <trkpt lat="43.74157" lon="7.0114">
        <ele>671</ele>
        <time>2011-07-16T14:26:04Z</time>
      </trkpt>
      <trkpt lat="43.74156" lon="7.01142">
        <ele>671</ele>
        <time>2011-07-16T14:26:05Z</time>
      </trkpt>
      <trkpt lat="43.74156" lon="7.01144">
        <ele>671</ele>
        <time>2011-07-16T14:26:06Z</time>
      </trkpt>
      <trkpt lat="43.74155" lon="7.01146">
        <ele>671</ele>
        <time>2011-07-16T14:26:07Z</time>
      </trkpt>
      <trkpt lat="43.74155" lon="7.01147">
        <ele>670</ele>
        <time>2011-07-16T14:26:08Z</time>
      </trkpt>
      <trkpt lat="43.74154" lon="7.01149">
        <ele>670</ele>
        <time>2011-07-16T14:26:09Z</time>
      </trkpt>
      <trkpt lat="43.74154" lon="7.0115">
        <ele>671</ele>
        <time>2011-07-16T14:26:10Z</time>
      </trkpt>
      <trkpt lat="43.74153" lon="7.01152">
        <ele>671</ele>
        <time>2011-07-16T14:26:11Z</time>
      </trkpt>
      <trkpt lat="43.74152" lon="7.01153">
        <ele>671</ele>
        <time>2011-07-16T14:26:12Z</time>
      </trkpt>
      <trkpt lat="43.74151" lon="7.01155">
        <ele>671</ele>
        <time>2011-07-16T14:26:13Z</time>
      </trkpt>
      <trkpt lat="43.74152" lon="7.01154">
        <ele>671</ele>
        <time>2011-07-16T14:26:14Z</time>
      </trkpt>
      <trkpt lat="43.74152" lon="7.01156">
        <ele>671</ele>
        <time>2011-07-16T14:26:22Z</time>
      </trkpt>
      <trkpt lat="43.74152" lon="7.01157">
        <ele>671</ele>
        <time>2011-07-16T14:26:23Z</time>
      </trkpt>
      <trkpt lat="43.74152" lon="7.01158">
        <ele>671</ele>
        <time>2011-07-16T14:26:24Z</time>
      </trkpt>
      <trkpt lat="43.74151" lon="7.01159">
        <ele>671</ele>
        <time>2011-07-16T14:26:25Z</time>
      </trkpt>
      <trkpt lat="43.74153" lon="7.01162">
        <ele>671</ele>
        <time>2011-07-16T14:26:26Z</time>
      </trkpt>
      <trkpt lat="43.74153" lon="7.01163">
        <ele>671</ele>
        <time>2011-07-16T14:26:27Z</time>
      </trkpt>
      <trkpt lat="43.74152" lon="7.01165">
        <ele>671</ele>
        <time>2011-07-16T14:26:29Z</time>
      </trkpt>
      <trkpt lat="43.74151" lon="7.01165">
        <ele>671</ele>
        <time>2011-07-16T14:26:30Z</time>
      </trkpt>
      <trkpt lat="43.74151" lon="7.01166">
        <ele>671</ele>
        <time>2011-07-16T14:26:31Z</time>
      </trkpt>
      <trkpt lat="43.74151" lon="7.01166">
        <ele>671</ele>
        <time>2011-07-16T14:26:32Z</time>
      </trkpt>
      <trkpt lat="43.7415" lon="7.01165">
        <ele>672</ele>
        <time>2011-07-16T14:26:33Z</time>
      </trkpt>
      <trkpt lat="43.7415" lon="7.01165">
        <ele>672</ele>
        <time>2011-07-16T14:26:34Z</time>
      </trkpt>
      <trkpt lat="43.74149" lon="7.01165">
        <ele>672</ele>
        <time>2011-07-16T14:26:35Z</time>
      </trkpt>
      <trkpt lat="43.74148" lon="7.01165">
        <ele>672</ele>
        <time>2011-07-16T14:26:36Z</time>
      </trkpt>
      <trkpt lat="43.74147" lon="7.01166">
        <ele>672</ele>
        <time>2011-07-16T14:26:37Z</time>
      </trkpt>
      <trkpt lat="43.74147" lon="7.01167">
        <ele>672</ele>
        <time>2011-07-16T14:26:38Z</time>
      </trkpt>
      <trkpt lat="43.74146" lon="7.01168">
        <ele>673</ele>
        <time>2011-07-16T14:26:39Z</time>
      </trkpt>
      <trkpt lat="43.74146" lon="7.01169">
        <ele>673</ele>
        <time>2011-07-16T14:26:40Z</time>
      </trkpt>
      <trkpt lat="43.74146" lon="7.01169">
        <ele>673</ele>
        <time>2011-07-16T14:26:41Z</time>
      </trkpt>
      <trkpt lat="43.74145" lon="7.01169">
        <ele>673</ele>
        <time>2011-07-16T14:26:42Z</time>
      </trkpt>
      <trkpt lat="43.74144" lon="7.0117">
        <ele>674</ele>
        <time>2011-07-16T14:26:43Z</time>
      </trkpt>
      <trkpt lat="43.74144" lon="7.01169">
        <ele>674</ele>
        <time>2011-07-16T14:26:44Z</time>
      </trkpt>
      <trkpt lat="43.74144" lon="7.01169">
        <ele>674</ele>
        <time>2011-07-16T14:26:45Z</time>
      </trkpt>
      <trkpt lat="43.74144" lon="7.01169">
        <ele>674</ele>
        <time>2011-07-16T14:26:46Z</time>
      </trkpt>
      <trkpt lat="43.74144" lon="7.01168">
        <ele>675</ele>
        <time>2011-07-16T14:26:47Z</time>
      </trkpt>
      <trkpt lat="43.74144" lon="7.01168">
        <ele>675</ele>
        <time>2011-07-16T14:26:48Z</time>
      </trkpt>
      <trkpt lat="43.74144" lon="7.01168">
        <ele>675</ele>
        <time>2011-07-16T14:26:49Z</time>
      </trkpt>
      <trkpt lat="43.74144" lon="7.01168">
        <ele>675</ele>
        <time>2011-07-16T14:26:50Z</time>
      </trkpt>
      <trkpt lat="43.74144" lon="7.01168">
        <ele>675</ele>
        <time>2011-07-16T14:26:51Z</time>
      </trkpt>
      <trkpt lat="43.74143" lon="7.01167">
        <ele>675</ele>
        <time>2011-07-16T14:26:52Z</time>
      </trkpt>
      <trkpt lat="43.74143" lon="7.01167">
        <ele>675</ele>
        <time>2011-07-16T14:26:53Z</time>
      </trkpt>
      <trkpt lat="43.74143" lon="7.01166">
        <ele>676</ele>
        <time>2011-07-16T14:26:54Z</time>
      </trkpt>
      <trkpt lat="43.7414" lon="7.01165">
        <ele>676</ele>
        <time>2011-07-16T14:26:55Z</time>
      </trkpt>
      <trkpt lat="43.74138" lon="7.01164">
        <ele>676</ele>
        <time>2011-07-16T14:26:56Z</time>
      </trkpt>
      <trkpt lat="43.74138" lon="7.01163">
        <ele>676</ele>
        <time>2011-07-16T14:26:57Z</time>
      </trkpt>
      <trkpt lat="43.74138" lon="7.01163">
        <ele>676</ele>
        <time>2011-07-16T14:26:58Z</time>
      </trkpt>
      <trkpt lat="43.7414" lon="7.01162">
        <ele>676</ele>
        <time>2011-07-16T14:26:59Z</time>
      </trkpt>
      <trkpt lat="43.7414" lon="7.01161">
        <ele>676</ele>
        <time>2011-07-16T14:27:00Z</time>
      </trkpt>
      <trkpt lat="43.74142" lon="7.01159">
        <ele>676</ele>
        <time>2011-07-16T14:27:01Z</time>
      </trkpt>
      <trkpt lat="43.7414" lon="7.01159">
        <ele>677</ele>
        <time>2011-07-16T14:27:02Z</time>
      </trkpt>
      <trkpt lat="43.74137" lon="7.01158">
        <ele>677</ele>
        <time>2011-07-16T14:27:03Z</time>
      </trkpt>
      <trkpt lat="43.74136" lon="7.01158">
        <ele>678</ele>
        <time>2011-07-16T14:27:04Z</time>
      </trkpt>
      <trkpt lat="43.74135" lon="7.01157">
        <ele>678</ele>
        <time>2011-07-16T14:27:05Z</time>
      </trkpt>
      <trkpt lat="43.74137" lon="7.01157">
        <ele>678</ele>
        <time>2011-07-16T14:27:06Z</time>
      </trkpt>
      <trkpt lat="43.74137" lon="7.01157">
        <ele>678</ele>
        <time>2011-07-16T14:27:07Z</time>
      </trkpt>
      <trkpt lat="43.74137" lon="7.01157">
        <ele>679</ele>
        <time>2011-07-16T14:27:08Z</time>
      </trkpt>
      <trkpt lat="43.74137" lon="7.01155">
        <ele>679</ele>
        <time>2011-07-16T14:27:09Z</time>
      </trkpt>
      <trkpt lat="43.74137" lon="7.01154">
        <ele>679</ele>
        <time>2011-07-16T14:27:10Z</time>
      </trkpt>
      <trkpt lat="43.74138" lon="7.01154">
        <ele>679</ele>
        <time>2011-07-16T14:27:11Z</time>
      </trkpt>
      <trkpt lat="43.74138" lon="7.01153">
        <ele>679</ele>
        <time>2011-07-16T14:27:12Z</time>
      </trkpt>
      <trkpt lat="43.74138" lon="7.01152">
        <ele>680</ele>
        <time>2011-07-16T14:27:13Z</time>
      </trkpt>
      <trkpt lat="43.74138" lon="7.01152">
        <ele>680</ele>
        <time>2011-07-16T14:27:14Z</time>
      </trkpt>
      <trkpt lat="43.74137" lon="7.01151">
        <ele>680</ele>
        <time>2011-07-16T14:27:15Z</time>
      </trkpt>
      <trkpt lat="43.74137" lon="7.01151">
        <ele>680</ele>
        <time>2011-07-16T14:27:16Z</time>
      </trkpt>
      <trkpt lat="43.74135" lon="7.0115">
        <ele>680</ele>
        <time>2011-07-16T14:27:17Z</time>
      </trkpt>
      <trkpt lat="43.74135" lon="7.01149">
        <ele>680</ele>
        <time>2011-07-16T14:27:18Z</time>
      </trkpt>
      <trkpt lat="43.74136" lon="7.01148">
        <ele>680</ele>
        <time>2011-07-16T14:27:19Z</time>
      </trkpt>
      <trkpt lat="43.74137" lon="7.01148">
        <ele>681</ele>
        <time>2011-07-16T14:27:20Z</time>
      </trkpt>
      <trkpt lat="43.74136" lon="7.01148">
        <ele>681</ele>
        <time>2011-07-16T14:27:21Z</time>
      </trkpt>
      <trkpt lat="43.74134" lon="7.01147">
        <ele>681</ele>
        <time>2011-07-16T14:27:22Z</time>
      </trkpt>
      <trkpt lat="43.7413" lon="7.01145">
        <ele>681</ele>
        <time>2011-07-16T14:27:24Z</time>
      </trkpt>
      <trkpt lat="43.74129" lon="7.01145">
        <ele>681</ele>
        <time>2011-07-16T14:27:25Z</time>
      </trkpt>
      <trkpt lat="43.74127" lon="7.01145">
        <ele>682</ele>
        <time>2011-07-16T14:27:26Z</time>
      </trkpt>
      <trkpt lat="43.74126" lon="7.01144">
        <ele>682</ele>
        <time>2011-07-16T14:27:27Z</time>
      </trkpt>
      <trkpt lat="43.74125" lon="7.01144">
        <ele>682</ele>
        <time>2011-07-16T14:27:28Z</time>
      </trkpt>
      <trkpt lat="43.74124" lon="7.01144">
        <ele>682</ele>
        <time>2011-07-16T14:27:29Z</time>
      </trkpt>
      <trkpt lat="43.74124" lon="7.01144">
        <ele>682</ele>
        <time>2011-07-16T14:27:30Z</time>
      </trkpt>
      <trkpt lat="43.74124" lon="7.01144">
        <ele>682</ele>
        <time>2011-07-16T14:27:31Z</time>
      </trkpt>
      <trkpt lat="43.74123" lon="7.01144">
        <ele>682</ele>
        <time>2011-07-16T14:27:32Z</time>
      </trkpt>
      <trkpt lat="43.74123" lon="7.01145">
        <ele>682</ele>
        <time>2011-07-16T14:27:33Z</time>
      </trkpt>
      <trkpt lat="43.74122" lon="7.01145">
        <ele>682</ele>
        <time>2011-07-16T14:27:34Z</time>
      </trkpt>
      <trkpt lat="43.74122" lon="7.01145">
        <ele>682</ele>
        <time>2011-07-16T14:27:35Z</time>
      </trkpt>
      <trkpt lat="43.74122" lon="7.01146">
        <ele>682</ele>
        <time>2011-07-16T14:27:36Z</time>
      </trkpt>
      <trkpt lat="43.74122" lon="7.01146">
        <ele>683</ele>
        <time>2011-07-16T14:27:37Z</time>
      </trkpt>
      <trkpt lat="43.74122" lon="7.01147">
        <ele>683</ele>
        <time>2011-07-16T14:27:38Z</time>
      </trkpt>
      <trkpt lat="43.74122" lon="7.01148">
        <ele>683</ele>
        <time>2011-07-16T14:27:39Z</time>
      </trkpt>
      <trkpt lat="43.74122" lon="7.01149">
        <ele>683</ele>
        <time>2011-07-16T14:27:40Z</time>
      </trkpt>
      <trkpt lat="43.74122" lon="7.0115">
        <ele>683</ele>
        <time>2011-07-16T14:27:41Z</time>
      </trkpt>
      <trkpt lat="43.74121" lon="7.0115">
        <ele>683</ele>
        <time>2011-07-16T14:27:42Z</time>
      </trkpt>
      <trkpt lat="43.74121" lon="7.01151">
        <ele>683</ele>
        <time>2011-07-16T14:27:43Z</time>
      </trkpt>
      <trkpt lat="43.7412" lon="7.01151">
        <ele>683</ele>
        <time>2011-07-16T14:27:44Z</time>
      </trkpt>
      <trkpt lat="43.7412" lon="7.01151">
        <ele>683</ele>
        <time>2011-07-16T14:27:45Z</time>
      </trkpt>
      <trkpt lat="43.74119" lon="7.01151">
        <ele>683</ele>
        <time>2011-07-16T14:27:46Z</time>
      </trkpt>
      <trkpt lat="43.74118" lon="7.01151">
        <ele>683</ele>
        <time>2011-07-16T14:27:47Z</time>
      </trkpt>
      <trkpt lat="43.74118" lon="7.0115">
        <ele>683</ele>
        <time>2011-07-16T14:27:48Z</time>
      </trkpt>
      <trkpt lat="43.74117" lon="7.01149">
        <ele>683</ele>
        <time>2011-07-16T14:27:49Z</time>
      </trkpt>
      <trkpt lat="43.74118" lon="7.01149">
        <ele>684</ele>
        <time>2011-07-16T14:27:50Z</time>
      </trkpt>
      <trkpt lat="43.74117" lon="7.01149">
        <ele>684</ele>
        <time>2011-07-16T14:27:51Z</time>
      </trkpt>
      <trkpt lat="43.74116" lon="7.01148">
        <ele>684</ele>
        <time>2011-07-16T14:27:52Z</time>
      </trkpt>
      <trkpt lat="43.74116" lon="7.01147">
        <ele>684</ele>
        <time>2011-07-16T14:27:53Z</time>
      </trkpt>
      <trkpt lat="43.74116" lon="7.01147">
        <ele>684</ele>
        <time>2011-07-16T14:27:54Z</time>
      </trkpt>
      <trkpt lat="43.74116" lon="7.01145">
        <ele>685</ele>
        <time>2011-07-16T14:27:57Z</time>
      </trkpt>
      <trkpt lat="43.74116" lon="7.01144">
        <ele>685</ele>
        <time>2011-07-16T14:27:58Z</time>
      </trkpt>
      <trkpt lat="43.74116" lon="7.01144">
        <ele>685</ele>
        <time>2011-07-16T14:27:59Z</time>
      </trkpt>
      <trkpt lat="43.74115" lon="7.01143">
        <ele>685</ele>
        <time>2011-07-16T14:28:00Z</time>
      </trkpt>
      <trkpt lat="43.74114" lon="7.01142">
        <ele>685</ele>
        <time>2011-07-16T14:28:01Z</time>
      </trkpt>
      <trkpt lat="43.74114" lon="7.01142">
        <ele>686</ele>
        <time>2011-07-16T14:28:02Z</time>
      </trkpt>
      <trkpt lat="43.74115" lon="7.01141">
        <ele>686</ele>
        <time>2011-07-16T14:28:03Z</time>
      </trkpt>
      <trkpt lat="43.74114" lon="7.01141">
        <ele>686</ele>
        <time>2011-07-16T14:28:04Z</time>
      </trkpt>
      <trkpt lat="43.74113" lon="7.0114">
        <ele>686</ele>
        <time>2011-07-16T14:28:05Z</time>
      </trkpt>
      <trkpt lat="43.74112" lon="7.01139">
        <ele>686</ele>
        <time>2011-07-16T14:28:06Z</time>
      </trkpt>
      <trkpt lat="43.74112" lon="7.01139">
        <ele>686</ele>
        <time>2011-07-16T14:28:07Z</time>
      </trkpt>
      <trkpt lat="43.74111" lon="7.01139">
        <ele>686</ele>
        <time>2011-07-16T14:28:08Z</time>
      </trkpt>
      <trkpt lat="43.7411" lon="7.01139">
        <ele>686</ele>
        <time>2011-07-16T14:28:09Z</time>
      </trkpt>
      <trkpt lat="43.74109" lon="7.01139">
        <ele>686</ele>
        <time>2011-07-16T14:28:10Z</time>
      </trkpt>
      <trkpt lat="43.74109" lon="7.0114">
        <ele>687</ele>
        <time>2011-07-16T14:28:11Z</time>
      </trkpt>
      <trkpt lat="43.74109" lon="7.01141">
        <ele>686</ele>
        <time>2011-07-16T14:28:12Z</time>
      </trkpt>
      <trkpt lat="43.74109" lon="7.01142">
        <ele>687</ele>
        <time>2011-07-16T14:28:13Z</time>
      </trkpt>
      <trkpt lat="43.74109" lon="7.01142">
        <ele>687</ele>
        <time>2011-07-16T14:28:14Z</time>
      </trkpt>
      <trkpt lat="43.74109" lon="7.01143">
        <ele>687</ele>
        <time>2011-07-16T14:28:15Z</time>
      </trkpt>
      <trkpt lat="43.74109" lon="7.01144">
        <ele>687</ele>
        <time>2011-07-16T14:28:16Z</time>
      </trkpt>
      <trkpt lat="43.74109" lon="7.01145">
        <ele>688</ele>
        <time>2011-07-16T14:28:17Z</time>
      </trkpt>
      <trkpt lat="43.74109" lon="7.01146">
        <ele>688</ele>
        <time>2011-07-16T14:28:18Z</time>
      </trkpt>
      <trkpt lat="43.74109" lon="7.01146">
        <ele>688</ele>
        <time>2011-07-16T14:28:19Z</time>
      </trkpt>
      <trkpt lat="43.74109" lon="7.01147">
        <ele>688</ele>
        <time>2011-07-16T14:28:20Z</time>
      </trkpt>
      <trkpt lat="43.74108" lon="7.01148">
        <ele>688</ele>
        <time>2011-07-16T14:28:21Z</time>
      </trkpt>
      <trkpt lat="43.74107" lon="7.01148">
        <ele>688</ele>
        <time>2011-07-16T14:28:22Z</time>
      </trkpt>
      <trkpt lat="43.74106" lon="7.01148">
        <ele>688</ele>
        <time>2011-07-16T14:28:23Z</time>
      </trkpt>
      <trkpt lat="43.74106" lon="7.01148">
        <ele>688</ele>
        <time>2011-07-16T14:28:24Z</time>
      </trkpt>
      <trkpt lat="43.74105" lon="7.01148">
        <ele>688</ele>
        <time>2011-07-16T14:28:25Z</time>
      </trkpt>
      <trkpt lat="43.74105" lon="7.01148">
        <ele>688</ele>
        <time>2011-07-16T14:28:26Z</time>
      </trkpt>
      <trkpt lat="43.74105" lon="7.01147">
        <ele>688</ele>
        <time>2011-07-16T14:28:27Z</time>
      </trkpt>
      <trkpt lat="43.74104" lon="7.01146">
        <ele>689</ele>
        <time>2011-07-16T14:28:28Z</time>
      </trkpt>
      <trkpt lat="43.74104" lon="7.01145">
        <ele>689</ele>
        <time>2011-07-16T14:28:29Z</time>
      </trkpt>
      <trkpt lat="43.74103" lon="7.01145">
        <ele>689</ele>
        <time>2011-07-16T14:28:30Z</time>
      </trkpt>
      <trkpt lat="43.74104" lon="7.01144">
        <ele>689</ele>
        <time>2011-07-16T14:28:31Z</time>
      </trkpt>
      <trkpt lat="43.74103" lon="7.01143">
        <ele>689</ele>
        <time>2011-07-16T14:28:32Z</time>
      </trkpt>
      <trkpt lat="43.74103" lon="7.01143">
        <ele>689</ele>
        <time>2011-07-16T14:28:33Z</time>
      </trkpt>
      <trkpt lat="43.74102" lon="7.01143">
        <ele>689</ele>
        <time>2011-07-16T14:28:34Z</time>
      </trkpt>
      <trkpt lat="43.74102" lon="7.01143">
        <ele>689</ele>
        <time>2011-07-16T14:28:35Z</time>
      </trkpt>
      <trkpt lat="43.74102" lon="7.01143">
        <ele>689</ele>
        <time>2011-07-16T14:28:36Z</time>
      </trkpt>
      <trkpt lat="43.74101" lon="7.01143">
        <ele>689</ele>
        <time>2011-07-16T14:28:37Z</time>
      </trkpt>
      <trkpt lat="43.74099" lon="7.01143">
        <ele>689</ele>
        <time>2011-07-16T14:28:39Z</time>
      </trkpt>
      <trkpt lat="43.74099" lon="7.01143">
        <ele>689</ele>
        <time>2011-07-16T14:28:40Z</time>
      </trkpt>
      <trkpt lat="43.74097" lon="7.01143">
        <ele>689</ele>
        <time>2011-07-16T14:28:43Z</time>
      </trkpt>
      <trkpt lat="43.74096" lon="7.01143">
        <ele>689</ele>
        <time>2011-07-16T14:28:44Z</time>
      </trkpt>
      <trkpt lat="43.74096" lon="7.01142">
        <ele>690</ele>
        <time>2011-07-16T14:28:45Z</time>
      </trkpt>
      <trkpt lat="43.74095" lon="7.01143">
        <ele>689</ele>
        <time>2011-07-16T14:28:46Z</time>
      </trkpt>
      <trkpt lat="43.74094" lon="7.01143">
        <ele>690</ele>
        <time>2011-07-16T14:28:47Z</time>
      </trkpt>
      <trkpt lat="43.74093" lon="7.01143">
        <ele>690</ele>
        <time>2011-07-16T14:28:49Z</time>
      </trkpt>
      <trkpt lat="43.74092" lon="7.01142">
        <ele>690</ele>
        <time>2011-07-16T14:28:51Z</time>
      </trkpt>
      <trkpt lat="43.74091" lon="7.01141">
        <ele>690</ele>
        <time>2011-07-16T14:28:52Z</time>
      </trkpt>
      <trkpt lat="43.7409" lon="7.01141">
        <ele>690</ele>
        <time>2011-07-16T14:28:53Z</time>
      </trkpt>
      <trkpt lat="43.7409" lon="7.0114">
        <ele>690</ele>
        <time>2011-07-16T14:28:54Z</time>
      </trkpt>
      <trkpt lat="43.74089" lon="7.0114">
        <ele>690</ele>
        <time>2011-07-16T14:28:55Z</time>
      </trkpt>
      <trkpt lat="43.74088" lon="7.0114">
        <ele>690</ele>
        <time>2011-07-16T14:28:56Z</time>
      </trkpt>
      <trkpt lat="43.74087" lon="7.0114">
        <ele>690</ele>
        <time>2011-07-16T14:28:57Z</time>
      </trkpt>
      <trkpt lat="43.74086" lon="7.01141">
        <ele>691</ele>
        <time>2011-07-16T14:28:58Z</time>
      </trkpt>
      <trkpt lat="43.74086" lon="7.01141">
        <ele>691</ele>
        <time>2011-07-16T14:28:59Z</time>
      </trkpt>
      <trkpt lat="43.74085" lon="7.01142">
        <ele>691</ele>
        <time>2011-07-16T14:29:00Z</time>
      </trkpt>
      <trkpt lat="43.74085" lon="7.01143">
        <ele>691</ele>
        <time>2011-07-16T14:29:01Z</time>
      </trkpt>
      <trkpt lat="43.74084" lon="7.01143">
        <ele>691</ele>
        <time>2011-07-16T14:29:02Z</time>
      </trkpt>
      <trkpt lat="43.74083" lon="7.01144">
        <ele>691</ele>
        <time>2011-07-16T14:29:03Z</time>
      </trkpt>
      <trkpt lat="43.74082" lon="7.01144">
        <ele>691</ele>
        <time>2011-07-16T14:29:04Z</time>
      </trkpt>
      <trkpt lat="43.74081" lon="7.01145">
        <ele>691</ele>
        <time>2011-07-16T14:29:05Z</time>
      </trkpt>
      <trkpt lat="43.74081" lon="7.01145">
        <ele>692</ele>
        <time>2011-07-16T14:29:06Z</time>
      </trkpt>
      <trkpt lat="43.7408" lon="7.01146">
        <ele>692</ele>
        <time>2011-07-16T14:29:07Z</time>
      </trkpt>
      <trkpt lat="43.7408" lon="7.01146">
        <ele>692</ele>
        <time>2011-07-16T14:29:08Z</time>
      </trkpt>
      <trkpt lat="43.74079" lon="7.01147">
        <ele>692</ele>
        <time>2011-07-16T14:29:09Z</time>
      </trkpt>
      <trkpt lat="43.74078" lon="7.01147">
        <ele>692</ele>
        <time>2011-07-16T14:29:10Z</time>
      </trkpt>
      <trkpt lat="43.74078" lon="7.01148">
        <ele>693</ele>
        <time>2011-07-16T14:29:12Z</time>
      </trkpt>
      <trkpt lat="43.74077" lon="7.01149">
        <ele>693</ele>
        <time>2011-07-16T14:29:13Z</time>
      </trkpt>
      <trkpt lat="43.74076" lon="7.01149">
        <ele>693</ele>
        <time>2011-07-16T14:29:14Z</time>
      </trkpt>
      <trkpt lat="43.74076" lon="7.01149">
        <ele>693</ele>
        <time>2011-07-16T14:29:15Z</time>
      </trkpt>
      <trkpt lat="43.74075" lon="7.01149">
        <ele>693</ele>
        <time>2011-07-16T14:29:16Z</time>
      </trkpt>
      <trkpt lat="43.74074" lon="7.0115">
        <ele>693</ele>
        <time>2011-07-16T14:29:17Z</time>
      </trkpt>
      <trkpt lat="43.74074" lon="7.0115">
        <ele>693</ele>
        <time>2011-07-16T14:29:18Z</time>
      </trkpt>
      <trkpt lat="43.74073" lon="7.0115">
        <ele>694</ele>
        <time>2011-07-16T14:29:19Z</time>
      </trkpt>
      <trkpt lat="43.74072" lon="7.01151">
        <ele>694</ele>
        <time>2011-07-16T14:29:20Z</time>
      </trkpt>
      <trkpt lat="43.74072" lon="7.01151">
        <ele>694</ele>
        <time>2011-07-16T14:29:21Z</time>
      </trkpt>
      <trkpt lat="43.74071" lon="7.01151">
        <ele>694</ele>
        <time>2011-07-16T14:29:22Z</time>
      </trkpt>
      <trkpt lat="43.74071" lon="7.01151">
        <ele>694</ele>
        <time>2011-07-16T14:29:23Z</time>
      </trkpt>
      <trkpt lat="43.7407" lon="7.01151">
        <ele>694</ele>
        <time>2011-07-16T14:29:24Z</time>
      </trkpt>
      <trkpt lat="43.74069" lon="7.01151">
        <ele>694</ele>
        <time>2011-07-16T14:29:25Z</time>
      </trkpt>
      <trkpt lat="43.74068" lon="7.01151">
        <ele>694</ele>
        <time>2011-07-16T14:29:26Z</time>
      </trkpt>
      <trkpt lat="43.74068" lon="7.01152">
        <ele>695</ele>
        <time>2011-07-16T14:29:27Z</time>
      </trkpt>
      <trkpt lat="43.74067" lon="7.01152">
        <ele>695</ele>
        <time>2011-07-16T14:29:28Z</time>
      </trkpt>
      <trkpt lat="43.74067" lon="7.01152">
        <ele>695</ele>
        <time>2011-07-16T14:29:29Z</time>
      </trkpt>
      <trkpt lat="43.74067" lon="7.01153">
        <ele>695</ele>
        <time>2011-07-16T14:29:30Z</time>
      </trkpt>
      <trkpt lat="43.74066" lon="7.01153">
        <ele>695</ele>
        <time>2011-07-16T14:29:31Z</time>
      </trkpt>
      <trkpt lat="43.74065" lon="7.01153">
        <ele>696</ele>
        <time>2011-07-16T14:29:32Z</time>
      </trkpt>
      <trkpt lat="43.74064" lon="7.01153">
        <ele>696</ele>
        <time>2011-07-16T14:29:33Z</time>
      </trkpt>
      <trkpt lat="43.74064" lon="7.01154">
        <ele>696</ele>
        <time>2011-07-16T14:29:34Z</time>
      </trkpt>
      <trkpt lat="43.74063" lon="7.01154">
        <ele>696</ele>
        <time>2011-07-16T14:29:35Z</time>
      </trkpt>
      <trkpt lat="43.74063" lon="7.01154">
        <ele>696</ele>
        <time>2011-07-16T14:29:36Z</time>
      </trkpt>
      <trkpt lat="43.74062" lon="7.01156">
        <ele>696</ele>
        <time>2011-07-16T14:29:38Z</time>
      </trkpt>
      <trkpt lat="43.74061" lon="7.01156">
        <ele>697</ele>
        <time>2011-07-16T14:29:39Z</time>
      </trkpt>
      <trkpt lat="43.74061" lon="7.01157">
        <ele>697</ele>
        <time>2011-07-16T14:29:40Z</time>
      </trkpt>
      <trkpt lat="43.7406" lon="7.01158">
        <ele>697</ele>
        <time>2011-07-16T14:29:41Z</time>
      </trkpt>
      <trkpt lat="43.7406" lon="7.01158">
        <ele>697</ele>
        <time>2011-07-16T14:29:42Z</time>
      </trkpt>
      <trkpt lat="43.74059" lon="7.01158">
        <ele>697</ele>
        <time>2011-07-16T14:29:43Z</time>
      </trkpt>
      <trkpt lat="43.74058" lon="7.01159">
        <ele>697</ele>
        <time>2011-07-16T14:29:44Z</time>
      </trkpt>
      <trkpt lat="43.74058" lon="7.01159">
        <ele>697</ele>
        <time>2011-07-16T14:29:45Z</time>
      </trkpt>
      <trkpt lat="43.74057" lon="7.0116">
        <ele>697</ele>
        <time>2011-07-16T14:29:46Z</time>
      </trkpt>
      <trkpt lat="43.74057" lon="7.01161">
        <ele>697</ele>
        <time>2011-07-16T14:29:47Z</time>
      </trkpt>
      <trkpt lat="43.74057" lon="7.01161">
        <ele>697</ele>
        <time>2011-07-16T14:29:48Z</time>
      </trkpt>
      <trkpt lat="43.74056" lon="7.01162">
        <ele>698</ele>
        <time>2011-07-16T14:29:49Z</time>
      </trkpt>
      <trkpt lat="43.74055" lon="7.01162">
        <ele>698</ele>
        <time>2011-07-16T14:29:50Z</time>
      </trkpt>
      <trkpt lat="43.74055" lon="7.01162">
        <ele>698</ele>
        <time>2011-07-16T14:29:51Z</time>
      </trkpt>
      <trkpt lat="43.74054" lon="7.01162">
        <ele>698</ele>
        <time>2011-07-16T14:29:52Z</time>
      </trkpt>
      <trkpt lat="43.74053" lon="7.01162">
        <ele>698</ele>
        <time>2011-07-16T14:29:53Z</time>
      </trkpt>
      <trkpt lat="43.74053" lon="7.01162">
        <ele>698</ele>
        <time>2011-07-16T14:29:54Z</time>
      </trkpt>
      <trkpt lat="43.74052" lon="7.01162">
        <ele>699</ele>
        <time>2011-07-16T14:29:55Z</time>
      </trkpt>
      <trkpt lat="43.74051" lon="7.01162">
        <ele>699</ele>
        <time>2011-07-16T14:29:56Z</time>
      </trkpt>
      <trkpt lat="43.74049" lon="7.01163">
        <ele>699</ele>
        <time>2011-07-16T14:29:58Z</time>
      </trkpt>
      <trkpt lat="43.74049" lon="7.01163">
        <ele>699</ele>
        <time>2011-07-16T14:29:59Z</time>
      </trkpt>
      <trkpt lat="43.74048" lon="7.01163">
        <ele>700</ele>
        <time>2011-07-16T14:30:00Z</time>
      </trkpt>
      <trkpt lat="43.74047" lon="7.01164">
        <ele>700</ele>
        <time>2011-07-16T14:30:01Z</time>
      </trkpt>
      <trkpt lat="43.74047" lon="7.01164">
        <ele>700</ele>
        <time>2011-07-16T14:30:02Z</time>
      </trkpt>
      <trkpt lat="43.74045" lon="7.01165">
        <ele>700</ele>
        <time>2011-07-16T14:30:04Z</time>
      </trkpt>
      <trkpt lat="43.74045" lon="7.01166">
        <ele>700</ele>
        <time>2011-07-16T14:30:05Z</time>
      </trkpt>
      <trkpt lat="43.74044" lon="7.01167">
        <ele>700</ele>
        <time>2011-07-16T14:30:06Z</time>
      </trkpt>
      <trkpt lat="43.74044" lon="7.01167">
        <ele>700</ele>
        <time>2011-07-16T14:30:07Z</time>
      </trkpt>
      <trkpt lat="43.74044" lon="7.01168">
        <ele>700</ele>
        <time>2011-07-16T14:30:08Z</time>
      </trkpt>
      <trkpt lat="43.74043" lon="7.01168">
        <ele>700</ele>
        <time>2011-07-16T14:30:11Z</time>
      </trkpt>
      <trkpt lat="43.74044" lon="7.01169">
        <ele>700</ele>
        <time>2011-07-16T14:31:00Z</time>
      </trkpt>
      <trkpt lat="43.74043" lon="7.01169">
        <ele>700</ele>
        <time>2011-07-16T14:31:01Z</time>
      </trkpt>
      <trkpt lat="43.74043" lon="7.0117">
        <ele>700</ele>
        <time>2011-07-16T14:31:02Z</time>
      </trkpt>
      <trkpt lat="43.74042" lon="7.01171">
        <ele>700</ele>
        <time>2011-07-16T14:31:03Z</time>
      </trkpt>
      <trkpt lat="43.74041" lon="7.01172">
        <ele>700</ele>
        <time>2011-07-16T14:31:04Z</time>
      </trkpt>
      <trkpt lat="43.74039" lon="7.01174">
        <ele>700</ele>
        <time>2011-07-16T14:31:07Z</time>
      </trkpt>
      <trkpt lat="43.74038" lon="7.01175">
        <ele>701</ele>
        <time>2011-07-16T14:31:08Z</time>
      </trkpt>
      <trkpt lat="43.74038" lon="7.01176">
        <ele>701</ele>
        <time>2011-07-16T14:31:09Z</time>
      </trkpt>
      <trkpt lat="43.74037" lon="7.01176">
        <ele>700</ele>
        <time>2011-07-16T14:31:10Z</time>
      </trkpt>
      <trkpt lat="43.74037" lon="7.01177">
        <ele>701</ele>
        <time>2011-07-16T14:31:11Z</time>
      </trkpt>
      <trkpt lat="43.74036" lon="7.01178">
        <ele>701</ele>
        <time>2011-07-16T14:31:12Z</time>
      </trkpt>
      <trkpt lat="43.74036" lon="7.01178">
        <ele>701</ele>
        <time>2011-07-16T14:31:13Z</time>
      </trkpt>
      <trkpt lat="43.74035" lon="7.01179">
        <ele>701</ele>
        <time>2011-07-16T14:31:14Z</time>
      </trkpt>
      <trkpt lat="43.74034" lon="7.01181">
        <ele>701</ele>
        <time>2011-07-16T14:31:16Z</time>
      </trkpt>
      <trkpt lat="43.74033" lon="7.01181">
        <ele>701</ele>
        <time>2011-07-16T14:31:17Z</time>
      </trkpt>
      <trkpt lat="43.74032" lon="7.01181">
        <ele>701</ele>
        <time>2011-07-16T14:31:18Z</time>
      </trkpt>
      <trkpt lat="43.74032" lon="7.01181">
        <ele>701</ele>
        <time>2011-07-16T14:31:19Z</time>
      </trkpt>
      <trkpt lat="43.74031" lon="7.01182">
        <ele>701</ele>
        <time>2011-07-16T14:31:20Z</time>
      </trkpt>
      <trkpt lat="43.74031" lon="7.01183">
        <ele>701</ele>
        <time>2011-07-16T14:31:21Z</time>
      </trkpt>
      <trkpt lat="43.7403" lon="7.01184">
        <ele>701</ele>
        <time>2011-07-16T14:31:22Z</time>
      </trkpt>
      <trkpt lat="43.74029" lon="7.01185">
        <ele>701</ele>
        <time>2011-07-16T14:31:23Z</time>
      </trkpt>
      <trkpt lat="43.74028" lon="7.01186">
        <ele>701</ele>
        <time>2011-07-16T14:31:24Z</time>
      </trkpt>
      <trkpt lat="43.74027" lon="7.01187">
        <ele>701</ele>
        <time>2011-07-16T14:31:25Z</time>
      </trkpt>
      <trkpt lat="43.74026" lon="7.01188">
        <ele>701</ele>
        <time>2011-07-16T14:31:26Z</time>
      </trkpt>
      <trkpt lat="43.74024" lon="7.01191">
        <ele>701</ele>
        <time>2011-07-16T14:31:28Z</time>
      </trkpt>
      <trkpt lat="43.74023" lon="7.01193">
        <ele>701</ele>
        <time>2011-07-16T14:31:29Z</time>
      </trkpt>
      <trkpt lat="43.74022" lon="7.01194">
        <ele>702</ele>
        <time>2011-07-16T14:31:30Z</time>
      </trkpt>
      <trkpt lat="43.7402" lon="7.01196">
        <ele>702</ele>
        <time>2011-07-16T14:31:31Z</time>
      </trkpt>
      <trkpt lat="43.74019" lon="7.01198">
        <ele>702</ele>
        <time>2011-07-16T14:31:32Z</time>
      </trkpt>
      <trkpt lat="43.74018" lon="7.01199">
        <ele>702</ele>
        <time>2011-07-16T14:31:33Z</time>
      </trkpt>
      <trkpt lat="43.74016" lon="7.012">
        <ele>702</ele>
        <time>2011-07-16T14:31:34Z</time>
      </trkpt>
      <trkpt lat="43.74015" lon="7.01202">
        <ele>702</ele>
        <time>2011-07-16T14:31:35Z</time>
      </trkpt>
      <trkpt lat="43.74014" lon="7.01203">
        <ele>702</ele>
        <time>2011-07-16T14:31:36Z</time>
      </trkpt>
      <trkpt lat="43.74012" lon="7.01204">
        <ele>702</ele>
        <time>2011-07-16T14:31:37Z</time>
      </trkpt>
      <trkpt lat="43.74011" lon="7.01205">
        <ele>702</ele>
        <time>2011-07-16T14:31:38Z</time>
      </trkpt>
      <trkpt lat="43.7401" lon="7.01207">
        <ele>703</ele>
        <time>2011-07-16T14:31:39Z</time>
      </trkpt>
      <trkpt lat="43.74008" lon="7.0121">
        <ele>703</ele>
        <time>2011-07-16T14:31:41Z</time>
      </trkpt>
      <trkpt lat="43.74006" lon="7.01212">
        <ele>703</ele>
        <time>2011-07-16T14:31:42Z</time>
      </trkpt>
      <trkpt lat="43.74006" lon="7.01213">
        <ele>704</ele>
        <time>2011-07-16T14:31:43Z</time>
      </trkpt>
      <trkpt lat="43.74005" lon="7.01215">
        <ele>704</ele>
        <time>2011-07-16T14:31:44Z</time>
      </trkpt>
      <trkpt lat="43.74004" lon="7.01217">
        <ele>704</ele>
        <time>2011-07-16T14:31:45Z</time>
      </trkpt>
      <trkpt lat="43.74004" lon="7.01219">
        <ele>704</ele>
        <time>2011-07-16T14:31:46Z</time>
      </trkpt>
      <trkpt lat="43.74003" lon="7.01221">
        <ele>704</ele>
        <time>2011-07-16T14:31:47Z</time>
      </trkpt>
      <trkpt lat="43.74002" lon="7.01223">
        <ele>704</ele>
        <time>2011-07-16T14:31:48Z</time>
      </trkpt>
      <trkpt lat="43.74002" lon="7.01225">
        <ele>704</ele>
        <time>2011-07-16T14:31:49Z</time>
      </trkpt>
      <trkpt lat="43.74001" lon="7.0123">
        <ele>705</ele>
        <time>2011-07-16T14:31:51Z</time>
      </trkpt>
      <trkpt lat="43.74001" lon="7.01232">
        <ele>705</ele>
        <time>2011-07-16T14:31:52Z</time>
      </trkpt>
      <trkpt lat="43.74001" lon="7.01234">
        <ele>705</ele>
        <time>2011-07-16T14:31:53Z</time>
      </trkpt>
      <trkpt lat="43.74" lon="7.01236">
        <ele>705</ele>
        <time>2011-07-16T14:31:54Z</time>
      </trkpt>
      <trkpt lat="43.73999" lon="7.01238">
        <ele>705</ele>
        <time>2011-07-16T14:31:55Z</time>
      </trkpt>
      <trkpt lat="43.73999" lon="7.01241">
        <ele>706</ele>
        <time>2011-07-16T14:31:56Z</time>
      </trkpt>
      <trkpt lat="43.73998" lon="7.01244">
        <ele>706</ele>
        <time>2011-07-16T14:31:58Z</time>
      </trkpt>
      <trkpt lat="43.73997" lon="7.01246">
        <ele>706</ele>
        <time>2011-07-16T14:31:59Z</time>
      </trkpt>
      <trkpt lat="43.73997" lon="7.01248">
        <ele>706</ele>
        <time>2011-07-16T14:32:00Z</time>
      </trkpt>
      <trkpt lat="43.73996" lon="7.0125">
        <ele>706</ele>
        <time>2011-07-16T14:32:01Z</time>
      </trkpt>
      <trkpt lat="43.73995" lon="7.01252">
        <ele>706</ele>
        <time>2011-07-16T14:32:02Z</time>
      </trkpt>
      <trkpt lat="43.73994" lon="7.01254">
        <ele>706</ele>
        <time>2011-07-16T14:32:03Z</time>
      </trkpt>
      <trkpt lat="43.73993" lon="7.01255">
        <ele>706</ele>
        <time>2011-07-16T14:32:04Z</time>
      </trkpt>
      <trkpt lat="43.73993" lon="7.01256">
        <ele>707</ele>
        <time>2011-07-16T14:32:05Z</time>
      </trkpt>
      <trkpt lat="43.73992" lon="7.01258">
        <ele>707</ele>
        <time>2011-07-16T14:32:06Z</time>
      </trkpt>
      <trkpt lat="43.73991" lon="7.0126">
        <ele>707</ele>
        <time>2011-07-16T14:32:07Z</time>
      </trkpt>
      <trkpt lat="43.7399" lon="7.01261">
        <ele>707</ele>
        <time>2011-07-16T14:32:08Z</time>
      </trkpt>
      <trkpt lat="43.7399" lon="7.01262">
        <ele>707</ele>
        <time>2011-07-16T14:32:09Z</time>
      </trkpt>
      <trkpt lat="43.73989" lon="7.01263">
        <ele>707</ele>
        <time>2011-07-16T14:32:10Z</time>
      </trkpt>
      <trkpt lat="43.73988" lon="7.01265">
        <ele>707</ele>
        <time>2011-07-16T14:32:11Z</time>
      </trkpt>
      <trkpt lat="43.73987" lon="7.01267">
        <ele>707</ele>
        <time>2011-07-16T14:32:12Z</time>
      </trkpt>
      <trkpt lat="43.73986" lon="7.01268">
        <ele>707</ele>
        <time>2011-07-16T14:32:13Z</time>
      </trkpt>
      <trkpt lat="43.73984" lon="7.01271">
        <ele>707</ele>
        <time>2011-07-16T14:32:15Z</time>
      </trkpt>
      <trkpt lat="43.73983" lon="7.01272">
        <ele>707</ele>
        <time>2011-07-16T14:32:16Z</time>
      </trkpt>
      <trkpt lat="43.73983" lon="7.01272">
        <ele>707</ele>
        <time>2011-07-16T14:32:18Z</time>
      </trkpt>
      <trkpt lat="43.73983" lon="7.01272">
        <ele>707</ele>
        <time>2011-07-16T14:32:20Z</time>
      </trkpt>
      <trkpt lat="43.73982" lon="7.01272">
        <ele>707</ele>
        <time>2011-07-16T14:32:21Z</time>
      </trkpt>
      <trkpt lat="43.73982" lon="7.01272">
        <ele>708</ele>
        <time>2011-07-16T14:32:22Z</time>
      </trkpt>
      <trkpt lat="43.73982" lon="7.01273">
        <ele>708</ele>
        <time>2011-07-16T14:32:23Z</time>
      </trkpt>
      <trkpt lat="43.73982" lon="7.01274">
        <ele>709</ele>
        <time>2011-07-16T14:32:24Z</time>
      </trkpt>
      <trkpt lat="43.73981" lon="7.01275">
        <ele>709</ele>
        <time>2011-07-16T14:32:25Z</time>
      </trkpt>
      <trkpt lat="43.73982" lon="7.01275">
        <ele>709</ele>
        <time>2011-07-16T14:32:26Z</time>
      </trkpt>
      <trkpt lat="43.73982" lon="7.01276">
        <ele>709</ele>
        <time>2011-07-16T14:32:27Z</time>
      </trkpt>
      <trkpt lat="43.73981" lon="7.01278">
        <ele>709</ele>
        <time>2011-07-16T14:32:28Z</time>
      </trkpt>
      <trkpt lat="43.73981" lon="7.01278">
        <ele>709</ele>
        <time>2011-07-16T14:32:29Z</time>
      </trkpt>
      <trkpt lat="43.73981" lon="7.01279">
        <ele>709</ele>
        <time>2011-07-16T14:32:30Z</time>
      </trkpt>
      <trkpt lat="43.73981" lon="7.0128">
        <ele>709</ele>
        <time>2011-07-16T14:32:31Z</time>
      </trkpt>
      <trkpt lat="43.7398" lon="7.01281">
        <ele>709</ele>
        <time>2011-07-16T14:32:32Z</time>
      </trkpt>
      <trkpt lat="43.7398" lon="7.01282">
        <ele>710</ele>
        <time>2011-07-16T14:32:33Z</time>
      </trkpt>
      <trkpt lat="43.73979" lon="7.01283">
        <ele>710</ele>
        <time>2011-07-16T14:32:34Z</time>
      </trkpt>
      <trkpt lat="43.73979" lon="7.01285">
        <ele>710</ele>
        <time>2011-07-16T14:32:35Z</time>
      </trkpt>
      <trkpt lat="43.73979" lon="7.01286">
        <ele>710</ele>
        <time>2011-07-16T14:32:36Z</time>
      </trkpt>
      <trkpt lat="43.73978" lon="7.01287">
        <ele>710</ele>
        <time>2011-07-16T14:32:37Z</time>
      </trkpt>
      <trkpt lat="43.73978" lon="7.01288">
        <ele>710</ele>
        <time>2011-07-16T14:32:39Z</time>
      </trkpt>
      <trkpt lat="43.73978" lon="7.01288">
        <ele>710</ele>
        <time>2011-07-16T14:32:40Z</time>
      </trkpt>
      <trkpt lat="43.73978" lon="7.01289">
        <ele>710</ele>
        <time>2011-07-16T14:32:42Z</time>
      </trkpt>
      <trkpt lat="43.7398" lon="7.01289">
        <ele>711</ele>
        <time>2011-07-16T14:32:44Z</time>
      </trkpt>
      <trkpt lat="43.7398" lon="7.01289">
        <ele>711</ele>
        <time>2011-07-16T14:32:46Z</time>
      </trkpt>
      <trkpt lat="43.7398" lon="7.01289">
        <ele>711</ele>
        <time>2011-07-16T14:32:47Z</time>
      </trkpt>
      <trkpt lat="43.7398" lon="7.0129">
        <ele>711</ele>
        <time>2011-07-16T14:32:52Z</time>
      </trkpt>
      <trkpt lat="43.73979" lon="7.0129">
        <ele>711</ele>
        <time>2011-07-16T14:32:53Z</time>
      </trkpt>
      <trkpt lat="43.73978" lon="7.0129">
        <ele>711</ele>
        <time>2011-07-16T14:32:54Z</time>
      </trkpt>
      <trkpt lat="43.73978" lon="7.0129">
        <ele>711</ele>
        <time>2011-07-16T14:32:55Z</time>
      </trkpt>
      <trkpt lat="43.73977" lon="7.0129">
        <ele>711</ele>
        <time>2011-07-16T14:32:56Z</time>
      </trkpt>
      <trkpt lat="43.73977" lon="7.0129">
        <ele>711</ele>
        <time>2011-07-16T14:33:05Z</time>
      </trkpt>
      <trkpt lat="43.73977" lon="7.0129">
        <ele>711</ele>
        <time>2011-07-16T14:33:06Z</time>
      </trkpt>
      <trkpt lat="43.73977" lon="7.01289">
        <ele>711</ele>
        <time>2011-07-16T14:33:07Z</time>
      </trkpt>
      <trkpt lat="43.73977" lon="7.01289">
        <ele>711</ele>
        <time>2011-07-16T14:33:08Z</time>
      </trkpt>
      <trkpt lat="43.73977" lon="7.01288">
        <ele>711</ele>
        <time>2011-07-16T14:33:15Z</time>
      </trkpt>
      <trkpt lat="43.73977" lon="7.01289">
        <ele>711</ele>
        <time>2011-07-16T14:33:16Z</time>
      </trkpt>
      <trkpt lat="43.73977" lon="7.01289">
        <ele>711</ele>
        <time>2011-07-16T14:33:17Z</time>
      </trkpt>
      <trkpt lat="43.73977" lon="7.0129">
        <ele>712</ele>
        <time>2011-07-16T14:33:18Z</time>
      </trkpt>
      <trkpt lat="43.73977" lon="7.0129">
        <ele>712</ele>
        <time>2011-07-16T14:33:24Z</time>
      </trkpt>
      <trkpt lat="43.73978" lon="7.01291">
        <ele>711</ele>
        <time>2011-07-16T14:33:25Z</time>
      </trkpt>
      <trkpt lat="43.73978" lon="7.0129">
        <ele>712</ele>
        <time>2011-07-16T14:33:26Z</time>
      </trkpt>
      <trkpt lat="43.7398" lon="7.0129">
        <ele>712</ele>
        <time>2011-07-16T14:33:27Z</time>
      </trkpt>
      <trkpt lat="43.73981" lon="7.01289">
        <ele>712</ele>
        <time>2011-07-16T14:33:28Z</time>
      </trkpt>
      <trkpt lat="43.73982" lon="7.01289">
        <ele>712</ele>
        <time>2011-07-16T14:33:29Z</time>
      </trkpt>
      <trkpt lat="43.73983" lon="7.01288">
        <ele>712</ele>
        <time>2011-07-16T14:33:30Z</time>
      </trkpt>
      <trkpt lat="43.73983" lon="7.01288">
        <ele>712</ele>
        <time>2011-07-16T14:33:31Z</time>
      </trkpt>
      <trkpt lat="43.73983" lon="7.01288">
        <ele>712</ele>
        <time>2011-07-16T14:33:33Z</time>
      </trkpt>
      <trkpt lat="43.73982" lon="7.01289">
        <ele>712</ele>
        <time>2011-07-16T14:33:34Z</time>
      </trkpt>
      <trkpt lat="43.73981" lon="7.01289">
        <ele>712</ele>
        <time>2011-07-16T14:33:35Z</time>
      </trkpt>
      <trkpt lat="43.7398" lon="7.0129">
        <ele>712</ele>
        <time>2011-07-16T14:33:36Z</time>
      </trkpt>
      <trkpt lat="43.73978" lon="7.01292">
        <ele>712</ele>
        <time>2011-07-16T14:33:37Z</time>
      </trkpt>
      <trkpt lat="43.73977" lon="7.01293">
        <ele>712</ele>
        <time>2011-07-16T14:33:38Z</time>
      </trkpt>
      <trkpt lat="43.73977" lon="7.01293">
        <ele>712</ele>
        <time>2011-07-16T14:33:40Z</time>
      </trkpt>
      <trkpt lat="43.73977" lon="7.01293">
        <ele>712</ele>
        <time>2011-07-16T14:33:41Z</time>
      </trkpt>
      <trkpt lat="43.73976" lon="7.01293">
        <ele>712</ele>
        <time>2011-07-16T14:33:47Z</time>
      </trkpt>
      <trkpt lat="43.73976" lon="7.01293">
        <ele>712</ele>
        <time>2011-07-16T14:33:49Z</time>
      </trkpt>
      <trkpt lat="43.73976" lon="7.01294">
        <ele>712</ele>
        <time>2011-07-16T14:33:50Z</time>
      </trkpt>
      <trkpt lat="43.73976" lon="7.01295">
        <ele>712</ele>
        <time>2011-07-16T14:33:55Z</time>
      </trkpt>
      <trkpt lat="43.73976" lon="7.01295">
        <ele>712</ele>
        <time>2011-07-16T14:33:56Z</time>
      </trkpt>
      <trkpt lat="43.73976" lon="7.01295">
        <ele>712</ele>
        <time>2011-07-16T14:34:04Z</time>
      </trkpt>
      <trkpt lat="43.73976" lon="7.01295">
        <ele>712</ele>
        <time>2011-07-16T14:34:05Z</time>
      </trkpt>
      <trkpt lat="43.73978" lon="7.01295">
        <ele>712</ele>
        <time>2011-07-16T14:34:07Z</time>
      </trkpt>
      <trkpt lat="43.73979" lon="7.01295">
        <ele>712</ele>
        <time>2011-07-16T14:34:08Z</time>
      </trkpt>
      <trkpt lat="43.7398" lon="7.01294">
        <ele>712</ele>
        <time>2011-07-16T14:34:09Z</time>
      </trkpt>
      <trkpt lat="43.73978" lon="7.01296">
        <ele>712</ele>
        <time>2011-07-16T14:34:12Z</time>
      </trkpt>
      <trkpt lat="43.73978" lon="7.01296">
        <ele>712</ele>
        <time>2011-07-16T14:34:14Z</time>
      </trkpt>
      <trkpt lat="43.73979" lon="7.01296">
        <ele>712</ele>
        <time>2011-07-16T14:34:15Z</time>
      </trkpt>
      <trkpt lat="43.7398" lon="7.01296">
        <ele>712</ele>
        <time>2011-07-16T14:34:16Z</time>
      </trkpt>
      <trkpt lat="43.73981" lon="7.01296">
        <ele>712</ele>
        <time>2011-07-16T14:34:17Z</time>
      </trkpt>
      <trkpt lat="43.73981" lon="7.01296">
        <ele>712</ele>
        <time>2011-07-16T14:34:18Z</time>
      </trkpt>
      <trkpt lat="43.73981" lon="7.01296">
        <ele>712</ele>
        <time>2011-07-16T14:34:19Z</time>
      </trkpt>
      <trkpt lat="43.73977" lon="7.01297">
        <ele>712</ele>
        <time>2011-07-16T14:34:21Z</time>
      </trkpt>
      <trkpt lat="43.73976" lon="7.01297">
        <ele>712</ele>
        <time>2011-07-16T14:35:18Z</time>
      </trkpt>
      <trkpt lat="43.73977" lon="7.01298">
        <ele>712</ele>
        <time>2011-07-16T14:35:19Z</time>
      </trkpt>
      <trkpt lat="43.73978" lon="7.01298">
        <ele>712</ele>
        <time>2011-07-16T14:35:20Z</time>
      </trkpt>
      <trkpt lat="43.73978" lon="7.01298">
        <ele>712</ele>
        <time>2011-07-16T14:35:21Z</time>
      </trkpt>
      <trkpt lat="43.73978" lon="7.01297">
        <ele>712</ele>
        <time>2011-07-16T14:35:44Z</time>
      </trkpt>
      <trkpt lat="43.73978" lon="7.01297">
        <ele>712</ele>
        <time>2011-07-16T14:36:34Z</time>
      </trkpt>
      <trkpt lat="43.73977" lon="7.01299">
        <ele>712</ele>
        <time>2011-07-16T14:36:35Z</time>
      </trkpt>
      <trkpt lat="43.73977" lon="7.013">
        <ele>712</ele>
        <time>2011-07-16T14:36:36Z</time>
      </trkpt>
      <trkpt lat="43.73977" lon="7.013">
        <ele>711</ele>
        <time>2011-07-16T14:37:03Z</time>
      </trkpt>
      <trkpt lat="43.73977" lon="7.013">
        <ele>711</ele>
        <time>2011-07-16T14:37:04Z</time>
      </trkpt>
      <trkpt lat="43.73977" lon="7.01299">
        <ele>711</ele>
        <time>2011-07-16T14:37:05Z</time>
      </trkpt>
      <trkpt lat="43.73977" lon="7.01298">
        <ele>711</ele>
        <time>2011-07-16T14:37:06Z</time>
      </trkpt>
      <trkpt lat="43.73978" lon="7.01295">
        <ele>711</ele>
        <time>2011-07-16T14:37:07Z</time>
      </trkpt>
      <trkpt lat="43.73978" lon="7.01292">
        <ele>711</ele>
        <time>2011-07-16T14:37:08Z</time>
      </trkpt>
      <trkpt lat="43.73978" lon="7.0129">
        <ele>711</ele>
        <time>2011-07-16T14:37:45Z</time>
      </trkpt>
      <trkpt lat="43.73978" lon="7.01291">
        <ele>711</ele>
        <time>2011-07-16T14:37:46Z</time>
      </trkpt>
      <trkpt lat="43.73978" lon="7.01291">
        <ele>711</ele>
        <time>2011-07-16T14:38:01Z</time>
      </trkpt>
      <trkpt lat="43.73978" lon="7.01291">
        <ele>711</ele>
        <time>2011-07-16T14:38:02Z</time>
      </trkpt>
      <trkpt lat="43.73977" lon="7.01292">
        <ele>711</ele>
        <time>2011-07-16T14:38:03Z</time>
      </trkpt>
      <trkpt lat="43.73976" lon="7.01292">
        <ele>711</ele>
        <time>2011-07-16T14:38:04Z</time>
      </trkpt>
      <trkpt lat="43.73975" lon="7.01292">
        <ele>711</ele>
        <time>2011-07-16T14:38:05Z</time>
      </trkpt>
      <trkpt lat="43.73974" lon="7.01291">
        <ele>711</ele>
        <time>2011-07-16T14:38:06Z</time>
      </trkpt>
      <trkpt lat="43.73973" lon="7.0129">
        <ele>711</ele>
        <time>2011-07-16T14:38:07Z</time>
      </trkpt>
      <trkpt lat="43.73971" lon="7.01289">
        <ele>712</ele>
        <time>2011-07-16T14:38:08Z</time>
      </trkpt>
      <trkpt lat="43.7397" lon="7.01289">
        <ele>712</ele>
        <time>2011-07-16T14:38:09Z</time>
      </trkpt>
      <trkpt lat="43.73967" lon="7.01288">
        <ele>713</ele>
        <time>2011-07-16T14:38:11Z</time>
      </trkpt>
      <trkpt lat="43.73966" lon="7.01287">
        <ele>713</ele>
        <time>2011-07-16T14:38:12Z</time>
      </trkpt>
      <trkpt lat="43.73964" lon="7.01286">
        <ele>714</ele>
        <time>2011-07-16T14:38:13Z</time>
      </trkpt>
      <trkpt lat="43.73963" lon="7.01286">
        <ele>714</ele>
        <time>2011-07-16T14:38:14Z</time>
      </trkpt>
      <trkpt lat="43.73962" lon="7.01287">
        <ele>715</ele>
        <time>2011-07-16T14:38:15Z</time>
      </trkpt>
      <trkpt lat="43.7396" lon="7.01287">
        <ele>715</ele>
        <time>2011-07-16T14:38:16Z</time>
      </trkpt>
      <trkpt lat="43.73959" lon="7.01288">
        <ele>715</ele>
        <time>2011-07-16T14:38:17Z</time>
      </trkpt>
      <trkpt lat="43.73958" lon="7.01289">
        <ele>715</ele>
        <time>2011-07-16T14:38:18Z</time>
      </trkpt>
      <trkpt lat="43.73957" lon="7.01289">
        <ele>715</ele>
        <time>2011-07-16T14:38:19Z</time>
      </trkpt>
      <trkpt lat="43.73956" lon="7.0129">
        <ele>715</ele>
        <time>2011-07-16T14:38:20Z</time>
      </trkpt>
      <trkpt lat="43.73955" lon="7.0129">
        <ele>715</ele>
        <time>2011-07-16T14:38:21Z</time>
      </trkpt>
      <trkpt lat="43.73954" lon="7.0129">
        <ele>715</ele>
        <time>2011-07-16T14:38:22Z</time>
      </trkpt>
      <trkpt lat="43.73953" lon="7.01291">
        <ele>715</ele>
        <time>2011-07-16T14:38:23Z</time>
      </trkpt>
      <trkpt lat="43.73952" lon="7.01292">
        <ele>716</ele>
        <time>2011-07-16T14:38:24Z</time>
      </trkpt>
      <trkpt lat="43.73951" lon="7.01294">
        <ele>716</ele>
        <time>2011-07-16T14:38:26Z</time>
      </trkpt>
      <trkpt lat="43.73953" lon="7.01294">
        <ele>717</ele>
        <time>2011-07-16T14:38:27Z</time>
      </trkpt>
      <trkpt lat="43.73951" lon="7.01295">
        <ele>718</ele>
        <time>2011-07-16T14:38:28Z</time>
      </trkpt>
      <trkpt lat="43.73949" lon="7.01296">
        <ele>718</ele>
        <time>2011-07-16T14:38:29Z</time>
      </trkpt>
      <trkpt lat="43.73949" lon="7.01298">
        <ele>719</ele>
        <time>2011-07-16T14:38:30Z</time>
      </trkpt>
      <trkpt lat="43.73948" lon="7.013">
        <ele>719</ele>
        <time>2011-07-16T14:38:31Z</time>
      </trkpt>
      <trkpt lat="43.73947" lon="7.01302">
        <ele>719</ele>
        <time>2011-07-16T14:38:32Z</time>
      </trkpt>
      <trkpt lat="43.73945" lon="7.01303">
        <ele>719</ele>
        <time>2011-07-16T14:38:33Z</time>
      </trkpt>
      <trkpt lat="43.73942" lon="7.01305">
        <ele>720</ele>
        <time>2011-07-16T14:38:36Z</time>
      </trkpt>
      <trkpt lat="43.73942" lon="7.01306">
        <ele>719</ele>
        <time>2011-07-16T14:38:37Z</time>
      </trkpt>
      <trkpt lat="43.73941" lon="7.01306">
        <ele>719</ele>
        <time>2011-07-16T14:38:38Z</time>
      </trkpt>
      <trkpt lat="43.73939" lon="7.01307">
        <ele>719</ele>
        <time>2011-07-16T14:38:39Z</time>
      </trkpt>
      <trkpt lat="43.73938" lon="7.01307">
        <ele>720</ele>
        <time>2011-07-16T14:38:40Z</time>
      </trkpt>
      <trkpt lat="43.73937" lon="7.01307">
        <ele>720</ele>
        <time>2011-07-16T14:38:41Z</time>
      </trkpt>
      <trkpt lat="43.73935" lon="7.01307">
        <ele>720</ele>
        <time>2011-07-16T14:38:42Z</time>
      </trkpt>
      <trkpt lat="43.73932" lon="7.01307">
        <ele>720</ele>
        <time>2011-07-16T14:38:44Z</time>
      </trkpt>
      <trkpt lat="43.73931" lon="7.01308">
        <ele>720</ele>
        <time>2011-07-16T14:38:45Z</time>
      </trkpt>
      <trkpt lat="43.73929" lon="7.01308">
        <ele>720</ele>
        <time>2011-07-16T14:38:46Z</time>
      </trkpt>
      <trkpt lat="43.73928" lon="7.01308">
        <ele>720</ele>
        <time>2011-07-16T14:38:47Z</time>
      </trkpt>
      <trkpt lat="43.73927" lon="7.01308">
        <ele>720</ele>
        <time>2011-07-16T14:38:48Z</time>
      </trkpt>
      <trkpt lat="43.73921" lon="7.01308">
        <ele>720</ele>
        <time>2011-07-16T14:38:52Z</time>
      </trkpt>
      <trkpt lat="43.7392" lon="7.01308">
        <ele>721</ele>
        <time>2011-07-16T14:38:53Z</time>
      </trkpt>
      <trkpt lat="43.73918" lon="7.01308">
        <ele>722</ele>
        <time>2011-07-16T14:38:54Z</time>
      </trkpt>
      <trkpt lat="43.73917" lon="7.01309">
        <ele>722</ele>
        <time>2011-07-16T14:38:55Z</time>
      </trkpt>
      <trkpt lat="43.73916" lon="7.01309">
        <ele>722</ele>
        <time>2011-07-16T14:38:56Z</time>
      </trkpt>
      <trkpt lat="43.73915" lon="7.01309">
        <ele>722</ele>
        <time>2011-07-16T14:38:57Z</time>
      </trkpt>
      <trkpt lat="43.73914" lon="7.01309">
        <ele>723</ele>
        <time>2011-07-16T14:38:58Z</time>
      </trkpt>
      <trkpt lat="43.73912" lon="7.01308">
        <ele>724</ele>
        <time>2011-07-16T14:38:59Z</time>
      </trkpt>
      <trkpt lat="43.73911" lon="7.01308">
        <ele>724</ele>
        <time>2011-07-16T14:39:00Z</time>
      </trkpt>
      <trkpt lat="43.7391" lon="7.01308">
        <ele>724</ele>
        <time>2011-07-16T14:39:01Z</time>
      </trkpt>
      <trkpt lat="43.73908" lon="7.01306">
        <ele>726</ele>
        <time>2011-07-16T14:39:02Z</time>
      </trkpt>
      <trkpt lat="43.73907" lon="7.01305">
        <ele>727</ele>
        <time>2011-07-16T14:39:03Z</time>
      </trkpt>
      <trkpt lat="43.73906" lon="7.01305">
        <ele>727</ele>
        <time>2011-07-16T14:39:04Z</time>
      </trkpt>
      <trkpt lat="43.73905" lon="7.01306">
        <ele>727</ele>
        <time>2011-07-16T14:39:05Z</time>
      </trkpt>
      <trkpt lat="43.73904" lon="7.01307">
        <ele>727</ele>
        <time>2011-07-16T14:39:06Z</time>
      </trkpt>
      <trkpt lat="43.73903" lon="7.01307">
        <ele>727</ele>
        <time>2011-07-16T14:39:07Z</time>
      </trkpt>
      <trkpt lat="43.73901" lon="7.01307">
        <ele>727</ele>
        <time>2011-07-16T14:39:08Z</time>
      </trkpt>
      <trkpt lat="43.739" lon="7.01308">
        <ele>727</ele>
        <time>2011-07-16T14:39:09Z</time>
      </trkpt>
      <trkpt lat="43.73899" lon="7.01308">
        <ele>727</ele>
        <time>2011-07-16T14:39:10Z</time>
      </trkpt>
      <trkpt lat="43.73898" lon="7.01308">
        <ele>728</ele>
        <time>2011-07-16T14:39:11Z</time>
      </trkpt>
      <trkpt lat="43.73896" lon="7.01309">
        <ele>728</ele>
        <time>2011-07-16T14:39:12Z</time>
      </trkpt>
      <trkpt lat="43.73895" lon="7.01309">
        <ele>728</ele>
        <time>2011-07-16T14:39:13Z</time>
      </trkpt>
      <trkpt lat="43.73894" lon="7.01309">
        <ele>728</ele>
        <time>2011-07-16T14:39:14Z</time>
      </trkpt>
      <trkpt lat="43.73893" lon="7.01309">
        <ele>728</ele>
        <time>2011-07-16T14:39:15Z</time>
      </trkpt>
      <trkpt lat="43.73892" lon="7.0131">
        <ele>728</ele>
        <time>2011-07-16T14:39:16Z</time>
      </trkpt>
      <trkpt lat="43.73888" lon="7.0131">
        <ele>727</ele>
        <time>2011-07-16T14:39:19Z</time>
      </trkpt>
      <trkpt lat="43.73887" lon="7.0131">
        <ele>727</ele>
        <time>2011-07-16T14:39:20Z</time>
      </trkpt>
      <trkpt lat="43.73886" lon="7.0131">
        <ele>727</ele>
        <time>2011-07-16T14:39:21Z</time>
      </trkpt>
      <trkpt lat="43.73884" lon="7.0131">
        <ele>727</ele>
        <time>2011-07-16T14:39:22Z</time>
      </trkpt>
      <trkpt lat="43.73882" lon="7.01311">
        <ele>727</ele>
        <time>2011-07-16T14:39:23Z</time>
      </trkpt>
      <trkpt lat="43.73881" lon="7.01312">
        <ele>727</ele>
        <time>2011-07-16T14:39:24Z</time>
      </trkpt>
      <trkpt lat="43.73879" lon="7.01312">
        <ele>727</ele>
        <time>2011-07-16T14:39:25Z</time>
      </trkpt>
      <trkpt lat="43.73878" lon="7.01312">
        <ele>727</ele>
        <time>2011-07-16T14:39:26Z</time>
      </trkpt>
      <trkpt lat="43.73876" lon="7.01312">
        <ele>727</ele>
        <time>2011-07-16T14:39:27Z</time>
      </trkpt>
      <trkpt lat="43.73875" lon="7.01313">
        <ele>727</ele>
        <time>2011-07-16T14:39:28Z</time>
      </trkpt>
      <trkpt lat="43.73874" lon="7.01313">
        <ele>728</ele>
        <time>2011-07-16T14:39:29Z</time>
      </trkpt>
      <trkpt lat="43.73873" lon="7.01313">
        <ele>729</ele>
        <time>2011-07-16T14:39:30Z</time>
      </trkpt>
      <trkpt lat="43.73872" lon="7.01314">
        <ele>729</ele>
        <time>2011-07-16T14:39:31Z</time>
      </trkpt>
      <trkpt lat="43.73873" lon="7.01314">
        <ele>729</ele>
        <time>2011-07-16T14:39:32Z</time>
      </trkpt>
      <trkpt lat="43.73873" lon="7.01314">
        <ele>730</ele>
        <time>2011-07-16T14:39:36Z</time>
      </trkpt>
      <trkpt lat="43.73872" lon="7.01314">
        <ele>730</ele>
        <time>2011-07-16T14:39:37Z</time>
      </trkpt>
      <trkpt lat="43.73871" lon="7.01315">
        <ele>730</ele>
        <time>2011-07-16T14:39:39Z</time>
      </trkpt>
      <trkpt lat="43.73871" lon="7.01315">
        <ele>730</ele>
        <time>2011-07-16T14:39:40Z</time>
      </trkpt>
      <trkpt lat="43.7387" lon="7.01316">
        <ele>731</ele>
        <time>2011-07-16T14:39:41Z</time>
      </trkpt>
      <trkpt lat="43.73869" lon="7.01316">
        <ele>730</ele>
        <time>2011-07-16T14:39:42Z</time>
      </trkpt>
      <trkpt lat="43.73869" lon="7.01316">
        <ele>730</ele>
        <time>2011-07-16T14:39:43Z</time>
      </trkpt>
      <trkpt lat="43.73868" lon="7.01316">
        <ele>731</ele>
        <time>2011-07-16T14:39:44Z</time>
      </trkpt>
      <trkpt lat="43.73868" lon="7.01317">
        <ele>731</ele>
        <time>2011-07-16T14:39:45Z</time>
      </trkpt>
      <trkpt lat="43.73867" lon="7.01317">
        <ele>731</ele>
        <time>2011-07-16T14:39:46Z</time>
      </trkpt>
      <trkpt lat="43.73866" lon="7.01318">
        <ele>731</ele>
        <time>2011-07-16T14:39:47Z</time>
      </trkpt>
      <trkpt lat="43.73863" lon="7.01319">
        <ele>731</ele>
        <time>2011-07-16T14:39:50Z</time>
      </trkpt>
      <trkpt lat="43.73862" lon="7.0132">
        <ele>732</ele>
        <time>2011-07-16T14:39:52Z</time>
      </trkpt>
      <trkpt lat="43.73861" lon="7.0132">
        <ele>732</ele>
        <time>2011-07-16T14:39:53Z</time>
      </trkpt>
      <trkpt lat="43.7386" lon="7.0132">
        <ele>732</ele>
        <time>2011-07-16T14:39:54Z</time>
      </trkpt>
      <trkpt lat="43.73859" lon="7.01321">
        <ele>732</ele>
        <time>2011-07-16T14:39:55Z</time>
      </trkpt>
      <trkpt lat="43.73858" lon="7.01321">
        <ele>732</ele>
        <time>2011-07-16T14:39:56Z</time>
      </trkpt>
      <trkpt lat="43.73857" lon="7.01321">
        <ele>733</ele>
        <time>2011-07-16T14:39:57Z</time>
      </trkpt>
      <trkpt lat="43.73856" lon="7.01321">
        <ele>733</ele>
        <time>2011-07-16T14:39:58Z</time>
      </trkpt>
      <trkpt lat="43.73856" lon="7.01322">
        <ele>733</ele>
        <time>2011-07-16T14:40:00Z</time>
      </trkpt>
      <trkpt lat="43.73855" lon="7.01322">
        <ele>733</ele>
        <time>2011-07-16T14:40:01Z</time>
      </trkpt>
      <trkpt lat="43.73853" lon="7.01323">
        <ele>733</ele>
        <time>2011-07-16T14:40:03Z</time>
      </trkpt>
      <trkpt lat="43.73852" lon="7.01324">
        <ele>734</ele>
        <time>2011-07-16T14:40:05Z</time>
      </trkpt>
      <trkpt lat="43.73851" lon="7.01324">
        <ele>734</ele>
        <time>2011-07-16T14:40:06Z</time>
      </trkpt>
      <trkpt lat="43.73851" lon="7.01324">
        <ele>734</ele>
        <time>2011-07-16T14:40:07Z</time>
      </trkpt>
      <trkpt lat="43.73849" lon="7.01326">
        <ele>734</ele>
        <time>2011-07-16T14:40:12Z</time>
      </trkpt>
      <trkpt lat="43.73848" lon="7.01327">
        <ele>734</ele>
        <time>2011-07-16T14:40:13Z</time>
      </trkpt>
      <trkpt lat="43.73847" lon="7.01328">
        <ele>734</ele>
        <time>2011-07-16T14:40:14Z</time>
      </trkpt>
      <trkpt lat="43.73846" lon="7.0133">
        <ele>734</ele>
        <time>2011-07-16T14:40:16Z</time>
      </trkpt>
      <trkpt lat="43.73845" lon="7.0133">
        <ele>734</ele>
        <time>2011-07-16T14:40:17Z</time>
      </trkpt>
      <trkpt lat="43.73844" lon="7.01331">
        <ele>735</ele>
        <time>2011-07-16T14:40:18Z</time>
      </trkpt>
      <trkpt lat="43.73844" lon="7.01332">
        <ele>734</ele>
        <time>2011-07-16T14:40:19Z</time>
      </trkpt>
      <trkpt lat="43.73844" lon="7.01333">
        <ele>734</ele>
        <time>2011-07-16T14:40:20Z</time>
      </trkpt>
      <trkpt lat="43.73843" lon="7.01334">
        <ele>734</ele>
        <time>2011-07-16T14:40:21Z</time>
      </trkpt>
      <trkpt lat="43.73842" lon="7.01334">
        <ele>734</ele>
        <time>2011-07-16T14:40:22Z</time>
      </trkpt>
      <trkpt lat="43.73842" lon="7.01335">
        <ele>734</ele>
        <time>2011-07-16T14:40:23Z</time>
      </trkpt>
      <trkpt lat="43.73841" lon="7.01335">
        <ele>734</ele>
        <time>2011-07-16T14:40:25Z</time>
      </trkpt>
      <trkpt lat="43.73841" lon="7.01334">
        <ele>734</ele>
        <time>2011-07-16T14:40:29Z</time>
      </trkpt>
      <trkpt lat="43.73841" lon="7.01334">
        <ele>734</ele>
        <time>2011-07-16T14:41:04Z</time>
      </trkpt>
      <trkpt lat="43.73842" lon="7.01334">
        <ele>734</ele>
        <time>2011-07-16T14:41:05Z</time>
      </trkpt>
      <trkpt lat="43.73841" lon="7.01334">
        <ele>734</ele>
        <time>2011-07-16T14:41:17Z</time>
      </trkpt>
      <trkpt lat="43.73842" lon="7.01334">
        <ele>734</ele>
        <time>2011-07-16T14:41:18Z</time>
      </trkpt>
      <trkpt lat="43.73842" lon="7.01334">
        <ele>734</ele>
        <time>2011-07-16T14:41:20Z</time>
      </trkpt>
      <trkpt lat="43.73843" lon="7.01333">
        <ele>734</ele>
        <time>2011-07-16T14:41:21Z</time>
      </trkpt>
      <trkpt lat="43.73844" lon="7.01333">
        <ele>734</ele>
        <time>2011-07-16T14:41:22Z</time>
      </trkpt>
      <trkpt lat="43.73845" lon="7.01331">
        <ele>734</ele>
        <time>2011-07-16T14:41:23Z</time>
      </trkpt>
      <trkpt lat="43.73846" lon="7.0133">
        <ele>734</ele>
        <time>2011-07-16T14:41:24Z</time>
      </trkpt>
      <trkpt lat="43.73847" lon="7.01328">
        <ele>734</ele>
        <time>2011-07-16T14:41:25Z</time>
      </trkpt>
      <trkpt lat="43.73849" lon="7.01327">
        <ele>734</ele>
        <time>2011-07-16T14:41:26Z</time>
      </trkpt>
      <trkpt lat="43.73851" lon="7.01326">
        <ele>733</ele>
        <time>2011-07-16T14:41:27Z</time>
      </trkpt>
      <trkpt lat="43.73853" lon="7.01325">
        <ele>733</ele>
        <time>2011-07-16T14:41:28Z</time>
      </trkpt>
      <trkpt lat="43.73855" lon="7.01324">
        <ele>732</ele>
        <time>2011-07-16T14:41:29Z</time>
      </trkpt>
      <trkpt lat="43.73859" lon="7.01322">
        <ele>731</ele>
        <time>2011-07-16T14:41:31Z</time>
      </trkpt>
      <trkpt lat="43.73861" lon="7.01322">
        <ele>731</ele>
        <time>2011-07-16T14:41:32Z</time>
      </trkpt>
      <trkpt lat="43.73862" lon="7.01321">
        <ele>730</ele>
        <time>2011-07-16T14:41:33Z</time>
      </trkpt>
      <trkpt lat="43.73864" lon="7.0132">
        <ele>730</ele>
        <time>2011-07-16T14:41:34Z</time>
      </trkpt>
      <trkpt lat="43.73865" lon="7.01319">
        <ele>730</ele>
        <time>2011-07-16T14:41:35Z</time>
      </trkpt>
      <trkpt lat="43.73867" lon="7.01318">
        <ele>729</ele>
        <time>2011-07-16T14:41:36Z</time>
      </trkpt>
      <trkpt lat="43.73869" lon="7.01317">
        <ele>729</ele>
        <time>2011-07-16T14:41:37Z</time>
      </trkpt>
      <trkpt lat="43.73871" lon="7.01315">
        <ele>729</ele>
        <time>2011-07-16T14:41:38Z</time>
      </trkpt>
      <trkpt lat="43.73872" lon="7.01314">
        <ele>728</ele>
        <time>2011-07-16T14:41:39Z</time>
      </trkpt>
      <trkpt lat="43.73873" lon="7.01313">
        <ele>728</ele>
        <time>2011-07-16T14:41:40Z</time>
      </trkpt>
      <trkpt lat="43.73874" lon="7.01312">
        <ele>727</ele>
        <time>2011-07-16T14:41:41Z</time>
      </trkpt>
      <trkpt lat="43.73874" lon="7.01312">
        <ele>728</ele>
        <time>2011-07-16T14:41:42Z</time>
      </trkpt>
      <trkpt lat="43.73874" lon="7.01312">
        <ele>728</ele>
        <time>2011-07-16T14:41:43Z</time>
      </trkpt>
      <trkpt lat="43.73873" lon="7.01311">
        <ele>728</ele>
        <time>2011-07-16T14:41:45Z</time>
      </trkpt>
      <trkpt lat="43.73873" lon="7.01311">
        <ele>728</ele>
        <time>2011-07-16T14:41:46Z</time>
      </trkpt>
      <trkpt lat="43.73872" lon="7.0131">
        <ele>728</ele>
        <time>2011-07-16T14:41:47Z</time>
      </trkpt>
      <trkpt lat="43.73871" lon="7.01309">
        <ele>728</ele>
        <time>2011-07-16T14:41:48Z</time>
      </trkpt>
      <trkpt lat="43.73871" lon="7.01309">
        <ele>728</ele>
        <time>2011-07-16T14:41:49Z</time>
      </trkpt>
      <trkpt lat="43.73869" lon="7.01309">
        <ele>728</ele>
        <time>2011-07-16T14:41:50Z</time>
      </trkpt>
      <trkpt lat="43.73868" lon="7.01309">
        <ele>728</ele>
        <time>2011-07-16T14:41:51Z</time>
      </trkpt>
      <trkpt lat="43.73867" lon="7.01309">
        <ele>728</ele>
        <time>2011-07-16T14:41:52Z</time>
      </trkpt>
      <trkpt lat="43.73865" lon="7.01308">
        <ele>728</ele>
        <time>2011-07-16T14:41:53Z</time>
      </trkpt>
      <trkpt lat="43.73864" lon="7.01307">
        <ele>729</ele>
        <time>2011-07-16T14:41:54Z</time>
      </trkpt>
      <trkpt lat="43.73863" lon="7.01307">
        <ele>729</ele>
        <time>2011-07-16T14:41:55Z</time>
      </trkpt>
      <trkpt lat="43.73862" lon="7.01306">
        <ele>729</ele>
        <time>2011-07-16T14:41:56Z</time>
      </trkpt>
      <trkpt lat="43.7386" lon="7.01306">
        <ele>729</ele>
        <time>2011-07-16T14:41:57Z</time>
      </trkpt>
      <trkpt lat="43.73859" lon="7.01306">
        <ele>730</ele>
        <time>2011-07-16T14:41:58Z</time>
      </trkpt>
      <trkpt lat="43.73857" lon="7.01306">
        <ele>730</ele>
        <time>2011-07-16T14:41:59Z</time>
      </trkpt>
      <trkpt lat="43.73856" lon="7.01305">
        <ele>730</ele>
        <time>2011-07-16T14:42:00Z</time>
      </trkpt>
      <trkpt lat="43.73854" lon="7.01304">
        <ele>731</ele>
        <time>2011-07-16T14:42:01Z</time>
      </trkpt>
      <trkpt lat="43.73853" lon="7.01304">
        <ele>730</ele>
        <time>2011-07-16T14:42:02Z</time>
      </trkpt>
      <trkpt lat="43.73852" lon="7.01303">
        <ele>731</ele>
        <time>2011-07-16T14:42:03Z</time>
      </trkpt>
      <trkpt lat="43.73851" lon="7.01302">
        <ele>731</ele>
        <time>2011-07-16T14:42:04Z</time>
      </trkpt>
      <trkpt lat="43.73848" lon="7.01301">
        <ele>731</ele>
        <time>2011-07-16T14:42:05Z</time>
      </trkpt>
      <trkpt lat="43.73846" lon="7.01302">
        <ele>731</ele>
        <time>2011-07-16T14:42:06Z</time>
      </trkpt>
      <trkpt lat="43.73844" lon="7.01303">
        <ele>731</ele>
        <time>2011-07-16T14:42:07Z</time>
      </trkpt>
      <trkpt lat="43.73842" lon="7.01303">
        <ele>731</ele>
        <time>2011-07-16T14:42:08Z</time>
      </trkpt>
      <trkpt lat="43.7384" lon="7.01305">
        <ele>731</ele>
        <time>2011-07-16T14:42:09Z</time>
      </trkpt>
      <trkpt lat="43.73837" lon="7.01305">
        <ele>731</ele>
        <time>2011-07-16T14:42:10Z</time>
      </trkpt>
      <trkpt lat="43.73834" lon="7.01306">
        <ele>731</ele>
        <time>2011-07-16T14:42:11Z</time>
      </trkpt>
      <trkpt lat="43.7383" lon="7.01307">
        <ele>731</ele>
        <time>2011-07-16T14:42:12Z</time>
      </trkpt>
      <trkpt lat="43.73827" lon="7.01309">
        <ele>731</ele>
        <time>2011-07-16T14:42:13Z</time>
      </trkpt>
      <trkpt lat="43.73824" lon="7.01313">
        <ele>731</ele>
        <time>2011-07-16T14:42:14Z</time>
      </trkpt>
      <trkpt lat="43.73822" lon="7.01317">
        <ele>730</ele>
        <time>2011-07-16T14:42:15Z</time>
      </trkpt>
      <trkpt lat="43.7382" lon="7.0132">
        <ele>731</ele>
        <time>2011-07-16T14:42:16Z</time>
      </trkpt>
      <trkpt lat="43.73818" lon="7.01324">
        <ele>731</ele>
        <time>2011-07-16T14:42:17Z</time>
      </trkpt>
      <trkpt lat="43.73816" lon="7.01327">
        <ele>731</ele>
        <time>2011-07-16T14:42:18Z</time>
      </trkpt>
      <trkpt lat="43.73813" lon="7.01331">
        <ele>731</ele>
        <time>2011-07-16T14:42:19Z</time>
      </trkpt>
      <trkpt lat="43.73811" lon="7.01335">
        <ele>731</ele>
        <time>2011-07-16T14:42:20Z</time>
      </trkpt>
      <trkpt lat="43.7381" lon="7.01339">
        <ele>731</ele>
        <time>2011-07-16T14:42:21Z</time>
      </trkpt>
      <trkpt lat="43.73809" lon="7.01344">
        <ele>731</ele>
        <time>2011-07-16T14:42:22Z</time>
      </trkpt>
      <trkpt lat="43.73809" lon="7.01348">
        <ele>731</ele>
        <time>2011-07-16T14:42:23Z</time>
      </trkpt>
      <trkpt lat="43.73809" lon="7.01352">
        <ele>731</ele>
        <time>2011-07-16T14:42:24Z</time>
      </trkpt>
      <trkpt lat="43.73809" lon="7.01355">
        <ele>731</ele>
        <time>2011-07-16T14:42:25Z</time>
      </trkpt>
      <trkpt lat="43.73809" lon="7.01357">
        <ele>731</ele>
        <time>2011-07-16T14:42:26Z</time>
      </trkpt>
      <trkpt lat="43.73808" lon="7.0136">
        <ele>731</ele>
        <time>2011-07-16T14:42:27Z</time>
      </trkpt>
      <trkpt lat="43.73807" lon="7.01363">
        <ele>731</ele>
        <time>2011-07-16T14:42:28Z</time>
      </trkpt>
      <trkpt lat="43.73806" lon="7.01365">
        <ele>732</ele>
        <time>2011-07-16T14:42:29Z</time>
      </trkpt>
      <trkpt lat="43.73806" lon="7.01367">
        <ele>732</ele>
        <time>2011-07-16T14:42:30Z</time>
      </trkpt>
      <trkpt lat="43.73805" lon="7.01369">
        <ele>732</ele>
        <time>2011-07-16T14:42:31Z</time>
      </trkpt>
      <trkpt lat="43.73803" lon="7.01372">
        <ele>732</ele>
        <time>2011-07-16T14:42:32Z</time>
      </trkpt>
      <trkpt lat="43.73801" lon="7.01374">
        <ele>733</ele>
        <time>2011-07-16T14:42:33Z</time>
      </trkpt>
      <trkpt lat="43.73798" lon="7.01378">
        <ele>733</ele>
        <time>2011-07-16T14:42:34Z</time>
      </trkpt>
      <trkpt lat="43.73796" lon="7.01379">
        <ele>733</ele>
        <time>2011-07-16T14:42:35Z</time>
      </trkpt>
      <trkpt lat="43.73793" lon="7.01381">
        <ele>733</ele>
        <time>2011-07-16T14:42:36Z</time>
      </trkpt>
      <trkpt lat="43.73793" lon="7.01382">
        <ele>733</ele>
        <time>2011-07-16T14:42:37Z</time>
      </trkpt>
      <trkpt lat="43.73792" lon="7.01383">
        <ele>734</ele>
        <time>2011-07-16T14:42:39Z</time>
      </trkpt>
      <trkpt lat="43.73791" lon="7.01383">
        <ele>734</ele>
        <time>2011-07-16T14:42:40Z</time>
      </trkpt>
      <trkpt lat="43.73791" lon="7.01383">
        <ele>734</ele>
        <time>2011-07-16T14:42:41Z</time>
      </trkpt>
      <trkpt lat="43.73789" lon="7.01385">
        <ele>734</ele>
        <time>2011-07-16T14:42:43Z</time>
      </trkpt>
      <trkpt lat="43.73789" lon="7.01385">
        <ele>734</ele>
        <time>2011-07-16T14:42:44Z</time>
      </trkpt>
      <trkpt lat="43.73788" lon="7.01385">
        <ele>734</ele>
        <time>2011-07-16T14:42:45Z</time>
      </trkpt>
      <trkpt lat="43.73788" lon="7.01385">
        <ele>734</ele>
        <time>2011-07-16T14:42:46Z</time>
      </trkpt>
      <trkpt lat="43.73787" lon="7.01386">
        <ele>735</ele>
        <time>2011-07-16T14:42:47Z</time>
      </trkpt>
      <trkpt lat="43.73786" lon="7.01386">
        <ele>735</ele>
        <time>2011-07-16T14:42:48Z</time>
      </trkpt>
      <trkpt lat="43.73786" lon="7.01386">
        <ele>735</ele>
        <time>2011-07-16T14:42:49Z</time>
      </trkpt>
      <trkpt lat="43.73785" lon="7.01385">
        <ele>736</ele>
        <time>2011-07-16T14:42:50Z</time>
      </trkpt>
      <trkpt lat="43.73784" lon="7.01385">
        <ele>736</ele>
        <time>2011-07-16T14:42:51Z</time>
      </trkpt>
      <trkpt lat="43.73784" lon="7.01385">
        <ele>736</ele>
        <time>2011-07-16T14:42:52Z</time>
      </trkpt>
      <trkpt lat="43.73783" lon="7.01385">
        <ele>736</ele>
        <time>2011-07-16T14:42:53Z</time>
      </trkpt>
      <trkpt lat="43.73782" lon="7.01385">
        <ele>736</ele>
        <time>2011-07-16T14:42:54Z</time>
      </trkpt>
      <trkpt lat="43.73781" lon="7.01385">
        <ele>736</ele>
        <time>2011-07-16T14:42:55Z</time>
      </trkpt>
      <trkpt lat="43.7378" lon="7.01384">
        <ele>737</ele>
        <time>2011-07-16T14:42:56Z</time>
      </trkpt>
      <trkpt lat="43.73779" lon="7.01383">
        <ele>737</ele>
        <time>2011-07-16T14:42:57Z</time>
      </trkpt>
      <trkpt lat="43.73778" lon="7.01383">
        <ele>738</ele>
        <time>2011-07-16T14:42:58Z</time>
      </trkpt>
      <trkpt lat="43.73778" lon="7.01382">
        <ele>738</ele>
        <time>2011-07-16T14:42:59Z</time>
      </trkpt>
      <trkpt lat="43.73777" lon="7.01382">
        <ele>738</ele>
        <time>2011-07-16T14:43:00Z</time>
      </trkpt>
      <trkpt lat="43.73777" lon="7.01382">
        <ele>739</ele>
        <time>2011-07-16T14:43:01Z</time>
      </trkpt>
      <trkpt lat="43.73776" lon="7.01381">
        <ele>739</ele>
        <time>2011-07-16T14:43:02Z</time>
      </trkpt>
      <trkpt lat="43.73775" lon="7.01381">
        <ele>739</ele>
        <time>2011-07-16T14:43:03Z</time>
      </trkpt>
      <trkpt lat="43.73775" lon="7.01381">
        <ele>739</ele>
        <time>2011-07-16T14:43:04Z</time>
      </trkpt>
      <trkpt lat="43.73774" lon="7.01381">
        <ele>739</ele>
        <time>2011-07-16T14:43:05Z</time>
      </trkpt>
      <trkpt lat="43.73774" lon="7.01381">
        <ele>740</ele>
        <time>2011-07-16T14:43:06Z</time>
      </trkpt>
      <trkpt lat="43.73774" lon="7.0138">
        <ele>740</ele>
        <time>2011-07-16T14:43:07Z</time>
      </trkpt>
      <trkpt lat="43.73772" lon="7.0138">
        <ele>740</ele>
        <time>2011-07-16T14:43:08Z</time>
      </trkpt>
      <trkpt lat="43.73771" lon="7.0138">
        <ele>741</ele>
        <time>2011-07-16T14:43:10Z</time>
      </trkpt>
      <trkpt lat="43.73771" lon="7.01381">
        <ele>741</ele>
        <time>2011-07-16T14:43:11Z</time>
      </trkpt>
      <trkpt lat="43.7377" lon="7.01381">
        <ele>741</ele>
        <time>2011-07-16T14:43:12Z</time>
      </trkpt>
      <trkpt lat="43.73769" lon="7.01381">
        <ele>741</ele>
        <time>2011-07-16T14:43:13Z</time>
      </trkpt>
      <trkpt lat="43.73768" lon="7.01381">
        <ele>741</ele>
        <time>2011-07-16T14:43:14Z</time>
      </trkpt>
      <trkpt lat="43.73767" lon="7.01381">
        <ele>741</ele>
        <time>2011-07-16T14:43:15Z</time>
      </trkpt>
      <trkpt lat="43.73766" lon="7.0138">
        <ele>741</ele>
        <time>2011-07-16T14:43:16Z</time>
      </trkpt>
      <trkpt lat="43.73767" lon="7.01381">
        <ele>741</ele>
        <time>2011-07-16T14:43:17Z</time>
      </trkpt>
      <trkpt lat="43.73764" lon="7.01381">
        <ele>741</ele>
        <time>2011-07-16T14:43:19Z</time>
      </trkpt>
      <trkpt lat="43.73764" lon="7.0138">
        <ele>741</ele>
        <time>2011-07-16T14:43:20Z</time>
      </trkpt>
      <trkpt lat="43.73763" lon="7.0138">
        <ele>741</ele>
        <time>2011-07-16T14:43:21Z</time>
      </trkpt>
      <trkpt lat="43.73762" lon="7.01379">
        <ele>742</ele>
        <time>2011-07-16T14:43:23Z</time>
      </trkpt>
      <trkpt lat="43.73761" lon="7.01379">
        <ele>742</ele>
        <time>2011-07-16T14:43:24Z</time>
      </trkpt>
      <trkpt lat="43.7376" lon="7.01379">
        <ele>742</ele>
        <time>2011-07-16T14:43:25Z</time>
      </trkpt>
      <trkpt lat="43.7376" lon="7.01379">
        <ele>742</ele>
        <time>2011-07-16T14:43:26Z</time>
      </trkpt>
      <trkpt lat="43.73758" lon="7.01379">
        <ele>742</ele>
        <time>2011-07-16T14:43:27Z</time>
      </trkpt>
      <trkpt lat="43.73757" lon="7.0138">
        <ele>742</ele>
        <time>2011-07-16T14:43:29Z</time>
      </trkpt>
      <trkpt lat="43.73756" lon="7.0138">
        <ele>742</ele>
        <time>2011-07-16T14:43:30Z</time>
      </trkpt>
      <trkpt lat="43.73756" lon="7.01381">
        <ele>742</ele>
        <time>2011-07-16T14:43:31Z</time>
      </trkpt>
      <trkpt lat="43.73755" lon="7.01381">
        <ele>742</ele>
        <time>2011-07-16T14:43:32Z</time>
      </trkpt>
      <trkpt lat="43.73754" lon="7.01381">
        <ele>742</ele>
        <time>2011-07-16T14:43:33Z</time>
      </trkpt>
      <trkpt lat="43.73753" lon="7.01381">
        <ele>742</ele>
        <time>2011-07-16T14:43:34Z</time>
      </trkpt>
      <trkpt lat="43.73752" lon="7.01381">
        <ele>742</ele>
        <time>2011-07-16T14:43:35Z</time>
      </trkpt>
      <trkpt lat="43.73751" lon="7.01381">
        <ele>742</ele>
        <time>2011-07-16T14:43:36Z</time>
      </trkpt>
      <trkpt lat="43.7375" lon="7.01381">
        <ele>742</ele>
        <time>2011-07-16T14:43:37Z</time>
      </trkpt>
      <trkpt lat="43.73749" lon="7.01382">
        <ele>742</ele>
        <time>2011-07-16T14:43:38Z</time>
      </trkpt>
      <trkpt lat="43.73748" lon="7.01382">
        <ele>742</ele>
        <time>2011-07-16T14:43:39Z</time>
      </trkpt>
      <trkpt lat="43.73748" lon="7.01382">
        <ele>742</ele>
        <time>2011-07-16T14:43:40Z</time>
      </trkpt>
      <trkpt lat="43.73747" lon="7.01382">
        <ele>742</ele>
        <time>2011-07-16T14:43:41Z</time>
      </trkpt>
      <trkpt lat="43.73747" lon="7.01382">
        <ele>743</ele>
        <time>2011-07-16T14:43:42Z</time>
      </trkpt>
      <trkpt lat="43.73746" lon="7.01382">
        <ele>743</ele>
        <time>2011-07-16T14:43:43Z</time>
      </trkpt>
      <trkpt lat="43.73745" lon="7.01383">
        <ele>743</ele>
        <time>2011-07-16T14:43:45Z</time>
      </trkpt>
      <trkpt lat="43.73744" lon="7.01383">
        <ele>743</ele>
        <time>2011-07-16T14:43:46Z</time>
      </trkpt>
      <trkpt lat="43.73744" lon="7.01384">
        <ele>743</ele>
        <time>2011-07-16T14:43:47Z</time>
      </trkpt>
      <trkpt lat="43.73743" lon="7.01385">
        <ele>743</ele>
        <time>2011-07-16T14:43:48Z</time>
      </trkpt>
      <trkpt lat="43.73743" lon="7.01386">
        <ele>743</ele>
        <time>2011-07-16T14:43:49Z</time>
      </trkpt>
      <trkpt lat="43.73742" lon="7.01386">
        <ele>743</ele>
        <time>2011-07-16T14:43:50Z</time>
      </trkpt>
      <trkpt lat="43.73741" lon="7.01386">
        <ele>743</ele>
        <time>2011-07-16T14:43:51Z</time>
      </trkpt>
      <trkpt lat="43.7374" lon="7.01387">
        <ele>743</ele>
        <time>2011-07-16T14:43:52Z</time>
      </trkpt>
      <trkpt lat="43.7374" lon="7.01387">
        <ele>743</ele>
        <time>2011-07-16T14:43:53Z</time>
      </trkpt>
      <trkpt lat="43.73739" lon="7.01385">
        <ele>746</ele>
        <time>2011-07-16T14:43:54Z</time>
      </trkpt>
      <trkpt lat="43.73739" lon="7.01385">
        <ele>746</ele>
        <time>2011-07-16T14:43:55Z</time>
      </trkpt>
      <trkpt lat="43.73739" lon="7.01385">
        <ele>746</ele>
        <time>2011-07-16T14:43:58Z</time>
      </trkpt>
      <trkpt lat="43.73738" lon="7.01385">
        <ele>746</ele>
        <time>2011-07-16T14:43:59Z</time>
      </trkpt>
      <trkpt lat="43.73737" lon="7.01385">
        <ele>746</ele>
        <time>2011-07-16T14:44:00Z</time>
      </trkpt>
      <trkpt lat="43.73736" lon="7.01386">
        <ele>746</ele>
        <time>2011-07-16T14:44:01Z</time>
      </trkpt>
      <trkpt lat="43.73735" lon="7.01387">
        <ele>746</ele>
        <time>2011-07-16T14:44:02Z</time>
      </trkpt>
      <trkpt lat="43.73734" lon="7.01389">
        <ele>746</ele>
        <time>2011-07-16T14:44:03Z</time>
      </trkpt>
      <trkpt lat="43.73733" lon="7.0139">
        <ele>746</ele>
        <time>2011-07-16T14:44:04Z</time>
      </trkpt>
      <trkpt lat="43.73733" lon="7.01391">
        <ele>746</ele>
        <time>2011-07-16T14:44:05Z</time>
      </trkpt>
      <trkpt lat="43.73733" lon="7.01391">
        <ele>746</ele>
        <time>2011-07-16T14:44:06Z</time>
      </trkpt>
      <trkpt lat="43.73733" lon="7.01392">
        <ele>746</ele>
        <time>2011-07-16T14:44:08Z</time>
      </trkpt>
      <trkpt lat="43.73732" lon="7.01392">
        <ele>746</ele>
        <time>2011-07-16T14:44:09Z</time>
      </trkpt>
      <trkpt lat="43.73732" lon="7.01392">
        <ele>746</ele>
        <time>2011-07-16T14:44:10Z</time>
      </trkpt>
      <trkpt lat="43.73731" lon="7.01391">
        <ele>746</ele>
        <time>2011-07-16T14:44:11Z</time>
      </trkpt>
      <trkpt lat="43.73731" lon="7.01391">
        <ele>746</ele>
        <time>2011-07-16T14:44:12Z</time>
      </trkpt>
      <trkpt lat="43.7373" lon="7.01391">
        <ele>747</ele>
        <time>2011-07-16T14:44:13Z</time>
      </trkpt>
      <trkpt lat="43.7373" lon="7.0139">
        <ele>747</ele>
        <time>2011-07-16T14:44:14Z</time>
      </trkpt>
      <trkpt lat="43.73729" lon="7.0139">
        <ele>747</ele>
        <time>2011-07-16T14:44:15Z</time>
      </trkpt>
      <trkpt lat="43.73728" lon="7.01391">
        <ele>747</ele>
        <time>2011-07-16T14:44:16Z</time>
      </trkpt>
      <trkpt lat="43.73728" lon="7.01391">
        <ele>747</ele>
        <time>2011-07-16T14:44:17Z</time>
      </trkpt>
      <trkpt lat="43.73726" lon="7.0139">
        <ele>747</ele>
        <time>2011-07-16T14:44:18Z</time>
      </trkpt>
      <trkpt lat="43.73725" lon="7.0139">
        <ele>747</ele>
        <time>2011-07-16T14:44:19Z</time>
      </trkpt>
      <trkpt lat="43.73724" lon="7.0139">
        <ele>747</ele>
        <time>2011-07-16T14:44:20Z</time>
      </trkpt>
      <trkpt lat="43.73723" lon="7.0139">
        <ele>747</ele>
        <time>2011-07-16T14:44:21Z</time>
      </trkpt>
      <trkpt lat="43.73721" lon="7.01391">
        <ele>747</ele>
        <time>2011-07-16T14:44:22Z</time>
      </trkpt>
      <trkpt lat="43.7372" lon="7.01391">
        <ele>747</ele>
        <time>2011-07-16T14:44:23Z</time>
      </trkpt>
      <trkpt lat="43.73719" lon="7.0139">
        <ele>747</ele>
        <time>2011-07-16T14:44:24Z</time>
      </trkpt>
      <trkpt lat="43.73718" lon="7.01389">
        <ele>747</ele>
        <time>2011-07-16T14:44:25Z</time>
      </trkpt>
      <trkpt lat="43.73718" lon="7.01389">
        <ele>747</ele>
        <time>2011-07-16T14:44:26Z</time>
      </trkpt>
      <trkpt lat="43.73718" lon="7.0139">
        <ele>748</ele>
        <time>2011-07-16T14:44:27Z</time>
      </trkpt>
      <trkpt lat="43.73716" lon="7.01391">
        <ele>748</ele>
        <time>2011-07-16T14:44:28Z</time>
      </trkpt>
      <trkpt lat="43.73715" lon="7.01391">
        <ele>748</ele>
        <time>2011-07-16T14:44:29Z</time>
      </trkpt>
      <trkpt lat="43.73715" lon="7.01391">
        <ele>748</ele>
        <time>2011-07-16T14:44:30Z</time>
      </trkpt>
      <trkpt lat="43.73713" lon="7.01392">
        <ele>748</ele>
        <time>2011-07-16T14:44:31Z</time>
      </trkpt>
      <trkpt lat="43.73712" lon="7.01392">
        <ele>749</ele>
        <time>2011-07-16T14:44:32Z</time>
      </trkpt>
      <trkpt lat="43.73711" lon="7.01392">
        <ele>749</ele>
        <time>2011-07-16T14:44:33Z</time>
      </trkpt>
      <trkpt lat="43.73711" lon="7.01393">
        <ele>749</ele>
        <time>2011-07-16T14:44:34Z</time>
      </trkpt>
      <trkpt lat="43.7371" lon="7.01393">
        <ele>749</ele>
        <time>2011-07-16T14:44:35Z</time>
      </trkpt>
      <trkpt lat="43.73709" lon="7.01393">
        <ele>749</ele>
        <time>2011-07-16T14:44:36Z</time>
      </trkpt>
      <trkpt lat="43.73708" lon="7.01393">
        <ele>749</ele>
        <time>2011-07-16T14:44:37Z</time>
      </trkpt>
      <trkpt lat="43.73708" lon="7.01393">
        <ele>749</ele>
        <time>2011-07-16T14:44:38Z</time>
      </trkpt>
      <trkpt lat="43.73708" lon="7.01394">
        <ele>749</ele>
        <time>2011-07-16T14:44:39Z</time>
      </trkpt>
      <trkpt lat="43.73707" lon="7.01394">
        <ele>750</ele>
        <time>2011-07-16T14:44:40Z</time>
      </trkpt>
      <trkpt lat="43.73706" lon="7.01396">
        <ele>750</ele>
        <time>2011-07-16T14:44:42Z</time>
      </trkpt>
      <trkpt lat="43.73706" lon="7.01397">
        <ele>750</ele>
        <time>2011-07-16T14:44:43Z</time>
      </trkpt>
      <trkpt lat="43.73705" lon="7.01397">
        <ele>750</ele>
        <time>2011-07-16T14:44:44Z</time>
      </trkpt>
      <trkpt lat="43.73705" lon="7.01398">
        <ele>750</ele>
        <time>2011-07-16T14:44:45Z</time>
      </trkpt>
      <trkpt lat="43.73704" lon="7.01399">
        <ele>751</ele>
        <time>2011-07-16T14:44:46Z</time>
      </trkpt>
      <trkpt lat="43.73704" lon="7.014">
        <ele>751</ele>
        <time>2011-07-16T14:44:48Z</time>
      </trkpt>
      <trkpt lat="43.73704" lon="7.014">
        <ele>752</ele>
        <time>2011-07-16T14:44:49Z</time>
      </trkpt>
      <trkpt lat="43.73703" lon="7.01401">
        <ele>752</ele>
        <time>2011-07-16T14:44:50Z</time>
      </trkpt>
      <trkpt lat="43.73701" lon="7.01402">
        <ele>753</ele>
        <time>2011-07-16T14:44:53Z</time>
      </trkpt>
      <trkpt lat="43.73701" lon="7.01403">
        <ele>753</ele>
        <time>2011-07-16T14:44:54Z</time>
      </trkpt>
      <trkpt lat="43.737" lon="7.01403">
        <ele>753</ele>
        <time>2011-07-16T14:44:55Z</time>
      </trkpt>
      <trkpt lat="43.737" lon="7.01404">
        <ele>753</ele>
        <time>2011-07-16T14:44:56Z</time>
      </trkpt>
      <trkpt lat="43.73699" lon="7.01403">
        <ele>753</ele>
        <time>2011-07-16T14:44:57Z</time>
      </trkpt>
      <trkpt lat="43.73698" lon="7.01403">
        <ele>753</ele>
        <time>2011-07-16T14:44:58Z</time>
      </trkpt>
      <trkpt lat="43.73697" lon="7.01403">
        <ele>753</ele>
        <time>2011-07-16T14:44:59Z</time>
      </trkpt>
      <trkpt lat="43.73697" lon="7.01402">
        <ele>753</ele>
        <time>2011-07-16T14:45:00Z</time>
      </trkpt>
      <trkpt lat="43.73696" lon="7.01402">
        <ele>753</ele>
        <time>2011-07-16T14:45:01Z</time>
      </trkpt>
      <trkpt lat="43.73696" lon="7.01401">
        <ele>753</ele>
        <time>2011-07-16T14:45:02Z</time>
      </trkpt>
      <trkpt lat="43.73695" lon="7.01401">
        <ele>753</ele>
        <time>2011-07-16T14:45:03Z</time>
      </trkpt>
      <trkpt lat="43.73695" lon="7.01401">
        <ele>753</ele>
        <time>2011-07-16T14:45:04Z</time>
      </trkpt>
      <trkpt lat="43.73694" lon="7.014">
        <ele>753</ele>
        <time>2011-07-16T14:45:06Z</time>
      </trkpt>
      <trkpt lat="43.73693" lon="7.014">
        <ele>753</ele>
        <time>2011-07-16T14:45:07Z</time>
      </trkpt>
      <trkpt lat="43.73692" lon="7.01402">
        <ele>753</ele>
        <time>2011-07-16T14:45:09Z</time>
      </trkpt>
      <trkpt lat="43.73692" lon="7.01403">
        <ele>754</ele>
        <time>2011-07-16T14:45:10Z</time>
      </trkpt>
      <trkpt lat="43.73691" lon="7.01404">
        <ele>754</ele>
        <time>2011-07-16T14:45:11Z</time>
      </trkpt>
      <trkpt lat="43.73691" lon="7.01404">
        <ele>754</ele>
        <time>2011-07-16T14:45:12Z</time>
      </trkpt>
      <trkpt lat="43.7369" lon="7.01404">
        <ele>754</ele>
        <time>2011-07-16T14:45:13Z</time>
      </trkpt>
      <trkpt lat="43.7369" lon="7.01405">
        <ele>755</ele>
        <time>2011-07-16T14:45:14Z</time>
      </trkpt>
      <trkpt lat="43.73689" lon="7.01405">
        <ele>755</ele>
        <time>2011-07-16T14:45:15Z</time>
      </trkpt>
      <trkpt lat="43.73689" lon="7.01406">
        <ele>756</ele>
        <time>2011-07-16T14:45:16Z</time>
      </trkpt>
      <trkpt lat="43.73688" lon="7.01407">
        <ele>756</ele>
        <time>2011-07-16T14:45:17Z</time>
      </trkpt>
      <trkpt lat="43.73688" lon="7.01407">
        <ele>756</ele>
        <time>2011-07-16T14:45:18Z</time>
      </trkpt>
      <trkpt lat="43.73687" lon="7.01408">
        <ele>757</ele>
        <time>2011-07-16T14:45:19Z</time>
      </trkpt>
      <trkpt lat="43.73687" lon="7.01408">
        <ele>757</ele>
        <time>2011-07-16T14:45:20Z</time>
      </trkpt>
      <trkpt lat="43.73686" lon="7.01409">
        <ele>758</ele>
        <time>2011-07-16T14:45:21Z</time>
      </trkpt>
      <trkpt lat="43.73686" lon="7.0141">
        <ele>758</ele>
        <time>2011-07-16T14:45:22Z</time>
      </trkpt>
      <trkpt lat="43.73686" lon="7.01411">
        <ele>759</ele>
        <time>2011-07-16T14:45:23Z</time>
      </trkpt>
      <trkpt lat="43.73685" lon="7.01411">
        <ele>759</ele>
        <time>2011-07-16T14:45:24Z</time>
      </trkpt>
      <trkpt lat="43.73684" lon="7.01411">
        <ele>761</ele>
        <time>2011-07-16T14:45:26Z</time>
      </trkpt>
      <trkpt lat="43.73684" lon="7.01412">
        <ele>761</ele>
        <time>2011-07-16T14:45:27Z</time>
      </trkpt>
      <trkpt lat="43.73684" lon="7.01412">
        <ele>762</ele>
        <time>2011-07-16T14:45:28Z</time>
      </trkpt>
      <trkpt lat="43.73683" lon="7.01413">
        <ele>761</ele>
        <time>2011-07-16T14:45:29Z</time>
      </trkpt>
      <trkpt lat="43.73683" lon="7.01414">
        <ele>761</ele>
        <time>2011-07-16T14:45:30Z</time>
      </trkpt>
      <trkpt lat="43.73682" lon="7.01414">
        <ele>762</ele>
        <time>2011-07-16T14:45:31Z</time>
      </trkpt>
      <trkpt lat="43.73681" lon="7.01414">
        <ele>762</ele>
        <time>2011-07-16T14:45:32Z</time>
      </trkpt>
      <trkpt lat="43.7368" lon="7.01414">
        <ele>763</ele>
        <time>2011-07-16T14:45:33Z</time>
      </trkpt>
      <trkpt lat="43.7368" lon="7.01414">
        <ele>762</ele>
        <time>2011-07-16T14:45:34Z</time>
      </trkpt>
      <trkpt lat="43.73679" lon="7.01414">
        <ele>762</ele>
        <time>2011-07-16T14:45:35Z</time>
      </trkpt>
      <trkpt lat="43.73678" lon="7.01414">
        <ele>762</ele>
        <time>2011-07-16T14:45:36Z</time>
      </trkpt>
      <trkpt lat="43.73678" lon="7.01414">
        <ele>761</ele>
        <time>2011-07-16T14:45:37Z</time>
      </trkpt>
      <trkpt lat="43.73677" lon="7.01413">
        <ele>761</ele>
        <time>2011-07-16T14:45:39Z</time>
      </trkpt>
      <trkpt lat="43.73678" lon="7.01413">
        <ele>761</ele>
        <time>2011-07-16T14:45:40Z</time>
      </trkpt>
      <trkpt lat="43.73678" lon="7.01412">
        <ele>761</ele>
        <time>2011-07-16T14:45:41Z</time>
      </trkpt>
      <trkpt lat="43.73678" lon="7.01412">
        <ele>761</ele>
        <time>2011-07-16T14:45:42Z</time>
      </trkpt>
      <trkpt lat="43.73677" lon="7.01412">
        <ele>760</ele>
        <time>2011-07-16T14:45:43Z</time>
      </trkpt>
      <trkpt lat="43.73676" lon="7.01412">
        <ele>760</ele>
        <time>2011-07-16T14:45:44Z</time>
      </trkpt>
      <trkpt lat="43.73676" lon="7.01412">
        <ele>761</ele>
        <time>2011-07-16T14:45:45Z</time>
      </trkpt>
      <trkpt lat="43.73676" lon="7.01412">
        <ele>761</ele>
        <time>2011-07-16T14:45:46Z</time>
      </trkpt>
      <trkpt lat="43.73676" lon="7.01412">
        <ele>761</ele>
        <time>2011-07-16T14:45:47Z</time>
      </trkpt>
      <trkpt lat="43.73676" lon="7.01412">
        <ele>762</ele>
        <time>2011-07-16T14:45:48Z</time>
      </trkpt>
      <trkpt lat="43.73675" lon="7.01411">
        <ele>762</ele>
        <time>2011-07-16T14:45:49Z</time>
      </trkpt>
      <trkpt lat="43.73674" lon="7.0141">
        <ele>762</ele>
        <time>2011-07-16T14:45:50Z</time>
      </trkpt>
      <trkpt lat="43.73674" lon="7.01409">
        <ele>762</ele>
        <time>2011-07-16T14:45:51Z</time>
      </trkpt>
      <trkpt lat="43.73673" lon="7.01409">
        <ele>762</ele>
        <time>2011-07-16T14:45:52Z</time>
      </trkpt>
      <trkpt lat="43.73672" lon="7.01408">
        <ele>762</ele>
        <time>2011-07-16T14:45:53Z</time>
      </trkpt>
      <trkpt lat="43.73672" lon="7.01408">
        <ele>762</ele>
        <time>2011-07-16T14:45:54Z</time>
      </trkpt>
      <trkpt lat="43.73671" lon="7.01408">
        <ele>762</ele>
        <time>2011-07-16T14:45:55Z</time>
      </trkpt>
      <trkpt lat="43.73671" lon="7.01407">
        <ele>762</ele>
        <time>2011-07-16T14:45:56Z</time>
      </trkpt>
      <trkpt lat="43.7367" lon="7.01406">
        <ele>762</ele>
        <time>2011-07-16T14:45:58Z</time>
      </trkpt>
      <trkpt lat="43.73669" lon="7.01406">
        <ele>762</ele>
        <time>2011-07-16T14:46:00Z</time>
      </trkpt>
      <trkpt lat="43.73669" lon="7.01405">
        <ele>762</ele>
        <time>2011-07-16T14:46:01Z</time>
      </trkpt>
      <trkpt lat="43.73669" lon="7.01404">
        <ele>762</ele>
        <time>2011-07-16T14:46:04Z</time>
      </trkpt>
      <trkpt lat="43.73669" lon="7.01403">
        <ele>762</ele>
        <time>2011-07-16T14:46:05Z</time>
      </trkpt>
      <trkpt lat="43.73669" lon="7.01401">
        <ele>762</ele>
        <time>2011-07-16T14:46:07Z</time>
      </trkpt>
      <trkpt lat="43.73669" lon="7.014">
        <ele>763</ele>
        <time>2011-07-16T14:46:08Z</time>
      </trkpt>
      <trkpt lat="43.73669" lon="7.01399">
        <ele>763</ele>
        <time>2011-07-16T14:46:09Z</time>
      </trkpt>
      <trkpt lat="43.73669" lon="7.01397">
        <ele>763</ele>
        <time>2011-07-16T14:46:11Z</time>
      </trkpt>
      <trkpt lat="43.73668" lon="7.01397">
        <ele>762</ele>
        <time>2011-07-16T14:46:12Z</time>
      </trkpt>
      <trkpt lat="43.73667" lon="7.01397">
        <ele>762</ele>
        <time>2011-07-16T14:46:13Z</time>
      </trkpt>
      <trkpt lat="43.73667" lon="7.01396">
        <ele>762</ele>
        <time>2011-07-16T14:46:14Z</time>
      </trkpt>
      <trkpt lat="43.73667" lon="7.01394">
        <ele>763</ele>
        <time>2011-07-16T14:46:16Z</time>
      </trkpt>
      <trkpt lat="43.73667" lon="7.01392">
        <ele>763</ele>
        <time>2011-07-16T14:46:17Z</time>
      </trkpt>
      <trkpt lat="43.73666" lon="7.01391">
        <ele>763</ele>
        <time>2011-07-16T14:46:18Z</time>
      </trkpt>
      <trkpt lat="43.73666" lon="7.0139">
        <ele>763</ele>
        <time>2011-07-16T14:46:19Z</time>
      </trkpt>
      <trkpt lat="43.73665" lon="7.01389">
        <ele>763</ele>
        <time>2011-07-16T14:46:20Z</time>
      </trkpt>
      <trkpt lat="43.73665" lon="7.01388">
        <ele>763</ele>
        <time>2011-07-16T14:46:21Z</time>
      </trkpt>
      <trkpt lat="43.73665" lon="7.01387">
        <ele>764</ele>
        <time>2011-07-16T14:46:22Z</time>
      </trkpt>
      <trkpt lat="43.73664" lon="7.01386">
        <ele>764</ele>
        <time>2011-07-16T14:46:23Z</time>
      </trkpt>
      <trkpt lat="43.73663" lon="7.01385">
        <ele>764</ele>
        <time>2011-07-16T14:46:24Z</time>
      </trkpt>
      <trkpt lat="43.73663" lon="7.01384">
        <ele>764</ele>
        <time>2011-07-16T14:46:25Z</time>
      </trkpt>
      <trkpt lat="43.73663" lon="7.01383">
        <ele>764</ele>
        <time>2011-07-16T14:46:26Z</time>
      </trkpt>
      <trkpt lat="43.73663" lon="7.01383">
        <ele>765</ele>
        <time>2011-07-16T14:46:27Z</time>
      </trkpt>
      <trkpt lat="43.73662" lon="7.01382">
        <ele>765</ele>
        <time>2011-07-16T14:46:28Z</time>
      </trkpt>
      <trkpt lat="43.73662" lon="7.01381">
        <ele>765</ele>
        <time>2011-07-16T14:46:29Z</time>
      </trkpt>
      <trkpt lat="43.73662" lon="7.0138">
        <ele>765</ele>
        <time>2011-07-16T14:46:30Z</time>
      </trkpt>
      <trkpt lat="43.73661" lon="7.01379">
        <ele>765</ele>
        <time>2011-07-16T14:46:31Z</time>
      </trkpt>
      <trkpt lat="43.7366" lon="7.01379">
        <ele>765</ele>
        <time>2011-07-16T14:46:32Z</time>
      </trkpt>
      <trkpt lat="43.7366" lon="7.01378">
        <ele>765</ele>
        <time>2011-07-16T14:46:33Z</time>
      </trkpt>
      <trkpt lat="43.73659" lon="7.01377">
        <ele>766</ele>
        <time>2011-07-16T14:46:34Z</time>
      </trkpt>
      <trkpt lat="43.73659" lon="7.01376">
        <ele>765</ele>
        <time>2011-07-16T14:46:35Z</time>
      </trkpt>
      <trkpt lat="43.73658" lon="7.01375">
        <ele>765</ele>
        <time>2011-07-16T14:46:36Z</time>
      </trkpt>
      <trkpt lat="43.73656" lon="7.01374">
        <ele>765</ele>
        <time>2011-07-16T14:46:37Z</time>
      </trkpt>
      <trkpt lat="43.73655" lon="7.01373">
        <ele>765</ele>
        <time>2011-07-16T14:46:38Z</time>
      </trkpt>
      <trkpt lat="43.73655" lon="7.01372">
        <ele>765</ele>
        <time>2011-07-16T14:46:39Z</time>
      </trkpt>
      <trkpt lat="43.73654" lon="7.01371">
        <ele>765</ele>
        <time>2011-07-16T14:46:40Z</time>
      </trkpt>
      <trkpt lat="43.73654" lon="7.0137">
        <ele>766</ele>
        <time>2011-07-16T14:46:41Z</time>
      </trkpt>
      <trkpt lat="43.73653" lon="7.0137">
        <ele>766</ele>
        <time>2011-07-16T14:46:42Z</time>
      </trkpt>
      <trkpt lat="43.73653" lon="7.01369">
        <ele>766</ele>
        <time>2011-07-16T14:46:43Z</time>
      </trkpt>
      <trkpt lat="43.73652" lon="7.01368">
        <ele>767</ele>
        <time>2011-07-16T14:46:44Z</time>
      </trkpt>
      <trkpt lat="43.73652" lon="7.01368">
        <ele>767</ele>
        <time>2011-07-16T14:46:45Z</time>
      </trkpt>
      <trkpt lat="43.7365" lon="7.01367">
        <ele>767</ele>
        <time>2011-07-16T14:46:46Z</time>
      </trkpt>
      <trkpt lat="43.73649" lon="7.01367">
        <ele>767</ele>
        <time>2011-07-16T14:46:47Z</time>
      </trkpt>
      <trkpt lat="43.73648" lon="7.01367">
        <ele>767</ele>
        <time>2011-07-16T14:46:48Z</time>
      </trkpt>
      <trkpt lat="43.73647" lon="7.01367">
        <ele>768</ele>
        <time>2011-07-16T14:46:49Z</time>
      </trkpt>
      <trkpt lat="43.73646" lon="7.01368">
        <ele>768</ele>
        <time>2011-07-16T14:46:50Z</time>
      </trkpt>
      <trkpt lat="43.73645" lon="7.01369">
        <ele>768</ele>
        <time>2011-07-16T14:46:51Z</time>
      </trkpt>
      <trkpt lat="43.73644" lon="7.01369">
        <ele>768</ele>
        <time>2011-07-16T14:46:52Z</time>
      </trkpt>
      <trkpt lat="43.73643" lon="7.01368">
        <ele>769</ele>
        <time>2011-07-16T14:46:53Z</time>
      </trkpt>
      <trkpt lat="43.73642" lon="7.01369">
        <ele>768</ele>
        <time>2011-07-16T14:46:54Z</time>
      </trkpt>
      <trkpt lat="43.73641" lon="7.01368">
        <ele>768</ele>
        <time>2011-07-16T14:46:55Z</time>
      </trkpt>
      <trkpt lat="43.7364" lon="7.01367">
        <ele>769</ele>
        <time>2011-07-16T14:47:00Z</time>
      </trkpt>
      <trkpt lat="43.7364" lon="7.01367">
        <ele>769</ele>
        <time>2011-07-16T14:47:01Z</time>
      </trkpt>
      <trkpt lat="43.73639" lon="7.01366">
        <ele>769</ele>
        <time>2011-07-16T14:47:02Z</time>
      </trkpt>
      <trkpt lat="43.73638" lon="7.01365">
        <ele>769</ele>
        <time>2011-07-16T14:47:03Z</time>
      </trkpt>
      <trkpt lat="43.73638" lon="7.01365">
        <ele>769</ele>
        <time>2011-07-16T14:47:04Z</time>
      </trkpt>
      <trkpt lat="43.73637" lon="7.01365">
        <ele>769</ele>
        <time>2011-07-16T14:47:05Z</time>
      </trkpt>
      <trkpt lat="43.73637" lon="7.01365">
        <ele>769</ele>
        <time>2011-07-16T14:47:06Z</time>
      </trkpt>
      <trkpt lat="43.73636" lon="7.01365">
        <ele>769</ele>
        <time>2011-07-16T14:47:07Z</time>
      </trkpt>
      <trkpt lat="43.73636" lon="7.01364">
        <ele>769</ele>
        <time>2011-07-16T14:47:09Z</time>
      </trkpt>
      <trkpt lat="43.73635" lon="7.01365">
        <ele>769</ele>
        <time>2011-07-16T14:47:10Z</time>
      </trkpt>
      <trkpt lat="43.73635" lon="7.01365">
        <ele>769</ele>
        <time>2011-07-16T14:47:11Z</time>
      </trkpt>
      <trkpt lat="43.73635" lon="7.01365">
        <ele>769</ele>
        <time>2011-07-16T14:47:12Z</time>
      </trkpt>
      <trkpt lat="43.73636" lon="7.01364">
        <ele>769</ele>
        <time>2011-07-16T14:47:13Z</time>
      </trkpt>
      <trkpt lat="43.73635" lon="7.01365">
        <ele>769</ele>
        <time>2011-07-16T14:47:15Z</time>
      </trkpt>
      <trkpt lat="43.73635" lon="7.01365">
        <ele>769</ele>
        <time>2011-07-16T14:47:47Z</time>
      </trkpt>
      <trkpt lat="43.73635" lon="7.01365">
        <ele>769</ele>
        <time>2011-07-16T14:47:51Z</time>
      </trkpt>
      <trkpt lat="43.73634" lon="7.01365">
        <ele>769</ele>
        <time>2011-07-16T14:47:52Z</time>
      </trkpt>
      <trkpt lat="43.73631" lon="7.01365">
        <ele>769</ele>
        <time>2011-07-16T14:47:54Z</time>
      </trkpt>
      <trkpt lat="43.7363" lon="7.01364">
        <ele>769</ele>
        <time>2011-07-16T14:47:55Z</time>
      </trkpt>
      <trkpt lat="43.73628" lon="7.01364">
        <ele>769</ele>
        <time>2011-07-16T14:47:56Z</time>
      </trkpt>
      <trkpt lat="43.73627" lon="7.01365">
        <ele>769</ele>
        <time>2011-07-16T14:47:57Z</time>
      </trkpt>
      <trkpt lat="43.73625" lon="7.01365">
        <ele>769</ele>
        <time>2011-07-16T14:47:58Z</time>
      </trkpt>
      <trkpt lat="43.73623" lon="7.01365">
        <ele>769</ele>
        <time>2011-07-16T14:47:59Z</time>
      </trkpt>
      <trkpt lat="43.73621" lon="7.01366">
        <ele>769</ele>
        <time>2011-07-16T14:48:00Z</time>
      </trkpt>
      <trkpt lat="43.7362" lon="7.01366">
        <ele>769</ele>
        <time>2011-07-16T14:48:01Z</time>
      </trkpt>
      <trkpt lat="43.73618" lon="7.01365">
        <ele>769</ele>
        <time>2011-07-16T14:48:02Z</time>
      </trkpt>
      <trkpt lat="43.73616" lon="7.01365">
        <ele>769</ele>
        <time>2011-07-16T14:48:03Z</time>
      </trkpt>
      <trkpt lat="43.73614" lon="7.01363">
        <ele>769</ele>
        <time>2011-07-16T14:48:04Z</time>
      </trkpt>
      <trkpt lat="43.73613" lon="7.01361">
        <ele>770</ele>
        <time>2011-07-16T14:48:05Z</time>
      </trkpt>
      <trkpt lat="43.73612" lon="7.01358">
        <ele>770</ele>
        <time>2011-07-16T14:48:06Z</time>
      </trkpt>
      <trkpt lat="43.73612" lon="7.01355">
        <ele>770</ele>
        <time>2011-07-16T14:48:07Z</time>
      </trkpt>
      <trkpt lat="43.73613" lon="7.01353">
        <ele>770</ele>
        <time>2011-07-16T14:48:08Z</time>
      </trkpt>
      <trkpt lat="43.73613" lon="7.01351">
        <ele>770</ele>
        <time>2011-07-16T14:48:09Z</time>
      </trkpt>
      <trkpt lat="43.73614" lon="7.0135">
        <ele>770</ele>
        <time>2011-07-16T14:48:10Z</time>
      </trkpt>
      <trkpt lat="43.73614" lon="7.0135">
        <ele>770</ele>
        <time>2011-07-16T14:48:11Z</time>
      </trkpt>
      <trkpt lat="43.73613" lon="7.0135">
        <ele>770</ele>
        <time>2011-07-16T14:48:12Z</time>
      </trkpt>
      <trkpt lat="43.73614" lon="7.0135">
        <ele>770</ele>
        <time>2011-07-16T14:48:13Z</time>
      </trkpt>
      <trkpt lat="43.73614" lon="7.0135">
        <ele>770</ele>
        <time>2011-07-16T14:48:14Z</time>
      </trkpt>
      <trkpt lat="43.73613" lon="7.0135">
        <ele>770</ele>
        <time>2011-07-16T14:48:15Z</time>
      </trkpt>
      <trkpt lat="43.73614" lon="7.01349">
        <ele>770</ele>
        <time>2011-07-16T14:48:16Z</time>
      </trkpt>
      <trkpt lat="43.73614" lon="7.01349">
        <ele>770</ele>
        <time>2011-07-16T14:48:17Z</time>
      </trkpt>
      <trkpt lat="43.73614" lon="7.01348">
        <ele>770</ele>
        <time>2011-07-16T14:48:20Z</time>
      </trkpt>
      <trkpt lat="43.73614" lon="7.01348">
        <ele>770</ele>
        <time>2011-07-16T14:48:21Z</time>
      </trkpt>
      <trkpt lat="43.73614" lon="7.01347">
        <ele>770</ele>
        <time>2011-07-16T14:48:22Z</time>
      </trkpt>
      <trkpt lat="43.73615" lon="7.01346">
        <ele>770</ele>
        <time>2011-07-16T14:48:23Z</time>
      </trkpt>
      <trkpt lat="43.73614" lon="7.01346">
        <ele>770</ele>
        <time>2011-07-16T14:48:24Z</time>
      </trkpt>
      <trkpt lat="43.73616" lon="7.01345">
        <ele>770</ele>
        <time>2011-07-16T14:48:25Z</time>
      </trkpt>
      <trkpt lat="43.73617" lon="7.01345">
        <ele>770</ele>
        <time>2011-07-16T14:48:26Z</time>
      </trkpt>
      <trkpt lat="43.73616" lon="7.01344">
        <ele>770</ele>
        <time>2011-07-16T14:48:27Z</time>
      </trkpt>
      <trkpt lat="43.73616" lon="7.01343">
        <ele>770</ele>
        <time>2011-07-16T14:48:28Z</time>
      </trkpt>
      <trkpt lat="43.73616" lon="7.01343">
        <ele>770</ele>
        <time>2011-07-16T14:48:29Z</time>
      </trkpt>
      <trkpt lat="43.73616" lon="7.01342">
        <ele>770</ele>
        <time>2011-07-16T14:48:30Z</time>
      </trkpt>
      <trkpt lat="43.73615" lon="7.01341">
        <ele>771</ele>
        <time>2011-07-16T14:48:31Z</time>
      </trkpt>
      <trkpt lat="43.73615" lon="7.0134">
        <ele>771</ele>
        <time>2011-07-16T14:48:32Z</time>
      </trkpt>
      <trkpt lat="43.73615" lon="7.01338">
        <ele>771</ele>
        <time>2011-07-16T14:48:34Z</time>
      </trkpt>
      <trkpt lat="43.73615" lon="7.01337">
        <ele>771</ele>
        <time>2011-07-16T14:48:35Z</time>
      </trkpt>
      <trkpt lat="43.73614" lon="7.01336">
        <ele>771</ele>
        <time>2011-07-16T14:48:36Z</time>
      </trkpt>
      <trkpt lat="43.73614" lon="7.01335">
        <ele>771</ele>
        <time>2011-07-16T14:48:37Z</time>
      </trkpt>
      <trkpt lat="43.73613" lon="7.01334">
        <ele>771</ele>
        <time>2011-07-16T14:48:38Z</time>
      </trkpt>
      <trkpt lat="43.73613" lon="7.01333">
        <ele>771</ele>
        <time>2011-07-16T14:48:39Z</time>
      </trkpt>
      <trkpt lat="43.73612" lon="7.01332">
        <ele>771</ele>
        <time>2011-07-16T14:48:40Z</time>
      </trkpt>
      <trkpt lat="43.73611" lon="7.01331">
        <ele>771</ele>
        <time>2011-07-16T14:48:41Z</time>
      </trkpt>
      <trkpt lat="43.73611" lon="7.0133">
        <ele>772</ele>
        <time>2011-07-16T14:48:42Z</time>
      </trkpt>
      <trkpt lat="43.7361" lon="7.01329">
        <ele>771</ele>
        <time>2011-07-16T14:48:45Z</time>
      </trkpt>
      <trkpt lat="43.7361" lon="7.01329">
        <ele>772</ele>
        <time>2011-07-16T14:48:46Z</time>
      </trkpt>
      <trkpt lat="43.73609" lon="7.01327">
        <ele>772</ele>
        <time>2011-07-16T14:48:47Z</time>
      </trkpt>
      <trkpt lat="43.73609" lon="7.01326">
        <ele>772</ele>
        <time>2011-07-16T14:48:48Z</time>
      </trkpt>
      <trkpt lat="43.73607" lon="7.01323">
        <ele>772</ele>
        <time>2011-07-16T14:48:50Z</time>
      </trkpt>
      <trkpt lat="43.73607" lon="7.01322">
        <ele>772</ele>
        <time>2011-07-16T14:48:51Z</time>
      </trkpt>
      <trkpt lat="43.73606" lon="7.0132">
        <ele>772</ele>
        <time>2011-07-16T14:48:52Z</time>
      </trkpt>
      <trkpt lat="43.73606" lon="7.01318">
        <ele>772</ele>
        <time>2011-07-16T14:48:53Z</time>
      </trkpt>
      <trkpt lat="43.73604" lon="7.01317">
        <ele>772</ele>
        <time>2011-07-16T14:48:54Z</time>
      </trkpt>
      <trkpt lat="43.73603" lon="7.01315">
        <ele>772</ele>
        <time>2011-07-16T14:48:55Z</time>
      </trkpt>
      <trkpt lat="43.73603" lon="7.01314">
        <ele>772</ele>
        <time>2011-07-16T14:48:56Z</time>
      </trkpt>
      <trkpt lat="43.73602" lon="7.01314">
        <ele>773</ele>
        <time>2011-07-16T14:48:57Z</time>
      </trkpt>
      <trkpt lat="43.736" lon="7.01315">
        <ele>773</ele>
        <time>2011-07-16T14:48:58Z</time>
      </trkpt>
      <trkpt lat="43.73599" lon="7.01315">
        <ele>773</ele>
        <time>2011-07-16T14:48:59Z</time>
      </trkpt>
      <trkpt lat="43.73598" lon="7.01316">
        <ele>773</ele>
        <time>2011-07-16T14:49:00Z</time>
      </trkpt>
      <trkpt lat="43.73597" lon="7.01318">
        <ele>773</ele>
        <time>2011-07-16T14:49:01Z</time>
      </trkpt>
      <trkpt lat="43.73596" lon="7.0132">
        <ele>773</ele>
        <time>2011-07-16T14:49:02Z</time>
      </trkpt>
      <trkpt lat="43.73595" lon="7.01321">
        <ele>773</ele>
        <time>2011-07-16T14:49:03Z</time>
      </trkpt>
      <trkpt lat="43.73594" lon="7.01321">
        <ele>774</ele>
        <time>2011-07-16T14:49:04Z</time>
      </trkpt>
      <trkpt lat="43.73593" lon="7.01321">
        <ele>774</ele>
        <time>2011-07-16T14:49:05Z</time>
      </trkpt>
      <trkpt lat="43.73592" lon="7.01319">
        <ele>774</ele>
        <time>2011-07-16T14:49:06Z</time>
      </trkpt>
      <trkpt lat="43.73591" lon="7.01319">
        <ele>774</ele>
        <time>2011-07-16T14:49:07Z</time>
      </trkpt>
      <trkpt lat="43.7359" lon="7.01319">
        <ele>775</ele>
        <time>2011-07-16T14:49:08Z</time>
      </trkpt>
      <trkpt lat="43.73589" lon="7.0132">
        <ele>775</ele>
        <time>2011-07-16T14:49:09Z</time>
      </trkpt>
      <trkpt lat="43.73589" lon="7.01321">
        <ele>775</ele>
        <time>2011-07-16T14:49:10Z</time>
      </trkpt>
      <trkpt lat="43.73588" lon="7.01321">
        <ele>775</ele>
        <time>2011-07-16T14:49:11Z</time>
      </trkpt>
      <trkpt lat="43.73587" lon="7.01321">
        <ele>775</ele>
        <time>2011-07-16T14:49:12Z</time>
      </trkpt>
      <trkpt lat="43.73585" lon="7.01321">
        <ele>776</ele>
        <time>2011-07-16T14:49:13Z</time>
      </trkpt>
      <trkpt lat="43.73583" lon="7.01322">
        <ele>776</ele>
        <time>2011-07-16T14:49:14Z</time>
      </trkpt>
      <trkpt lat="43.73582" lon="7.01322">
        <ele>776</ele>
        <time>2011-07-16T14:49:15Z</time>
      </trkpt>
      <trkpt lat="43.73581" lon="7.01322">
        <ele>776</ele>
        <time>2011-07-16T14:49:16Z</time>
      </trkpt>
      <trkpt lat="43.73579" lon="7.01323">
        <ele>776</ele>
        <time>2011-07-16T14:49:17Z</time>
      </trkpt>
      <trkpt lat="43.73577" lon="7.01324">
        <ele>776</ele>
        <time>2011-07-16T14:49:18Z</time>
      </trkpt>
      <trkpt lat="43.73576" lon="7.01325">
        <ele>776</ele>
        <time>2011-07-16T14:49:19Z</time>
      </trkpt>
      <trkpt lat="43.73575" lon="7.01327">
        <ele>776</ele>
        <time>2011-07-16T14:49:20Z</time>
      </trkpt>
      <trkpt lat="43.73573" lon="7.01329">
        <ele>776</ele>
        <time>2011-07-16T14:49:21Z</time>
      </trkpt>
      <trkpt lat="43.73571" lon="7.0133">
        <ele>777</ele>
        <time>2011-07-16T14:49:22Z</time>
      </trkpt>
      <trkpt lat="43.7357" lon="7.0133">
        <ele>777</ele>
        <time>2011-07-16T14:49:23Z</time>
      </trkpt>
      <trkpt lat="43.73569" lon="7.0133">
        <ele>777</ele>
        <time>2011-07-16T14:49:24Z</time>
      </trkpt>
      <trkpt lat="43.73568" lon="7.0133">
        <ele>777</ele>
        <time>2011-07-16T14:49:25Z</time>
      </trkpt>
      <trkpt lat="43.73566" lon="7.0133">
        <ele>778</ele>
        <time>2011-07-16T14:49:26Z</time>
      </trkpt>
      <trkpt lat="43.73566" lon="7.0133">
        <ele>778</ele>
        <time>2011-07-16T14:49:27Z</time>
      </trkpt>
      <trkpt lat="43.73566" lon="7.01331">
        <ele>778</ele>
        <time>2011-07-16T14:49:29Z</time>
      </trkpt>
      <trkpt lat="43.73566" lon="7.01331">
        <ele>778</ele>
        <time>2011-07-16T14:49:30Z</time>
      </trkpt>
      <trkpt lat="43.73565" lon="7.01332">
        <ele>779</ele>
        <time>2011-07-16T14:49:31Z</time>
      </trkpt>
      <trkpt lat="43.73565" lon="7.01333">
        <ele>779</ele>
        <time>2011-07-16T14:49:32Z</time>
      </trkpt>
      <trkpt lat="43.73564" lon="7.01333">
        <ele>779</ele>
        <time>2011-07-16T14:49:33Z</time>
      </trkpt>
      <trkpt lat="43.73564" lon="7.01334">
        <ele>780</ele>
        <time>2011-07-16T14:49:34Z</time>
      </trkpt>
      <trkpt lat="43.73563" lon="7.01335">
        <ele>780</ele>
        <time>2011-07-16T14:49:35Z</time>
      </trkpt>
      <trkpt lat="43.73563" lon="7.01336">
        <ele>781</ele>
        <time>2011-07-16T14:49:36Z</time>
      </trkpt>
      <trkpt lat="43.73562" lon="7.01337">
        <ele>781</ele>
        <time>2011-07-16T14:49:37Z</time>
      </trkpt>
      <trkpt lat="43.73562" lon="7.01338">
        <ele>781</ele>
        <time>2011-07-16T14:49:38Z</time>
      </trkpt>
      <trkpt lat="43.73562" lon="7.01339">
        <ele>782</ele>
        <time>2011-07-16T14:49:39Z</time>
      </trkpt>
      <trkpt lat="43.73562" lon="7.0134">
        <ele>782</ele>
        <time>2011-07-16T14:49:40Z</time>
      </trkpt>
      <trkpt lat="43.73561" lon="7.0134">
        <ele>782</ele>
        <time>2011-07-16T14:49:41Z</time>
      </trkpt>
      <trkpt lat="43.73561" lon="7.0134">
        <ele>782</ele>
        <time>2011-07-16T14:49:42Z</time>
      </trkpt>
      <trkpt lat="43.7356" lon="7.0134">
        <ele>782</ele>
        <time>2011-07-16T14:49:43Z</time>
      </trkpt>
      <trkpt lat="43.73559" lon="7.01339">
        <ele>782</ele>
        <time>2011-07-16T14:49:44Z</time>
      </trkpt>
      <trkpt lat="43.73559" lon="7.0134">
        <ele>783</ele>
        <time>2011-07-16T14:49:48Z</time>
      </trkpt>
      <trkpt lat="43.73559" lon="7.0134">
        <ele>783</ele>
        <time>2011-07-16T14:49:49Z</time>
      </trkpt>
      <trkpt lat="43.73559" lon="7.01339">
        <ele>783</ele>
        <time>2011-07-16T14:49:50Z</time>
      </trkpt>
      <trkpt lat="43.73558" lon="7.01339">
        <ele>783</ele>
        <time>2011-07-16T14:49:51Z</time>
      </trkpt>
      <trkpt lat="43.73558" lon="7.01338">
        <ele>783</ele>
        <time>2011-07-16T14:49:52Z</time>
      </trkpt>
      <trkpt lat="43.73558" lon="7.01337">
        <ele>783</ele>
        <time>2011-07-16T14:49:53Z</time>
      </trkpt>
      <trkpt lat="43.73558" lon="7.01337">
        <ele>783</ele>
        <time>2011-07-16T14:49:54Z</time>
      </trkpt>
      <trkpt lat="43.73558" lon="7.01336">
        <ele>783</ele>
        <time>2011-07-16T14:49:58Z</time>
      </trkpt>
      <trkpt lat="43.73558" lon="7.01335">
        <ele>783</ele>
        <time>2011-07-16T14:49:59Z</time>
      </trkpt>
      <trkpt lat="43.73558" lon="7.01333">
        <ele>783</ele>
        <time>2011-07-16T14:50:00Z</time>
      </trkpt>
      <trkpt lat="43.73558" lon="7.01332">
        <ele>783</ele>
        <time>2011-07-16T14:50:01Z</time>
      </trkpt>
      <trkpt lat="43.73557" lon="7.0133">
        <ele>783</ele>
        <time>2011-07-16T14:50:02Z</time>
      </trkpt>
      <trkpt lat="43.73557" lon="7.01328">
        <ele>783</ele>
        <time>2011-07-16T14:50:03Z</time>
      </trkpt>
      <trkpt lat="43.73556" lon="7.01326">
        <ele>783</ele>
        <time>2011-07-16T14:50:04Z</time>
      </trkpt>
      <trkpt lat="43.73555" lon="7.01325">
        <ele>783</ele>
        <time>2011-07-16T14:50:05Z</time>
      </trkpt>
      <trkpt lat="43.73555" lon="7.01325">
        <ele>783</ele>
        <time>2011-07-16T14:50:06Z</time>
      </trkpt>
      <trkpt lat="43.73554" lon="7.01324">
        <ele>783</ele>
        <time>2011-07-16T14:50:07Z</time>
      </trkpt>
      <trkpt lat="43.73554" lon="7.01324">
        <ele>783</ele>
        <time>2011-07-16T14:50:08Z</time>
      </trkpt>
      <trkpt lat="43.73554" lon="7.01322">
        <ele>783</ele>
        <time>2011-07-16T14:50:09Z</time>
      </trkpt>
      <trkpt lat="43.73553" lon="7.01321">
        <ele>784</ele>
        <time>2011-07-16T14:50:10Z</time>
      </trkpt>
      <trkpt lat="43.73552" lon="7.01319">
        <ele>784</ele>
        <time>2011-07-16T14:50:11Z</time>
      </trkpt>
      <trkpt lat="43.73552" lon="7.01318">
        <ele>784</ele>
        <time>2011-07-16T14:50:12Z</time>
      </trkpt>
      <trkpt lat="43.73551" lon="7.01317">
        <ele>785</ele>
        <time>2011-07-16T14:50:13Z</time>
      </trkpt>
      <trkpt lat="43.73551" lon="7.01316">
        <ele>785</ele>
        <time>2011-07-16T14:50:14Z</time>
      </trkpt>
      <trkpt lat="43.7355" lon="7.01315">
        <ele>785</ele>
        <time>2011-07-16T14:50:15Z</time>
      </trkpt>
      <trkpt lat="43.7355" lon="7.01314">
        <ele>785</ele>
        <time>2011-07-16T14:50:16Z</time>
      </trkpt>
      <trkpt lat="43.73549" lon="7.01313">
        <ele>785</ele>
        <time>2011-07-16T14:50:17Z</time>
      </trkpt>
      <trkpt lat="43.73548" lon="7.01312">
        <ele>785</ele>
        <time>2011-07-16T14:50:18Z</time>
      </trkpt>
      <trkpt lat="43.73548" lon="7.01312">
        <ele>785</ele>
        <time>2011-07-16T14:50:19Z</time>
      </trkpt>
      <trkpt lat="43.73548" lon="7.01312">
        <ele>786</ele>
        <time>2011-07-16T14:50:24Z</time>
      </trkpt>
      <trkpt lat="43.73549" lon="7.01312">
        <ele>786</ele>
        <time>2011-07-16T14:50:27Z</time>
      </trkpt>
      <trkpt lat="43.73548" lon="7.01312">
        <ele>786</ele>
        <time>2011-07-16T14:50:28Z</time>
      </trkpt>
      <trkpt lat="43.73547" lon="7.01312">
        <ele>786</ele>
        <time>2011-07-16T14:50:29Z</time>
      </trkpt>
      <trkpt lat="43.73547" lon="7.01312">
        <ele>786</ele>
        <time>2011-07-16T14:50:30Z</time>
      </trkpt>
      <trkpt lat="43.73547" lon="7.0131">
        <ele>786</ele>
        <time>2011-07-16T14:51:26Z</time>
      </trkpt>
      <trkpt lat="43.73544" lon="7.0131">
        <ele>785</ele>
        <time>2011-07-16T14:51:39Z</time>
      </trkpt>
      <trkpt lat="43.73544" lon="7.01309">
        <ele>785</ele>
        <time>2011-07-16T14:51:44Z</time>
      </trkpt>
      <trkpt lat="43.73543" lon="7.01308">
        <ele>785</ele>
        <time>2011-07-16T14:51:45Z</time>
      </trkpt>
      <trkpt lat="43.73543" lon="7.01306">
        <ele>785</ele>
        <time>2011-07-16T14:51:46Z</time>
      </trkpt>
      <trkpt lat="43.73542" lon="7.01305">
        <ele>785</ele>
        <time>2011-07-16T14:51:47Z</time>
      </trkpt>
      <trkpt lat="43.73542" lon="7.01303">
        <ele>785</ele>
        <time>2011-07-16T14:51:48Z</time>
      </trkpt>
      <trkpt lat="43.73543" lon="7.01302">
        <ele>785</ele>
        <time>2011-07-16T14:51:49Z</time>
      </trkpt>
      <trkpt lat="43.73543" lon="7.01301">
        <ele>785</ele>
        <time>2011-07-16T14:51:50Z</time>
      </trkpt>
      <trkpt lat="43.73542" lon="7.01299">
        <ele>785</ele>
        <time>2011-07-16T14:51:51Z</time>
      </trkpt>
      <trkpt lat="43.73543" lon="7.01298">
        <ele>785</ele>
        <time>2011-07-16T14:51:52Z</time>
      </trkpt>
      <trkpt lat="43.73543" lon="7.01297">
        <ele>785</ele>
        <time>2011-07-16T14:51:53Z</time>
      </trkpt>
      <trkpt lat="43.7354" lon="7.01297">
        <ele>785</ele>
        <time>2011-07-16T14:51:54Z</time>
      </trkpt>
      <trkpt lat="43.73539" lon="7.01297">
        <ele>785</ele>
        <time>2011-07-16T14:51:55Z</time>
      </trkpt>
      <trkpt lat="43.73537" lon="7.01296">
        <ele>785</ele>
        <time>2011-07-16T14:51:56Z</time>
      </trkpt>
      <trkpt lat="43.73536" lon="7.01295">
        <ele>785</ele>
        <time>2011-07-16T14:51:57Z</time>
      </trkpt>
      <trkpt lat="43.73534" lon="7.01294">
        <ele>785</ele>
        <time>2011-07-16T14:51:58Z</time>
      </trkpt>
      <trkpt lat="43.73533" lon="7.01293">
        <ele>785</ele>
        <time>2011-07-16T14:51:59Z</time>
      </trkpt>
      <trkpt lat="43.73531" lon="7.01293">
        <ele>785</ele>
        <time>2011-07-16T14:52:00Z</time>
      </trkpt>
      <trkpt lat="43.73529" lon="7.01291">
        <ele>785</ele>
        <time>2011-07-16T14:52:01Z</time>
      </trkpt>
      <trkpt lat="43.73526" lon="7.0129">
        <ele>785</ele>
        <time>2011-07-16T14:52:02Z</time>
      </trkpt>
      <trkpt lat="43.73525" lon="7.01288">
        <ele>786</ele>
        <time>2011-07-16T14:52:03Z</time>
      </trkpt>
      <trkpt lat="43.73524" lon="7.01286">
        <ele>786</ele>
        <time>2011-07-16T14:52:04Z</time>
      </trkpt>
      <trkpt lat="43.73522" lon="7.01286">
        <ele>786</ele>
        <time>2011-07-16T14:52:05Z</time>
      </trkpt>
      <trkpt lat="43.7352" lon="7.01287">
        <ele>786</ele>
        <time>2011-07-16T14:52:06Z</time>
      </trkpt>
      <trkpt lat="43.73518" lon="7.01286">
        <ele>786</ele>
        <time>2011-07-16T14:52:07Z</time>
      </trkpt>
      <trkpt lat="43.73516" lon="7.01285">
        <ele>786</ele>
        <time>2011-07-16T14:52:08Z</time>
      </trkpt>
      <trkpt lat="43.73515" lon="7.01283">
        <ele>786</ele>
        <time>2011-07-16T14:52:09Z</time>
      </trkpt>
      <trkpt lat="43.73513" lon="7.01282">
        <ele>786</ele>
        <time>2011-07-16T14:52:10Z</time>
      </trkpt>
      <trkpt lat="43.73512" lon="7.0128">
        <ele>786</ele>
        <time>2011-07-16T14:52:11Z</time>
      </trkpt>
      <trkpt lat="43.7351" lon="7.01279">
        <ele>786</ele>
        <time>2011-07-16T14:52:12Z</time>
      </trkpt>
      <trkpt lat="43.73509" lon="7.01278">
        <ele>786</ele>
        <time>2011-07-16T14:52:13Z</time>
      </trkpt>
      <trkpt lat="43.73508" lon="7.01276">
        <ele>787</ele>
        <time>2011-07-16T14:52:14Z</time>
      </trkpt>
      <trkpt lat="43.73507" lon="7.01274">
        <ele>787</ele>
        <time>2011-07-16T14:52:15Z</time>
      </trkpt>
      <trkpt lat="43.73505" lon="7.01272">
        <ele>787</ele>
        <time>2011-07-16T14:52:16Z</time>
      </trkpt>
      <trkpt lat="43.73504" lon="7.01271">
        <ele>787</ele>
        <time>2011-07-16T14:52:17Z</time>
      </trkpt>
      <trkpt lat="43.73502" lon="7.01269">
        <ele>787</ele>
        <time>2011-07-16T14:52:18Z</time>
      </trkpt>
      <trkpt lat="43.73501" lon="7.01267">
        <ele>787</ele>
        <time>2011-07-16T14:52:19Z</time>
      </trkpt>
      <trkpt lat="43.735" lon="7.01266">
        <ele>787</ele>
        <time>2011-07-16T14:52:20Z</time>
      </trkpt>
      <trkpt lat="43.73499" lon="7.01264">
        <ele>787</ele>
        <time>2011-07-16T14:52:21Z</time>
      </trkpt>
      <trkpt lat="43.73498" lon="7.01263">
        <ele>788</ele>
        <time>2011-07-16T14:52:22Z</time>
      </trkpt>
      <trkpt lat="43.73496" lon="7.01262">
        <ele>788</ele>
        <time>2011-07-16T14:52:23Z</time>
      </trkpt>
      <trkpt lat="43.73494" lon="7.01262">
        <ele>788</ele>
        <time>2011-07-16T14:52:24Z</time>
      </trkpt>
      <trkpt lat="43.73491" lon="7.01262">
        <ele>788</ele>
        <time>2011-07-16T14:52:25Z</time>
      </trkpt>
      <trkpt lat="43.7349" lon="7.01262">
        <ele>788</ele>
        <time>2011-07-16T14:52:26Z</time>
      </trkpt>
      <trkpt lat="43.7349" lon="7.01263">
        <ele>789</ele>
        <time>2011-07-16T14:52:27Z</time>
      </trkpt>
      <trkpt lat="43.73489" lon="7.01263">
        <ele>789</ele>
        <time>2011-07-16T14:52:28Z</time>
      </trkpt>
      <trkpt lat="43.73488" lon="7.01264">
        <ele>789</ele>
        <time>2011-07-16T14:52:29Z</time>
      </trkpt>
      <trkpt lat="43.73487" lon="7.01264">
        <ele>790</ele>
        <time>2011-07-16T14:52:30Z</time>
      </trkpt>
      <trkpt lat="43.73485" lon="7.01264">
        <ele>790</ele>
        <time>2011-07-16T14:52:31Z</time>
      </trkpt>
      <trkpt lat="43.73484" lon="7.01265">
        <ele>790</ele>
        <time>2011-07-16T14:52:32Z</time>
      </trkpt>
      <trkpt lat="43.73483" lon="7.01265">
        <ele>790</ele>
        <time>2011-07-16T14:52:33Z</time>
      </trkpt>
      <trkpt lat="43.73482" lon="7.01264">
        <ele>791</ele>
        <time>2011-07-16T14:52:34Z</time>
      </trkpt>
      <trkpt lat="43.73481" lon="7.01264">
        <ele>791</ele>
        <time>2011-07-16T14:52:35Z</time>
      </trkpt>
      <trkpt lat="43.7348" lon="7.01263">
        <ele>791</ele>
        <time>2011-07-16T14:52:36Z</time>
      </trkpt>
      <trkpt lat="43.73478" lon="7.01262">
        <ele>791</ele>
        <time>2011-07-16T14:52:38Z</time>
      </trkpt>
      <trkpt lat="43.73477" lon="7.01262">
        <ele>792</ele>
        <time>2011-07-16T14:52:39Z</time>
      </trkpt>
      <trkpt lat="43.73475" lon="7.01262">
        <ele>792</ele>
        <time>2011-07-16T14:52:40Z</time>
      </trkpt>
      <trkpt lat="43.73473" lon="7.01262">
        <ele>792</ele>
        <time>2011-07-16T14:52:41Z</time>
      </trkpt>
      <trkpt lat="43.73472" lon="7.01263">
        <ele>792</ele>
        <time>2011-07-16T14:52:42Z</time>
      </trkpt>
      <trkpt lat="43.73471" lon="7.01262">
        <ele>792</ele>
        <time>2011-07-16T14:52:43Z</time>
      </trkpt>
      <trkpt lat="43.7347" lon="7.01263">
        <ele>793</ele>
        <time>2011-07-16T14:52:44Z</time>
      </trkpt>
      <trkpt lat="43.73469" lon="7.01264">
        <ele>793</ele>
        <time>2011-07-16T14:52:45Z</time>
      </trkpt>
      <trkpt lat="43.73468" lon="7.01264">
        <ele>793</ele>
        <time>2011-07-16T14:52:46Z</time>
      </trkpt>
      <trkpt lat="43.73468" lon="7.01264">
        <ele>793</ele>
        <time>2011-07-16T14:52:47Z</time>
      </trkpt>
      <trkpt lat="43.73467" lon="7.01264">
        <ele>793</ele>
        <time>2011-07-16T14:52:48Z</time>
      </trkpt>
      <trkpt lat="43.73465" lon="7.01265">
        <ele>794</ele>
        <time>2011-07-16T14:52:49Z</time>
      </trkpt>
      <trkpt lat="43.73464" lon="7.01267">
        <ele>794</ele>
        <time>2011-07-16T14:52:50Z</time>
      </trkpt>
      <trkpt lat="43.73463" lon="7.01268">
        <ele>794</ele>
        <time>2011-07-16T14:52:51Z</time>
      </trkpt>
      <trkpt lat="43.73463" lon="7.01268">
        <ele>794</ele>
        <time>2011-07-16T14:52:52Z</time>
      </trkpt>
      <trkpt lat="43.73462" lon="7.01271">
        <ele>795</ele>
        <time>2011-07-16T14:52:53Z</time>
      </trkpt>
      <trkpt lat="43.73462" lon="7.01273">
        <ele>795</ele>
        <time>2011-07-16T14:52:54Z</time>
      </trkpt>
      <trkpt lat="43.7346" lon="7.01273">
        <ele>795</ele>
        <time>2011-07-16T14:52:55Z</time>
      </trkpt>
      <trkpt lat="43.73459" lon="7.01273">
        <ele>796</ele>
        <time>2011-07-16T14:52:56Z</time>
      </trkpt>
      <trkpt lat="43.73458" lon="7.01273">
        <ele>796</ele>
        <time>2011-07-16T14:52:57Z</time>
      </trkpt>
      <trkpt lat="43.73458" lon="7.01272">
        <ele>796</ele>
        <time>2011-07-16T14:52:58Z</time>
      </trkpt>
      <trkpt lat="43.73457" lon="7.0127">
        <ele>797</ele>
        <time>2011-07-16T14:52:59Z</time>
      </trkpt>
      <trkpt lat="43.73456" lon="7.01268">
        <ele>797</ele>
        <time>2011-07-16T14:53:00Z</time>
      </trkpt>
      <trkpt lat="43.73457" lon="7.01266">
        <ele>797</ele>
        <time>2011-07-16T14:53:01Z</time>
      </trkpt>
      <trkpt lat="43.73455" lon="7.01265">
        <ele>798</ele>
        <time>2011-07-16T14:53:02Z</time>
      </trkpt>
      <trkpt lat="43.73454" lon="7.01263">
        <ele>798</ele>
        <time>2011-07-16T14:53:03Z</time>
      </trkpt>
      <trkpt lat="43.73453" lon="7.01262">
        <ele>798</ele>
        <time>2011-07-16T14:53:04Z</time>
      </trkpt>
      <trkpt lat="43.73453" lon="7.0126">
        <ele>798</ele>
        <time>2011-07-16T14:53:05Z</time>
      </trkpt>
      <trkpt lat="43.73452" lon="7.01258">
        <ele>799</ele>
        <time>2011-07-16T14:53:06Z</time>
      </trkpt>
      <trkpt lat="43.73452" lon="7.01256">
        <ele>799</ele>
        <time>2011-07-16T14:53:07Z</time>
      </trkpt>
      <trkpt lat="43.73451" lon="7.01254">
        <ele>799</ele>
        <time>2011-07-16T14:53:08Z</time>
      </trkpt>
      <trkpt lat="43.73451" lon="7.01252">
        <ele>799</ele>
        <time>2011-07-16T14:53:09Z</time>
      </trkpt>
      <trkpt lat="43.73451" lon="7.01251">
        <ele>800</ele>
        <time>2011-07-16T14:53:10Z</time>
      </trkpt>
      <trkpt lat="43.7345" lon="7.0125">
        <ele>800</ele>
        <time>2011-07-16T14:53:11Z</time>
      </trkpt>
      <trkpt lat="43.73448" lon="7.01249">
        <ele>800</ele>
        <time>2011-07-16T14:53:12Z</time>
      </trkpt>
      <trkpt lat="43.73446" lon="7.01248">
        <ele>800</ele>
        <time>2011-07-16T14:53:13Z</time>
      </trkpt>
      <trkpt lat="43.73444" lon="7.01246">
        <ele>800</ele>
        <time>2011-07-16T14:53:14Z</time>
      </trkpt>
      <trkpt lat="43.73442" lon="7.01244">
        <ele>801</ele>
        <time>2011-07-16T14:53:15Z</time>
      </trkpt>
      <trkpt lat="43.7344" lon="7.01243">
        <ele>801</ele>
        <time>2011-07-16T14:53:16Z</time>
      </trkpt>
      <trkpt lat="43.73438" lon="7.01242">
        <ele>801</ele>
        <time>2011-07-16T14:53:17Z</time>
      </trkpt>
      <trkpt lat="43.73436" lon="7.0124">
        <ele>801</ele>
        <time>2011-07-16T14:53:18Z</time>
      </trkpt>
      <trkpt lat="43.73436" lon="7.01238">
        <ele>801</ele>
        <time>2011-07-16T14:53:19Z</time>
      </trkpt>
      <trkpt lat="43.73435" lon="7.01236">
        <ele>801</ele>
        <time>2011-07-16T14:53:20Z</time>
      </trkpt>
      <trkpt lat="43.73434" lon="7.01235">
        <ele>802</ele>
        <time>2011-07-16T14:53:21Z</time>
      </trkpt>
      <trkpt lat="43.73434" lon="7.01234">
        <ele>802</ele>
        <time>2011-07-16T14:53:22Z</time>
      </trkpt>
      <trkpt lat="43.73433" lon="7.01232">
        <ele>802</ele>
        <time>2011-07-16T14:53:23Z</time>
      </trkpt>
      <trkpt lat="43.73432" lon="7.0123">
        <ele>802</ele>
        <time>2011-07-16T14:53:24Z</time>
      </trkpt>
      <trkpt lat="43.73431" lon="7.01229">
        <ele>802</ele>
        <time>2011-07-16T14:53:25Z</time>
      </trkpt>
      <trkpt lat="43.7343" lon="7.01227">
        <ele>803</ele>
        <time>2011-07-16T14:53:26Z</time>
      </trkpt>
      <trkpt lat="43.73429" lon="7.01226">
        <ele>803</ele>
        <time>2011-07-16T14:53:27Z</time>
      </trkpt>
      <trkpt lat="43.73429" lon="7.01225">
        <ele>803</ele>
        <time>2011-07-16T14:53:28Z</time>
      </trkpt>
      <trkpt lat="43.73427" lon="7.01223">
        <ele>803</ele>
        <time>2011-07-16T14:53:29Z</time>
      </trkpt>
      <trkpt lat="43.73426" lon="7.01219">
        <ele>804</ele>
        <time>2011-07-16T14:53:30Z</time>
      </trkpt>
      <trkpt lat="43.73425" lon="7.01218">
        <ele>804</ele>
        <time>2011-07-16T14:53:31Z</time>
      </trkpt>
      <trkpt lat="43.73423" lon="7.01216">
        <ele>804</ele>
        <time>2011-07-16T14:53:32Z</time>
      </trkpt>
      <trkpt lat="43.73421" lon="7.01213">
        <ele>804</ele>
        <time>2011-07-16T14:53:33Z</time>
      </trkpt>
      <trkpt lat="43.7342" lon="7.01211">
        <ele>804</ele>
        <time>2011-07-16T14:53:34Z</time>
      </trkpt>
      <trkpt lat="43.73419" lon="7.01209">
        <ele>805</ele>
        <time>2011-07-16T14:53:35Z</time>
      </trkpt>
      <trkpt lat="43.73417" lon="7.01209">
        <ele>805</ele>
        <time>2011-07-16T14:53:36Z</time>
      </trkpt>
      <trkpt lat="43.73417" lon="7.01208">
        <ele>805</ele>
        <time>2011-07-16T14:53:37Z</time>
      </trkpt>
      <trkpt lat="43.73417" lon="7.01206">
        <ele>805</ele>
        <time>2011-07-16T14:53:38Z</time>
      </trkpt>
      <trkpt lat="43.73419" lon="7.01205">
        <ele>806</ele>
        <time>2011-07-16T14:53:39Z</time>
      </trkpt>
      <trkpt lat="43.73417" lon="7.01204">
        <ele>806</ele>
        <time>2011-07-16T14:53:40Z</time>
      </trkpt>
      <trkpt lat="43.73416" lon="7.01203">
        <ele>806</ele>
        <time>2011-07-16T14:53:41Z</time>
      </trkpt>
      <trkpt lat="43.73414" lon="7.01201">
        <ele>807</ele>
        <time>2011-07-16T14:53:42Z</time>
      </trkpt>
      <trkpt lat="43.73413" lon="7.01199">
        <ele>807</ele>
        <time>2011-07-16T14:53:43Z</time>
      </trkpt>
      <trkpt lat="43.73411" lon="7.01197">
        <ele>807</ele>
        <time>2011-07-16T14:53:44Z</time>
      </trkpt>
      <trkpt lat="43.73409" lon="7.01197">
        <ele>807</ele>
        <time>2011-07-16T14:53:45Z</time>
      </trkpt>
      <trkpt lat="43.73407" lon="7.01196">
        <ele>807</ele>
        <time>2011-07-16T14:53:46Z</time>
      </trkpt>
      <trkpt lat="43.73406" lon="7.01195">
        <ele>807</ele>
        <time>2011-07-16T14:53:47Z</time>
      </trkpt>
      <trkpt lat="43.73404" lon="7.01193">
        <ele>808</ele>
        <time>2011-07-16T14:53:48Z</time>
      </trkpt>
      <trkpt lat="43.73401" lon="7.01192">
        <ele>808</ele>
        <time>2011-07-16T14:53:49Z</time>
      </trkpt>
      <trkpt lat="43.73398" lon="7.01191">
        <ele>808</ele>
        <time>2011-07-16T14:53:50Z</time>
      </trkpt>
      <trkpt lat="43.73395" lon="7.0119">
        <ele>808</ele>
        <time>2011-07-16T14:53:51Z</time>
      </trkpt>
      <trkpt lat="43.73393" lon="7.01187">
        <ele>808</ele>
        <time>2011-07-16T14:53:52Z</time>
      </trkpt>
      <trkpt lat="43.73391" lon="7.01183">
        <ele>808</ele>
        <time>2011-07-16T14:53:53Z</time>
      </trkpt>
      <trkpt lat="43.73391" lon="7.0118">
        <ele>808</ele>
        <time>2011-07-16T14:53:54Z</time>
      </trkpt>
      <trkpt lat="43.73391" lon="7.01178">
        <ele>809</ele>
        <time>2011-07-16T14:53:55Z</time>
      </trkpt>
      <trkpt lat="43.73391" lon="7.01176">
        <ele>809</ele>
        <time>2011-07-16T14:53:56Z</time>
      </trkpt>
      <trkpt lat="43.73391" lon="7.01174">
        <ele>809</ele>
        <time>2011-07-16T14:53:57Z</time>
      </trkpt>
      <trkpt lat="43.7339" lon="7.01172">
        <ele>809</ele>
        <time>2011-07-16T14:53:58Z</time>
      </trkpt>
      <trkpt lat="43.7339" lon="7.01171">
        <ele>809</ele>
        <time>2011-07-16T14:53:59Z</time>
      </trkpt>
      <trkpt lat="43.7339" lon="7.0117">
        <ele>810</ele>
        <time>2011-07-16T14:54:00Z</time>
      </trkpt>
      <trkpt lat="43.7339" lon="7.01167">
        <ele>810</ele>
        <time>2011-07-16T14:54:01Z</time>
      </trkpt>
      <trkpt lat="43.7339" lon="7.01165">
        <ele>810</ele>
        <time>2011-07-16T14:54:02Z</time>
      </trkpt>
      <trkpt lat="43.7339" lon="7.01162">
        <ele>810</ele>
        <time>2011-07-16T14:54:03Z</time>
      </trkpt>
      <trkpt lat="43.73389" lon="7.0116">
        <ele>811</ele>
        <time>2011-07-16T14:54:04Z</time>
      </trkpt>
      <trkpt lat="43.73389" lon="7.01157">
        <ele>811</ele>
        <time>2011-07-16T14:54:05Z</time>
      </trkpt>
      <trkpt lat="43.73388" lon="7.01156">
        <ele>811</ele>
        <time>2011-07-16T14:54:06Z</time>
      </trkpt>
      <trkpt lat="43.73388" lon="7.01154">
        <ele>811</ele>
        <time>2011-07-16T14:54:07Z</time>
      </trkpt>
      <trkpt lat="43.73387" lon="7.01153">
        <ele>812</ele>
        <time>2011-07-16T14:54:08Z</time>
      </trkpt>
      <trkpt lat="43.73386" lon="7.01152">
        <ele>812</ele>
        <time>2011-07-16T14:54:09Z</time>
      </trkpt>
      <trkpt lat="43.73385" lon="7.01152">
        <ele>812</ele>
        <time>2011-07-16T14:54:10Z</time>
      </trkpt>
      <trkpt lat="43.73383" lon="7.01152">
        <ele>812</ele>
        <time>2011-07-16T14:54:11Z</time>
      </trkpt>
      <trkpt lat="43.73382" lon="7.01152">
        <ele>812</ele>
        <time>2011-07-16T14:54:12Z</time>
      </trkpt>
      <trkpt lat="43.73381" lon="7.01153">
        <ele>813</ele>
        <time>2011-07-16T14:54:13Z</time>
      </trkpt>
      <trkpt lat="43.7338" lon="7.01154">
        <ele>813</ele>
        <time>2011-07-16T14:54:14Z</time>
      </trkpt>
      <trkpt lat="43.73379" lon="7.01155">
        <ele>813</ele>
        <time>2011-07-16T14:54:15Z</time>
      </trkpt>
      <trkpt lat="43.73377" lon="7.01155">
        <ele>813</ele>
        <time>2011-07-16T14:54:16Z</time>
      </trkpt>
      <trkpt lat="43.73376" lon="7.01156">
        <ele>813</ele>
        <time>2011-07-16T14:54:17Z</time>
      </trkpt>
      <trkpt lat="43.73374" lon="7.01156">
        <ele>813</ele>
        <time>2011-07-16T14:54:18Z</time>
      </trkpt>
      <trkpt lat="43.73374" lon="7.01157">
        <ele>813</ele>
        <time>2011-07-16T14:54:19Z</time>
      </trkpt>
      <trkpt lat="43.73375" lon="7.01156">
        <ele>814</ele>
        <time>2011-07-16T14:54:21Z</time>
      </trkpt>
      <trkpt lat="43.73374" lon="7.01155">
        <ele>814</ele>
        <time>2011-07-16T14:54:23Z</time>
      </trkpt>
      <trkpt lat="43.73373" lon="7.01154">
        <ele>814</ele>
        <time>2011-07-16T14:54:24Z</time>
      </trkpt>
      <trkpt lat="43.73372" lon="7.01154">
        <ele>814</ele>
        <time>2011-07-16T14:54:25Z</time>
      </trkpt>
      <trkpt lat="43.73372" lon="7.01153">
        <ele>815</ele>
        <time>2011-07-16T14:54:26Z</time>
      </trkpt>
      <trkpt lat="43.73371" lon="7.01153">
        <ele>815</ele>
        <time>2011-07-16T14:54:27Z</time>
      </trkpt>
      <trkpt lat="43.7337" lon="7.01153">
        <ele>815</ele>
        <time>2011-07-16T14:54:29Z</time>
      </trkpt>
      <trkpt lat="43.7337" lon="7.01153">
        <ele>815</ele>
        <time>2011-07-16T14:54:30Z</time>
      </trkpt>
      <trkpt lat="43.73369" lon="7.01153">
        <ele>815</ele>
        <time>2011-07-16T14:54:32Z</time>
      </trkpt>
      <trkpt lat="43.73369" lon="7.01152">
        <ele>815</ele>
        <time>2011-07-16T14:54:33Z</time>
      </trkpt>
      <trkpt lat="43.73369" lon="7.01151">
        <ele>816</ele>
        <time>2011-07-16T14:54:34Z</time>
      </trkpt>
      <trkpt lat="43.73369" lon="7.0115">
        <ele>816</ele>
        <time>2011-07-16T14:54:35Z</time>
      </trkpt>
      <trkpt lat="43.73369" lon="7.01149">
        <ele>816</ele>
        <time>2011-07-16T14:54:36Z</time>
      </trkpt>
      <trkpt lat="43.73368" lon="7.01147">
        <ele>816</ele>
        <time>2011-07-16T14:54:37Z</time>
      </trkpt>
      <trkpt lat="43.73368" lon="7.01146">
        <ele>816</ele>
        <time>2011-07-16T14:54:38Z</time>
      </trkpt>
      <trkpt lat="43.73367" lon="7.01145">
        <ele>816</ele>
        <time>2011-07-16T14:54:39Z</time>
      </trkpt>
      <trkpt lat="43.73366" lon="7.01145">
        <ele>817</ele>
        <time>2011-07-16T14:54:40Z</time>
      </trkpt>
      <trkpt lat="43.73365" lon="7.01144">
        <ele>817</ele>
        <time>2011-07-16T14:54:41Z</time>
      </trkpt>
      <trkpt lat="43.73364" lon="7.01143">
        <ele>817</ele>
        <time>2011-07-16T14:54:42Z</time>
      </trkpt>
      <trkpt lat="43.73363" lon="7.0114">
        <ele>817</ele>
        <time>2011-07-16T14:54:44Z</time>
      </trkpt>
      <trkpt lat="43.73362" lon="7.01139">
        <ele>818</ele>
        <time>2011-07-16T14:54:45Z</time>
      </trkpt>
      <trkpt lat="43.73361" lon="7.01138">
        <ele>818</ele>
        <time>2011-07-16T14:54:46Z</time>
      </trkpt>
      <trkpt lat="43.7336" lon="7.01136">
        <ele>818</ele>
        <time>2011-07-16T14:54:47Z</time>
      </trkpt>
      <trkpt lat="43.73358" lon="7.01135">
        <ele>818</ele>
        <time>2011-07-16T14:54:48Z</time>
      </trkpt>
      <trkpt lat="43.73358" lon="7.01135">
        <ele>818</ele>
        <time>2011-07-16T14:54:49Z</time>
      </trkpt>
      <trkpt lat="43.73358" lon="7.01134">
        <ele>818</ele>
        <time>2011-07-16T14:54:50Z</time>
      </trkpt>
      <trkpt lat="43.73358" lon="7.01133">
        <ele>818</ele>
        <time>2011-07-16T14:54:51Z</time>
      </trkpt>
      <trkpt lat="43.73357" lon="7.01131">
        <ele>818</ele>
        <time>2011-07-16T14:54:52Z</time>
      </trkpt>
      <trkpt lat="43.73356" lon="7.01129">
        <ele>818</ele>
        <time>2011-07-16T14:54:53Z</time>
      </trkpt>
      <trkpt lat="43.73356" lon="7.01128">
        <ele>818</ele>
        <time>2011-07-16T14:54:54Z</time>
      </trkpt>
      <trkpt lat="43.73356" lon="7.01127">
        <ele>818</ele>
        <time>2011-07-16T14:54:55Z</time>
      </trkpt>
      <trkpt lat="43.73355" lon="7.01125">
        <ele>818</ele>
        <time>2011-07-16T14:54:56Z</time>
      </trkpt>
      <trkpt lat="43.73355" lon="7.01124">
        <ele>818</ele>
        <time>2011-07-16T14:54:57Z</time>
      </trkpt>
      <trkpt lat="43.73354" lon="7.01122">
        <ele>818</ele>
        <time>2011-07-16T14:54:58Z</time>
      </trkpt>
      <trkpt lat="43.73353" lon="7.01121">
        <ele>818</ele>
        <time>2011-07-16T14:54:59Z</time>
      </trkpt>
      <trkpt lat="43.73352" lon="7.0112">
        <ele>818</ele>
        <time>2011-07-16T14:55:00Z</time>
      </trkpt>
      <trkpt lat="43.73352" lon="7.01119">
        <ele>818</ele>
        <time>2011-07-16T14:55:01Z</time>
      </trkpt>
      <trkpt lat="43.73352" lon="7.01118">
        <ele>819</ele>
        <time>2011-07-16T14:55:03Z</time>
      </trkpt>
      <trkpt lat="43.73352" lon="7.01118">
        <ele>819</ele>
        <time>2011-07-16T14:55:04Z</time>
      </trkpt>
      <trkpt lat="43.73352" lon="7.01116">
        <ele>819</ele>
        <time>2011-07-16T14:55:05Z</time>
      </trkpt>
      <trkpt lat="43.73351" lon="7.01115">
        <ele>818</ele>
        <time>2011-07-16T14:55:06Z</time>
      </trkpt>
      <trkpt lat="43.73351" lon="7.01113">
        <ele>818</ele>
        <time>2011-07-16T14:55:07Z</time>
      </trkpt>
      <trkpt lat="43.73352" lon="7.01112">
        <ele>818</ele>
        <time>2011-07-16T14:55:08Z</time>
      </trkpt>
      <trkpt lat="43.73352" lon="7.0111">
        <ele>818</ele>
        <time>2011-07-16T14:55:09Z</time>
      </trkpt>
      <trkpt lat="43.73351" lon="7.01107">
        <ele>818</ele>
        <time>2011-07-16T14:55:11Z</time>
      </trkpt>
      <trkpt lat="43.73351" lon="7.01105">
        <ele>819</ele>
        <time>2011-07-16T14:55:12Z</time>
      </trkpt>
      <trkpt lat="43.7335" lon="7.01103">
        <ele>819</ele>
        <time>2011-07-16T14:55:13Z</time>
      </trkpt>
      <trkpt lat="43.73349" lon="7.01102">
        <ele>819</ele>
        <time>2011-07-16T14:55:14Z</time>
      </trkpt>
      <trkpt lat="43.73349" lon="7.01101">
        <ele>819</ele>
        <time>2011-07-16T14:55:15Z</time>
      </trkpt>
      <trkpt lat="43.7335" lon="7.011">
        <ele>819</ele>
        <time>2011-07-16T14:55:16Z</time>
      </trkpt>
      <trkpt lat="43.7335" lon="7.01098">
        <ele>819</ele>
        <time>2011-07-16T14:55:17Z</time>
      </trkpt>
      <trkpt lat="43.7335" lon="7.01096">
        <ele>820</ele>
        <time>2011-07-16T14:55:18Z</time>
      </trkpt>
      <trkpt lat="43.73351" lon="7.01093">
        <ele>820</ele>
        <time>2011-07-16T14:55:19Z</time>
      </trkpt>
      <trkpt lat="43.73352" lon="7.01091">
        <ele>820</ele>
        <time>2011-07-16T14:55:20Z</time>
      </trkpt>
      <trkpt lat="43.73352" lon="7.01089">
        <ele>821</ele>
        <time>2011-07-16T14:55:21Z</time>
      </trkpt>
      <trkpt lat="43.73351" lon="7.01087">
        <ele>821</ele>
        <time>2011-07-16T14:55:22Z</time>
      </trkpt>
      <trkpt lat="43.73351" lon="7.01085">
        <ele>821</ele>
        <time>2011-07-16T14:55:23Z</time>
      </trkpt>
      <trkpt lat="43.73348" lon="7.01084">
        <ele>821</ele>
        <time>2011-07-16T14:55:24Z</time>
      </trkpt>
      <trkpt lat="43.73347" lon="7.01083">
        <ele>822</ele>
        <time>2011-07-16T14:55:25Z</time>
      </trkpt>
      <trkpt lat="43.73347" lon="7.0108">
        <ele>822</ele>
        <time>2011-07-16T14:55:26Z</time>
      </trkpt>
      <trkpt lat="43.73346" lon="7.01077">
        <ele>822</ele>
        <time>2011-07-16T14:55:27Z</time>
      </trkpt>
      <trkpt lat="43.73347" lon="7.01074">
        <ele>822</ele>
        <time>2011-07-16T14:55:28Z</time>
      </trkpt>
      <trkpt lat="43.73347" lon="7.01071">
        <ele>822</ele>
        <time>2011-07-16T14:55:29Z</time>
      </trkpt>
      <trkpt lat="43.73346" lon="7.01069">
        <ele>823</ele>
        <time>2011-07-16T14:55:30Z</time>
      </trkpt>
      <trkpt lat="43.73345" lon="7.01067">
        <ele>823</ele>
        <time>2011-07-16T14:55:31Z</time>
      </trkpt>
      <trkpt lat="43.73345" lon="7.01066">
        <ele>823</ele>
        <time>2011-07-16T14:55:32Z</time>
      </trkpt>
      <trkpt lat="43.73346" lon="7.01064">
        <ele>823</ele>
        <time>2011-07-16T14:55:33Z</time>
      </trkpt>
      <trkpt lat="43.73345" lon="7.01062">
        <ele>823</ele>
        <time>2011-07-16T14:55:34Z</time>
      </trkpt>
      <trkpt lat="43.73344" lon="7.0106">
        <ele>823</ele>
        <time>2011-07-16T14:55:35Z</time>
      </trkpt>
      <trkpt lat="43.73344" lon="7.0106">
        <ele>823</ele>
        <time>2011-07-16T14:55:36Z</time>
      </trkpt>
      <trkpt lat="43.73345" lon="7.01059">
        <ele>823</ele>
        <time>2011-07-16T14:55:37Z</time>
      </trkpt>
      <trkpt lat="43.73345" lon="7.01059">
        <ele>823</ele>
        <time>2011-07-16T14:55:38Z</time>
      </trkpt>
      <trkpt lat="43.73344" lon="7.01058">
        <ele>823</ele>
        <time>2011-07-16T14:55:39Z</time>
      </trkpt>
      <trkpt lat="43.73344" lon="7.01056">
        <ele>823</ele>
        <time>2011-07-16T14:55:40Z</time>
      </trkpt>
      <trkpt lat="43.73344" lon="7.01055">
        <ele>823</ele>
        <time>2011-07-16T14:55:41Z</time>
      </trkpt>
      <trkpt lat="43.73344" lon="7.01055">
        <ele>823</ele>
        <time>2011-07-16T14:55:42Z</time>
      </trkpt>
      <trkpt lat="43.73344" lon="7.01054">
        <ele>823</ele>
        <time>2011-07-16T14:55:43Z</time>
      </trkpt>
      <trkpt lat="43.73344" lon="7.01053">
        <ele>823</ele>
        <time>2011-07-16T14:55:44Z</time>
      </trkpt>
      <trkpt lat="43.73345" lon="7.01053">
        <ele>823</ele>
        <time>2011-07-16T14:55:46Z</time>
      </trkpt>
      <trkpt lat="43.73345" lon="7.01052">
        <ele>823</ele>
        <time>2011-07-16T14:55:47Z</time>
      </trkpt>
      <trkpt lat="43.73345" lon="7.01051">
        <ele>824</ele>
        <time>2011-07-16T14:55:48Z</time>
      </trkpt>
      <trkpt lat="43.73345" lon="7.01049">
        <ele>824</ele>
        <time>2011-07-16T14:55:49Z</time>
      </trkpt>
      <trkpt lat="43.73345" lon="7.01047">
        <ele>824</ele>
        <time>2011-07-16T14:55:50Z</time>
      </trkpt>
      <trkpt lat="43.73345" lon="7.01046">
        <ele>824</ele>
        <time>2011-07-16T14:55:51Z</time>
      </trkpt>
      <trkpt lat="43.73345" lon="7.01044">
        <ele>824</ele>
        <time>2011-07-16T14:55:52Z</time>
      </trkpt>
      <trkpt lat="43.73345" lon="7.01042">
        <ele>824</ele>
        <time>2011-07-16T14:55:53Z</time>
      </trkpt>
      <trkpt lat="43.73344" lon="7.01041">
        <ele>824</ele>
        <time>2011-07-16T14:55:54Z</time>
      </trkpt>
      <trkpt lat="43.73344" lon="7.01039">
        <ele>824</ele>
        <time>2011-07-16T14:55:55Z</time>
      </trkpt>
      <trkpt lat="43.73344" lon="7.01038">
        <ele>824</ele>
        <time>2011-07-16T14:55:56Z</time>
      </trkpt>
      <trkpt lat="43.73343" lon="7.01037">
        <ele>825</ele>
        <time>2011-07-16T14:55:57Z</time>
      </trkpt>
      <trkpt lat="43.73342" lon="7.01035">
        <ele>825</ele>
        <time>2011-07-16T14:55:58Z</time>
      </trkpt>
      <trkpt lat="43.73342" lon="7.01033">
        <ele>825</ele>
        <time>2011-07-16T14:55:59Z</time>
      </trkpt>
      <trkpt lat="43.73342" lon="7.01032">
        <ele>825</ele>
        <time>2011-07-16T14:56:00Z</time>
      </trkpt>
      <trkpt lat="43.73343" lon="7.01031">
        <ele>825</ele>
        <time>2011-07-16T14:56:05Z</time>
      </trkpt>
      <trkpt lat="43.73342" lon="7.01031">
        <ele>825</ele>
        <time>2011-07-16T14:56:07Z</time>
      </trkpt>
      <trkpt lat="43.73342" lon="7.01031">
        <ele>825</ele>
        <time>2011-07-16T14:56:09Z</time>
      </trkpt>
      <trkpt lat="43.73341" lon="7.0103">
        <ele>825</ele>
        <time>2011-07-16T14:56:10Z</time>
      </trkpt>
      <trkpt lat="43.73341" lon="7.01029">
        <ele>825</ele>
        <time>2011-07-16T14:56:11Z</time>
      </trkpt>
      <trkpt lat="43.73341" lon="7.01027">
        <ele>825</ele>
        <time>2011-07-16T14:56:12Z</time>
      </trkpt>
      <trkpt lat="43.7334" lon="7.01027">
        <ele>825</ele>
        <time>2011-07-16T14:56:13Z</time>
      </trkpt>
      <trkpt lat="43.7334" lon="7.01026">
        <ele>825</ele>
        <time>2011-07-16T14:56:14Z</time>
      </trkpt>
      <trkpt lat="43.73339" lon="7.01025">
        <ele>825</ele>
        <time>2011-07-16T14:56:16Z</time>
      </trkpt>
      <trkpt lat="43.73338" lon="7.01024">
        <ele>825</ele>
        <time>2011-07-16T14:56:19Z</time>
      </trkpt>
      <trkpt lat="43.73337" lon="7.01023">
        <ele>826</ele>
        <time>2011-07-16T14:56:20Z</time>
      </trkpt>
      <trkpt lat="43.73337" lon="7.01023">
        <ele>826</ele>
        <time>2011-07-16T14:56:21Z</time>
      </trkpt>
      <trkpt lat="43.73335" lon="7.01021">
        <ele>826</ele>
        <time>2011-07-16T14:56:22Z</time>
      </trkpt>
      <trkpt lat="43.73334" lon="7.0102">
        <ele>826</ele>
        <time>2011-07-16T14:56:23Z</time>
      </trkpt>
      <trkpt lat="43.73334" lon="7.0102">
        <ele>826</ele>
        <time>2011-07-16T14:56:24Z</time>
      </trkpt>
      <trkpt lat="43.73333" lon="7.01017">
        <ele>826</ele>
        <time>2011-07-16T14:56:27Z</time>
      </trkpt>
      <trkpt lat="43.73332" lon="7.01016">
        <ele>826</ele>
        <time>2011-07-16T14:56:28Z</time>
      </trkpt>
      <trkpt lat="43.73332" lon="7.01014">
        <ele>826</ele>
        <time>2011-07-16T14:56:29Z</time>
      </trkpt>
      <trkpt lat="43.73331" lon="7.01013">
        <ele>826</ele>
        <time>2011-07-16T14:56:30Z</time>
      </trkpt>
      <trkpt lat="43.7333" lon="7.01012">
        <ele>826</ele>
        <time>2011-07-16T14:56:31Z</time>
      </trkpt>
      <trkpt lat="43.7333" lon="7.0101">
        <ele>826</ele>
        <time>2011-07-16T14:56:32Z</time>
      </trkpt>
      <trkpt lat="43.73329" lon="7.01009">
        <ele>826</ele>
        <time>2011-07-16T14:56:33Z</time>
      </trkpt>
      <trkpt lat="43.73329" lon="7.01007">
        <ele>827</ele>
        <time>2011-07-16T14:56:34Z</time>
      </trkpt>
      <trkpt lat="43.73328" lon="7.01006">
        <ele>827</ele>
        <time>2011-07-16T14:56:35Z</time>
      </trkpt>
      <trkpt lat="43.73328" lon="7.01005">
        <ele>827</ele>
        <time>2011-07-16T14:56:36Z</time>
      </trkpt>
      <trkpt lat="43.73327" lon="7.01003">
        <ele>827</ele>
        <time>2011-07-16T14:56:38Z</time>
      </trkpt>
      <trkpt lat="43.73326" lon="7.01001">
        <ele>827</ele>
        <time>2011-07-16T14:56:39Z</time>
      </trkpt>
      <trkpt lat="43.73325" lon="7.01">
        <ele>827</ele>
        <time>2011-07-16T14:56:40Z</time>
      </trkpt>
      <trkpt lat="43.73324" lon="7.00998">
        <ele>827</ele>
        <time>2011-07-16T14:56:41Z</time>
      </trkpt>
      <trkpt lat="43.73323" lon="7.00998">
        <ele>827</ele>
        <time>2011-07-16T14:56:42Z</time>
      </trkpt>
      <trkpt lat="43.73322" lon="7.00997">
        <ele>828</ele>
        <time>2011-07-16T14:56:43Z</time>
      </trkpt>
      <trkpt lat="43.73321" lon="7.00996">
        <ele>828</ele>
        <time>2011-07-16T14:56:44Z</time>
      </trkpt>
      <trkpt lat="43.7332" lon="7.00995">
        <ele>828</ele>
        <time>2011-07-16T14:56:45Z</time>
      </trkpt>
      <trkpt lat="43.73318" lon="7.00994">
        <ele>828</ele>
        <time>2011-07-16T14:56:46Z</time>
      </trkpt>
      <trkpt lat="43.73317" lon="7.00994">
        <ele>828</ele>
        <time>2011-07-16T14:56:47Z</time>
      </trkpt>
      <trkpt lat="43.73314" lon="7.00993">
        <ele>828</ele>
        <time>2011-07-16T14:56:48Z</time>
      </trkpt>
      <trkpt lat="43.73312" lon="7.00992">
        <ele>829</ele>
        <time>2011-07-16T14:56:49Z</time>
      </trkpt>
      <trkpt lat="43.73309" lon="7.00992">
        <ele>829</ele>
        <time>2011-07-16T14:56:50Z</time>
      </trkpt>
      <trkpt lat="43.73308" lon="7.00992">
        <ele>829</ele>
        <time>2011-07-16T14:56:51Z</time>
      </trkpt>
      <trkpt lat="43.73305" lon="7.0099">
        <ele>829</ele>
        <time>2011-07-16T14:56:52Z</time>
      </trkpt>
      <trkpt lat="43.73303" lon="7.00988">
        <ele>829</ele>
        <time>2011-07-16T14:56:53Z</time>
      </trkpt>
      <trkpt lat="43.73301" lon="7.00987">
        <ele>829</ele>
        <time>2011-07-16T14:56:54Z</time>
      </trkpt>
      <trkpt lat="43.73299" lon="7.00986">
        <ele>829</ele>
        <time>2011-07-16T14:56:55Z</time>
      </trkpt>
      <trkpt lat="43.73299" lon="7.00986">
        <ele>830</ele>
        <time>2011-07-16T14:56:56Z</time>
      </trkpt>
      <trkpt lat="43.73297" lon="7.00986">
        <ele>830</ele>
        <time>2011-07-16T14:56:57Z</time>
      </trkpt>
      <trkpt lat="43.73295" lon="7.00985">
        <ele>830</ele>
        <time>2011-07-16T14:56:58Z</time>
      </trkpt>
      <trkpt lat="43.73293" lon="7.00984">
        <ele>830</ele>
        <time>2011-07-16T14:56:59Z</time>
      </trkpt>
      <trkpt lat="43.73293" lon="7.00983">
        <ele>831</ele>
        <time>2011-07-16T14:57:00Z</time>
      </trkpt>
      <trkpt lat="43.73292" lon="7.00981">
        <ele>831</ele>
        <time>2011-07-16T14:57:01Z</time>
      </trkpt>
      <trkpt lat="43.73291" lon="7.0098">
        <ele>831</ele>
        <time>2011-07-16T14:57:02Z</time>
      </trkpt>
      <trkpt lat="43.7329" lon="7.00979">
        <ele>831</ele>
        <time>2011-07-16T14:57:03Z</time>
      </trkpt>
      <trkpt lat="43.73288" lon="7.00979">
        <ele>831</ele>
        <time>2011-07-16T14:57:04Z</time>
      </trkpt>
      <trkpt lat="43.73286" lon="7.00978">
        <ele>832</ele>
        <time>2011-07-16T14:57:05Z</time>
      </trkpt>
      <trkpt lat="43.73285" lon="7.00978">
        <ele>832</ele>
        <time>2011-07-16T14:57:06Z</time>
      </trkpt>
      <trkpt lat="43.73284" lon="7.00978">
        <ele>832</ele>
        <time>2011-07-16T14:57:07Z</time>
      </trkpt>
      <trkpt lat="43.73282" lon="7.00978">
        <ele>833</ele>
        <time>2011-07-16T14:57:08Z</time>
      </trkpt>
      <trkpt lat="43.7328" lon="7.00977">
        <ele>833</ele>
        <time>2011-07-16T14:57:09Z</time>
      </trkpt>
      <trkpt lat="43.73278" lon="7.00975">
        <ele>834</ele>
        <time>2011-07-16T14:57:11Z</time>
      </trkpt>
      <trkpt lat="43.73277" lon="7.00974">
        <ele>834</ele>
        <time>2011-07-16T14:57:12Z</time>
      </trkpt>
      <trkpt lat="43.73275" lon="7.00973">
        <ele>834</ele>
        <time>2011-07-16T14:57:13Z</time>
      </trkpt>
      <trkpt lat="43.73274" lon="7.00973">
        <ele>834</ele>
        <time>2011-07-16T14:57:14Z</time>
      </trkpt>
      <trkpt lat="43.73272" lon="7.00972">
        <ele>834</ele>
        <time>2011-07-16T14:57:15Z</time>
      </trkpt>
      <trkpt lat="43.73271" lon="7.00971">
        <ele>835</ele>
        <time>2011-07-16T14:57:16Z</time>
      </trkpt>
      <trkpt lat="43.73271" lon="7.0097">
        <ele>835</ele>
        <time>2011-07-16T14:57:17Z</time>
      </trkpt>
      <trkpt lat="43.73268" lon="7.00969">
        <ele>835</ele>
        <time>2011-07-16T14:57:18Z</time>
      </trkpt>
      <trkpt lat="43.73266" lon="7.00969">
        <ele>835</ele>
        <time>2011-07-16T14:57:19Z</time>
      </trkpt>
      <trkpt lat="43.73264" lon="7.00968">
        <ele>836</ele>
        <time>2011-07-16T14:57:20Z</time>
      </trkpt>
      <trkpt lat="43.73262" lon="7.00968">
        <ele>836</ele>
        <time>2011-07-16T14:57:21Z</time>
      </trkpt>
      <trkpt lat="43.73261" lon="7.00967">
        <ele>836</ele>
        <time>2011-07-16T14:57:22Z</time>
      </trkpt>
      <trkpt lat="43.73261" lon="7.00967">
        <ele>836</ele>
        <time>2011-07-16T14:57:23Z</time>
      </trkpt>
      <trkpt lat="43.73259" lon="7.00967">
        <ele>836</ele>
        <time>2011-07-16T14:57:24Z</time>
      </trkpt>
      <trkpt lat="43.73256" lon="7.00966">
        <ele>837</ele>
        <time>2011-07-16T14:57:25Z</time>
      </trkpt>
      <trkpt lat="43.73254" lon="7.00965">
        <ele>837</ele>
        <time>2011-07-16T14:57:26Z</time>
      </trkpt>
      <trkpt lat="43.73251" lon="7.00964">
        <ele>837</ele>
        <time>2011-07-16T14:57:27Z</time>
      </trkpt>
      <trkpt lat="43.73249" lon="7.00963">
        <ele>837</ele>
        <time>2011-07-16T14:57:28Z</time>
      </trkpt>
      <trkpt lat="43.73247" lon="7.00962">
        <ele>837</ele>
        <time>2011-07-16T14:57:29Z</time>
      </trkpt>
      <trkpt lat="43.73246" lon="7.00961">
        <ele>837</ele>
        <time>2011-07-16T14:57:30Z</time>
      </trkpt>
      <trkpt lat="43.73244" lon="7.0096">
        <ele>837</ele>
        <time>2011-07-16T14:57:31Z</time>
      </trkpt>
      <trkpt lat="43.73244" lon="7.0096">
        <ele>837</ele>
        <time>2011-07-16T14:57:32Z</time>
      </trkpt>
      <trkpt lat="43.73243" lon="7.00958">
        <ele>837</ele>
        <time>2011-07-16T14:57:33Z</time>
      </trkpt>
      <trkpt lat="43.73242" lon="7.00957">
        <ele>837</ele>
        <time>2011-07-16T14:57:34Z</time>
      </trkpt>
      <trkpt lat="43.73241" lon="7.00955">
        <ele>837</ele>
        <time>2011-07-16T14:57:35Z</time>
      </trkpt>
      <trkpt lat="43.7324" lon="7.00954">
        <ele>837</ele>
        <time>2011-07-16T14:57:36Z</time>
      </trkpt>
      <trkpt lat="43.73238" lon="7.00953">
        <ele>838</ele>
        <time>2011-07-16T14:57:37Z</time>
      </trkpt>
      <trkpt lat="43.73238" lon="7.00953">
        <ele>838</ele>
        <time>2011-07-16T14:57:38Z</time>
      </trkpt>
      <trkpt lat="43.73234" lon="7.00952">
        <ele>838</ele>
        <time>2011-07-16T14:57:39Z</time>
      </trkpt>
      <trkpt lat="43.73233" lon="7.00952">
        <ele>839</ele>
        <time>2011-07-16T14:57:40Z</time>
      </trkpt>
      <trkpt lat="43.7323" lon="7.00952">
        <ele>839</ele>
        <time>2011-07-16T14:57:41Z</time>
      </trkpt>
      <trkpt lat="43.73228" lon="7.00951">
        <ele>839</ele>
        <time>2011-07-16T14:57:42Z</time>
      </trkpt>
      <trkpt lat="43.73226" lon="7.00952">
        <ele>839</ele>
        <time>2011-07-16T14:57:43Z</time>
      </trkpt>
      <trkpt lat="43.73224" lon="7.00951">
        <ele>839</ele>
        <time>2011-07-16T14:57:44Z</time>
      </trkpt>
      <trkpt lat="43.73222" lon="7.0095">
        <ele>840</ele>
        <time>2011-07-16T14:57:45Z</time>
      </trkpt>
      <trkpt lat="43.7322" lon="7.00949">
        <ele>840</ele>
        <time>2011-07-16T14:57:46Z</time>
      </trkpt>
      <trkpt lat="43.73216" lon="7.00951">
        <ele>840</ele>
        <time>2011-07-16T14:57:47Z</time>
      </trkpt>
      <trkpt lat="43.73213" lon="7.00952">
        <ele>840</ele>
        <time>2011-07-16T14:57:48Z</time>
      </trkpt>
      <trkpt lat="43.73211" lon="7.00953">
        <ele>840</ele>
        <time>2011-07-16T14:57:49Z</time>
      </trkpt>
      <trkpt lat="43.73209" lon="7.00955">
        <ele>840</ele>
        <time>2011-07-16T14:57:50Z</time>
      </trkpt>
      <trkpt lat="43.73207" lon="7.00956">
        <ele>841</ele>
        <time>2011-07-16T14:57:51Z</time>
      </trkpt>
      <trkpt lat="43.73206" lon="7.00957">
        <ele>841</ele>
        <time>2011-07-16T14:57:52Z</time>
      </trkpt>
      <trkpt lat="43.73205" lon="7.00957">
        <ele>841</ele>
        <time>2011-07-16T14:57:53Z</time>
      </trkpt>
      <trkpt lat="43.73203" lon="7.00958">
        <ele>841</ele>
        <time>2011-07-16T14:57:54Z</time>
      </trkpt>
      <trkpt lat="43.73203" lon="7.00959">
        <ele>842</ele>
        <time>2011-07-16T14:57:55Z</time>
      </trkpt>
      <trkpt lat="43.73204" lon="7.00959">
        <ele>842</ele>
        <time>2011-07-16T14:57:56Z</time>
      </trkpt>
      <trkpt lat="43.73202" lon="7.00958">
        <ele>843</ele>
        <time>2011-07-16T14:58:00Z</time>
      </trkpt>
      <trkpt lat="43.73202" lon="7.00959">
        <ele>843</ele>
        <time>2011-07-16T14:58:28Z</time>
      </trkpt>
      <trkpt lat="43.73202" lon="7.00959">
        <ele>843</ele>
        <time>2011-07-16T14:58:29Z</time>
      </trkpt>
      <trkpt lat="43.73202" lon="7.00959">
        <ele>843</ele>
        <time>2011-07-16T14:58:30Z</time>
      </trkpt>
      <trkpt lat="43.73202" lon="7.0096">
        <ele>843</ele>
        <time>2011-07-16T14:58:35Z</time>
      </trkpt>
      <trkpt lat="43.73203" lon="7.0096">
        <ele>843</ele>
        <time>2011-07-16T14:58:36Z</time>
      </trkpt>
      <trkpt lat="43.73203" lon="7.0096">
        <ele>843</ele>
        <time>2011-07-16T14:58:37Z</time>
      </trkpt>
      <trkpt lat="43.73202" lon="7.0096">
        <ele>842</ele>
        <time>2011-07-16T14:59:07Z</time>
      </trkpt>
      <trkpt lat="43.73202" lon="7.0096">
        <ele>842</ele>
        <time>2011-07-16T14:59:08Z</time>
      </trkpt>
      <trkpt lat="43.73202" lon="7.00959">
        <ele>842</ele>
        <time>2011-07-16T14:59:09Z</time>
      </trkpt>
      <trkpt lat="43.73202" lon="7.0096">
        <ele>842</ele>
        <time>2011-07-16T14:59:10Z</time>
      </trkpt>
      <trkpt lat="43.73201" lon="7.00959">
        <ele>843</ele>
        <time>2011-07-16T14:59:11Z</time>
      </trkpt>
      <trkpt lat="43.73201" lon="7.00959">
        <ele>843</ele>
        <time>2011-07-16T14:59:14Z</time>
      </trkpt>
      <trkpt lat="43.73201" lon="7.0096">
        <ele>843</ele>
        <time>2011-07-16T14:59:24Z</time>
      </trkpt>
      <trkpt lat="43.73201" lon="7.0096">
        <ele>843</ele>
        <time>2011-07-16T14:59:25Z</time>
      </trkpt>
      <trkpt lat="43.73201" lon="7.00962">
        <ele>843</ele>
        <time>2011-07-16T15:00:58Z</time>
      </trkpt>
      <trkpt lat="43.73201" lon="7.00962">
        <ele>843</ele>
        <time>2011-07-16T15:01:09Z</time>
      </trkpt>
      <trkpt lat="43.732" lon="7.00962">
        <ele>843</ele>
        <time>2011-07-16T15:01:10Z</time>
      </trkpt>
      <trkpt lat="43.732" lon="7.00961">
        <ele>843</ele>
        <time>2011-07-16T15:01:23Z</time>
      </trkpt>
      <trkpt lat="43.73199" lon="7.00961">
        <ele>843</ele>
        <time>2011-07-16T15:01:24Z</time>
      </trkpt>
      <trkpt lat="43.73198" lon="7.0096">
        <ele>843</ele>
        <time>2011-07-16T15:01:25Z</time>
      </trkpt>
      <trkpt lat="43.73196" lon="7.0096">
        <ele>843</ele>
        <time>2011-07-16T15:01:26Z</time>
      </trkpt>
      <trkpt lat="43.73195" lon="7.0096">
        <ele>843</ele>
        <time>2011-07-16T15:01:27Z</time>
      </trkpt>
      <trkpt lat="43.73195" lon="7.00958">
        <ele>843</ele>
        <time>2011-07-16T15:01:28Z</time>
      </trkpt>
      <trkpt lat="43.73195" lon="7.00955">
        <ele>843</ele>
        <time>2011-07-16T15:01:29Z</time>
      </trkpt>
      <trkpt lat="43.73195" lon="7.00953">
        <ele>843</ele>
        <time>2011-07-16T15:01:30Z</time>
      </trkpt>
      <trkpt lat="43.73194" lon="7.00952">
        <ele>843</ele>
        <time>2011-07-16T15:01:31Z</time>
      </trkpt>
      <trkpt lat="43.73193" lon="7.00952">
        <ele>843</ele>
        <time>2011-07-16T15:01:32Z</time>
      </trkpt>
      <trkpt lat="43.73193" lon="7.00953">
        <ele>843</ele>
        <time>2011-07-16T15:01:33Z</time>
      </trkpt>
      <trkpt lat="43.73193" lon="7.00953">
        <ele>843</ele>
        <time>2011-07-16T15:01:34Z</time>
      </trkpt>
      <trkpt lat="43.73191" lon="7.00954">
        <ele>843</ele>
        <time>2011-07-16T15:01:35Z</time>
      </trkpt>
      <trkpt lat="43.73189" lon="7.00953">
        <ele>843</ele>
        <time>2011-07-16T15:01:36Z</time>
      </trkpt>
      <trkpt lat="43.73187" lon="7.00953">
        <ele>843</ele>
        <time>2011-07-16T15:01:37Z</time>
      </trkpt>
      <trkpt lat="43.73182" lon="7.00954">
        <ele>843</ele>
        <time>2011-07-16T15:01:38Z</time>
      </trkpt>
      <trkpt lat="43.73179" lon="7.00953">
        <ele>843</ele>
        <time>2011-07-16T15:01:39Z</time>
      </trkpt>
      <trkpt lat="43.73177" lon="7.00952">
        <ele>843</ele>
        <time>2011-07-16T15:01:40Z</time>
      </trkpt>
      <trkpt lat="43.73174" lon="7.00952">
        <ele>843</ele>
        <time>2011-07-16T15:01:41Z</time>
      </trkpt>
      <trkpt lat="43.73173" lon="7.00952">
        <ele>843</ele>
        <time>2011-07-16T15:01:42Z</time>
      </trkpt>
      <trkpt lat="43.73171" lon="7.00953">
        <ele>843</ele>
        <time>2011-07-16T15:01:43Z</time>
      </trkpt>
      <trkpt lat="43.7317" lon="7.00953">
        <ele>843</ele>
        <time>2011-07-16T15:01:44Z</time>
      </trkpt>
      <trkpt lat="43.73168" lon="7.00953">
        <ele>843</ele>
        <time>2011-07-16T15:01:45Z</time>
      </trkpt>
      <trkpt lat="43.73167" lon="7.00952">
        <ele>843</ele>
        <time>2011-07-16T15:01:46Z</time>
      </trkpt>
      <trkpt lat="43.73166" lon="7.00952">
        <ele>844</ele>
        <time>2011-07-16T15:01:47Z</time>
      </trkpt>
      <trkpt lat="43.73164" lon="7.00951">
        <ele>844</ele>
        <time>2011-07-16T15:01:48Z</time>
      </trkpt>
      <trkpt lat="43.73163" lon="7.0095">
        <ele>844</ele>
        <time>2011-07-16T15:01:49Z</time>
      </trkpt>
      <trkpt lat="43.73162" lon="7.00951">
        <ele>844</ele>
        <time>2011-07-16T15:01:50Z</time>
      </trkpt>
      <trkpt lat="43.73161" lon="7.00952">
        <ele>844</ele>
        <time>2011-07-16T15:01:51Z</time>
      </trkpt>
      <trkpt lat="43.7316" lon="7.00952">
        <ele>844</ele>
        <time>2011-07-16T15:01:52Z</time>
      </trkpt>
      <trkpt lat="43.7316" lon="7.00953">
        <ele>844</ele>
        <time>2011-07-16T15:01:53Z</time>
      </trkpt>
      <trkpt lat="43.73158" lon="7.00952">
        <ele>844</ele>
        <time>2011-07-16T15:01:55Z</time>
      </trkpt>
      <trkpt lat="43.73155" lon="7.00952">
        <ele>845</ele>
        <time>2011-07-16T15:01:56Z</time>
      </trkpt>
      <trkpt lat="43.73153" lon="7.00952">
        <ele>845</ele>
        <time>2011-07-16T15:01:57Z</time>
      </trkpt>
      <trkpt lat="43.73151" lon="7.00951">
        <ele>845</ele>
        <time>2011-07-16T15:01:58Z</time>
      </trkpt>
      <trkpt lat="43.7315" lon="7.0095">
        <ele>845</ele>
        <time>2011-07-16T15:01:59Z</time>
      </trkpt>
      <trkpt lat="43.73148" lon="7.0095">
        <ele>845</ele>
        <time>2011-07-16T15:02:00Z</time>
      </trkpt>
      <trkpt lat="43.73145" lon="7.0095">
        <ele>845</ele>
        <time>2011-07-16T15:02:01Z</time>
      </trkpt>
      <trkpt lat="43.73143" lon="7.00951">
        <ele>845</ele>
        <time>2011-07-16T15:02:02Z</time>
      </trkpt>
      <trkpt lat="43.73142" lon="7.00951">
        <ele>845</ele>
        <time>2011-07-16T15:02:03Z</time>
      </trkpt>
      <trkpt lat="43.73139" lon="7.00952">
        <ele>845</ele>
        <time>2011-07-16T15:02:04Z</time>
      </trkpt>
      <trkpt lat="43.73138" lon="7.00951">
        <ele>845</ele>
        <time>2011-07-16T15:02:05Z</time>
      </trkpt>
      <trkpt lat="43.73136" lon="7.0095">
        <ele>845</ele>
        <time>2011-07-16T15:02:06Z</time>
      </trkpt>
      <trkpt lat="43.73135" lon="7.00951">
        <ele>846</ele>
        <time>2011-07-16T15:02:07Z</time>
      </trkpt>
      <trkpt lat="43.73133" lon="7.00951">
        <ele>846</ele>
        <time>2011-07-16T15:02:08Z</time>
      </trkpt>
      <trkpt lat="43.73131" lon="7.00951">
        <ele>846</ele>
        <time>2011-07-16T15:02:09Z</time>
      </trkpt>
      <trkpt lat="43.73131" lon="7.00949">
        <ele>846</ele>
        <time>2011-07-16T15:02:10Z</time>
      </trkpt>
      <trkpt lat="43.7313" lon="7.00949">
        <ele>846</ele>
        <time>2011-07-16T15:02:11Z</time>
      </trkpt>
      <trkpt lat="43.73128" lon="7.00949">
        <ele>847</ele>
        <time>2011-07-16T15:02:12Z</time>
      </trkpt>
      <trkpt lat="43.73126" lon="7.00949">
        <ele>847</ele>
        <time>2011-07-16T15:02:13Z</time>
      </trkpt>
      <trkpt lat="43.73124" lon="7.00949">
        <ele>847</ele>
        <time>2011-07-16T15:02:14Z</time>
      </trkpt>
      <trkpt lat="43.73122" lon="7.00949">
        <ele>847</ele>
        <time>2011-07-16T15:02:15Z</time>
      </trkpt>
      <trkpt lat="43.7312" lon="7.00951">
        <ele>847</ele>
        <time>2011-07-16T15:02:16Z</time>
      </trkpt>
      <trkpt lat="43.73118" lon="7.00953">
        <ele>848</ele>
        <time>2011-07-16T15:02:17Z</time>
      </trkpt>
      <trkpt lat="43.73118" lon="7.00952">
        <ele>848</ele>
        <time>2011-07-16T15:02:18Z</time>
      </trkpt>
      <trkpt lat="43.73116" lon="7.00952">
        <ele>848</ele>
        <time>2011-07-16T15:02:19Z</time>
      </trkpt>
      <trkpt lat="43.73113" lon="7.00952">
        <ele>848</ele>
        <time>2011-07-16T15:02:21Z</time>
      </trkpt>
      <trkpt lat="43.73113" lon="7.00951">
        <ele>848</ele>
        <time>2011-07-16T15:02:22Z</time>
      </trkpt>
      <trkpt lat="43.73112" lon="7.00952">
        <ele>849</ele>
        <time>2011-07-16T15:02:26Z</time>
      </trkpt>
      <trkpt lat="43.73112" lon="7.00952">
        <ele>849</ele>
        <time>2011-07-16T15:02:27Z</time>
      </trkpt>
      <trkpt lat="43.73111" lon="7.00951">
        <ele>849</ele>
        <time>2011-07-16T15:02:28Z</time>
      </trkpt>
      <trkpt lat="43.7311" lon="7.00951">
        <ele>849</ele>
        <time>2011-07-16T15:02:29Z</time>
      </trkpt>
      <trkpt lat="43.73109" lon="7.00951">
        <ele>849</ele>
        <time>2011-07-16T15:02:30Z</time>
      </trkpt>
      <trkpt lat="43.73108" lon="7.0095">
        <ele>849</ele>
        <time>2011-07-16T15:02:31Z</time>
      </trkpt>
      <trkpt lat="43.73107" lon="7.0095">
        <ele>849</ele>
        <time>2011-07-16T15:02:32Z</time>
      </trkpt>
      <trkpt lat="43.73105" lon="7.0095">
        <ele>849</ele>
        <time>2011-07-16T15:02:33Z</time>
      </trkpt>
      <trkpt lat="43.73103" lon="7.0095">
        <ele>849</ele>
        <time>2011-07-16T15:02:34Z</time>
      </trkpt>
      <trkpt lat="43.731" lon="7.0095">
        <ele>849</ele>
        <time>2011-07-16T15:02:36Z</time>
      </trkpt>
      <trkpt lat="43.731" lon="7.00951">
        <ele>849</ele>
        <time>2011-07-16T15:02:37Z</time>
      </trkpt>
      <trkpt lat="43.73099" lon="7.00951">
        <ele>849</ele>
        <time>2011-07-16T15:02:43Z</time>
      </trkpt>
      <trkpt lat="43.73098" lon="7.00952">
        <ele>849</ele>
        <time>2011-07-16T15:02:44Z</time>
      </trkpt>
      <trkpt lat="43.73097" lon="7.00952">
        <ele>849</ele>
        <time>2011-07-16T15:02:45Z</time>
      </trkpt>
      <trkpt lat="43.73096" lon="7.00952">
        <ele>849</ele>
        <time>2011-07-16T15:02:46Z</time>
      </trkpt>
      <trkpt lat="43.73094" lon="7.00951">
        <ele>849</ele>
        <time>2011-07-16T15:02:47Z</time>
      </trkpt>
      <trkpt lat="43.73092" lon="7.00949">
        <ele>849</ele>
        <time>2011-07-16T15:02:48Z</time>
      </trkpt>
      <trkpt lat="43.73091" lon="7.00947">
        <ele>849</ele>
        <time>2011-07-16T15:02:49Z</time>
      </trkpt>
      <trkpt lat="43.7309" lon="7.00946">
        <ele>849</ele>
        <time>2011-07-16T15:02:50Z</time>
      </trkpt>
      <trkpt lat="43.7309" lon="7.00946">
        <ele>849</ele>
        <time>2011-07-16T15:02:51Z</time>
      </trkpt>
      <trkpt lat="43.73089" lon="7.00946">
        <ele>849</ele>
        <time>2011-07-16T15:02:52Z</time>
      </trkpt>
      <trkpt lat="43.73088" lon="7.00947">
        <ele>849</ele>
        <time>2011-07-16T15:02:53Z</time>
      </trkpt>
      <trkpt lat="43.73087" lon="7.00947">
        <ele>849</ele>
        <time>2011-07-16T15:02:54Z</time>
      </trkpt>
      <trkpt lat="43.73085" lon="7.00948">
        <ele>849</ele>
        <time>2011-07-16T15:02:55Z</time>
      </trkpt>
      <trkpt lat="43.73084" lon="7.00947">
        <ele>849</ele>
        <time>2011-07-16T15:02:56Z</time>
      </trkpt>
      <trkpt lat="43.73083" lon="7.00946">
        <ele>849</ele>
        <time>2011-07-16T15:02:57Z</time>
      </trkpt>
      <trkpt lat="43.7308" lon="7.00945">
        <ele>849</ele>
        <time>2011-07-16T15:02:58Z</time>
      </trkpt>
      <trkpt lat="43.73078" lon="7.00944">
        <ele>849</ele>
        <time>2011-07-16T15:02:59Z</time>
      </trkpt>
      <trkpt lat="43.73076" lon="7.00945">
        <ele>850</ele>
        <time>2011-07-16T15:03:00Z</time>
      </trkpt>
      <trkpt lat="43.73074" lon="7.00944">
        <ele>850</ele>
        <time>2011-07-16T15:03:01Z</time>
      </trkpt>
      <trkpt lat="43.73071" lon="7.00944">
        <ele>850</ele>
        <time>2011-07-16T15:03:02Z</time>
      </trkpt>
      <trkpt lat="43.73068" lon="7.00946">
        <ele>850</ele>
        <time>2011-07-16T15:03:03Z</time>
      </trkpt>
      <trkpt lat="43.73066" lon="7.00945">
        <ele>850</ele>
        <time>2011-07-16T15:03:04Z</time>
      </trkpt>
      <trkpt lat="43.73064" lon="7.00945">
        <ele>850</ele>
        <time>2011-07-16T15:03:05Z</time>
      </trkpt>
      <trkpt lat="43.73063" lon="7.00944">
        <ele>850</ele>
        <time>2011-07-16T15:03:06Z</time>
      </trkpt>
      <trkpt lat="43.73061" lon="7.00945">
        <ele>850</ele>
        <time>2011-07-16T15:03:07Z</time>
      </trkpt>
      <trkpt lat="43.7306" lon="7.00945">
        <ele>850</ele>
        <time>2011-07-16T15:03:08Z</time>
      </trkpt>
      <trkpt lat="43.73059" lon="7.00946">
        <ele>850</ele>
        <time>2011-07-16T15:03:09Z</time>
      </trkpt>
      <trkpt lat="43.73058" lon="7.00947">
        <ele>851</ele>
        <time>2011-07-16T15:03:10Z</time>
      </trkpt>
      <trkpt lat="43.73057" lon="7.00947">
        <ele>851</ele>
        <time>2011-07-16T15:03:11Z</time>
      </trkpt>
      <trkpt lat="43.73056" lon="7.00948">
        <ele>851</ele>
        <time>2011-07-16T15:03:12Z</time>
      </trkpt>
      <trkpt lat="43.73056" lon="7.00949">
        <ele>851</ele>
        <time>2011-07-16T15:03:13Z</time>
      </trkpt>
      <trkpt lat="43.73056" lon="7.00948">
        <ele>852</ele>
        <time>2011-07-16T15:03:14Z</time>
      </trkpt>
      <trkpt lat="43.73055" lon="7.00948">
        <ele>852</ele>
        <time>2011-07-16T15:03:15Z</time>
      </trkpt>
      <trkpt lat="43.73054" lon="7.00948">
        <ele>852</ele>
        <time>2011-07-16T15:03:16Z</time>
      </trkpt>
      <trkpt lat="43.73053" lon="7.00948">
        <ele>852</ele>
        <time>2011-07-16T15:03:17Z</time>
      </trkpt>
      <trkpt lat="43.73052" lon="7.00948">
        <ele>853</ele>
        <time>2011-07-16T15:03:18Z</time>
      </trkpt>
      <trkpt lat="43.73051" lon="7.00949">
        <ele>853</ele>
        <time>2011-07-16T15:03:19Z</time>
      </trkpt>
      <trkpt lat="43.7305" lon="7.00949">
        <ele>853</ele>
        <time>2011-07-16T15:03:20Z</time>
      </trkpt>
      <trkpt lat="43.73048" lon="7.00949">
        <ele>853</ele>
        <time>2011-07-16T15:03:21Z</time>
      </trkpt>
      <trkpt lat="43.73047" lon="7.0095">
        <ele>853</ele>
        <time>2011-07-16T15:03:22Z</time>
      </trkpt>
      <trkpt lat="43.73046" lon="7.0095">
        <ele>853</ele>
        <time>2011-07-16T15:03:23Z</time>
      </trkpt>
      <trkpt lat="43.73044" lon="7.0095">
        <ele>853</ele>
        <time>2011-07-16T15:03:24Z</time>
      </trkpt>
      <trkpt lat="43.73042" lon="7.00951">
        <ele>853</ele>
        <time>2011-07-16T15:03:25Z</time>
      </trkpt>
      <trkpt lat="43.73042" lon="7.00952">
        <ele>854</ele>
        <time>2011-07-16T15:03:26Z</time>
      </trkpt>
      <trkpt lat="43.73041" lon="7.00952">
        <ele>854</ele>
        <time>2011-07-16T15:03:27Z</time>
      </trkpt>
      <trkpt lat="43.7304" lon="7.00951">
        <ele>854</ele>
        <time>2011-07-16T15:03:28Z</time>
      </trkpt>
      <trkpt lat="43.73037" lon="7.0095">
        <ele>855</ele>
        <time>2011-07-16T15:03:29Z</time>
      </trkpt>
      <trkpt lat="43.73036" lon="7.0095">
        <ele>855</ele>
        <time>2011-07-16T15:03:30Z</time>
      </trkpt>
      <trkpt lat="43.73035" lon="7.00951">
        <ele>855</ele>
        <time>2011-07-16T15:03:31Z</time>
      </trkpt>
      <trkpt lat="43.73034" lon="7.00952">
        <ele>855</ele>
        <time>2011-07-16T15:03:32Z</time>
      </trkpt>
      <trkpt lat="43.73034" lon="7.00954">
        <ele>856</ele>
        <time>2011-07-16T15:03:33Z</time>
      </trkpt>
      <trkpt lat="43.73032" lon="7.00955">
        <ele>856</ele>
        <time>2011-07-16T15:03:34Z</time>
      </trkpt>
      <trkpt lat="43.73031" lon="7.00956">
        <ele>856</ele>
        <time>2011-07-16T15:03:35Z</time>
      </trkpt>
      <trkpt lat="43.7303" lon="7.00956">
        <ele>856</ele>
        <time>2011-07-16T15:03:36Z</time>
      </trkpt>
      <trkpt lat="43.73029" lon="7.00957">
        <ele>857</ele>
        <time>2011-07-16T15:03:37Z</time>
      </trkpt>
      <trkpt lat="43.73028" lon="7.00957">
        <ele>857</ele>
        <time>2011-07-16T15:03:38Z</time>
      </trkpt>
      <trkpt lat="43.73025" lon="7.00957">
        <ele>857</ele>
        <time>2011-07-16T15:03:39Z</time>
      </trkpt>
      <trkpt lat="43.73023" lon="7.00958">
        <ele>857</ele>
        <time>2011-07-16T15:03:40Z</time>
      </trkpt>
      <trkpt lat="43.73022" lon="7.00958">
        <ele>857</ele>
        <time>2011-07-16T15:03:41Z</time>
      </trkpt>
      <trkpt lat="43.73022" lon="7.00959">
        <ele>857</ele>
        <time>2011-07-16T15:03:42Z</time>
      </trkpt>
      <trkpt lat="43.7302" lon="7.00959">
        <ele>857</ele>
        <time>2011-07-16T15:03:43Z</time>
      </trkpt>
      <trkpt lat="43.73018" lon="7.00959">
        <ele>857</ele>
        <time>2011-07-16T15:03:44Z</time>
      </trkpt>
      <trkpt lat="43.73017" lon="7.00959">
        <ele>858</ele>
        <time>2011-07-16T15:03:45Z</time>
      </trkpt>
      <trkpt lat="43.73015" lon="7.00959">
        <ele>858</ele>
        <time>2011-07-16T15:03:46Z</time>
      </trkpt>
      <trkpt lat="43.73013" lon="7.0096">
        <ele>858</ele>
        <time>2011-07-16T15:03:47Z</time>
      </trkpt>
      <trkpt lat="43.73011" lon="7.00959">
        <ele>858</ele>
        <time>2011-07-16T15:03:48Z</time>
      </trkpt>
      <trkpt lat="43.73009" lon="7.0096">
        <ele>858</ele>
        <time>2011-07-16T15:03:49Z</time>
      </trkpt>
      <trkpt lat="43.73006" lon="7.00961">
        <ele>858</ele>
        <time>2011-07-16T15:03:50Z</time>
      </trkpt>
      <trkpt lat="43.73004" lon="7.00961">
        <ele>859</ele>
        <time>2011-07-16T15:03:51Z</time>
      </trkpt>
      <trkpt lat="43.73003" lon="7.00961">
        <ele>859</ele>
        <time>2011-07-16T15:03:52Z</time>
      </trkpt>
      <trkpt lat="43.73003" lon="7.00962">
        <ele>859</ele>
        <time>2011-07-16T15:03:53Z</time>
      </trkpt>
      <trkpt lat="43.73002" lon="7.00961">
        <ele>859</ele>
        <time>2011-07-16T15:03:54Z</time>
      </trkpt>
      <trkpt lat="43.73" lon="7.0096">
        <ele>859</ele>
        <time>2011-07-16T15:03:55Z</time>
      </trkpt>
      <trkpt lat="43.72999" lon="7.0096">
        <ele>859</ele>
        <time>2011-07-16T15:03:56Z</time>
      </trkpt>
      <trkpt lat="43.72996" lon="7.00959">
        <ele>859</ele>
        <time>2011-07-16T15:03:57Z</time>
      </trkpt>
      <trkpt lat="43.72994" lon="7.00958">
        <ele>859</ele>
        <time>2011-07-16T15:03:58Z</time>
      </trkpt>
      <trkpt lat="43.72992" lon="7.00957">
        <ele>860</ele>
        <time>2011-07-16T15:03:59Z</time>
      </trkpt>
      <trkpt lat="43.72992" lon="7.00958">
        <ele>860</ele>
        <time>2011-07-16T15:04:00Z</time>
      </trkpt>
      <trkpt lat="43.72992" lon="7.00958">
        <ele>861</ele>
        <time>2011-07-16T15:04:02Z</time>
      </trkpt>
      <trkpt lat="43.72992" lon="7.00958">
        <ele>861</ele>
        <time>2011-07-16T15:04:04Z</time>
      </trkpt>
      <trkpt lat="43.72992" lon="7.00958">
        <ele>862</ele>
        <time>2011-07-16T15:04:48Z</time>
      </trkpt>
      <trkpt lat="43.72992" lon="7.00958">
        <ele>862</ele>
        <time>2011-07-16T15:05:48Z</time>
      </trkpt>
      <trkpt lat="43.72992" lon="7.00958">
        <ele>862</ele>
        <time>2011-07-16T15:05:49Z</time>
      </trkpt>
      <trkpt lat="43.72993" lon="7.00959">
        <ele>863</ele>
        <time>2011-07-16T15:05:53Z</time>
      </trkpt>
      <trkpt lat="43.72992" lon="7.0096">
        <ele>862</ele>
        <time>2011-07-16T15:05:54Z</time>
      </trkpt>
      <trkpt lat="43.72992" lon="7.0096">
        <ele>862</ele>
        <time>2011-07-16T15:05:55Z</time>
      </trkpt>
      <trkpt lat="43.72992" lon="7.0096">
        <ele>862</ele>
        <time>2011-07-16T15:06:29Z</time>
      </trkpt>
      <trkpt lat="43.72991" lon="7.00962">
        <ele>862</ele>
        <time>2011-07-16T15:06:30Z</time>
      </trkpt>
      <trkpt lat="43.7299" lon="7.00964">
        <ele>862</ele>
        <time>2011-07-16T15:06:31Z</time>
      </trkpt>
      <trkpt lat="43.72989" lon="7.00966">
        <ele>862</ele>
        <time>2011-07-16T15:06:32Z</time>
      </trkpt>
      <trkpt lat="43.72988" lon="7.00967">
        <ele>862</ele>
        <time>2011-07-16T15:06:33Z</time>
      </trkpt>
      <trkpt lat="43.72986" lon="7.00966">
        <ele>862</ele>
        <time>2011-07-16T15:06:34Z</time>
      </trkpt>
      <trkpt lat="43.72985" lon="7.00965">
        <ele>862</ele>
        <time>2011-07-16T15:06:35Z</time>
      </trkpt>
      <trkpt lat="43.72984" lon="7.00964">
        <ele>862</ele>
        <time>2011-07-16T15:06:36Z</time>
      </trkpt>
      <trkpt lat="43.72983" lon="7.00962">
        <ele>862</ele>
        <time>2011-07-16T15:06:37Z</time>
      </trkpt>
      <trkpt lat="43.72983" lon="7.00961">
        <ele>862</ele>
        <time>2011-07-16T15:06:38Z</time>
      </trkpt>
      <trkpt lat="43.72982" lon="7.0096">
        <ele>862</ele>
        <time>2011-07-16T15:06:39Z</time>
      </trkpt>
      <trkpt lat="43.72982" lon="7.00958">
        <ele>862</ele>
        <time>2011-07-16T15:06:40Z</time>
      </trkpt>
      <trkpt lat="43.72981" lon="7.00957">
        <ele>862</ele>
        <time>2011-07-16T15:06:41Z</time>
      </trkpt>
      <trkpt lat="43.72981" lon="7.00955">
        <ele>862</ele>
        <time>2011-07-16T15:06:42Z</time>
      </trkpt>
      <trkpt lat="43.7298" lon="7.00954">
        <ele>863</ele>
        <time>2011-07-16T15:06:43Z</time>
      </trkpt>
      <trkpt lat="43.72979" lon="7.00953">
        <ele>863</ele>
        <time>2011-07-16T15:06:44Z</time>
      </trkpt>
      <trkpt lat="43.72978" lon="7.00952">
        <ele>863</ele>
        <time>2011-07-16T15:06:45Z</time>
      </trkpt>
      <trkpt lat="43.72976" lon="7.00951">
        <ele>863</ele>
        <time>2011-07-16T15:06:46Z</time>
      </trkpt>
      <trkpt lat="43.72974" lon="7.0095">
        <ele>863</ele>
        <time>2011-07-16T15:06:47Z</time>
      </trkpt>
      <trkpt lat="43.72973" lon="7.00949">
        <ele>863</ele>
        <time>2011-07-16T15:06:48Z</time>
      </trkpt>
      <trkpt lat="43.72971" lon="7.00948">
        <ele>864</ele>
        <time>2011-07-16T15:06:49Z</time>
      </trkpt>
      <trkpt lat="43.7297" lon="7.00948">
        <ele>864</ele>
        <time>2011-07-16T15:06:50Z</time>
      </trkpt>
      <trkpt lat="43.72968" lon="7.00948">
        <ele>864</ele>
        <time>2011-07-16T15:06:51Z</time>
      </trkpt>
      <trkpt lat="43.72967" lon="7.00949">
        <ele>864</ele>
        <time>2011-07-16T15:06:52Z</time>
      </trkpt>
      <trkpt lat="43.72967" lon="7.0095">
        <ele>865</ele>
        <time>2011-07-16T15:06:53Z</time>
      </trkpt>
      <trkpt lat="43.72967" lon="7.00951">
        <ele>865</ele>
        <time>2011-07-16T15:06:54Z</time>
      </trkpt>
      <trkpt lat="43.72967" lon="7.00952">
        <ele>865</ele>
        <time>2011-07-16T15:06:55Z</time>
      </trkpt>
      <trkpt lat="43.72968" lon="7.00952">
        <ele>865</ele>
        <time>2011-07-16T15:06:56Z</time>
      </trkpt>
      <trkpt lat="43.72969" lon="7.00951">
        <ele>865</ele>
        <time>2011-07-16T15:06:57Z</time>
      </trkpt>
      <trkpt lat="43.72971" lon="7.00949">
        <ele>865</ele>
        <time>2011-07-16T15:06:58Z</time>
      </trkpt>
      <trkpt lat="43.72972" lon="7.00946">
        <ele>865</ele>
        <time>2011-07-16T15:06:59Z</time>
      </trkpt>
      <trkpt lat="43.72973" lon="7.00944">
        <ele>864</ele>
        <time>2011-07-16T15:07:00Z</time>
      </trkpt>
      <trkpt lat="43.72975" lon="7.00943">
        <ele>864</ele>
        <time>2011-07-16T15:07:01Z</time>
      </trkpt>
      <trkpt lat="43.72977" lon="7.00944">
        <ele>864</ele>
        <time>2011-07-16T15:07:02Z</time>
      </trkpt>
      <trkpt lat="43.7298" lon="7.00945">
        <ele>864</ele>
        <time>2011-07-16T15:07:03Z</time>
      </trkpt>
      <trkpt lat="43.72983" lon="7.00946">
        <ele>864</ele>
        <time>2011-07-16T15:07:04Z</time>
      </trkpt>
      <trkpt lat="43.72987" lon="7.00947">
        <ele>864</ele>
        <time>2011-07-16T15:07:05Z</time>
      </trkpt>
      <trkpt lat="43.72989" lon="7.00949">
        <ele>864</ele>
        <time>2011-07-16T15:07:06Z</time>
      </trkpt>
      <trkpt lat="43.72991" lon="7.00952">
        <ele>864</ele>
        <time>2011-07-16T15:07:07Z</time>
      </trkpt>
      <trkpt lat="43.72992" lon="7.00954">
        <ele>864</ele>
        <time>2011-07-16T15:07:08Z</time>
      </trkpt>
      <trkpt lat="43.72993" lon="7.00957">
        <ele>864</ele>
        <time>2011-07-16T15:07:09Z</time>
      </trkpt>
      <trkpt lat="43.72994" lon="7.00959">
        <ele>864</ele>
        <time>2011-07-16T15:07:10Z</time>
      </trkpt>
      <trkpt lat="43.72995" lon="7.00961">
        <ele>865</ele>
        <time>2011-07-16T15:07:11Z</time>
      </trkpt>
      <trkpt lat="43.72995" lon="7.00963">
        <ele>865</ele>
        <time>2011-07-16T15:07:12Z</time>
      </trkpt>
      <trkpt lat="43.72996" lon="7.00964">
        <ele>865</ele>
        <time>2011-07-16T15:07:13Z</time>
      </trkpt>
      <trkpt lat="43.72995" lon="7.00964">
        <ele>864</ele>
        <time>2011-07-16T15:07:39Z</time>
      </trkpt>
      <trkpt lat="43.72996" lon="7.00965">
        <ele>864</ele>
        <time>2011-07-16T15:07:40Z</time>
      </trkpt>
      <trkpt lat="43.72997" lon="7.00967">
        <ele>864</ele>
        <time>2011-07-16T15:07:41Z</time>
      </trkpt>
      <trkpt lat="43.72998" lon="7.0097">
        <ele>864</ele>
        <time>2011-07-16T15:07:42Z</time>
      </trkpt>
      <trkpt lat="43.73" lon="7.00972">
        <ele>864</ele>
        <time>2011-07-16T15:07:43Z</time>
      </trkpt>
      <trkpt lat="43.73001" lon="7.00975">
        <ele>864</ele>
        <time>2011-07-16T15:07:44Z</time>
      </trkpt>
      <trkpt lat="43.73002" lon="7.0098">
        <ele>864</ele>
        <time>2011-07-16T15:07:45Z</time>
      </trkpt>
      <trkpt lat="43.73003" lon="7.00984">
        <ele>865</ele>
        <time>2011-07-16T15:07:46Z</time>
      </trkpt>
      <trkpt lat="43.73004" lon="7.0099">
        <ele>865</ele>
        <time>2011-07-16T15:07:47Z</time>
      </trkpt>
      <trkpt lat="43.73006" lon="7.00995">
        <ele>864</ele>
        <time>2011-07-16T15:07:48Z</time>
      </trkpt>
      <trkpt lat="43.73008" lon="7.01002">
        <ele>864</ele>
        <time>2011-07-16T15:07:49Z</time>
      </trkpt>
      <trkpt lat="43.7301" lon="7.01009">
        <ele>864</ele>
        <time>2011-07-16T15:07:50Z</time>
      </trkpt>
      <trkpt lat="43.7303" lon="7.01089">
        <ele>863</ele>
        <time>2011-07-16T15:08:00Z</time>
      </trkpt>
      <trkpt lat="43.73031" lon="7.01092">
        <ele>863</ele>
        <time>2011-07-16T15:08:01Z</time>
      </trkpt>
      <trkpt lat="43.73033" lon="7.01095">
        <ele>863</ele>
        <time>2011-07-16T15:08:02Z</time>
      </trkpt>
      <trkpt lat="43.73034" lon="7.011">
        <ele>864</ele>
        <time>2011-07-16T15:08:03Z</time>
      </trkpt>
      <trkpt lat="43.73033" lon="7.01103">
        <ele>864</ele>
        <time>2011-07-16T15:08:04Z</time>
      </trkpt>
      <trkpt lat="43.73033" lon="7.01105">
        <ele>864</ele>
        <time>2011-07-16T15:08:05Z</time>
      </trkpt>
      <trkpt lat="43.73033" lon="7.01107">
        <ele>864</ele>
        <time>2011-07-16T15:08:06Z</time>
      </trkpt>
      <trkpt lat="43.73031" lon="7.01108">
        <ele>864</ele>
        <time>2011-07-16T15:08:07Z</time>
      </trkpt>
      <trkpt lat="43.7303" lon="7.01112">
        <ele>864</ele>
        <time>2011-07-16T15:08:08Z</time>
      </trkpt>
      <trkpt lat="43.73027" lon="7.01115">
        <ele>864</ele>
        <time>2011-07-16T15:08:09Z</time>
      </trkpt>
      <trkpt lat="43.73025" lon="7.01118">
        <ele>864</ele>
        <time>2011-07-16T15:08:10Z</time>
      </trkpt>
      <trkpt lat="43.73022" lon="7.01121">
        <ele>864</ele>
        <time>2011-07-16T15:08:11Z</time>
      </trkpt>
      <trkpt lat="43.7302" lon="7.01125">
        <ele>864</ele>
        <time>2011-07-16T15:08:12Z</time>
      </trkpt>
      <trkpt lat="43.73016" lon="7.01129">
        <ele>864</ele>
        <time>2011-07-16T15:08:13Z</time>
      </trkpt>
      <trkpt lat="43.73011" lon="7.01134">
        <ele>864</ele>
        <time>2011-07-16T15:08:14Z</time>
      </trkpt>
      <trkpt lat="43.73008" lon="7.01138">
        <ele>864</ele>
        <time>2011-07-16T15:08:15Z</time>
      </trkpt>
      <trkpt lat="43.73004" lon="7.01143">
        <ele>864</ele>
        <time>2011-07-16T15:08:16Z</time>
      </trkpt>
      <trkpt lat="43.73" lon="7.01148">
        <ele>864</ele>
        <time>2011-07-16T15:08:17Z</time>
      </trkpt>
      <trkpt lat="43.72998" lon="7.01151">
        <ele>864</ele>
        <time>2011-07-16T15:08:18Z</time>
      </trkpt>
      <trkpt lat="43.72999" lon="7.01157">
        <ele>864</ele>
        <time>2011-07-16T15:08:19Z</time>
      </trkpt>
      <trkpt lat="43.73" lon="7.01159">
        <ele>864</ele>
        <time>2011-07-16T15:08:20Z</time>
      </trkpt>
      <trkpt lat="43.73002" lon="7.0116">
        <ele>864</ele>
        <time>2011-07-16T15:08:21Z</time>
      </trkpt>
      <trkpt lat="43.73004" lon="7.01163">
        <ele>864</ele>
        <time>2011-07-16T15:08:22Z</time>
      </trkpt>
      <trkpt lat="43.73007" lon="7.01162">
        <ele>865</ele>
        <time>2011-07-16T15:08:23Z</time>
      </trkpt>
      <trkpt lat="43.73008" lon="7.01164">
        <ele>865</ele>
        <time>2011-07-16T15:08:24Z</time>
      </trkpt>
      <trkpt lat="43.73007" lon="7.01165">
        <ele>865</ele>
        <time>2011-07-16T15:08:25Z</time>
      </trkpt>
      <trkpt lat="43.73009" lon="7.01166">
        <ele>865</ele>
        <time>2011-07-16T15:08:26Z</time>
      </trkpt>
      <trkpt lat="43.73012" lon="7.01168">
        <ele>865</ele>
        <time>2011-07-16T15:08:27Z</time>
      </trkpt>
      <trkpt lat="43.73012" lon="7.01171">
        <ele>866</ele>
        <time>2011-07-16T15:08:28Z</time>
      </trkpt>
      <trkpt lat="43.73014" lon="7.01173">
        <ele>866</ele>
        <time>2011-07-16T15:08:29Z</time>
      </trkpt>
      <trkpt lat="43.73014" lon="7.01177">
        <ele>867</ele>
        <time>2011-07-16T15:08:30Z</time>
      </trkpt>
      <trkpt lat="43.73015" lon="7.01181">
        <ele>867</ele>
        <time>2011-07-16T15:08:31Z</time>
      </trkpt>
      <trkpt lat="43.73016" lon="7.01182">
        <ele>867</ele>
        <time>2011-07-16T15:08:32Z</time>
      </trkpt>
      <trkpt lat="43.73019" lon="7.01184">
        <ele>868</ele>
        <time>2011-07-16T15:08:33Z</time>
      </trkpt>
      <trkpt lat="43.7302" lon="7.01189">
        <ele>868</ele>
        <time>2011-07-16T15:08:34Z</time>
      </trkpt>
      <trkpt lat="43.73022" lon="7.01192">
        <ele>868</ele>
        <time>2011-07-16T15:08:35Z</time>
      </trkpt>
      <trkpt lat="43.73023" lon="7.01196">
        <ele>868</ele>
        <time>2011-07-16T15:08:36Z</time>
      </trkpt>
      <trkpt lat="43.73025" lon="7.01201">
        <ele>868</ele>
        <time>2011-07-16T15:08:37Z</time>
      </trkpt>
      <trkpt lat="43.73027" lon="7.01203">
        <ele>868</ele>
        <time>2011-07-16T15:08:38Z</time>
      </trkpt>
      <trkpt lat="43.7303" lon="7.01204">
        <ele>868</ele>
        <time>2011-07-16T15:08:39Z</time>
      </trkpt>
      <trkpt lat="43.73034" lon="7.01205">
        <ele>868</ele>
        <time>2011-07-16T15:08:40Z</time>
      </trkpt>
      <trkpt lat="43.73041" lon="7.01203">
        <ele>868</ele>
        <time>2011-07-16T15:08:41Z</time>
      </trkpt>
      <trkpt lat="43.73044" lon="7.01204">
        <ele>868</ele>
        <time>2011-07-16T15:08:42Z</time>
      </trkpt>
      <trkpt lat="43.73048" lon="7.01205">
        <ele>868</ele>
        <time>2011-07-16T15:08:43Z</time>
      </trkpt>
      <trkpt lat="43.7305" lon="7.01206">
        <ele>868</ele>
        <time>2011-07-16T15:08:44Z</time>
      </trkpt>
      <trkpt lat="43.73052" lon="7.01206">
        <ele>868</ele>
        <time>2011-07-16T15:08:45Z</time>
      </trkpt>
      <trkpt lat="43.73055" lon="7.01208">
        <ele>869</ele>
        <time>2011-07-16T15:08:46Z</time>
      </trkpt>
      <trkpt lat="43.73059" lon="7.0121">
        <ele>869</ele>
        <time>2011-07-16T15:08:47Z</time>
      </trkpt>
      <trkpt lat="43.73067" lon="7.01215">
        <ele>869</ele>
        <time>2011-07-16T15:08:49Z</time>
      </trkpt>
      <trkpt lat="43.73069" lon="7.01217">
        <ele>870</ele>
        <time>2011-07-16T15:08:50Z</time>
      </trkpt>
      <trkpt lat="43.73072" lon="7.0122">
        <ele>870</ele>
        <time>2011-07-16T15:08:51Z</time>
      </trkpt>
      <trkpt lat="43.73074" lon="7.01222">
        <ele>870</ele>
        <time>2011-07-16T15:08:52Z</time>
      </trkpt>
      <trkpt lat="43.73076" lon="7.01224">
        <ele>870</ele>
        <time>2011-07-16T15:08:53Z</time>
      </trkpt>
      <trkpt lat="43.73078" lon="7.01228">
        <ele>870</ele>
        <time>2011-07-16T15:08:54Z</time>
      </trkpt>
      <trkpt lat="43.73079" lon="7.01232">
        <ele>870</ele>
        <time>2011-07-16T15:08:55Z</time>
      </trkpt>
      <trkpt lat="43.7308" lon="7.01235">
        <ele>871</ele>
        <time>2011-07-16T15:08:56Z</time>
      </trkpt>
      <trkpt lat="43.73081" lon="7.01239">
        <ele>871</ele>
        <time>2011-07-16T15:08:57Z</time>
      </trkpt>
      <trkpt lat="43.73083" lon="7.01242">
        <ele>871</ele>
        <time>2011-07-16T15:08:58Z</time>
      </trkpt>
      <trkpt lat="43.73083" lon="7.01244">
        <ele>872</ele>
        <time>2011-07-16T15:08:59Z</time>
      </trkpt>
      <trkpt lat="43.73084" lon="7.01249">
        <ele>872</ele>
        <time>2011-07-16T15:09:00Z</time>
      </trkpt>
      <trkpt lat="43.73086" lon="7.01254">
        <ele>873</ele>
        <time>2011-07-16T15:09:01Z</time>
      </trkpt>
      <trkpt lat="43.73087" lon="7.01259">
        <ele>873</ele>
        <time>2011-07-16T15:09:02Z</time>
      </trkpt>
      <trkpt lat="43.7309" lon="7.01268">
        <ele>873</ele>
        <time>2011-07-16T15:09:03Z</time>
      </trkpt>
      <trkpt lat="43.73093" lon="7.01277">
        <ele>872</ele>
        <time>2011-07-16T15:09:04Z</time>
      </trkpt>
      <trkpt lat="43.73097" lon="7.01281">
        <ele>873</ele>
        <time>2011-07-16T15:09:05Z</time>
      </trkpt>
      <trkpt lat="43.73101" lon="7.01286">
        <ele>873</ele>
        <time>2011-07-16T15:09:06Z</time>
      </trkpt>
      <trkpt lat="43.73103" lon="7.01292">
        <ele>873</ele>
        <time>2011-07-16T15:09:07Z</time>
      </trkpt>
      <trkpt lat="43.73104" lon="7.01296">
        <ele>873</ele>
        <time>2011-07-16T15:09:08Z</time>
      </trkpt>
      <trkpt lat="43.73108" lon="7.013">
        <ele>873</ele>
        <time>2011-07-16T15:09:09Z</time>
      </trkpt>
      <trkpt lat="43.73112" lon="7.01302">
        <ele>873</ele>
        <time>2011-07-16T15:09:10Z</time>
      </trkpt>
      <trkpt lat="43.73116" lon="7.01302">
        <ele>873</ele>
        <time>2011-07-16T15:09:11Z</time>
      </trkpt>
      <trkpt lat="43.7312" lon="7.01303">
        <ele>873</ele>
        <time>2011-07-16T15:09:12Z</time>
      </trkpt>
      <trkpt lat="43.73124" lon="7.01302">
        <ele>873</ele>
        <time>2011-07-16T15:09:13Z</time>
      </trkpt>
      <trkpt lat="43.73128" lon="7.01303">
        <ele>873</ele>
        <time>2011-07-16T15:09:14Z</time>
      </trkpt>
      <trkpt lat="43.73131" lon="7.01304">
        <ele>872</ele>
        <time>2011-07-16T15:09:15Z</time>
      </trkpt>
      <trkpt lat="43.73135" lon="7.01305">
        <ele>872</ele>
        <time>2011-07-16T15:09:16Z</time>
      </trkpt>
      <trkpt lat="43.73142" lon="7.01306">
        <ele>872</ele>
        <time>2011-07-16T15:09:17Z</time>
      </trkpt>
      <trkpt lat="43.73148" lon="7.01309">
        <ele>871</ele>
        <time>2011-07-16T15:09:18Z</time>
      </trkpt>
      <trkpt lat="43.73153" lon="7.01311">
        <ele>870</ele>
        <time>2011-07-16T15:09:19Z</time>
      </trkpt>
      <trkpt lat="43.73159" lon="7.01314">
        <ele>869</ele>
        <time>2011-07-16T15:09:20Z</time>
      </trkpt>
      <trkpt lat="43.73163" lon="7.01318">
        <ele>868</ele>
        <time>2011-07-16T15:09:21Z</time>
      </trkpt>
      <trkpt lat="43.73168" lon="7.01322">
        <ele>867</ele>
        <time>2011-07-16T15:09:22Z</time>
      </trkpt>
      <trkpt lat="43.73173" lon="7.01326">
        <ele>866</ele>
        <time>2011-07-16T15:09:23Z</time>
      </trkpt>
      <trkpt lat="43.73177" lon="7.0133">
        <ele>865</ele>
        <time>2011-07-16T15:09:24Z</time>
      </trkpt>
      <trkpt lat="43.73181" lon="7.01334">
        <ele>864</ele>
        <time>2011-07-16T15:09:25Z</time>
      </trkpt>
      <trkpt lat="43.73185" lon="7.01339">
        <ele>864</ele>
        <time>2011-07-16T15:09:26Z</time>
      </trkpt>
      <trkpt lat="43.7319" lon="7.01343">
        <ele>863</ele>
        <time>2011-07-16T15:09:27Z</time>
      </trkpt>
      <trkpt lat="43.73194" lon="7.01347">
        <ele>862</ele>
        <time>2011-07-16T15:09:28Z</time>
      </trkpt>
      <trkpt lat="43.73197" lon="7.01351">
        <ele>862</ele>
        <time>2011-07-16T15:09:29Z</time>
      </trkpt>
      <trkpt lat="43.732" lon="7.01356">
        <ele>861</ele>
        <time>2011-07-16T15:09:30Z</time>
      </trkpt>
      <trkpt lat="43.73202" lon="7.0136">
        <ele>860</ele>
        <time>2011-07-16T15:09:31Z</time>
      </trkpt>
      <trkpt lat="43.73205" lon="7.01365">
        <ele>859</ele>
        <time>2011-07-16T15:09:32Z</time>
      </trkpt>
      <trkpt lat="43.73208" lon="7.0137">
        <ele>859</ele>
        <time>2011-07-16T15:09:33Z</time>
      </trkpt>
      <trkpt lat="43.73212" lon="7.01375">
        <ele>858</ele>
        <time>2011-07-16T15:09:34Z</time>
      </trkpt>
      <trkpt lat="43.73214" lon="7.0138">
        <ele>858</ele>
        <time>2011-07-16T15:09:35Z</time>
      </trkpt>
      <trkpt lat="43.73217" lon="7.01386">
        <ele>858</ele>
        <time>2011-07-16T15:09:36Z</time>
      </trkpt>
      <trkpt lat="43.73221" lon="7.01389">
        <ele>857</ele>
        <time>2011-07-16T15:09:37Z</time>
      </trkpt>
      <trkpt lat="43.73224" lon="7.01394">
        <ele>857</ele>
        <time>2011-07-16T15:09:38Z</time>
      </trkpt>
      <trkpt lat="43.73227" lon="7.01399">
        <ele>857</ele>
        <time>2011-07-16T15:09:39Z</time>
      </trkpt>
      <trkpt lat="43.73274" lon="7.01428">
        <ele>856</ele>
        <time>2011-07-16T15:09:49Z</time>
      </trkpt>
      <trkpt lat="43.73279" lon="7.01432">
        <ele>857</ele>
        <time>2011-07-16T15:09:50Z</time>
      </trkpt>
      <trkpt lat="43.73283" lon="7.01436">
        <ele>857</ele>
        <time>2011-07-16T15:09:51Z</time>
      </trkpt>
      <trkpt lat="43.73288" lon="7.0144">
        <ele>857</ele>
        <time>2011-07-16T15:09:52Z</time>
      </trkpt>
      <trkpt lat="43.73294" lon="7.0145">
        <ele>856</ele>
        <time>2011-07-16T15:09:54Z</time>
      </trkpt>
      <trkpt lat="43.73296" lon="7.01456">
        <ele>855</ele>
        <time>2011-07-16T15:09:55Z</time>
      </trkpt>
      <trkpt lat="43.73301" lon="7.01458">
        <ele>855</ele>
        <time>2011-07-16T15:09:56Z</time>
      </trkpt>
      <trkpt lat="43.73306" lon="7.01461">
        <ele>855</ele>
        <time>2011-07-16T15:09:57Z</time>
      </trkpt>
      <trkpt lat="43.7331" lon="7.01464">
        <ele>855</ele>
        <time>2011-07-16T15:09:58Z</time>
      </trkpt>
      <trkpt lat="43.73314" lon="7.01468">
        <ele>855</ele>
        <time>2011-07-16T15:09:59Z</time>
      </trkpt>
      <trkpt lat="43.73318" lon="7.01473">
        <ele>855</ele>
        <time>2011-07-16T15:10:00Z</time>
      </trkpt>
      <trkpt lat="43.73321" lon="7.01478">
        <ele>854</ele>
        <time>2011-07-16T15:10:01Z</time>
      </trkpt>
      <trkpt lat="43.73324" lon="7.01485">
        <ele>853</ele>
        <time>2011-07-16T15:10:02Z</time>
      </trkpt>
      <trkpt lat="43.73327" lon="7.01493">
        <ele>852</ele>
        <time>2011-07-16T15:10:03Z</time>
      </trkpt>
      <trkpt lat="43.73331" lon="7.01498">
        <ele>851</ele>
        <time>2011-07-16T15:10:04Z</time>
      </trkpt>
      <trkpt lat="43.73334" lon="7.01505">
        <ele>850</ele>
        <time>2011-07-16T15:10:05Z</time>
      </trkpt>
      <trkpt lat="43.73376" lon="7.01553">
        <ele>847</ele>
        <time>2011-07-16T15:10:15Z</time>
      </trkpt>
      <trkpt lat="43.73379" lon="7.01556">
        <ele>847</ele>
        <time>2011-07-16T15:10:16Z</time>
      </trkpt>
      <trkpt lat="43.73381" lon="7.01559">
        <ele>847</ele>
        <time>2011-07-16T15:10:17Z</time>
      </trkpt>
      <trkpt lat="43.73384" lon="7.01561">
        <ele>846</ele>
        <time>2011-07-16T15:10:18Z</time>
      </trkpt>
      <trkpt lat="43.73387" lon="7.01563">
        <ele>846</ele>
        <time>2011-07-16T15:10:19Z</time>
      </trkpt>
      <trkpt lat="43.73389" lon="7.01566">
        <ele>846</ele>
        <time>2011-07-16T15:10:20Z</time>
      </trkpt>
      <trkpt lat="43.73392" lon="7.01569">
        <ele>846</ele>
        <time>2011-07-16T15:10:21Z</time>
      </trkpt>
      <trkpt lat="43.73393" lon="7.0157">
        <ele>846</ele>
        <time>2011-07-16T15:10:22Z</time>
      </trkpt>
      <trkpt lat="43.73395" lon="7.01571">
        <ele>846</ele>
        <time>2011-07-16T15:10:23Z</time>
      </trkpt>
      <trkpt lat="43.73396" lon="7.01572">
        <ele>846</ele>
        <time>2011-07-16T15:10:24Z</time>
      </trkpt>
      <trkpt lat="43.73395" lon="7.01574">
        <ele>846</ele>
        <time>2011-07-16T15:10:34Z</time>
      </trkpt>
      <trkpt lat="43.73396" lon="7.01574">
        <ele>846</ele>
        <time>2011-07-16T15:10:35Z</time>
      </trkpt>
      <trkpt lat="43.73395" lon="7.01575">
        <ele>846</ele>
        <time>2011-07-16T15:10:36Z</time>
      </trkpt>
      <trkpt lat="43.73395" lon="7.01575">
        <ele>846</ele>
        <time>2011-07-16T15:10:37Z</time>
      </trkpt>
      <trkpt lat="43.73396" lon="7.01573">
        <ele>846</ele>
        <time>2011-07-16T15:11:05Z</time>
      </trkpt>
      <trkpt lat="43.73396" lon="7.01574">
        <ele>846</ele>
        <time>2011-07-16T15:11:06Z</time>
      </trkpt>
      <trkpt lat="43.73397" lon="7.01574">
        <ele>846</ele>
        <time>2011-07-16T15:11:07Z</time>
      </trkpt>
      <trkpt lat="43.73398" lon="7.01575">
        <ele>846</ele>
        <time>2011-07-16T15:11:08Z</time>
      </trkpt>
      <trkpt lat="43.73399" lon="7.01575">
        <ele>846</ele>
        <time>2011-07-16T15:11:09Z</time>
      </trkpt>
      <trkpt lat="43.73401" lon="7.01576">
        <ele>846</ele>
        <time>2011-07-16T15:11:10Z</time>
      </trkpt>
      <trkpt lat="43.73402" lon="7.01578">
        <ele>846</ele>
        <time>2011-07-16T15:11:11Z</time>
      </trkpt>
      <trkpt lat="43.73404" lon="7.0158">
        <ele>846</ele>
        <time>2011-07-16T15:11:12Z</time>
      </trkpt>
      <trkpt lat="43.73407" lon="7.01581">
        <ele>846</ele>
        <time>2011-07-16T15:11:13Z</time>
      </trkpt>
      <trkpt lat="43.7341" lon="7.01582">
        <ele>846</ele>
        <time>2011-07-16T15:11:14Z</time>
      </trkpt>
      <trkpt lat="43.73413" lon="7.01583">
        <ele>846</ele>
        <time>2011-07-16T15:11:15Z</time>
      </trkpt>
      <trkpt lat="43.73416" lon="7.01585">
        <ele>846</ele>
        <time>2011-07-16T15:11:16Z</time>
      </trkpt>
      <trkpt lat="43.73417" lon="7.01588">
        <ele>846</ele>
        <time>2011-07-16T15:11:17Z</time>
      </trkpt>
      <trkpt lat="43.73419" lon="7.01591">
        <ele>846</ele>
        <time>2011-07-16T15:11:18Z</time>
      </trkpt>
      <trkpt lat="43.73421" lon="7.01594">
        <ele>846</ele>
        <time>2011-07-16T15:11:19Z</time>
      </trkpt>
      <trkpt lat="43.73426" lon="7.01596">
        <ele>846</ele>
        <time>2011-07-16T15:11:20Z</time>
      </trkpt>
      <trkpt lat="43.73429" lon="7.01599">
        <ele>845</ele>
        <time>2011-07-16T15:11:21Z</time>
      </trkpt>
      <trkpt lat="43.73436" lon="7.01607">
        <ele>845</ele>
        <time>2011-07-16T15:11:23Z</time>
      </trkpt>
      <trkpt lat="43.7344" lon="7.01609">
        <ele>845</ele>
        <time>2011-07-16T15:11:24Z</time>
      </trkpt>
      <trkpt lat="43.73444" lon="7.01611">
        <ele>845</ele>
        <time>2011-07-16T15:11:25Z</time>
      </trkpt>
      <trkpt lat="43.73447" lon="7.01614">
        <ele>845</ele>
        <time>2011-07-16T15:11:26Z</time>
      </trkpt>
      <trkpt lat="43.7345" lon="7.01617">
        <ele>845</ele>
        <time>2011-07-16T15:11:27Z</time>
      </trkpt>
      <trkpt lat="43.73453" lon="7.01619">
        <ele>845</ele>
        <time>2011-07-16T15:11:28Z</time>
      </trkpt>
      <trkpt lat="43.73456" lon="7.0162">
        <ele>845</ele>
        <time>2011-07-16T15:11:29Z</time>
      </trkpt>
      <trkpt lat="43.73459" lon="7.01622">
        <ele>845</ele>
        <time>2011-07-16T15:11:30Z</time>
      </trkpt>
      <trkpt lat="43.73463" lon="7.01625">
        <ele>845</ele>
        <time>2011-07-16T15:11:31Z</time>
      </trkpt>
      <trkpt lat="43.73464" lon="7.01628">
        <ele>845</ele>
        <time>2011-07-16T15:11:32Z</time>
      </trkpt>
      <trkpt lat="43.73467" lon="7.0163">
        <ele>845</ele>
        <time>2011-07-16T15:11:33Z</time>
      </trkpt>
      <trkpt lat="43.73471" lon="7.01634">
        <ele>845</ele>
        <time>2011-07-16T15:11:34Z</time>
      </trkpt>
      <trkpt lat="43.73474" lon="7.01634">
        <ele>845</ele>
        <time>2011-07-16T15:11:35Z</time>
      </trkpt>
      <trkpt lat="43.73477" lon="7.01636">
        <ele>845</ele>
        <time>2011-07-16T15:11:36Z</time>
      </trkpt>
      <trkpt lat="43.73481" lon="7.01638">
        <ele>845</ele>
        <time>2011-07-16T15:11:37Z</time>
      </trkpt>
      <trkpt lat="43.73483" lon="7.0164">
        <ele>845</ele>
        <time>2011-07-16T15:11:38Z</time>
      </trkpt>
      <trkpt lat="43.73486" lon="7.01642">
        <ele>845</ele>
        <time>2011-07-16T15:11:39Z</time>
      </trkpt>
      <trkpt lat="43.7349" lon="7.01644">
        <ele>845</ele>
        <time>2011-07-16T15:11:40Z</time>
      </trkpt>
      <trkpt lat="43.73493" lon="7.01646">
        <ele>845</ele>
        <time>2011-07-16T15:11:41Z</time>
      </trkpt>
      <trkpt lat="43.73494" lon="7.01649">
        <ele>845</ele>
        <time>2011-07-16T15:11:42Z</time>
      </trkpt>
      <trkpt lat="43.73496" lon="7.01653">
        <ele>845</ele>
        <time>2011-07-16T15:11:43Z</time>
      </trkpt>
      <trkpt lat="43.73498" lon="7.01655">
        <ele>845</ele>
        <time>2011-07-16T15:11:44Z</time>
      </trkpt>
      <trkpt lat="43.73499" lon="7.01658">
        <ele>845</ele>
        <time>2011-07-16T15:11:45Z</time>
      </trkpt>
      <trkpt lat="43.73502" lon="7.01661">
        <ele>845</ele>
        <time>2011-07-16T15:11:46Z</time>
      </trkpt>
      <trkpt lat="43.73503" lon="7.01664">
        <ele>845</ele>
        <time>2011-07-16T15:11:47Z</time>
      </trkpt>
      <trkpt lat="43.73506" lon="7.01668">
        <ele>845</ele>
        <time>2011-07-16T15:11:48Z</time>
      </trkpt>
      <trkpt lat="43.73508" lon="7.0167">
        <ele>845</ele>
        <time>2011-07-16T15:11:49Z</time>
      </trkpt>
      <trkpt lat="43.73511" lon="7.01673">
        <ele>845</ele>
        <time>2011-07-16T15:11:50Z</time>
      </trkpt>
      <trkpt lat="43.73514" lon="7.01676">
        <ele>845</ele>
        <time>2011-07-16T15:11:51Z</time>
      </trkpt>
      <trkpt lat="43.73517" lon="7.01679">
        <ele>845</ele>
        <time>2011-07-16T15:11:52Z</time>
      </trkpt>
      <trkpt lat="43.73519" lon="7.01682">
        <ele>845</ele>
        <time>2011-07-16T15:11:53Z</time>
      </trkpt>
      <trkpt lat="43.73521" lon="7.01685">
        <ele>845</ele>
        <time>2011-07-16T15:11:54Z</time>
      </trkpt>
      <trkpt lat="43.73522" lon="7.01687">
        <ele>845</ele>
        <time>2011-07-16T15:11:55Z</time>
      </trkpt>
      <trkpt lat="43.73524" lon="7.01689">
        <ele>845</ele>
        <time>2011-07-16T15:11:56Z</time>
      </trkpt>
      <trkpt lat="43.73526" lon="7.01692">
        <ele>845</ele>
        <time>2011-07-16T15:11:57Z</time>
      </trkpt>
      <trkpt lat="43.73528" lon="7.01693">
        <ele>845</ele>
        <time>2011-07-16T15:11:58Z</time>
      </trkpt>
      <trkpt lat="43.73531" lon="7.01695">
        <ele>845</ele>
        <time>2011-07-16T15:11:59Z</time>
      </trkpt>
      <trkpt lat="43.73533" lon="7.01696">
        <ele>846</ele>
        <time>2011-07-16T15:12:00Z</time>
      </trkpt>
      <trkpt lat="43.73534" lon="7.01699">
        <ele>846</ele>
        <time>2011-07-16T15:12:01Z</time>
      </trkpt>
      <trkpt lat="43.73536" lon="7.01702">
        <ele>846</ele>
        <time>2011-07-16T15:12:02Z</time>
      </trkpt>
      <trkpt lat="43.73536" lon="7.01707">
        <ele>846</ele>
        <time>2011-07-16T15:12:03Z</time>
      </trkpt>
      <trkpt lat="43.73536" lon="7.01711">
        <ele>846</ele>
        <time>2011-07-16T15:12:04Z</time>
      </trkpt>
      <trkpt lat="43.73535" lon="7.01716">
        <ele>845</ele>
        <time>2011-07-16T15:12:05Z</time>
      </trkpt>
      <trkpt lat="43.73536" lon="7.01721">
        <ele>845</ele>
        <time>2011-07-16T15:12:06Z</time>
      </trkpt>
      <trkpt lat="43.73537" lon="7.01727">
        <ele>845</ele>
        <time>2011-07-16T15:12:07Z</time>
      </trkpt>
      <trkpt lat="43.73538" lon="7.01734">
        <ele>845</ele>
        <time>2011-07-16T15:12:08Z</time>
      </trkpt>
      <trkpt lat="43.73539" lon="7.01739">
        <ele>845</ele>
        <time>2011-07-16T15:12:09Z</time>
      </trkpt>
      <trkpt lat="43.73541" lon="7.01744">
        <ele>845</ele>
        <time>2011-07-16T15:12:10Z</time>
      </trkpt>
      <trkpt lat="43.73542" lon="7.01749">
        <ele>845</ele>
        <time>2011-07-16T15:12:11Z</time>
      </trkpt>
      <trkpt lat="43.73542" lon="7.01753">
        <ele>845</ele>
        <time>2011-07-16T15:12:12Z</time>
      </trkpt>
      <trkpt lat="43.73542" lon="7.01757">
        <ele>845</ele>
        <time>2011-07-16T15:12:13Z</time>
      </trkpt>
      <trkpt lat="43.73543" lon="7.0176">
        <ele>844</ele>
        <time>2011-07-16T15:12:14Z</time>
      </trkpt>
      <trkpt lat="43.73544" lon="7.01763">
        <ele>844</ele>
        <time>2011-07-16T15:12:15Z</time>
      </trkpt>
      <trkpt lat="43.73546" lon="7.01765">
        <ele>844</ele>
        <time>2011-07-16T15:12:16Z</time>
      </trkpt>
      <trkpt lat="43.73548" lon="7.01769">
        <ele>843</ele>
        <time>2011-07-16T15:12:17Z</time>
      </trkpt>
      <trkpt lat="43.73551" lon="7.01772">
        <ele>844</ele>
        <time>2011-07-16T15:12:18Z</time>
      </trkpt>
      <trkpt lat="43.73555" lon="7.01776">
        <ele>843</ele>
        <time>2011-07-16T15:12:19Z</time>
      </trkpt>
      <trkpt lat="43.73559" lon="7.01778">
        <ele>843</ele>
        <time>2011-07-16T15:12:20Z</time>
      </trkpt>
      <trkpt lat="43.73563" lon="7.01781">
        <ele>843</ele>
        <time>2011-07-16T15:12:21Z</time>
      </trkpt>
      <trkpt lat="43.73565" lon="7.01784">
        <ele>843</ele>
        <time>2011-07-16T15:12:22Z</time>
      </trkpt>
      <trkpt lat="43.73569" lon="7.01788">
        <ele>843</ele>
        <time>2011-07-16T15:12:23Z</time>
      </trkpt>
      <trkpt lat="43.73571" lon="7.01789">
        <ele>843</ele>
        <time>2011-07-16T15:12:24Z</time>
      </trkpt>
      <trkpt lat="43.73571" lon="7.01791">
        <ele>843</ele>
        <time>2011-07-16T15:12:25Z</time>
      </trkpt>
      <trkpt lat="43.73572" lon="7.0179">
        <ele>843</ele>
        <time>2011-07-16T15:12:33Z</time>
      </trkpt>
      <trkpt lat="43.73572" lon="7.01789">
        <ele>843</ele>
        <time>2011-07-16T15:12:40Z</time>
      </trkpt>
      <trkpt lat="43.73572" lon="7.01789">
        <ele>843</ele>
        <time>2011-07-16T15:12:41Z</time>
      </trkpt>
      <trkpt lat="43.73571" lon="7.01789">
        <ele>843</ele>
        <time>2011-07-16T15:12:42Z</time>
      </trkpt>
      <trkpt lat="43.73569" lon="7.0179">
        <ele>843</ele>
        <time>2011-07-16T15:12:43Z</time>
      </trkpt>
      <trkpt lat="43.73571" lon="7.0179">
        <ele>843</ele>
        <time>2011-07-16T15:14:37Z</time>
      </trkpt>
      <trkpt lat="43.7357" lon="7.01789">
        <ele>843</ele>
        <time>2011-07-16T15:14:38Z</time>
      </trkpt>
      <trkpt lat="43.7357" lon="7.01789">
        <ele>843</ele>
        <time>2011-07-16T15:14:59Z</time>
      </trkpt>
      <trkpt lat="43.73571" lon="7.01788">
        <ele>843</ele>
        <time>2011-07-16T15:15:00Z</time>
      </trkpt>
      <trkpt lat="43.73572" lon="7.01786">
        <ele>843</ele>
        <time>2011-07-16T15:15:01Z</time>
      </trkpt>
      <trkpt lat="43.73575" lon="7.01782">
        <ele>843</ele>
        <time>2011-07-16T15:15:03Z</time>
      </trkpt>
      <trkpt lat="43.73576" lon="7.0178">
        <ele>843</ele>
        <time>2011-07-16T15:15:04Z</time>
      </trkpt>
      <trkpt lat="43.73578" lon="7.01778">
        <ele>843</ele>
        <time>2011-07-16T15:15:05Z</time>
      </trkpt>
      <trkpt lat="43.73579" lon="7.01775">
        <ele>843</ele>
        <time>2011-07-16T15:15:06Z</time>
      </trkpt>
      <trkpt lat="43.7358" lon="7.01772">
        <ele>843</ele>
        <time>2011-07-16T15:15:07Z</time>
      </trkpt>
      <trkpt lat="43.73582" lon="7.01771">
        <ele>843</ele>
        <time>2011-07-16T15:15:08Z</time>
      </trkpt>
      <trkpt lat="43.73583" lon="7.01769">
        <ele>843</ele>
        <time>2011-07-16T15:15:09Z</time>
      </trkpt>
      <trkpt lat="43.73584" lon="7.01768">
        <ele>843</ele>
        <time>2011-07-16T15:15:10Z</time>
      </trkpt>
      <trkpt lat="43.73585" lon="7.01767">
        <ele>843</ele>
        <time>2011-07-16T15:15:11Z</time>
      </trkpt>
      <trkpt lat="43.73587" lon="7.01767">
        <ele>843</ele>
        <time>2011-07-16T15:15:12Z</time>
      </trkpt>
      <trkpt lat="43.73588" lon="7.01767">
        <ele>843</ele>
        <time>2011-07-16T15:15:13Z</time>
      </trkpt>
      <trkpt lat="43.7359" lon="7.01767">
        <ele>843</ele>
        <time>2011-07-16T15:15:14Z</time>
      </trkpt>
      <trkpt lat="43.73593" lon="7.01767">
        <ele>843</ele>
        <time>2011-07-16T15:15:15Z</time>
      </trkpt>
      <trkpt lat="43.73596" lon="7.01767">
        <ele>843</ele>
        <time>2011-07-16T15:15:16Z</time>
      </trkpt>
      <trkpt lat="43.73599" lon="7.01767">
        <ele>843</ele>
        <time>2011-07-16T15:15:17Z</time>
      </trkpt>
      <trkpt lat="43.736" lon="7.01768">
        <ele>843</ele>
        <time>2011-07-16T15:15:18Z</time>
      </trkpt>
      <trkpt lat="43.73602" lon="7.01769">
        <ele>843</ele>
        <time>2011-07-16T15:15:19Z</time>
      </trkpt>
      <trkpt lat="43.73602" lon="7.0177">
        <ele>843</ele>
        <time>2011-07-16T15:15:20Z</time>
      </trkpt>
      <trkpt lat="43.73604" lon="7.01772">
        <ele>843</ele>
        <time>2011-07-16T15:15:21Z</time>
      </trkpt>
      <trkpt lat="43.73607" lon="7.01774">
        <ele>843</ele>
        <time>2011-07-16T15:15:22Z</time>
      </trkpt>
      <trkpt lat="43.73612" lon="7.01777">
        <ele>843</ele>
        <time>2011-07-16T15:15:23Z</time>
      </trkpt>
      <trkpt lat="43.73615" lon="7.01779">
        <ele>843</ele>
        <time>2011-07-16T15:15:24Z</time>
      </trkpt>
      <trkpt lat="43.73618" lon="7.01781">
        <ele>843</ele>
        <time>2011-07-16T15:15:25Z</time>
      </trkpt>
      <trkpt lat="43.73621" lon="7.01785">
        <ele>843</ele>
        <time>2011-07-16T15:15:26Z</time>
      </trkpt>
      <trkpt lat="43.73624" lon="7.01787">
        <ele>843</ele>
        <time>2011-07-16T15:15:27Z</time>
      </trkpt>
      <trkpt lat="43.73628" lon="7.01789">
        <ele>843</ele>
        <time>2011-07-16T15:15:28Z</time>
      </trkpt>
      <trkpt lat="43.73632" lon="7.01792">
        <ele>843</ele>
        <time>2011-07-16T15:15:29Z</time>
      </trkpt>
      <trkpt lat="43.73635" lon="7.01794">
        <ele>843</ele>
        <time>2011-07-16T15:15:30Z</time>
      </trkpt>
      <trkpt lat="43.73641" lon="7.01798">
        <ele>843</ele>
        <time>2011-07-16T15:15:32Z</time>
      </trkpt>
      <trkpt lat="43.73644" lon="7.018">
        <ele>843</ele>
        <time>2011-07-16T15:15:33Z</time>
      </trkpt>
      <trkpt lat="43.73648" lon="7.01803">
        <ele>843</ele>
        <time>2011-07-16T15:15:34Z</time>
      </trkpt>
      <trkpt lat="43.73652" lon="7.01805">
        <ele>843</ele>
        <time>2011-07-16T15:15:35Z</time>
      </trkpt>
      <trkpt lat="43.73654" lon="7.01805">
        <ele>843</ele>
        <time>2011-07-16T15:15:36Z</time>
      </trkpt>
      <trkpt lat="43.73657" lon="7.01805">
        <ele>843</ele>
        <time>2011-07-16T15:15:37Z</time>
      </trkpt>
      <trkpt lat="43.7366" lon="7.01804">
        <ele>843</ele>
        <time>2011-07-16T15:15:38Z</time>
      </trkpt>
      <trkpt lat="43.73667" lon="7.01802">
        <ele>843</ele>
        <time>2011-07-16T15:15:39Z</time>
      </trkpt>
      <trkpt lat="43.73671" lon="7.01803">
        <ele>843</ele>
        <time>2011-07-16T15:15:40Z</time>
      </trkpt>
      <trkpt lat="43.73677" lon="7.01802">
        <ele>843</ele>
        <time>2011-07-16T15:15:41Z</time>
      </trkpt>
      <trkpt lat="43.73681" lon="7.018">
        <ele>842</ele>
        <time>2011-07-16T15:15:42Z</time>
      </trkpt>
      <trkpt lat="43.73685" lon="7.018">
        <ele>842</ele>
        <time>2011-07-16T15:15:43Z</time>
      </trkpt>
      <trkpt lat="43.73688" lon="7.01799">
        <ele>842</ele>
        <time>2011-07-16T15:15:44Z</time>
      </trkpt>
      <trkpt lat="43.73691" lon="7.01799">
        <ele>842</ele>
        <time>2011-07-16T15:15:45Z</time>
      </trkpt>
      <trkpt lat="43.73693" lon="7.01798">
        <ele>842</ele>
        <time>2011-07-16T15:15:46Z</time>
      </trkpt>
      <trkpt lat="43.73697" lon="7.01797">
        <ele>842</ele>
        <time>2011-07-16T15:15:47Z</time>
      </trkpt>
      <trkpt lat="43.73699" lon="7.01796">
        <ele>842</ele>
        <time>2011-07-16T15:15:48Z</time>
      </trkpt>
      <trkpt lat="43.73702" lon="7.01795">
        <ele>842</ele>
        <time>2011-07-16T15:15:49Z</time>
      </trkpt>
      <trkpt lat="43.73706" lon="7.01794">
        <ele>842</ele>
        <time>2011-07-16T15:15:50Z</time>
      </trkpt>
      <trkpt lat="43.73709" lon="7.01793">
        <ele>842</ele>
        <time>2011-07-16T15:15:51Z</time>
      </trkpt>
      <trkpt lat="43.73712" lon="7.01792">
        <ele>842</ele>
        <time>2011-07-16T15:15:52Z</time>
      </trkpt>
      <trkpt lat="43.73715" lon="7.01791">
        <ele>842</ele>
        <time>2011-07-16T15:15:53Z</time>
      </trkpt>
      <trkpt lat="43.73717" lon="7.01789">
        <ele>842</ele>
        <time>2011-07-16T15:15:54Z</time>
      </trkpt>
      <trkpt lat="43.73719" lon="7.01788">
        <ele>842</ele>
        <time>2011-07-16T15:15:55Z</time>
      </trkpt>
      <trkpt lat="43.7372" lon="7.01789">
        <ele>842</ele>
        <time>2011-07-16T15:15:56Z</time>
      </trkpt>
      <trkpt lat="43.73722" lon="7.01789">
        <ele>842</ele>
        <time>2011-07-16T15:15:57Z</time>
      </trkpt>
      <trkpt lat="43.73724" lon="7.01789">
        <ele>842</ele>
        <time>2011-07-16T15:15:58Z</time>
      </trkpt>
      <trkpt lat="43.73726" lon="7.01789">
        <ele>841</ele>
        <time>2011-07-16T15:15:59Z</time>
      </trkpt>
      <trkpt lat="43.73727" lon="7.01789">
        <ele>841</ele>
        <time>2011-07-16T15:16:00Z</time>
      </trkpt>
      <trkpt lat="43.73729" lon="7.01789">
        <ele>841</ele>
        <time>2011-07-16T15:16:01Z</time>
      </trkpt>
      <trkpt lat="43.73732" lon="7.01789">
        <ele>841</ele>
        <time>2011-07-16T15:16:02Z</time>
      </trkpt>
      <trkpt lat="43.73735" lon="7.01789">
        <ele>841</ele>
        <time>2011-07-16T15:16:03Z</time>
      </trkpt>
      <trkpt lat="43.73736" lon="7.01789">
        <ele>841</ele>
        <time>2011-07-16T15:16:04Z</time>
      </trkpt>
      <trkpt lat="43.73738" lon="7.01789">
        <ele>841</ele>
        <time>2011-07-16T15:16:05Z</time>
      </trkpt>
      <trkpt lat="43.73739" lon="7.01789">
        <ele>841</ele>
        <time>2011-07-16T15:16:06Z</time>
      </trkpt>
      <trkpt lat="43.73741" lon="7.0179">
        <ele>841</ele>
        <time>2011-07-16T15:16:07Z</time>
      </trkpt>
      <trkpt lat="43.73742" lon="7.0179">
        <ele>841</ele>
        <time>2011-07-16T15:16:08Z</time>
      </trkpt>
      <trkpt lat="43.73744" lon="7.0179">
        <ele>841</ele>
        <time>2011-07-16T15:16:09Z</time>
      </trkpt>
      <trkpt lat="43.73747" lon="7.01791">
        <ele>841</ele>
        <time>2011-07-16T15:16:11Z</time>
      </trkpt>
      <trkpt lat="43.73748" lon="7.01792">
        <ele>841</ele>
        <time>2011-07-16T15:16:12Z</time>
      </trkpt>
      <trkpt lat="43.7375" lon="7.01793">
        <ele>841</ele>
        <time>2011-07-16T15:16:13Z</time>
      </trkpt>
      <trkpt lat="43.73752" lon="7.01792">
        <ele>840</ele>
        <time>2011-07-16T15:16:14Z</time>
      </trkpt>
      <trkpt lat="43.73757" lon="7.01789">
        <ele>840</ele>
        <time>2011-07-16T15:16:15Z</time>
      </trkpt>
      <trkpt lat="43.73759" lon="7.01789">
        <ele>840</ele>
        <time>2011-07-16T15:16:16Z</time>
      </trkpt>
      <trkpt lat="43.7376" lon="7.0179">
        <ele>840</ele>
        <time>2011-07-16T15:16:17Z</time>
      </trkpt>
      <trkpt lat="43.73761" lon="7.0179">
        <ele>840</ele>
        <time>2011-07-16T15:16:18Z</time>
      </trkpt>
      <trkpt lat="43.73762" lon="7.0179">
        <ele>840</ele>
        <time>2011-07-16T15:16:19Z</time>
      </trkpt>
      <trkpt lat="43.73764" lon="7.01791">
        <ele>840</ele>
        <time>2011-07-16T15:16:20Z</time>
      </trkpt>
      <trkpt lat="43.73765" lon="7.01791">
        <ele>840</ele>
        <time>2011-07-16T15:16:21Z</time>
      </trkpt>
      <trkpt lat="43.73767" lon="7.01791">
        <ele>840</ele>
        <time>2011-07-16T15:16:22Z</time>
      </trkpt>
      <trkpt lat="43.73768" lon="7.01792">
        <ele>840</ele>
        <time>2011-07-16T15:16:23Z</time>
      </trkpt>
      <trkpt lat="43.73771" lon="7.01791">
        <ele>840</ele>
        <time>2011-07-16T15:16:24Z</time>
      </trkpt>
      <trkpt lat="43.73773" lon="7.01791">
        <ele>840</ele>
        <time>2011-07-16T15:16:25Z</time>
      </trkpt>
      <trkpt lat="43.73775" lon="7.01791">
        <ele>840</ele>
        <time>2011-07-16T15:16:26Z</time>
      </trkpt>
      <trkpt lat="43.73776" lon="7.01792">
        <ele>840</ele>
        <time>2011-07-16T15:16:27Z</time>
      </trkpt>
      <trkpt lat="43.73778" lon="7.01794">
        <ele>840</ele>
        <time>2011-07-16T15:16:28Z</time>
      </trkpt>
      <trkpt lat="43.7378" lon="7.01794">
        <ele>840</ele>
        <time>2011-07-16T15:16:29Z</time>
      </trkpt>
      <trkpt lat="43.73782" lon="7.01794">
        <ele>840</ele>
        <time>2011-07-16T15:16:30Z</time>
      </trkpt>
      <trkpt lat="43.73786" lon="7.01792">
        <ele>840</ele>
        <time>2011-07-16T15:16:31Z</time>
      </trkpt>
      <trkpt lat="43.7379" lon="7.01792">
        <ele>840</ele>
        <time>2011-07-16T15:16:32Z</time>
      </trkpt>
      <trkpt lat="43.73794" lon="7.01791">
        <ele>840</ele>
        <time>2011-07-16T15:16:33Z</time>
      </trkpt>
      <trkpt lat="43.73798" lon="7.0179">
        <ele>840</ele>
        <time>2011-07-16T15:16:34Z</time>
      </trkpt>
      <trkpt lat="43.738" lon="7.0179">
        <ele>840</ele>
        <time>2011-07-16T15:16:35Z</time>
      </trkpt>
      <trkpt lat="43.73802" lon="7.01789">
        <ele>840</ele>
        <time>2011-07-16T15:16:36Z</time>
      </trkpt>
      <trkpt lat="43.73803" lon="7.01789">
        <ele>840</ele>
        <time>2011-07-16T15:16:37Z</time>
      </trkpt>
      <trkpt lat="43.73805" lon="7.01788">
        <ele>840</ele>
        <time>2011-07-16T15:16:38Z</time>
      </trkpt>
      <trkpt lat="43.73806" lon="7.01786">
        <ele>840</ele>
        <time>2011-07-16T15:16:39Z</time>
      </trkpt>
      <trkpt lat="43.73809" lon="7.01784">
        <ele>840</ele>
        <time>2011-07-16T15:16:40Z</time>
      </trkpt>
      <trkpt lat="43.73816" lon="7.01781">
        <ele>840</ele>
        <time>2011-07-16T15:16:42Z</time>
      </trkpt>
      <trkpt lat="43.73819" lon="7.0178">
        <ele>840</ele>
        <time>2011-07-16T15:16:43Z</time>
      </trkpt>
      <trkpt lat="43.73822" lon="7.0178">
        <ele>840</ele>
        <time>2011-07-16T15:16:44Z</time>
      </trkpt>
      <trkpt lat="43.73824" lon="7.01781">
        <ele>840</ele>
        <time>2011-07-16T15:16:45Z</time>
      </trkpt>
      <trkpt lat="43.73827" lon="7.01781">
        <ele>840</ele>
        <time>2011-07-16T15:16:46Z</time>
      </trkpt>
      <trkpt lat="43.73829" lon="7.01781">
        <ele>840</ele>
        <time>2011-07-16T15:16:47Z</time>
      </trkpt>
      <trkpt lat="43.73831" lon="7.01781">
        <ele>840</ele>
        <time>2011-07-16T15:16:48Z</time>
      </trkpt>
      <trkpt lat="43.73833" lon="7.01781">
        <ele>840</ele>
        <time>2011-07-16T15:16:49Z</time>
      </trkpt>
      <trkpt lat="43.73835" lon="7.01781">
        <ele>840</ele>
        <time>2011-07-16T15:16:50Z</time>
      </trkpt>
      <trkpt lat="43.73838" lon="7.01781">
        <ele>840</ele>
        <time>2011-07-16T15:16:51Z</time>
      </trkpt>
      <trkpt lat="43.73841" lon="7.01781">
        <ele>840</ele>
        <time>2011-07-16T15:16:52Z</time>
      </trkpt>
      <trkpt lat="43.73843" lon="7.01781">
        <ele>840</ele>
        <time>2011-07-16T15:16:53Z</time>
      </trkpt>
      <trkpt lat="43.73845" lon="7.01781">
        <ele>840</ele>
        <time>2011-07-16T15:16:54Z</time>
      </trkpt>
      <trkpt lat="43.73847" lon="7.01781">
        <ele>840</ele>
        <time>2011-07-16T15:16:55Z</time>
      </trkpt>
      <trkpt lat="43.7385" lon="7.0178">
        <ele>840</ele>
        <time>2011-07-16T15:16:56Z</time>
      </trkpt>
      <trkpt lat="43.73852" lon="7.0178">
        <ele>840</ele>
        <time>2011-07-16T15:16:57Z</time>
      </trkpt>
      <trkpt lat="43.73857" lon="7.01779">
        <ele>840</ele>
        <time>2011-07-16T15:16:59Z</time>
      </trkpt>
      <trkpt lat="43.73859" lon="7.01779">
        <ele>840</ele>
        <time>2011-07-16T15:17:00Z</time>
      </trkpt>
      <trkpt lat="43.73861" lon="7.0178">
        <ele>840</ele>
        <time>2011-07-16T15:17:01Z</time>
      </trkpt>
      <trkpt lat="43.73864" lon="7.0178">
        <ele>840</ele>
        <time>2011-07-16T15:17:02Z</time>
      </trkpt>
      <trkpt lat="43.73867" lon="7.0178">
        <ele>840</ele>
        <time>2011-07-16T15:17:03Z</time>
      </trkpt>
      <trkpt lat="43.73869" lon="7.0178">
        <ele>840</ele>
        <time>2011-07-16T15:17:04Z</time>
      </trkpt>
      <trkpt lat="43.73872" lon="7.0178">
        <ele>840</ele>
        <time>2011-07-16T15:17:05Z</time>
      </trkpt>
      <trkpt lat="43.73875" lon="7.01779">
        <ele>840</ele>
        <time>2011-07-16T15:17:06Z</time>
      </trkpt>
      <trkpt lat="43.73877" lon="7.01779">
        <ele>840</ele>
        <time>2011-07-16T15:17:07Z</time>
      </trkpt>
      <trkpt lat="43.73877" lon="7.01779">
        <ele>840</ele>
        <time>2011-07-16T15:17:08Z</time>
      </trkpt>
      <trkpt lat="43.73878" lon="7.0178">
        <ele>839</ele>
        <time>2011-07-16T15:17:09Z</time>
      </trkpt>
      <trkpt lat="43.73877" lon="7.01779">
        <ele>840</ele>
        <time>2011-07-16T15:17:10Z</time>
      </trkpt>
      <trkpt lat="43.73878" lon="7.01779">
        <ele>840</ele>
        <time>2011-07-16T15:17:11Z</time>
      </trkpt>
      <trkpt lat="43.73879" lon="7.01779">
        <ele>840</ele>
        <time>2011-07-16T15:17:12Z</time>
      </trkpt>
      <trkpt lat="43.73879" lon="7.01779">
        <ele>840</ele>
        <time>2011-07-16T15:17:14Z</time>
      </trkpt>
      <trkpt lat="43.7388" lon="7.01779">
        <ele>840</ele>
        <time>2011-07-16T15:17:15Z</time>
      </trkpt>
      <trkpt lat="43.73881" lon="7.01779">
        <ele>840</ele>
        <time>2011-07-16T15:17:16Z</time>
      </trkpt>
      <trkpt lat="43.73882" lon="7.01778">
        <ele>840</ele>
        <time>2011-07-16T15:17:17Z</time>
      </trkpt>
      <trkpt lat="43.73882" lon="7.01777">
        <ele>840</ele>
        <time>2011-07-16T15:17:18Z</time>
      </trkpt>
      <trkpt lat="43.73883" lon="7.01777">
        <ele>840</ele>
        <time>2011-07-16T15:17:19Z</time>
      </trkpt>
      <trkpt lat="43.73885" lon="7.01777">
        <ele>840</ele>
        <time>2011-07-16T15:17:20Z</time>
      </trkpt>
      <trkpt lat="43.73886" lon="7.01777">
        <ele>840</ele>
        <time>2011-07-16T15:17:21Z</time>
      </trkpt>
      <trkpt lat="43.73888" lon="7.01777">
        <ele>840</ele>
        <time>2011-07-16T15:17:22Z</time>
      </trkpt>
      <trkpt lat="43.7389" lon="7.01777">
        <ele>840</ele>
        <time>2011-07-16T15:17:23Z</time>
      </trkpt>
      <trkpt lat="43.73893" lon="7.01777">
        <ele>840</ele>
        <time>2011-07-16T15:17:24Z</time>
      </trkpt>
      <trkpt lat="43.73895" lon="7.01777">
        <ele>840</ele>
        <time>2011-07-16T15:17:25Z</time>
      </trkpt>
      <trkpt lat="43.73899" lon="7.01777">
        <ele>840</ele>
        <time>2011-07-16T15:17:27Z</time>
      </trkpt>
      <trkpt lat="43.739" lon="7.01776">
        <ele>841</ele>
        <time>2011-07-16T15:17:28Z</time>
      </trkpt>
      <trkpt lat="43.73902" lon="7.01776">
        <ele>841</ele>
        <time>2011-07-16T15:17:29Z</time>
      </trkpt>
      <trkpt lat="43.73903" lon="7.01775">
        <ele>841</ele>
        <time>2011-07-16T15:17:30Z</time>
      </trkpt>
      <trkpt lat="43.73904" lon="7.01774">
        <ele>841</ele>
        <time>2011-07-16T15:17:31Z</time>
      </trkpt>
      <trkpt lat="43.73905" lon="7.01773">
        <ele>841</ele>
        <time>2011-07-16T15:17:32Z</time>
      </trkpt>
      <trkpt lat="43.73907" lon="7.01773">
        <ele>841</ele>
        <time>2011-07-16T15:17:33Z</time>
      </trkpt>
      <trkpt lat="43.73909" lon="7.01773">
        <ele>841</ele>
        <time>2011-07-16T15:17:34Z</time>
      </trkpt>
      <trkpt lat="43.7391" lon="7.01774">
        <ele>841</ele>
        <time>2011-07-16T15:17:35Z</time>
      </trkpt>
      <trkpt lat="43.73911" lon="7.01774">
        <ele>841</ele>
        <time>2011-07-16T15:17:36Z</time>
      </trkpt>
      <trkpt lat="43.73912" lon="7.01774">
        <ele>842</ele>
        <time>2011-07-16T15:17:37Z</time>
      </trkpt>
      <trkpt lat="43.73913" lon="7.01774">
        <ele>842</ele>
        <time>2011-07-16T15:17:38Z</time>
      </trkpt>
      <trkpt lat="43.73915" lon="7.01773">
        <ele>842</ele>
        <time>2011-07-16T15:17:39Z</time>
      </trkpt>
      <trkpt lat="43.73917" lon="7.01773">
        <ele>842</ele>
        <time>2011-07-16T15:17:40Z</time>
      </trkpt>
      <trkpt lat="43.73919" lon="7.01772">
        <ele>842</ele>
        <time>2011-07-16T15:17:41Z</time>
      </trkpt>
      <trkpt lat="43.73921" lon="7.01771">
        <ele>842</ele>
        <time>2011-07-16T15:17:42Z</time>
      </trkpt>
      <trkpt lat="43.73924" lon="7.0177">
        <ele>842</ele>
        <time>2011-07-16T15:17:43Z</time>
      </trkpt>
      <trkpt lat="43.73926" lon="7.01769">
        <ele>842</ele>
        <time>2011-07-16T15:17:44Z</time>
      </trkpt>
      <trkpt lat="43.73929" lon="7.01769">
        <ele>842</ele>
        <time>2011-07-16T15:17:45Z</time>
      </trkpt>
      <trkpt lat="43.73931" lon="7.01768">
        <ele>842</ele>
        <time>2011-07-16T15:17:46Z</time>
      </trkpt>
      <trkpt lat="43.73934" lon="7.01768">
        <ele>842</ele>
        <time>2011-07-16T15:17:47Z</time>
      </trkpt>
      <trkpt lat="43.73936" lon="7.01767">
        <ele>843</ele>
        <time>2011-07-16T15:17:48Z</time>
      </trkpt>
      <trkpt lat="43.73938" lon="7.01767">
        <ele>843</ele>
        <time>2011-07-16T15:17:49Z</time>
      </trkpt>
      <trkpt lat="43.73941" lon="7.01766">
        <ele>842</ele>
        <time>2011-07-16T15:17:50Z</time>
      </trkpt>
      <trkpt lat="43.73943" lon="7.01766">
        <ele>842</ele>
        <time>2011-07-16T15:17:51Z</time>
      </trkpt>
      <trkpt lat="43.73946" lon="7.01765">
        <ele>842</ele>
        <time>2011-07-16T15:17:52Z</time>
      </trkpt>
      <trkpt lat="43.73948" lon="7.01765">
        <ele>842</ele>
        <time>2011-07-16T15:17:53Z</time>
      </trkpt>
      <trkpt lat="43.73953" lon="7.01765">
        <ele>842</ele>
        <time>2011-07-16T15:17:55Z</time>
      </trkpt>
      <trkpt lat="43.73955" lon="7.01765">
        <ele>842</ele>
        <time>2011-07-16T15:17:56Z</time>
      </trkpt>
      <trkpt lat="43.73957" lon="7.01765">
        <ele>842</ele>
        <time>2011-07-16T15:17:57Z</time>
      </trkpt>
      <trkpt lat="43.73959" lon="7.01765">
        <ele>843</ele>
        <time>2011-07-16T15:17:58Z</time>
      </trkpt>
      <trkpt lat="43.7396" lon="7.01765">
        <ele>843</ele>
        <time>2011-07-16T15:17:59Z</time>
      </trkpt>
      <trkpt lat="43.73962" lon="7.01766">
        <ele>843</ele>
        <time>2011-07-16T15:18:00Z</time>
      </trkpt>
      <trkpt lat="43.73963" lon="7.01768">
        <ele>843</ele>
        <time>2011-07-16T15:18:01Z</time>
      </trkpt>
      <trkpt lat="43.73964" lon="7.01769">
        <ele>843</ele>
        <time>2011-07-16T15:18:02Z</time>
      </trkpt>
      <trkpt lat="43.73965" lon="7.0177">
        <ele>843</ele>
        <time>2011-07-16T15:18:03Z</time>
      </trkpt>
      <trkpt lat="43.73967" lon="7.0177">
        <ele>843</ele>
        <time>2011-07-16T15:18:04Z</time>
      </trkpt>
      <trkpt lat="43.73969" lon="7.01771">
        <ele>843</ele>
        <time>2011-07-16T15:18:05Z</time>
      </trkpt>
      <trkpt lat="43.73971" lon="7.01771">
        <ele>843</ele>
        <time>2011-07-16T15:18:06Z</time>
      </trkpt>
      <trkpt lat="43.73973" lon="7.01772">
        <ele>843</ele>
        <time>2011-07-16T15:18:07Z</time>
      </trkpt>
      <trkpt lat="43.73975" lon="7.01773">
        <ele>843</ele>
        <time>2011-07-16T15:18:08Z</time>
      </trkpt>
      <trkpt lat="43.73977" lon="7.01771">
        <ele>843</ele>
        <time>2011-07-16T15:18:09Z</time>
      </trkpt>
      <trkpt lat="43.73979" lon="7.01771">
        <ele>843</ele>
        <time>2011-07-16T15:18:10Z</time>
      </trkpt>
      <trkpt lat="43.73981" lon="7.01772">
        <ele>843</ele>
        <time>2011-07-16T15:18:11Z</time>
      </trkpt>
      <trkpt lat="43.73983" lon="7.01773">
        <ele>844</ele>
        <time>2011-07-16T15:18:12Z</time>
      </trkpt>
      <trkpt lat="43.73985" lon="7.01775">
        <ele>843</ele>
        <time>2011-07-16T15:18:13Z</time>
      </trkpt>
      <trkpt lat="43.73987" lon="7.01776">
        <ele>843</ele>
        <time>2011-07-16T15:18:14Z</time>
      </trkpt>
      <trkpt lat="43.73989" lon="7.01777">
        <ele>843</ele>
        <time>2011-07-16T15:18:15Z</time>
      </trkpt>
      <trkpt lat="43.73992" lon="7.01777">
        <ele>843</ele>
        <time>2011-07-16T15:18:16Z</time>
      </trkpt>
      <trkpt lat="43.73994" lon="7.01777">
        <ele>843</ele>
        <time>2011-07-16T15:18:17Z</time>
      </trkpt>
      <trkpt lat="43.73996" lon="7.01777">
        <ele>843</ele>
        <time>2011-07-16T15:18:18Z</time>
      </trkpt>
      <trkpt lat="43.73999" lon="7.01777">
        <ele>844</ele>
        <time>2011-07-16T15:18:19Z</time>
      </trkpt>
      <trkpt lat="43.74001" lon="7.01778">
        <ele>844</ele>
        <time>2011-07-16T15:18:20Z</time>
      </trkpt>
      <trkpt lat="43.74003" lon="7.01779">
        <ele>844</ele>
        <time>2011-07-16T15:18:21Z</time>
      </trkpt>
      <trkpt lat="43.74005" lon="7.0178">
        <ele>844</ele>
        <time>2011-07-16T15:18:22Z</time>
      </trkpt>
      <trkpt lat="43.74007" lon="7.0178">
        <ele>844</ele>
        <time>2011-07-16T15:18:23Z</time>
      </trkpt>
      <trkpt lat="43.74009" lon="7.01781">
        <ele>844</ele>
        <time>2011-07-16T15:18:24Z</time>
      </trkpt>
      <trkpt lat="43.74011" lon="7.01782">
        <ele>844</ele>
        <time>2011-07-16T15:18:25Z</time>
      </trkpt>
      <trkpt lat="43.74013" lon="7.01783">
        <ele>844</ele>
        <time>2011-07-16T15:18:26Z</time>
      </trkpt>
      <trkpt lat="43.74015" lon="7.01784">
        <ele>844</ele>
        <time>2011-07-16T15:18:27Z</time>
      </trkpt>
      <trkpt lat="43.74017" lon="7.01784">
        <ele>844</ele>
        <time>2011-07-16T15:18:28Z</time>
      </trkpt>
      <trkpt lat="43.74018" lon="7.01785">
        <ele>844</ele>
        <time>2011-07-16T15:18:29Z</time>
      </trkpt>
      <trkpt lat="43.7402" lon="7.01785">
        <ele>844</ele>
        <time>2011-07-16T15:18:30Z</time>
      </trkpt>
      <trkpt lat="43.74022" lon="7.01786">
        <ele>844</ele>
        <time>2011-07-16T15:18:31Z</time>
      </trkpt>
      <trkpt lat="43.74023" lon="7.01786">
        <ele>845</ele>
        <time>2011-07-16T15:18:32Z</time>
      </trkpt>
      <trkpt lat="43.74025" lon="7.01786">
        <ele>845</ele>
        <time>2011-07-16T15:18:33Z</time>
      </trkpt>
      <trkpt lat="43.74026" lon="7.01786">
        <ele>845</ele>
        <time>2011-07-16T15:18:34Z</time>
      </trkpt>
      <trkpt lat="43.74028" lon="7.01787">
        <ele>845</ele>
        <time>2011-07-16T15:18:35Z</time>
      </trkpt>
      <trkpt lat="43.74029" lon="7.01787">
        <ele>845</ele>
        <time>2011-07-16T15:18:36Z</time>
      </trkpt>
      <trkpt lat="43.74031" lon="7.01788">
        <ele>845</ele>
        <time>2011-07-16T15:18:37Z</time>
      </trkpt>
      <trkpt lat="43.74032" lon="7.01789">
        <ele>846</ele>
        <time>2011-07-16T15:18:38Z</time>
      </trkpt>
      <trkpt lat="43.74033" lon="7.01791">
        <ele>846</ele>
        <time>2011-07-16T15:18:39Z</time>
      </trkpt>
      <trkpt lat="43.74034" lon="7.01792">
        <ele>846</ele>
        <time>2011-07-16T15:18:40Z</time>
      </trkpt>
      <trkpt lat="43.74036" lon="7.01792">
        <ele>846</ele>
        <time>2011-07-16T15:18:41Z</time>
      </trkpt>
      <trkpt lat="43.74037" lon="7.01793">
        <ele>846</ele>
        <time>2011-07-16T15:18:42Z</time>
      </trkpt>
      <trkpt lat="43.74038" lon="7.01795">
        <ele>846</ele>
        <time>2011-07-16T15:18:43Z</time>
      </trkpt>
      <trkpt lat="43.74039" lon="7.01796">
        <ele>846</ele>
        <time>2011-07-16T15:18:44Z</time>
      </trkpt>
      <trkpt lat="43.74041" lon="7.01796">
        <ele>846</ele>
        <time>2011-07-16T15:18:45Z</time>
      </trkpt>
      <trkpt lat="43.74043" lon="7.01797">
        <ele>846</ele>
        <time>2011-07-16T15:18:46Z</time>
      </trkpt>
      <trkpt lat="43.74045" lon="7.01798">
        <ele>846</ele>
        <time>2011-07-16T15:18:47Z</time>
      </trkpt>
      <trkpt lat="43.74047" lon="7.01798">
        <ele>846</ele>
        <time>2011-07-16T15:18:48Z</time>
      </trkpt>
      <trkpt lat="43.74048" lon="7.01799">
        <ele>846</ele>
        <time>2011-07-16T15:18:49Z</time>
      </trkpt>
      <trkpt lat="43.7405" lon="7.018">
        <ele>846</ele>
        <time>2011-07-16T15:18:50Z</time>
      </trkpt>
      <trkpt lat="43.74052" lon="7.018">
        <ele>847</ele>
        <time>2011-07-16T15:18:51Z</time>
      </trkpt>
      <trkpt lat="43.74053" lon="7.01801">
        <ele>847</ele>
        <time>2011-07-16T15:18:52Z</time>
      </trkpt>
      <trkpt lat="43.74055" lon="7.01801">
        <ele>847</ele>
        <time>2011-07-16T15:18:53Z</time>
      </trkpt>
      <trkpt lat="43.74056" lon="7.01803">
        <ele>847</ele>
        <time>2011-07-16T15:18:54Z</time>
      </trkpt>
      <trkpt lat="43.74059" lon="7.01803">
        <ele>847</ele>
        <time>2011-07-16T15:18:55Z</time>
      </trkpt>
      <trkpt lat="43.74061" lon="7.01804">
        <ele>847</ele>
        <time>2011-07-16T15:18:56Z</time>
      </trkpt>
      <trkpt lat="43.74063" lon="7.01805">
        <ele>847</ele>
        <time>2011-07-16T15:18:57Z</time>
      </trkpt>
      <trkpt lat="43.74066" lon="7.01806">
        <ele>847</ele>
        <time>2011-07-16T15:18:58Z</time>
      </trkpt>
      <trkpt lat="43.74068" lon="7.01806">
        <ele>847</ele>
        <time>2011-07-16T15:18:59Z</time>
      </trkpt>
      <trkpt lat="43.74072" lon="7.01806">
        <ele>847</ele>
        <time>2011-07-16T15:19:00Z</time>
      </trkpt>
      <trkpt lat="43.74075" lon="7.01806">
        <ele>848</ele>
        <time>2011-07-16T15:19:01Z</time>
      </trkpt>
      <trkpt lat="43.74078" lon="7.01806">
        <ele>848</ele>
        <time>2011-07-16T15:19:02Z</time>
      </trkpt>
      <trkpt lat="43.74081" lon="7.01806">
        <ele>848</ele>
        <time>2011-07-16T15:19:03Z</time>
      </trkpt>
      <trkpt lat="43.74083" lon="7.01807">
        <ele>848</ele>
        <time>2011-07-16T15:19:04Z</time>
      </trkpt>
      <trkpt lat="43.74085" lon="7.01806">
        <ele>848</ele>
        <time>2011-07-16T15:19:05Z</time>
      </trkpt>
      <trkpt lat="43.74087" lon="7.01807">
        <ele>848</ele>
        <time>2011-07-16T15:19:06Z</time>
      </trkpt>
      <trkpt lat="43.74089" lon="7.01808">
        <ele>848</ele>
        <time>2011-07-16T15:19:07Z</time>
      </trkpt>
      <trkpt lat="43.74092" lon="7.01808">
        <ele>848</ele>
        <time>2011-07-16T15:19:08Z</time>
      </trkpt>
      <trkpt lat="43.74093" lon="7.01809">
        <ele>848</ele>
        <time>2011-07-16T15:19:09Z</time>
      </trkpt>
      <trkpt lat="43.74096" lon="7.0181">
        <ele>848</ele>
        <time>2011-07-16T15:19:10Z</time>
      </trkpt>
      <trkpt lat="43.74099" lon="7.01811">
        <ele>849</ele>
        <time>2011-07-16T15:19:11Z</time>
      </trkpt>
      <trkpt lat="43.74101" lon="7.01812">
        <ele>849</ele>
        <time>2011-07-16T15:19:12Z</time>
      </trkpt>
      <trkpt lat="43.74103" lon="7.01812">
        <ele>849</ele>
        <time>2011-07-16T15:19:13Z</time>
      </trkpt>
      <trkpt lat="43.74105" lon="7.01814">
        <ele>849</ele>
        <time>2011-07-16T15:19:14Z</time>
      </trkpt>
      <trkpt lat="43.74107" lon="7.01814">
        <ele>849</ele>
        <time>2011-07-16T15:19:15Z</time>
      </trkpt>
      <trkpt lat="43.74109" lon="7.01814">
        <ele>850</ele>
        <time>2011-07-16T15:19:16Z</time>
      </trkpt>
      <trkpt lat="43.74111" lon="7.01815">
        <ele>850</ele>
        <time>2011-07-16T15:19:17Z</time>
      </trkpt>
      <trkpt lat="43.74114" lon="7.01815">
        <ele>850</ele>
        <time>2011-07-16T15:19:18Z</time>
      </trkpt>
      <trkpt lat="43.74116" lon="7.01815">
        <ele>850</ele>
        <time>2011-07-16T15:19:19Z</time>
      </trkpt>
      <trkpt lat="43.74119" lon="7.01815">
        <ele>851</ele>
        <time>2011-07-16T15:19:20Z</time>
      </trkpt>
      <trkpt lat="43.74121" lon="7.01816">
        <ele>851</ele>
        <time>2011-07-16T15:19:21Z</time>
      </trkpt>
      <trkpt lat="43.74124" lon="7.01816">
        <ele>851</ele>
        <time>2011-07-16T15:19:22Z</time>
      </trkpt>
      <trkpt lat="43.74126" lon="7.01816">
        <ele>851</ele>
        <time>2011-07-16T15:19:23Z</time>
      </trkpt>
      <trkpt lat="43.74128" lon="7.01815">
        <ele>851</ele>
        <time>2011-07-16T15:19:24Z</time>
      </trkpt>
      <trkpt lat="43.74131" lon="7.01814">
        <ele>852</ele>
        <time>2011-07-16T15:19:25Z</time>
      </trkpt>
      <trkpt lat="43.74133" lon="7.01813">
        <ele>852</ele>
        <time>2011-07-16T15:19:26Z</time>
      </trkpt>
      <trkpt lat="43.74135" lon="7.01812">
        <ele>852</ele>
        <time>2011-07-16T15:19:27Z</time>
      </trkpt>
      <trkpt lat="43.74138" lon="7.01812">
        <ele>852</ele>
        <time>2011-07-16T15:19:28Z</time>
      </trkpt>
      <trkpt lat="43.74139" lon="7.01812">
        <ele>852</ele>
        <time>2011-07-16T15:19:29Z</time>
      </trkpt>
      <trkpt lat="43.74141" lon="7.01812">
        <ele>852</ele>
        <time>2011-07-16T15:19:30Z</time>
      </trkpt>
      <trkpt lat="43.74144" lon="7.0181">
        <ele>853</ele>
        <time>2011-07-16T15:19:31Z</time>
      </trkpt>
      <trkpt lat="43.74147" lon="7.01809">
        <ele>853</ele>
        <time>2011-07-16T15:19:32Z</time>
      </trkpt>
      <trkpt lat="43.74152" lon="7.01807">
        <ele>853</ele>
        <time>2011-07-16T15:19:34Z</time>
      </trkpt>
      <trkpt lat="43.74155" lon="7.01806">
        <ele>853</ele>
        <time>2011-07-16T15:19:35Z</time>
      </trkpt>
      <trkpt lat="43.74157" lon="7.01806">
        <ele>853</ele>
        <time>2011-07-16T15:19:36Z</time>
      </trkpt>
      <trkpt lat="43.7416" lon="7.01804">
        <ele>853</ele>
        <time>2011-07-16T15:19:37Z</time>
      </trkpt>
      <trkpt lat="43.74163" lon="7.01803">
        <ele>853</ele>
        <time>2011-07-16T15:19:38Z</time>
      </trkpt>
      <trkpt lat="43.74166" lon="7.01802">
        <ele>853</ele>
        <time>2011-07-16T15:19:39Z</time>
      </trkpt>
      <trkpt lat="43.74168" lon="7.01801">
        <ele>853</ele>
        <time>2011-07-16T15:19:40Z</time>
      </trkpt>
      <trkpt lat="43.7417" lon="7.01801">
        <ele>853</ele>
        <time>2011-07-16T15:19:41Z</time>
      </trkpt>
      <trkpt lat="43.74172" lon="7.01801">
        <ele>853</ele>
        <time>2011-07-16T15:19:42Z</time>
      </trkpt>
      <trkpt lat="43.74173" lon="7.018">
        <ele>853</ele>
        <time>2011-07-16T15:19:43Z</time>
      </trkpt>
      <trkpt lat="43.74175" lon="7.018">
        <ele>853</ele>
        <time>2011-07-16T15:19:44Z</time>
      </trkpt>
      <trkpt lat="43.74177" lon="7.01798">
        <ele>854</ele>
        <time>2011-07-16T15:19:45Z</time>
      </trkpt>
      <trkpt lat="43.74179" lon="7.01798">
        <ele>854</ele>
        <time>2011-07-16T15:19:46Z</time>
      </trkpt>
      <trkpt lat="43.74181" lon="7.01797">
        <ele>854</ele>
        <time>2011-07-16T15:19:47Z</time>
      </trkpt>
      <trkpt lat="43.74183" lon="7.01797">
        <ele>854</ele>
        <time>2011-07-16T15:19:48Z</time>
      </trkpt>
      <trkpt lat="43.74186" lon="7.01796">
        <ele>854</ele>
        <time>2011-07-16T15:19:50Z</time>
      </trkpt>
      <trkpt lat="43.7419" lon="7.01794">
        <ele>854</ele>
        <time>2011-07-16T15:19:52Z</time>
      </trkpt>
      <trkpt lat="43.74192" lon="7.01794">
        <ele>854</ele>
        <time>2011-07-16T15:19:53Z</time>
      </trkpt>
      <trkpt lat="43.74194" lon="7.01794">
        <ele>854</ele>
        <time>2011-07-16T15:19:54Z</time>
      </trkpt>
      <trkpt lat="43.74196" lon="7.01793">
        <ele>855</ele>
        <time>2011-07-16T15:19:55Z</time>
      </trkpt>
      <trkpt lat="43.74197" lon="7.01792">
        <ele>855</ele>
        <time>2011-07-16T15:19:56Z</time>
      </trkpt>
      <trkpt lat="43.74199" lon="7.01791">
        <ele>855</ele>
        <time>2011-07-16T15:19:57Z</time>
      </trkpt>
      <trkpt lat="43.742" lon="7.01791">
        <ele>855</ele>
        <time>2011-07-16T15:19:58Z</time>
      </trkpt>
      <trkpt lat="43.74202" lon="7.01791">
        <ele>855</ele>
        <time>2011-07-16T15:19:59Z</time>
      </trkpt>
      <trkpt lat="43.74203" lon="7.01791">
        <ele>855</ele>
        <time>2011-07-16T15:20:00Z</time>
      </trkpt>
      <trkpt lat="43.74205" lon="7.0179">
        <ele>855</ele>
        <time>2011-07-16T15:20:01Z</time>
      </trkpt>
      <trkpt lat="43.74207" lon="7.01789">
        <ele>856</ele>
        <time>2011-07-16T15:20:03Z</time>
      </trkpt>
      <trkpt lat="43.74209" lon="7.01789">
        <ele>856</ele>
        <time>2011-07-16T15:20:04Z</time>
      </trkpt>
      <trkpt lat="43.7421" lon="7.01789">
        <ele>856</ele>
        <time>2011-07-16T15:20:05Z</time>
      </trkpt>
      <trkpt lat="43.74211" lon="7.01789">
        <ele>857</ele>
        <time>2011-07-16T15:20:06Z</time>
      </trkpt>
      <trkpt lat="43.74212" lon="7.01789">
        <ele>858</ele>
        <time>2011-07-16T15:20:07Z</time>
      </trkpt>
      <trkpt lat="43.74213" lon="7.01789">
        <ele>859</ele>
        <time>2011-07-16T15:20:08Z</time>
      </trkpt>
      <trkpt lat="43.74215" lon="7.01788">
        <ele>858</ele>
        <time>2011-07-16T15:20:09Z</time>
      </trkpt>
      <trkpt lat="43.74216" lon="7.01787">
        <ele>859</ele>
        <time>2011-07-16T15:20:10Z</time>
      </trkpt>
      <trkpt lat="43.74217" lon="7.01787">
        <ele>859</ele>
        <time>2011-07-16T15:20:11Z</time>
      </trkpt>
      <trkpt lat="43.74219" lon="7.01786">
        <ele>859</ele>
        <time>2011-07-16T15:20:12Z</time>
      </trkpt>
      <trkpt lat="43.7422" lon="7.01786">
        <ele>859</ele>
        <time>2011-07-16T15:20:13Z</time>
      </trkpt>
      <trkpt lat="43.74221" lon="7.01786">
        <ele>859</ele>
        <time>2011-07-16T15:20:14Z</time>
      </trkpt>
      <trkpt lat="43.74223" lon="7.01785">
        <ele>860</ele>
        <time>2011-07-16T15:20:15Z</time>
      </trkpt>
      <trkpt lat="43.74224" lon="7.01785">
        <ele>860</ele>
        <time>2011-07-16T15:20:16Z</time>
      </trkpt>
      <trkpt lat="43.74225" lon="7.01784">
        <ele>860</ele>
        <time>2011-07-16T15:20:17Z</time>
      </trkpt>
      <trkpt lat="43.74227" lon="7.01784">
        <ele>860</ele>
        <time>2011-07-16T15:20:18Z</time>
      </trkpt>
      <trkpt lat="43.74228" lon="7.01783">
        <ele>860</ele>
        <time>2011-07-16T15:20:19Z</time>
      </trkpt>
      <trkpt lat="43.7423" lon="7.01783">
        <ele>860</ele>
        <time>2011-07-16T15:20:20Z</time>
      </trkpt>
      <trkpt lat="43.74232" lon="7.01782">
        <ele>860</ele>
        <time>2011-07-16T15:20:21Z</time>
      </trkpt>
      <trkpt lat="43.74233" lon="7.01781">
        <ele>861</ele>
        <time>2011-07-16T15:20:22Z</time>
      </trkpt>
      <trkpt lat="43.74235" lon="7.0178">
        <ele>861</ele>
        <time>2011-07-16T15:20:23Z</time>
      </trkpt>
      <trkpt lat="43.74236" lon="7.01779">
        <ele>861</ele>
        <time>2011-07-16T15:20:24Z</time>
      </trkpt>
      <trkpt lat="43.74237" lon="7.01779">
        <ele>861</ele>
        <time>2011-07-16T15:20:25Z</time>
      </trkpt>
      <trkpt lat="43.74238" lon="7.01778">
        <ele>861</ele>
        <time>2011-07-16T15:20:26Z</time>
      </trkpt>
      <trkpt lat="43.7424" lon="7.01778">
        <ele>862</ele>
        <time>2011-07-16T15:20:27Z</time>
      </trkpt>
      <trkpt lat="43.74241" lon="7.01778">
        <ele>862</ele>
        <time>2011-07-16T15:20:28Z</time>
      </trkpt>
      <trkpt lat="43.74242" lon="7.01777">
        <ele>863</ele>
        <time>2011-07-16T15:20:29Z</time>
      </trkpt>
      <trkpt lat="43.74243" lon="7.01777">
        <ele>863</ele>
        <time>2011-07-16T15:20:30Z</time>
      </trkpt>
      <trkpt lat="43.74245" lon="7.01777">
        <ele>863</ele>
        <time>2011-07-16T15:20:31Z</time>
      </trkpt>
      <trkpt lat="43.74246" lon="7.01777">
        <ele>863</ele>
        <time>2011-07-16T15:20:32Z</time>
      </trkpt>
      <trkpt lat="43.74248" lon="7.01776">
        <ele>863</ele>
        <time>2011-07-16T15:20:33Z</time>
      </trkpt>
      <trkpt lat="43.74249" lon="7.01776">
        <ele>863</ele>
        <time>2011-07-16T15:20:34Z</time>
      </trkpt>
      <trkpt lat="43.74251" lon="7.01776">
        <ele>863</ele>
        <time>2011-07-16T15:20:35Z</time>
      </trkpt>
      <trkpt lat="43.74252" lon="7.01776">
        <ele>863</ele>
        <time>2011-07-16T15:20:36Z</time>
      </trkpt>
      <trkpt lat="43.74254" lon="7.01776">
        <ele>864</ele>
        <time>2011-07-16T15:20:37Z</time>
      </trkpt>
      <trkpt lat="43.74256" lon="7.01776">
        <ele>864</ele>
        <time>2011-07-16T15:20:38Z</time>
      </trkpt>
      <trkpt lat="43.74258" lon="7.01776">
        <ele>864</ele>
        <time>2011-07-16T15:20:39Z</time>
      </trkpt>
      <trkpt lat="43.7426" lon="7.01776">
        <ele>864</ele>
        <time>2011-07-16T15:20:40Z</time>
      </trkpt>
      <trkpt lat="43.74262" lon="7.01774">
        <ele>864</ele>
        <time>2011-07-16T15:20:41Z</time>
      </trkpt>
      <trkpt lat="43.74263" lon="7.01774">
        <ele>865</ele>
        <time>2011-07-16T15:20:42Z</time>
      </trkpt>
      <trkpt lat="43.74264" lon="7.01774">
        <ele>865</ele>
        <time>2011-07-16T15:20:43Z</time>
      </trkpt>
      <trkpt lat="43.74266" lon="7.01773">
        <ele>865</ele>
        <time>2011-07-16T15:20:44Z</time>
      </trkpt>
      <trkpt lat="43.74271" lon="7.0177">
        <ele>865</ele>
        <time>2011-07-16T15:20:45Z</time>
      </trkpt>
      <trkpt lat="43.74274" lon="7.01768">
        <ele>865</ele>
        <time>2011-07-16T15:20:46Z</time>
      </trkpt>
      <trkpt lat="43.74278" lon="7.01767">
        <ele>866</ele>
        <time>2011-07-16T15:20:47Z</time>
      </trkpt>
      <trkpt lat="43.7428" lon="7.01767">
        <ele>866</ele>
        <time>2011-07-16T15:20:48Z</time>
      </trkpt>
      <trkpt lat="43.74283" lon="7.01765">
        <ele>866</ele>
        <time>2011-07-16T15:20:49Z</time>
      </trkpt>
      <trkpt lat="43.74285" lon="7.01763">
        <ele>866</ele>
        <time>2011-07-16T15:20:50Z</time>
      </trkpt>
      <trkpt lat="43.74287" lon="7.01762">
        <ele>866</ele>
        <time>2011-07-16T15:20:51Z</time>
      </trkpt>
      <trkpt lat="43.7429" lon="7.01761">
        <ele>866</ele>
        <time>2011-07-16T15:20:52Z</time>
      </trkpt>
      <trkpt lat="43.74293" lon="7.0176">
        <ele>867</ele>
        <time>2011-07-16T15:20:53Z</time>
      </trkpt>
      <trkpt lat="43.74295" lon="7.01759">
        <ele>867</ele>
        <time>2011-07-16T15:20:54Z</time>
      </trkpt>
      <trkpt lat="43.74297" lon="7.01757">
        <ele>867</ele>
        <time>2011-07-16T15:20:55Z</time>
      </trkpt>
      <trkpt lat="43.74299" lon="7.01755">
        <ele>867</ele>
        <time>2011-07-16T15:20:56Z</time>
      </trkpt>
      <trkpt lat="43.74301" lon="7.01755">
        <ele>867</ele>
        <time>2011-07-16T15:20:57Z</time>
      </trkpt>
      <trkpt lat="43.74304" lon="7.01754">
        <ele>867</ele>
        <time>2011-07-16T15:20:58Z</time>
      </trkpt>
      <trkpt lat="43.74306" lon="7.01754">
        <ele>867</ele>
        <time>2011-07-16T15:20:59Z</time>
      </trkpt>
      <trkpt lat="43.74309" lon="7.01753">
        <ele>867</ele>
        <time>2011-07-16T15:21:00Z</time>
      </trkpt>
      <trkpt lat="43.74312" lon="7.01752">
        <ele>867</ele>
        <time>2011-07-16T15:21:01Z</time>
      </trkpt>
      <trkpt lat="43.74315" lon="7.0175">
        <ele>867</ele>
        <time>2011-07-16T15:21:02Z</time>
      </trkpt>
      <trkpt lat="43.74318" lon="7.01748">
        <ele>867</ele>
        <time>2011-07-16T15:21:03Z</time>
      </trkpt>
      <trkpt lat="43.74321" lon="7.01747">
        <ele>868</ele>
        <time>2011-07-16T15:21:04Z</time>
      </trkpt>
      <trkpt lat="43.74325" lon="7.01746">
        <ele>868</ele>
        <time>2011-07-16T15:21:05Z</time>
      </trkpt>
      <trkpt lat="43.74328" lon="7.01745">
        <ele>868</ele>
        <time>2011-07-16T15:21:06Z</time>
      </trkpt>
      <trkpt lat="43.74332" lon="7.01744">
        <ele>868</ele>
        <time>2011-07-16T15:21:07Z</time>
      </trkpt>
      <trkpt lat="43.74336" lon="7.01742">
        <ele>868</ele>
        <time>2011-07-16T15:21:08Z</time>
      </trkpt>
      <trkpt lat="43.74339" lon="7.01741">
        <ele>868</ele>
        <time>2011-07-16T15:21:09Z</time>
      </trkpt>
      <trkpt lat="43.74341" lon="7.0174">
        <ele>868</ele>
        <time>2011-07-16T15:21:10Z</time>
      </trkpt>
      <trkpt lat="43.74344" lon="7.01738">
        <ele>868</ele>
        <time>2011-07-16T15:21:11Z</time>
      </trkpt>
      <trkpt lat="43.74346" lon="7.01736">
        <ele>868</ele>
        <time>2011-07-16T15:21:12Z</time>
      </trkpt>
      <trkpt lat="43.74347" lon="7.01734">
        <ele>868</ele>
        <time>2011-07-16T15:21:13Z</time>
      </trkpt>
      <trkpt lat="43.74348" lon="7.01731">
        <ele>868</ele>
        <time>2011-07-16T15:21:14Z</time>
      </trkpt>
      <trkpt lat="43.74349" lon="7.0173">
        <ele>868</ele>
        <time>2011-07-16T15:21:15Z</time>
      </trkpt>
      <trkpt lat="43.7435" lon="7.01728">
        <ele>868</ele>
        <time>2011-07-16T15:21:16Z</time>
      </trkpt>
      <trkpt lat="43.74352" lon="7.01727">
        <ele>869</ele>
        <time>2011-07-16T15:21:17Z</time>
      </trkpt>
      <trkpt lat="43.74353" lon="7.01725">
        <ele>869</ele>
        <time>2011-07-16T15:21:18Z</time>
      </trkpt>
      <trkpt lat="43.74356" lon="7.01724">
        <ele>869</ele>
        <time>2011-07-16T15:21:19Z</time>
      </trkpt>
      <trkpt lat="43.74357" lon="7.01722">
        <ele>870</ele>
        <time>2011-07-16T15:21:20Z</time>
      </trkpt>
      <trkpt lat="43.7436" lon="7.01721">
        <ele>870</ele>
        <time>2011-07-16T15:21:21Z</time>
      </trkpt>
      <trkpt lat="43.74361" lon="7.01718">
        <ele>870</ele>
        <time>2011-07-16T15:21:22Z</time>
      </trkpt>
      <trkpt lat="43.74363" lon="7.01716">
        <ele>870</ele>
        <time>2011-07-16T15:21:23Z</time>
      </trkpt>
      <trkpt lat="43.74364" lon="7.01715">
        <ele>871</ele>
        <time>2011-07-16T15:21:24Z</time>
      </trkpt>
      <trkpt lat="43.74366" lon="7.01714">
        <ele>871</ele>
        <time>2011-07-16T15:21:25Z</time>
      </trkpt>
      <trkpt lat="43.74367" lon="7.01712">
        <ele>871</ele>
        <time>2011-07-16T15:21:26Z</time>
      </trkpt>
      <trkpt lat="43.74369" lon="7.01711">
        <ele>871</ele>
        <time>2011-07-16T15:21:27Z</time>
      </trkpt>
      <trkpt lat="43.7437" lon="7.0171">
        <ele>871</ele>
        <time>2011-07-16T15:21:28Z</time>
      </trkpt>
      <trkpt lat="43.74371" lon="7.0171">
        <ele>872</ele>
        <time>2011-07-16T15:21:29Z</time>
      </trkpt>
      <trkpt lat="43.74372" lon="7.01709">
        <ele>872</ele>
        <time>2011-07-16T15:21:30Z</time>
      </trkpt>
      <trkpt lat="43.74374" lon="7.01707">
        <ele>872</ele>
        <time>2011-07-16T15:21:31Z</time>
      </trkpt>
      <trkpt lat="43.74375" lon="7.01706">
        <ele>873</ele>
        <time>2011-07-16T15:21:32Z</time>
      </trkpt>
      <trkpt lat="43.74374" lon="7.01706">
        <ele>873</ele>
        <time>2011-07-16T15:21:33Z</time>
      </trkpt>
      <trkpt lat="43.74375" lon="7.01706">
        <ele>873</ele>
        <time>2011-07-16T15:21:34Z</time>
      </trkpt>
      <trkpt lat="43.74378" lon="7.01703">
        <ele>874</ele>
        <time>2011-07-16T15:21:35Z</time>
      </trkpt>
      <trkpt lat="43.7438" lon="7.01702">
        <ele>874</ele>
        <time>2011-07-16T15:21:36Z</time>
      </trkpt>
      <trkpt lat="43.74382" lon="7.017">
        <ele>874</ele>
        <time>2011-07-16T15:21:37Z</time>
      </trkpt>
      <trkpt lat="43.74384" lon="7.01698">
        <ele>875</ele>
        <time>2011-07-16T15:21:38Z</time>
      </trkpt>
      <trkpt lat="43.74386" lon="7.01696">
        <ele>875</ele>
        <time>2011-07-16T15:21:39Z</time>
      </trkpt>
      <trkpt lat="43.74387" lon="7.01694">
        <ele>875</ele>
        <time>2011-07-16T15:21:40Z</time>
      </trkpt>
      <trkpt lat="43.74389" lon="7.01693">
        <ele>875</ele>
        <time>2011-07-16T15:21:41Z</time>
      </trkpt>
      <trkpt lat="43.74392" lon="7.01691">
        <ele>876</ele>
        <time>2011-07-16T15:21:42Z</time>
      </trkpt>
      <trkpt lat="43.74396" lon="7.01686">
        <ele>876</ele>
        <time>2011-07-16T15:21:44Z</time>
      </trkpt>
      <trkpt lat="43.74399" lon="7.01684">
        <ele>876</ele>
        <time>2011-07-16T15:21:45Z</time>
      </trkpt>
      <trkpt lat="43.74401" lon="7.01683">
        <ele>876</ele>
        <time>2011-07-16T15:21:46Z</time>
      </trkpt>
      <trkpt lat="43.74404" lon="7.01682">
        <ele>876</ele>
        <time>2011-07-16T15:21:47Z</time>
      </trkpt>
      <trkpt lat="43.74409" lon="7.01678">
        <ele>876</ele>
        <time>2011-07-16T15:21:49Z</time>
      </trkpt>
      <trkpt lat="43.7441" lon="7.01676">
        <ele>876</ele>
        <time>2011-07-16T15:21:50Z</time>
      </trkpt>
      <trkpt lat="43.74413" lon="7.01672">
        <ele>876</ele>
        <time>2011-07-16T15:21:51Z</time>
      </trkpt>
      <trkpt lat="43.74415" lon="7.01671">
        <ele>877</ele>
        <time>2011-07-16T15:21:52Z</time>
      </trkpt>
      <trkpt lat="43.74417" lon="7.0167">
        <ele>877</ele>
        <time>2011-07-16T15:21:53Z</time>
      </trkpt>
      <trkpt lat="43.74418" lon="7.01668">
        <ele>877</ele>
        <time>2011-07-16T15:21:54Z</time>
      </trkpt>
      <trkpt lat="43.7442" lon="7.01666">
        <ele>877</ele>
        <time>2011-07-16T15:21:55Z</time>
      </trkpt>
      <trkpt lat="43.74422" lon="7.01665">
        <ele>877</ele>
        <time>2011-07-16T15:21:56Z</time>
      </trkpt>
      <trkpt lat="43.74424" lon="7.01663">
        <ele>878</ele>
        <time>2011-07-16T15:21:57Z</time>
      </trkpt>
      <trkpt lat="43.74426" lon="7.01661">
        <ele>877</ele>
        <time>2011-07-16T15:21:58Z</time>
      </trkpt>
      <trkpt lat="43.74429" lon="7.01659">
        <ele>876</ele>
        <time>2011-07-16T15:21:59Z</time>
      </trkpt>
      <trkpt lat="43.74431" lon="7.01657">
        <ele>876</ele>
        <time>2011-07-16T15:22:00Z</time>
      </trkpt>
      <trkpt lat="43.74433" lon="7.01655">
        <ele>876</ele>
        <time>2011-07-16T15:22:01Z</time>
      </trkpt>
      <trkpt lat="43.74434" lon="7.01653">
        <ele>876</ele>
        <time>2011-07-16T15:22:02Z</time>
      </trkpt>
      <trkpt lat="43.74436" lon="7.01651">
        <ele>876</ele>
        <time>2011-07-16T15:22:03Z</time>
      </trkpt>
      <trkpt lat="43.74438" lon="7.01649">
        <ele>876</ele>
        <time>2011-07-16T15:22:04Z</time>
      </trkpt>
      <trkpt lat="43.74439" lon="7.01646">
        <ele>875</ele>
        <time>2011-07-16T15:22:05Z</time>
      </trkpt>
      <trkpt lat="43.74441" lon="7.01644">
        <ele>876</ele>
        <time>2011-07-16T15:22:06Z</time>
      </trkpt>
      <trkpt lat="43.74443" lon="7.01641">
        <ele>876</ele>
        <time>2011-07-16T15:22:07Z</time>
      </trkpt>
      <trkpt lat="43.74445" lon="7.01639">
        <ele>876</ele>
        <time>2011-07-16T15:22:08Z</time>
      </trkpt>
      <trkpt lat="43.74448" lon="7.01637">
        <ele>876</ele>
        <time>2011-07-16T15:22:09Z</time>
      </trkpt>
      <trkpt lat="43.74449" lon="7.01635">
        <ele>876</ele>
        <time>2011-07-16T15:22:10Z</time>
      </trkpt>
      <trkpt lat="43.74452" lon="7.01631">
        <ele>877</ele>
        <time>2011-07-16T15:22:11Z</time>
      </trkpt>
      <trkpt lat="43.74454" lon="7.01629">
        <ele>877</ele>
        <time>2011-07-16T15:22:12Z</time>
      </trkpt>
      <trkpt lat="43.74457" lon="7.01627">
        <ele>877</ele>
        <time>2011-07-16T15:22:13Z</time>
      </trkpt>
      <trkpt lat="43.74459" lon="7.01625">
        <ele>877</ele>
        <time>2011-07-16T15:22:14Z</time>
      </trkpt>
      <trkpt lat="43.74462" lon="7.01623">
        <ele>878</ele>
        <time>2011-07-16T15:22:15Z</time>
      </trkpt>
      <trkpt lat="43.74464" lon="7.0162">
        <ele>877</ele>
        <time>2011-07-16T15:22:16Z</time>
      </trkpt>
      <trkpt lat="43.74466" lon="7.01617">
        <ele>878</ele>
        <time>2011-07-16T15:22:17Z</time>
      </trkpt>
      <trkpt lat="43.74468" lon="7.01615">
        <ele>878</ele>
        <time>2011-07-16T15:22:18Z</time>
      </trkpt>
      <trkpt lat="43.7447" lon="7.01612">
        <ele>878</ele>
        <time>2011-07-16T15:22:19Z</time>
      </trkpt>
      <trkpt lat="43.74472" lon="7.0161">
        <ele>878</ele>
        <time>2011-07-16T15:22:20Z</time>
      </trkpt>
      <trkpt lat="43.74474" lon="7.01608">
        <ele>878</ele>
        <time>2011-07-16T15:22:21Z</time>
      </trkpt>
      <trkpt lat="43.74476" lon="7.01607">
        <ele>878</ele>
        <time>2011-07-16T15:22:22Z</time>
      </trkpt>
      <trkpt lat="43.74478" lon="7.01605">
        <ele>878</ele>
        <time>2011-07-16T15:22:23Z</time>
      </trkpt>
      <trkpt lat="43.74479" lon="7.01604">
        <ele>878</ele>
        <time>2011-07-16T15:22:24Z</time>
      </trkpt>
      <trkpt lat="43.74481" lon="7.01603">
        <ele>878</ele>
        <time>2011-07-16T15:22:25Z</time>
      </trkpt>
      <trkpt lat="43.74484" lon="7.01601">
        <ele>879</ele>
        <time>2011-07-16T15:22:27Z</time>
      </trkpt>
      <trkpt lat="43.74486" lon="7.016">
        <ele>879</ele>
        <time>2011-07-16T15:22:28Z</time>
      </trkpt>
      <trkpt lat="43.74487" lon="7.01598">
        <ele>879</ele>
        <time>2011-07-16T15:22:29Z</time>
      </trkpt>
      <trkpt lat="43.74488" lon="7.01597">
        <ele>878</ele>
        <time>2011-07-16T15:22:30Z</time>
      </trkpt>
      <trkpt lat="43.7449" lon="7.01596">
        <ele>878</ele>
        <time>2011-07-16T15:22:31Z</time>
      </trkpt>
      <trkpt lat="43.74491" lon="7.01595">
        <ele>878</ele>
        <time>2011-07-16T15:22:32Z</time>
      </trkpt>
      <trkpt lat="43.74492" lon="7.01593">
        <ele>878</ele>
        <time>2011-07-16T15:22:33Z</time>
      </trkpt>
      <trkpt lat="43.74493" lon="7.01592">
        <ele>878</ele>
        <time>2011-07-16T15:22:34Z</time>
      </trkpt>
      <trkpt lat="43.74495" lon="7.01591">
        <ele>878</ele>
        <time>2011-07-16T15:22:35Z</time>
      </trkpt>
      <trkpt lat="43.74496" lon="7.0159">
        <ele>878</ele>
        <time>2011-07-16T15:22:36Z</time>
      </trkpt>
      <trkpt lat="43.74497" lon="7.01588">
        <ele>879</ele>
        <time>2011-07-16T15:22:37Z</time>
      </trkpt>
      <trkpt lat="43.74499" lon="7.01587">
        <ele>879</ele>
        <time>2011-07-16T15:22:38Z</time>
      </trkpt>
      <trkpt lat="43.745" lon="7.01586">
        <ele>879</ele>
        <time>2011-07-16T15:22:39Z</time>
      </trkpt>
      <trkpt lat="43.74501" lon="7.01584">
        <ele>879</ele>
        <time>2011-07-16T15:22:40Z</time>
      </trkpt>
      <trkpt lat="43.74503" lon="7.01583">
        <ele>879</ele>
        <time>2011-07-16T15:22:41Z</time>
      </trkpt>
      <trkpt lat="43.74505" lon="7.01582">
        <ele>879</ele>
        <time>2011-07-16T15:22:42Z</time>
      </trkpt>
      <trkpt lat="43.74507" lon="7.0158">
        <ele>879</ele>
        <time>2011-07-16T15:22:43Z</time>
      </trkpt>
      <trkpt lat="43.74509" lon="7.01578">
        <ele>879</ele>
        <time>2011-07-16T15:22:44Z</time>
      </trkpt>
      <trkpt lat="43.74511" lon="7.01576">
        <ele>879</ele>
        <time>2011-07-16T15:22:45Z</time>
      </trkpt>
      <trkpt lat="43.74512" lon="7.01574">
        <ele>879</ele>
        <time>2011-07-16T15:22:46Z</time>
      </trkpt>
      <trkpt lat="43.74514" lon="7.01572">
        <ele>879</ele>
        <time>2011-07-16T15:22:47Z</time>
      </trkpt>
      <trkpt lat="43.74516" lon="7.0157">
        <ele>879</ele>
        <time>2011-07-16T15:22:48Z</time>
      </trkpt>
      <trkpt lat="43.74517" lon="7.01568">
        <ele>879</ele>
        <time>2011-07-16T15:22:49Z</time>
      </trkpt>
      <trkpt lat="43.74518" lon="7.01566">
        <ele>879</ele>
        <time>2011-07-16T15:22:50Z</time>
      </trkpt>
      <trkpt lat="43.7452" lon="7.01564">
        <ele>879</ele>
        <time>2011-07-16T15:22:51Z</time>
      </trkpt>
      <trkpt lat="43.74521" lon="7.01561">
        <ele>879</ele>
        <time>2011-07-16T15:22:52Z</time>
      </trkpt>
      <trkpt lat="43.74523" lon="7.01559">
        <ele>879</ele>
        <time>2011-07-16T15:22:53Z</time>
      </trkpt>
      <trkpt lat="43.74524" lon="7.0156">
        <ele>879</ele>
        <time>2011-07-16T15:22:54Z</time>
      </trkpt>
      <trkpt lat="43.74524" lon="7.01556">
        <ele>880</ele>
        <time>2011-07-16T15:22:55Z</time>
      </trkpt>
      <trkpt lat="43.74524" lon="7.01553">
        <ele>880</ele>
        <time>2011-07-16T15:22:56Z</time>
      </trkpt>
      <trkpt lat="43.74525" lon="7.0155">
        <ele>880</ele>
        <time>2011-07-16T15:22:57Z</time>
      </trkpt>
      <trkpt lat="43.74527" lon="7.01548">
        <ele>880</ele>
        <time>2011-07-16T15:22:58Z</time>
      </trkpt>
      <trkpt lat="43.74528" lon="7.01546">
        <ele>880</ele>
        <time>2011-07-16T15:22:59Z</time>
      </trkpt>
      <trkpt lat="43.74531" lon="7.01544">
        <ele>881</ele>
        <time>2011-07-16T15:23:00Z</time>
      </trkpt>
      <trkpt lat="43.74533" lon="7.01543">
        <ele>881</ele>
        <time>2011-07-16T15:23:01Z</time>
      </trkpt>
      <trkpt lat="43.74534" lon="7.01543">
        <ele>881</ele>
        <time>2011-07-16T15:23:02Z</time>
      </trkpt>
      <trkpt lat="43.74537" lon="7.01542">
        <ele>881</ele>
        <time>2011-07-16T15:23:03Z</time>
      </trkpt>
      <trkpt lat="43.74539" lon="7.0154">
        <ele>881</ele>
        <time>2011-07-16T15:23:04Z</time>
      </trkpt>
      <trkpt lat="43.74543" lon="7.01541">
        <ele>881</ele>
        <time>2011-07-16T15:23:05Z</time>
      </trkpt>
      <trkpt lat="43.74545" lon="7.0154">
        <ele>882</ele>
        <time>2011-07-16T15:23:06Z</time>
      </trkpt>
      <trkpt lat="43.74548" lon="7.01539">
        <ele>882</ele>
        <time>2011-07-16T15:23:07Z</time>
      </trkpt>
      <trkpt lat="43.74552" lon="7.01538">
        <ele>882</ele>
        <time>2011-07-16T15:23:08Z</time>
      </trkpt>
      <trkpt lat="43.74553" lon="7.01538">
        <ele>882</ele>
        <time>2011-07-16T15:23:09Z</time>
      </trkpt>
      <trkpt lat="43.74556" lon="7.01537">
        <ele>882</ele>
        <time>2011-07-16T15:23:10Z</time>
      </trkpt>
      <trkpt lat="43.74559" lon="7.01536">
        <ele>882</ele>
        <time>2011-07-16T15:23:11Z</time>
      </trkpt>
      <trkpt lat="43.74561" lon="7.01535">
        <ele>882</ele>
        <time>2011-07-16T15:23:12Z</time>
      </trkpt>
      <trkpt lat="43.74563" lon="7.01534">
        <ele>882</ele>
        <time>2011-07-16T15:23:13Z</time>
      </trkpt>
      <trkpt lat="43.74564" lon="7.01534">
        <ele>882</ele>
        <time>2011-07-16T15:23:14Z</time>
      </trkpt>
      <trkpt lat="43.74566" lon="7.01534">
        <ele>882</ele>
        <time>2011-07-16T15:23:15Z</time>
      </trkpt>
      <trkpt lat="43.74568" lon="7.01533">
        <ele>881</ele>
        <time>2011-07-16T15:23:16Z</time>
      </trkpt>
      <trkpt lat="43.74571" lon="7.01532">
        <ele>881</ele>
        <time>2011-07-16T15:23:17Z</time>
      </trkpt>
      <trkpt lat="43.74573" lon="7.01531">
        <ele>881</ele>
        <time>2011-07-16T15:23:18Z</time>
      </trkpt>
      <trkpt lat="43.74576" lon="7.01531">
        <ele>881</ele>
        <time>2011-07-16T15:23:19Z</time>
      </trkpt>
      <trkpt lat="43.74578" lon="7.0153">
        <ele>881</ele>
        <time>2011-07-16T15:23:20Z</time>
      </trkpt>
      <trkpt lat="43.7458" lon="7.01529">
        <ele>881</ele>
        <time>2011-07-16T15:23:21Z</time>
      </trkpt>
      <trkpt lat="43.74582" lon="7.01529">
        <ele>881</ele>
        <time>2011-07-16T15:23:22Z</time>
      </trkpt>
      <trkpt lat="43.74585" lon="7.01529">
        <ele>881</ele>
        <time>2011-07-16T15:23:23Z</time>
      </trkpt>
      <trkpt lat="43.74587" lon="7.01528">
        <ele>881</ele>
        <time>2011-07-16T15:23:24Z</time>
      </trkpt>
      <trkpt lat="43.74588" lon="7.01528">
        <ele>881</ele>
        <time>2011-07-16T15:23:25Z</time>
      </trkpt>
      <trkpt lat="43.7459" lon="7.01527">
        <ele>881</ele>
        <time>2011-07-16T15:23:26Z</time>
      </trkpt>
      <trkpt lat="43.74592" lon="7.01526">
        <ele>881</ele>
        <time>2011-07-16T15:23:27Z</time>
      </trkpt>
      <trkpt lat="43.74594" lon="7.01526">
        <ele>882</ele>
        <time>2011-07-16T15:23:28Z</time>
      </trkpt>
      <trkpt lat="43.74595" lon="7.01526">
        <ele>882</ele>
        <time>2011-07-16T15:23:29Z</time>
      </trkpt>
      <trkpt lat="43.74597" lon="7.01526">
        <ele>882</ele>
        <time>2011-07-16T15:23:30Z</time>
      </trkpt>
      <trkpt lat="43.74599" lon="7.01526">
        <ele>882</ele>
        <time>2011-07-16T15:23:31Z</time>
      </trkpt>
      <trkpt lat="43.74601" lon="7.01525">
        <ele>882</ele>
        <time>2011-07-16T15:23:32Z</time>
      </trkpt>
      <trkpt lat="43.74602" lon="7.01525">
        <ele>882</ele>
        <time>2011-07-16T15:23:33Z</time>
      </trkpt>
      <trkpt lat="43.74604" lon="7.01525">
        <ele>882</ele>
        <time>2011-07-16T15:23:34Z</time>
      </trkpt>
      <trkpt lat="43.74608" lon="7.01525">
        <ele>882</ele>
        <time>2011-07-16T15:23:36Z</time>
      </trkpt>
      <trkpt lat="43.7461" lon="7.01525">
        <ele>882</ele>
        <time>2011-07-16T15:23:37Z</time>
      </trkpt>
      <trkpt lat="43.74611" lon="7.01524">
        <ele>882</ele>
        <time>2011-07-16T15:23:38Z</time>
      </trkpt>
      <trkpt lat="43.74612" lon="7.01524">
        <ele>883</ele>
        <time>2011-07-16T15:23:39Z</time>
      </trkpt>
      <trkpt lat="43.74616" lon="7.01524">
        <ele>883</ele>
        <time>2011-07-16T15:23:41Z</time>
      </trkpt>
      <trkpt lat="43.74617" lon="7.01524">
        <ele>883</ele>
        <time>2011-07-16T15:23:42Z</time>
      </trkpt>
      <trkpt lat="43.74619" lon="7.01523">
        <ele>883</ele>
        <time>2011-07-16T15:23:43Z</time>
      </trkpt>
      <trkpt lat="43.74622" lon="7.01521">
        <ele>883</ele>
        <time>2011-07-16T15:23:45Z</time>
      </trkpt>
      <trkpt lat="43.74626" lon="7.0152">
        <ele>883</ele>
        <time>2011-07-16T15:23:47Z</time>
      </trkpt>
      <trkpt lat="43.74628" lon="7.01519">
        <ele>883</ele>
        <time>2011-07-16T15:23:48Z</time>
      </trkpt>
      <trkpt lat="43.7463" lon="7.01519">
        <ele>883</ele>
        <time>2011-07-16T15:23:49Z</time>
      </trkpt>
      <trkpt lat="43.74632" lon="7.01519">
        <ele>883</ele>
        <time>2011-07-16T15:23:50Z</time>
      </trkpt>
      <trkpt lat="43.74633" lon="7.01519">
        <ele>883</ele>
        <time>2011-07-16T15:23:51Z</time>
      </trkpt>
      <trkpt lat="43.74635" lon="7.01519">
        <ele>883</ele>
        <time>2011-07-16T15:23:52Z</time>
      </trkpt>
      <trkpt lat="43.74638" lon="7.01518">
        <ele>882</ele>
        <time>2011-07-16T15:23:54Z</time>
      </trkpt>
      <trkpt lat="43.7464" lon="7.01517">
        <ele>882</ele>
        <time>2011-07-16T15:23:55Z</time>
      </trkpt>
      <trkpt lat="43.74641" lon="7.01517">
        <ele>882</ele>
        <time>2011-07-16T15:23:56Z</time>
      </trkpt>
      <trkpt lat="43.74643" lon="7.01517">
        <ele>882</ele>
        <time>2011-07-16T15:23:57Z</time>
      </trkpt>
      <trkpt lat="43.74644" lon="7.01516">
        <ele>882</ele>
        <time>2011-07-16T15:23:58Z</time>
      </trkpt>
      <trkpt lat="43.74646" lon="7.01515">
        <ele>882</ele>
        <time>2011-07-16T15:23:59Z</time>
      </trkpt>
      <trkpt lat="43.74647" lon="7.01515">
        <ele>882</ele>
        <time>2011-07-16T15:24:00Z</time>
      </trkpt>
      <trkpt lat="43.74649" lon="7.01514">
        <ele>882</ele>
        <time>2011-07-16T15:24:01Z</time>
      </trkpt>
      <trkpt lat="43.7465" lon="7.01514">
        <ele>882</ele>
        <time>2011-07-16T15:24:02Z</time>
      </trkpt>
      <trkpt lat="43.74651" lon="7.01513">
        <ele>882</ele>
        <time>2011-07-16T15:24:03Z</time>
      </trkpt>
      <trkpt lat="43.74652" lon="7.01512">
        <ele>882</ele>
        <time>2011-07-16T15:24:04Z</time>
      </trkpt>
      <trkpt lat="43.74654" lon="7.01511">
        <ele>882</ele>
        <time>2011-07-16T15:24:05Z</time>
      </trkpt>
      <trkpt lat="43.74655" lon="7.01511">
        <ele>883</ele>
        <time>2011-07-16T15:24:06Z</time>
      </trkpt>
      <trkpt lat="43.74656" lon="7.0151">
        <ele>883</ele>
        <time>2011-07-16T15:24:07Z</time>
      </trkpt>
      <trkpt lat="43.74657" lon="7.01509">
        <ele>883</ele>
        <time>2011-07-16T15:24:08Z</time>
      </trkpt>
      <trkpt lat="43.74658" lon="7.01508">
        <ele>883</ele>
        <time>2011-07-16T15:24:09Z</time>
      </trkpt>
      <trkpt lat="43.74659" lon="7.01507">
        <ele>883</ele>
        <time>2011-07-16T15:24:10Z</time>
      </trkpt>
      <trkpt lat="43.74661" lon="7.01505">
        <ele>884</ele>
        <time>2011-07-16T15:24:12Z</time>
      </trkpt>
      <trkpt lat="43.74663" lon="7.01503">
        <ele>884</ele>
        <time>2011-07-16T15:24:13Z</time>
      </trkpt>
      <trkpt lat="43.74664" lon="7.01502">
        <ele>884</ele>
        <time>2011-07-16T15:24:14Z</time>
      </trkpt>
      <trkpt lat="43.74665" lon="7.01501">
        <ele>884</ele>
        <time>2011-07-16T15:24:15Z</time>
      </trkpt>
      <trkpt lat="43.74666" lon="7.01499">
        <ele>884</ele>
        <time>2011-07-16T15:24:16Z</time>
      </trkpt>
      <trkpt lat="43.74668" lon="7.01496">
        <ele>884</ele>
        <time>2011-07-16T15:24:18Z</time>
      </trkpt>
      <trkpt lat="43.7467" lon="7.01494">
        <ele>885</ele>
        <time>2011-07-16T15:24:20Z</time>
      </trkpt>
      <trkpt lat="43.74671" lon="7.01492">
        <ele>885</ele>
        <time>2011-07-16T15:24:21Z</time>
      </trkpt>
      <trkpt lat="43.74672" lon="7.0149">
        <ele>885</ele>
        <time>2011-07-16T15:24:22Z</time>
      </trkpt>
      <trkpt lat="43.74673" lon="7.01489">
        <ele>885</ele>
        <time>2011-07-16T15:24:23Z</time>
      </trkpt>
      <trkpt lat="43.74674" lon="7.01488">
        <ele>886</ele>
        <time>2011-07-16T15:24:24Z</time>
      </trkpt>
      <trkpt lat="43.74675" lon="7.01486">
        <ele>886</ele>
        <time>2011-07-16T15:24:25Z</time>
      </trkpt>
      <trkpt lat="43.74678" lon="7.01484">
        <ele>886</ele>
        <time>2011-07-16T15:24:27Z</time>
      </trkpt>
      <trkpt lat="43.74679" lon="7.01482">
        <ele>886</ele>
        <time>2011-07-16T15:24:28Z</time>
      </trkpt>
      <trkpt lat="43.7468" lon="7.01481">
        <ele>886</ele>
        <time>2011-07-16T15:24:29Z</time>
      </trkpt>
      <trkpt lat="43.74681" lon="7.0148">
        <ele>886</ele>
        <time>2011-07-16T15:24:30Z</time>
      </trkpt>
      <trkpt lat="43.74682" lon="7.01478">
        <ele>887</ele>
        <time>2011-07-16T15:24:31Z</time>
      </trkpt>
      <trkpt lat="43.74683" lon="7.01477">
        <ele>887</ele>
        <time>2011-07-16T15:24:32Z</time>
      </trkpt>
      <trkpt lat="43.74685" lon="7.01475">
        <ele>887</ele>
        <time>2011-07-16T15:24:33Z</time>
      </trkpt>
      <trkpt lat="43.74685" lon="7.01474">
        <ele>888</ele>
        <time>2011-07-16T15:24:34Z</time>
      </trkpt>
      <trkpt lat="43.74686" lon="7.01472">
        <ele>889</ele>
        <time>2011-07-16T15:24:35Z</time>
      </trkpt>
      <trkpt lat="43.74688" lon="7.0147">
        <ele>888</ele>
        <time>2011-07-16T15:24:36Z</time>
      </trkpt>
      <trkpt lat="43.74689" lon="7.01468">
        <ele>889</ele>
        <time>2011-07-16T15:24:37Z</time>
      </trkpt>
      <trkpt lat="43.7469" lon="7.01467">
        <ele>889</ele>
        <time>2011-07-16T15:24:38Z</time>
      </trkpt>
      <trkpt lat="43.74692" lon="7.01463">
        <ele>889</ele>
        <time>2011-07-16T15:24:40Z</time>
      </trkpt>
      <trkpt lat="43.74694" lon="7.01461">
        <ele>888</ele>
        <time>2011-07-16T15:24:41Z</time>
      </trkpt>
      <trkpt lat="43.74695" lon="7.01459">
        <ele>888</ele>
        <time>2011-07-16T15:24:42Z</time>
      </trkpt>
      <trkpt lat="43.74696" lon="7.01457">
        <ele>889</ele>
        <time>2011-07-16T15:24:43Z</time>
      </trkpt>
      <trkpt lat="43.74697" lon="7.01455">
        <ele>888</ele>
        <time>2011-07-16T15:24:44Z</time>
      </trkpt>
      <trkpt lat="43.74699" lon="7.01454">
        <ele>889</ele>
        <time>2011-07-16T15:24:45Z</time>
      </trkpt>
      <trkpt lat="43.74699" lon="7.01452">
        <ele>889</ele>
        <time>2011-07-16T15:24:46Z</time>
      </trkpt>
      <trkpt lat="43.747" lon="7.0145">
        <ele>889</ele>
        <time>2011-07-16T15:24:47Z</time>
      </trkpt>
      <trkpt lat="43.74701" lon="7.01448">
        <ele>889</ele>
        <time>2011-07-16T15:24:48Z</time>
      </trkpt>
      <trkpt lat="43.74702" lon="7.01446">
        <ele>890</ele>
        <time>2011-07-16T15:24:49Z</time>
      </trkpt>
      <trkpt lat="43.74702" lon="7.01445">
        <ele>890</ele>
        <time>2011-07-16T15:24:50Z</time>
      </trkpt>
      <trkpt lat="43.74703" lon="7.01443">
        <ele>890</ele>
        <time>2011-07-16T15:24:51Z</time>
      </trkpt>
      <trkpt lat="43.74704" lon="7.01441">
        <ele>890</ele>
        <time>2011-07-16T15:24:52Z</time>
      </trkpt>
      <trkpt lat="43.74705" lon="7.01439">
        <ele>890</ele>
        <time>2011-07-16T15:24:53Z</time>
      </trkpt>
      <trkpt lat="43.74706" lon="7.01437">
        <ele>891</ele>
        <time>2011-07-16T15:24:54Z</time>
      </trkpt>
      <trkpt lat="43.74707" lon="7.01436">
        <ele>891</ele>
        <time>2011-07-16T15:24:55Z</time>
      </trkpt>
      <trkpt lat="43.74708" lon="7.01434">
        <ele>891</ele>
        <time>2011-07-16T15:24:56Z</time>
      </trkpt>
      <trkpt lat="43.74709" lon="7.01432">
        <ele>891</ele>
        <time>2011-07-16T15:24:57Z</time>
      </trkpt>
      <trkpt lat="43.7471" lon="7.0143">
        <ele>891</ele>
        <time>2011-07-16T15:24:58Z</time>
      </trkpt>
      <trkpt lat="43.74711" lon="7.01428">
        <ele>891</ele>
        <time>2011-07-16T15:24:59Z</time>
      </trkpt>
      <trkpt lat="43.74712" lon="7.01426">
        <ele>891</ele>
        <time>2011-07-16T15:25:00Z</time>
      </trkpt>
      <trkpt lat="43.74713" lon="7.01424">
        <ele>891</ele>
        <time>2011-07-16T15:25:01Z</time>
      </trkpt>
      <trkpt lat="43.74714" lon="7.01422">
        <ele>891</ele>
        <time>2011-07-16T15:25:02Z</time>
      </trkpt>
      <trkpt lat="43.74715" lon="7.0142">
        <ele>891</ele>
        <time>2011-07-16T15:25:03Z</time>
      </trkpt>
      <trkpt lat="43.74716" lon="7.01418">
        <ele>891</ele>
        <time>2011-07-16T15:25:04Z</time>
      </trkpt>
      <trkpt lat="43.74717" lon="7.01415">
        <ele>890</ele>
        <time>2011-07-16T15:25:05Z</time>
      </trkpt>
      <trkpt lat="43.74717" lon="7.01414">
        <ele>891</ele>
        <time>2011-07-16T15:25:06Z</time>
      </trkpt>
      <trkpt lat="43.74718" lon="7.01412">
        <ele>890</ele>
        <time>2011-07-16T15:25:07Z</time>
      </trkpt>
      <trkpt lat="43.74718" lon="7.01411">
        <ele>889</ele>
        <time>2011-07-16T15:25:08Z</time>
      </trkpt>
      <trkpt lat="43.74719" lon="7.0141">
        <ele>888</ele>
        <time>2011-07-16T15:25:46Z</time>
      </trkpt>
      <trkpt lat="43.74719" lon="7.0141">
        <ele>888</ele>
        <time>2011-07-16T15:25:51Z</time>
      </trkpt>
      <trkpt lat="43.74721" lon="7.01408">
        <ele>888</ele>
        <time>2011-07-16T15:25:53Z</time>
      </trkpt>
      <trkpt lat="43.74723" lon="7.01407">
        <ele>888</ele>
        <time>2011-07-16T15:25:54Z</time>
      </trkpt>
      <trkpt lat="43.74726" lon="7.01404">
        <ele>888</ele>
        <time>2011-07-16T15:25:56Z</time>
      </trkpt>
      <trkpt lat="43.74728" lon="7.01403">
        <ele>888</ele>
        <time>2011-07-16T15:25:57Z</time>
      </trkpt>
      <trkpt lat="43.74729" lon="7.01402">
        <ele>888</ele>
        <time>2011-07-16T15:25:58Z</time>
      </trkpt>
      <trkpt lat="43.7473" lon="7.01401">
        <ele>888</ele>
        <time>2011-07-16T15:25:59Z</time>
      </trkpt>
      <trkpt lat="43.7473" lon="7.014">
        <ele>888</ele>
        <time>2011-07-16T15:26:00Z</time>
      </trkpt>
      <trkpt lat="43.74731" lon="7.01401">
        <ele>888</ele>
        <time>2011-07-16T15:26:02Z</time>
      </trkpt>
      <trkpt lat="43.74731" lon="7.01401">
        <ele>888</ele>
        <time>2011-07-16T15:26:03Z</time>
      </trkpt>
      <trkpt lat="43.74731" lon="7.01401">
        <ele>888</ele>
        <time>2011-07-16T15:26:04Z</time>
      </trkpt>
      <trkpt lat="43.74732" lon="7.01401">
        <ele>888</ele>
        <time>2011-07-16T15:26:43Z</time>
      </trkpt>
      <trkpt lat="43.74733" lon="7.014">
        <ele>888</ele>
        <time>2011-07-16T15:26:44Z</time>
      </trkpt>
      <trkpt lat="43.74735" lon="7.014">
        <ele>888</ele>
        <time>2011-07-16T15:26:45Z</time>
      </trkpt>
      <trkpt lat="43.74737" lon="7.014">
        <ele>888</ele>
        <time>2011-07-16T15:26:46Z</time>
      </trkpt>
      <trkpt lat="43.74738" lon="7.01401">
        <ele>888</ele>
        <time>2011-07-16T15:26:47Z</time>
      </trkpt>
      <trkpt lat="43.74741" lon="7.01402">
        <ele>888</ele>
        <time>2011-07-16T15:26:48Z</time>
      </trkpt>
      <trkpt lat="43.74743" lon="7.01403">
        <ele>888</ele>
        <time>2011-07-16T15:26:49Z</time>
      </trkpt>
      <trkpt lat="43.74745" lon="7.01404">
        <ele>888</ele>
        <time>2011-07-16T15:26:50Z</time>
      </trkpt>
      <trkpt lat="43.74747" lon="7.01406">
        <ele>888</ele>
        <time>2011-07-16T15:26:51Z</time>
      </trkpt>
      <trkpt lat="43.74749" lon="7.01408">
        <ele>888</ele>
        <time>2011-07-16T15:26:52Z</time>
      </trkpt>
      <trkpt lat="43.74751" lon="7.0141">
        <ele>888</ele>
        <time>2011-07-16T15:26:53Z</time>
      </trkpt>
      <trkpt lat="43.74752" lon="7.01412">
        <ele>888</ele>
        <time>2011-07-16T15:26:54Z</time>
      </trkpt>
      <trkpt lat="43.74754" lon="7.01414">
        <ele>888</ele>
        <time>2011-07-16T15:26:55Z</time>
      </trkpt>
      <trkpt lat="43.74756" lon="7.01416">
        <ele>888</ele>
        <time>2011-07-16T15:26:56Z</time>
      </trkpt>
      <trkpt lat="43.74759" lon="7.01419">
        <ele>888</ele>
        <time>2011-07-16T15:26:57Z</time>
      </trkpt>
      <trkpt lat="43.74761" lon="7.01421">
        <ele>889</ele>
        <time>2011-07-16T15:26:58Z</time>
      </trkpt>
      <trkpt lat="43.74763" lon="7.01424">
        <ele>889</ele>
        <time>2011-07-16T15:26:59Z</time>
      </trkpt>
      <trkpt lat="43.74765" lon="7.01426">
        <ele>889</ele>
        <time>2011-07-16T15:27:00Z</time>
      </trkpt>
      <trkpt lat="43.74767" lon="7.01428">
        <ele>889</ele>
        <time>2011-07-16T15:27:01Z</time>
      </trkpt>
      <trkpt lat="43.74769" lon="7.01431">
        <ele>889</ele>
        <time>2011-07-16T15:27:02Z</time>
      </trkpt>
      <trkpt lat="43.74771" lon="7.01434">
        <ele>889</ele>
        <time>2011-07-16T15:27:03Z</time>
      </trkpt>
      <trkpt lat="43.74773" lon="7.01436">
        <ele>889</ele>
        <time>2011-07-16T15:27:04Z</time>
      </trkpt>
      <trkpt lat="43.74775" lon="7.01439">
        <ele>889</ele>
        <time>2011-07-16T15:27:05Z</time>
      </trkpt>
      <trkpt lat="43.74777" lon="7.01441">
        <ele>889</ele>
        <time>2011-07-16T15:27:06Z</time>
      </trkpt>
      <trkpt lat="43.74779" lon="7.01443">
        <ele>889</ele>
        <time>2011-07-16T15:27:07Z</time>
      </trkpt>
      <trkpt lat="43.74783" lon="7.01447">
        <ele>889</ele>
        <time>2011-07-16T15:27:09Z</time>
      </trkpt>
      <trkpt lat="43.74785" lon="7.01449">
        <ele>890</ele>
        <time>2011-07-16T15:27:10Z</time>
      </trkpt>
      <trkpt lat="43.74787" lon="7.0145">
        <ele>890</ele>
        <time>2011-07-16T15:27:11Z</time>
      </trkpt>
      <trkpt lat="43.74788" lon="7.01452">
        <ele>890</ele>
        <time>2011-07-16T15:27:12Z</time>
      </trkpt>
      <trkpt lat="43.74789" lon="7.01453">
        <ele>890</ele>
        <time>2011-07-16T15:27:13Z</time>
      </trkpt>
      <trkpt lat="43.74791" lon="7.01454">
        <ele>890</ele>
        <time>2011-07-16T15:27:14Z</time>
      </trkpt>
      <trkpt lat="43.74791" lon="7.01455">
        <ele>890</ele>
        <time>2011-07-16T15:27:15Z</time>
      </trkpt>
      <trkpt lat="43.74791" lon="7.01456">
        <ele>890</ele>
        <time>2011-07-16T15:27:16Z</time>
      </trkpt>
      <trkpt lat="43.74793" lon="7.01457">
        <ele>890</ele>
        <time>2011-07-16T15:27:17Z</time>
      </trkpt>
      <trkpt lat="43.74796" lon="7.01458">
        <ele>890</ele>
        <time>2011-07-16T15:27:18Z</time>
      </trkpt>
      <trkpt lat="43.74798" lon="7.0146">
        <ele>890</ele>
        <time>2011-07-16T15:27:19Z</time>
      </trkpt>
      <trkpt lat="43.74801" lon="7.01461">
        <ele>890</ele>
        <time>2011-07-16T15:27:20Z</time>
      </trkpt>
      <trkpt lat="43.74803" lon="7.01464">
        <ele>890</ele>
        <time>2011-07-16T15:27:21Z</time>
      </trkpt>
      <trkpt lat="43.74805" lon="7.01466">
        <ele>890</ele>
        <time>2011-07-16T15:27:22Z</time>
      </trkpt>
      <trkpt lat="43.74808" lon="7.01469">
        <ele>889</ele>
        <time>2011-07-16T15:27:23Z</time>
      </trkpt>
      <trkpt lat="43.7481" lon="7.01472">
        <ele>889</ele>
        <time>2011-07-16T15:27:24Z</time>
      </trkpt>
      <trkpt lat="43.74812" lon="7.01476">
        <ele>889</ele>
        <time>2011-07-16T15:27:25Z</time>
      </trkpt>
      <trkpt lat="43.74814" lon="7.01479">
        <ele>889</ele>
        <time>2011-07-16T15:27:26Z</time>
      </trkpt>
      <trkpt lat="43.74815" lon="7.01481">
        <ele>889</ele>
        <time>2011-07-16T15:27:27Z</time>
      </trkpt>
      <trkpt lat="43.74817" lon="7.01483">
        <ele>889</ele>
        <time>2011-07-16T15:27:28Z</time>
      </trkpt>
      <trkpt lat="43.74819" lon="7.01486">
        <ele>889</ele>
        <time>2011-07-16T15:27:29Z</time>
      </trkpt>
      <trkpt lat="43.74821" lon="7.01489">
        <ele>888</ele>
        <time>2011-07-16T15:27:30Z</time>
      </trkpt>
      <trkpt lat="43.74823" lon="7.01492">
        <ele>888</ele>
        <time>2011-07-16T15:27:31Z</time>
      </trkpt>
      <trkpt lat="43.74826" lon="7.01495">
        <ele>888</ele>
        <time>2011-07-16T15:27:32Z</time>
      </trkpt>
      <trkpt lat="43.74828" lon="7.01498">
        <ele>888</ele>
        <time>2011-07-16T15:27:33Z</time>
      </trkpt>
      <trkpt lat="43.7483" lon="7.01501">
        <ele>888</ele>
        <time>2011-07-16T15:27:34Z</time>
      </trkpt>
      <trkpt lat="43.74832" lon="7.01504">
        <ele>888</ele>
        <time>2011-07-16T15:27:35Z</time>
      </trkpt>
      <trkpt lat="43.74834" lon="7.01506">
        <ele>888</ele>
        <time>2011-07-16T15:27:36Z</time>
      </trkpt>
      <trkpt lat="43.74836" lon="7.01508">
        <ele>889</ele>
        <time>2011-07-16T15:27:37Z</time>
      </trkpt>
      <trkpt lat="43.74837" lon="7.01511">
        <ele>889</ele>
        <time>2011-07-16T15:27:38Z</time>
      </trkpt>
      <trkpt lat="43.74838" lon="7.01513">
        <ele>889</ele>
        <time>2011-07-16T15:27:39Z</time>
      </trkpt>
      <trkpt lat="43.7484" lon="7.01515">
        <ele>889</ele>
        <time>2011-07-16T15:27:40Z</time>
      </trkpt>
      <trkpt lat="43.74841" lon="7.01517">
        <ele>889</ele>
        <time>2011-07-16T15:27:41Z</time>
      </trkpt>
      <trkpt lat="43.74842" lon="7.01519">
        <ele>890</ele>
        <time>2011-07-16T15:27:42Z</time>
      </trkpt>
      <trkpt lat="43.74843" lon="7.01521">
        <ele>890</ele>
        <time>2011-07-16T15:27:43Z</time>
      </trkpt>
      <trkpt lat="43.74844" lon="7.01523">
        <ele>890</ele>
        <time>2011-07-16T15:27:44Z</time>
      </trkpt>
      <trkpt lat="43.74845" lon="7.01525">
        <ele>890</ele>
        <time>2011-07-16T15:27:45Z</time>
      </trkpt>
      <trkpt lat="43.74847" lon="7.01527">
        <ele>890</ele>
        <time>2011-07-16T15:27:46Z</time>
      </trkpt>
      <trkpt lat="43.74848" lon="7.01529">
        <ele>890</ele>
        <time>2011-07-16T15:27:47Z</time>
      </trkpt>
      <trkpt lat="43.74849" lon="7.01531">
        <ele>890</ele>
        <time>2011-07-16T15:27:48Z</time>
      </trkpt>
      <trkpt lat="43.74849" lon="7.01533">
        <ele>891</ele>
        <time>2011-07-16T15:27:49Z</time>
      </trkpt>
      <trkpt lat="43.7485" lon="7.01535">
        <ele>891</ele>
        <time>2011-07-16T15:27:50Z</time>
      </trkpt>
      <trkpt lat="43.74851" lon="7.01536">
        <ele>892</ele>
        <time>2011-07-16T15:27:51Z</time>
      </trkpt>
      <trkpt lat="43.74853" lon="7.01537">
        <ele>892</ele>
        <time>2011-07-16T15:27:52Z</time>
      </trkpt>
      <trkpt lat="43.74853" lon="7.01539">
        <ele>892</ele>
        <time>2011-07-16T15:27:53Z</time>
      </trkpt>
      <trkpt lat="43.74855" lon="7.01541">
        <ele>892</ele>
        <time>2011-07-16T15:27:54Z</time>
      </trkpt>
      <trkpt lat="43.74856" lon="7.01542">
        <ele>893</ele>
        <time>2011-07-16T15:27:55Z</time>
      </trkpt>
      <trkpt lat="43.74858" lon="7.01543">
        <ele>893</ele>
        <time>2011-07-16T15:27:56Z</time>
      </trkpt>
      <trkpt lat="43.74859" lon="7.01544">
        <ele>893</ele>
        <time>2011-07-16T15:27:57Z</time>
      </trkpt>
      <trkpt lat="43.7486" lon="7.01545">
        <ele>893</ele>
        <time>2011-07-16T15:27:58Z</time>
      </trkpt>
      <trkpt lat="43.74862" lon="7.01547">
        <ele>893</ele>
        <time>2011-07-16T15:27:59Z</time>
      </trkpt>
      <trkpt lat="43.74863" lon="7.01548">
        <ele>893</ele>
        <time>2011-07-16T15:28:00Z</time>
      </trkpt>
      <trkpt lat="43.74865" lon="7.01548">
        <ele>893</ele>
        <time>2011-07-16T15:28:01Z</time>
      </trkpt>
      <trkpt lat="43.74866" lon="7.01549">
        <ele>893</ele>
        <time>2011-07-16T15:28:02Z</time>
      </trkpt>
      <trkpt lat="43.74867" lon="7.0155">
        <ele>893</ele>
        <time>2011-07-16T15:28:03Z</time>
      </trkpt>
      <trkpt lat="43.74868" lon="7.01551">
        <ele>893</ele>
        <time>2011-07-16T15:28:04Z</time>
      </trkpt>
      <trkpt lat="43.7487" lon="7.01551">
        <ele>893</ele>
        <time>2011-07-16T15:28:05Z</time>
      </trkpt>
      <trkpt lat="43.74871" lon="7.01552">
        <ele>894</ele>
        <time>2011-07-16T15:28:06Z</time>
      </trkpt>
      <trkpt lat="43.74874" lon="7.01554">
        <ele>894</ele>
        <time>2011-07-16T15:28:08Z</time>
      </trkpt>
      <trkpt lat="43.74875" lon="7.01556">
        <ele>894</ele>
        <time>2011-07-16T15:28:09Z</time>
      </trkpt>
      <trkpt lat="43.74876" lon="7.01557">
        <ele>894</ele>
        <time>2011-07-16T15:28:10Z</time>
      </trkpt>
      <trkpt lat="43.74877" lon="7.01558">
        <ele>895</ele>
        <time>2011-07-16T15:28:11Z</time>
      </trkpt>
      <trkpt lat="43.74878" lon="7.01559">
        <ele>895</ele>
        <time>2011-07-16T15:28:12Z</time>
      </trkpt>
      <trkpt lat="43.7488" lon="7.01561">
        <ele>895</ele>
        <time>2011-07-16T15:28:13Z</time>
      </trkpt>
      <trkpt lat="43.74881" lon="7.01562">
        <ele>895</ele>
        <time>2011-07-16T15:28:14Z</time>
      </trkpt>
      <trkpt lat="43.74882" lon="7.01564">
        <ele>895</ele>
        <time>2011-07-16T15:28:15Z</time>
      </trkpt>
      <trkpt lat="43.74883" lon="7.01565">
        <ele>895</ele>
        <time>2011-07-16T15:28:16Z</time>
      </trkpt>
      <trkpt lat="43.74884" lon="7.01566">
        <ele>895</ele>
        <time>2011-07-16T15:28:17Z</time>
      </trkpt>
      <trkpt lat="43.74886" lon="7.01566">
        <ele>895</ele>
        <time>2011-07-16T15:28:18Z</time>
      </trkpt>
      <trkpt lat="43.74888" lon="7.01567">
        <ele>895</ele>
        <time>2011-07-16T15:28:19Z</time>
      </trkpt>
      <trkpt lat="43.74889" lon="7.01568">
        <ele>895</ele>
        <time>2011-07-16T15:28:20Z</time>
      </trkpt>
      <trkpt lat="43.74891" lon="7.01568">
        <ele>895</ele>
        <time>2011-07-16T15:28:21Z</time>
      </trkpt>
      <trkpt lat="43.74892" lon="7.01569">
        <ele>895</ele>
        <time>2011-07-16T15:28:22Z</time>
      </trkpt>
      <trkpt lat="43.74894" lon="7.0157">
        <ele>895</ele>
        <time>2011-07-16T15:28:23Z</time>
      </trkpt>
      <trkpt lat="43.74895" lon="7.0157">
        <ele>895</ele>
        <time>2011-07-16T15:28:24Z</time>
      </trkpt>
      <trkpt lat="43.74896" lon="7.01571">
        <ele>896</ele>
        <time>2011-07-16T15:28:25Z</time>
      </trkpt>
      <trkpt lat="43.74898" lon="7.01572">
        <ele>896</ele>
        <time>2011-07-16T15:28:26Z</time>
      </trkpt>
      <trkpt lat="43.74899" lon="7.01573">
        <ele>896</ele>
        <time>2011-07-16T15:28:27Z</time>
      </trkpt>
      <trkpt lat="43.74901" lon="7.01574">
        <ele>896</ele>
        <time>2011-07-16T15:28:28Z</time>
      </trkpt>
      <trkpt lat="43.74902" lon="7.01574">
        <ele>896</ele>
        <time>2011-07-16T15:28:29Z</time>
      </trkpt>
      <trkpt lat="43.74904" lon="7.01575">
        <ele>896</ele>
        <time>2011-07-16T15:28:30Z</time>
      </trkpt>
      <trkpt lat="43.74905" lon="7.01576">
        <ele>896</ele>
        <time>2011-07-16T15:28:31Z</time>
      </trkpt>
      <trkpt lat="43.74907" lon="7.01577">
        <ele>896</ele>
        <time>2011-07-16T15:28:32Z</time>
      </trkpt>
      <trkpt lat="43.74909" lon="7.01578">
        <ele>896</ele>
        <time>2011-07-16T15:28:33Z</time>
      </trkpt>
      <trkpt lat="43.7491" lon="7.01579">
        <ele>896</ele>
        <time>2011-07-16T15:28:34Z</time>
      </trkpt>
      <trkpt lat="43.74913" lon="7.01579">
        <ele>896</ele>
        <time>2011-07-16T15:28:35Z</time>
      </trkpt>
      <trkpt lat="43.74915" lon="7.01579">
        <ele>896</ele>
        <time>2011-07-16T15:28:36Z</time>
      </trkpt>
      <trkpt lat="43.74916" lon="7.01579">
        <ele>896</ele>
        <time>2011-07-16T15:28:37Z</time>
      </trkpt>
      <trkpt lat="43.74917" lon="7.0158">
        <ele>897</ele>
        <time>2011-07-16T15:28:38Z</time>
      </trkpt>
      <trkpt lat="43.74918" lon="7.0158">
        <ele>897</ele>
        <time>2011-07-16T15:28:39Z</time>
      </trkpt>
      <trkpt lat="43.74919" lon="7.01581">
        <ele>897</ele>
        <time>2011-07-16T15:28:40Z</time>
      </trkpt>
      <trkpt lat="43.7492" lon="7.01581">
        <ele>898</ele>
        <time>2011-07-16T15:28:41Z</time>
      </trkpt>
      <trkpt lat="43.74921" lon="7.01582">
        <ele>898</ele>
        <time>2011-07-16T15:28:42Z</time>
      </trkpt>
      <trkpt lat="43.74922" lon="7.01582">
        <ele>898</ele>
        <time>2011-07-16T15:28:43Z</time>
      </trkpt>
      <trkpt lat="43.74923" lon="7.01583">
        <ele>899</ele>
        <time>2011-07-16T15:28:44Z</time>
      </trkpt>
      <trkpt lat="43.74924" lon="7.01584">
        <ele>899</ele>
        <time>2011-07-16T15:28:45Z</time>
      </trkpt>
      <trkpt lat="43.74926" lon="7.01585">
        <ele>899</ele>
        <time>2011-07-16T15:28:46Z</time>
      </trkpt>
      <trkpt lat="43.74928" lon="7.01585">
        <ele>899</ele>
        <time>2011-07-16T15:28:47Z</time>
      </trkpt>
      <trkpt lat="43.74929" lon="7.01585">
        <ele>899</ele>
        <time>2011-07-16T15:28:48Z</time>
      </trkpt>
      <trkpt lat="43.7493" lon="7.01586">
        <ele>900</ele>
        <time>2011-07-16T15:28:49Z</time>
      </trkpt>
      <trkpt lat="43.74931" lon="7.01586">
        <ele>900</ele>
        <time>2011-07-16T15:28:50Z</time>
      </trkpt>
      <trkpt lat="43.74933" lon="7.01587">
        <ele>900</ele>
        <time>2011-07-16T15:28:52Z</time>
      </trkpt>
      <trkpt lat="43.74934" lon="7.01588">
        <ele>900</ele>
        <time>2011-07-16T15:28:53Z</time>
      </trkpt>
      <trkpt lat="43.74935" lon="7.01589">
        <ele>901</ele>
        <time>2011-07-16T15:28:54Z</time>
      </trkpt>
      <trkpt lat="43.74936" lon="7.0159">
        <ele>901</ele>
        <time>2011-07-16T15:28:55Z</time>
      </trkpt>
      <trkpt lat="43.74937" lon="7.01591">
        <ele>901</ele>
        <time>2011-07-16T15:28:56Z</time>
      </trkpt>
      <trkpt lat="43.74937" lon="7.01591">
        <ele>901</ele>
        <time>2011-07-16T15:28:58Z</time>
      </trkpt>
      <trkpt lat="43.74937" lon="7.0159">
        <ele>901</ele>
        <time>2011-07-16T15:29:00Z</time>
      </trkpt>
      <trkpt lat="43.74937" lon="7.0159">
        <ele>901</ele>
        <time>2011-07-16T15:29:01Z</time>
      </trkpt>
      <trkpt lat="43.74938" lon="7.01591">
        <ele>901</ele>
        <time>2011-07-16T15:29:03Z</time>
      </trkpt>
      <trkpt lat="43.74939" lon="7.01591">
        <ele>901</ele>
        <time>2011-07-16T15:29:04Z</time>
      </trkpt>
      <trkpt lat="43.74939" lon="7.01591">
        <ele>901</ele>
        <time>2011-07-16T15:29:05Z</time>
      </trkpt>
      <trkpt lat="43.74939" lon="7.01591">
        <ele>901</ele>
        <time>2011-07-16T15:29:06Z</time>
      </trkpt>
      <trkpt lat="43.74939" lon="7.01592">
        <ele>902</ele>
        <time>2011-07-16T15:29:07Z</time>
      </trkpt>
      <trkpt lat="43.74939" lon="7.01592">
        <ele>902</ele>
        <time>2011-07-16T15:29:08Z</time>
      </trkpt>
      <trkpt lat="43.74939" lon="7.01593">
        <ele>902</ele>
        <time>2011-07-16T15:29:09Z</time>
      </trkpt>
      <trkpt lat="43.7494" lon="7.01593">
        <ele>902</ele>
        <time>2011-07-16T15:29:10Z</time>
      </trkpt>
      <trkpt lat="43.7494" lon="7.01593">
        <ele>902</ele>
        <time>2011-07-16T15:29:11Z</time>
      </trkpt>
      <trkpt lat="43.74941" lon="7.01593">
        <ele>902</ele>
        <time>2011-07-16T15:29:12Z</time>
      </trkpt>
      <trkpt lat="43.74942" lon="7.01593">
        <ele>902</ele>
        <time>2011-07-16T15:29:13Z</time>
      </trkpt>
      <trkpt lat="43.74942" lon="7.01593">
        <ele>902</ele>
        <time>2011-07-16T15:29:14Z</time>
      </trkpt>
      <trkpt lat="43.74943" lon="7.01593">
        <ele>902</ele>
        <time>2011-07-16T15:29:18Z</time>
      </trkpt>
      <trkpt lat="43.74943" lon="7.01594">
        <ele>903</ele>
        <time>2011-07-16T15:29:20Z</time>
      </trkpt>
      <trkpt lat="43.74944" lon="7.01594">
        <ele>903</ele>
        <time>2011-07-16T15:29:21Z</time>
      </trkpt>
      <trkpt lat="43.74945" lon="7.01594">
        <ele>903</ele>
        <time>2011-07-16T15:29:22Z</time>
      </trkpt>
      <trkpt lat="43.74946" lon="7.01594">
        <ele>903</ele>
        <time>2011-07-16T15:29:23Z</time>
      </trkpt>
      <trkpt lat="43.74947" lon="7.01595">
        <ele>903</ele>
        <time>2011-07-16T15:29:24Z</time>
      </trkpt>
      <trkpt lat="43.74948" lon="7.01596">
        <ele>903</ele>
        <time>2011-07-16T15:29:26Z</time>
      </trkpt>
      <trkpt lat="43.74949" lon="7.01596">
        <ele>903</ele>
        <time>2011-07-16T15:29:27Z</time>
      </trkpt>
      <trkpt lat="43.74949" lon="7.01596">
        <ele>903</ele>
        <time>2011-07-16T15:29:28Z</time>
      </trkpt>
      <trkpt lat="43.7495" lon="7.01596">
        <ele>903</ele>
        <time>2011-07-16T15:29:29Z</time>
      </trkpt>
      <trkpt lat="43.74951" lon="7.01597">
        <ele>904</ele>
        <time>2011-07-16T15:29:30Z</time>
      </trkpt>
      <trkpt lat="43.74951" lon="7.01597">
        <ele>904</ele>
        <time>2011-07-16T15:29:31Z</time>
      </trkpt>
      <trkpt lat="43.74953" lon="7.01598">
        <ele>904</ele>
        <time>2011-07-16T15:29:33Z</time>
      </trkpt>
      <trkpt lat="43.74954" lon="7.01599">
        <ele>904</ele>
        <time>2011-07-16T15:29:35Z</time>
      </trkpt>
      <trkpt lat="43.74955" lon="7.01599">
        <ele>904</ele>
        <time>2011-07-16T15:29:36Z</time>
      </trkpt>
      <trkpt lat="43.74956" lon="7.01599">
        <ele>904</ele>
        <time>2011-07-16T15:29:37Z</time>
      </trkpt>
      <trkpt lat="43.74957" lon="7.016">
        <ele>904</ele>
        <time>2011-07-16T15:29:38Z</time>
      </trkpt>
      <trkpt lat="43.74957" lon="7.016">
        <ele>905</ele>
        <time>2011-07-16T15:29:39Z</time>
      </trkpt>
      <trkpt lat="43.74958" lon="7.01601">
        <ele>905</ele>
        <time>2011-07-16T15:29:40Z</time>
      </trkpt>
      <trkpt lat="43.74958" lon="7.01602">
        <ele>905</ele>
        <time>2011-07-16T15:29:41Z</time>
      </trkpt>
      <trkpt lat="43.74959" lon="7.01602">
        <ele>905</ele>
        <time>2011-07-16T15:29:42Z</time>
      </trkpt>
      <trkpt lat="43.74959" lon="7.01602">
        <ele>905</ele>
        <time>2011-07-16T15:29:43Z</time>
      </trkpt>
      <trkpt lat="43.7496" lon="7.01603">
        <ele>906</ele>
        <time>2011-07-16T15:29:44Z</time>
      </trkpt>
      <trkpt lat="43.74961" lon="7.01603">
        <ele>906</ele>
        <time>2011-07-16T15:29:45Z</time>
      </trkpt>
      <trkpt lat="43.74962" lon="7.01603">
        <ele>906</ele>
        <time>2011-07-16T15:29:47Z</time>
      </trkpt>
      <trkpt lat="43.74963" lon="7.01603">
        <ele>906</ele>
        <time>2011-07-16T15:29:48Z</time>
      </trkpt>
      <trkpt lat="43.74964" lon="7.01604">
        <ele>906</ele>
        <time>2011-07-16T15:29:49Z</time>
      </trkpt>
      <trkpt lat="43.74964" lon="7.01604">
        <ele>906</ele>
        <time>2011-07-16T15:29:50Z</time>
      </trkpt>
      <trkpt lat="43.74965" lon="7.01604">
        <ele>906</ele>
        <time>2011-07-16T15:29:51Z</time>
      </trkpt>
      <trkpt lat="43.74965" lon="7.01605">
        <ele>906</ele>
        <time>2011-07-16T15:29:52Z</time>
      </trkpt>
      <trkpt lat="43.74967" lon="7.01605">
        <ele>906</ele>
        <time>2011-07-16T15:29:54Z</time>
      </trkpt>
      <trkpt lat="43.74968" lon="7.01605">
        <ele>906</ele>
        <time>2011-07-16T15:29:55Z</time>
      </trkpt>
      <trkpt lat="43.74968" lon="7.01605">
        <ele>906</ele>
        <time>2011-07-16T15:29:56Z</time>
      </trkpt>
      <trkpt lat="43.74969" lon="7.01606">
        <ele>906</ele>
        <time>2011-07-16T15:29:57Z</time>
      </trkpt>
      <trkpt lat="43.74971" lon="7.01606">
        <ele>906</ele>
        <time>2011-07-16T15:29:59Z</time>
      </trkpt>
      <trkpt lat="43.74972" lon="7.01606">
        <ele>906</ele>
        <time>2011-07-16T15:30:01Z</time>
      </trkpt>
      <trkpt lat="43.74972" lon="7.01607">
        <ele>906</ele>
        <time>2011-07-16T15:30:02Z</time>
      </trkpt>
      <trkpt lat="43.74973" lon="7.01607">
        <ele>906</ele>
        <time>2011-07-16T15:30:03Z</time>
      </trkpt>
      <trkpt lat="43.74975" lon="7.01607">
        <ele>906</ele>
        <time>2011-07-16T15:30:05Z</time>
      </trkpt>
      <trkpt lat="43.74975" lon="7.01607">
        <ele>906</ele>
        <time>2011-07-16T15:30:06Z</time>
      </trkpt>
      <trkpt lat="43.74976" lon="7.01607">
        <ele>907</ele>
        <time>2011-07-16T15:30:07Z</time>
      </trkpt>
      <trkpt lat="43.74977" lon="7.01607">
        <ele>907</ele>
        <time>2011-07-16T15:30:08Z</time>
      </trkpt>
      <trkpt lat="43.74977" lon="7.01607">
        <ele>907</ele>
        <time>2011-07-16T15:30:09Z</time>
      </trkpt>
      <trkpt lat="43.74978" lon="7.01607">
        <ele>907</ele>
        <time>2011-07-16T15:30:10Z</time>
      </trkpt>
      <trkpt lat="43.74979" lon="7.01608">
        <ele>907</ele>
        <time>2011-07-16T15:30:11Z</time>
      </trkpt>
      <trkpt lat="43.74979" lon="7.01607">
        <ele>908</ele>
        <time>2011-07-16T15:30:12Z</time>
      </trkpt>
      <trkpt lat="43.7498" lon="7.01607">
        <ele>908</ele>
        <time>2011-07-16T15:30:13Z</time>
      </trkpt>
      <trkpt lat="43.74981" lon="7.01607">
        <ele>908</ele>
        <time>2011-07-16T15:30:14Z</time>
      </trkpt>
      <trkpt lat="43.74981" lon="7.01607">
        <ele>908</ele>
        <time>2011-07-16T15:30:15Z</time>
      </trkpt>
      <trkpt lat="43.74982" lon="7.01607">
        <ele>908</ele>
        <time>2011-07-16T15:30:16Z</time>
      </trkpt>
      <trkpt lat="43.74983" lon="7.01607">
        <ele>908</ele>
        <time>2011-07-16T15:30:18Z</time>
      </trkpt>
      <trkpt lat="43.74984" lon="7.01608">
        <ele>908</ele>
        <time>2011-07-16T15:30:19Z</time>
      </trkpt>
      <trkpt lat="43.74985" lon="7.01608">
        <ele>908</ele>
        <time>2011-07-16T15:30:21Z</time>
      </trkpt>
      <trkpt lat="43.74986" lon="7.01608">
        <ele>909</ele>
        <time>2011-07-16T15:30:23Z</time>
      </trkpt>
      <trkpt lat="43.74987" lon="7.01609">
        <ele>909</ele>
        <time>2011-07-16T15:30:24Z</time>
      </trkpt>
      <trkpt lat="43.74988" lon="7.01609">
        <ele>909</ele>
        <time>2011-07-16T15:30:26Z</time>
      </trkpt>
      <trkpt lat="43.74989" lon="7.01609">
        <ele>909</ele>
        <time>2011-07-16T15:30:27Z</time>
      </trkpt>
      <trkpt lat="43.7499" lon="7.01609">
        <ele>909</ele>
        <time>2011-07-16T15:30:28Z</time>
      </trkpt>
      <trkpt lat="43.74991" lon="7.01609">
        <ele>910</ele>
        <time>2011-07-16T15:30:29Z</time>
      </trkpt>
      <trkpt lat="43.74992" lon="7.0161">
        <ele>910</ele>
        <time>2011-07-16T15:30:30Z</time>
      </trkpt>
      <trkpt lat="43.74993" lon="7.0161">
        <ele>910</ele>
        <time>2011-07-16T15:30:31Z</time>
      </trkpt>
      <trkpt lat="43.74994" lon="7.0161">
        <ele>910</ele>
        <time>2011-07-16T15:30:32Z</time>
      </trkpt>
      <trkpt lat="43.74994" lon="7.0161">
        <ele>910</ele>
        <time>2011-07-16T15:30:33Z</time>
      </trkpt>
      <trkpt lat="43.74995" lon="7.0161">
        <ele>910</ele>
        <time>2011-07-16T15:30:34Z</time>
      </trkpt>
      <trkpt lat="43.74996" lon="7.01611">
        <ele>910</ele>
        <time>2011-07-16T15:30:35Z</time>
      </trkpt>
      <trkpt lat="43.74997" lon="7.01611">
        <ele>910</ele>
        <time>2011-07-16T15:30:36Z</time>
      </trkpt>
      <trkpt lat="43.74998" lon="7.01611">
        <ele>910</ele>
        <time>2011-07-16T15:30:37Z</time>
      </trkpt>
      <trkpt lat="43.74999" lon="7.01611">
        <ele>910</ele>
        <time>2011-07-16T15:30:38Z</time>
      </trkpt>
      <trkpt lat="43.75" lon="7.01611">
        <ele>910</ele>
        <time>2011-07-16T15:30:39Z</time>
      </trkpt>
      <trkpt lat="43.75" lon="7.01612">
        <ele>911</ele>
        <time>2011-07-16T15:30:40Z</time>
      </trkpt>
      <trkpt lat="43.75001" lon="7.01612">
        <ele>911</ele>
        <time>2011-07-16T15:30:41Z</time>
      </trkpt>
      <trkpt lat="43.75002" lon="7.01612">
        <ele>911</ele>
        <time>2011-07-16T15:30:42Z</time>
      </trkpt>
      <trkpt lat="43.75003" lon="7.01613">
        <ele>911</ele>
        <time>2011-07-16T15:30:43Z</time>
      </trkpt>
      <trkpt lat="43.75003" lon="7.01613">
        <ele>911</ele>
        <time>2011-07-16T15:30:44Z</time>
      </trkpt>
      <trkpt lat="43.75004" lon="7.01613">
        <ele>911</ele>
        <time>2011-07-16T15:30:45Z</time>
      </trkpt>
      <trkpt lat="43.75005" lon="7.01613">
        <ele>911</ele>
        <time>2011-07-16T15:30:46Z</time>
      </trkpt>
      <trkpt lat="43.75006" lon="7.01613">
        <ele>911</ele>
        <time>2011-07-16T15:30:47Z</time>
      </trkpt>
      <trkpt lat="43.75007" lon="7.01614">
        <ele>911</ele>
        <time>2011-07-16T15:30:48Z</time>
      </trkpt>
      <trkpt lat="43.75009" lon="7.01614">
        <ele>912</ele>
        <time>2011-07-16T15:30:51Z</time>
      </trkpt>
      <trkpt lat="43.7501" lon="7.01614">
        <ele>912</ele>
        <time>2011-07-16T15:30:52Z</time>
      </trkpt>
      <trkpt lat="43.7501" lon="7.01614">
        <ele>912</ele>
        <time>2011-07-16T15:30:53Z</time>
      </trkpt>
      <trkpt lat="43.75012" lon="7.01614">
        <ele>912</ele>
        <time>2011-07-16T15:30:55Z</time>
      </trkpt>
      <trkpt lat="43.75013" lon="7.01615">
        <ele>912</ele>
        <time>2011-07-16T15:30:56Z</time>
      </trkpt>
      <trkpt lat="43.75013" lon="7.01615">
        <ele>912</ele>
        <time>2011-07-16T15:30:57Z</time>
      </trkpt>
      <trkpt lat="43.75014" lon="7.01615">
        <ele>913</ele>
        <time>2011-07-16T15:30:58Z</time>
      </trkpt>
      <trkpt lat="43.75014" lon="7.01616">
        <ele>913</ele>
        <time>2011-07-16T15:30:59Z</time>
      </trkpt>
      <trkpt lat="43.75015" lon="7.01616">
        <ele>913</ele>
        <time>2011-07-16T15:31:00Z</time>
      </trkpt>
      <trkpt lat="43.75016" lon="7.01616">
        <ele>913</ele>
        <time>2011-07-16T15:31:01Z</time>
      </trkpt>
      <trkpt lat="43.75017" lon="7.01616">
        <ele>913</ele>
        <time>2011-07-16T15:31:02Z</time>
      </trkpt>
      <trkpt lat="43.75018" lon="7.01616">
        <ele>913</ele>
        <time>2011-07-16T15:31:04Z</time>
      </trkpt>
      <trkpt lat="43.75018" lon="7.01615">
        <ele>913</ele>
        <time>2011-07-16T15:31:10Z</time>
      </trkpt>
      <trkpt lat="43.75019" lon="7.01615">
        <ele>913</ele>
        <time>2011-07-16T15:31:11Z</time>
      </trkpt>
      <trkpt lat="43.7502" lon="7.01616">
        <ele>913</ele>
        <time>2011-07-16T15:31:12Z</time>
      </trkpt>
      <trkpt lat="43.75022" lon="7.01616">
        <ele>913</ele>
        <time>2011-07-16T15:31:13Z</time>
      </trkpt>
      <trkpt lat="43.75023" lon="7.01617">
        <ele>913</ele>
        <time>2011-07-16T15:31:14Z</time>
      </trkpt>
      <trkpt lat="43.75025" lon="7.01617">
        <ele>913</ele>
        <time>2011-07-16T15:31:15Z</time>
      </trkpt>
      <trkpt lat="43.75026" lon="7.01617">
        <ele>914</ele>
        <time>2011-07-16T15:31:16Z</time>
      </trkpt>
      <trkpt lat="43.75027" lon="7.01617">
        <ele>914</ele>
        <time>2011-07-16T15:31:17Z</time>
      </trkpt>
      <trkpt lat="43.75029" lon="7.01617">
        <ele>914</ele>
        <time>2011-07-16T15:31:18Z</time>
      </trkpt>
      <trkpt lat="43.7503" lon="7.01618">
        <ele>914</ele>
        <time>2011-07-16T15:31:19Z</time>
      </trkpt>
      <trkpt lat="43.75031" lon="7.01618">
        <ele>914</ele>
        <time>2011-07-16T15:31:20Z</time>
      </trkpt>
      <trkpt lat="43.75033" lon="7.01619">
        <ele>915</ele>
        <time>2011-07-16T15:31:21Z</time>
      </trkpt>
      <trkpt lat="43.75034" lon="7.01619">
        <ele>915</ele>
        <time>2011-07-16T15:31:22Z</time>
      </trkpt>
      <trkpt lat="43.75035" lon="7.01618">
        <ele>915</ele>
        <time>2011-07-16T15:31:23Z</time>
      </trkpt>
      <trkpt lat="43.75036" lon="7.01618">
        <ele>915</ele>
        <time>2011-07-16T15:31:24Z</time>
      </trkpt>
      <trkpt lat="43.75038" lon="7.01618">
        <ele>915</ele>
        <time>2011-07-16T15:31:25Z</time>
      </trkpt>
      <trkpt lat="43.75039" lon="7.01619">
        <ele>915</ele>
        <time>2011-07-16T15:31:26Z</time>
      </trkpt>
      <trkpt lat="43.7504" lon="7.01619">
        <ele>916</ele>
        <time>2011-07-16T15:31:27Z</time>
      </trkpt>
      <trkpt lat="43.75042" lon="7.01619">
        <ele>916</ele>
        <time>2011-07-16T15:31:28Z</time>
      </trkpt>
      <trkpt lat="43.75043" lon="7.0162">
        <ele>916</ele>
        <time>2011-07-16T15:31:29Z</time>
      </trkpt>
      <trkpt lat="43.75044" lon="7.0162">
        <ele>916</ele>
        <time>2011-07-16T15:31:30Z</time>
      </trkpt>
      <trkpt lat="43.75045" lon="7.01621">
        <ele>916</ele>
        <time>2011-07-16T15:31:31Z</time>
      </trkpt>
      <trkpt lat="43.75048" lon="7.01621">
        <ele>917</ele>
        <time>2011-07-16T15:31:33Z</time>
      </trkpt>
      <trkpt lat="43.75049" lon="7.0162">
        <ele>917</ele>
        <time>2011-07-16T15:31:34Z</time>
      </trkpt>
      <trkpt lat="43.75051" lon="7.0162">
        <ele>917</ele>
        <time>2011-07-16T15:31:35Z</time>
      </trkpt>
      <trkpt lat="43.75052" lon="7.0162">
        <ele>917</ele>
        <time>2011-07-16T15:31:36Z</time>
      </trkpt>
      <trkpt lat="43.75053" lon="7.01619">
        <ele>918</ele>
        <time>2011-07-16T15:31:37Z</time>
      </trkpt>
      <trkpt lat="43.75055" lon="7.01619">
        <ele>918</ele>
        <time>2011-07-16T15:31:38Z</time>
      </trkpt>
      <trkpt lat="43.75056" lon="7.0162">
        <ele>918</ele>
        <time>2011-07-16T15:31:39Z</time>
      </trkpt>
      <trkpt lat="43.75057" lon="7.0162">
        <ele>919</ele>
        <time>2011-07-16T15:31:40Z</time>
      </trkpt>
      <trkpt lat="43.75059" lon="7.0162">
        <ele>919</ele>
        <time>2011-07-16T15:31:41Z</time>
      </trkpt>
      <trkpt lat="43.75062" lon="7.0162">
        <ele>920</ele>
        <time>2011-07-16T15:31:44Z</time>
      </trkpt>
      <trkpt lat="43.75064" lon="7.01621">
        <ele>921</ele>
        <time>2011-07-16T15:31:45Z</time>
      </trkpt>
      <trkpt lat="43.75065" lon="7.01621">
        <ele>921</ele>
        <time>2011-07-16T15:31:46Z</time>
      </trkpt>
      <trkpt lat="43.75066" lon="7.01621">
        <ele>921</ele>
        <time>2011-07-16T15:31:47Z</time>
      </trkpt>
      <trkpt lat="43.75068" lon="7.01622">
        <ele>921</ele>
        <time>2011-07-16T15:31:48Z</time>
      </trkpt>
      <trkpt lat="43.75069" lon="7.01622">
        <ele>922</ele>
        <time>2011-07-16T15:31:49Z</time>
      </trkpt>
      <trkpt lat="43.7507" lon="7.01622">
        <ele>922</ele>
        <time>2011-07-16T15:31:50Z</time>
      </trkpt>
      <trkpt lat="43.75071" lon="7.01622">
        <ele>922</ele>
        <time>2011-07-16T15:31:51Z</time>
      </trkpt>
      <trkpt lat="43.75073" lon="7.01622">
        <ele>923</ele>
        <time>2011-07-16T15:31:52Z</time>
      </trkpt>
      <trkpt lat="43.75074" lon="7.01622">
        <ele>923</ele>
        <time>2011-07-16T15:31:53Z</time>
      </trkpt>
      <trkpt lat="43.75075" lon="7.01622">
        <ele>924</ele>
        <time>2011-07-16T15:31:54Z</time>
      </trkpt>
      <trkpt lat="43.75076" lon="7.01622">
        <ele>924</ele>
        <time>2011-07-16T15:31:55Z</time>
      </trkpt>
      <trkpt lat="43.75076" lon="7.01622">
        <ele>924</ele>
        <time>2011-07-16T15:31:57Z</time>
      </trkpt>
      <trkpt lat="43.75076" lon="7.01622">
        <ele>924</ele>
        <time>2011-07-16T15:31:58Z</time>
      </trkpt>
      <trkpt lat="43.75076" lon="7.01623">
        <ele>925</ele>
        <time>2011-07-16T15:31:59Z</time>
      </trkpt>
      <trkpt lat="43.75076" lon="7.01623">
        <ele>925</ele>
        <time>2011-07-16T15:32:00Z</time>
      </trkpt>
      <trkpt lat="43.75076" lon="7.01623">
        <ele>925</ele>
        <time>2011-07-16T15:32:02Z</time>
      </trkpt>
      <trkpt lat="43.75077" lon="7.01623">
        <ele>926</ele>
        <time>2011-07-16T15:32:03Z</time>
      </trkpt>
      <trkpt lat="43.75077" lon="7.01623">
        <ele>926</ele>
        <time>2011-07-16T15:32:04Z</time>
      </trkpt>
      <trkpt lat="43.75078" lon="7.01623">
        <ele>927</ele>
        <time>2011-07-16T15:32:05Z</time>
      </trkpt>
      <trkpt lat="43.75078" lon="7.01623">
        <ele>927</ele>
        <time>2011-07-16T15:32:06Z</time>
      </trkpt>
      <trkpt lat="43.75079" lon="7.01623">
        <ele>928</ele>
        <time>2011-07-16T15:32:09Z</time>
      </trkpt>
      <trkpt lat="43.75079" lon="7.01622">
        <ele>928</ele>
        <time>2011-07-16T15:32:10Z</time>
      </trkpt>
      <trkpt lat="43.7508" lon="7.01622">
        <ele>928</ele>
        <time>2011-07-16T15:32:11Z</time>
      </trkpt>
      <trkpt lat="43.7508" lon="7.01622">
        <ele>929</ele>
        <time>2011-07-16T15:32:12Z</time>
      </trkpt>
      <trkpt lat="43.75081" lon="7.01622">
        <ele>929</ele>
        <time>2011-07-16T15:32:13Z</time>
      </trkpt>
      <trkpt lat="43.75081" lon="7.01621">
        <ele>929</ele>
        <time>2011-07-16T15:32:14Z</time>
      </trkpt>
      <trkpt lat="43.75082" lon="7.01621">
        <ele>929</ele>
        <time>2011-07-16T15:32:15Z</time>
      </trkpt>
      <trkpt lat="43.75082" lon="7.01622">
        <ele>930</ele>
        <time>2011-07-16T15:32:16Z</time>
      </trkpt>
      <trkpt lat="43.75083" lon="7.01622">
        <ele>930</ele>
        <time>2011-07-16T15:32:17Z</time>
      </trkpt>
      <trkpt lat="43.75084" lon="7.01621">
        <ele>930</ele>
        <time>2011-07-16T15:32:18Z</time>
      </trkpt>
      <trkpt lat="43.75084" lon="7.01621">
        <ele>931</ele>
        <time>2011-07-16T15:32:19Z</time>
      </trkpt>
      <trkpt lat="43.75084" lon="7.01621">
        <ele>931</ele>
        <time>2011-07-16T15:32:20Z</time>
      </trkpt>
      <trkpt lat="43.75085" lon="7.01621">
        <ele>931</ele>
        <time>2011-07-16T15:32:21Z</time>
      </trkpt>
      <trkpt lat="43.75085" lon="7.0162">
        <ele>931</ele>
        <time>2011-07-16T15:32:22Z</time>
      </trkpt>
      <trkpt lat="43.75086" lon="7.0162">
        <ele>931</ele>
        <time>2011-07-16T15:32:23Z</time>
      </trkpt>
      <trkpt lat="43.75087" lon="7.0162">
        <ele>932</ele>
        <time>2011-07-16T15:32:24Z</time>
      </trkpt>
      <trkpt lat="43.75087" lon="7.01619">
        <ele>932</ele>
        <time>2011-07-16T15:32:25Z</time>
      </trkpt>
      <trkpt lat="43.75088" lon="7.01619">
        <ele>932</ele>
        <time>2011-07-16T15:32:26Z</time>
      </trkpt>
      <trkpt lat="43.75088" lon="7.01618">
        <ele>933</ele>
        <time>2011-07-16T15:32:27Z</time>
      </trkpt>
      <trkpt lat="43.75088" lon="7.01618">
        <ele>933</ele>
        <time>2011-07-16T15:32:28Z</time>
      </trkpt>
      <trkpt lat="43.75089" lon="7.01616">
        <ele>934</ele>
        <time>2011-07-16T15:32:29Z</time>
      </trkpt>
      <trkpt lat="43.75089" lon="7.01615">
        <ele>934</ele>
        <time>2011-07-16T15:32:30Z</time>
      </trkpt>
      <trkpt lat="43.7509" lon="7.01614">
        <ele>935</ele>
        <time>2011-07-16T15:32:31Z</time>
      </trkpt>
      <trkpt lat="43.7509" lon="7.01613">
        <ele>935</ele>
        <time>2011-07-16T15:32:32Z</time>
      </trkpt>
      <trkpt lat="43.7509" lon="7.01612">
        <ele>935</ele>
        <time>2011-07-16T15:32:34Z</time>
      </trkpt>
      <trkpt lat="43.7509" lon="7.01612">
        <ele>936</ele>
        <time>2011-07-16T15:32:36Z</time>
      </trkpt>
      <trkpt lat="43.75091" lon="7.01611">
        <ele>937</ele>
        <time>2011-07-16T15:32:37Z</time>
      </trkpt>
      <trkpt lat="43.75091" lon="7.01611">
        <ele>937</ele>
        <time>2011-07-16T15:32:38Z</time>
      </trkpt>
      <trkpt lat="43.75092" lon="7.0161">
        <ele>937</ele>
        <time>2011-07-16T15:32:39Z</time>
      </trkpt>
      <trkpt lat="43.75092" lon="7.01609">
        <ele>938</ele>
        <time>2011-07-16T15:32:40Z</time>
      </trkpt>
      <trkpt lat="43.75093" lon="7.01608">
        <ele>938</ele>
        <time>2011-07-16T15:32:41Z</time>
      </trkpt>
      <trkpt lat="43.75094" lon="7.01607">
        <ele>937</ele>
        <time>2011-07-16T15:32:42Z</time>
      </trkpt>
      <trkpt lat="43.75096" lon="7.01608">
        <ele>934</ele>
        <time>2011-07-16T15:32:43Z</time>
      </trkpt>
      <trkpt lat="43.75098" lon="7.01608">
        <ele>932</ele>
        <time>2011-07-16T15:32:44Z</time>
      </trkpt>
      <trkpt lat="43.75099" lon="7.01608">
        <ele>931</ele>
        <time>2011-07-16T15:32:45Z</time>
      </trkpt>
      <trkpt lat="43.751" lon="7.01608">
        <ele>931</ele>
        <time>2011-07-16T15:32:46Z</time>
      </trkpt>
      <trkpt lat="43.75101" lon="7.01607">
        <ele>931</ele>
        <time>2011-07-16T15:32:47Z</time>
      </trkpt>
      <trkpt lat="43.75102" lon="7.01607">
        <ele>931</ele>
        <time>2011-07-16T15:32:48Z</time>
      </trkpt>
      <trkpt lat="43.75102" lon="7.01605">
        <ele>931</ele>
        <time>2011-07-16T15:32:49Z</time>
      </trkpt>
      <trkpt lat="43.75103" lon="7.01604">
        <ele>931</ele>
        <time>2011-07-16T15:32:50Z</time>
      </trkpt>
      <trkpt lat="43.75103" lon="7.01604">
        <ele>931</ele>
        <time>2011-07-16T15:32:51Z</time>
      </trkpt>
      <trkpt lat="43.75104" lon="7.01603">
        <ele>930</ele>
        <time>2011-07-16T15:32:52Z</time>
      </trkpt>
      <trkpt lat="43.75104" lon="7.01602">
        <ele>930</ele>
        <time>2011-07-16T15:32:53Z</time>
      </trkpt>
      <trkpt lat="43.75105" lon="7.01602">
        <ele>930</ele>
        <time>2011-07-16T15:32:54Z</time>
      </trkpt>
      <trkpt lat="43.75105" lon="7.01602">
        <ele>930</ele>
        <time>2011-07-16T15:32:55Z</time>
      </trkpt>
      <trkpt lat="43.75106" lon="7.01601">
        <ele>930</ele>
        <time>2011-07-16T15:32:56Z</time>
      </trkpt>
      <trkpt lat="43.75107" lon="7.01601">
        <ele>930</ele>
        <time>2011-07-16T15:33:01Z</time>
      </trkpt>
      <trkpt lat="43.75106" lon="7.01602">
        <ele>930</ele>
        <time>2011-07-16T15:33:06Z</time>
      </trkpt>
      <trkpt lat="43.75107" lon="7.01602">
        <ele>930</ele>
        <time>2011-07-16T15:33:07Z</time>
      </trkpt>
      <trkpt lat="43.75107" lon="7.01602">
        <ele>930</ele>
        <time>2011-07-16T15:33:08Z</time>
      </trkpt>
      <trkpt lat="43.75107" lon="7.01601">
        <ele>930</ele>
        <time>2011-07-16T15:33:09Z</time>
      </trkpt>
      <trkpt lat="43.75107" lon="7.01602">
        <ele>930</ele>
        <time>2011-07-16T15:33:52Z</time>
      </trkpt>
      <trkpt lat="43.75107" lon="7.01602">
        <ele>930</ele>
        <time>2011-07-16T15:33:53Z</time>
      </trkpt>
      <trkpt lat="43.75106" lon="7.01602">
        <ele>930</ele>
        <time>2011-07-16T15:33:54Z</time>
      </trkpt>
      <trkpt lat="43.75105" lon="7.01602">
        <ele>930</ele>
        <time>2011-07-16T15:33:55Z</time>
      </trkpt>
      <trkpt lat="43.75104" lon="7.01602">
        <ele>930</ele>
        <time>2011-07-16T15:33:56Z</time>
      </trkpt>
      <trkpt lat="43.75104" lon="7.01602">
        <ele>930</ele>
        <time>2011-07-16T15:33:57Z</time>
      </trkpt>
      <trkpt lat="43.75104" lon="7.01602">
        <ele>930</ele>
        <time>2011-07-16T15:33:58Z</time>
      </trkpt>
      <trkpt lat="43.75104" lon="7.01602">
        <ele>930</ele>
        <time>2011-07-16T15:33:59Z</time>
      </trkpt>
      <trkpt lat="43.75104" lon="7.01602">
        <ele>930</ele>
        <time>2011-07-16T15:34:02Z</time>
      </trkpt>
      <trkpt lat="43.75105" lon="7.01602">
        <ele>930</ele>
        <time>2011-07-16T15:34:03Z</time>
      </trkpt>
      <trkpt lat="43.75105" lon="7.01602">
        <ele>930</ele>
        <time>2011-07-16T15:34:04Z</time>
      </trkpt>
      <trkpt lat="43.75106" lon="7.01602">
        <ele>930</ele>
        <time>2011-07-16T15:34:06Z</time>
      </trkpt>
      <trkpt lat="43.75107" lon="7.01602">
        <ele>930</ele>
        <time>2011-07-16T15:34:07Z</time>
      </trkpt>
      <trkpt lat="43.75107" lon="7.01602">
        <ele>930</ele>
        <time>2011-07-16T15:34:10Z</time>
      </trkpt>
      <trkpt lat="43.75107" lon="7.01601">
        <ele>930</ele>
        <time>2011-07-16T15:34:23Z</time>
      </trkpt>
      <trkpt lat="43.75108" lon="7.01602">
        <ele>930</ele>
        <time>2011-07-16T15:34:24Z</time>
      </trkpt>
      <trkpt lat="43.75109" lon="7.01602">
        <ele>930</ele>
        <time>2011-07-16T15:34:25Z</time>
      </trkpt>
      <trkpt lat="43.7511" lon="7.01602">
        <ele>930</ele>
        <time>2011-07-16T15:34:26Z</time>
      </trkpt>
      <trkpt lat="43.75111" lon="7.01603">
        <ele>931</ele>
        <time>2011-07-16T15:34:27Z</time>
      </trkpt>
      <trkpt lat="43.75113" lon="7.01604">
        <ele>931</ele>
        <time>2011-07-16T15:34:28Z</time>
      </trkpt>
      <trkpt lat="43.75114" lon="7.01604">
        <ele>931</ele>
        <time>2011-07-16T15:34:29Z</time>
      </trkpt>
      <trkpt lat="43.75116" lon="7.01605">
        <ele>931</ele>
        <time>2011-07-16T15:34:30Z</time>
      </trkpt>
      <trkpt lat="43.75117" lon="7.01605">
        <ele>931</ele>
        <time>2011-07-16T15:34:31Z</time>
      </trkpt>
      <trkpt lat="43.75119" lon="7.01605">
        <ele>931</ele>
        <time>2011-07-16T15:34:32Z</time>
      </trkpt>
      <trkpt lat="43.75121" lon="7.01605">
        <ele>931</ele>
        <time>2011-07-16T15:34:33Z</time>
      </trkpt>
      <trkpt lat="43.75122" lon="7.01606">
        <ele>931</ele>
        <time>2011-07-16T15:34:34Z</time>
      </trkpt>
      <trkpt lat="43.75125" lon="7.01607">
        <ele>931</ele>
        <time>2011-07-16T15:34:35Z</time>
      </trkpt>
      <trkpt lat="43.75127" lon="7.01608">
        <ele>931</ele>
        <time>2011-07-16T15:34:36Z</time>
      </trkpt>
      <trkpt lat="43.7513" lon="7.0161">
        <ele>931</ele>
        <time>2011-07-16T15:34:37Z</time>
      </trkpt>
      <trkpt lat="43.75132" lon="7.01611">
        <ele>931</ele>
        <time>2011-07-16T15:34:38Z</time>
      </trkpt>
      <trkpt lat="43.75135" lon="7.01612">
        <ele>931</ele>
        <time>2011-07-16T15:34:39Z</time>
      </trkpt>
      <trkpt lat="43.75137" lon="7.01613">
        <ele>931</ele>
        <time>2011-07-16T15:34:40Z</time>
      </trkpt>
      <trkpt lat="43.7514" lon="7.01614">
        <ele>930</ele>
        <time>2011-07-16T15:34:41Z</time>
      </trkpt>
      <trkpt lat="43.75143" lon="7.01615">
        <ele>930</ele>
        <time>2011-07-16T15:34:42Z</time>
      </trkpt>
      <trkpt lat="43.75145" lon="7.01617">
        <ele>930</ele>
        <time>2011-07-16T15:34:43Z</time>
      </trkpt>
      <trkpt lat="43.75148" lon="7.01618">
        <ele>930</ele>
        <time>2011-07-16T15:34:44Z</time>
      </trkpt>
      <trkpt lat="43.75151" lon="7.0162">
        <ele>930</ele>
        <time>2011-07-16T15:34:45Z</time>
      </trkpt>
      <trkpt lat="43.75154" lon="7.01621">
        <ele>930</ele>
        <time>2011-07-16T15:34:46Z</time>
      </trkpt>
      <trkpt lat="43.75157" lon="7.01622">
        <ele>930</ele>
        <time>2011-07-16T15:34:47Z</time>
      </trkpt>
      <trkpt lat="43.75163" lon="7.01625">
        <ele>930</ele>
        <time>2011-07-16T15:34:49Z</time>
      </trkpt>
      <trkpt lat="43.75165" lon="7.01627">
        <ele>930</ele>
        <time>2011-07-16T15:34:50Z</time>
      </trkpt>
      <trkpt lat="43.75168" lon="7.01629">
        <ele>930</ele>
        <time>2011-07-16T15:34:51Z</time>
      </trkpt>
      <trkpt lat="43.75171" lon="7.01631">
        <ele>930</ele>
        <time>2011-07-16T15:34:52Z</time>
      </trkpt>
      <trkpt lat="43.75174" lon="7.01632">
        <ele>930</ele>
        <time>2011-07-16T15:34:53Z</time>
      </trkpt>
      <trkpt lat="43.75176" lon="7.01634">
        <ele>931</ele>
        <time>2011-07-16T15:34:54Z</time>
      </trkpt>
      <trkpt lat="43.75181" lon="7.01638">
        <ele>931</ele>
        <time>2011-07-16T15:34:56Z</time>
      </trkpt>
      <trkpt lat="43.75183" lon="7.0164">
        <ele>931</ele>
        <time>2011-07-16T15:34:57Z</time>
      </trkpt>
      <trkpt lat="43.75185" lon="7.01643">
        <ele>931</ele>
        <time>2011-07-16T15:34:58Z</time>
      </trkpt>
      <trkpt lat="43.75187" lon="7.01645">
        <ele>931</ele>
        <time>2011-07-16T15:34:59Z</time>
      </trkpt>
      <trkpt lat="43.7519" lon="7.01647">
        <ele>931</ele>
        <time>2011-07-16T15:35:00Z</time>
      </trkpt>
      <trkpt lat="43.75192" lon="7.0165">
        <ele>931</ele>
        <time>2011-07-16T15:35:01Z</time>
      </trkpt>
      <trkpt lat="43.75197" lon="7.01655">
        <ele>931</ele>
        <time>2011-07-16T15:35:03Z</time>
      </trkpt>
      <trkpt lat="43.75199" lon="7.01658">
        <ele>931</ele>
        <time>2011-07-16T15:35:04Z</time>
      </trkpt>
      <trkpt lat="43.75202" lon="7.01661">
        <ele>931</ele>
        <time>2011-07-16T15:35:05Z</time>
      </trkpt>
      <trkpt lat="43.75204" lon="7.01664">
        <ele>931</ele>
        <time>2011-07-16T15:35:06Z</time>
      </trkpt>
      <trkpt lat="43.75206" lon="7.01666">
        <ele>931</ele>
        <time>2011-07-16T15:35:07Z</time>
      </trkpt>
      <trkpt lat="43.75209" lon="7.01669">
        <ele>931</ele>
        <time>2011-07-16T15:35:08Z</time>
      </trkpt>
      <trkpt lat="43.75211" lon="7.01671">
        <ele>931</ele>
        <time>2011-07-16T15:35:09Z</time>
      </trkpt>
      <trkpt lat="43.75216" lon="7.01676">
        <ele>931</ele>
        <time>2011-07-16T15:35:11Z</time>
      </trkpt>
      <trkpt lat="43.75219" lon="7.01678">
        <ele>931</ele>
        <time>2011-07-16T15:35:12Z</time>
      </trkpt>
      <trkpt lat="43.75221" lon="7.01679">
        <ele>931</ele>
        <time>2011-07-16T15:35:13Z</time>
      </trkpt>
      <trkpt lat="43.75224" lon="7.01681">
        <ele>931</ele>
        <time>2011-07-16T15:35:14Z</time>
      </trkpt>
      <trkpt lat="43.75226" lon="7.01683">
        <ele>931</ele>
        <time>2011-07-16T15:35:15Z</time>
      </trkpt>
      <trkpt lat="43.75229" lon="7.01686">
        <ele>931</ele>
        <time>2011-07-16T15:35:16Z</time>
      </trkpt>
      <trkpt lat="43.75231" lon="7.01688">
        <ele>931</ele>
        <time>2011-07-16T15:35:17Z</time>
      </trkpt>
      <trkpt lat="43.75233" lon="7.01689">
        <ele>931</ele>
        <time>2011-07-16T15:35:18Z</time>
      </trkpt>
      <trkpt lat="43.75236" lon="7.01691">
        <ele>931</ele>
        <time>2011-07-16T15:35:19Z</time>
      </trkpt>
      <trkpt lat="43.75238" lon="7.01693">
        <ele>931</ele>
        <time>2011-07-16T15:35:20Z</time>
      </trkpt>
      <trkpt lat="43.75241" lon="7.01695">
        <ele>931</ele>
        <time>2011-07-16T15:35:21Z</time>
      </trkpt>
      <trkpt lat="43.75244" lon="7.01697">
        <ele>931</ele>
        <time>2011-07-16T15:35:22Z</time>
      </trkpt>
      <trkpt lat="43.75251" lon="7.01704">
        <ele>932</ele>
        <time>2011-07-16T15:35:25Z</time>
      </trkpt>
      <trkpt lat="43.75254" lon="7.01707">
        <ele>932</ele>
        <time>2011-07-16T15:35:26Z</time>
      </trkpt>
      <trkpt lat="43.75257" lon="7.01709">
        <ele>932</ele>
        <time>2011-07-16T15:35:27Z</time>
      </trkpt>
      <trkpt lat="43.75259" lon="7.01712">
        <ele>932</ele>
        <time>2011-07-16T15:35:28Z</time>
      </trkpt>
      <trkpt lat="43.75262" lon="7.01714">
        <ele>932</ele>
        <time>2011-07-16T15:35:29Z</time>
      </trkpt>
      <trkpt lat="43.75265" lon="7.01717">
        <ele>932</ele>
        <time>2011-07-16T15:35:30Z</time>
      </trkpt>
      <trkpt lat="43.75269" lon="7.01721">
        <ele>932</ele>
        <time>2011-07-16T15:35:32Z</time>
      </trkpt>
      <trkpt lat="43.75272" lon="7.01723">
        <ele>932</ele>
        <time>2011-07-16T15:35:33Z</time>
      </trkpt>
      <trkpt lat="43.75274" lon="7.01725">
        <ele>932</ele>
        <time>2011-07-16T15:35:34Z</time>
      </trkpt>
      <trkpt lat="43.75277" lon="7.01728">
        <ele>932</ele>
        <time>2011-07-16T15:35:35Z</time>
      </trkpt>
      <trkpt lat="43.75279" lon="7.0173">
        <ele>933</ele>
        <time>2011-07-16T15:35:36Z</time>
      </trkpt>
      <trkpt lat="43.75282" lon="7.01732">
        <ele>933</ele>
        <time>2011-07-16T15:35:37Z</time>
      </trkpt>
      <trkpt lat="43.75284" lon="7.01734">
        <ele>933</ele>
        <time>2011-07-16T15:35:38Z</time>
      </trkpt>
      <trkpt lat="43.75287" lon="7.01737">
        <ele>933</ele>
        <time>2011-07-16T15:35:39Z</time>
      </trkpt>
      <trkpt lat="43.75289" lon="7.01739">
        <ele>933</ele>
        <time>2011-07-16T15:35:40Z</time>
      </trkpt>
      <trkpt lat="43.75291" lon="7.0174">
        <ele>933</ele>
        <time>2011-07-16T15:35:41Z</time>
      </trkpt>
      <trkpt lat="43.75294" lon="7.01742">
        <ele>934</ele>
        <time>2011-07-16T15:35:42Z</time>
      </trkpt>
      <trkpt lat="43.75296" lon="7.01744">
        <ele>934</ele>
        <time>2011-07-16T15:35:43Z</time>
      </trkpt>
      <trkpt lat="43.75299" lon="7.01745">
        <ele>934</ele>
        <time>2011-07-16T15:35:44Z</time>
      </trkpt>
      <trkpt lat="43.75303" lon="7.01749">
        <ele>935</ele>
        <time>2011-07-16T15:35:46Z</time>
      </trkpt>
      <trkpt lat="43.75305" lon="7.0175">
        <ele>935</ele>
        <time>2011-07-16T15:35:47Z</time>
      </trkpt>
      <trkpt lat="43.75307" lon="7.01752">
        <ele>935</ele>
        <time>2011-07-16T15:35:48Z</time>
      </trkpt>
      <trkpt lat="43.75309" lon="7.01754">
        <ele>936</ele>
        <time>2011-07-16T15:35:49Z</time>
      </trkpt>
      <trkpt lat="43.75311" lon="7.01756">
        <ele>936</ele>
        <time>2011-07-16T15:35:50Z</time>
      </trkpt>
      <trkpt lat="43.75314" lon="7.01758">
        <ele>936</ele>
        <time>2011-07-16T15:35:51Z</time>
      </trkpt>
      <trkpt lat="43.75316" lon="7.01759">
        <ele>936</ele>
        <time>2011-07-16T15:35:52Z</time>
      </trkpt>
      <trkpt lat="43.75318" lon="7.01761">
        <ele>937</ele>
        <time>2011-07-16T15:35:53Z</time>
      </trkpt>
      <trkpt lat="43.7532" lon="7.01763">
        <ele>937</ele>
        <time>2011-07-16T15:35:54Z</time>
      </trkpt>
      <trkpt lat="43.75322" lon="7.01765">
        <ele>937</ele>
        <time>2011-07-16T15:35:55Z</time>
      </trkpt>
      <trkpt lat="43.75324" lon="7.01766">
        <ele>937</ele>
        <time>2011-07-16T15:35:56Z</time>
      </trkpt>
      <trkpt lat="43.75326" lon="7.01768">
        <ele>938</ele>
        <time>2011-07-16T15:35:57Z</time>
      </trkpt>
      <trkpt lat="43.75328" lon="7.0177">
        <ele>938</ele>
        <time>2011-07-16T15:35:58Z</time>
      </trkpt>
      <trkpt lat="43.7533" lon="7.01772">
        <ele>938</ele>
        <time>2011-07-16T15:35:59Z</time>
      </trkpt>
      <trkpt lat="43.75332" lon="7.01773">
        <ele>938</ele>
        <time>2011-07-16T15:36:00Z</time>
      </trkpt>
      <trkpt lat="43.75334" lon="7.01775">
        <ele>938</ele>
        <time>2011-07-16T15:36:01Z</time>
      </trkpt>
      <trkpt lat="43.75336" lon="7.01777">
        <ele>939</ele>
        <time>2011-07-16T15:36:02Z</time>
      </trkpt>
      <trkpt lat="43.75339" lon="7.0178">
        <ele>939</ele>
        <time>2011-07-16T15:36:04Z</time>
      </trkpt>
      <trkpt lat="43.75341" lon="7.01782">
        <ele>939</ele>
        <time>2011-07-16T15:36:05Z</time>
      </trkpt>
      <trkpt lat="43.75342" lon="7.01783">
        <ele>939</ele>
        <time>2011-07-16T15:36:06Z</time>
      </trkpt>
      <trkpt lat="43.75345" lon="7.01785">
        <ele>939</ele>
        <time>2011-07-16T15:36:08Z</time>
      </trkpt>
      <trkpt lat="43.75346" lon="7.01786">
        <ele>939</ele>
        <time>2011-07-16T15:36:09Z</time>
      </trkpt>
      <trkpt lat="43.75349" lon="7.01789">
        <ele>939</ele>
        <time>2011-07-16T15:36:11Z</time>
      </trkpt>
      <trkpt lat="43.7535" lon="7.0179">
        <ele>939</ele>
        <time>2011-07-16T15:36:12Z</time>
      </trkpt>
      <trkpt lat="43.75351" lon="7.01791">
        <ele>939</ele>
        <time>2011-07-16T15:36:13Z</time>
      </trkpt>
      <trkpt lat="43.75352" lon="7.01792">
        <ele>939</ele>
        <time>2011-07-16T15:36:14Z</time>
      </trkpt>
      <trkpt lat="43.75353" lon="7.01793">
        <ele>939</ele>
        <time>2011-07-16T15:36:15Z</time>
      </trkpt>
      <trkpt lat="43.75354" lon="7.01794">
        <ele>939</ele>
        <time>2011-07-16T15:36:16Z</time>
      </trkpt>
      <trkpt lat="43.75356" lon="7.01796">
        <ele>939</ele>
        <time>2011-07-16T15:36:18Z</time>
      </trkpt>
      <trkpt lat="43.75358" lon="7.01797">
        <ele>939</ele>
        <time>2011-07-16T15:36:19Z</time>
      </trkpt>
      <trkpt lat="43.75361" lon="7.01798">
        <ele>940</ele>
        <time>2011-07-16T15:36:21Z</time>
      </trkpt>
      <trkpt lat="43.75363" lon="7.01798">
        <ele>940</ele>
        <time>2011-07-16T15:36:22Z</time>
      </trkpt>
      <trkpt lat="43.75364" lon="7.01799">
        <ele>940</ele>
        <time>2011-07-16T15:36:23Z</time>
      </trkpt>
      <trkpt lat="43.75366" lon="7.01799">
        <ele>940</ele>
        <time>2011-07-16T15:36:24Z</time>
      </trkpt>
      <trkpt lat="43.75368" lon="7.01799">
        <ele>940</ele>
        <time>2011-07-16T15:36:25Z</time>
      </trkpt>
      <trkpt lat="43.7537" lon="7.01799">
        <ele>940</ele>
        <time>2011-07-16T15:36:26Z</time>
      </trkpt>
      <trkpt lat="43.75375" lon="7.01797">
        <ele>940</ele>
        <time>2011-07-16T15:36:29Z</time>
      </trkpt>
      <trkpt lat="43.75377" lon="7.01796">
        <ele>940</ele>
        <time>2011-07-16T15:36:30Z</time>
      </trkpt>
      <trkpt lat="43.75378" lon="7.01796">
        <ele>940</ele>
        <time>2011-07-16T15:36:31Z</time>
      </trkpt>
      <trkpt lat="43.75382" lon="7.01794">
        <ele>941</ele>
        <time>2011-07-16T15:36:33Z</time>
      </trkpt>
      <trkpt lat="43.75384" lon="7.01793">
        <ele>941</ele>
        <time>2011-07-16T15:36:34Z</time>
      </trkpt>
      <trkpt lat="43.75386" lon="7.01792">
        <ele>941</ele>
        <time>2011-07-16T15:36:35Z</time>
      </trkpt>
      <trkpt lat="43.75387" lon="7.01792">
        <ele>941</ele>
        <time>2011-07-16T15:36:36Z</time>
      </trkpt>
      <trkpt lat="43.75389" lon="7.01792">
        <ele>941</ele>
        <time>2011-07-16T15:36:37Z</time>
      </trkpt>
      <trkpt lat="43.75391" lon="7.01792">
        <ele>941</ele>
        <time>2011-07-16T15:36:38Z</time>
      </trkpt>
      <trkpt lat="43.75393" lon="7.01792">
        <ele>941</ele>
        <time>2011-07-16T15:36:39Z</time>
      </trkpt>
      <trkpt lat="43.75397" lon="7.01791">
        <ele>941</ele>
        <time>2011-07-16T15:36:41Z</time>
      </trkpt>
      <trkpt lat="43.75399" lon="7.01791">
        <ele>941</ele>
        <time>2011-07-16T15:36:42Z</time>
      </trkpt>
      <trkpt lat="43.75401" lon="7.0179">
        <ele>941</ele>
        <time>2011-07-16T15:36:43Z</time>
      </trkpt>
      <trkpt lat="43.75405" lon="7.0179">
        <ele>941</ele>
        <time>2011-07-16T15:36:45Z</time>
      </trkpt>
      <trkpt lat="43.75407" lon="7.01789">
        <ele>941</ele>
        <time>2011-07-16T15:36:46Z</time>
      </trkpt>
      <trkpt lat="43.75409" lon="7.01789">
        <ele>942</ele>
        <time>2011-07-16T15:36:47Z</time>
      </trkpt>
      <trkpt lat="43.75411" lon="7.01789">
        <ele>942</ele>
        <time>2011-07-16T15:36:48Z</time>
      </trkpt>
      <trkpt lat="43.75415" lon="7.01789">
        <ele>942</ele>
        <time>2011-07-16T15:36:50Z</time>
      </trkpt>
      <trkpt lat="43.75417" lon="7.01789">
        <ele>942</ele>
        <time>2011-07-16T15:36:51Z</time>
      </trkpt>
      <trkpt lat="43.75419" lon="7.01789">
        <ele>942</ele>
        <time>2011-07-16T15:36:52Z</time>
      </trkpt>
      <trkpt lat="43.75421" lon="7.01789">
        <ele>942</ele>
        <time>2011-07-16T15:36:53Z</time>
      </trkpt>
      <trkpt lat="43.75423" lon="7.0179">
        <ele>942</ele>
        <time>2011-07-16T15:36:54Z</time>
      </trkpt>
      <trkpt lat="43.75427" lon="7.0179">
        <ele>942</ele>
        <time>2011-07-16T15:36:56Z</time>
      </trkpt>
      <trkpt lat="43.75429" lon="7.0179">
        <ele>943</ele>
        <time>2011-07-16T15:36:57Z</time>
      </trkpt>
      <trkpt lat="43.75431" lon="7.01791">
        <ele>943</ele>
        <time>2011-07-16T15:36:58Z</time>
      </trkpt>
      <trkpt lat="43.75433" lon="7.01792">
        <ele>943</ele>
        <time>2011-07-16T15:36:59Z</time>
      </trkpt>
      <trkpt lat="43.75434" lon="7.01793">
        <ele>943</ele>
        <time>2011-07-16T15:37:00Z</time>
      </trkpt>
      <trkpt lat="43.75436" lon="7.01794">
        <ele>943</ele>
        <time>2011-07-16T15:37:01Z</time>
      </trkpt>
      <trkpt lat="43.75438" lon="7.01795">
        <ele>943</ele>
        <time>2011-07-16T15:37:02Z</time>
      </trkpt>
      <trkpt lat="43.75442" lon="7.01796">
        <ele>943</ele>
        <time>2011-07-16T15:37:04Z</time>
      </trkpt>
      <trkpt lat="43.75444" lon="7.01797">
        <ele>944</ele>
        <time>2011-07-16T15:37:05Z</time>
      </trkpt>
      <trkpt lat="43.75446" lon="7.01798">
        <ele>944</ele>
        <time>2011-07-16T15:37:06Z</time>
      </trkpt>
      <trkpt lat="43.75449" lon="7.01799">
        <ele>944</ele>
        <time>2011-07-16T15:37:08Z</time>
      </trkpt>
      <trkpt lat="43.75451" lon="7.018">
        <ele>944</ele>
        <time>2011-07-16T15:37:09Z</time>
      </trkpt>
      <trkpt lat="43.75452" lon="7.01801">
        <ele>944</ele>
        <time>2011-07-16T15:37:10Z</time>
      </trkpt>
      <trkpt lat="43.75453" lon="7.01802">
        <ele>944</ele>
        <time>2011-07-16T15:37:11Z</time>
      </trkpt>
      <trkpt lat="43.75454" lon="7.01803">
        <ele>944</ele>
        <time>2011-07-16T15:37:12Z</time>
      </trkpt>
      <trkpt lat="43.75455" lon="7.01803">
        <ele>944</ele>
        <time>2011-07-16T15:37:13Z</time>
      </trkpt>
      <trkpt lat="43.75455" lon="7.01803">
        <ele>944</ele>
        <time>2011-07-16T15:37:51Z</time>
      </trkpt>
      <trkpt lat="43.75456" lon="7.01803">
        <ele>944</ele>
        <time>2011-07-16T15:37:53Z</time>
      </trkpt>
      <trkpt lat="43.75457" lon="7.01803">
        <ele>944</ele>
        <time>2011-07-16T15:37:54Z</time>
      </trkpt>
      <trkpt lat="43.75458" lon="7.01803">
        <ele>944</ele>
        <time>2011-07-16T15:37:55Z</time>
      </trkpt>
      <trkpt lat="43.7546" lon="7.01803">
        <ele>944</ele>
        <time>2011-07-16T15:37:56Z</time>
      </trkpt>
      <trkpt lat="43.75461" lon="7.01804">
        <ele>944</ele>
        <time>2011-07-16T15:37:57Z</time>
      </trkpt>
      <trkpt lat="43.75463" lon="7.01804">
        <ele>944</ele>
        <time>2011-07-16T15:37:58Z</time>
      </trkpt>
      <trkpt lat="43.75465" lon="7.01804">
        <ele>944</ele>
        <time>2011-07-16T15:37:59Z</time>
      </trkpt>
      <trkpt lat="43.75467" lon="7.01805">
        <ele>944</ele>
        <time>2011-07-16T15:38:00Z</time>
      </trkpt>
      <trkpt lat="43.7547" lon="7.01805">
        <ele>944</ele>
        <time>2011-07-16T15:38:01Z</time>
      </trkpt>
      <trkpt lat="43.75473" lon="7.01806">
        <ele>944</ele>
        <time>2011-07-16T15:38:02Z</time>
      </trkpt>
      <trkpt lat="43.75476" lon="7.01807">
        <ele>944</ele>
        <time>2011-07-16T15:38:03Z</time>
      </trkpt>
      <trkpt lat="43.75479" lon="7.01807">
        <ele>944</ele>
        <time>2011-07-16T15:38:04Z</time>
      </trkpt>
      <trkpt lat="43.75482" lon="7.01808">
        <ele>944</ele>
        <time>2011-07-16T15:38:05Z</time>
      </trkpt>
      <trkpt lat="43.75485" lon="7.01809">
        <ele>944</ele>
        <time>2011-07-16T15:38:06Z</time>
      </trkpt>
      <trkpt lat="43.75488" lon="7.0181">
        <ele>944</ele>
        <time>2011-07-16T15:38:07Z</time>
      </trkpt>
      <trkpt lat="43.75491" lon="7.0181">
        <ele>944</ele>
        <time>2011-07-16T15:38:08Z</time>
      </trkpt>
      <trkpt lat="43.75494" lon="7.01811">
        <ele>944</ele>
        <time>2011-07-16T15:38:09Z</time>
      </trkpt>
      <trkpt lat="43.75497" lon="7.01812">
        <ele>944</ele>
        <time>2011-07-16T15:38:10Z</time>
      </trkpt>
      <trkpt lat="43.755" lon="7.01813">
        <ele>944</ele>
        <time>2011-07-16T15:38:11Z</time>
      </trkpt>
      <trkpt lat="43.75503" lon="7.01814">
        <ele>944</ele>
        <time>2011-07-16T15:38:12Z</time>
      </trkpt>
      <trkpt lat="43.75506" lon="7.01814">
        <ele>944</ele>
        <time>2011-07-16T15:38:13Z</time>
      </trkpt>
      <trkpt lat="43.75509" lon="7.01815">
        <ele>944</ele>
        <time>2011-07-16T15:38:14Z</time>
      </trkpt>
      <trkpt lat="43.75512" lon="7.01816">
        <ele>944</ele>
        <time>2011-07-16T15:38:15Z</time>
      </trkpt>
      <trkpt lat="43.75518" lon="7.01817">
        <ele>944</ele>
        <time>2011-07-16T15:38:17Z</time>
      </trkpt>
      <trkpt lat="43.75521" lon="7.01818">
        <ele>944</ele>
        <time>2011-07-16T15:38:18Z</time>
      </trkpt>
      <trkpt lat="43.75524" lon="7.01819">
        <ele>943</ele>
        <time>2011-07-16T15:38:19Z</time>
      </trkpt>
      <trkpt lat="43.75528" lon="7.0182">
        <ele>943</ele>
        <time>2011-07-16T15:38:20Z</time>
      </trkpt>
      <trkpt lat="43.75535" lon="7.01821">
        <ele>943</ele>
        <time>2011-07-16T15:38:22Z</time>
      </trkpt>
      <trkpt lat="43.75538" lon="7.01822">
        <ele>943</ele>
        <time>2011-07-16T15:38:23Z</time>
      </trkpt>
      <trkpt lat="43.75542" lon="7.01823">
        <ele>943</ele>
        <time>2011-07-16T15:38:24Z</time>
      </trkpt>
      <trkpt lat="43.75546" lon="7.01824">
        <ele>943</ele>
        <time>2011-07-16T15:38:25Z</time>
      </trkpt>
      <trkpt lat="43.7555" lon="7.01824">
        <ele>942</ele>
        <time>2011-07-16T15:38:26Z</time>
      </trkpt>
      <trkpt lat="43.75554" lon="7.01825">
        <ele>942</ele>
        <time>2011-07-16T15:38:27Z</time>
      </trkpt>
      <trkpt lat="43.75558" lon="7.01826">
        <ele>941</ele>
        <time>2011-07-16T15:38:28Z</time>
      </trkpt>
      <trkpt lat="43.75563" lon="7.01827">
        <ele>941</ele>
        <time>2011-07-16T15:38:29Z</time>
      </trkpt>
      <trkpt lat="43.75568" lon="7.01828">
        <ele>941</ele>
        <time>2011-07-16T15:38:30Z</time>
      </trkpt>
      <trkpt lat="43.75573" lon="7.01829">
        <ele>940</ele>
        <time>2011-07-16T15:38:31Z</time>
      </trkpt>
      <trkpt lat="43.75578" lon="7.0183">
        <ele>940</ele>
        <time>2011-07-16T15:38:32Z</time>
      </trkpt>
      <trkpt lat="43.75583" lon="7.01831">
        <ele>940</ele>
        <time>2011-07-16T15:38:33Z</time>
      </trkpt>
      <trkpt lat="43.75587" lon="7.01833">
        <ele>940</ele>
        <time>2011-07-16T15:38:34Z</time>
      </trkpt>
      <trkpt lat="43.75591" lon="7.01833">
        <ele>940</ele>
        <time>2011-07-16T15:38:35Z</time>
      </trkpt>
      <trkpt lat="43.75595" lon="7.01834">
        <ele>940</ele>
        <time>2011-07-16T15:38:36Z</time>
      </trkpt>
      <trkpt lat="43.75599" lon="7.01834">
        <ele>940</ele>
        <time>2011-07-16T15:38:37Z</time>
      </trkpt>
      <trkpt lat="43.75605" lon="7.01834">
        <ele>941</ele>
        <time>2011-07-16T15:38:39Z</time>
      </trkpt>
      <trkpt lat="43.75608" lon="7.01834">
        <ele>941</ele>
        <time>2011-07-16T15:38:40Z</time>
      </trkpt>
      <trkpt lat="43.75612" lon="7.01835">
        <ele>941</ele>
        <time>2011-07-16T15:38:41Z</time>
      </trkpt>
      <trkpt lat="43.75614" lon="7.01835">
        <ele>942</ele>
        <time>2011-07-16T15:38:42Z</time>
      </trkpt>
      <trkpt lat="43.75617" lon="7.01836">
        <ele>942</ele>
        <time>2011-07-16T15:38:43Z</time>
      </trkpt>
      <trkpt lat="43.7562" lon="7.01837">
        <ele>942</ele>
        <time>2011-07-16T15:38:44Z</time>
      </trkpt>
      <trkpt lat="43.75622" lon="7.01838">
        <ele>942</ele>
        <time>2011-07-16T15:38:45Z</time>
      </trkpt>
      <trkpt lat="43.75625" lon="7.01839">
        <ele>942</ele>
        <time>2011-07-16T15:38:46Z</time>
      </trkpt>
      <trkpt lat="43.75627" lon="7.01839">
        <ele>943</ele>
        <time>2011-07-16T15:38:47Z</time>
      </trkpt>
      <trkpt lat="43.75632" lon="7.01841">
        <ele>943</ele>
        <time>2011-07-16T15:38:49Z</time>
      </trkpt>
      <trkpt lat="43.75634" lon="7.01842">
        <ele>943</ele>
        <time>2011-07-16T15:38:50Z</time>
      </trkpt>
      <trkpt lat="43.75636" lon="7.01843">
        <ele>943</ele>
        <time>2011-07-16T15:38:51Z</time>
      </trkpt>
      <trkpt lat="43.75639" lon="7.01844">
        <ele>944</ele>
        <time>2011-07-16T15:38:52Z</time>
      </trkpt>
      <trkpt lat="43.75641" lon="7.01845">
        <ele>944</ele>
        <time>2011-07-16T15:38:53Z</time>
      </trkpt>
      <trkpt lat="43.75643" lon="7.01846">
        <ele>944</ele>
        <time>2011-07-16T15:38:54Z</time>
      </trkpt>
      <trkpt lat="43.75646" lon="7.01846">
        <ele>944</ele>
        <time>2011-07-16T15:38:55Z</time>
      </trkpt>
      <trkpt lat="43.75647" lon="7.01847">
        <ele>944</ele>
        <time>2011-07-16T15:38:56Z</time>
      </trkpt>
      <trkpt lat="43.75649" lon="7.01847">
        <ele>944</ele>
        <time>2011-07-16T15:38:57Z</time>
      </trkpt>
      <trkpt lat="43.75652" lon="7.01848">
        <ele>944</ele>
        <time>2011-07-16T15:38:58Z</time>
      </trkpt>
      <trkpt lat="43.75656" lon="7.01849">
        <ele>944</ele>
        <time>2011-07-16T15:39:00Z</time>
      </trkpt>
      <trkpt lat="43.75658" lon="7.0185">
        <ele>944</ele>
        <time>2011-07-16T15:39:01Z</time>
      </trkpt>
      <trkpt lat="43.7566" lon="7.01851">
        <ele>944</ele>
        <time>2011-07-16T15:39:02Z</time>
      </trkpt>
      <trkpt lat="43.75663" lon="7.01852">
        <ele>944</ele>
        <time>2011-07-16T15:39:03Z</time>
      </trkpt>
      <trkpt lat="43.75664" lon="7.01852">
        <ele>944</ele>
        <time>2011-07-16T15:39:04Z</time>
      </trkpt>
      <trkpt lat="43.75666" lon="7.01853">
        <ele>945</ele>
        <time>2011-07-16T15:39:05Z</time>
      </trkpt>
      <trkpt lat="43.75668" lon="7.01853">
        <ele>945</ele>
        <time>2011-07-16T15:39:06Z</time>
      </trkpt>
      <trkpt lat="43.7567" lon="7.01853">
        <ele>945</ele>
        <time>2011-07-16T15:39:07Z</time>
      </trkpt>
      <trkpt lat="43.75672" lon="7.01854">
        <ele>945</ele>
        <time>2011-07-16T15:39:08Z</time>
      </trkpt>
      <trkpt lat="43.75674" lon="7.01854">
        <ele>945</ele>
        <time>2011-07-16T15:39:09Z</time>
      </trkpt>
      <trkpt lat="43.75676" lon="7.01855">
        <ele>945</ele>
        <time>2011-07-16T15:39:10Z</time>
      </trkpt>
      <trkpt lat="43.7568" lon="7.01856">
        <ele>945</ele>
        <time>2011-07-16T15:39:12Z</time>
      </trkpt>
      <trkpt lat="43.75682" lon="7.01857">
        <ele>945</ele>
        <time>2011-07-16T15:39:13Z</time>
      </trkpt>
      <trkpt lat="43.75685" lon="7.01858">
        <ele>945</ele>
        <time>2011-07-16T15:39:14Z</time>
      </trkpt>
      <trkpt lat="43.75687" lon="7.01859">
        <ele>945</ele>
        <time>2011-07-16T15:39:15Z</time>
      </trkpt>
      <trkpt lat="43.7569" lon="7.0186">
        <ele>945</ele>
        <time>2011-07-16T15:39:16Z</time>
      </trkpt>
      <trkpt lat="43.75692" lon="7.0186">
        <ele>945</ele>
        <time>2011-07-16T15:39:17Z</time>
      </trkpt>
      <trkpt lat="43.75695" lon="7.01861">
        <ele>945</ele>
        <time>2011-07-16T15:39:18Z</time>
      </trkpt>
      <trkpt lat="43.75698" lon="7.01862">
        <ele>945</ele>
        <time>2011-07-16T15:39:19Z</time>
      </trkpt>
      <trkpt lat="43.75703" lon="7.01864">
        <ele>945</ele>
        <time>2011-07-16T15:39:21Z</time>
      </trkpt>
      <trkpt lat="43.75705" lon="7.01865">
        <ele>945</ele>
        <time>2011-07-16T15:39:22Z</time>
      </trkpt>
      <trkpt lat="43.75708" lon="7.01866">
        <ele>945</ele>
        <time>2011-07-16T15:39:23Z</time>
      </trkpt>
      <trkpt lat="43.75711" lon="7.01867">
        <ele>946</ele>
        <time>2011-07-16T15:39:24Z</time>
      </trkpt>
      <trkpt lat="43.75714" lon="7.01868">
        <ele>946</ele>
        <time>2011-07-16T15:39:25Z</time>
      </trkpt>
      <trkpt lat="43.75716" lon="7.01869">
        <ele>946</ele>
        <time>2011-07-16T15:39:26Z</time>
      </trkpt>
      <trkpt lat="43.75719" lon="7.0187">
        <ele>946</ele>
        <time>2011-07-16T15:39:27Z</time>
      </trkpt>
      <trkpt lat="43.75722" lon="7.01871">
        <ele>946</ele>
        <time>2011-07-16T15:39:28Z</time>
      </trkpt>
      <trkpt lat="43.75725" lon="7.01872">
        <ele>946</ele>
        <time>2011-07-16T15:39:29Z</time>
      </trkpt>
      <trkpt lat="43.75728" lon="7.01873">
        <ele>946</ele>
        <time>2011-07-16T15:39:30Z</time>
      </trkpt>
      <trkpt lat="43.7573" lon="7.01874">
        <ele>946</ele>
        <time>2011-07-16T15:39:31Z</time>
      </trkpt>
      <trkpt lat="43.75733" lon="7.01875">
        <ele>946</ele>
        <time>2011-07-16T15:39:32Z</time>
      </trkpt>
      <trkpt lat="43.75736" lon="7.01876">
        <ele>947</ele>
        <time>2011-07-16T15:39:33Z</time>
      </trkpt>
      <trkpt lat="43.75739" lon="7.01877">
        <ele>947</ele>
        <time>2011-07-16T15:39:34Z</time>
      </trkpt>
      <trkpt lat="43.75742" lon="7.01879">
        <ele>947</ele>
        <time>2011-07-16T15:39:35Z</time>
      </trkpt>
      <trkpt lat="43.75744" lon="7.01879">
        <ele>947</ele>
        <time>2011-07-16T15:39:36Z</time>
      </trkpt>
      <trkpt lat="43.75747" lon="7.0188">
        <ele>947</ele>
        <time>2011-07-16T15:39:37Z</time>
      </trkpt>
      <trkpt lat="43.75753" lon="7.01882">
        <ele>947</ele>
        <time>2011-07-16T15:39:39Z</time>
      </trkpt>
      <trkpt lat="43.75756" lon="7.01884">
        <ele>948</ele>
        <time>2011-07-16T15:39:40Z</time>
      </trkpt>
      <trkpt lat="43.75759" lon="7.01885">
        <ele>948</ele>
        <time>2011-07-16T15:39:41Z</time>
      </trkpt>
      <trkpt lat="43.75762" lon="7.01886">
        <ele>948</ele>
        <time>2011-07-16T15:39:42Z</time>
      </trkpt>
      <trkpt lat="43.75765" lon="7.01887">
        <ele>948</ele>
        <time>2011-07-16T15:39:43Z</time>
      </trkpt>
      <trkpt lat="43.75768" lon="7.01889">
        <ele>948</ele>
        <time>2011-07-16T15:39:44Z</time>
      </trkpt>
      <trkpt lat="43.75771" lon="7.0189">
        <ele>948</ele>
        <time>2011-07-16T15:39:45Z</time>
      </trkpt>
      <trkpt lat="43.75773" lon="7.01891">
        <ele>948</ele>
        <time>2011-07-16T15:39:46Z</time>
      </trkpt>
      <trkpt lat="43.75776" lon="7.01892">
        <ele>948</ele>
        <time>2011-07-16T15:39:47Z</time>
      </trkpt>
      <trkpt lat="43.75779" lon="7.01893">
        <ele>949</ele>
        <time>2011-07-16T15:39:48Z</time>
      </trkpt>
      <trkpt lat="43.75782" lon="7.01894">
        <ele>949</ele>
        <time>2011-07-16T15:39:49Z</time>
      </trkpt>
      <trkpt lat="43.75785" lon="7.01895">
        <ele>949</ele>
        <time>2011-07-16T15:39:50Z</time>
      </trkpt>
      <trkpt lat="43.75787" lon="7.01897">
        <ele>949</ele>
        <time>2011-07-16T15:39:51Z</time>
      </trkpt>
      <trkpt lat="43.7579" lon="7.01898">
        <ele>949</ele>
        <time>2011-07-16T15:39:52Z</time>
      </trkpt>
      <trkpt lat="43.75792" lon="7.01899">
        <ele>949</ele>
        <time>2011-07-16T15:39:53Z</time>
      </trkpt>
      <trkpt lat="43.75795" lon="7.019">
        <ele>949</ele>
        <time>2011-07-16T15:39:54Z</time>
      </trkpt>
      <trkpt lat="43.75797" lon="7.01901">
        <ele>949</ele>
        <time>2011-07-16T15:39:55Z</time>
      </trkpt>
      <trkpt lat="43.758" lon="7.01902">
        <ele>949</ele>
        <time>2011-07-16T15:39:56Z</time>
      </trkpt>
      <trkpt lat="43.75802" lon="7.01903">
        <ele>949</ele>
        <time>2011-07-16T15:39:57Z</time>
      </trkpt>
      <trkpt lat="43.75804" lon="7.01904">
        <ele>949</ele>
        <time>2011-07-16T15:39:58Z</time>
      </trkpt>
      <trkpt lat="43.75805" lon="7.01905">
        <ele>949</ele>
        <time>2011-07-16T15:39:59Z</time>
      </trkpt>
      <trkpt lat="43.75807" lon="7.01906">
        <ele>949</ele>
        <time>2011-07-16T15:40:00Z</time>
      </trkpt>
      <trkpt lat="43.75808" lon="7.01907">
        <ele>949</ele>
        <time>2011-07-16T15:40:01Z</time>
      </trkpt>
      <trkpt lat="43.75809" lon="7.01907">
        <ele>949</ele>
        <time>2011-07-16T15:40:03Z</time>
      </trkpt>
      <trkpt lat="43.75808" lon="7.01907">
        <ele>949</ele>
        <time>2011-07-16T15:40:09Z</time>
      </trkpt>
      <trkpt lat="43.75808" lon="7.01907">
        <ele>949</ele>
        <time>2011-07-16T15:41:10Z</time>
      </trkpt>
      <trkpt lat="43.75808" lon="7.01908">
        <ele>949</ele>
        <time>2011-07-16T15:41:25Z</time>
      </trkpt>
      <trkpt lat="43.75809" lon="7.01909">
        <ele>949</ele>
        <time>2011-07-16T15:41:26Z</time>
      </trkpt>
      <trkpt lat="43.7581" lon="7.0191">
        <ele>949</ele>
        <time>2011-07-16T15:41:27Z</time>
      </trkpt>
      <trkpt lat="43.7581" lon="7.0191">
        <ele>949</ele>
        <time>2011-07-16T15:41:28Z</time>
      </trkpt>
      <trkpt lat="43.75812" lon="7.0191">
        <ele>949</ele>
        <time>2011-07-16T15:41:29Z</time>
      </trkpt>
      <trkpt lat="43.75813" lon="7.01909">
        <ele>950</ele>
        <time>2011-07-16T15:41:30Z</time>
      </trkpt>
      <trkpt lat="43.75814" lon="7.01907">
        <ele>950</ele>
        <time>2011-07-16T15:41:31Z</time>
      </trkpt>
      <trkpt lat="43.75814" lon="7.01906">
        <ele>950</ele>
        <time>2011-07-16T15:41:34Z</time>
      </trkpt>
      <trkpt lat="43.75814" lon="7.01906">
        <ele>950</ele>
        <time>2011-07-16T15:41:35Z</time>
      </trkpt>
      <trkpt lat="43.75814" lon="7.01905">
        <ele>950</ele>
        <time>2011-07-16T15:41:36Z</time>
      </trkpt>
      <trkpt lat="43.75814" lon="7.01905">
        <ele>950</ele>
        <time>2011-07-16T15:41:37Z</time>
      </trkpt>
      <trkpt lat="43.75814" lon="7.01904">
        <ele>950</ele>
        <time>2011-07-16T15:41:38Z</time>
      </trkpt>
      <trkpt lat="43.75814" lon="7.01903">
        <ele>951</ele>
        <time>2011-07-16T15:41:39Z</time>
      </trkpt>
      <trkpt lat="43.75813" lon="7.01903">
        <ele>951</ele>
        <time>2011-07-16T15:41:40Z</time>
      </trkpt>
      <trkpt lat="43.75812" lon="7.01901">
        <ele>951</ele>
        <time>2011-07-16T15:41:41Z</time>
      </trkpt>
      <trkpt lat="43.75811" lon="7.019">
        <ele>951</ele>
        <time>2011-07-16T15:41:42Z</time>
      </trkpt>
      <trkpt lat="43.7581" lon="7.01898">
        <ele>951</ele>
        <time>2011-07-16T15:41:43Z</time>
      </trkpt>
      <trkpt lat="43.75809" lon="7.01896">
        <ele>951</ele>
        <time>2011-07-16T15:41:44Z</time>
      </trkpt>
      <trkpt lat="43.75807" lon="7.01893">
        <ele>951</ele>
        <time>2011-07-16T15:41:45Z</time>
      </trkpt>
      <trkpt lat="43.75806" lon="7.0189">
        <ele>951</ele>
        <time>2011-07-16T15:41:46Z</time>
      </trkpt>
      <trkpt lat="43.75806" lon="7.01887">
        <ele>951</ele>
        <time>2011-07-16T15:41:47Z</time>
      </trkpt>
      <trkpt lat="43.75805" lon="7.01884">
        <ele>951</ele>
        <time>2011-07-16T15:41:48Z</time>
      </trkpt>
      <trkpt lat="43.75804" lon="7.0188">
        <ele>951</ele>
        <time>2011-07-16T15:41:49Z</time>
      </trkpt>
      <trkpt lat="43.75805" lon="7.01877">
        <ele>951</ele>
        <time>2011-07-16T15:41:50Z</time>
      </trkpt>
      <trkpt lat="43.75805" lon="7.01875">
        <ele>951</ele>
        <time>2011-07-16T15:41:51Z</time>
      </trkpt>
      <trkpt lat="43.75806" lon="7.01872">
        <ele>951</ele>
        <time>2011-07-16T15:41:52Z</time>
      </trkpt>
      <trkpt lat="43.75806" lon="7.01868">
        <ele>951</ele>
        <time>2011-07-16T15:41:53Z</time>
      </trkpt>
      <trkpt lat="43.75806" lon="7.01865">
        <ele>951</ele>
        <time>2011-07-16T15:41:54Z</time>
      </trkpt>
      <trkpt lat="43.75806" lon="7.01861">
        <ele>951</ele>
        <time>2011-07-16T15:41:55Z</time>
      </trkpt>
      <trkpt lat="43.75807" lon="7.01857">
        <ele>951</ele>
        <time>2011-07-16T15:41:56Z</time>
      </trkpt>
      <trkpt lat="43.75807" lon="7.01853">
        <ele>951</ele>
        <time>2011-07-16T15:41:57Z</time>
      </trkpt>
      <trkpt lat="43.75807" lon="7.01848">
        <ele>951</ele>
        <time>2011-07-16T15:41:58Z</time>
      </trkpt>
      <trkpt lat="43.75808" lon="7.0184">
        <ele>951</ele>
        <time>2011-07-16T15:42:00Z</time>
      </trkpt>
      <trkpt lat="43.75808" lon="7.01835">
        <ele>951</ele>
        <time>2011-07-16T15:42:01Z</time>
      </trkpt>
      <trkpt lat="43.75808" lon="7.01831">
        <ele>952</ele>
        <time>2011-07-16T15:42:02Z</time>
      </trkpt>
      <trkpt lat="43.75808" lon="7.01827">
        <ele>952</ele>
        <time>2011-07-16T15:42:03Z</time>
      </trkpt>
      <trkpt lat="43.75807" lon="7.01823">
        <ele>952</ele>
        <time>2011-07-16T15:42:04Z</time>
      </trkpt>
      <trkpt lat="43.75806" lon="7.01811">
        <ele>952</ele>
        <time>2011-07-16T15:42:07Z</time>
      </trkpt>
      <trkpt lat="43.75806" lon="7.01807">
        <ele>953</ele>
        <time>2011-07-16T15:42:08Z</time>
      </trkpt>
      <trkpt lat="43.75806" lon="7.01798">
        <ele>953</ele>
        <time>2011-07-16T15:42:10Z</time>
      </trkpt>
      <trkpt lat="43.75806" lon="7.0179">
        <ele>953</ele>
        <time>2011-07-16T15:42:12Z</time>
      </trkpt>
      <trkpt lat="43.75807" lon="7.01786">
        <ele>953</ele>
        <time>2011-07-16T15:42:13Z</time>
      </trkpt>
      <trkpt lat="43.75807" lon="7.01781">
        <ele>953</ele>
        <time>2011-07-16T15:42:14Z</time>
      </trkpt>
      <trkpt lat="43.75806" lon="7.01777">
        <ele>953</ele>
        <time>2011-07-16T15:42:15Z</time>
      </trkpt>
      <trkpt lat="43.75806" lon="7.01773">
        <ele>953</ele>
        <time>2011-07-16T15:42:16Z</time>
      </trkpt>
      <trkpt lat="43.75806" lon="7.01768">
        <ele>953</ele>
        <time>2011-07-16T15:42:17Z</time>
      </trkpt>
      <trkpt lat="43.75806" lon="7.01764">
        <ele>953</ele>
        <time>2011-07-16T15:42:18Z</time>
      </trkpt>
      <trkpt lat="43.75806" lon="7.01755">
        <ele>952</ele>
        <time>2011-07-16T15:42:20Z</time>
      </trkpt>
      <trkpt lat="43.75806" lon="7.0175">
        <ele>952</ele>
        <time>2011-07-16T15:42:21Z</time>
      </trkpt>
      <trkpt lat="43.75807" lon="7.01745">
        <ele>952</ele>
        <time>2011-07-16T15:42:22Z</time>
      </trkpt>
      <trkpt lat="43.75808" lon="7.0174">
        <ele>952</ele>
        <time>2011-07-16T15:42:23Z</time>
      </trkpt>
      <trkpt lat="43.75809" lon="7.01736">
        <ele>952</ele>
        <time>2011-07-16T15:42:24Z</time>
      </trkpt>
      <trkpt lat="43.75811" lon="7.01732">
        <ele>952</ele>
        <time>2011-07-16T15:42:25Z</time>
      </trkpt>
      <trkpt lat="43.75812" lon="7.01728">
        <ele>953</ele>
        <time>2011-07-16T15:42:26Z</time>
      </trkpt>
      <trkpt lat="43.75813" lon="7.01723">
        <ele>953</ele>
        <time>2011-07-16T15:42:27Z</time>
      </trkpt>
      <trkpt lat="43.75814" lon="7.01719">
        <ele>953</ele>
        <time>2011-07-16T15:42:28Z</time>
      </trkpt>
      <trkpt lat="43.75816" lon="7.01715">
        <ele>954</ele>
        <time>2011-07-16T15:42:29Z</time>
      </trkpt>
      <trkpt lat="43.75816" lon="7.01711">
        <ele>954</ele>
        <time>2011-07-16T15:42:30Z</time>
      </trkpt>
      <trkpt lat="43.75816" lon="7.01708">
        <ele>955</ele>
        <time>2011-07-16T15:42:31Z</time>
      </trkpt>
      <trkpt lat="43.75817" lon="7.01704">
        <ele>955</ele>
        <time>2011-07-16T15:42:32Z</time>
      </trkpt>
      <trkpt lat="43.75817" lon="7.017">
        <ele>955</ele>
        <time>2011-07-16T15:42:33Z</time>
      </trkpt>
      <trkpt lat="43.75816" lon="7.01697">
        <ele>955</ele>
        <time>2011-07-16T15:42:34Z</time>
      </trkpt>
      <trkpt lat="43.75816" lon="7.01693">
        <ele>955</ele>
        <time>2011-07-16T15:42:35Z</time>
      </trkpt>
      <trkpt lat="43.75816" lon="7.01689">
        <ele>955</ele>
        <time>2011-07-16T15:42:36Z</time>
      </trkpt>
      <trkpt lat="43.75815" lon="7.01686">
        <ele>955</ele>
        <time>2011-07-16T15:42:37Z</time>
      </trkpt>
      <trkpt lat="43.75815" lon="7.01682">
        <ele>955</ele>
        <time>2011-07-16T15:42:38Z</time>
      </trkpt>
      <trkpt lat="43.75813" lon="7.01675">
        <ele>956</ele>
        <time>2011-07-16T15:42:40Z</time>
      </trkpt>
      <trkpt lat="43.75813" lon="7.01672">
        <ele>956</ele>
        <time>2011-07-16T15:42:41Z</time>
      </trkpt>
      <trkpt lat="43.75812" lon="7.01668">
        <ele>956</ele>
        <time>2011-07-16T15:42:42Z</time>
      </trkpt>
      <trkpt lat="43.7581" lon="7.01665">
        <ele>956</ele>
        <time>2011-07-16T15:42:43Z</time>
      </trkpt>
      <trkpt lat="43.75809" lon="7.01661">
        <ele>956</ele>
        <time>2011-07-16T15:42:44Z</time>
      </trkpt>
      <trkpt lat="43.75807" lon="7.01658">
        <ele>956</ele>
        <time>2011-07-16T15:42:45Z</time>
      </trkpt>
      <trkpt lat="43.75805" lon="7.01655">
        <ele>956</ele>
        <time>2011-07-16T15:42:46Z</time>
      </trkpt>
      <trkpt lat="43.75803" lon="7.01652">
        <ele>956</ele>
        <time>2011-07-16T15:42:47Z</time>
      </trkpt>
      <trkpt lat="43.75801" lon="7.01649">
        <ele>956</ele>
        <time>2011-07-16T15:42:48Z</time>
      </trkpt>
      <trkpt lat="43.758" lon="7.01646">
        <ele>956</ele>
        <time>2011-07-16T15:42:49Z</time>
      </trkpt>
      <trkpt lat="43.75799" lon="7.01642">
        <ele>956</ele>
        <time>2011-07-16T15:42:50Z</time>
      </trkpt>
      <trkpt lat="43.75798" lon="7.01638">
        <ele>956</ele>
        <time>2011-07-16T15:42:51Z</time>
      </trkpt>
      <trkpt lat="43.75798" lon="7.0163">
        <ele>956</ele>
        <time>2011-07-16T15:42:53Z</time>
      </trkpt>
      <trkpt lat="43.75798" lon="7.01621">
        <ele>956</ele>
        <time>2011-07-16T15:42:55Z</time>
      </trkpt>
      <trkpt lat="43.75798" lon="7.01616">
        <ele>956</ele>
        <time>2011-07-16T15:42:56Z</time>
      </trkpt>
      <trkpt lat="43.75797" lon="7.01612">
        <ele>956</ele>
        <time>2011-07-16T15:42:57Z</time>
      </trkpt>
      <trkpt lat="43.75797" lon="7.01607">
        <ele>956</ele>
        <time>2011-07-16T15:42:58Z</time>
      </trkpt>
      <trkpt lat="43.75797" lon="7.01602">
        <ele>955</ele>
        <time>2011-07-16T15:42:59Z</time>
      </trkpt>
      <trkpt lat="43.75797" lon="7.01598">
        <ele>955</ele>
        <time>2011-07-16T15:43:00Z</time>
      </trkpt>
      <trkpt lat="43.75799" lon="7.01594">
        <ele>955</ele>
        <time>2011-07-16T15:43:01Z</time>
      </trkpt>
      <trkpt lat="43.75801" lon="7.0159">
        <ele>956</ele>
        <time>2011-07-16T15:43:02Z</time>
      </trkpt>
      <trkpt lat="43.75806" lon="7.01585">
        <ele>956</ele>
        <time>2011-07-16T15:43:04Z</time>
      </trkpt>
      <trkpt lat="43.75808" lon="7.01582">
        <ele>956</ele>
        <time>2011-07-16T15:43:05Z</time>
      </trkpt>
      <trkpt lat="43.75811" lon="7.0158">
        <ele>956</ele>
        <time>2011-07-16T15:43:06Z</time>
      </trkpt>
      <trkpt lat="43.75818" lon="7.01571">
        <ele>956</ele>
        <time>2011-07-16T15:43:09Z</time>
      </trkpt>
      <trkpt lat="43.7582" lon="7.01567">
        <ele>956</ele>
        <time>2011-07-16T15:43:10Z</time>
      </trkpt>
      <trkpt lat="43.75823" lon="7.01564">
        <ele>956</ele>
        <time>2011-07-16T15:43:11Z</time>
      </trkpt>
      <trkpt lat="43.75825" lon="7.01561">
        <ele>956</ele>
        <time>2011-07-16T15:43:12Z</time>
      </trkpt>
      <trkpt lat="43.75827" lon="7.01558">
        <ele>956</ele>
        <time>2011-07-16T15:43:13Z</time>
      </trkpt>
      <trkpt lat="43.75829" lon="7.01556">
        <ele>956</ele>
        <time>2011-07-16T15:43:14Z</time>
      </trkpt>
      <trkpt lat="43.75831" lon="7.01553">
        <ele>956</ele>
        <time>2011-07-16T15:43:15Z</time>
      </trkpt>
      <trkpt lat="43.75834" lon="7.01552">
        <ele>956</ele>
        <time>2011-07-16T15:43:16Z</time>
      </trkpt>
      <trkpt lat="43.75836" lon="7.0155">
        <ele>955</ele>
        <time>2011-07-16T15:43:17Z</time>
      </trkpt>
      <trkpt lat="43.75839" lon="7.01548">
        <ele>955</ele>
        <time>2011-07-16T15:43:18Z</time>
      </trkpt>
      <trkpt lat="43.75842" lon="7.01546">
        <ele>955</ele>
        <time>2011-07-16T15:43:19Z</time>
      </trkpt>
      <trkpt lat="43.75846" lon="7.01544">
        <ele>955</ele>
        <time>2011-07-16T15:43:20Z</time>
      </trkpt>
      <trkpt lat="43.7585" lon="7.0154">
        <ele>954</ele>
        <time>2011-07-16T15:43:21Z</time>
      </trkpt>
      <trkpt lat="43.75854" lon="7.01537">
        <ele>954</ele>
        <time>2011-07-16T15:43:22Z</time>
      </trkpt>
      <trkpt lat="43.75858" lon="7.01535">
        <ele>954</ele>
        <time>2011-07-16T15:43:23Z</time>
      </trkpt>
      <trkpt lat="43.75862" lon="7.01532">
        <ele>954</ele>
        <time>2011-07-16T15:43:24Z</time>
      </trkpt>
      <trkpt lat="43.75866" lon="7.0153">
        <ele>953</ele>
        <time>2011-07-16T15:43:25Z</time>
      </trkpt>
      <trkpt lat="43.7587" lon="7.01527">
        <ele>953</ele>
        <time>2011-07-16T15:43:26Z</time>
      </trkpt>
      <trkpt lat="43.75875" lon="7.01525">
        <ele>953</ele>
        <time>2011-07-16T15:43:27Z</time>
      </trkpt>
      <trkpt lat="43.75884" lon="7.0152">
        <ele>952</ele>
        <time>2011-07-16T15:43:29Z</time>
      </trkpt>
      <trkpt lat="43.75889" lon="7.01518">
        <ele>952</ele>
        <time>2011-07-16T15:43:30Z</time>
      </trkpt>
      <trkpt lat="43.75894" lon="7.01515">
        <ele>951</ele>
        <time>2011-07-16T15:43:31Z</time>
      </trkpt>
      <trkpt lat="43.75944" lon="7.01498">
        <ele>948</ele>
        <time>2011-07-16T15:43:41Z</time>
      </trkpt>
      <trkpt lat="43.75948" lon="7.01497">
        <ele>948</ele>
        <time>2011-07-16T15:43:42Z</time>
      </trkpt>
      <trkpt lat="43.75952" lon="7.01496">
        <ele>948</ele>
        <time>2011-07-16T15:43:43Z</time>
      </trkpt>
      <trkpt lat="43.75957" lon="7.01495">
        <ele>947</ele>
        <time>2011-07-16T15:43:44Z</time>
      </trkpt>
      <trkpt lat="43.75961" lon="7.01493">
        <ele>947</ele>
        <time>2011-07-16T15:43:45Z</time>
      </trkpt>
      <trkpt lat="43.75966" lon="7.01492">
        <ele>947</ele>
        <time>2011-07-16T15:43:46Z</time>
      </trkpt>
      <trkpt lat="43.75971" lon="7.0149">
        <ele>947</ele>
        <time>2011-07-16T15:43:47Z</time>
      </trkpt>
      <trkpt lat="43.75975" lon="7.01489">
        <ele>947</ele>
        <time>2011-07-16T15:43:48Z</time>
      </trkpt>
      <trkpt lat="43.7598" lon="7.01487">
        <ele>947</ele>
        <time>2011-07-16T15:43:49Z</time>
      </trkpt>
      <trkpt lat="43.75984" lon="7.01484">
        <ele>946</ele>
        <time>2011-07-16T15:43:50Z</time>
      </trkpt>
      <trkpt lat="43.75989" lon="7.01482">
        <ele>946</ele>
        <time>2011-07-16T15:43:51Z</time>
      </trkpt>
      <trkpt lat="43.75994" lon="7.01481">
        <ele>946</ele>
        <time>2011-07-16T15:43:52Z</time>
      </trkpt>
      <trkpt lat="43.75998" lon="7.01478">
        <ele>946</ele>
        <time>2011-07-16T15:43:53Z</time>
      </trkpt>
      <trkpt lat="43.76002" lon="7.01476">
        <ele>945</ele>
        <time>2011-07-16T15:43:54Z</time>
      </trkpt>
      <trkpt lat="43.76007" lon="7.01474">
        <ele>945</ele>
        <time>2011-07-16T15:43:55Z</time>
      </trkpt>
      <trkpt lat="43.76011" lon="7.01472">
        <ele>945</ele>
        <time>2011-07-16T15:43:56Z</time>
      </trkpt>
      <trkpt lat="43.76014" lon="7.01471">
        <ele>945</ele>
        <time>2011-07-16T15:43:57Z</time>
      </trkpt>
      <trkpt lat="43.76017" lon="7.01469">
        <ele>945</ele>
        <time>2011-07-16T15:43:58Z</time>
      </trkpt>
      <trkpt lat="43.7602" lon="7.01468">
        <ele>944</ele>
        <time>2011-07-16T15:43:59Z</time>
      </trkpt>
      <trkpt lat="43.76023" lon="7.01466">
        <ele>944</ele>
        <time>2011-07-16T15:44:00Z</time>
      </trkpt>
      <trkpt lat="43.76026" lon="7.01463">
        <ele>943</ele>
        <time>2011-07-16T15:44:01Z</time>
      </trkpt>
      <trkpt lat="43.7603" lon="7.0146">
        <ele>943</ele>
        <time>2011-07-16T15:44:02Z</time>
      </trkpt>
      <trkpt lat="43.76034" lon="7.01458">
        <ele>943</ele>
        <time>2011-07-16T15:44:03Z</time>
      </trkpt>
      <trkpt lat="43.76038" lon="7.01456">
        <ele>943</ele>
        <time>2011-07-16T15:44:04Z</time>
      </trkpt>
      <trkpt lat="43.76042" lon="7.01455">
        <ele>942</ele>
        <time>2011-07-16T15:44:05Z</time>
      </trkpt>
      <trkpt lat="43.76046" lon="7.01454">
        <ele>942</ele>
        <time>2011-07-16T15:44:06Z</time>
      </trkpt>
      <trkpt lat="43.7605" lon="7.01454">
        <ele>942</ele>
        <time>2011-07-16T15:44:07Z</time>
      </trkpt>
      <trkpt lat="43.76054" lon="7.01455">
        <ele>942</ele>
        <time>2011-07-16T15:44:08Z</time>
      </trkpt>
      <trkpt lat="43.76057" lon="7.01456">
        <ele>943</ele>
        <time>2011-07-16T15:44:09Z</time>
      </trkpt>
      <trkpt lat="43.7606" lon="7.01457">
        <ele>943</ele>
        <time>2011-07-16T15:44:10Z</time>
      </trkpt>
      <trkpt lat="43.76063" lon="7.01457">
        <ele>943</ele>
        <time>2011-07-16T15:44:11Z</time>
      </trkpt>
      <trkpt lat="43.76066" lon="7.01457">
        <ele>943</ele>
        <time>2011-07-16T15:44:12Z</time>
      </trkpt>
      <trkpt lat="43.7607" lon="7.01456">
        <ele>943</ele>
        <time>2011-07-16T15:44:13Z</time>
      </trkpt>
      <trkpt lat="43.76073" lon="7.01454">
        <ele>943</ele>
        <time>2011-07-16T15:44:14Z</time>
      </trkpt>
      <trkpt lat="43.76078" lon="7.01452">
        <ele>942</ele>
        <time>2011-07-16T15:44:15Z</time>
      </trkpt>
      <trkpt lat="43.76082" lon="7.0145">
        <ele>942</ele>
        <time>2011-07-16T15:44:16Z</time>
      </trkpt>
      <trkpt lat="43.76086" lon="7.0145">
        <ele>942</ele>
        <time>2011-07-16T15:44:17Z</time>
      </trkpt>
      <trkpt lat="43.7609" lon="7.0145">
        <ele>942</ele>
        <time>2011-07-16T15:44:18Z</time>
      </trkpt>
      <trkpt lat="43.76095" lon="7.0145">
        <ele>942</ele>
        <time>2011-07-16T15:44:19Z</time>
      </trkpt>
      <trkpt lat="43.76099" lon="7.01451">
        <ele>942</ele>
        <time>2011-07-16T15:44:20Z</time>
      </trkpt>
      <trkpt lat="43.76104" lon="7.01451">
        <ele>942</ele>
        <time>2011-07-16T15:44:21Z</time>
      </trkpt>
      <trkpt lat="43.76109" lon="7.01451">
        <ele>942</ele>
        <time>2011-07-16T15:44:22Z</time>
      </trkpt>
      <trkpt lat="43.76114" lon="7.0145">
        <ele>942</ele>
        <time>2011-07-16T15:44:23Z</time>
      </trkpt>
      <trkpt lat="43.76118" lon="7.01448">
        <ele>942</ele>
        <time>2011-07-16T15:44:24Z</time>
      </trkpt>
      <trkpt lat="43.76123" lon="7.01447">
        <ele>942</ele>
        <time>2011-07-16T15:44:25Z</time>
      </trkpt>
      <trkpt lat="43.76127" lon="7.01446">
        <ele>942</ele>
        <time>2011-07-16T15:44:26Z</time>
      </trkpt>
      <trkpt lat="43.76131" lon="7.01446">
        <ele>942</ele>
        <time>2011-07-16T15:44:27Z</time>
      </trkpt>
      <trkpt lat="43.76135" lon="7.01446">
        <ele>942</ele>
        <time>2011-07-16T15:44:28Z</time>
      </trkpt>
      <trkpt lat="43.7614" lon="7.01447">
        <ele>941</ele>
        <time>2011-07-16T15:44:29Z</time>
      </trkpt>
      <trkpt lat="43.76145" lon="7.01449">
        <ele>941</ele>
        <time>2011-07-16T15:44:30Z</time>
      </trkpt>
      <trkpt lat="43.76149" lon="7.0145">
        <ele>941</ele>
        <time>2011-07-16T15:44:31Z</time>
      </trkpt>
      <trkpt lat="43.76154" lon="7.01451">
        <ele>941</ele>
        <time>2011-07-16T15:44:32Z</time>
      </trkpt>
      <trkpt lat="43.76158" lon="7.01449">
        <ele>941</ele>
        <time>2011-07-16T15:44:33Z</time>
      </trkpt>
      <trkpt lat="43.7616" lon="7.01445">
        <ele>941</ele>
        <time>2011-07-16T15:44:34Z</time>
      </trkpt>
      <trkpt lat="43.76161" lon="7.0144">
        <ele>942</ele>
        <time>2011-07-16T15:44:35Z</time>
      </trkpt>
      <trkpt lat="43.76162" lon="7.01435">
        <ele>942</ele>
        <time>2011-07-16T15:44:36Z</time>
      </trkpt>
      <trkpt lat="43.76162" lon="7.01431">
        <ele>942</ele>
        <time>2011-07-16T15:44:37Z</time>
      </trkpt>
      <trkpt lat="43.76163" lon="7.01427">
        <ele>943</ele>
        <time>2011-07-16T15:44:38Z</time>
      </trkpt>
      <trkpt lat="43.76163" lon="7.01423">
        <ele>943</ele>
        <time>2011-07-16T15:44:39Z</time>
      </trkpt>
      <trkpt lat="43.76164" lon="7.01419">
        <ele>943</ele>
        <time>2011-07-16T15:44:40Z</time>
      </trkpt>
      <trkpt lat="43.76164" lon="7.01416">
        <ele>943</ele>
        <time>2011-07-16T15:44:41Z</time>
      </trkpt>
      <trkpt lat="43.76165" lon="7.01413">
        <ele>944</ele>
        <time>2011-07-16T15:44:42Z</time>
      </trkpt>
      <trkpt lat="43.76166" lon="7.0141">
        <ele>944</ele>
        <time>2011-07-16T15:44:43Z</time>
      </trkpt>
      <trkpt lat="43.76167" lon="7.01408">
        <ele>944</ele>
        <time>2011-07-16T15:44:44Z</time>
      </trkpt>
      <trkpt lat="43.76168" lon="7.01405">
        <ele>944</ele>
        <time>2011-07-16T15:44:45Z</time>
      </trkpt>
      <trkpt lat="43.76169" lon="7.01403">
        <ele>945</ele>
        <time>2011-07-16T15:44:46Z</time>
      </trkpt>
      <trkpt lat="43.7617" lon="7.01401">
        <ele>945</ele>
        <time>2011-07-16T15:44:47Z</time>
      </trkpt>
      <trkpt lat="43.76172" lon="7.01399">
        <ele>945</ele>
        <time>2011-07-16T15:44:48Z</time>
      </trkpt>
      <trkpt lat="43.76174" lon="7.01397">
        <ele>945</ele>
        <time>2011-07-16T15:44:49Z</time>
      </trkpt>
      <trkpt lat="43.76176" lon="7.01395">
        <ele>945</ele>
        <time>2011-07-16T15:44:50Z</time>
      </trkpt>
      <trkpt lat="43.76179" lon="7.01394">
        <ele>945</ele>
        <time>2011-07-16T15:44:51Z</time>
      </trkpt>
      <trkpt lat="43.76181" lon="7.01392">
        <ele>945</ele>
        <time>2011-07-16T15:44:52Z</time>
      </trkpt>
      <trkpt lat="43.76183" lon="7.0139">
        <ele>945</ele>
        <time>2011-07-16T15:44:53Z</time>
      </trkpt>
      <trkpt lat="43.76185" lon="7.01388">
        <ele>945</ele>
        <time>2011-07-16T15:44:54Z</time>
      </trkpt>
      <trkpt lat="43.76187" lon="7.01386">
        <ele>945</ele>
        <time>2011-07-16T15:44:55Z</time>
      </trkpt>
      <trkpt lat="43.76188" lon="7.01383">
        <ele>945</ele>
        <time>2011-07-16T15:44:56Z</time>
      </trkpt>
      <trkpt lat="43.76189" lon="7.01381">
        <ele>945</ele>
        <time>2011-07-16T15:44:57Z</time>
      </trkpt>
      <trkpt lat="43.7619" lon="7.0138">
        <ele>945</ele>
        <time>2011-07-16T15:44:58Z</time>
      </trkpt>
      <trkpt lat="43.76192" lon="7.01379">
        <ele>945</ele>
        <time>2011-07-16T15:44:59Z</time>
      </trkpt>
      <trkpt lat="43.76195" lon="7.01378">
        <ele>945</ele>
        <time>2011-07-16T15:45:00Z</time>
      </trkpt>
      <trkpt lat="43.76197" lon="7.01378">
        <ele>945</ele>
        <time>2011-07-16T15:45:01Z</time>
      </trkpt>
      <trkpt lat="43.762" lon="7.01378">
        <ele>945</ele>
        <time>2011-07-16T15:45:02Z</time>
      </trkpt>
      <trkpt lat="43.76203" lon="7.01377">
        <ele>945</ele>
        <time>2011-07-16T15:45:03Z</time>
      </trkpt>
      <trkpt lat="43.76206" lon="7.01376">
        <ele>945</ele>
        <time>2011-07-16T15:45:04Z</time>
      </trkpt>
      <trkpt lat="43.76208" lon="7.01375">
        <ele>945</ele>
        <time>2011-07-16T15:45:05Z</time>
      </trkpt>
      <trkpt lat="43.7621" lon="7.01374">
        <ele>945</ele>
        <time>2011-07-16T15:45:06Z</time>
      </trkpt>
      <trkpt lat="43.76212" lon="7.01371">
        <ele>945</ele>
        <time>2011-07-16T15:45:07Z</time>
      </trkpt>
      <trkpt lat="43.76214" lon="7.01368">
        <ele>945</ele>
        <time>2011-07-16T15:45:08Z</time>
      </trkpt>
      <trkpt lat="43.76215" lon="7.01364">
        <ele>945</ele>
        <time>2011-07-16T15:45:09Z</time>
      </trkpt>
      <trkpt lat="43.76215" lon="7.01359">
        <ele>945</ele>
        <time>2011-07-16T15:45:10Z</time>
      </trkpt>
      <trkpt lat="43.76215" lon="7.01355">
        <ele>945</ele>
        <time>2011-07-16T15:45:11Z</time>
      </trkpt>
      <trkpt lat="43.76214" lon="7.01351">
        <ele>945</ele>
        <time>2011-07-16T15:45:12Z</time>
      </trkpt>
      <trkpt lat="43.76213" lon="7.01347">
        <ele>945</ele>
        <time>2011-07-16T15:45:13Z</time>
      </trkpt>
      <trkpt lat="43.76212" lon="7.01344">
        <ele>946</ele>
        <time>2011-07-16T15:45:14Z</time>
      </trkpt>
      <trkpt lat="43.76211" lon="7.0134">
        <ele>946</ele>
        <time>2011-07-16T15:45:15Z</time>
      </trkpt>
      <trkpt lat="43.7621" lon="7.01337">
        <ele>946</ele>
        <time>2011-07-16T15:45:16Z</time>
      </trkpt>
      <trkpt lat="43.7621" lon="7.01334">
        <ele>946</ele>
        <time>2011-07-16T15:45:17Z</time>
      </trkpt>
      <trkpt lat="43.7621" lon="7.01331">
        <ele>946</ele>
        <time>2011-07-16T15:45:18Z</time>
      </trkpt>
      <trkpt lat="43.76211" lon="7.01328">
        <ele>946</ele>
        <time>2011-07-16T15:45:19Z</time>
      </trkpt>
      <trkpt lat="43.76212" lon="7.01325">
        <ele>946</ele>
        <time>2011-07-16T15:45:20Z</time>
      </trkpt>
      <trkpt lat="43.76213" lon="7.01322">
        <ele>946</ele>
        <time>2011-07-16T15:45:21Z</time>
      </trkpt>
      <trkpt lat="43.76215" lon="7.0132">
        <ele>946</ele>
        <time>2011-07-16T15:45:22Z</time>
      </trkpt>
      <trkpt lat="43.76217" lon="7.01318">
        <ele>947</ele>
        <time>2011-07-16T15:45:23Z</time>
      </trkpt>
      <trkpt lat="43.7622" lon="7.01315">
        <ele>946</ele>
        <time>2011-07-16T15:45:24Z</time>
      </trkpt>
      <trkpt lat="43.76223" lon="7.01313">
        <ele>946</ele>
        <time>2011-07-16T15:45:25Z</time>
      </trkpt>
      <trkpt lat="43.76227" lon="7.01311">
        <ele>946</ele>
        <time>2011-07-16T15:45:26Z</time>
      </trkpt>
      <trkpt lat="43.76232" lon="7.01309">
        <ele>945</ele>
        <time>2011-07-16T15:45:27Z</time>
      </trkpt>
      <trkpt lat="43.76236" lon="7.01307">
        <ele>945</ele>
        <time>2011-07-16T15:45:28Z</time>
      </trkpt>
      <trkpt lat="43.7624" lon="7.01306">
        <ele>945</ele>
        <time>2011-07-16T15:45:29Z</time>
      </trkpt>
      <trkpt lat="43.76244" lon="7.01305">
        <ele>945</ele>
        <time>2011-07-16T15:45:30Z</time>
      </trkpt>
      <trkpt lat="43.76249" lon="7.01305">
        <ele>946</ele>
        <time>2011-07-16T15:45:31Z</time>
      </trkpt>
      <trkpt lat="43.76252" lon="7.01304">
        <ele>946</ele>
        <time>2011-07-16T15:45:32Z</time>
      </trkpt>
      <trkpt lat="43.76255" lon="7.01303">
        <ele>946</ele>
        <time>2011-07-16T15:45:33Z</time>
      </trkpt>
      <trkpt lat="43.76258" lon="7.01302">
        <ele>946</ele>
        <time>2011-07-16T15:45:34Z</time>
      </trkpt>
      <trkpt lat="43.76261" lon="7.013">
        <ele>946</ele>
        <time>2011-07-16T15:45:35Z</time>
      </trkpt>
      <trkpt lat="43.76263" lon="7.01298">
        <ele>947</ele>
        <time>2011-07-16T15:45:36Z</time>
      </trkpt>
      <trkpt lat="43.76265" lon="7.01296">
        <ele>947</ele>
        <time>2011-07-16T15:45:37Z</time>
      </trkpt>
      <trkpt lat="43.76266" lon="7.01293">
        <ele>947</ele>
        <time>2011-07-16T15:45:38Z</time>
      </trkpt>
      <trkpt lat="43.76267" lon="7.0129">
        <ele>947</ele>
        <time>2011-07-16T15:45:39Z</time>
      </trkpt>
      <trkpt lat="43.76268" lon="7.01287">
        <ele>948</ele>
        <time>2011-07-16T15:45:40Z</time>
      </trkpt>
      <trkpt lat="43.76269" lon="7.01283">
        <ele>948</ele>
        <time>2011-07-16T15:45:41Z</time>
      </trkpt>
      <trkpt lat="43.76269" lon="7.0128">
        <ele>948</ele>
        <time>2011-07-16T15:45:42Z</time>
      </trkpt>
      <trkpt lat="43.7627" lon="7.01277">
        <ele>948</ele>
        <time>2011-07-16T15:45:43Z</time>
      </trkpt>
      <trkpt lat="43.76271" lon="7.01274">
        <ele>948</ele>
        <time>2011-07-16T15:45:44Z</time>
      </trkpt>
      <trkpt lat="43.76272" lon="7.01271">
        <ele>948</ele>
        <time>2011-07-16T15:45:45Z</time>
      </trkpt>
      <trkpt lat="43.76273" lon="7.01268">
        <ele>948</ele>
        <time>2011-07-16T15:45:46Z</time>
      </trkpt>
      <trkpt lat="43.76275" lon="7.01265">
        <ele>948</ele>
        <time>2011-07-16T15:45:47Z</time>
      </trkpt>
      <trkpt lat="43.76277" lon="7.01262">
        <ele>948</ele>
        <time>2011-07-16T15:45:48Z</time>
      </trkpt>
      <trkpt lat="43.7628" lon="7.01258">
        <ele>947</ele>
        <time>2011-07-16T15:45:49Z</time>
      </trkpt>
      <trkpt lat="43.76283" lon="7.01253">
        <ele>947</ele>
        <time>2011-07-16T15:45:50Z</time>
      </trkpt>
      <trkpt lat="43.76286" lon="7.01247">
        <ele>946</ele>
        <time>2011-07-16T15:45:51Z</time>
      </trkpt>
      <trkpt lat="43.7629" lon="7.01242">
        <ele>946</ele>
        <time>2011-07-16T15:45:52Z</time>
      </trkpt>
      <trkpt lat="43.7631" lon="7.01195">
        <ele>946</ele>
        <time>2011-07-16T15:46:02Z</time>
      </trkpt>
      <trkpt lat="43.7631" lon="7.01186">
        <ele>946</ele>
        <time>2011-07-16T15:46:04Z</time>
      </trkpt>
      <trkpt lat="43.76311" lon="7.01183">
        <ele>947</ele>
        <time>2011-07-16T15:46:05Z</time>
      </trkpt>
      <trkpt lat="43.76311" lon="7.01179">
        <ele>947</ele>
        <time>2011-07-16T15:46:06Z</time>
      </trkpt>
      <trkpt lat="43.76311" lon="7.01176">
        <ele>947</ele>
        <time>2011-07-16T15:46:07Z</time>
      </trkpt>
      <trkpt lat="43.7631" lon="7.01172">
        <ele>947</ele>
        <time>2011-07-16T15:46:08Z</time>
      </trkpt>
      <trkpt lat="43.7631" lon="7.01169">
        <ele>948</ele>
        <time>2011-07-16T15:46:09Z</time>
      </trkpt>
      <trkpt lat="43.7631" lon="7.01166">
        <ele>948</ele>
        <time>2011-07-16T15:46:10Z</time>
      </trkpt>
      <trkpt lat="43.76311" lon="7.01163">
        <ele>948</ele>
        <time>2011-07-16T15:46:11Z</time>
      </trkpt>
      <trkpt lat="43.76311" lon="7.01158">
        <ele>949</ele>
        <time>2011-07-16T15:46:13Z</time>
      </trkpt>
      <trkpt lat="43.7631" lon="7.01155">
        <ele>949</ele>
        <time>2011-07-16T15:46:14Z</time>
      </trkpt>
      <trkpt lat="43.76309" lon="7.01148">
        <ele>949</ele>
        <time>2011-07-16T15:46:16Z</time>
      </trkpt>
      <trkpt lat="43.76309" lon="7.01142">
        <ele>949</ele>
        <time>2011-07-16T15:46:18Z</time>
      </trkpt>
      <trkpt lat="43.76309" lon="7.01139">
        <ele>949</ele>
        <time>2011-07-16T15:46:19Z</time>
      </trkpt>
      <trkpt lat="43.76309" lon="7.01135">
        <ele>948</ele>
        <time>2011-07-16T15:46:20Z</time>
      </trkpt>
      <trkpt lat="43.76309" lon="7.01132">
        <ele>948</ele>
        <time>2011-07-16T15:46:21Z</time>
      </trkpt>
      <trkpt lat="43.7631" lon="7.01129">
        <ele>949</ele>
        <time>2011-07-16T15:46:22Z</time>
      </trkpt>
      <trkpt lat="43.76312" lon="7.01127">
        <ele>949</ele>
        <time>2011-07-16T15:46:23Z</time>
      </trkpt>
      <trkpt lat="43.76315" lon="7.01125">
        <ele>949</ele>
        <time>2011-07-16T15:46:24Z</time>
      </trkpt>
      <trkpt lat="43.76318" lon="7.01122">
        <ele>949</ele>
        <time>2011-07-16T15:46:25Z</time>
      </trkpt>
      <trkpt lat="43.7632" lon="7.01122">
        <ele>949</ele>
        <time>2011-07-16T15:46:26Z</time>
      </trkpt>
      <trkpt lat="43.76323" lon="7.01121">
        <ele>950</ele>
        <time>2011-07-16T15:46:27Z</time>
      </trkpt>
      <trkpt lat="43.76329" lon="7.01119">
        <ele>950</ele>
        <time>2011-07-16T15:46:29Z</time>
      </trkpt>
      <trkpt lat="43.76332" lon="7.01118">
        <ele>950</ele>
        <time>2011-07-16T15:46:30Z</time>
      </trkpt>
      <trkpt lat="43.76334" lon="7.01118">
        <ele>951</ele>
        <time>2011-07-16T15:46:31Z</time>
      </trkpt>
      <trkpt lat="43.76337" lon="7.01117">
        <ele>951</ele>
        <time>2011-07-16T15:46:32Z</time>
      </trkpt>
      <trkpt lat="43.76339" lon="7.01117">
        <ele>951</ele>
        <time>2011-07-16T15:46:33Z</time>
      </trkpt>
      <trkpt lat="43.76341" lon="7.01116">
        <ele>952</ele>
        <time>2011-07-16T15:46:34Z</time>
      </trkpt>
      <trkpt lat="43.76343" lon="7.01116">
        <ele>952</ele>
        <time>2011-07-16T15:46:35Z</time>
      </trkpt>
      <trkpt lat="43.76345" lon="7.01116">
        <ele>952</ele>
        <time>2011-07-16T15:46:36Z</time>
      </trkpt>
      <trkpt lat="43.76347" lon="7.01115">
        <ele>952</ele>
        <time>2011-07-16T15:46:37Z</time>
      </trkpt>
      <trkpt lat="43.76349" lon="7.01115">
        <ele>952</ele>
        <time>2011-07-16T15:46:38Z</time>
      </trkpt>
      <trkpt lat="43.76351" lon="7.01114">
        <ele>952</ele>
        <time>2011-07-16T15:46:39Z</time>
      </trkpt>
      <trkpt lat="43.76355" lon="7.01113">
        <ele>952</ele>
        <time>2011-07-16T15:46:41Z</time>
      </trkpt>
      <trkpt lat="43.76357" lon="7.01112">
        <ele>952</ele>
        <time>2011-07-16T15:46:42Z</time>
      </trkpt>
      <trkpt lat="43.76358" lon="7.01112">
        <ele>953</ele>
        <time>2011-07-16T15:46:43Z</time>
      </trkpt>
      <trkpt lat="43.7636" lon="7.01111">
        <ele>953</ele>
        <time>2011-07-16T15:46:44Z</time>
      </trkpt>
      <trkpt lat="43.76361" lon="7.01111">
        <ele>953</ele>
        <time>2011-07-16T15:46:45Z</time>
      </trkpt>
      <trkpt lat="43.76363" lon="7.01111">
        <ele>953</ele>
        <time>2011-07-16T15:46:46Z</time>
      </trkpt>
      <trkpt lat="43.76365" lon="7.0111">
        <ele>953</ele>
        <time>2011-07-16T15:46:47Z</time>
      </trkpt>
      <trkpt lat="43.76367" lon="7.0111">
        <ele>953</ele>
        <time>2011-07-16T15:46:48Z</time>
      </trkpt>
      <trkpt lat="43.76368" lon="7.0111">
        <ele>953</ele>
        <time>2011-07-16T15:46:49Z</time>
      </trkpt>
      <trkpt lat="43.76375" lon="7.0111">
        <ele>954</ele>
        <time>2011-07-16T15:46:53Z</time>
      </trkpt>
      <trkpt lat="43.76377" lon="7.0111">
        <ele>954</ele>
        <time>2011-07-16T15:46:54Z</time>
      </trkpt>
      <trkpt lat="43.76379" lon="7.01109">
        <ele>954</ele>
        <time>2011-07-16T15:46:55Z</time>
      </trkpt>
      <trkpt lat="43.7638" lon="7.01109">
        <ele>954</ele>
        <time>2011-07-16T15:46:56Z</time>
      </trkpt>
      <trkpt lat="43.76382" lon="7.01107">
        <ele>954</ele>
        <time>2011-07-16T15:46:57Z</time>
      </trkpt>
      <trkpt lat="43.76382" lon="7.01105">
        <ele>955</ele>
        <time>2011-07-16T15:46:58Z</time>
      </trkpt>
      <trkpt lat="43.76382" lon="7.01102">
        <ele>955</ele>
        <time>2011-07-16T15:46:59Z</time>
      </trkpt>
      <trkpt lat="43.76382" lon="7.01099">
        <ele>955</ele>
        <time>2011-07-16T15:47:00Z</time>
      </trkpt>
      <trkpt lat="43.76382" lon="7.01096">
        <ele>955</ele>
        <time>2011-07-16T15:47:01Z</time>
      </trkpt>
      <trkpt lat="43.76381" lon="7.01093">
        <ele>955</ele>
        <time>2011-07-16T15:47:02Z</time>
      </trkpt>
      <trkpt lat="43.7638" lon="7.0109">
        <ele>955</ele>
        <time>2011-07-16T15:47:03Z</time>
      </trkpt>
      <trkpt lat="43.7638" lon="7.01087">
        <ele>955</ele>
        <time>2011-07-16T15:47:04Z</time>
      </trkpt>
      <trkpt lat="43.76379" lon="7.01081">
        <ele>955</ele>
        <time>2011-07-16T15:47:06Z</time>
      </trkpt>
      <trkpt lat="43.76378" lon="7.01078">
        <ele>955</ele>
        <time>2011-07-16T15:47:07Z</time>
      </trkpt>
      <trkpt lat="43.76377" lon="7.01074">
        <ele>955</ele>
        <time>2011-07-16T15:47:08Z</time>
      </trkpt>
      <trkpt lat="43.76377" lon="7.0107">
        <ele>955</ele>
        <time>2011-07-16T15:47:09Z</time>
      </trkpt>
      <trkpt lat="43.76376" lon="7.01066">
        <ele>955</ele>
        <time>2011-07-16T15:47:10Z</time>
      </trkpt>
      <trkpt lat="43.76374" lon="7.01062">
        <ele>955</ele>
        <time>2011-07-16T15:47:11Z</time>
      </trkpt>
      <trkpt lat="43.76373" lon="7.01058">
        <ele>955</ele>
        <time>2011-07-16T15:47:12Z</time>
      </trkpt>
      <trkpt lat="43.76372" lon="7.01055">
        <ele>955</ele>
        <time>2011-07-16T15:47:13Z</time>
      </trkpt>
      <trkpt lat="43.7637" lon="7.01052">
        <ele>955</ele>
        <time>2011-07-16T15:47:14Z</time>
      </trkpt>
      <trkpt lat="43.76369" lon="7.01049">
        <ele>955</ele>
        <time>2011-07-16T15:47:15Z</time>
      </trkpt>
      <trkpt lat="43.76368" lon="7.01046">
        <ele>955</ele>
        <time>2011-07-16T15:47:16Z</time>
      </trkpt>
      <trkpt lat="43.76368" lon="7.01044">
        <ele>955</ele>
        <time>2011-07-16T15:47:17Z</time>
      </trkpt>
      <trkpt lat="43.76367" lon="7.01042">
        <ele>955</ele>
        <time>2011-07-16T15:47:18Z</time>
      </trkpt>
      <trkpt lat="43.76367" lon="7.0104">
        <ele>955</ele>
        <time>2011-07-16T15:47:19Z</time>
      </trkpt>
      <trkpt lat="43.76367" lon="7.01037">
        <ele>955</ele>
        <time>2011-07-16T15:47:20Z</time>
      </trkpt>
      <trkpt lat="43.76366" lon="7.01035">
        <ele>955</ele>
        <time>2011-07-16T15:47:21Z</time>
      </trkpt>
      <trkpt lat="43.76366" lon="7.01032">
        <ele>955</ele>
        <time>2011-07-16T15:47:22Z</time>
      </trkpt>
      <trkpt lat="43.76365" lon="7.01029">
        <ele>955</ele>
        <time>2011-07-16T15:47:23Z</time>
      </trkpt>
      <trkpt lat="43.76364" lon="7.01026">
        <ele>955</ele>
        <time>2011-07-16T15:47:24Z</time>
      </trkpt>
      <trkpt lat="43.76363" lon="7.01024">
        <ele>955</ele>
        <time>2011-07-16T15:47:25Z</time>
      </trkpt>
      <trkpt lat="43.76361" lon="7.01021">
        <ele>955</ele>
        <time>2011-07-16T15:47:26Z</time>
      </trkpt>
      <trkpt lat="43.76358" lon="7.01019">
        <ele>955</ele>
        <time>2011-07-16T15:47:27Z</time>
      </trkpt>
      <trkpt lat="43.76356" lon="7.01018">
        <ele>955</ele>
        <time>2011-07-16T15:47:28Z</time>
      </trkpt>
      <trkpt lat="43.76353" lon="7.01016">
        <ele>955</ele>
        <time>2011-07-16T15:47:29Z</time>
      </trkpt>
      <trkpt lat="43.76351" lon="7.01015">
        <ele>955</ele>
        <time>2011-07-16T15:47:30Z</time>
      </trkpt>
      <trkpt lat="43.76349" lon="7.01013">
        <ele>955</ele>
        <time>2011-07-16T15:47:31Z</time>
      </trkpt>
      <trkpt lat="43.76347" lon="7.01012">
        <ele>955</ele>
        <time>2011-07-16T15:47:32Z</time>
      </trkpt>
      <trkpt lat="43.76345" lon="7.01011">
        <ele>955</ele>
        <time>2011-07-16T15:47:33Z</time>
      </trkpt>
      <trkpt lat="43.76342" lon="7.0101">
        <ele>955</ele>
        <time>2011-07-16T15:47:34Z</time>
      </trkpt>
      <trkpt lat="43.7634" lon="7.01009">
        <ele>955</ele>
        <time>2011-07-16T15:47:35Z</time>
      </trkpt>
      <trkpt lat="43.76338" lon="7.01007">
        <ele>955</ele>
        <time>2011-07-16T15:47:36Z</time>
      </trkpt>
      <trkpt lat="43.76336" lon="7.01005">
        <ele>955</ele>
        <time>2011-07-16T15:47:37Z</time>
      </trkpt>
      <trkpt lat="43.76334" lon="7.01003">
        <ele>955</ele>
        <time>2011-07-16T15:47:38Z</time>
      </trkpt>
      <trkpt lat="43.76331" lon="7.00998">
        <ele>955</ele>
        <time>2011-07-16T15:47:40Z</time>
      </trkpt>
      <trkpt lat="43.7633" lon="7.00996">
        <ele>955</ele>
        <time>2011-07-16T15:47:41Z</time>
      </trkpt>
      <trkpt lat="43.76329" lon="7.00994">
        <ele>955</ele>
        <time>2011-07-16T15:47:42Z</time>
      </trkpt>
      <trkpt lat="43.76327" lon="7.00992">
        <ele>955</ele>
        <time>2011-07-16T15:47:43Z</time>
      </trkpt>
      <trkpt lat="43.76326" lon="7.00989">
        <ele>955</ele>
        <time>2011-07-16T15:47:44Z</time>
      </trkpt>
      <trkpt lat="43.76323" lon="7.00987">
        <ele>954</ele>
        <time>2011-07-16T15:47:45Z</time>
      </trkpt>
      <trkpt lat="43.76321" lon="7.00984">
        <ele>954</ele>
        <time>2011-07-16T15:47:46Z</time>
      </trkpt>
      <trkpt lat="43.76319" lon="7.00981">
        <ele>954</ele>
        <time>2011-07-16T15:47:47Z</time>
      </trkpt>
      <trkpt lat="43.76317" lon="7.00978">
        <ele>954</ele>
        <time>2011-07-16T15:47:48Z</time>
      </trkpt>
      <trkpt lat="43.76316" lon="7.00975">
        <ele>954</ele>
        <time>2011-07-16T15:47:49Z</time>
      </trkpt>
      <trkpt lat="43.76315" lon="7.00971">
        <ele>953</ele>
        <time>2011-07-16T15:47:50Z</time>
      </trkpt>
      <trkpt lat="43.76315" lon="7.00967">
        <ele>953</ele>
        <time>2011-07-16T15:47:51Z</time>
      </trkpt>
      <trkpt lat="43.76316" lon="7.00962">
        <ele>953</ele>
        <time>2011-07-16T15:47:52Z</time>
      </trkpt>
      <trkpt lat="43.76319" lon="7.00958">
        <ele>953</ele>
        <time>2011-07-16T15:47:53Z</time>
      </trkpt>
      <trkpt lat="43.76321" lon="7.00953">
        <ele>952</ele>
        <time>2011-07-16T15:47:54Z</time>
      </trkpt>
      <trkpt lat="43.76325" lon="7.00949">
        <ele>953</ele>
        <time>2011-07-16T15:47:55Z</time>
      </trkpt>
      <trkpt lat="43.76328" lon="7.00944">
        <ele>953</ele>
        <time>2011-07-16T15:47:56Z</time>
      </trkpt>
      <trkpt lat="43.7633" lon="7.0094">
        <ele>953</ele>
        <time>2011-07-16T15:47:57Z</time>
      </trkpt>
      <trkpt lat="43.76331" lon="7.00936">
        <ele>954</ele>
        <time>2011-07-16T15:47:58Z</time>
      </trkpt>
      <trkpt lat="43.76331" lon="7.00932">
        <ele>954</ele>
        <time>2011-07-16T15:47:59Z</time>
      </trkpt>
      <trkpt lat="43.7633" lon="7.00928">
        <ele>954</ele>
        <time>2011-07-16T15:48:00Z</time>
      </trkpt>
      <trkpt lat="43.7633" lon="7.00924">
        <ele>954</ele>
        <time>2011-07-16T15:48:01Z</time>
      </trkpt>
      <trkpt lat="43.76328" lon="7.00921">
        <ele>954</ele>
        <time>2011-07-16T15:48:02Z</time>
      </trkpt>
      <trkpt lat="43.76326" lon="7.00917">
        <ele>954</ele>
        <time>2011-07-16T15:48:03Z</time>
      </trkpt>
      <trkpt lat="43.76325" lon="7.00915">
        <ele>954</ele>
        <time>2011-07-16T15:48:04Z</time>
      </trkpt>
      <trkpt lat="43.76324" lon="7.00912">
        <ele>955</ele>
        <time>2011-07-16T15:48:05Z</time>
      </trkpt>
      <trkpt lat="43.76323" lon="7.00908">
        <ele>955</ele>
        <time>2011-07-16T15:48:06Z</time>
      </trkpt>
      <trkpt lat="43.76322" lon="7.00905">
        <ele>955</ele>
        <time>2011-07-16T15:48:07Z</time>
      </trkpt>
      <trkpt lat="43.76322" lon="7.00901">
        <ele>955</ele>
        <time>2011-07-16T15:48:08Z</time>
      </trkpt>
      <trkpt lat="43.76322" lon="7.00898">
        <ele>955</ele>
        <time>2011-07-16T15:48:09Z</time>
      </trkpt>
      <trkpt lat="43.76323" lon="7.00895">
        <ele>956</ele>
        <time>2011-07-16T15:48:10Z</time>
      </trkpt>
      <trkpt lat="43.76323" lon="7.00891">
        <ele>956</ele>
        <time>2011-07-16T15:48:11Z</time>
      </trkpt>
      <trkpt lat="43.76323" lon="7.00888">
        <ele>956</ele>
        <time>2011-07-16T15:48:12Z</time>
      </trkpt>
      <trkpt lat="43.76323" lon="7.00885">
        <ele>956</ele>
        <time>2011-07-16T15:48:13Z</time>
      </trkpt>
      <trkpt lat="43.76322" lon="7.00882">
        <ele>956</ele>
        <time>2011-07-16T15:48:14Z</time>
      </trkpt>
      <trkpt lat="43.7632" lon="7.00879">
        <ele>956</ele>
        <time>2011-07-16T15:48:15Z</time>
      </trkpt>
      <trkpt lat="43.76319" lon="7.00875">
        <ele>956</ele>
        <time>2011-07-16T15:48:16Z</time>
      </trkpt>
      <trkpt lat="43.76318" lon="7.00872">
        <ele>956</ele>
        <time>2011-07-16T15:48:17Z</time>
      </trkpt>
      <trkpt lat="43.76317" lon="7.00869">
        <ele>956</ele>
        <time>2011-07-16T15:48:18Z</time>
      </trkpt>
      <trkpt lat="43.76316" lon="7.00865">
        <ele>956</ele>
        <time>2011-07-16T15:48:19Z</time>
      </trkpt>
      <trkpt lat="43.76315" lon="7.00861">
        <ele>956</ele>
        <time>2011-07-16T15:48:20Z</time>
      </trkpt>
      <trkpt lat="43.76314" lon="7.00858">
        <ele>956</ele>
        <time>2011-07-16T15:48:21Z</time>
      </trkpt>
      <trkpt lat="43.76313" lon="7.00854">
        <ele>956</ele>
        <time>2011-07-16T15:48:22Z</time>
      </trkpt>
      <trkpt lat="43.76312" lon="7.00849">
        <ele>956</ele>
        <time>2011-07-16T15:48:23Z</time>
      </trkpt>
      <trkpt lat="43.76311" lon="7.00845">
        <ele>956</ele>
        <time>2011-07-16T15:48:24Z</time>
      </trkpt>
      <trkpt lat="43.76309" lon="7.00836">
        <ele>956</ele>
        <time>2011-07-16T15:48:26Z</time>
      </trkpt>
      <trkpt lat="43.76309" lon="7.00832">
        <ele>956</ele>
        <time>2011-07-16T15:48:27Z</time>
      </trkpt>
      <trkpt lat="43.76308" lon="7.00823">
        <ele>956</ele>
        <time>2011-07-16T15:48:29Z</time>
      </trkpt>
      <trkpt lat="43.76308" lon="7.00819">
        <ele>956</ele>
        <time>2011-07-16T15:48:30Z</time>
      </trkpt>
      <trkpt lat="43.76307" lon="7.00815">
        <ele>956</ele>
        <time>2011-07-16T15:48:31Z</time>
      </trkpt>
      <trkpt lat="43.76307" lon="7.00811">
        <ele>956</ele>
        <time>2011-07-16T15:48:32Z</time>
      </trkpt>
      <trkpt lat="43.76307" lon="7.00807">
        <ele>956</ele>
        <time>2011-07-16T15:48:33Z</time>
      </trkpt>
      <trkpt lat="43.76306" lon="7.00803">
        <ele>956</ele>
        <time>2011-07-16T15:48:34Z</time>
      </trkpt>
      <trkpt lat="43.76305" lon="7.00799">
        <ele>956</ele>
        <time>2011-07-16T15:48:35Z</time>
      </trkpt>
      <trkpt lat="43.76303" lon="7.00795">
        <ele>956</ele>
        <time>2011-07-16T15:48:36Z</time>
      </trkpt>
      <trkpt lat="43.76301" lon="7.0079">
        <ele>956</ele>
        <time>2011-07-16T15:48:37Z</time>
      </trkpt>
      <trkpt lat="43.76299" lon="7.00786">
        <ele>956</ele>
        <time>2011-07-16T15:48:38Z</time>
      </trkpt>
      <trkpt lat="43.76298" lon="7.00781">
        <ele>956</ele>
        <time>2011-07-16T15:48:39Z</time>
      </trkpt>
      <trkpt lat="43.76296" lon="7.00776">
        <ele>956</ele>
        <time>2011-07-16T15:48:40Z</time>
      </trkpt>
      <trkpt lat="43.76295" lon="7.00771">
        <ele>956</ele>
        <time>2011-07-16T15:48:41Z</time>
      </trkpt>
      <trkpt lat="43.76293" lon="7.00767">
        <ele>956</ele>
        <time>2011-07-16T15:48:42Z</time>
      </trkpt>
      <trkpt lat="43.7629" lon="7.00763">
        <ele>956</ele>
        <time>2011-07-16T15:48:43Z</time>
      </trkpt>
      <trkpt lat="43.76288" lon="7.0076">
        <ele>956</ele>
        <time>2011-07-16T15:48:44Z</time>
      </trkpt>
      <trkpt lat="43.76284" lon="7.00757">
        <ele>956</ele>
        <time>2011-07-16T15:48:45Z</time>
      </trkpt>
      <trkpt lat="43.76281" lon="7.00754">
        <ele>956</ele>
        <time>2011-07-16T15:48:46Z</time>
      </trkpt>
      <trkpt lat="43.76278" lon="7.00751">
        <ele>956</ele>
        <time>2011-07-16T15:48:47Z</time>
      </trkpt>
      <trkpt lat="43.76275" lon="7.00749">
        <ele>957</ele>
        <time>2011-07-16T15:48:48Z</time>
      </trkpt>
      <trkpt lat="43.76273" lon="7.00746">
        <ele>957</ele>
        <time>2011-07-16T15:48:49Z</time>
      </trkpt>
      <trkpt lat="43.76271" lon="7.00744">
        <ele>957</ele>
        <time>2011-07-16T15:48:50Z</time>
      </trkpt>
      <trkpt lat="43.76269" lon="7.00741">
        <ele>957</ele>
        <time>2011-07-16T15:48:51Z</time>
      </trkpt>
      <trkpt lat="43.76267" lon="7.00739">
        <ele>957</ele>
        <time>2011-07-16T15:48:52Z</time>
      </trkpt>
      <trkpt lat="43.76265" lon="7.00737">
        <ele>957</ele>
        <time>2011-07-16T15:48:53Z</time>
      </trkpt>
      <trkpt lat="43.76264" lon="7.00735">
        <ele>958</ele>
        <time>2011-07-16T15:48:54Z</time>
      </trkpt>
      <trkpt lat="43.76264" lon="7.00732">
        <ele>958</ele>
        <time>2011-07-16T15:48:55Z</time>
      </trkpt>
      <trkpt lat="43.76263" lon="7.00729">
        <ele>958</ele>
        <time>2011-07-16T15:48:56Z</time>
      </trkpt>
      <trkpt lat="43.76261" lon="7.00727">
        <ele>958</ele>
        <time>2011-07-16T15:48:57Z</time>
      </trkpt>
      <trkpt lat="43.7626" lon="7.00724">
        <ele>957</ele>
        <time>2011-07-16T15:48:58Z</time>
      </trkpt>
      <trkpt lat="43.76259" lon="7.00721">
        <ele>957</ele>
        <time>2011-07-16T15:48:59Z</time>
      </trkpt>
      <trkpt lat="43.76258" lon="7.00718">
        <ele>957</ele>
        <time>2011-07-16T15:49:00Z</time>
      </trkpt>
      <trkpt lat="43.76258" lon="7.00714">
        <ele>957</ele>
        <time>2011-07-16T15:49:01Z</time>
      </trkpt>
      <trkpt lat="43.76258" lon="7.00711">
        <ele>957</ele>
        <time>2011-07-16T15:49:02Z</time>
      </trkpt>
      <trkpt lat="43.76257" lon="7.00709">
        <ele>957</ele>
        <time>2011-07-16T15:49:03Z</time>
      </trkpt>
      <trkpt lat="43.76257" lon="7.00708">
        <ele>957</ele>
        <time>2011-07-16T15:49:04Z</time>
      </trkpt>
      <trkpt lat="43.76256" lon="7.00709">
        <ele>956</ele>
        <time>2011-07-16T15:49:12Z</time>
      </trkpt>
      <trkpt lat="43.76256" lon="7.00708">
        <ele>956</ele>
        <time>2011-07-16T15:49:13Z</time>
      </trkpt>
      <trkpt lat="43.76256" lon="7.00708">
        <ele>956</ele>
        <time>2011-07-16T15:49:21Z</time>
      </trkpt>
      <trkpt lat="43.76256" lon="7.00708">
        <ele>956</ele>
        <time>2011-07-16T15:49:22Z</time>
      </trkpt>
      <trkpt lat="43.76256" lon="7.00708">
        <ele>957</ele>
        <time>2011-07-16T15:49:23Z</time>
      </trkpt>
      <trkpt lat="43.76257" lon="7.00707">
        <ele>957</ele>
        <time>2011-07-16T15:49:25Z</time>
      </trkpt>
      <trkpt lat="43.76256" lon="7.00708">
        <ele>958</ele>
        <time>2011-07-16T15:49:26Z</time>
      </trkpt>
      <trkpt lat="43.76255" lon="7.00708">
        <ele>958</ele>
        <time>2011-07-16T15:49:27Z</time>
      </trkpt>
      <trkpt lat="43.76255" lon="7.00707">
        <ele>958</ele>
        <time>2011-07-16T15:54:16Z</time>
      </trkpt>
      <trkpt lat="43.76255" lon="7.00706">
        <ele>958</ele>
        <time>2011-07-16T15:54:17Z</time>
      </trkpt>
      <trkpt lat="43.76257" lon="7.00706">
        <ele>958</ele>
        <time>2011-07-16T15:54:18Z</time>
      </trkpt>
      <trkpt lat="43.76258" lon="7.00707">
        <ele>958</ele>
        <time>2011-07-16T15:54:28Z</time>
      </trkpt>
      <trkpt lat="43.76258" lon="7.00708">
        <ele>958</ele>
        <time>2011-07-16T15:54:29Z</time>
      </trkpt>
      <trkpt lat="43.76258" lon="7.00708">
        <ele>958</ele>
        <time>2011-07-16T15:54:30Z</time>
      </trkpt>
      <trkpt lat="43.76257" lon="7.00708">
        <ele>958</ele>
        <time>2011-07-16T15:54:31Z</time>
      </trkpt>
      <trkpt lat="43.76256" lon="7.00708">
        <ele>958</ele>
        <time>2011-07-16T15:54:32Z</time>
      </trkpt>
      <trkpt lat="43.76254" lon="7.00708">
        <ele>958</ele>
        <time>2011-07-16T15:54:33Z</time>
      </trkpt>
      <trkpt lat="43.76253" lon="7.00708">
        <ele>958</ele>
        <time>2011-07-16T15:54:34Z</time>
      </trkpt>
      <trkpt lat="43.76251" lon="7.00708">
        <ele>958</ele>
        <time>2011-07-16T15:54:35Z</time>
      </trkpt>
      <trkpt lat="43.76249" lon="7.00708">
        <ele>958</ele>
        <time>2011-07-16T15:54:36Z</time>
      </trkpt>
      <trkpt lat="43.76248" lon="7.00707">
        <ele>958</ele>
        <time>2011-07-16T15:54:37Z</time>
      </trkpt>
      <trkpt lat="43.76247" lon="7.00706">
        <ele>958</ele>
        <time>2011-07-16T15:54:38Z</time>
      </trkpt>
      <trkpt lat="43.76246" lon="7.00704">
        <ele>958</ele>
        <time>2011-07-16T15:54:39Z</time>
      </trkpt>
      <trkpt lat="43.76246" lon="7.00704">
        <ele>958</ele>
        <time>2011-07-16T15:54:40Z</time>
      </trkpt>
      <trkpt lat="43.76245" lon="7.00703">
        <ele>958</ele>
        <time>2011-07-16T15:54:41Z</time>
      </trkpt>
      <trkpt lat="43.76244" lon="7.00703">
        <ele>958</ele>
        <time>2011-07-16T15:54:42Z</time>
      </trkpt>
      <trkpt lat="43.76244" lon="7.00704">
        <ele>958</ele>
        <time>2011-07-16T15:54:43Z</time>
      </trkpt>
      <trkpt lat="43.76244" lon="7.00703">
        <ele>958</ele>
        <time>2011-07-16T15:54:44Z</time>
      </trkpt>
      <trkpt lat="43.76244" lon="7.00703">
        <ele>957</ele>
        <time>2011-07-16T15:54:45Z</time>
      </trkpt>
      <trkpt lat="43.76243" lon="7.00703">
        <ele>957</ele>
        <time>2011-07-16T15:54:46Z</time>
      </trkpt>
      <trkpt lat="43.76242" lon="7.00703">
        <ele>957</ele>
        <time>2011-07-16T15:54:48Z</time>
      </trkpt>
      <trkpt lat="43.76242" lon="7.00703">
        <ele>957</ele>
        <time>2011-07-16T15:54:49Z</time>
      </trkpt>
      <trkpt lat="43.76241" lon="7.00703">
        <ele>957</ele>
        <time>2011-07-16T15:54:50Z</time>
      </trkpt>
      <trkpt lat="43.7624" lon="7.00703">
        <ele>957</ele>
        <time>2011-07-16T15:54:51Z</time>
      </trkpt>
      <trkpt lat="43.76239" lon="7.00704">
        <ele>956</ele>
        <time>2011-07-16T15:54:53Z</time>
      </trkpt>
      <trkpt lat="43.76238" lon="7.00705">
        <ele>956</ele>
        <time>2011-07-16T15:54:54Z</time>
      </trkpt>
      <trkpt lat="43.76236" lon="7.00705">
        <ele>956</ele>
        <time>2011-07-16T15:54:56Z</time>
      </trkpt>
      <trkpt lat="43.76235" lon="7.00706">
        <ele>955</ele>
        <time>2011-07-16T15:54:57Z</time>
      </trkpt>
      <trkpt lat="43.76234" lon="7.00706">
        <ele>955</ele>
        <time>2011-07-16T15:54:58Z</time>
      </trkpt>
      <trkpt lat="43.76233" lon="7.00705">
        <ele>954</ele>
        <time>2011-07-16T15:55:02Z</time>
      </trkpt>
      <trkpt lat="43.76232" lon="7.00705">
        <ele>954</ele>
        <time>2011-07-16T15:55:03Z</time>
      </trkpt>
      <trkpt lat="43.7623" lon="7.00705">
        <ele>954</ele>
        <time>2011-07-16T15:55:04Z</time>
      </trkpt>
      <trkpt lat="43.76228" lon="7.00705">
        <ele>953</ele>
        <time>2011-07-16T15:55:05Z</time>
      </trkpt>
      <trkpt lat="43.76226" lon="7.00704">
        <ele>953</ele>
        <time>2011-07-16T15:55:06Z</time>
      </trkpt>
      <trkpt lat="43.76225" lon="7.00703">
        <ele>952</ele>
        <time>2011-07-16T15:55:07Z</time>
      </trkpt>
      <trkpt lat="43.76223" lon="7.00701">
        <ele>951</ele>
        <time>2011-07-16T15:55:08Z</time>
      </trkpt>
      <trkpt lat="43.7622" lon="7.00699">
        <ele>951</ele>
        <time>2011-07-16T15:55:09Z</time>
      </trkpt>
      <trkpt lat="43.76218" lon="7.00698">
        <ele>950</ele>
        <time>2011-07-16T15:55:10Z</time>
      </trkpt>
      <trkpt lat="43.76215" lon="7.00696">
        <ele>949</ele>
        <time>2011-07-16T15:55:11Z</time>
      </trkpt>
      <trkpt lat="43.76213" lon="7.00696">
        <ele>948</ele>
        <time>2011-07-16T15:55:12Z</time>
      </trkpt>
      <trkpt lat="43.76211" lon="7.00695">
        <ele>948</ele>
        <time>2011-07-16T15:55:13Z</time>
      </trkpt>
      <trkpt lat="43.76209" lon="7.00695">
        <ele>947</ele>
        <time>2011-07-16T15:55:14Z</time>
      </trkpt>
      <trkpt lat="43.76207" lon="7.00694">
        <ele>946</ele>
        <time>2011-07-16T15:55:15Z</time>
      </trkpt>
      <trkpt lat="43.76205" lon="7.00693">
        <ele>945</ele>
        <time>2011-07-16T15:55:16Z</time>
      </trkpt>
      <trkpt lat="43.76204" lon="7.00691">
        <ele>945</ele>
        <time>2011-07-16T15:55:17Z</time>
      </trkpt>
      <trkpt lat="43.76203" lon="7.0069">
        <ele>944</ele>
        <time>2011-07-16T15:55:18Z</time>
      </trkpt>
      <trkpt lat="43.76202" lon="7.00689">
        <ele>944</ele>
        <time>2011-07-16T15:55:19Z</time>
      </trkpt>
      <trkpt lat="43.762" lon="7.00685">
        <ele>943</ele>
        <time>2011-07-16T15:55:21Z</time>
      </trkpt>
      <trkpt lat="43.76198" lon="7.00683">
        <ele>942</ele>
        <time>2011-07-16T15:55:22Z</time>
      </trkpt>
      <trkpt lat="43.76197" lon="7.00681">
        <ele>941</ele>
        <time>2011-07-16T15:55:23Z</time>
      </trkpt>
      <trkpt lat="43.76196" lon="7.00679">
        <ele>940</ele>
        <time>2011-07-16T15:55:24Z</time>
      </trkpt>
      <trkpt lat="43.76194" lon="7.00677">
        <ele>940</ele>
        <time>2011-07-16T15:55:25Z</time>
      </trkpt>
      <trkpt lat="43.76193" lon="7.00676">
        <ele>939</ele>
        <time>2011-07-16T15:55:26Z</time>
      </trkpt>
      <trkpt lat="43.76192" lon="7.00675">
        <ele>939</ele>
        <time>2011-07-16T15:55:27Z</time>
      </trkpt>
      <trkpt lat="43.76191" lon="7.00674">
        <ele>938</ele>
        <time>2011-07-16T15:55:28Z</time>
      </trkpt>
      <trkpt lat="43.7619" lon="7.00673">
        <ele>938</ele>
        <time>2011-07-16T15:55:29Z</time>
      </trkpt>
      <trkpt lat="43.7619" lon="7.00671">
        <ele>937</ele>
        <time>2011-07-16T15:55:30Z</time>
      </trkpt>
      <trkpt lat="43.76188" lon="7.00669">
        <ele>937</ele>
        <time>2011-07-16T15:55:31Z</time>
      </trkpt>
      <trkpt lat="43.76188" lon="7.00668">
        <ele>936</ele>
        <time>2011-07-16T15:55:32Z</time>
      </trkpt>
      <trkpt lat="43.76188" lon="7.00668">
        <ele>936</ele>
        <time>2011-07-16T15:55:33Z</time>
      </trkpt>
      <trkpt lat="43.76188" lon="7.00668">
        <ele>936</ele>
        <time>2011-07-16T15:55:35Z</time>
      </trkpt>
      <trkpt lat="43.76188" lon="7.00667">
        <ele>936</ele>
        <time>2011-07-16T15:55:36Z</time>
      </trkpt>
      <trkpt lat="43.76187" lon="7.00667">
        <ele>935</ele>
        <time>2011-07-16T15:55:39Z</time>
      </trkpt>
      <trkpt lat="43.76187" lon="7.00667">
        <ele>935</ele>
        <time>2011-07-16T15:55:41Z</time>
      </trkpt>
      <trkpt lat="43.76187" lon="7.00666">
        <ele>935</ele>
        <time>2011-07-16T15:55:42Z</time>
      </trkpt>
      <trkpt lat="43.76186" lon="7.00665">
        <ele>935</ele>
        <time>2011-07-16T15:55:43Z</time>
      </trkpt>
      <trkpt lat="43.76186" lon="7.00664">
        <ele>935</ele>
        <time>2011-07-16T15:55:44Z</time>
      </trkpt>
      <trkpt lat="43.76186" lon="7.00664">
        <ele>935</ele>
        <time>2011-07-16T15:55:45Z</time>
      </trkpt>
      <trkpt lat="43.76186" lon="7.00663">
        <ele>935</ele>
        <time>2011-07-16T15:55:46Z</time>
      </trkpt>
      <trkpt lat="43.76186" lon="7.00662">
        <ele>934</ele>
        <time>2011-07-16T15:55:47Z</time>
      </trkpt>
      <trkpt lat="43.76187" lon="7.00661">
        <ele>934</ele>
        <time>2011-07-16T15:55:48Z</time>
      </trkpt>
      <trkpt lat="43.76187" lon="7.0066">
        <ele>934</ele>
        <time>2011-07-16T15:55:49Z</time>
      </trkpt>
      <trkpt lat="43.76186" lon="7.0066">
        <ele>933</ele>
        <time>2011-07-16T15:55:50Z</time>
      </trkpt>
      <trkpt lat="43.76186" lon="7.00659">
        <ele>933</ele>
        <time>2011-07-16T15:55:51Z</time>
      </trkpt>
      <trkpt lat="43.76186" lon="7.00656">
        <ele>932</ele>
        <time>2011-07-16T15:55:54Z</time>
      </trkpt>
      <trkpt lat="43.76185" lon="7.00655">
        <ele>931</ele>
        <time>2011-07-16T15:55:55Z</time>
      </trkpt>
      <trkpt lat="43.76185" lon="7.00654">
        <ele>930</ele>
        <time>2011-07-16T15:55:56Z</time>
      </trkpt>
      <trkpt lat="43.76184" lon="7.00653">
        <ele>930</ele>
        <time>2011-07-16T15:55:57Z</time>
      </trkpt>
      <trkpt lat="43.76184" lon="7.00653">
        <ele>930</ele>
        <time>2011-07-16T15:55:58Z</time>
      </trkpt>
      <trkpt lat="43.76183" lon="7.00653">
        <ele>930</ele>
        <time>2011-07-16T15:55:59Z</time>
      </trkpt>
      <trkpt lat="43.76183" lon="7.00651">
        <ele>930</ele>
        <time>2011-07-16T15:56:00Z</time>
      </trkpt>
      <trkpt lat="43.76182" lon="7.00651">
        <ele>930</ele>
        <time>2011-07-16T15:56:01Z</time>
      </trkpt>
      <trkpt lat="43.76181" lon="7.0065">
        <ele>929</ele>
        <time>2011-07-16T15:56:02Z</time>
      </trkpt>
      <trkpt lat="43.76181" lon="7.00649">
        <ele>929</ele>
        <time>2011-07-16T15:56:03Z</time>
      </trkpt>
      <trkpt lat="43.7618" lon="7.00649">
        <ele>929</ele>
        <time>2011-07-16T15:56:04Z</time>
      </trkpt>
      <trkpt lat="43.7618" lon="7.00649">
        <ele>928</ele>
        <time>2011-07-16T15:56:10Z</time>
      </trkpt>
      <trkpt lat="43.7618" lon="7.0065">
        <ele>929</ele>
        <time>2011-07-16T15:56:33Z</time>
      </trkpt>
      <trkpt lat="43.7618" lon="7.0065">
        <ele>929</ele>
        <time>2011-07-16T15:56:34Z</time>
      </trkpt>
      <trkpt lat="43.76179" lon="7.00652">
        <ele>929</ele>
        <time>2011-07-16T15:56:35Z</time>
      </trkpt>
      <trkpt lat="43.76179" lon="7.00652">
        <ele>929</ele>
        <time>2011-07-16T15:56:36Z</time>
      </trkpt>
      <trkpt lat="43.76179" lon="7.00654">
        <ele>929</ele>
        <time>2011-07-16T15:56:37Z</time>
      </trkpt>
      <trkpt lat="43.76177" lon="7.00655">
        <ele>929</ele>
        <time>2011-07-16T15:56:38Z</time>
      </trkpt>
      <trkpt lat="43.76177" lon="7.00655">
        <ele>929</ele>
        <time>2011-07-16T15:56:39Z</time>
      </trkpt>
      <trkpt lat="43.76177" lon="7.00655">
        <ele>929</ele>
        <time>2011-07-16T15:56:40Z</time>
      </trkpt>
      <trkpt lat="43.76176" lon="7.00656">
        <ele>929</ele>
        <time>2011-07-16T15:56:41Z</time>
      </trkpt>
      <trkpt lat="43.76176" lon="7.00656">
        <ele>929</ele>
        <time>2011-07-16T15:56:42Z</time>
      </trkpt>
      <trkpt lat="43.76173" lon="7.00659">
        <ele>929</ele>
        <time>2011-07-16T15:56:43Z</time>
      </trkpt>
      <trkpt lat="43.76172" lon="7.0066">
        <ele>928</ele>
        <time>2011-07-16T15:56:44Z</time>
      </trkpt>
      <trkpt lat="43.7617" lon="7.0066">
        <ele>928</ele>
        <time>2011-07-16T15:56:45Z</time>
      </trkpt>
      <trkpt lat="43.7617" lon="7.0066">
        <ele>928</ele>
        <time>2011-07-16T15:56:46Z</time>
      </trkpt>
      <trkpt lat="43.76168" lon="7.00661">
        <ele>928</ele>
        <time>2011-07-16T15:56:47Z</time>
      </trkpt>
      <trkpt lat="43.76166" lon="7.00662">
        <ele>928</ele>
        <time>2011-07-16T15:56:48Z</time>
      </trkpt>
      <trkpt lat="43.76165" lon="7.00662">
        <ele>928</ele>
        <time>2011-07-16T15:56:49Z</time>
      </trkpt>
      <trkpt lat="43.76164" lon="7.00662">
        <ele>928</ele>
        <time>2011-07-16T15:56:51Z</time>
      </trkpt>
      <trkpt lat="43.76163" lon="7.00663">
        <ele>928</ele>
        <time>2011-07-16T15:56:52Z</time>
      </trkpt>
      <trkpt lat="43.76162" lon="7.00665">
        <ele>928</ele>
        <time>2011-07-16T15:56:53Z</time>
      </trkpt>
      <trkpt lat="43.76162" lon="7.00665">
        <ele>928</ele>
        <time>2011-07-16T15:56:54Z</time>
      </trkpt>
      <trkpt lat="43.76161" lon="7.00666">
        <ele>928</ele>
        <time>2011-07-16T15:56:55Z</time>
      </trkpt>
      <trkpt lat="43.76161" lon="7.00667">
        <ele>927</ele>
        <time>2011-07-16T15:56:56Z</time>
      </trkpt>
      <trkpt lat="43.76161" lon="7.00667">
        <ele>927</ele>
        <time>2011-07-16T15:56:57Z</time>
      </trkpt>
      <trkpt lat="43.7616" lon="7.00667">
        <ele>927</ele>
        <time>2011-07-16T15:56:58Z</time>
      </trkpt>
      <trkpt lat="43.76161" lon="7.00667">
        <ele>927</ele>
        <time>2011-07-16T15:56:59Z</time>
      </trkpt>
      <trkpt lat="43.76161" lon="7.00667">
        <ele>926</ele>
        <time>2011-07-16T15:57:00Z</time>
      </trkpt>
      <trkpt lat="43.76158" lon="7.00671">
        <ele>926</ele>
        <time>2011-07-16T15:57:01Z</time>
      </trkpt>
      <trkpt lat="43.76159" lon="7.00671">
        <ele>926</ele>
        <time>2011-07-16T15:57:02Z</time>
      </trkpt>
      <trkpt lat="43.76159" lon="7.00671">
        <ele>926</ele>
        <time>2011-07-16T15:57:03Z</time>
      </trkpt>
      <trkpt lat="43.76158" lon="7.00674">
        <ele>926</ele>
        <time>2011-07-16T15:57:04Z</time>
      </trkpt>
      <trkpt lat="43.76155" lon="7.00677">
        <ele>926</ele>
        <time>2011-07-16T15:57:13Z</time>
      </trkpt>
      <trkpt lat="43.76156" lon="7.00677">
        <ele>926</ele>
        <time>2011-07-16T15:57:15Z</time>
      </trkpt>
      <trkpt lat="43.76156" lon="7.00676">
        <ele>926</ele>
        <time>2011-07-16T15:57:16Z</time>
      </trkpt>
      <trkpt lat="43.76157" lon="7.00675">
        <ele>926</ele>
        <time>2011-07-16T15:57:17Z</time>
      </trkpt>
      <trkpt lat="43.76157" lon="7.00674">
        <ele>926</ele>
        <time>2011-07-16T15:57:18Z</time>
      </trkpt>
      <trkpt lat="43.76157" lon="7.00672">
        <ele>926</ele>
        <time>2011-07-16T15:57:19Z</time>
      </trkpt>
      <trkpt lat="43.76157" lon="7.00671">
        <ele>927</ele>
        <time>2011-07-16T15:57:20Z</time>
      </trkpt>
      <trkpt lat="43.76157" lon="7.00669">
        <ele>927</ele>
        <time>2011-07-16T15:57:21Z</time>
      </trkpt>
      <trkpt lat="43.76158" lon="7.00668">
        <ele>927</ele>
        <time>2011-07-16T15:57:22Z</time>
      </trkpt>
      <trkpt lat="43.76159" lon="7.00668">
        <ele>927</ele>
        <time>2011-07-16T15:57:23Z</time>
      </trkpt>
      <trkpt lat="43.7616" lon="7.00667">
        <ele>927</ele>
        <time>2011-07-16T15:57:24Z</time>
      </trkpt>
      <trkpt lat="43.7616" lon="7.00666">
        <ele>928</ele>
        <time>2011-07-16T15:57:25Z</time>
      </trkpt>
      <trkpt lat="43.76162" lon="7.00664">
        <ele>928</ele>
        <time>2011-07-16T15:57:27Z</time>
      </trkpt>
      <trkpt lat="43.76163" lon="7.00663">
        <ele>928</ele>
        <time>2011-07-16T15:57:28Z</time>
      </trkpt>
      <trkpt lat="43.76163" lon="7.00661">
        <ele>929</ele>
        <time>2011-07-16T15:57:29Z</time>
      </trkpt>
      <trkpt lat="43.76164" lon="7.0066">
        <ele>929</ele>
        <time>2011-07-16T15:57:30Z</time>
      </trkpt>
      <trkpt lat="43.76165" lon="7.00659">
        <ele>929</ele>
        <time>2011-07-16T15:57:31Z</time>
      </trkpt>
      <trkpt lat="43.76166" lon="7.00659">
        <ele>929</ele>
        <time>2011-07-16T15:57:32Z</time>
      </trkpt>
      <trkpt lat="43.76167" lon="7.00658">
        <ele>929</ele>
        <time>2011-07-16T15:57:33Z</time>
      </trkpt>
      <trkpt lat="43.76167" lon="7.00659">
        <ele>929</ele>
        <time>2011-07-16T15:57:34Z</time>
      </trkpt>
      <trkpt lat="43.76168" lon="7.00659">
        <ele>929</ele>
        <time>2011-07-16T15:57:35Z</time>
      </trkpt>
      <trkpt lat="43.76168" lon="7.00658">
        <ele>929</ele>
        <time>2011-07-16T15:57:36Z</time>
      </trkpt>
      <trkpt lat="43.76168" lon="7.00657">
        <ele>929</ele>
        <time>2011-07-16T15:57:37Z</time>
      </trkpt>
      <trkpt lat="43.76169" lon="7.00657">
        <ele>929</ele>
        <time>2011-07-16T15:57:38Z</time>
      </trkpt>
      <trkpt lat="43.7617" lon="7.00657">
        <ele>929</ele>
        <time>2011-07-16T15:57:39Z</time>
      </trkpt>
      <trkpt lat="43.76171" lon="7.00656">
        <ele>929</ele>
        <time>2011-07-16T15:57:40Z</time>
      </trkpt>
      <trkpt lat="43.76173" lon="7.00655">
        <ele>930</ele>
        <time>2011-07-16T15:57:41Z</time>
      </trkpt>
      <trkpt lat="43.76174" lon="7.00655">
        <ele>930</ele>
        <time>2011-07-16T15:57:42Z</time>
      </trkpt>
      <trkpt lat="43.76174" lon="7.00656">
        <ele>930</ele>
        <time>2011-07-16T15:57:43Z</time>
      </trkpt>
      <trkpt lat="43.76175" lon="7.00656">
        <ele>930</ele>
        <time>2011-07-16T15:57:44Z</time>
      </trkpt>
      <trkpt lat="43.76176" lon="7.00656">
        <ele>931</ele>
        <time>2011-07-16T15:57:45Z</time>
      </trkpt>
      <trkpt lat="43.76176" lon="7.00655">
        <ele>931</ele>
        <time>2011-07-16T15:57:46Z</time>
      </trkpt>
      <trkpt lat="43.76177" lon="7.00655">
        <ele>931</ele>
        <time>2011-07-16T15:57:47Z</time>
      </trkpt>
      <trkpt lat="43.76178" lon="7.00655">
        <ele>930</ele>
        <time>2011-07-16T15:57:48Z</time>
      </trkpt>
      <trkpt lat="43.76179" lon="7.00654">
        <ele>930</ele>
        <time>2011-07-16T15:57:49Z</time>
      </trkpt>
      <trkpt lat="43.7618" lon="7.00654">
        <ele>930</ele>
        <time>2011-07-16T15:57:50Z</time>
      </trkpt>
      <trkpt lat="43.7618" lon="7.00654">
        <ele>930</ele>
        <time>2011-07-16T15:57:51Z</time>
      </trkpt>
      <trkpt lat="43.7618" lon="7.00654">
        <ele>931</ele>
        <time>2011-07-16T15:57:52Z</time>
      </trkpt>
      <trkpt lat="43.7618" lon="7.00655">
        <ele>930</ele>
        <time>2011-07-16T15:57:58Z</time>
      </trkpt>
      <trkpt lat="43.76181" lon="7.00655">
        <ele>931</ele>
        <time>2011-07-16T15:58:00Z</time>
      </trkpt>
      <trkpt lat="43.76182" lon="7.00653">
        <ele>931</ele>
        <time>2011-07-16T15:58:02Z</time>
      </trkpt>
      <trkpt lat="43.76182" lon="7.00653">
        <ele>931</ele>
        <time>2011-07-16T15:58:03Z</time>
      </trkpt>
      <trkpt lat="43.76183" lon="7.00652">
        <ele>931</ele>
        <time>2011-07-16T15:58:04Z</time>
      </trkpt>
      <trkpt lat="43.76183" lon="7.00651">
        <ele>931</ele>
        <time>2011-07-16T15:58:05Z</time>
      </trkpt>
      <trkpt lat="43.76184" lon="7.00651">
        <ele>931</ele>
        <time>2011-07-16T15:58:06Z</time>
      </trkpt>
      <trkpt lat="43.76184" lon="7.00651">
        <ele>930</ele>
        <time>2011-07-16T15:58:17Z</time>
      </trkpt>
      <trkpt lat="43.76184" lon="7.0065">
        <ele>930</ele>
        <time>2011-07-16T15:58:18Z</time>
      </trkpt>
      <trkpt lat="43.76185" lon="7.0065">
        <ele>930</ele>
        <time>2011-07-16T15:58:19Z</time>
      </trkpt>
      <trkpt lat="43.76186" lon="7.00649">
        <ele>930</ele>
        <time>2011-07-16T15:58:20Z</time>
      </trkpt>
      <trkpt lat="43.76187" lon="7.00648">
        <ele>930</ele>
        <time>2011-07-16T15:58:21Z</time>
      </trkpt>
      <trkpt lat="43.76189" lon="7.00648">
        <ele>931</ele>
        <time>2011-07-16T15:58:22Z</time>
      </trkpt>
      <trkpt lat="43.7619" lon="7.00646">
        <ele>931</ele>
        <time>2011-07-16T15:58:23Z</time>
      </trkpt>
      <trkpt lat="43.76192" lon="7.00644">
        <ele>931</ele>
        <time>2011-07-16T15:58:24Z</time>
      </trkpt>
      <trkpt lat="43.76193" lon="7.00641">
        <ele>931</ele>
        <time>2011-07-16T15:58:25Z</time>
      </trkpt>
      <trkpt lat="43.76194" lon="7.00638">
        <ele>931</ele>
        <time>2011-07-16T15:58:26Z</time>
      </trkpt>
      <trkpt lat="43.76196" lon="7.00635">
        <ele>931</ele>
        <time>2011-07-16T15:58:27Z</time>
      </trkpt>
      <trkpt lat="43.76197" lon="7.00633">
        <ele>931</ele>
        <time>2011-07-16T15:58:28Z</time>
      </trkpt>
      <trkpt lat="43.76197" lon="7.00632">
        <ele>931</ele>
        <time>2011-07-16T15:58:29Z</time>
      </trkpt>
      <trkpt lat="43.76197" lon="7.00631">
        <ele>931</ele>
        <time>2011-07-16T15:58:30Z</time>
      </trkpt>
      <trkpt lat="43.76197" lon="7.0063">
        <ele>931</ele>
        <time>2011-07-16T15:58:31Z</time>
      </trkpt>
      <trkpt lat="43.76196" lon="7.0063">
        <ele>931</ele>
        <time>2011-07-16T15:58:32Z</time>
      </trkpt>
      <trkpt lat="43.76196" lon="7.00629">
        <ele>931</ele>
        <time>2011-07-16T15:58:33Z</time>
      </trkpt>
      <trkpt lat="43.76195" lon="7.00628">
        <ele>931</ele>
        <time>2011-07-16T15:58:34Z</time>
      </trkpt>
      <trkpt lat="43.76195" lon="7.00628">
        <ele>931</ele>
        <time>2011-07-16T15:58:35Z</time>
      </trkpt>
      <trkpt lat="43.76194" lon="7.00627">
        <ele>931</ele>
        <time>2011-07-16T15:58:36Z</time>
      </trkpt>
      <trkpt lat="43.76194" lon="7.00627">
        <ele>931</ele>
        <time>2011-07-16T15:58:37Z</time>
      </trkpt>
      <trkpt lat="43.76194" lon="7.00626">
        <ele>931</ele>
        <time>2011-07-16T15:58:38Z</time>
      </trkpt>
      <trkpt lat="43.76194" lon="7.00625">
        <ele>931</ele>
        <time>2011-07-16T15:58:39Z</time>
      </trkpt>
      <trkpt lat="43.76194" lon="7.00627">
        <ele>931</ele>
        <time>2011-07-16T15:58:41Z</time>
      </trkpt>
      <trkpt lat="43.76193" lon="7.00629">
        <ele>931</ele>
        <time>2011-07-16T15:58:42Z</time>
      </trkpt>
      <trkpt lat="43.76194" lon="7.00629">
        <ele>931</ele>
        <time>2011-07-16T15:58:43Z</time>
      </trkpt>
      <trkpt lat="43.76194" lon="7.0063">
        <ele>931</ele>
        <time>2011-07-16T15:58:44Z</time>
      </trkpt>
      <trkpt lat="43.76193" lon="7.0063">
        <ele>930</ele>
        <time>2011-07-16T15:58:45Z</time>
      </trkpt>
      <trkpt lat="43.76192" lon="7.00629">
        <ele>930</ele>
        <time>2011-07-16T15:58:46Z</time>
      </trkpt>
      <trkpt lat="43.76191" lon="7.00629">
        <ele>930</ele>
        <time>2011-07-16T15:58:48Z</time>
      </trkpt>
      <trkpt lat="43.76192" lon="7.0063">
        <ele>930</ele>
        <time>2011-07-16T15:58:50Z</time>
      </trkpt>
      <trkpt lat="43.76191" lon="7.00629">
        <ele>930</ele>
        <time>2011-07-16T15:58:51Z</time>
      </trkpt>
      <trkpt lat="43.7619" lon="7.00629">
        <ele>930</ele>
        <time>2011-07-16T15:58:52Z</time>
      </trkpt>
      <trkpt lat="43.7619" lon="7.00629">
        <ele>930</ele>
        <time>2011-07-16T15:58:53Z</time>
      </trkpt>
      <trkpt lat="43.76188" lon="7.00627">
        <ele>930</ele>
        <time>2011-07-16T15:58:55Z</time>
      </trkpt>
      <trkpt lat="43.76187" lon="7.00626">
        <ele>930</ele>
        <time>2011-07-16T15:58:56Z</time>
      </trkpt>
      <trkpt lat="43.76186" lon="7.00626">
        <ele>930</ele>
        <time>2011-07-16T15:58:57Z</time>
      </trkpt>
      <trkpt lat="43.76185" lon="7.00625">
        <ele>930</ele>
        <time>2011-07-16T15:58:58Z</time>
      </trkpt>
      <trkpt lat="43.76185" lon="7.00624">
        <ele>930</ele>
        <time>2011-07-16T15:58:59Z</time>
      </trkpt>
      <trkpt lat="43.76184" lon="7.00623">
        <ele>930</ele>
        <time>2011-07-16T15:59:00Z</time>
      </trkpt>
      <trkpt lat="43.76184" lon="7.00622">
        <ele>930</ele>
        <time>2011-07-16T15:59:01Z</time>
      </trkpt>
      <trkpt lat="43.76183" lon="7.00622">
        <ele>930</ele>
        <time>2011-07-16T15:59:02Z</time>
      </trkpt>
      <trkpt lat="43.76182" lon="7.00622">
        <ele>930</ele>
        <time>2011-07-16T15:59:04Z</time>
      </trkpt>
      <trkpt lat="43.76181" lon="7.00622">
        <ele>930</ele>
        <time>2011-07-16T15:59:05Z</time>
      </trkpt>
      <trkpt lat="43.7618" lon="7.00623">
        <ele>929</ele>
        <time>2011-07-16T15:59:09Z</time>
      </trkpt>
      <trkpt lat="43.7618" lon="7.00622">
        <ele>929</ele>
        <time>2011-07-16T15:59:10Z</time>
      </trkpt>
      <trkpt lat="43.7618" lon="7.00621">
        <ele>929</ele>
        <time>2011-07-16T15:59:11Z</time>
      </trkpt>
      <trkpt lat="43.76179" lon="7.00621">
        <ele>929</ele>
        <time>2011-07-16T15:59:13Z</time>
      </trkpt>
      <trkpt lat="43.76179" lon="7.00621">
        <ele>929</ele>
        <time>2011-07-16T15:59:14Z</time>
      </trkpt>
      <trkpt lat="43.76179" lon="7.0062">
        <ele>929</ele>
        <time>2011-07-16T15:59:15Z</time>
      </trkpt>
      <trkpt lat="43.76178" lon="7.00621">
        <ele>929</ele>
        <time>2011-07-16T15:59:16Z</time>
      </trkpt>
      <trkpt lat="43.76177" lon="7.00621">
        <ele>929</ele>
        <time>2011-07-16T15:59:17Z</time>
      </trkpt>
      <trkpt lat="43.76178" lon="7.0062">
        <ele>929</ele>
        <time>2011-07-16T15:59:18Z</time>
      </trkpt>
      <trkpt lat="43.76178" lon="7.00619">
        <ele>929</ele>
        <time>2011-07-16T15:59:19Z</time>
      </trkpt>
      <trkpt lat="43.76177" lon="7.00619">
        <ele>929</ele>
        <time>2011-07-16T15:59:20Z</time>
      </trkpt>
      <trkpt lat="43.76177" lon="7.00618">
        <ele>929</ele>
        <time>2011-07-16T15:59:21Z</time>
      </trkpt>
      <trkpt lat="43.76177" lon="7.00617">
        <ele>929</ele>
        <time>2011-07-16T15:59:22Z</time>
      </trkpt>
      <trkpt lat="43.76177" lon="7.00616">
        <ele>929</ele>
        <time>2011-07-16T15:59:23Z</time>
      </trkpt>
      <trkpt lat="43.76177" lon="7.00615">
        <ele>929</ele>
        <time>2011-07-16T15:59:24Z</time>
      </trkpt>
      <trkpt lat="43.76177" lon="7.00614">
        <ele>929</ele>
        <time>2011-07-16T15:59:25Z</time>
      </trkpt>
      <trkpt lat="43.76175" lon="7.00615">
        <ele>929</ele>
        <time>2011-07-16T15:59:26Z</time>
      </trkpt>
      <trkpt lat="43.76174" lon="7.00615">
        <ele>929</ele>
        <time>2011-07-16T15:59:27Z</time>
      </trkpt>
      <trkpt lat="43.76175" lon="7.00615">
        <ele>929</ele>
        <time>2011-07-16T15:59:28Z</time>
      </trkpt>
      <trkpt lat="43.76175" lon="7.00614">
        <ele>929</ele>
        <time>2011-07-16T15:59:30Z</time>
      </trkpt>
      <trkpt lat="43.76175" lon="7.00612">
        <ele>929</ele>
        <time>2011-07-16T15:59:31Z</time>
      </trkpt>
      <trkpt lat="43.76175" lon="7.00612">
        <ele>929</ele>
        <time>2011-07-16T15:59:32Z</time>
      </trkpt>
      <trkpt lat="43.76175" lon="7.00612">
        <ele>929</ele>
        <time>2011-07-16T15:59:33Z</time>
      </trkpt>
      <trkpt lat="43.76175" lon="7.00614">
        <ele>929</ele>
        <time>2011-07-16T15:59:34Z</time>
      </trkpt>
      <trkpt lat="43.76174" lon="7.00614">
        <ele>928</ele>
        <time>2011-07-16T15:59:35Z</time>
      </trkpt>
      <trkpt lat="43.76173" lon="7.00613">
        <ele>928</ele>
        <time>2011-07-16T15:59:36Z</time>
      </trkpt>
      <trkpt lat="43.76173" lon="7.00613">
        <ele>928</ele>
        <time>2011-07-16T15:59:37Z</time>
      </trkpt>
      <trkpt lat="43.76172" lon="7.00613">
        <ele>928</ele>
        <time>2011-07-16T15:59:38Z</time>
      </trkpt>
      <trkpt lat="43.76172" lon="7.00612">
        <ele>928</ele>
        <time>2011-07-16T15:59:39Z</time>
      </trkpt>
      <trkpt lat="43.76171" lon="7.00611">
        <ele>927</ele>
        <time>2011-07-16T15:59:40Z</time>
      </trkpt>
      <trkpt lat="43.76171" lon="7.0061">
        <ele>927</ele>
        <time>2011-07-16T15:59:41Z</time>
      </trkpt>
      <trkpt lat="43.76171" lon="7.0061">
        <ele>927</ele>
        <time>2011-07-16T15:59:42Z</time>
      </trkpt>
      <trkpt lat="43.76171" lon="7.00609">
        <ele>927</ele>
        <time>2011-07-16T15:59:43Z</time>
      </trkpt>
      <trkpt lat="43.76171" lon="7.00607">
        <ele>927</ele>
        <time>2011-07-16T15:59:44Z</time>
      </trkpt>
      <trkpt lat="43.7617" lon="7.00605">
        <ele>927</ele>
        <time>2011-07-16T15:59:45Z</time>
      </trkpt>
      <trkpt lat="43.7617" lon="7.00604">
        <ele>927</ele>
        <time>2011-07-16T15:59:46Z</time>
      </trkpt>
      <trkpt lat="43.7617" lon="7.00603">
        <ele>927</ele>
        <time>2011-07-16T15:59:47Z</time>
      </trkpt>
      <trkpt lat="43.76168" lon="7.00603">
        <ele>927</ele>
        <time>2011-07-16T15:59:48Z</time>
      </trkpt>
      <trkpt lat="43.76168" lon="7.00603">
        <ele>927</ele>
        <time>2011-07-16T15:59:49Z</time>
      </trkpt>
      <trkpt lat="43.76169" lon="7.00603">
        <ele>927</ele>
        <time>2011-07-16T15:59:50Z</time>
      </trkpt>
      <trkpt lat="43.76168" lon="7.00603">
        <ele>927</ele>
        <time>2011-07-16T15:59:51Z</time>
      </trkpt>
      <trkpt lat="43.76168" lon="7.00603">
        <ele>927</ele>
        <time>2011-07-16T15:59:52Z</time>
      </trkpt>
      <trkpt lat="43.76167" lon="7.00603">
        <ele>926</ele>
        <time>2011-07-16T15:59:56Z</time>
      </trkpt>
      <trkpt lat="43.76167" lon="7.00602">
        <ele>926</ele>
        <time>2011-07-16T15:59:57Z</time>
      </trkpt>
      <trkpt lat="43.76166" lon="7.00601">
        <ele>926</ele>
        <time>2011-07-16T15:59:58Z</time>
      </trkpt>
      <trkpt lat="43.76165" lon="7.006">
        <ele>926</ele>
        <time>2011-07-16T15:59:59Z</time>
      </trkpt>
      <trkpt lat="43.76164" lon="7.00599">
        <ele>926</ele>
        <time>2011-07-16T16:00:00Z</time>
      </trkpt>
      <trkpt lat="43.76167" lon="7.00599">
        <ele>926</ele>
        <time>2011-07-16T16:00:01Z</time>
      </trkpt>
      <trkpt lat="43.76167" lon="7.00597">
        <ele>926</ele>
        <time>2011-07-16T16:00:03Z</time>
      </trkpt>
      <trkpt lat="43.76166" lon="7.00596">
        <ele>926</ele>
        <time>2011-07-16T16:00:04Z</time>
      </trkpt>
      <trkpt lat="43.76165" lon="7.00596">
        <ele>926</ele>
        <time>2011-07-16T16:00:05Z</time>
      </trkpt>
      <trkpt lat="43.76164" lon="7.00594">
        <ele>926</ele>
        <time>2011-07-16T16:00:06Z</time>
      </trkpt>
      <trkpt lat="43.76162" lon="7.00594">
        <ele>926</ele>
        <time>2011-07-16T16:00:08Z</time>
      </trkpt>
      <trkpt lat="43.76162" lon="7.00593">
        <ele>926</ele>
        <time>2011-07-16T16:00:09Z</time>
      </trkpt>
      <trkpt lat="43.76162" lon="7.00593">
        <ele>926</ele>
        <time>2011-07-16T16:00:10Z</time>
      </trkpt>
      <trkpt lat="43.7616" lon="7.00592">
        <ele>926</ele>
        <time>2011-07-16T16:00:11Z</time>
      </trkpt>
      <trkpt lat="43.76159" lon="7.00591">
        <ele>925</ele>
        <time>2011-07-16T16:00:12Z</time>
      </trkpt>
      <trkpt lat="43.76158" lon="7.0059">
        <ele>925</ele>
        <time>2011-07-16T16:00:13Z</time>
      </trkpt>
      <trkpt lat="43.76157" lon="7.0059">
        <ele>925</ele>
        <time>2011-07-16T16:00:14Z</time>
      </trkpt>
      <trkpt lat="43.76156" lon="7.00589">
        <ele>925</ele>
        <time>2011-07-16T16:00:15Z</time>
      </trkpt>
      <trkpt lat="43.76155" lon="7.00588">
        <ele>925</ele>
        <time>2011-07-16T16:00:16Z</time>
      </trkpt>
      <trkpt lat="43.76155" lon="7.00587">
        <ele>925</ele>
        <time>2011-07-16T16:00:17Z</time>
      </trkpt>
      <trkpt lat="43.76154" lon="7.00586">
        <ele>925</ele>
        <time>2011-07-16T16:00:18Z</time>
      </trkpt>
      <trkpt lat="43.76154" lon="7.00585">
        <ele>925</ele>
        <time>2011-07-16T16:00:19Z</time>
      </trkpt>
      <trkpt lat="43.76156" lon="7.00585">
        <ele>925</ele>
        <time>2011-07-16T16:00:20Z</time>
      </trkpt>
      <trkpt lat="43.76156" lon="7.00584">
        <ele>925</ele>
        <time>2011-07-16T16:00:21Z</time>
      </trkpt>
      <trkpt lat="43.76156" lon="7.00583">
        <ele>925</ele>
        <time>2011-07-16T16:00:22Z</time>
      </trkpt>
      <trkpt lat="43.76155" lon="7.00582">
        <ele>924</ele>
        <time>2011-07-16T16:00:24Z</time>
      </trkpt>
      <trkpt lat="43.76156" lon="7.00583">
        <ele>924</ele>
        <time>2011-07-16T16:00:26Z</time>
      </trkpt>
      <trkpt lat="43.76157" lon="7.00583">
        <ele>924</ele>
        <time>2011-07-16T16:00:27Z</time>
      </trkpt>
      <trkpt lat="43.76157" lon="7.00583">
        <ele>924</ele>
        <time>2011-07-16T16:00:28Z</time>
      </trkpt>
      <trkpt lat="43.76157" lon="7.00583">
        <ele>924</ele>
        <time>2011-07-16T16:00:29Z</time>
      </trkpt>
      <trkpt lat="43.76156" lon="7.00582">
        <ele>923</ele>
        <time>2011-07-16T16:00:31Z</time>
      </trkpt>
      <trkpt lat="43.76154" lon="7.00581">
        <ele>923</ele>
        <time>2011-07-16T16:00:32Z</time>
      </trkpt>
      <trkpt lat="43.76154" lon="7.0058">
        <ele>923</ele>
        <time>2011-07-16T16:00:33Z</time>
      </trkpt>
      <trkpt lat="43.76155" lon="7.0058">
        <ele>922</ele>
        <time>2011-07-16T16:00:34Z</time>
      </trkpt>
      <trkpt lat="43.76155" lon="7.00579">
        <ele>922</ele>
        <time>2011-07-16T16:00:35Z</time>
      </trkpt>
      <trkpt lat="43.76156" lon="7.00579">
        <ele>922</ele>
        <time>2011-07-16T16:00:36Z</time>
      </trkpt>
      <trkpt lat="43.76158" lon="7.00579">
        <ele>922</ele>
        <time>2011-07-16T16:00:45Z</time>
      </trkpt>
      <trkpt lat="43.76158" lon="7.00578">
        <ele>922</ele>
        <time>2011-07-16T16:00:46Z</time>
      </trkpt>
      <trkpt lat="43.76156" lon="7.00578">
        <ele>922</ele>
        <time>2011-07-16T16:00:47Z</time>
      </trkpt>
      <trkpt lat="43.76156" lon="7.00577">
        <ele>922</ele>
        <time>2011-07-16T16:00:48Z</time>
      </trkpt>
      <trkpt lat="43.76155" lon="7.00576">
        <ele>922</ele>
        <time>2011-07-16T16:00:49Z</time>
      </trkpt>
      <trkpt lat="43.76155" lon="7.00576">
        <ele>921</ele>
        <time>2011-07-16T16:00:50Z</time>
      </trkpt>
      <trkpt lat="43.76155" lon="7.00575">
        <ele>921</ele>
        <time>2011-07-16T16:00:51Z</time>
      </trkpt>
      <trkpt lat="43.76155" lon="7.00575">
        <ele>921</ele>
        <time>2011-07-16T16:00:52Z</time>
      </trkpt>
      <trkpt lat="43.76153" lon="7.00574">
        <ele>921</ele>
        <time>2011-07-16T16:00:54Z</time>
      </trkpt>
      <trkpt lat="43.76151" lon="7.00573">
        <ele>921</ele>
        <time>2011-07-16T16:00:55Z</time>
      </trkpt>
      <trkpt lat="43.7615" lon="7.00572">
        <ele>921</ele>
        <time>2011-07-16T16:00:56Z</time>
      </trkpt>
      <trkpt lat="43.76151" lon="7.00573">
        <ele>921</ele>
        <time>2011-07-16T16:01:10Z</time>
      </trkpt>
      <trkpt lat="43.7615" lon="7.00572">
        <ele>920</ele>
        <time>2011-07-16T16:01:11Z</time>
      </trkpt>
      <trkpt lat="43.7615" lon="7.00572">
        <ele>920</ele>
        <time>2011-07-16T16:01:12Z</time>
      </trkpt>
      <trkpt lat="43.76148" lon="7.0057">
        <ele>920</ele>
        <time>2011-07-16T16:01:14Z</time>
      </trkpt>
      <trkpt lat="43.76146" lon="7.0057">
        <ele>920</ele>
        <time>2011-07-16T16:01:15Z</time>
      </trkpt>
      <trkpt lat="43.76146" lon="7.00569">
        <ele>920</ele>
        <time>2011-07-16T16:01:16Z</time>
      </trkpt>
      <trkpt lat="43.76145" lon="7.00569">
        <ele>920</ele>
        <time>2011-07-16T16:01:17Z</time>
      </trkpt>
      <trkpt lat="43.76148" lon="7.00569">
        <ele>920</ele>
        <time>2011-07-16T16:01:18Z</time>
      </trkpt>
      <trkpt lat="43.76149" lon="7.00569">
        <ele>920</ele>
        <time>2011-07-16T16:01:19Z</time>
      </trkpt>
      <trkpt lat="43.76148" lon="7.00568">
        <ele>920</ele>
        <time>2011-07-16T16:01:20Z</time>
      </trkpt>
      <trkpt lat="43.76147" lon="7.00567">
        <ele>920</ele>
        <time>2011-07-16T16:01:21Z</time>
      </trkpt>
      <trkpt lat="43.76147" lon="7.00567">
        <ele>920</ele>
        <time>2011-07-16T16:01:22Z</time>
      </trkpt>
      <trkpt lat="43.76147" lon="7.00565">
        <ele>920</ele>
        <time>2011-07-16T16:01:23Z</time>
      </trkpt>
      <trkpt lat="43.76146" lon="7.00564">
        <ele>920</ele>
        <time>2011-07-16T16:01:25Z</time>
      </trkpt>
      <trkpt lat="43.76146" lon="7.00563">
        <ele>920</ele>
        <time>2011-07-16T16:01:26Z</time>
      </trkpt>
      <trkpt lat="43.76146" lon="7.00561">
        <ele>919</ele>
        <time>2011-07-16T16:01:27Z</time>
      </trkpt>
      <trkpt lat="43.76148" lon="7.00558">
        <ele>919</ele>
        <time>2011-07-16T16:01:28Z</time>
      </trkpt>
      <trkpt lat="43.76148" lon="7.00555">
        <ele>919</ele>
        <time>2011-07-16T16:01:29Z</time>
      </trkpt>
      <trkpt lat="43.76149" lon="7.00554">
        <ele>919</ele>
        <time>2011-07-16T16:01:30Z</time>
      </trkpt>
      <trkpt lat="43.76148" lon="7.00552">
        <ele>919</ele>
        <time>2011-07-16T16:01:31Z</time>
      </trkpt>
      <trkpt lat="43.76148" lon="7.00551">
        <ele>919</ele>
        <time>2011-07-16T16:01:32Z</time>
      </trkpt>
      <trkpt lat="43.76147" lon="7.0055">
        <ele>919</ele>
        <time>2011-07-16T16:01:33Z</time>
      </trkpt>
      <trkpt lat="43.76147" lon="7.0055">
        <ele>919</ele>
        <time>2011-07-16T16:01:34Z</time>
      </trkpt>
      <trkpt lat="43.76146" lon="7.00549">
        <ele>919</ele>
        <time>2011-07-16T16:01:35Z</time>
      </trkpt>
      <trkpt lat="43.76145" lon="7.00548">
        <ele>919</ele>
        <time>2011-07-16T16:01:36Z</time>
      </trkpt>
      <trkpt lat="43.76144" lon="7.00548">
        <ele>919</ele>
        <time>2011-07-16T16:01:37Z</time>
      </trkpt>
      <trkpt lat="43.76143" lon="7.00547">
        <ele>919</ele>
        <time>2011-07-16T16:01:38Z</time>
      </trkpt>
      <trkpt lat="43.76142" lon="7.00547">
        <ele>919</ele>
        <time>2011-07-16T16:01:39Z</time>
      </trkpt>
      <trkpt lat="43.76141" lon="7.00547">
        <ele>919</ele>
        <time>2011-07-16T16:01:40Z</time>
      </trkpt>
      <trkpt lat="43.7614" lon="7.00547">
        <ele>918</ele>
        <time>2011-07-16T16:01:41Z</time>
      </trkpt>
      <trkpt lat="43.76139" lon="7.00546">
        <ele>918</ele>
        <time>2011-07-16T16:01:42Z</time>
      </trkpt>
      <trkpt lat="43.76139" lon="7.00545">
        <ele>918</ele>
        <time>2011-07-16T16:01:43Z</time>
      </trkpt>
      <trkpt lat="43.76137" lon="7.00545">
        <ele>918</ele>
        <time>2011-07-16T16:01:44Z</time>
      </trkpt>
      <trkpt lat="43.76136" lon="7.00544">
        <ele>918</ele>
        <time>2011-07-16T16:01:45Z</time>
      </trkpt>
      <trkpt lat="43.76135" lon="7.00544">
        <ele>918</ele>
        <time>2011-07-16T16:01:46Z</time>
      </trkpt>
      <trkpt lat="43.76135" lon="7.00543">
        <ele>918</ele>
        <time>2011-07-16T16:01:47Z</time>
      </trkpt>
      <trkpt lat="43.76135" lon="7.00543">
        <ele>918</ele>
        <time>2011-07-16T16:01:48Z</time>
      </trkpt>
      <trkpt lat="43.76137" lon="7.00544">
        <ele>917</ele>
        <time>2011-07-16T16:01:49Z</time>
      </trkpt>
      <trkpt lat="43.76136" lon="7.00544">
        <ele>916</ele>
        <time>2011-07-16T16:01:50Z</time>
      </trkpt>
      <trkpt lat="43.76136" lon="7.00545">
        <ele>916</ele>
        <time>2011-07-16T16:01:51Z</time>
      </trkpt>
      <trkpt lat="43.76137" lon="7.00545">
        <ele>915</ele>
        <time>2011-07-16T16:01:52Z</time>
      </trkpt>
      <trkpt lat="43.76136" lon="7.00545">
        <ele>915</ele>
        <time>2011-07-16T16:01:53Z</time>
      </trkpt>
      <trkpt lat="43.76135" lon="7.00545">
        <ele>914</ele>
        <time>2011-07-16T16:01:54Z</time>
      </trkpt>
      <trkpt lat="43.76135" lon="7.00544">
        <ele>914</ele>
        <time>2011-07-16T16:01:58Z</time>
      </trkpt>
      <trkpt lat="43.76134" lon="7.00543">
        <ele>914</ele>
        <time>2011-07-16T16:01:59Z</time>
      </trkpt>
      <trkpt lat="43.76133" lon="7.00542">
        <ele>914</ele>
        <time>2011-07-16T16:02:00Z</time>
      </trkpt>
      <trkpt lat="43.76134" lon="7.00542">
        <ele>914</ele>
        <time>2011-07-16T16:02:01Z</time>
      </trkpt>
      <trkpt lat="43.76134" lon="7.00542">
        <ele>914</ele>
        <time>2011-07-16T16:02:02Z</time>
      </trkpt>
      <trkpt lat="43.76133" lon="7.00541">
        <ele>913</ele>
        <time>2011-07-16T16:02:03Z</time>
      </trkpt>
      <trkpt lat="43.76132" lon="7.0054">
        <ele>913</ele>
        <time>2011-07-16T16:02:04Z</time>
      </trkpt>
      <trkpt lat="43.76131" lon="7.00539">
        <ele>913</ele>
        <time>2011-07-16T16:02:05Z</time>
      </trkpt>
      <trkpt lat="43.76131" lon="7.00539">
        <ele>913</ele>
        <time>2011-07-16T16:02:14Z</time>
      </trkpt>
      <trkpt lat="43.7613" lon="7.00538">
        <ele>913</ele>
        <time>2011-07-16T16:02:15Z</time>
      </trkpt>
      <trkpt lat="43.76129" lon="7.00537">
        <ele>913</ele>
        <time>2011-07-16T16:02:16Z</time>
      </trkpt>
      <trkpt lat="43.76131" lon="7.00536">
        <ele>913</ele>
        <time>2011-07-16T16:02:17Z</time>
      </trkpt>
      <trkpt lat="43.76129" lon="7.00535">
        <ele>913</ele>
        <time>2011-07-16T16:02:18Z</time>
      </trkpt>
      <trkpt lat="43.76128" lon="7.00534">
        <ele>913</ele>
        <time>2011-07-16T16:02:19Z</time>
      </trkpt>
      <trkpt lat="43.76127" lon="7.00533">
        <ele>913</ele>
        <time>2011-07-16T16:02:20Z</time>
      </trkpt>
      <trkpt lat="43.76128" lon="7.00533">
        <ele>912</ele>
        <time>2011-07-16T16:02:21Z</time>
      </trkpt>
      <trkpt lat="43.76129" lon="7.00532">
        <ele>912</ele>
        <time>2011-07-16T16:02:22Z</time>
      </trkpt>
      <trkpt lat="43.76135" lon="7.00533">
        <ele>912</ele>
        <time>2011-07-16T16:02:23Z</time>
      </trkpt>
      <trkpt lat="43.76135" lon="7.00531">
        <ele>912</ele>
        <time>2011-07-16T16:02:24Z</time>
      </trkpt>
      <trkpt lat="43.76134" lon="7.0053">
        <ele>912</ele>
        <time>2011-07-16T16:02:25Z</time>
      </trkpt>
      <trkpt lat="43.76134" lon="7.00529">
        <ele>912</ele>
        <time>2011-07-16T16:02:26Z</time>
      </trkpt>
      <trkpt lat="43.76135" lon="7.00528">
        <ele>911</ele>
        <time>2011-07-16T16:02:27Z</time>
      </trkpt>
      <trkpt lat="43.76134" lon="7.00527">
        <ele>911</ele>
        <time>2011-07-16T16:02:28Z</time>
      </trkpt>
      <trkpt lat="43.76133" lon="7.00525">
        <ele>911</ele>
        <time>2011-07-16T16:02:29Z</time>
      </trkpt>
      <trkpt lat="43.76132" lon="7.00525">
        <ele>911</ele>
        <time>2011-07-16T16:02:30Z</time>
      </trkpt>
      <trkpt lat="43.76131" lon="7.00524">
        <ele>911</ele>
        <time>2011-07-16T16:02:31Z</time>
      </trkpt>
      <trkpt lat="43.76129" lon="7.00522">
        <ele>911</ele>
        <time>2011-07-16T16:02:32Z</time>
      </trkpt>
      <trkpt lat="43.76128" lon="7.00521">
        <ele>911</ele>
        <time>2011-07-16T16:02:33Z</time>
      </trkpt>
      <trkpt lat="43.76127" lon="7.00521">
        <ele>911</ele>
        <time>2011-07-16T16:02:34Z</time>
      </trkpt>
      <trkpt lat="43.76127" lon="7.0052">
        <ele>911</ele>
        <time>2011-07-16T16:02:35Z</time>
      </trkpt>
      <trkpt lat="43.76127" lon="7.0052">
        <ele>911</ele>
        <time>2011-07-16T16:02:36Z</time>
      </trkpt>
      <trkpt lat="43.76128" lon="7.0052">
        <ele>911</ele>
        <time>2011-07-16T16:02:37Z</time>
      </trkpt>
      <trkpt lat="43.76128" lon="7.00519">
        <ele>911</ele>
        <time>2011-07-16T16:02:38Z</time>
      </trkpt>
      <trkpt lat="43.76129" lon="7.00518">
        <ele>911</ele>
        <time>2011-07-16T16:02:39Z</time>
      </trkpt>
      <trkpt lat="43.76129" lon="7.00517">
        <ele>911</ele>
        <time>2011-07-16T16:02:40Z</time>
      </trkpt>
      <trkpt lat="43.76128" lon="7.00514">
        <ele>910</ele>
        <time>2011-07-16T16:02:43Z</time>
      </trkpt>
      <trkpt lat="43.76128" lon="7.00514">
        <ele>909</ele>
        <time>2011-07-16T16:02:44Z</time>
      </trkpt>
      <trkpt lat="43.76129" lon="7.00514">
        <ele>908</ele>
        <time>2011-07-16T16:02:45Z</time>
      </trkpt>
      <trkpt lat="43.76129" lon="7.00514">
        <ele>907</ele>
        <time>2011-07-16T16:02:46Z</time>
      </trkpt>
      <trkpt lat="43.76131" lon="7.00516">
        <ele>904</ele>
        <time>2011-07-16T16:02:49Z</time>
      </trkpt>
      <trkpt lat="43.76131" lon="7.00516">
        <ele>903</ele>
        <time>2011-07-16T16:02:50Z</time>
      </trkpt>
      <trkpt lat="43.76132" lon="7.00515">
        <ele>902</ele>
        <time>2011-07-16T16:02:51Z</time>
      </trkpt>
      <trkpt lat="43.76133" lon="7.00514">
        <ele>901</ele>
        <time>2011-07-16T16:02:52Z</time>
      </trkpt>
      <trkpt lat="43.76134" lon="7.00513">
        <ele>901</ele>
        <time>2011-07-16T16:02:53Z</time>
      </trkpt>
      <trkpt lat="43.76135" lon="7.00513">
        <ele>900</ele>
        <time>2011-07-16T16:02:54Z</time>
      </trkpt>
      <trkpt lat="43.76137" lon="7.00511">
        <ele>899</ele>
        <time>2011-07-16T16:02:55Z</time>
      </trkpt>
      <trkpt lat="43.76138" lon="7.0051">
        <ele>898</ele>
        <time>2011-07-16T16:02:56Z</time>
      </trkpt>
      <trkpt lat="43.76138" lon="7.00508">
        <ele>897</ele>
        <time>2011-07-16T16:02:57Z</time>
      </trkpt>
      <trkpt lat="43.76138" lon="7.00506">
        <ele>897</ele>
        <time>2011-07-16T16:02:58Z</time>
      </trkpt>
      <trkpt lat="43.76141" lon="7.00504">
        <ele>896</ele>
        <time>2011-07-16T16:02:59Z</time>
      </trkpt>
      <trkpt lat="43.76142" lon="7.00502">
        <ele>896</ele>
        <time>2011-07-16T16:03:00Z</time>
      </trkpt>
      <trkpt lat="43.76143" lon="7.00501">
        <ele>896</ele>
        <time>2011-07-16T16:03:01Z</time>
      </trkpt>
      <trkpt lat="43.76143" lon="7.005">
        <ele>895</ele>
        <time>2011-07-16T16:03:02Z</time>
      </trkpt>
      <trkpt lat="43.76143" lon="7.005">
        <ele>895</ele>
        <time>2011-07-16T16:03:03Z</time>
      </trkpt>
      <trkpt lat="43.76143" lon="7.00499">
        <ele>895</ele>
        <time>2011-07-16T16:03:04Z</time>
      </trkpt>
      <trkpt lat="43.76143" lon="7.00498">
        <ele>895</ele>
        <time>2011-07-16T16:03:05Z</time>
      </trkpt>
      <trkpt lat="43.76142" lon="7.00498">
        <ele>894</ele>
        <time>2011-07-16T16:03:06Z</time>
      </trkpt>
      <trkpt lat="43.76142" lon="7.00498">
        <ele>894</ele>
        <time>2011-07-16T16:03:07Z</time>
      </trkpt>
      <trkpt lat="43.76143" lon="7.00498">
        <ele>894</ele>
        <time>2011-07-16T16:03:08Z</time>
      </trkpt>
      <trkpt lat="43.76143" lon="7.00497">
        <ele>894</ele>
        <time>2011-07-16T16:03:09Z</time>
      </trkpt>
      <trkpt lat="43.76142" lon="7.00496">
        <ele>894</ele>
        <time>2011-07-16T16:03:10Z</time>
      </trkpt>
      <trkpt lat="43.76142" lon="7.00496">
        <ele>893</ele>
        <time>2011-07-16T16:03:11Z</time>
      </trkpt>
      <trkpt lat="43.7614" lon="7.00494">
        <ele>892</ele>
        <time>2011-07-16T16:03:14Z</time>
      </trkpt>
      <trkpt lat="43.76139" lon="7.00493">
        <ele>891</ele>
        <time>2011-07-16T16:03:15Z</time>
      </trkpt>
      <trkpt lat="43.76141" lon="7.00495">
        <ele>889</ele>
        <time>2011-07-16T16:03:20Z</time>
      </trkpt>
      <trkpt lat="43.76139" lon="7.00494">
        <ele>889</ele>
        <time>2011-07-16T16:03:22Z</time>
      </trkpt>
      <trkpt lat="43.76138" lon="7.00493">
        <ele>889</ele>
        <time>2011-07-16T16:03:23Z</time>
      </trkpt>
      <trkpt lat="43.76137" lon="7.00493">
        <ele>889</ele>
        <time>2011-07-16T16:03:24Z</time>
      </trkpt>
      <trkpt lat="43.76137" lon="7.00492">
        <ele>889</ele>
        <time>2011-07-16T16:03:25Z</time>
      </trkpt>
      <trkpt lat="43.76137" lon="7.00492">
        <ele>889</ele>
        <time>2011-07-16T16:03:30Z</time>
      </trkpt>
      <trkpt lat="43.76138" lon="7.00491">
        <ele>889</ele>
        <time>2011-07-16T16:03:31Z</time>
      </trkpt>
      <trkpt lat="43.76138" lon="7.00491">
        <ele>889</ele>
        <time>2011-07-16T16:05:08Z</time>
      </trkpt>
      <trkpt lat="43.76138" lon="7.00492">
        <ele>889</ele>
        <time>2011-07-16T16:05:09Z</time>
      </trkpt>
      <trkpt lat="43.76138" lon="7.00492">
        <ele>889</ele>
        <time>2011-07-16T16:05:17Z</time>
      </trkpt>
      <trkpt lat="43.76137" lon="7.00492">
        <ele>889</ele>
        <time>2011-07-16T16:05:18Z</time>
      </trkpt>
      <trkpt lat="43.76136" lon="7.00492">
        <ele>889</ele>
        <time>2011-07-16T16:05:19Z</time>
      </trkpt>
      <trkpt lat="43.76136" lon="7.00491">
        <ele>889</ele>
        <time>2011-07-16T16:05:20Z</time>
      </trkpt>
      <trkpt lat="43.76136" lon="7.0049">
        <ele>889</ele>
        <time>2011-07-16T16:05:22Z</time>
      </trkpt>
      <trkpt lat="43.76136" lon="7.00489">
        <ele>889</ele>
        <time>2011-07-16T16:05:24Z</time>
      </trkpt>
      <trkpt lat="43.76136" lon="7.00489">
        <ele>889</ele>
        <time>2011-07-16T16:05:25Z</time>
      </trkpt>
      <trkpt lat="43.76135" lon="7.00489">
        <ele>889</ele>
        <time>2011-07-16T16:05:26Z</time>
      </trkpt>
      <trkpt lat="43.76135" lon="7.00488">
        <ele>889</ele>
        <time>2011-07-16T16:05:27Z</time>
      </trkpt>
      <trkpt lat="43.76135" lon="7.00488">
        <ele>888</ele>
        <time>2011-07-16T16:05:28Z</time>
      </trkpt>
      <trkpt lat="43.76134" lon="7.00488">
        <ele>888</ele>
        <time>2011-07-16T16:05:29Z</time>
      </trkpt>
      <trkpt lat="43.76133" lon="7.00487">
        <ele>888</ele>
        <time>2011-07-16T16:05:30Z</time>
      </trkpt>
      <trkpt lat="43.76133" lon="7.00486">
        <ele>888</ele>
        <time>2011-07-16T16:05:31Z</time>
      </trkpt>
      <trkpt lat="43.76132" lon="7.00486">
        <ele>888</ele>
        <time>2011-07-16T16:05:32Z</time>
      </trkpt>
      <trkpt lat="43.76132" lon="7.00486">
        <ele>888</ele>
        <time>2011-07-16T16:05:33Z</time>
      </trkpt>
      <trkpt lat="43.76131" lon="7.00485">
        <ele>888</ele>
        <time>2011-07-16T16:05:34Z</time>
      </trkpt>
      <trkpt lat="43.76131" lon="7.00484">
        <ele>888</ele>
        <time>2011-07-16T16:05:35Z</time>
      </trkpt>
      <trkpt lat="43.76131" lon="7.00482">
        <ele>888</ele>
        <time>2011-07-16T16:05:37Z</time>
      </trkpt>
      <trkpt lat="43.76131" lon="7.00482">
        <ele>888</ele>
        <time>2011-07-16T16:05:38Z</time>
      </trkpt>
      <trkpt lat="43.76131" lon="7.00481">
        <ele>888</ele>
        <time>2011-07-16T16:05:39Z</time>
      </trkpt>
      <trkpt lat="43.7613" lon="7.00482">
        <ele>888</ele>
        <time>2011-07-16T16:05:40Z</time>
      </trkpt>
      <trkpt lat="43.76129" lon="7.00482">
        <ele>888</ele>
        <time>2011-07-16T16:05:41Z</time>
      </trkpt>
      <trkpt lat="43.76129" lon="7.00482">
        <ele>888</ele>
        <time>2011-07-16T16:05:42Z</time>
      </trkpt>
      <trkpt lat="43.76128" lon="7.00483">
        <ele>888</ele>
        <time>2011-07-16T16:05:44Z</time>
      </trkpt>
      <trkpt lat="43.76128" lon="7.00483">
        <ele>887</ele>
        <time>2011-07-16T16:05:45Z</time>
      </trkpt>
      <trkpt lat="43.76127" lon="7.00483">
        <ele>887</ele>
        <time>2011-07-16T16:05:46Z</time>
      </trkpt>
      <trkpt lat="43.76126" lon="7.00483">
        <ele>887</ele>
        <time>2011-07-16T16:05:49Z</time>
      </trkpt>
      <trkpt lat="43.76126" lon="7.00483">
        <ele>887</ele>
        <time>2011-07-16T16:05:50Z</time>
      </trkpt>
      <trkpt lat="43.76125" lon="7.00483">
        <ele>887</ele>
        <time>2011-07-16T16:05:51Z</time>
      </trkpt>
      <trkpt lat="43.76124" lon="7.00483">
        <ele>887</ele>
        <time>2011-07-16T16:05:53Z</time>
      </trkpt>
      <trkpt lat="43.76124" lon="7.00483">
        <ele>887</ele>
        <time>2011-07-16T16:05:54Z</time>
      </trkpt>
      <trkpt lat="43.76124" lon="7.00482">
        <ele>886</ele>
        <time>2011-07-16T16:05:55Z</time>
      </trkpt>
      <trkpt lat="43.76124" lon="7.00481">
        <ele>886</ele>
        <time>2011-07-16T16:05:56Z</time>
      </trkpt>
      <trkpt lat="43.76124" lon="7.00481">
        <ele>886</ele>
        <time>2011-07-16T16:05:57Z</time>
      </trkpt>
      <trkpt lat="43.76124" lon="7.00478">
        <ele>885</ele>
        <time>2011-07-16T16:05:59Z</time>
      </trkpt>
      <trkpt lat="43.76125" lon="7.00478">
        <ele>885</ele>
        <time>2011-07-16T16:06:00Z</time>
      </trkpt>
      <trkpt lat="43.76125" lon="7.00477">
        <ele>884</ele>
        <time>2011-07-16T16:06:05Z</time>
      </trkpt>
      <trkpt lat="43.76125" lon="7.00475">
        <ele>884</ele>
        <time>2011-07-16T16:06:06Z</time>
      </trkpt>
      <trkpt lat="43.76126" lon="7.00474">
        <ele>884</ele>
        <time>2011-07-16T16:06:07Z</time>
      </trkpt>
      <trkpt lat="43.76126" lon="7.00471">
        <ele>884</ele>
        <time>2011-07-16T16:06:08Z</time>
      </trkpt>
      <trkpt lat="43.76127" lon="7.00469">
        <ele>884</ele>
        <time>2011-07-16T16:06:09Z</time>
      </trkpt>
      <trkpt lat="43.76127" lon="7.00467">
        <ele>884</ele>
        <time>2011-07-16T16:06:10Z</time>
      </trkpt>
      <trkpt lat="43.76127" lon="7.00464">
        <ele>883</ele>
        <time>2011-07-16T16:06:11Z</time>
      </trkpt>
      <trkpt lat="43.76128" lon="7.00461">
        <ele>883</ele>
        <time>2011-07-16T16:06:12Z</time>
      </trkpt>
      <trkpt lat="43.7613" lon="7.00458">
        <ele>882</ele>
        <time>2011-07-16T16:06:13Z</time>
      </trkpt>
      <trkpt lat="43.76132" lon="7.00455">
        <ele>882</ele>
        <time>2011-07-16T16:06:14Z</time>
      </trkpt>
      <trkpt lat="43.76134" lon="7.00452">
        <ele>882</ele>
        <time>2011-07-16T16:06:15Z</time>
      </trkpt>
      <trkpt lat="43.76137" lon="7.00449">
        <ele>882</ele>
        <time>2011-07-16T16:06:16Z</time>
      </trkpt>
      <trkpt lat="43.76139" lon="7.00446">
        <ele>881</ele>
        <time>2011-07-16T16:06:17Z</time>
      </trkpt>
      <trkpt lat="43.76141" lon="7.00444">
        <ele>881</ele>
        <time>2011-07-16T16:06:18Z</time>
      </trkpt>
      <trkpt lat="43.76143" lon="7.00442">
        <ele>881</ele>
        <time>2011-07-16T16:06:19Z</time>
      </trkpt>
      <trkpt lat="43.76143" lon="7.0044">
        <ele>881</ele>
        <time>2011-07-16T16:06:20Z</time>
      </trkpt>
      <trkpt lat="43.76144" lon="7.00438">
        <ele>880</ele>
        <time>2011-07-16T16:06:21Z</time>
      </trkpt>
      <trkpt lat="43.76143" lon="7.00436">
        <ele>880</ele>
        <time>2011-07-16T16:06:22Z</time>
      </trkpt>
      <trkpt lat="43.76142" lon="7.00435">
        <ele>879</ele>
        <time>2011-07-16T16:06:23Z</time>
      </trkpt>
      <trkpt lat="43.76141" lon="7.00434">
        <ele>879</ele>
        <time>2011-07-16T16:06:24Z</time>
      </trkpt>
      <trkpt lat="43.76135" lon="7.00433">
        <ele>877</ele>
        <time>2011-07-16T16:06:26Z</time>
      </trkpt>
      <trkpt lat="43.76132" lon="7.00432">
        <ele>876</ele>
        <time>2011-07-16T16:06:27Z</time>
      </trkpt>
      <trkpt lat="43.7613" lon="7.00431">
        <ele>876</ele>
        <time>2011-07-16T16:06:28Z</time>
      </trkpt>
      <trkpt lat="43.76128" lon="7.00431">
        <ele>875</ele>
        <time>2011-07-16T16:06:29Z</time>
      </trkpt>
      <trkpt lat="43.76126" lon="7.00431">
        <ele>874</ele>
        <time>2011-07-16T16:06:30Z</time>
      </trkpt>
      <trkpt lat="43.76124" lon="7.0043">
        <ele>874</ele>
        <time>2011-07-16T16:06:31Z</time>
      </trkpt>
      <trkpt lat="43.76121" lon="7.00429">
        <ele>872</ele>
        <time>2011-07-16T16:06:33Z</time>
      </trkpt>
      <trkpt lat="43.7612" lon="7.00429">
        <ele>872</ele>
        <time>2011-07-16T16:06:35Z</time>
      </trkpt>
      <trkpt lat="43.7612" lon="7.00429">
        <ele>871</ele>
        <time>2011-07-16T16:06:37Z</time>
      </trkpt>
      <trkpt lat="43.7612" lon="7.00429">
        <ele>870</ele>
        <time>2011-07-16T16:06:41Z</time>
      </trkpt>
      <trkpt lat="43.7612" lon="7.00428">
        <ele>870</ele>
        <time>2011-07-16T16:06:42Z</time>
      </trkpt>
      <trkpt lat="43.7612" lon="7.00427">
        <ele>870</ele>
        <time>2011-07-16T16:06:43Z</time>
      </trkpt>
      <trkpt lat="43.7612" lon="7.00426">
        <ele>870</ele>
        <time>2011-07-16T16:06:44Z</time>
      </trkpt>
      <trkpt lat="43.76119" lon="7.00425">
        <ele>870</ele>
        <time>2011-07-16T16:06:45Z</time>
      </trkpt>
      <trkpt lat="43.76118" lon="7.00424">
        <ele>870</ele>
        <time>2011-07-16T16:06:46Z</time>
      </trkpt>
      <trkpt lat="43.76118" lon="7.00424">
        <ele>870</ele>
        <time>2011-07-16T16:06:47Z</time>
      </trkpt>
      <trkpt lat="43.76119" lon="7.00423">
        <ele>870</ele>
        <time>2011-07-16T16:06:48Z</time>
      </trkpt>
      <trkpt lat="43.7612" lon="7.00422">
        <ele>871</ele>
        <time>2011-07-16T16:06:49Z</time>
      </trkpt>
      <trkpt lat="43.7612" lon="7.00421">
        <ele>871</ele>
        <time>2011-07-16T16:06:50Z</time>
      </trkpt>
      <trkpt lat="43.76121" lon="7.00419">
        <ele>870</ele>
        <time>2011-07-16T16:06:54Z</time>
      </trkpt>
      <trkpt lat="43.76121" lon="7.00418">
        <ele>870</ele>
        <time>2011-07-16T16:06:55Z</time>
      </trkpt>
      <trkpt lat="43.76122" lon="7.00416">
        <ele>870</ele>
        <time>2011-07-16T16:06:56Z</time>
      </trkpt>
      <trkpt lat="43.76122" lon="7.00413">
        <ele>870</ele>
        <time>2011-07-16T16:06:57Z</time>
      </trkpt>
      <trkpt lat="43.76122" lon="7.00409">
        <ele>870</ele>
        <time>2011-07-16T16:06:58Z</time>
      </trkpt>
      <trkpt lat="43.7612" lon="7.00405">
        <ele>870</ele>
        <time>2011-07-16T16:06:59Z</time>
      </trkpt>
      <trkpt lat="43.76119" lon="7.004">
        <ele>870</ele>
        <time>2011-07-16T16:07:00Z</time>
      </trkpt>
      <trkpt lat="43.76119" lon="7.00394">
        <ele>870</ele>
        <time>2011-07-16T16:07:01Z</time>
      </trkpt>
      <trkpt lat="43.76118" lon="7.00388">
        <ele>870</ele>
        <time>2011-07-16T16:07:02Z</time>
      </trkpt>
      <trkpt lat="43.76118" lon="7.00381">
        <ele>870</ele>
        <time>2011-07-16T16:07:03Z</time>
      </trkpt>
      <trkpt lat="43.76118" lon="7.00375">
        <ele>870</ele>
        <time>2011-07-16T16:07:04Z</time>
      </trkpt>
      <trkpt lat="43.7612" lon="7.00366">
        <ele>870</ele>
        <time>2011-07-16T16:07:06Z</time>
      </trkpt>
      <trkpt lat="43.7612" lon="7.00362">
        <ele>870</ele>
        <time>2011-07-16T16:07:07Z</time>
      </trkpt>
      <trkpt lat="43.7612" lon="7.00359">
        <ele>870</ele>
        <time>2011-07-16T16:07:08Z</time>
      </trkpt>
      <trkpt lat="43.76121" lon="7.00357">
        <ele>870</ele>
        <time>2011-07-16T16:07:09Z</time>
      </trkpt>
      <trkpt lat="43.76121" lon="7.00356">
        <ele>870</ele>
        <time>2011-07-16T16:07:10Z</time>
      </trkpt>
      <trkpt lat="43.76122" lon="7.00354">
        <ele>870</ele>
        <time>2011-07-16T16:07:11Z</time>
      </trkpt>
      <trkpt lat="43.76123" lon="7.00351">
        <ele>869</ele>
        <time>2011-07-16T16:07:12Z</time>
      </trkpt>
      <trkpt lat="43.76124" lon="7.00349">
        <ele>869</ele>
        <time>2011-07-16T16:07:13Z</time>
      </trkpt>
      <trkpt lat="43.76126" lon="7.00343">
        <ele>869</ele>
        <time>2011-07-16T16:07:15Z</time>
      </trkpt>
      <trkpt lat="43.76126" lon="7.00339">
        <ele>869</ele>
        <time>2011-07-16T16:07:16Z</time>
      </trkpt>
      <trkpt lat="43.76127" lon="7.00336">
        <ele>869</ele>
        <time>2011-07-16T16:07:17Z</time>
      </trkpt>
      <trkpt lat="43.76128" lon="7.00334">
        <ele>869</ele>
        <time>2011-07-16T16:07:18Z</time>
      </trkpt>
      <trkpt lat="43.76129" lon="7.00331">
        <ele>869</ele>
        <time>2011-07-16T16:07:19Z</time>
      </trkpt>
      <trkpt lat="43.7613" lon="7.00329">
        <ele>869</ele>
        <time>2011-07-16T16:07:20Z</time>
      </trkpt>
      <trkpt lat="43.76131" lon="7.00328">
        <ele>869</ele>
        <time>2011-07-16T16:07:21Z</time>
      </trkpt>
      <trkpt lat="43.76132" lon="7.00327">
        <ele>869</ele>
        <time>2011-07-16T16:07:22Z</time>
      </trkpt>
      <trkpt lat="43.76134" lon="7.00327">
        <ele>868</ele>
        <time>2011-07-16T16:07:23Z</time>
      </trkpt>
      <trkpt lat="43.76136" lon="7.00325">
        <ele>868</ele>
        <time>2011-07-16T16:07:24Z</time>
      </trkpt>
      <trkpt lat="43.76138" lon="7.00324">
        <ele>868</ele>
        <time>2011-07-16T16:07:25Z</time>
      </trkpt>
      <trkpt lat="43.7614" lon="7.00322">
        <ele>868</ele>
        <time>2011-07-16T16:07:26Z</time>
      </trkpt>
      <trkpt lat="43.76143" lon="7.0032">
        <ele>868</ele>
        <time>2011-07-16T16:07:27Z</time>
      </trkpt>
      <trkpt lat="43.76145" lon="7.00318">
        <ele>867</ele>
        <time>2011-07-16T16:07:28Z</time>
      </trkpt>
      <trkpt lat="43.76149" lon="7.00314">
        <ele>867</ele>
        <time>2011-07-16T16:07:30Z</time>
      </trkpt>
      <trkpt lat="43.76151" lon="7.00312">
        <ele>867</ele>
        <time>2011-07-16T16:07:31Z</time>
      </trkpt>
      <trkpt lat="43.76152" lon="7.0031">
        <ele>867</ele>
        <time>2011-07-16T16:07:32Z</time>
      </trkpt>
      <trkpt lat="43.76154" lon="7.00308">
        <ele>866</ele>
        <time>2011-07-16T16:07:33Z</time>
      </trkpt>
      <trkpt lat="43.76156" lon="7.00306">
        <ele>866</ele>
        <time>2011-07-16T16:07:34Z</time>
      </trkpt>
      <trkpt lat="43.76158" lon="7.00305">
        <ele>865</ele>
        <time>2011-07-16T16:07:35Z</time>
      </trkpt>
      <trkpt lat="43.7616" lon="7.00303">
        <ele>865</ele>
        <time>2011-07-16T16:07:36Z</time>
      </trkpt>
      <trkpt lat="43.76162" lon="7.00301">
        <ele>865</ele>
        <time>2011-07-16T16:07:37Z</time>
      </trkpt>
      <trkpt lat="43.76164" lon="7.00299">
        <ele>865</ele>
        <time>2011-07-16T16:07:38Z</time>
      </trkpt>
      <trkpt lat="43.76167" lon="7.00297">
        <ele>865</ele>
        <time>2011-07-16T16:07:39Z</time>
      </trkpt>
      <trkpt lat="43.76169" lon="7.00295">
        <ele>865</ele>
        <time>2011-07-16T16:07:40Z</time>
      </trkpt>
      <trkpt lat="43.76172" lon="7.00293">
        <ele>864</ele>
        <time>2011-07-16T16:07:41Z</time>
      </trkpt>
      <trkpt lat="43.76175" lon="7.00291">
        <ele>864</ele>
        <time>2011-07-16T16:07:42Z</time>
      </trkpt>
      <trkpt lat="43.76177" lon="7.00289">
        <ele>863</ele>
        <time>2011-07-16T16:07:43Z</time>
      </trkpt>
      <trkpt lat="43.76179" lon="7.00286">
        <ele>863</ele>
        <time>2011-07-16T16:07:44Z</time>
      </trkpt>
      <trkpt lat="43.76182" lon="7.00284">
        <ele>863</ele>
        <time>2011-07-16T16:07:45Z</time>
      </trkpt>
      <trkpt lat="43.76184" lon="7.00281">
        <ele>863</ele>
        <time>2011-07-16T16:07:46Z</time>
      </trkpt>
      <trkpt lat="43.76187" lon="7.00279">
        <ele>862</ele>
        <time>2011-07-16T16:07:47Z</time>
      </trkpt>
      <trkpt lat="43.76189" lon="7.00277">
        <ele>862</ele>
        <time>2011-07-16T16:07:48Z</time>
      </trkpt>
      <trkpt lat="43.76192" lon="7.00274">
        <ele>862</ele>
        <time>2011-07-16T16:07:49Z</time>
      </trkpt>
      <trkpt lat="43.76194" lon="7.00271">
        <ele>861</ele>
        <time>2011-07-16T16:07:50Z</time>
      </trkpt>
      <trkpt lat="43.76197" lon="7.00269">
        <ele>861</ele>
        <time>2011-07-16T16:07:51Z</time>
      </trkpt>
      <trkpt lat="43.76199" lon="7.00266">
        <ele>860</ele>
        <time>2011-07-16T16:07:52Z</time>
      </trkpt>
      <trkpt lat="43.76201" lon="7.00264">
        <ele>860</ele>
        <time>2011-07-16T16:07:53Z</time>
      </trkpt>
      <trkpt lat="43.76204" lon="7.00261">
        <ele>860</ele>
        <time>2011-07-16T16:07:54Z</time>
      </trkpt>
      <trkpt lat="43.76206" lon="7.00259">
        <ele>860</ele>
        <time>2011-07-16T16:07:55Z</time>
      </trkpt>
      <trkpt lat="43.76208" lon="7.00256">
        <ele>860</ele>
        <time>2011-07-16T16:07:56Z</time>
      </trkpt>
      <trkpt lat="43.76211" lon="7.00254">
        <ele>860</ele>
        <time>2011-07-16T16:07:57Z</time>
      </trkpt>
      <trkpt lat="43.76213" lon="7.00251">
        <ele>859</ele>
        <time>2011-07-16T16:07:58Z</time>
      </trkpt>
      <trkpt lat="43.76216" lon="7.00249">
        <ele>859</ele>
        <time>2011-07-16T16:07:59Z</time>
      </trkpt>
      <trkpt lat="43.76219" lon="7.00248">
        <ele>858</ele>
        <time>2011-07-16T16:08:00Z</time>
      </trkpt>
      <trkpt lat="43.76222" lon="7.00247">
        <ele>858</ele>
        <time>2011-07-16T16:08:01Z</time>
      </trkpt>
      <trkpt lat="43.76226" lon="7.00245">
        <ele>856</ele>
        <time>2011-07-16T16:08:02Z</time>
      </trkpt>
      <trkpt lat="43.76229" lon="7.00243">
        <ele>855</ele>
        <time>2011-07-16T16:08:03Z</time>
      </trkpt>
      <trkpt lat="43.76232" lon="7.00241">
        <ele>855</ele>
        <time>2011-07-16T16:08:04Z</time>
      </trkpt>
      <trkpt lat="43.76233" lon="7.00241">
        <ele>855</ele>
        <time>2011-07-16T16:08:05Z</time>
      </trkpt>
      <trkpt lat="43.76235" lon="7.00239">
        <ele>853</ele>
        <time>2011-07-16T16:08:06Z</time>
      </trkpt>
      <trkpt lat="43.76237" lon="7.0024">
        <ele>853</ele>
        <time>2011-07-16T16:08:07Z</time>
      </trkpt>
      <trkpt lat="43.7624" lon="7.00239">
        <ele>853</ele>
        <time>2011-07-16T16:08:08Z</time>
      </trkpt>
      <trkpt lat="43.76243" lon="7.00238">
        <ele>853</ele>
        <time>2011-07-16T16:08:09Z</time>
      </trkpt>
      <trkpt lat="43.76245" lon="7.00235">
        <ele>852</ele>
        <time>2011-07-16T16:08:10Z</time>
      </trkpt>
      <trkpt lat="43.76246" lon="7.00233">
        <ele>852</ele>
        <time>2011-07-16T16:08:11Z</time>
      </trkpt>
      <trkpt lat="43.76247" lon="7.00231">
        <ele>852</ele>
        <time>2011-07-16T16:08:12Z</time>
      </trkpt>
      <trkpt lat="43.76247" lon="7.00229">
        <ele>851</ele>
        <time>2011-07-16T16:08:44Z</time>
      </trkpt>
      <trkpt lat="43.76247" lon="7.00228">
        <ele>851</ele>
        <time>2011-07-16T16:08:45Z</time>
      </trkpt>
      <trkpt lat="43.76247" lon="7.00227">
        <ele>851</ele>
        <time>2011-07-16T16:08:46Z</time>
      </trkpt>
      <trkpt lat="43.76248" lon="7.00227">
        <ele>852</ele>
        <time>2011-07-16T16:08:47Z</time>
      </trkpt>
      <trkpt lat="43.76248" lon="7.00226">
        <ele>852</ele>
        <time>2011-07-16T16:08:48Z</time>
      </trkpt>
      <trkpt lat="43.76249" lon="7.00226">
        <ele>852</ele>
        <time>2011-07-16T16:08:49Z</time>
      </trkpt>
      <trkpt lat="43.76249" lon="7.00225">
        <ele>852</ele>
        <time>2011-07-16T16:08:51Z</time>
      </trkpt>
      <trkpt lat="43.7625" lon="7.00225">
        <ele>852</ele>
        <time>2011-07-16T16:08:53Z</time>
      </trkpt>
      <trkpt lat="43.76251" lon="7.00224">
        <ele>852</ele>
        <time>2011-07-16T16:08:54Z</time>
      </trkpt>
      <trkpt lat="43.76252" lon="7.00224">
        <ele>852</ele>
        <time>2011-07-16T16:08:55Z</time>
      </trkpt>
      <trkpt lat="43.76253" lon="7.00223">
        <ele>852</ele>
        <time>2011-07-16T16:08:56Z</time>
      </trkpt>
      <trkpt lat="43.76254" lon="7.00222">
        <ele>852</ele>
        <time>2011-07-16T16:08:57Z</time>
      </trkpt>
      <trkpt lat="43.76256" lon="7.0022">
        <ele>852</ele>
        <time>2011-07-16T16:08:58Z</time>
      </trkpt>
      <trkpt lat="43.76257" lon="7.00218">
        <ele>852</ele>
        <time>2011-07-16T16:08:59Z</time>
      </trkpt>
      <trkpt lat="43.76258" lon="7.00216">
        <ele>852</ele>
        <time>2011-07-16T16:09:00Z</time>
      </trkpt>
      <trkpt lat="43.76259" lon="7.00215">
        <ele>852</ele>
        <time>2011-07-16T16:09:01Z</time>
      </trkpt>
      <trkpt lat="43.7626" lon="7.00214">
        <ele>852</ele>
        <time>2011-07-16T16:09:02Z</time>
      </trkpt>
      <trkpt lat="43.76261" lon="7.00213">
        <ele>852</ele>
        <time>2011-07-16T16:09:03Z</time>
      </trkpt>
      <trkpt lat="43.76262" lon="7.00212">
        <ele>852</ele>
        <time>2011-07-16T16:09:04Z</time>
      </trkpt>
      <trkpt lat="43.76264" lon="7.00211">
        <ele>852</ele>
        <time>2011-07-16T16:09:05Z</time>
      </trkpt>
      <trkpt lat="43.76265" lon="7.0021">
        <ele>851</ele>
        <time>2011-07-16T16:09:06Z</time>
      </trkpt>
      <trkpt lat="43.76266" lon="7.0021">
        <ele>851</ele>
        <time>2011-07-16T16:09:07Z</time>
      </trkpt>
      <trkpt lat="43.76267" lon="7.00209">
        <ele>851</ele>
        <time>2011-07-16T16:09:08Z</time>
      </trkpt>
      <trkpt lat="43.76268" lon="7.00209">
        <ele>851</ele>
        <time>2011-07-16T16:09:09Z</time>
      </trkpt>
      <trkpt lat="43.7627" lon="7.00209">
        <ele>850</ele>
        <time>2011-07-16T16:09:10Z</time>
      </trkpt>
      <trkpt lat="43.76271" lon="7.00208">
        <ele>850</ele>
        <time>2011-07-16T16:09:11Z</time>
      </trkpt>
      <trkpt lat="43.76274" lon="7.00205">
        <ele>850</ele>
        <time>2011-07-16T16:09:13Z</time>
      </trkpt>
      <trkpt lat="43.76276" lon="7.00203">
        <ele>850</ele>
        <time>2011-07-16T16:09:14Z</time>
      </trkpt>
      <trkpt lat="43.76278" lon="7.002">
        <ele>850</ele>
        <time>2011-07-16T16:09:16Z</time>
      </trkpt>
      <trkpt lat="43.76279" lon="7.00199">
        <ele>850</ele>
        <time>2011-07-16T16:09:17Z</time>
      </trkpt>
      <trkpt lat="43.7628" lon="7.00198">
        <ele>850</ele>
        <time>2011-07-16T16:09:18Z</time>
      </trkpt>
      <trkpt lat="43.76281" lon="7.00197">
        <ele>850</ele>
        <time>2011-07-16T16:09:19Z</time>
      </trkpt>
      <trkpt lat="43.76283" lon="7.00196">
        <ele>850</ele>
        <time>2011-07-16T16:09:20Z</time>
      </trkpt>
      <trkpt lat="43.76285" lon="7.00196">
        <ele>850</ele>
        <time>2011-07-16T16:09:21Z</time>
      </trkpt>
      <trkpt lat="43.76287" lon="7.00194">
        <ele>850</ele>
        <time>2011-07-16T16:09:22Z</time>
      </trkpt>
      <trkpt lat="43.76289" lon="7.00193">
        <ele>850</ele>
        <time>2011-07-16T16:09:23Z</time>
      </trkpt>
      <trkpt lat="43.76291" lon="7.00192">
        <ele>849</ele>
        <time>2011-07-16T16:09:24Z</time>
      </trkpt>
      <trkpt lat="43.76295" lon="7.00188">
        <ele>849</ele>
        <time>2011-07-16T16:09:27Z</time>
      </trkpt>
      <trkpt lat="43.76299" lon="7.00184">
        <ele>849</ele>
        <time>2011-07-16T16:09:29Z</time>
      </trkpt>
      <trkpt lat="43.76301" lon="7.00183">
        <ele>849</ele>
        <time>2011-07-16T16:09:30Z</time>
      </trkpt>
      <trkpt lat="43.76303" lon="7.00182">
        <ele>849</ele>
        <time>2011-07-16T16:09:31Z</time>
      </trkpt>
      <trkpt lat="43.76306" lon="7.00181">
        <ele>849</ele>
        <time>2011-07-16T16:09:32Z</time>
      </trkpt>
      <trkpt lat="43.76308" lon="7.00179">
        <ele>848</ele>
        <time>2011-07-16T16:09:33Z</time>
      </trkpt>
      <trkpt lat="43.7631" lon="7.00178">
        <ele>848</ele>
        <time>2011-07-16T16:09:34Z</time>
      </trkpt>
      <trkpt lat="43.76312" lon="7.00177">
        <ele>848</ele>
        <time>2011-07-16T16:09:35Z</time>
      </trkpt>
      <trkpt lat="43.76313" lon="7.00175">
        <ele>847</ele>
        <time>2011-07-16T16:09:36Z</time>
      </trkpt>
      <trkpt lat="43.76316" lon="7.00174">
        <ele>847</ele>
        <time>2011-07-16T16:09:37Z</time>
      </trkpt>
      <trkpt lat="43.76318" lon="7.00173">
        <ele>847</ele>
        <time>2011-07-16T16:09:38Z</time>
      </trkpt>
      <trkpt lat="43.76321" lon="7.00171">
        <ele>847</ele>
        <time>2011-07-16T16:09:39Z</time>
      </trkpt>
      <trkpt lat="43.76323" lon="7.00169">
        <ele>847</ele>
        <time>2011-07-16T16:09:40Z</time>
      </trkpt>
      <trkpt lat="43.76326" lon="7.00166">
        <ele>847</ele>
        <time>2011-07-16T16:09:41Z</time>
      </trkpt>
      <trkpt lat="43.76329" lon="7.00164">
        <ele>847</ele>
        <time>2011-07-16T16:09:42Z</time>
      </trkpt>
      <trkpt lat="43.76331" lon="7.00162">
        <ele>847</ele>
        <time>2011-07-16T16:09:43Z</time>
      </trkpt>
      <trkpt lat="43.76334" lon="7.00159">
        <ele>846</ele>
        <time>2011-07-16T16:09:44Z</time>
      </trkpt>
      <trkpt lat="43.76335" lon="7.00156">
        <ele>846</ele>
        <time>2011-07-16T16:09:45Z</time>
      </trkpt>
      <trkpt lat="43.76337" lon="7.00154">
        <ele>846</ele>
        <time>2011-07-16T16:09:46Z</time>
      </trkpt>
      <trkpt lat="43.76338" lon="7.00151">
        <ele>846</ele>
        <time>2011-07-16T16:09:47Z</time>
      </trkpt>
      <trkpt lat="43.7634" lon="7.00148">
        <ele>846</ele>
        <time>2011-07-16T16:09:48Z</time>
      </trkpt>
      <trkpt lat="43.76342" lon="7.00146">
        <ele>846</ele>
        <time>2011-07-16T16:09:49Z</time>
      </trkpt>
      <trkpt lat="43.76344" lon="7.00145">
        <ele>846</ele>
        <time>2011-07-16T16:09:50Z</time>
      </trkpt>
      <trkpt lat="43.76346" lon="7.00144">
        <ele>846</ele>
        <time>2011-07-16T16:09:51Z</time>
      </trkpt>
      <trkpt lat="43.76347" lon="7.00143">
        <ele>846</ele>
        <time>2011-07-16T16:09:52Z</time>
      </trkpt>
      <trkpt lat="43.76348" lon="7.00142">
        <ele>846</ele>
        <time>2011-07-16T16:09:53Z</time>
      </trkpt>
      <trkpt lat="43.76349" lon="7.00141">
        <ele>846</ele>
        <time>2011-07-16T16:09:54Z</time>
      </trkpt>
      <trkpt lat="43.76351" lon="7.00141">
        <ele>846</ele>
        <time>2011-07-16T16:09:55Z</time>
      </trkpt>
      <trkpt lat="43.76353" lon="7.0014">
        <ele>846</ele>
        <time>2011-07-16T16:09:56Z</time>
      </trkpt>
      <trkpt lat="43.76355" lon="7.00139">
        <ele>846</ele>
        <time>2011-07-16T16:09:57Z</time>
      </trkpt>
      <trkpt lat="43.76356" lon="7.00138">
        <ele>846</ele>
        <time>2011-07-16T16:09:58Z</time>
      </trkpt>
      <trkpt lat="43.76358" lon="7.00137">
        <ele>847</ele>
        <time>2011-07-16T16:09:59Z</time>
      </trkpt>
      <trkpt lat="43.76359" lon="7.00136">
        <ele>847</ele>
        <time>2011-07-16T16:10:00Z</time>
      </trkpt>
      <trkpt lat="43.76361" lon="7.00135">
        <ele>847</ele>
        <time>2011-07-16T16:10:01Z</time>
      </trkpt>
      <trkpt lat="43.76361" lon="7.00134">
        <ele>847</ele>
        <time>2011-07-16T16:10:02Z</time>
      </trkpt>
      <trkpt lat="43.76361" lon="7.00133">
        <ele>849</ele>
        <time>2011-07-16T16:10:05Z</time>
      </trkpt>
      <trkpt lat="43.76362" lon="7.00133">
        <ele>849</ele>
        <time>2011-07-16T16:10:06Z</time>
      </trkpt>
      <trkpt lat="43.76362" lon="7.00132">
        <ele>850</ele>
        <time>2011-07-16T16:10:07Z</time>
      </trkpt>
      <trkpt lat="43.76363" lon="7.00132">
        <ele>850</ele>
        <time>2011-07-16T16:10:08Z</time>
      </trkpt>
      <trkpt lat="43.76363" lon="7.00132">
        <ele>851</ele>
        <time>2011-07-16T16:10:09Z</time>
      </trkpt>
      <trkpt lat="43.76364" lon="7.00131">
        <ele>851</ele>
        <time>2011-07-16T16:10:10Z</time>
      </trkpt>
      <trkpt lat="43.76365" lon="7.00131">
        <ele>851</ele>
        <time>2011-07-16T16:10:12Z</time>
      </trkpt>
      <trkpt lat="43.76365" lon="7.00131">
        <ele>851</ele>
        <time>2011-07-16T16:10:13Z</time>
      </trkpt>
      <trkpt lat="43.76365" lon="7.00131">
        <ele>851</ele>
        <time>2011-07-16T16:10:14Z</time>
      </trkpt>
      <trkpt lat="43.76366" lon="7.00131">
        <ele>851</ele>
        <time>2011-07-16T16:10:15Z</time>
      </trkpt>
      <trkpt lat="43.76366" lon="7.00131">
        <ele>851</ele>
        <time>2011-07-16T16:10:16Z</time>
      </trkpt>
      <trkpt lat="43.76367" lon="7.0013">
        <ele>851</ele>
        <time>2011-07-16T16:10:17Z</time>
      </trkpt>
      <trkpt lat="43.76369" lon="7.0013">
        <ele>851</ele>
        <time>2011-07-16T16:10:18Z</time>
      </trkpt>
      <trkpt lat="43.7637" lon="7.00128">
        <ele>852</ele>
        <time>2011-07-16T16:10:19Z</time>
      </trkpt>
      <trkpt lat="43.76371" lon="7.00127">
        <ele>852</ele>
        <time>2011-07-16T16:10:20Z</time>
      </trkpt>
      <trkpt lat="43.76373" lon="7.00123">
        <ele>853</ele>
        <time>2011-07-16T16:10:22Z</time>
      </trkpt>
      <trkpt lat="43.76376" lon="7.00119">
        <ele>853</ele>
        <time>2011-07-16T16:10:24Z</time>
      </trkpt>
      <trkpt lat="43.76378" lon="7.00116">
        <ele>853</ele>
        <time>2011-07-16T16:10:26Z</time>
      </trkpt>
      <trkpt lat="43.76379" lon="7.00115">
        <ele>854</ele>
        <time>2011-07-16T16:10:27Z</time>
      </trkpt>
      <trkpt lat="43.76379" lon="7.00114">
        <ele>854</ele>
        <time>2011-07-16T16:10:28Z</time>
      </trkpt>
      <trkpt lat="43.7638" lon="7.00113">
        <ele>854</ele>
        <time>2011-07-16T16:10:29Z</time>
      </trkpt>
      <trkpt lat="43.7638" lon="7.00112">
        <ele>854</ele>
        <time>2011-07-16T16:10:30Z</time>
      </trkpt>
      <trkpt lat="43.76381" lon="7.00111">
        <ele>854</ele>
        <time>2011-07-16T16:10:31Z</time>
      </trkpt>
      <trkpt lat="43.76382" lon="7.0011">
        <ele>854</ele>
        <time>2011-07-16T16:10:32Z</time>
      </trkpt>
      <trkpt lat="43.76383" lon="7.00109">
        <ele>854</ele>
        <time>2011-07-16T16:10:33Z</time>
      </trkpt>
      <trkpt lat="43.76384" lon="7.00108">
        <ele>854</ele>
        <time>2011-07-16T16:10:34Z</time>
      </trkpt>
      <trkpt lat="43.76385" lon="7.00106">
        <ele>854</ele>
        <time>2011-07-16T16:10:35Z</time>
      </trkpt>
      <trkpt lat="43.76386" lon="7.00104">
        <ele>854</ele>
        <time>2011-07-16T16:10:36Z</time>
      </trkpt>
      <trkpt lat="43.76387" lon="7.00103">
        <ele>854</ele>
        <time>2011-07-16T16:10:37Z</time>
      </trkpt>
      <trkpt lat="43.76387" lon="7.00103">
        <ele>854</ele>
        <time>2011-07-16T16:10:38Z</time>
      </trkpt>
      <trkpt lat="43.76388" lon="7.00102">
        <ele>854</ele>
        <time>2011-07-16T16:10:39Z</time>
      </trkpt>
      <trkpt lat="43.76389" lon="7.00101">
        <ele>854</ele>
        <time>2011-07-16T16:10:40Z</time>
      </trkpt>
      <trkpt lat="43.7639" lon="7.001">
        <ele>854</ele>
        <time>2011-07-16T16:10:41Z</time>
      </trkpt>
      <trkpt lat="43.76391" lon="7.00098">
        <ele>854</ele>
        <time>2011-07-16T16:10:42Z</time>
      </trkpt>
      <trkpt lat="43.76394" lon="7.00095">
        <ele>854</ele>
        <time>2011-07-16T16:10:44Z</time>
      </trkpt>
      <trkpt lat="43.76396" lon="7.00093">
        <ele>855</ele>
        <time>2011-07-16T16:10:45Z</time>
      </trkpt>
      <trkpt lat="43.76397" lon="7.00091">
        <ele>855</ele>
        <time>2011-07-16T16:10:46Z</time>
      </trkpt>
      <trkpt lat="43.76399" lon="7.00089">
        <ele>855</ele>
        <time>2011-07-16T16:10:47Z</time>
      </trkpt>
      <trkpt lat="43.764" lon="7.00088">
        <ele>855</ele>
        <time>2011-07-16T16:10:48Z</time>
      </trkpt>
      <trkpt lat="43.76402" lon="7.00086">
        <ele>855</ele>
        <time>2011-07-16T16:10:49Z</time>
      </trkpt>
      <trkpt lat="43.76404" lon="7.00084">
        <ele>856</ele>
        <time>2011-07-16T16:10:50Z</time>
      </trkpt>
      <trkpt lat="43.76405" lon="7.00083">
        <ele>856</ele>
        <time>2011-07-16T16:10:51Z</time>
      </trkpt>
      <trkpt lat="43.76407" lon="7.00081">
        <ele>856</ele>
        <time>2011-07-16T16:10:52Z</time>
      </trkpt>
      <trkpt lat="43.76408" lon="7.00076">
        <ele>857</ele>
        <time>2011-07-16T16:10:54Z</time>
      </trkpt>
      <trkpt lat="43.76409" lon="7.00075">
        <ele>857</ele>
        <time>2011-07-16T16:10:55Z</time>
      </trkpt>
      <trkpt lat="43.7641" lon="7.00073">
        <ele>857</ele>
        <time>2011-07-16T16:10:56Z</time>
      </trkpt>
      <trkpt lat="43.7641" lon="7.00072">
        <ele>858</ele>
        <time>2011-07-16T16:10:57Z</time>
      </trkpt>
      <trkpt lat="43.76411" lon="7.0007">
        <ele>858</ele>
        <time>2011-07-16T16:10:58Z</time>
      </trkpt>
      <trkpt lat="43.76411" lon="7.00068">
        <ele>858</ele>
        <time>2011-07-16T16:10:59Z</time>
      </trkpt>
      <trkpt lat="43.7641" lon="7.00066">
        <ele>859</ele>
        <time>2011-07-16T16:11:00Z</time>
      </trkpt>
      <trkpt lat="43.7641" lon="7.00064">
        <ele>859</ele>
        <time>2011-07-16T16:11:01Z</time>
      </trkpt>
      <trkpt lat="43.7641" lon="7.0006">
        <ele>859</ele>
        <time>2011-07-16T16:11:03Z</time>
      </trkpt>
      <trkpt lat="43.7641" lon="7.00058">
        <ele>860</ele>
        <time>2011-07-16T16:11:04Z</time>
      </trkpt>
      <trkpt lat="43.7641" lon="7.00057">
        <ele>860</ele>
        <time>2011-07-16T16:11:05Z</time>
      </trkpt>
      <trkpt lat="43.7641" lon="7.00056">
        <ele>860</ele>
        <time>2011-07-16T16:11:06Z</time>
      </trkpt>
      <trkpt lat="43.7641" lon="7.00055">
        <ele>860</ele>
        <time>2011-07-16T16:11:10Z</time>
      </trkpt>
      <trkpt lat="43.7641" lon="7.00055">
        <ele>860</ele>
        <time>2011-07-16T16:11:11Z</time>
      </trkpt>
      <trkpt lat="43.7641" lon="7.00054">
        <ele>860</ele>
        <time>2011-07-16T16:11:12Z</time>
      </trkpt>
      <trkpt lat="43.7641" lon="7.00053">
        <ele>860</ele>
        <time>2011-07-16T16:11:13Z</time>
      </trkpt>
      <trkpt lat="43.7641" lon="7.00052">
        <ele>860</ele>
        <time>2011-07-16T16:11:14Z</time>
      </trkpt>
      <trkpt lat="43.76411" lon="7.00051">
        <ele>860</ele>
        <time>2011-07-16T16:11:15Z</time>
      </trkpt>
      <trkpt lat="43.76411" lon="7.00048">
        <ele>861</ele>
        <time>2011-07-16T16:11:18Z</time>
      </trkpt>
      <trkpt lat="43.76411" lon="7.00047">
        <ele>861</ele>
        <time>2011-07-16T16:11:19Z</time>
      </trkpt>
      <trkpt lat="43.76411" lon="7.00046">
        <ele>861</ele>
        <time>2011-07-16T16:11:20Z</time>
      </trkpt>
      <trkpt lat="43.76411" lon="7.00044">
        <ele>861</ele>
        <time>2011-07-16T16:11:21Z</time>
      </trkpt>
      <trkpt lat="43.76411" lon="7.00043">
        <ele>861</ele>
        <time>2011-07-16T16:11:22Z</time>
      </trkpt>
      <trkpt lat="43.76412" lon="7.00042">
        <ele>861</ele>
        <time>2011-07-16T16:11:23Z</time>
      </trkpt>
      <trkpt lat="43.76412" lon="7.0004">
        <ele>861</ele>
        <time>2011-07-16T16:11:24Z</time>
      </trkpt>
      <trkpt lat="43.76412" lon="7.00039">
        <ele>861</ele>
        <time>2011-07-16T16:11:25Z</time>
      </trkpt>
      <trkpt lat="43.76413" lon="7.00038">
        <ele>861</ele>
        <time>2011-07-16T16:11:26Z</time>
      </trkpt>
      <trkpt lat="43.76413" lon="7.00036">
        <ele>861</ele>
        <time>2011-07-16T16:11:27Z</time>
      </trkpt>
      <trkpt lat="43.76414" lon="7.00035">
        <ele>861</ele>
        <time>2011-07-16T16:11:28Z</time>
      </trkpt>
      <trkpt lat="43.76414" lon="7.00034">
        <ele>862</ele>
        <time>2011-07-16T16:11:29Z</time>
      </trkpt>
      <trkpt lat="43.76414" lon="7.00032">
        <ele>862</ele>
        <time>2011-07-16T16:11:30Z</time>
      </trkpt>
      <trkpt lat="43.76414" lon="7.00031">
        <ele>862</ele>
        <time>2011-07-16T16:11:31Z</time>
      </trkpt>
      <trkpt lat="43.76415" lon="7.0003">
        <ele>862</ele>
        <time>2011-07-16T16:11:32Z</time>
      </trkpt>
      <trkpt lat="43.76415" lon="7.0003">
        <ele>862</ele>
        <time>2011-07-16T16:11:37Z</time>
      </trkpt>
      <trkpt lat="43.76415" lon="7.00028">
        <ele>862</ele>
        <time>2011-07-16T16:11:38Z</time>
      </trkpt>
      <trkpt lat="43.76415" lon="7.00026">
        <ele>862</ele>
        <time>2011-07-16T16:11:39Z</time>
      </trkpt>
      <trkpt lat="43.76416" lon="7.00024">
        <ele>862</ele>
        <time>2011-07-16T16:11:40Z</time>
      </trkpt>
      <trkpt lat="43.76416" lon="7.00022">
        <ele>862</ele>
        <time>2011-07-16T16:11:41Z</time>
      </trkpt>
      <trkpt lat="43.76417" lon="7.0002">
        <ele>862</ele>
        <time>2011-07-16T16:11:42Z</time>
      </trkpt>
      <trkpt lat="43.76417" lon="7.00018">
        <ele>863</ele>
        <time>2011-07-16T16:11:43Z</time>
      </trkpt>
      <trkpt lat="43.76417" lon="7.00008">
        <ele>863</ele>
        <time>2011-07-16T16:11:47Z</time>
      </trkpt>
      <trkpt lat="43.76417" lon="7.00005">
        <ele>864</ele>
        <time>2011-07-16T16:11:48Z</time>
      </trkpt>
      <trkpt lat="43.76417" lon="7.00003">
        <ele>864</ele>
        <time>2011-07-16T16:11:49Z</time>
      </trkpt>
      <trkpt lat="43.76418" lon="7.00001">
        <ele>864</ele>
        <time>2011-07-16T16:11:50Z</time>
      </trkpt>
      <trkpt lat="43.76418" lon="6.99998">
        <ele>864</ele>
        <time>2011-07-16T16:11:51Z</time>
      </trkpt>
      <trkpt lat="43.76418" lon="6.99996">
        <ele>864</ele>
        <time>2011-07-16T16:11:52Z</time>
      </trkpt>
      <trkpt lat="43.76419" lon="6.99991">
        <ele>864</ele>
        <time>2011-07-16T16:11:54Z</time>
      </trkpt>
      <trkpt lat="43.76419" lon="6.99989">
        <ele>864</ele>
        <time>2011-07-16T16:11:55Z</time>
      </trkpt>
      <trkpt lat="43.76419" lon="6.99986">
        <ele>864</ele>
        <time>2011-07-16T16:11:56Z</time>
      </trkpt>
      <trkpt lat="43.7642" lon="6.99983">
        <ele>864</ele>
        <time>2011-07-16T16:11:57Z</time>
      </trkpt>
      <trkpt lat="43.76421" lon="6.9998">
        <ele>864</ele>
        <time>2011-07-16T16:11:58Z</time>
      </trkpt>
      <trkpt lat="43.76421" lon="6.99977">
        <ele>864</ele>
        <time>2011-07-16T16:11:59Z</time>
      </trkpt>
      <trkpt lat="43.76422" lon="6.99974">
        <ele>864</ele>
        <time>2011-07-16T16:12:00Z</time>
      </trkpt>
      <trkpt lat="43.76422" lon="6.99971">
        <ele>865</ele>
        <time>2011-07-16T16:12:01Z</time>
      </trkpt>
      <trkpt lat="43.76423" lon="6.99968">
        <ele>865</ele>
        <time>2011-07-16T16:12:02Z</time>
      </trkpt>
      <trkpt lat="43.76423" lon="6.99965">
        <ele>865</ele>
        <time>2011-07-16T16:12:03Z</time>
      </trkpt>
      <trkpt lat="43.76424" lon="6.99963">
        <ele>865</ele>
        <time>2011-07-16T16:12:04Z</time>
      </trkpt>
      <trkpt lat="43.76424" lon="6.99961">
        <ele>865</ele>
        <time>2011-07-16T16:12:05Z</time>
      </trkpt>
      <trkpt lat="43.76424" lon="6.99958">
        <ele>865</ele>
        <time>2011-07-16T16:12:06Z</time>
      </trkpt>
      <trkpt lat="43.76424" lon="6.99956">
        <ele>866</ele>
        <time>2011-07-16T16:12:07Z</time>
      </trkpt>
      <trkpt lat="43.76423" lon="6.99953">
        <ele>866</ele>
        <time>2011-07-16T16:12:08Z</time>
      </trkpt>
      <trkpt lat="43.76422" lon="6.99951">
        <ele>867</ele>
        <time>2011-07-16T16:12:09Z</time>
      </trkpt>
      <trkpt lat="43.76422" lon="6.99948">
        <ele>867</ele>
        <time>2011-07-16T16:12:10Z</time>
      </trkpt>
      <trkpt lat="43.76423" lon="6.99946">
        <ele>867</ele>
        <time>2011-07-16T16:12:11Z</time>
      </trkpt>
      <trkpt lat="43.76424" lon="6.99944">
        <ele>867</ele>
        <time>2011-07-16T16:12:12Z</time>
      </trkpt>
      <trkpt lat="43.76425" lon="6.99943">
        <ele>867</ele>
        <time>2011-07-16T16:12:13Z</time>
      </trkpt>
      <trkpt lat="43.76427" lon="6.99941">
        <ele>868</ele>
        <time>2011-07-16T16:12:14Z</time>
      </trkpt>
      <trkpt lat="43.76428" lon="6.9994">
        <ele>868</ele>
        <time>2011-07-16T16:12:15Z</time>
      </trkpt>
      <trkpt lat="43.76429" lon="6.99938">
        <ele>868</ele>
        <time>2011-07-16T16:12:16Z</time>
      </trkpt>
      <trkpt lat="43.76431" lon="6.99937">
        <ele>868</ele>
        <time>2011-07-16T16:12:17Z</time>
      </trkpt>
      <trkpt lat="43.76432" lon="6.99936">
        <ele>868</ele>
        <time>2011-07-16T16:12:18Z</time>
      </trkpt>
      <trkpt lat="43.76433" lon="6.99935">
        <ele>868</ele>
        <time>2011-07-16T16:12:19Z</time>
      </trkpt>
      <trkpt lat="43.76433" lon="6.99934">
        <ele>868</ele>
        <time>2011-07-16T16:12:21Z</time>
      </trkpt>
      <trkpt lat="43.76433" lon="6.99934">
        <ele>868</ele>
        <time>2011-07-16T16:12:23Z</time>
      </trkpt>
      <trkpt lat="43.76434" lon="6.99934">
        <ele>868</ele>
        <time>2011-07-16T16:12:24Z</time>
      </trkpt>
      <trkpt lat="43.76435" lon="6.99933">
        <ele>868</ele>
        <time>2011-07-16T16:12:25Z</time>
      </trkpt>
      <trkpt lat="43.76435" lon="6.99932">
        <ele>869</ele>
        <time>2011-07-16T16:12:26Z</time>
      </trkpt>
      <trkpt lat="43.76436" lon="6.99931">
        <ele>869</ele>
        <time>2011-07-16T16:12:27Z</time>
      </trkpt>
      <trkpt lat="43.76436" lon="6.9993">
        <ele>869</ele>
        <time>2011-07-16T16:12:28Z</time>
      </trkpt>
      <trkpt lat="43.76437" lon="6.9993">
        <ele>869</ele>
        <time>2011-07-16T16:12:34Z</time>
      </trkpt>
      <trkpt lat="43.76437" lon="6.99929">
        <ele>869</ele>
        <time>2011-07-16T16:12:35Z</time>
      </trkpt>
      <trkpt lat="43.76438" lon="6.99928">
        <ele>869</ele>
        <time>2011-07-16T16:12:36Z</time>
      </trkpt>
      <trkpt lat="43.76438" lon="6.99927">
        <ele>870</ele>
        <time>2011-07-16T16:12:37Z</time>
      </trkpt>
      <trkpt lat="43.76439" lon="6.99927">
        <ele>870</ele>
        <time>2011-07-16T16:12:38Z</time>
      </trkpt>
      <trkpt lat="43.7644" lon="6.99926">
        <ele>870</ele>
        <time>2011-07-16T16:12:39Z</time>
      </trkpt>
      <trkpt lat="43.7644" lon="6.99925">
        <ele>870</ele>
        <time>2011-07-16T16:12:40Z</time>
      </trkpt>
      <trkpt lat="43.76441" lon="6.99924">
        <ele>870</ele>
        <time>2011-07-16T16:12:41Z</time>
      </trkpt>
      <trkpt lat="43.76442" lon="6.99924">
        <ele>870</ele>
        <time>2011-07-16T16:12:42Z</time>
      </trkpt>
      <trkpt lat="43.76442" lon="6.99923">
        <ele>870</ele>
        <time>2011-07-16T16:12:43Z</time>
      </trkpt>
      <trkpt lat="43.76442" lon="6.99923">
        <ele>870</ele>
        <time>2011-07-16T16:12:45Z</time>
      </trkpt>
      <trkpt lat="43.76443" lon="6.99922">
        <ele>871</ele>
        <time>2011-07-16T16:12:46Z</time>
      </trkpt>
      <trkpt lat="43.76443" lon="6.99922">
        <ele>871</ele>
        <time>2011-07-16T16:12:47Z</time>
      </trkpt>
      <trkpt lat="43.76444" lon="6.99921">
        <ele>871</ele>
        <time>2011-07-16T16:12:48Z</time>
      </trkpt>
      <trkpt lat="43.76444" lon="6.9992">
        <ele>871</ele>
        <time>2011-07-16T16:12:49Z</time>
      </trkpt>
      <trkpt lat="43.76445" lon="6.99919">
        <ele>871</ele>
        <time>2011-07-16T16:12:50Z</time>
      </trkpt>
      <trkpt lat="43.76446" lon="6.99918">
        <ele>872</ele>
        <time>2011-07-16T16:12:51Z</time>
      </trkpt>
      <trkpt lat="43.76447" lon="6.99918">
        <ele>872</ele>
        <time>2011-07-16T16:12:52Z</time>
      </trkpt>
      <trkpt lat="43.76448" lon="6.99917">
        <ele>872</ele>
        <time>2011-07-16T16:12:53Z</time>
      </trkpt>
      <trkpt lat="43.76449" lon="6.99916">
        <ele>872</ele>
        <time>2011-07-16T16:12:54Z</time>
      </trkpt>
      <trkpt lat="43.7645" lon="6.99915">
        <ele>872</ele>
        <time>2011-07-16T16:12:55Z</time>
      </trkpt>
      <trkpt lat="43.7645" lon="6.99915">
        <ele>872</ele>
        <time>2011-07-16T16:12:56Z</time>
      </trkpt>
      <trkpt lat="43.76452" lon="6.99914">
        <ele>872</ele>
        <time>2011-07-16T16:12:57Z</time>
      </trkpt>
      <trkpt lat="43.76452" lon="6.99913">
        <ele>872</ele>
        <time>2011-07-16T16:12:58Z</time>
      </trkpt>
      <trkpt lat="43.76453" lon="6.99913">
        <ele>872</ele>
        <time>2011-07-16T16:12:59Z</time>
      </trkpt>
      <trkpt lat="43.76455" lon="6.99913">
        <ele>872</ele>
        <time>2011-07-16T16:13:01Z</time>
      </trkpt>
      <trkpt lat="43.76456" lon="6.99912">
        <ele>872</ele>
        <time>2011-07-16T16:13:02Z</time>
      </trkpt>
      <trkpt lat="43.76457" lon="6.99912">
        <ele>872</ele>
        <time>2011-07-16T16:13:03Z</time>
      </trkpt>
      <trkpt lat="43.76458" lon="6.99911">
        <ele>873</ele>
        <time>2011-07-16T16:13:04Z</time>
      </trkpt>
      <trkpt lat="43.76458" lon="6.99911">
        <ele>873</ele>
        <time>2011-07-16T16:13:05Z</time>
      </trkpt>
      <trkpt lat="43.76459" lon="6.9991">
        <ele>873</ele>
        <time>2011-07-16T16:13:06Z</time>
      </trkpt>
      <trkpt lat="43.7646" lon="6.99909">
        <ele>873</ele>
        <time>2011-07-16T16:13:07Z</time>
      </trkpt>
      <trkpt lat="43.76461" lon="6.99909">
        <ele>873</ele>
        <time>2011-07-16T16:13:08Z</time>
      </trkpt>
      <trkpt lat="43.76462" lon="6.99909">
        <ele>873</ele>
        <time>2011-07-16T16:13:09Z</time>
      </trkpt>
      <trkpt lat="43.76463" lon="6.99908">
        <ele>873</ele>
        <time>2011-07-16T16:13:10Z</time>
      </trkpt>
      <trkpt lat="43.76463" lon="6.99908">
        <ele>873</ele>
        <time>2011-07-16T16:13:11Z</time>
      </trkpt>
      <trkpt lat="43.76464" lon="6.99907">
        <ele>873</ele>
        <time>2011-07-16T16:13:12Z</time>
      </trkpt>
      <trkpt lat="43.76465" lon="6.99906">
        <ele>873</ele>
        <time>2011-07-16T16:13:13Z</time>
      </trkpt>
      <trkpt lat="43.76465" lon="6.99905">
        <ele>873</ele>
        <time>2011-07-16T16:13:14Z</time>
      </trkpt>
      <trkpt lat="43.76465" lon="6.99904">
        <ele>873</ele>
        <time>2011-07-16T16:13:15Z</time>
      </trkpt>
      <trkpt lat="43.76465" lon="6.99904">
        <ele>873</ele>
        <time>2011-07-16T16:13:20Z</time>
      </trkpt>
      <trkpt lat="43.76466" lon="6.99902">
        <ele>873</ele>
        <time>2011-07-16T16:13:21Z</time>
      </trkpt>
      <trkpt lat="43.76467" lon="6.99901">
        <ele>873</ele>
        <time>2011-07-16T16:13:22Z</time>
      </trkpt>
      <trkpt lat="43.76468" lon="6.99901">
        <ele>873</ele>
        <time>2011-07-16T16:13:23Z</time>
      </trkpt>
      <trkpt lat="43.76469" lon="6.99901">
        <ele>873</ele>
        <time>2011-07-16T16:13:24Z</time>
      </trkpt>
      <trkpt lat="43.7647" lon="6.99902">
        <ele>873</ele>
        <time>2011-07-16T16:13:25Z</time>
      </trkpt>
      <trkpt lat="43.76471" lon="6.99903">
        <ele>873</ele>
        <time>2011-07-16T16:13:26Z</time>
      </trkpt>
      <trkpt lat="43.76473" lon="6.99904">
        <ele>874</ele>
        <time>2011-07-16T16:13:27Z</time>
      </trkpt>
      <trkpt lat="43.76473" lon="6.99906">
        <ele>874</ele>
        <time>2011-07-16T16:13:28Z</time>
      </trkpt>
      <trkpt lat="43.76474" lon="6.99907">
        <ele>874</ele>
        <time>2011-07-16T16:13:29Z</time>
      </trkpt>
      <trkpt lat="43.76476" lon="6.99908">
        <ele>874</ele>
        <time>2011-07-16T16:13:30Z</time>
      </trkpt>
      <trkpt lat="43.76476" lon="6.99909">
        <ele>874</ele>
        <time>2011-07-16T16:13:31Z</time>
      </trkpt>
      <trkpt lat="43.76477" lon="6.9991">
        <ele>874</ele>
        <time>2011-07-16T16:13:32Z</time>
      </trkpt>
      <trkpt lat="43.76478" lon="6.99911">
        <ele>874</ele>
        <time>2011-07-16T16:13:33Z</time>
      </trkpt>
      <trkpt lat="43.76479" lon="6.99912">
        <ele>874</ele>
        <time>2011-07-16T16:13:34Z</time>
      </trkpt>
      <trkpt lat="43.7648" lon="6.99913">
        <ele>874</ele>
        <time>2011-07-16T16:13:35Z</time>
      </trkpt>
      <trkpt lat="43.76481" lon="6.99913">
        <ele>874</ele>
        <time>2011-07-16T16:13:36Z</time>
      </trkpt>
      <trkpt lat="43.76482" lon="6.99915">
        <ele>874</ele>
        <time>2011-07-16T16:13:37Z</time>
      </trkpt>
      <trkpt lat="43.76483" lon="6.99915">
        <ele>874</ele>
        <time>2011-07-16T16:13:38Z</time>
      </trkpt>
      <trkpt lat="43.76484" lon="6.99916">
        <ele>874</ele>
        <time>2011-07-16T16:13:39Z</time>
      </trkpt>
      <trkpt lat="43.76485" lon="6.99917">
        <ele>874</ele>
        <time>2011-07-16T16:13:40Z</time>
      </trkpt>
      <trkpt lat="43.76485" lon="6.99918">
        <ele>874</ele>
        <time>2011-07-16T16:13:41Z</time>
      </trkpt>
      <trkpt lat="43.76487" lon="6.99919">
        <ele>874</ele>
        <time>2011-07-16T16:13:42Z</time>
      </trkpt>
      <trkpt lat="43.76487" lon="6.9992">
        <ele>874</ele>
        <time>2011-07-16T16:13:43Z</time>
      </trkpt>
      <trkpt lat="43.76488" lon="6.9992">
        <ele>874</ele>
        <time>2011-07-16T16:13:44Z</time>
      </trkpt>
      <trkpt lat="43.76489" lon="6.99921">
        <ele>874</ele>
        <time>2011-07-16T16:13:45Z</time>
      </trkpt>
      <trkpt lat="43.7649" lon="6.99922">
        <ele>874</ele>
        <time>2011-07-16T16:13:46Z</time>
      </trkpt>
      <trkpt lat="43.76492" lon="6.99924">
        <ele>874</ele>
        <time>2011-07-16T16:13:49Z</time>
      </trkpt>
      <trkpt lat="43.76493" lon="6.99925">
        <ele>874</ele>
        <time>2011-07-16T16:13:50Z</time>
      </trkpt>
      <trkpt lat="43.76494" lon="6.99926">
        <ele>874</ele>
        <time>2011-07-16T16:13:51Z</time>
      </trkpt>
      <trkpt lat="43.76495" lon="6.99927">
        <ele>874</ele>
        <time>2011-07-16T16:13:52Z</time>
      </trkpt>
      <trkpt lat="43.76496" lon="6.99928">
        <ele>874</ele>
        <time>2011-07-16T16:13:53Z</time>
      </trkpt>
      <trkpt lat="43.76497" lon="6.99929">
        <ele>874</ele>
        <time>2011-07-16T16:13:54Z</time>
      </trkpt>
      <trkpt lat="43.76497" lon="6.9993">
        <ele>874</ele>
        <time>2011-07-16T16:13:55Z</time>
      </trkpt>
      <trkpt lat="43.76498" lon="6.99931">
        <ele>874</ele>
        <time>2011-07-16T16:13:56Z</time>
      </trkpt>
      <trkpt lat="43.76499" lon="6.99931">
        <ele>874</ele>
        <time>2011-07-16T16:13:57Z</time>
      </trkpt>
      <trkpt lat="43.765" lon="6.99932">
        <ele>874</ele>
        <time>2011-07-16T16:13:58Z</time>
      </trkpt>
      <trkpt lat="43.76501" lon="6.99933">
        <ele>874</ele>
        <time>2011-07-16T16:13:59Z</time>
      </trkpt>
      <trkpt lat="43.76502" lon="6.99934">
        <ele>874</ele>
        <time>2011-07-16T16:14:00Z</time>
      </trkpt>
      <trkpt lat="43.76504" lon="6.99936">
        <ele>874</ele>
        <time>2011-07-16T16:14:01Z</time>
      </trkpt>
      <trkpt lat="43.76505" lon="6.99938">
        <ele>874</ele>
        <time>2011-07-16T16:14:02Z</time>
      </trkpt>
      <trkpt lat="43.76507" lon="6.99939">
        <ele>874</ele>
        <time>2011-07-16T16:14:03Z</time>
      </trkpt>
      <trkpt lat="43.76509" lon="6.9994">
        <ele>874</ele>
        <time>2011-07-16T16:14:04Z</time>
      </trkpt>
      <trkpt lat="43.76511" lon="6.99941">
        <ele>874</ele>
        <time>2011-07-16T16:14:05Z</time>
      </trkpt>
      <trkpt lat="43.76513" lon="6.99942">
        <ele>874</ele>
        <time>2011-07-16T16:14:06Z</time>
      </trkpt>
      <trkpt lat="43.76515" lon="6.99944">
        <ele>874</ele>
        <time>2011-07-16T16:14:07Z</time>
      </trkpt>
      <trkpt lat="43.76517" lon="6.99946">
        <ele>873</ele>
        <time>2011-07-16T16:14:08Z</time>
      </trkpt>
      <trkpt lat="43.76519" lon="6.99948">
        <ele>873</ele>
        <time>2011-07-16T16:14:09Z</time>
      </trkpt>
      <trkpt lat="43.76522" lon="6.99949">
        <ele>873</ele>
        <time>2011-07-16T16:14:10Z</time>
      </trkpt>
      <trkpt lat="43.76524" lon="6.99949">
        <ele>873</ele>
        <time>2011-07-16T16:14:11Z</time>
      </trkpt>
      <trkpt lat="43.76526" lon="6.99949">
        <ele>874</ele>
        <time>2011-07-16T16:14:12Z</time>
      </trkpt>
      <trkpt lat="43.76527" lon="6.99948">
        <ele>874</ele>
        <time>2011-07-16T16:14:13Z</time>
      </trkpt>
      <trkpt lat="43.76528" lon="6.99947">
        <ele>874</ele>
        <time>2011-07-16T16:14:14Z</time>
      </trkpt>
      <trkpt lat="43.76528" lon="6.99947">
        <ele>875</ele>
        <time>2011-07-16T16:14:15Z</time>
      </trkpt>
      <trkpt lat="43.76529" lon="6.99947">
        <ele>875</ele>
        <time>2011-07-16T16:14:16Z</time>
      </trkpt>
      <trkpt lat="43.76529" lon="6.99947">
        <ele>875</ele>
        <time>2011-07-16T16:14:17Z</time>
      </trkpt>
      <trkpt lat="43.7653" lon="6.99947">
        <ele>875</ele>
        <time>2011-07-16T16:14:18Z</time>
      </trkpt>
      <trkpt lat="43.76531" lon="6.99947">
        <ele>875</ele>
        <time>2011-07-16T16:14:19Z</time>
      </trkpt>
      <trkpt lat="43.76531" lon="6.99948">
        <ele>875</ele>
        <time>2011-07-16T16:14:20Z</time>
      </trkpt>
      <trkpt lat="43.76532" lon="6.99948">
        <ele>875</ele>
        <time>2011-07-16T16:14:21Z</time>
      </trkpt>
      <trkpt lat="43.76534" lon="6.99949">
        <ele>875</ele>
        <time>2011-07-16T16:14:22Z</time>
      </trkpt>
      <trkpt lat="43.76535" lon="6.99951">
        <ele>875</ele>
        <time>2011-07-16T16:14:23Z</time>
      </trkpt>
      <trkpt lat="43.76536" lon="6.99952">
        <ele>875</ele>
        <time>2011-07-16T16:14:24Z</time>
      </trkpt>
      <trkpt lat="43.76538" lon="6.99953">
        <ele>875</ele>
        <time>2011-07-16T16:14:25Z</time>
      </trkpt>
      <trkpt lat="43.76539" lon="6.99954">
        <ele>876</ele>
        <time>2011-07-16T16:14:26Z</time>
      </trkpt>
      <trkpt lat="43.76541" lon="6.99955">
        <ele>876</ele>
        <time>2011-07-16T16:14:27Z</time>
      </trkpt>
      <trkpt lat="43.76543" lon="6.99956">
        <ele>876</ele>
        <time>2011-07-16T16:14:28Z</time>
      </trkpt>
      <trkpt lat="43.76545" lon="6.99956">
        <ele>876</ele>
        <time>2011-07-16T16:14:29Z</time>
      </trkpt>
      <trkpt lat="43.76547" lon="6.99956">
        <ele>876</ele>
        <time>2011-07-16T16:14:30Z</time>
      </trkpt>
      <trkpt lat="43.76549" lon="6.99956">
        <ele>877</ele>
        <time>2011-07-16T16:14:31Z</time>
      </trkpt>
      <trkpt lat="43.7655" lon="6.99956">
        <ele>877</ele>
        <time>2011-07-16T16:14:32Z</time>
      </trkpt>
      <trkpt lat="43.76552" lon="6.99956">
        <ele>877</ele>
        <time>2011-07-16T16:14:33Z</time>
      </trkpt>
      <trkpt lat="43.76554" lon="6.99957">
        <ele>878</ele>
        <time>2011-07-16T16:14:34Z</time>
      </trkpt>
      <trkpt lat="43.76555" lon="6.99958">
        <ele>878</ele>
        <time>2011-07-16T16:14:35Z</time>
      </trkpt>
      <trkpt lat="43.76558" lon="6.9996">
        <ele>878</ele>
        <time>2011-07-16T16:14:37Z</time>
      </trkpt>
      <trkpt lat="43.7656" lon="6.99962">
        <ele>879</ele>
        <time>2011-07-16T16:14:38Z</time>
      </trkpt>
      <trkpt lat="43.76561" lon="6.99963">
        <ele>879</ele>
        <time>2011-07-16T16:14:39Z</time>
      </trkpt>
      <trkpt lat="43.76562" lon="6.99964">
        <ele>879</ele>
        <time>2011-07-16T16:14:40Z</time>
      </trkpt>
      <trkpt lat="43.76563" lon="6.99964">
        <ele>879</ele>
        <time>2011-07-16T16:14:41Z</time>
      </trkpt>
      <trkpt lat="43.76563" lon="6.99964">
        <ele>879</ele>
        <time>2011-07-16T16:14:43Z</time>
      </trkpt>
      <trkpt lat="43.76563" lon="6.99965">
        <ele>879</ele>
        <time>2011-07-16T16:14:44Z</time>
      </trkpt>
      <trkpt lat="43.76564" lon="6.99965">
        <ele>879</ele>
        <time>2011-07-16T16:14:45Z</time>
      </trkpt>
      <trkpt lat="43.76565" lon="6.99966">
        <ele>879</ele>
        <time>2011-07-16T16:14:46Z</time>
      </trkpt>
      <trkpt lat="43.76565" lon="6.99967">
        <ele>879</ele>
        <time>2011-07-16T16:14:47Z</time>
      </trkpt>
      <trkpt lat="43.76566" lon="6.99968">
        <ele>879</ele>
        <time>2011-07-16T16:14:48Z</time>
      </trkpt>
      <trkpt lat="43.76567" lon="6.99969">
        <ele>879</ele>
        <time>2011-07-16T16:14:49Z</time>
      </trkpt>
      <trkpt lat="43.76568" lon="6.9997">
        <ele>879</ele>
        <time>2011-07-16T16:14:50Z</time>
      </trkpt>
      <trkpt lat="43.76568" lon="6.99971">
        <ele>879</ele>
        <time>2011-07-16T16:14:51Z</time>
      </trkpt>
      <trkpt lat="43.76569" lon="6.99971">
        <ele>879</ele>
        <time>2011-07-16T16:14:52Z</time>
      </trkpt>
      <trkpt lat="43.7657" lon="6.99972">
        <ele>879</ele>
        <time>2011-07-16T16:14:53Z</time>
      </trkpt>
      <trkpt lat="43.76571" lon="6.99973">
        <ele>879</ele>
        <time>2011-07-16T16:14:54Z</time>
      </trkpt>
      <trkpt lat="43.76571" lon="6.99974">
        <ele>879</ele>
        <time>2011-07-16T16:14:55Z</time>
      </trkpt>
      <trkpt lat="43.76572" lon="6.99975">
        <ele>879</ele>
        <time>2011-07-16T16:14:56Z</time>
      </trkpt>
      <trkpt lat="43.76573" lon="6.99976">
        <ele>879</ele>
        <time>2011-07-16T16:14:57Z</time>
      </trkpt>
      <trkpt lat="43.76574" lon="6.99977">
        <ele>880</ele>
        <time>2011-07-16T16:14:58Z</time>
      </trkpt>
      <trkpt lat="43.76575" lon="6.99978">
        <ele>880</ele>
        <time>2011-07-16T16:14:59Z</time>
      </trkpt>
      <trkpt lat="43.76576" lon="6.99979">
        <ele>880</ele>
        <time>2011-07-16T16:15:00Z</time>
      </trkpt>
      <trkpt lat="43.76577" lon="6.9998">
        <ele>880</ele>
        <time>2011-07-16T16:15:01Z</time>
      </trkpt>
      <trkpt lat="43.76578" lon="6.99981">
        <ele>881</ele>
        <time>2011-07-16T16:15:02Z</time>
      </trkpt>
      <trkpt lat="43.76578" lon="6.99982">
        <ele>881</ele>
        <time>2011-07-16T16:15:03Z</time>
      </trkpt>
      <trkpt lat="43.76578" lon="6.99982">
        <ele>882</ele>
        <time>2011-07-16T16:15:04Z</time>
      </trkpt>
      <trkpt lat="43.76578" lon="6.99982">
        <ele>883</ele>
        <time>2011-07-16T16:15:09Z</time>
      </trkpt>
      <trkpt lat="43.7658" lon="6.99983">
        <ele>883</ele>
        <time>2011-07-16T16:15:10Z</time>
      </trkpt>
      <trkpt lat="43.76581" lon="6.99983">
        <ele>883</ele>
        <time>2011-07-16T16:15:11Z</time>
      </trkpt>
      <trkpt lat="43.76583" lon="6.99984">
        <ele>883</ele>
        <time>2011-07-16T16:15:12Z</time>
      </trkpt>
      <trkpt lat="43.76585" lon="6.99984">
        <ele>883</ele>
        <time>2011-07-16T16:15:13Z</time>
      </trkpt>
      <trkpt lat="43.76587" lon="6.99985">
        <ele>884</ele>
        <time>2011-07-16T16:15:14Z</time>
      </trkpt>
      <trkpt lat="43.76589" lon="6.99985">
        <ele>884</ele>
        <time>2011-07-16T16:15:15Z</time>
      </trkpt>
      <trkpt lat="43.76591" lon="6.99986">
        <ele>884</ele>
        <time>2011-07-16T16:15:16Z</time>
      </trkpt>
      <trkpt lat="43.76593" lon="6.99986">
        <ele>884</ele>
        <time>2011-07-16T16:15:17Z</time>
      </trkpt>
      <trkpt lat="43.76595" lon="6.99986">
        <ele>884</ele>
        <time>2011-07-16T16:15:18Z</time>
      </trkpt>
      <trkpt lat="43.76597" lon="6.99987">
        <ele>884</ele>
        <time>2011-07-16T16:15:19Z</time>
      </trkpt>
      <trkpt lat="43.76599" lon="6.99987">
        <ele>884</ele>
        <time>2011-07-16T16:15:20Z</time>
      </trkpt>
      <trkpt lat="43.766" lon="6.99986">
        <ele>884</ele>
        <time>2011-07-16T16:15:21Z</time>
      </trkpt>
      <trkpt lat="43.76602" lon="6.99986">
        <ele>884</ele>
        <time>2011-07-16T16:15:22Z</time>
      </trkpt>
      <trkpt lat="43.76605" lon="6.99986">
        <ele>884</ele>
        <time>2011-07-16T16:15:23Z</time>
      </trkpt>
      <trkpt lat="43.76606" lon="6.99986">
        <ele>884</ele>
        <time>2011-07-16T16:15:24Z</time>
      </trkpt>
      <trkpt lat="43.76609" lon="6.99986">
        <ele>884</ele>
        <time>2011-07-16T16:15:25Z</time>
      </trkpt>
      <trkpt lat="43.76611" lon="6.99986">
        <ele>884</ele>
        <time>2011-07-16T16:15:26Z</time>
      </trkpt>
      <trkpt lat="43.76613" lon="6.99987">
        <ele>884</ele>
        <time>2011-07-16T16:15:27Z</time>
      </trkpt>
      <trkpt lat="43.76615" lon="6.99987">
        <ele>884</ele>
        <time>2011-07-16T16:15:28Z</time>
      </trkpt>
      <trkpt lat="43.76617" lon="6.99988">
        <ele>884</ele>
        <time>2011-07-16T16:15:29Z</time>
      </trkpt>
      <trkpt lat="43.7662" lon="6.99987">
        <ele>884</ele>
        <time>2011-07-16T16:15:30Z</time>
      </trkpt>
      <trkpt lat="43.76622" lon="6.99987">
        <ele>884</ele>
        <time>2011-07-16T16:15:31Z</time>
      </trkpt>
      <trkpt lat="43.76625" lon="6.99986">
        <ele>884</ele>
        <time>2011-07-16T16:15:32Z</time>
      </trkpt>
      <trkpt lat="43.76627" lon="6.99984">
        <ele>883</ele>
        <time>2011-07-16T16:15:33Z</time>
      </trkpt>
      <trkpt lat="43.7663" lon="6.99983">
        <ele>883</ele>
        <time>2011-07-16T16:15:34Z</time>
      </trkpt>
      <trkpt lat="43.76632" lon="6.99982">
        <ele>883</ele>
        <time>2011-07-16T16:15:35Z</time>
      </trkpt>
      <trkpt lat="43.76635" lon="6.9998">
        <ele>883</ele>
        <time>2011-07-16T16:15:36Z</time>
      </trkpt>
      <trkpt lat="43.76638" lon="6.99979">
        <ele>883</ele>
        <time>2011-07-16T16:15:37Z</time>
      </trkpt>
      <trkpt lat="43.7664" lon="6.99978">
        <ele>883</ele>
        <time>2011-07-16T16:15:38Z</time>
      </trkpt>
      <trkpt lat="43.76643" lon="6.99977">
        <ele>883</ele>
        <time>2011-07-16T16:15:39Z</time>
      </trkpt>
      <trkpt lat="43.76645" lon="6.99976">
        <ele>883</ele>
        <time>2011-07-16T16:15:40Z</time>
      </trkpt>
      <trkpt lat="43.76646" lon="6.99977">
        <ele>883</ele>
        <time>2011-07-16T16:15:41Z</time>
      </trkpt>
      <trkpt lat="43.76647" lon="6.99978">
        <ele>883</ele>
        <time>2011-07-16T16:15:43Z</time>
      </trkpt>
      <trkpt lat="43.76647" lon="6.99979">
        <ele>883</ele>
        <time>2011-07-16T16:15:44Z</time>
      </trkpt>
      <trkpt lat="43.76648" lon="6.9998">
        <ele>883</ele>
        <time>2011-07-16T16:15:45Z</time>
      </trkpt>
      <trkpt lat="43.76648" lon="6.9998">
        <ele>883</ele>
        <time>2011-07-16T16:15:46Z</time>
      </trkpt>
      <trkpt lat="43.7665" lon="6.99982">
        <ele>883</ele>
        <time>2011-07-16T16:15:47Z</time>
      </trkpt>
      <trkpt lat="43.76652" lon="6.99983">
        <ele>883</ele>
        <time>2011-07-16T16:15:48Z</time>
      </trkpt>
      <trkpt lat="43.76654" lon="6.99983">
        <ele>882</ele>
        <time>2011-07-16T16:15:49Z</time>
      </trkpt>
      <trkpt lat="43.76656" lon="6.99984">
        <ele>882</ele>
        <time>2011-07-16T16:15:50Z</time>
      </trkpt>
      <trkpt lat="43.76659" lon="6.99984">
        <ele>882</ele>
        <time>2011-07-16T16:15:51Z</time>
      </trkpt>
      <trkpt lat="43.76662" lon="6.99984">
        <ele>882</ele>
        <time>2011-07-16T16:15:52Z</time>
      </trkpt>
      <trkpt lat="43.76666" lon="6.99983">
        <ele>881</ele>
        <time>2011-07-16T16:15:53Z</time>
      </trkpt>
      <trkpt lat="43.76669" lon="6.99981">
        <ele>881</ele>
        <time>2011-07-16T16:15:54Z</time>
      </trkpt>
      <trkpt lat="43.76672" lon="6.9998">
        <ele>881</ele>
        <time>2011-07-16T16:15:55Z</time>
      </trkpt>
      <trkpt lat="43.76675" lon="6.99979">
        <ele>881</ele>
        <time>2011-07-16T16:15:56Z</time>
      </trkpt>
      <trkpt lat="43.76677" lon="6.99978">
        <ele>881</ele>
        <time>2011-07-16T16:15:57Z</time>
      </trkpt>
      <trkpt lat="43.76679" lon="6.99976">
        <ele>881</ele>
        <time>2011-07-16T16:15:58Z</time>
      </trkpt>
      <trkpt lat="43.76681" lon="6.99975">
        <ele>881</ele>
        <time>2011-07-16T16:15:59Z</time>
      </trkpt>
      <trkpt lat="43.76682" lon="6.99973">
        <ele>881</ele>
        <time>2011-07-16T16:16:00Z</time>
      </trkpt>
      <trkpt lat="43.76683" lon="6.99971">
        <ele>881</ele>
        <time>2011-07-16T16:16:01Z</time>
      </trkpt>
      <trkpt lat="43.76685" lon="6.9997">
        <ele>881</ele>
        <time>2011-07-16T16:16:02Z</time>
      </trkpt>
      <trkpt lat="43.76687" lon="6.99969">
        <ele>881</ele>
        <time>2011-07-16T16:16:03Z</time>
      </trkpt>
      <trkpt lat="43.76689" lon="6.99968">
        <ele>880</ele>
        <time>2011-07-16T16:16:04Z</time>
      </trkpt>
      <trkpt lat="43.76691" lon="6.99966">
        <ele>880</ele>
        <time>2011-07-16T16:16:05Z</time>
      </trkpt>
      <trkpt lat="43.76693" lon="6.99965">
        <ele>880</ele>
        <time>2011-07-16T16:16:06Z</time>
      </trkpt>
      <trkpt lat="43.76694" lon="6.99964">
        <ele>880</ele>
        <time>2011-07-16T16:16:07Z</time>
      </trkpt>
      <trkpt lat="43.76695" lon="6.99964">
        <ele>880</ele>
        <time>2011-07-16T16:16:08Z</time>
      </trkpt>
      <trkpt lat="43.76696" lon="6.99963">
        <ele>880</ele>
        <time>2011-07-16T16:16:09Z</time>
      </trkpt>
      <trkpt lat="43.76697" lon="6.99963">
        <ele>880</ele>
        <time>2011-07-16T16:16:10Z</time>
      </trkpt>
      <trkpt lat="43.76698" lon="6.99963">
        <ele>880</ele>
        <time>2011-07-16T16:16:11Z</time>
      </trkpt>
      <trkpt lat="43.767" lon="6.99962">
        <ele>879</ele>
        <time>2011-07-16T16:16:12Z</time>
      </trkpt>
      <trkpt lat="43.76702" lon="6.99961">
        <ele>879</ele>
        <time>2011-07-16T16:16:13Z</time>
      </trkpt>
      <trkpt lat="43.76704" lon="6.99959">
        <ele>879</ele>
        <time>2011-07-16T16:16:14Z</time>
      </trkpt>
      <trkpt lat="43.76705" lon="6.99958">
        <ele>879</ele>
        <time>2011-07-16T16:16:15Z</time>
      </trkpt>
      <trkpt lat="43.76707" lon="6.99955">
        <ele>879</ele>
        <time>2011-07-16T16:16:16Z</time>
      </trkpt>
      <trkpt lat="43.76708" lon="6.99954">
        <ele>879</ele>
        <time>2011-07-16T16:16:17Z</time>
      </trkpt>
      <trkpt lat="43.7671" lon="6.99953">
        <ele>879</ele>
        <time>2011-07-16T16:16:18Z</time>
      </trkpt>
      <trkpt lat="43.76712" lon="6.99951">
        <ele>878</ele>
        <time>2011-07-16T16:16:19Z</time>
      </trkpt>
      <trkpt lat="43.76714" lon="6.99949">
        <ele>878</ele>
        <time>2011-07-16T16:16:20Z</time>
      </trkpt>
      <trkpt lat="43.76716" lon="6.99947">
        <ele>878</ele>
        <time>2011-07-16T16:16:21Z</time>
      </trkpt>
      <trkpt lat="43.76717" lon="6.99945">
        <ele>878</ele>
        <time>2011-07-16T16:16:22Z</time>
      </trkpt>
      <trkpt lat="43.76719" lon="6.99944">
        <ele>878</ele>
        <time>2011-07-16T16:16:23Z</time>
      </trkpt>
      <trkpt lat="43.76721" lon="6.99943">
        <ele>878</ele>
        <time>2011-07-16T16:16:24Z</time>
      </trkpt>
      <trkpt lat="43.76723" lon="6.99944">
        <ele>878</ele>
        <time>2011-07-16T16:16:25Z</time>
      </trkpt>
      <trkpt lat="43.76725" lon="6.99944">
        <ele>878</ele>
        <time>2011-07-16T16:16:26Z</time>
      </trkpt>
      <trkpt lat="43.76727" lon="6.99945">
        <ele>878</ele>
        <time>2011-07-16T16:16:27Z</time>
      </trkpt>
      <trkpt lat="43.76729" lon="6.99945">
        <ele>878</ele>
        <time>2011-07-16T16:16:28Z</time>
      </trkpt>
      <trkpt lat="43.76731" lon="6.99945">
        <ele>878</ele>
        <time>2011-07-16T16:16:29Z</time>
      </trkpt>
      <trkpt lat="43.76731" lon="6.99945">
        <ele>878</ele>
        <time>2011-07-16T16:16:30Z</time>
      </trkpt>
      <trkpt lat="43.76731" lon="6.99944">
        <ele>878</ele>
        <time>2011-07-16T16:16:32Z</time>
      </trkpt>
      <trkpt lat="43.76732" lon="6.99943">
        <ele>878</ele>
        <time>2011-07-16T16:16:33Z</time>
      </trkpt>
      <trkpt lat="43.76732" lon="6.99943">
        <ele>878</ele>
        <time>2011-07-16T16:16:34Z</time>
      </trkpt>
      <trkpt lat="43.76733" lon="6.99942">
        <ele>878</ele>
        <time>2011-07-16T16:16:35Z</time>
      </trkpt>
      <trkpt lat="43.76733" lon="6.99941">
        <ele>878</ele>
        <time>2011-07-16T16:16:36Z</time>
      </trkpt>
      <trkpt lat="43.76733" lon="6.9994">
        <ele>878</ele>
        <time>2011-07-16T16:16:37Z</time>
      </trkpt>
      <trkpt lat="43.76733" lon="6.99936">
        <ele>879</ele>
        <time>2011-07-16T16:16:41Z</time>
      </trkpt>
      <trkpt lat="43.76733" lon="6.99934">
        <ele>879</ele>
        <time>2011-07-16T16:16:42Z</time>
      </trkpt>
      <trkpt lat="43.76733" lon="6.99934">
        <ele>879</ele>
        <time>2011-07-16T16:16:43Z</time>
      </trkpt>
      <trkpt lat="43.76734" lon="6.99933">
        <ele>879</ele>
        <time>2011-07-16T16:16:44Z</time>
      </trkpt>
      <trkpt lat="43.76734" lon="6.99933">
        <ele>879</ele>
        <time>2011-07-16T16:16:48Z</time>
      </trkpt>
      <trkpt lat="43.76735" lon="6.99932">
        <ele>879</ele>
        <time>2011-07-16T16:16:49Z</time>
      </trkpt>
      <trkpt lat="43.76736" lon="6.99931">
        <ele>879</ele>
        <time>2011-07-16T16:16:50Z</time>
      </trkpt>
      <trkpt lat="43.76738" lon="6.99931">
        <ele>878</ele>
        <time>2011-07-16T16:16:51Z</time>
      </trkpt>
      <trkpt lat="43.7674" lon="6.9993">
        <ele>878</ele>
        <time>2011-07-16T16:16:52Z</time>
      </trkpt>
      <trkpt lat="43.76743" lon="6.9993">
        <ele>878</ele>
        <time>2011-07-16T16:16:53Z</time>
      </trkpt>
      <trkpt lat="43.76746" lon="6.99929">
        <ele>878</ele>
        <time>2011-07-16T16:16:54Z</time>
      </trkpt>
      <trkpt lat="43.76749" lon="6.99927">
        <ele>877</ele>
        <time>2011-07-16T16:16:55Z</time>
      </trkpt>
      <trkpt lat="43.7675" lon="6.99924">
        <ele>877</ele>
        <time>2011-07-16T16:16:56Z</time>
      </trkpt>
      <trkpt lat="43.76751" lon="6.9992">
        <ele>877</ele>
        <time>2011-07-16T16:16:57Z</time>
      </trkpt>
      <trkpt lat="43.76752" lon="6.99917">
        <ele>877</ele>
        <time>2011-07-16T16:16:58Z</time>
      </trkpt>
      <trkpt lat="43.76752" lon="6.99914">
        <ele>877</ele>
        <time>2011-07-16T16:16:59Z</time>
      </trkpt>
      <trkpt lat="43.76752" lon="6.99912">
        <ele>876</ele>
        <time>2011-07-16T16:17:00Z</time>
      </trkpt>
      <trkpt lat="43.76752" lon="6.99911">
        <ele>876</ele>
        <time>2011-07-16T16:17:01Z</time>
      </trkpt>
      <trkpt lat="43.76752" lon="6.99911">
        <ele>876</ele>
        <time>2011-07-16T16:17:06Z</time>
      </trkpt>
      <trkpt lat="43.76753" lon="6.9991">
        <ele>876</ele>
        <time>2011-07-16T16:17:18Z</time>
      </trkpt>
      <trkpt lat="43.76753" lon="6.9991">
        <ele>876</ele>
        <time>2011-07-16T16:17:30Z</time>
      </trkpt>
      <trkpt lat="43.76753" lon="6.99912">
        <ele>876</ele>
        <time>2011-07-16T16:17:35Z</time>
      </trkpt>
      <trkpt lat="43.76753" lon="6.99912">
        <ele>876</ele>
        <time>2011-07-16T16:17:59Z</time>
      </trkpt>
      <trkpt lat="43.76753" lon="6.9991">
        <ele>876</ele>
        <time>2011-07-16T16:18:00Z</time>
      </trkpt>
      <trkpt lat="43.76754" lon="6.99908">
        <ele>876</ele>
        <time>2011-07-16T16:18:01Z</time>
      </trkpt>
      <trkpt lat="43.76755" lon="6.99905">
        <ele>876</ele>
        <time>2011-07-16T16:18:02Z</time>
      </trkpt>
      <trkpt lat="43.76756" lon="6.99901">
        <ele>876</ele>
        <time>2011-07-16T16:18:03Z</time>
      </trkpt>
      <trkpt lat="43.76757" lon="6.99896">
        <ele>875</ele>
        <time>2011-07-16T16:18:04Z</time>
      </trkpt>
      <trkpt lat="43.76758" lon="6.99892">
        <ele>875</ele>
        <time>2011-07-16T16:18:05Z</time>
      </trkpt>
      <trkpt lat="43.7676" lon="6.99887">
        <ele>874</ele>
        <time>2011-07-16T16:18:06Z</time>
      </trkpt>
      <trkpt lat="43.76762" lon="6.99883">
        <ele>874</ele>
        <time>2011-07-16T16:18:07Z</time>
      </trkpt>
      <trkpt lat="43.76766" lon="6.9988">
        <ele>874</ele>
        <time>2011-07-16T16:18:08Z</time>
      </trkpt>
      <trkpt lat="43.76769" lon="6.99879">
        <ele>874</ele>
        <time>2011-07-16T16:18:09Z</time>
      </trkpt>
      <trkpt lat="43.76772" lon="6.99878">
        <ele>874</ele>
        <time>2011-07-16T16:18:10Z</time>
      </trkpt>
      <trkpt lat="43.76774" lon="6.99878">
        <ele>874</ele>
        <time>2011-07-16T16:18:11Z</time>
      </trkpt>
      <trkpt lat="43.76776" lon="6.99879">
        <ele>874</ele>
        <time>2011-07-16T16:18:12Z</time>
      </trkpt>
      <trkpt lat="43.76778" lon="6.99879">
        <ele>874</ele>
        <time>2011-07-16T16:18:13Z</time>
      </trkpt>
      <trkpt lat="43.7678" lon="6.99878">
        <ele>874</ele>
        <time>2011-07-16T16:18:14Z</time>
      </trkpt>
      <trkpt lat="43.76783" lon="6.99878">
        <ele>874</ele>
        <time>2011-07-16T16:18:15Z</time>
      </trkpt>
      <trkpt lat="43.76785" lon="6.99878">
        <ele>874</ele>
        <time>2011-07-16T16:18:16Z</time>
      </trkpt>
      <trkpt lat="43.76787" lon="6.99878">
        <ele>874</ele>
        <time>2011-07-16T16:18:17Z</time>
      </trkpt>
      <trkpt lat="43.7679" lon="6.99878">
        <ele>874</ele>
        <time>2011-07-16T16:18:18Z</time>
      </trkpt>
      <trkpt lat="43.76793" lon="6.99878">
        <ele>874</ele>
        <time>2011-07-16T16:18:19Z</time>
      </trkpt>
      <trkpt lat="43.76796" lon="6.99877">
        <ele>874</ele>
        <time>2011-07-16T16:18:20Z</time>
      </trkpt>
      <trkpt lat="43.76798" lon="6.99876">
        <ele>874</ele>
        <time>2011-07-16T16:18:21Z</time>
      </trkpt>
      <trkpt lat="43.76801" lon="6.99876">
        <ele>874</ele>
        <time>2011-07-16T16:18:22Z</time>
      </trkpt>
      <trkpt lat="43.76804" lon="6.99875">
        <ele>874</ele>
        <time>2011-07-16T16:18:23Z</time>
      </trkpt>
      <trkpt lat="43.76806" lon="6.99874">
        <ele>874</ele>
        <time>2011-07-16T16:18:24Z</time>
      </trkpt>
      <trkpt lat="43.76809" lon="6.99873">
        <ele>874</ele>
        <time>2011-07-16T16:18:25Z</time>
      </trkpt>
      <trkpt lat="43.76812" lon="6.99872">
        <ele>874</ele>
        <time>2011-07-16T16:18:26Z</time>
      </trkpt>
      <trkpt lat="43.76815" lon="6.99871">
        <ele>873</ele>
        <time>2011-07-16T16:18:27Z</time>
      </trkpt>
      <trkpt lat="43.76819" lon="6.9987">
        <ele>873</ele>
        <time>2011-07-16T16:18:28Z</time>
      </trkpt>
      <trkpt lat="43.76822" lon="6.99868">
        <ele>873</ele>
        <time>2011-07-16T16:18:29Z</time>
      </trkpt>
      <trkpt lat="43.76826" lon="6.99865">
        <ele>873</ele>
        <time>2011-07-16T16:18:30Z</time>
      </trkpt>
      <trkpt lat="43.76829" lon="6.99863">
        <ele>872</ele>
        <time>2011-07-16T16:18:31Z</time>
      </trkpt>
      <trkpt lat="43.76833" lon="6.9986">
        <ele>872</ele>
        <time>2011-07-16T16:18:32Z</time>
      </trkpt>
      <trkpt lat="43.76838" lon="6.99858">
        <ele>871</ele>
        <time>2011-07-16T16:18:33Z</time>
      </trkpt>
      <trkpt lat="43.76842" lon="6.99857">
        <ele>871</ele>
        <time>2011-07-16T16:18:34Z</time>
      </trkpt>
      <trkpt lat="43.76847" lon="6.99857">
        <ele>871</ele>
        <time>2011-07-16T16:18:35Z</time>
      </trkpt>
      <trkpt lat="43.7685" lon="6.99858">
        <ele>871</ele>
        <time>2011-07-16T16:18:36Z</time>
      </trkpt>
      <trkpt lat="43.76854" lon="6.99858">
        <ele>871</ele>
        <time>2011-07-16T16:18:37Z</time>
      </trkpt>
      <trkpt lat="43.76857" lon="6.99857">
        <ele>871</ele>
        <time>2011-07-16T16:18:38Z</time>
      </trkpt>
      <trkpt lat="43.76861" lon="6.99855">
        <ele>871</ele>
        <time>2011-07-16T16:18:39Z</time>
      </trkpt>
      <trkpt lat="43.76864" lon="6.99853">
        <ele>870</ele>
        <time>2011-07-16T16:18:40Z</time>
      </trkpt>
      <trkpt lat="43.76867" lon="6.9985">
        <ele>870</ele>
        <time>2011-07-16T16:18:41Z</time>
      </trkpt>
      <trkpt lat="43.7687" lon="6.99847">
        <ele>870</ele>
        <time>2011-07-16T16:18:42Z</time>
      </trkpt>
      <trkpt lat="43.76874" lon="6.99844">
        <ele>870</ele>
        <time>2011-07-16T16:18:43Z</time>
      </trkpt>
      <trkpt lat="43.76878" lon="6.99841">
        <ele>869</ele>
        <time>2011-07-16T16:18:44Z</time>
      </trkpt>
      <trkpt lat="43.76882" lon="6.99838">
        <ele>869</ele>
        <time>2011-07-16T16:18:45Z</time>
      </trkpt>
      <trkpt lat="43.76887" lon="6.99836">
        <ele>869</ele>
        <time>2011-07-16T16:18:46Z</time>
      </trkpt>
      <trkpt lat="43.76892" lon="6.99834">
        <ele>868</ele>
        <time>2011-07-16T16:18:47Z</time>
      </trkpt>
      <trkpt lat="43.76897" lon="6.99833">
        <ele>868</ele>
        <time>2011-07-16T16:18:48Z</time>
      </trkpt>
      <trkpt lat="43.76901" lon="6.99832">
        <ele>868</ele>
        <time>2011-07-16T16:18:49Z</time>
      </trkpt>
      <trkpt lat="43.76903" lon="6.99831">
        <ele>868</ele>
        <time>2011-07-16T16:18:50Z</time>
      </trkpt>
      <trkpt lat="43.76906" lon="6.9983">
        <ele>868</ele>
        <time>2011-07-16T16:18:51Z</time>
      </trkpt>
      <trkpt lat="43.76906" lon="6.99829">
        <ele>867</ele>
        <time>2011-07-16T16:18:52Z</time>
      </trkpt>
      <trkpt lat="43.76907" lon="6.99828">
        <ele>867</ele>
        <time>2011-07-16T16:18:53Z</time>
      </trkpt>
      <trkpt lat="43.76907" lon="6.99827">
        <ele>867</ele>
        <time>2011-07-16T16:18:54Z</time>
      </trkpt>
      <trkpt lat="43.76907" lon="6.99827">
        <ele>866</ele>
        <time>2011-07-16T16:19:09Z</time>
      </trkpt>
      <trkpt lat="43.76907" lon="6.99826">
        <ele>866</ele>
        <time>2011-07-16T16:19:10Z</time>
      </trkpt>
      <trkpt lat="43.76907" lon="6.99825">
        <ele>866</ele>
        <time>2011-07-16T16:19:11Z</time>
      </trkpt>
      <trkpt lat="43.76907" lon="6.99823">
        <ele>866</ele>
        <time>2011-07-16T16:19:12Z</time>
      </trkpt>
      <trkpt lat="43.76906" lon="6.99821">
        <ele>866</ele>
        <time>2011-07-16T16:19:13Z</time>
      </trkpt>
      <trkpt lat="43.76903" lon="6.99819">
        <ele>866</ele>
        <time>2011-07-16T16:19:14Z</time>
      </trkpt>
      <trkpt lat="43.76901" lon="6.99817">
        <ele>865</ele>
        <time>2011-07-16T16:19:15Z</time>
      </trkpt>
      <trkpt lat="43.76897" lon="6.99815">
        <ele>865</ele>
        <time>2011-07-16T16:19:16Z</time>
      </trkpt>
      <trkpt lat="43.76894" lon="6.99813">
        <ele>865</ele>
        <time>2011-07-16T16:19:17Z</time>
      </trkpt>
      <trkpt lat="43.76891" lon="6.99811">
        <ele>864</ele>
        <time>2011-07-16T16:19:18Z</time>
      </trkpt>
      <trkpt lat="43.76888" lon="6.99808">
        <ele>863</ele>
        <time>2011-07-16T16:19:19Z</time>
      </trkpt>
      <trkpt lat="43.76884" lon="6.99805">
        <ele>863</ele>
        <time>2011-07-16T16:19:20Z</time>
      </trkpt>
      <trkpt lat="43.76881" lon="6.99802">
        <ele>862</ele>
        <time>2011-07-16T16:19:21Z</time>
      </trkpt>
      <trkpt lat="43.76878" lon="6.99799">
        <ele>862</ele>
        <time>2011-07-16T16:19:22Z</time>
      </trkpt>
      <trkpt lat="43.76874" lon="6.99796">
        <ele>861</ele>
        <time>2011-07-16T16:19:23Z</time>
      </trkpt>
      <trkpt lat="43.7687" lon="6.99794">
        <ele>861</ele>
        <time>2011-07-16T16:19:24Z</time>
      </trkpt>
      <trkpt lat="43.76863" lon="6.99791">
        <ele>860</ele>
        <time>2011-07-16T16:19:26Z</time>
      </trkpt>
      <trkpt lat="43.76859" lon="6.9979">
        <ele>860</ele>
        <time>2011-07-16T16:19:27Z</time>
      </trkpt>
      <trkpt lat="43.76856" lon="6.99788">
        <ele>860</ele>
        <time>2011-07-16T16:19:28Z</time>
      </trkpt>
      <trkpt lat="43.76852" lon="6.99786">
        <ele>859</ele>
        <time>2011-07-16T16:19:29Z</time>
      </trkpt>
      <trkpt lat="43.76848" lon="6.99784">
        <ele>860</ele>
        <time>2011-07-16T16:19:30Z</time>
      </trkpt>
      <trkpt lat="43.76845" lon="6.99783">
        <ele>859</ele>
        <time>2011-07-16T16:19:31Z</time>
      </trkpt>
      <trkpt lat="43.76841" lon="6.99782">
        <ele>858</ele>
        <time>2011-07-16T16:19:32Z</time>
      </trkpt>
      <trkpt lat="43.76837" lon="6.99781">
        <ele>857</ele>
        <time>2011-07-16T16:19:33Z</time>
      </trkpt>
      <trkpt lat="43.76832" lon="6.9978">
        <ele>857</ele>
        <time>2011-07-16T16:19:34Z</time>
      </trkpt>
      <trkpt lat="43.76829" lon="6.99779">
        <ele>857</ele>
        <time>2011-07-16T16:19:35Z</time>
      </trkpt>
      <trkpt lat="43.76826" lon="6.99777">
        <ele>856</ele>
        <time>2011-07-16T16:19:36Z</time>
      </trkpt>
      <trkpt lat="43.76823" lon="6.99774">
        <ele>855</ele>
        <time>2011-07-16T16:19:37Z</time>
      </trkpt>
      <trkpt lat="43.76819" lon="6.99772">
        <ele>854</ele>
        <time>2011-07-16T16:19:38Z</time>
      </trkpt>
      <trkpt lat="43.76815" lon="6.9977">
        <ele>853</ele>
        <time>2011-07-16T16:19:39Z</time>
      </trkpt>
      <trkpt lat="43.76812" lon="6.99768">
        <ele>853</ele>
        <time>2011-07-16T16:19:40Z</time>
      </trkpt>
      <trkpt lat="43.76808" lon="6.99766">
        <ele>852</ele>
        <time>2011-07-16T16:19:41Z</time>
      </trkpt>
      <trkpt lat="43.76803" lon="6.99764">
        <ele>851</ele>
        <time>2011-07-16T16:19:42Z</time>
      </trkpt>
      <trkpt lat="43.76799" lon="6.99763">
        <ele>850</ele>
        <time>2011-07-16T16:19:43Z</time>
      </trkpt>
      <trkpt lat="43.76795" lon="6.99761">
        <ele>848</ele>
        <time>2011-07-16T16:19:44Z</time>
      </trkpt>
      <trkpt lat="43.76791" lon="6.99759">
        <ele>847</ele>
        <time>2011-07-16T16:19:45Z</time>
      </trkpt>
      <trkpt lat="43.76787" lon="6.99758">
        <ele>846</ele>
        <time>2011-07-16T16:19:46Z</time>
      </trkpt>
      <trkpt lat="43.76784" lon="6.99756">
        <ele>845</ele>
        <time>2011-07-16T16:19:47Z</time>
      </trkpt>
      <trkpt lat="43.76781" lon="6.99754">
        <ele>844</ele>
        <time>2011-07-16T16:19:48Z</time>
      </trkpt>
      <trkpt lat="43.76779" lon="6.99751">
        <ele>843</ele>
        <time>2011-07-16T16:19:49Z</time>
      </trkpt>
      <trkpt lat="43.76777" lon="6.99748">
        <ele>842</ele>
        <time>2011-07-16T16:19:50Z</time>
      </trkpt>
      <trkpt lat="43.76774" lon="6.99745">
        <ele>841</ele>
        <time>2011-07-16T16:19:51Z</time>
      </trkpt>
      <trkpt lat="43.76772" lon="6.99742">
        <ele>840</ele>
        <time>2011-07-16T16:19:52Z</time>
      </trkpt>
      <trkpt lat="43.76769" lon="6.99739">
        <ele>839</ele>
        <time>2011-07-16T16:19:53Z</time>
      </trkpt>
      <trkpt lat="43.76767" lon="6.99737">
        <ele>839</ele>
        <time>2011-07-16T16:19:54Z</time>
      </trkpt>
      <trkpt lat="43.76763" lon="6.99736">
        <ele>838</ele>
        <time>2011-07-16T16:19:55Z</time>
      </trkpt>
      <trkpt lat="43.7676" lon="6.99735">
        <ele>837</ele>
        <time>2011-07-16T16:19:56Z</time>
      </trkpt>
      <trkpt lat="43.76755" lon="6.99736">
        <ele>836</ele>
        <time>2011-07-16T16:19:57Z</time>
      </trkpt>
      <trkpt lat="43.76751" lon="6.99737">
        <ele>836</ele>
        <time>2011-07-16T16:19:58Z</time>
      </trkpt>
      <trkpt lat="43.76747" lon="6.99738">
        <ele>836</ele>
        <time>2011-07-16T16:19:59Z</time>
      </trkpt>
      <trkpt lat="43.76743" lon="6.99738">
        <ele>836</ele>
        <time>2011-07-16T16:20:00Z</time>
      </trkpt>
      <trkpt lat="43.7674" lon="6.99737">
        <ele>836</ele>
        <time>2011-07-16T16:20:01Z</time>
      </trkpt>
      <trkpt lat="43.76736" lon="6.99736">
        <ele>835</ele>
        <time>2011-07-16T16:20:02Z</time>
      </trkpt>
      <trkpt lat="43.76733" lon="6.99734">
        <ele>835</ele>
        <time>2011-07-16T16:20:03Z</time>
      </trkpt>
      <trkpt lat="43.76731" lon="6.99732">
        <ele>835</ele>
        <time>2011-07-16T16:20:04Z</time>
      </trkpt>
      <trkpt lat="43.76728" lon="6.99731">
        <ele>835</ele>
        <time>2011-07-16T16:20:05Z</time>
      </trkpt>
      <trkpt lat="43.76724" lon="6.99729">
        <ele>835</ele>
        <time>2011-07-16T16:20:06Z</time>
      </trkpt>
      <trkpt lat="43.76721" lon="6.99728">
        <ele>835</ele>
        <time>2011-07-16T16:20:07Z</time>
      </trkpt>
      <trkpt lat="43.76718" lon="6.99728">
        <ele>835</ele>
        <time>2011-07-16T16:20:08Z</time>
      </trkpt>
      <trkpt lat="43.76715" lon="6.99727">
        <ele>835</ele>
        <time>2011-07-16T16:20:09Z</time>
      </trkpt>
      <trkpt lat="43.76711" lon="6.99726">
        <ele>835</ele>
        <time>2011-07-16T16:20:10Z</time>
      </trkpt>
      <trkpt lat="43.76708" lon="6.99724">
        <ele>835</ele>
        <time>2011-07-16T16:20:11Z</time>
      </trkpt>
      <trkpt lat="43.76705" lon="6.99721">
        <ele>834</ele>
        <time>2011-07-16T16:20:12Z</time>
      </trkpt>
      <trkpt lat="43.76702" lon="6.9972">
        <ele>833</ele>
        <time>2011-07-16T16:20:13Z</time>
      </trkpt>
      <trkpt lat="43.76699" lon="6.99719">
        <ele>833</ele>
        <time>2011-07-16T16:20:14Z</time>
      </trkpt>
      <trkpt lat="43.76697" lon="6.99717">
        <ele>832</ele>
        <time>2011-07-16T16:20:15Z</time>
      </trkpt>
      <trkpt lat="43.76694" lon="6.99717">
        <ele>832</ele>
        <time>2011-07-16T16:20:16Z</time>
      </trkpt>
      <trkpt lat="43.76691" lon="6.99716">
        <ele>832</ele>
        <time>2011-07-16T16:20:17Z</time>
      </trkpt>
      <trkpt lat="43.76689" lon="6.99714">
        <ele>832</ele>
        <time>2011-07-16T16:20:18Z</time>
      </trkpt>
      <trkpt lat="43.76686" lon="6.99713">
        <ele>832</ele>
        <time>2011-07-16T16:20:19Z</time>
      </trkpt>
      <trkpt lat="43.76683" lon="6.99712">
        <ele>831</ele>
        <time>2011-07-16T16:20:20Z</time>
      </trkpt>
      <trkpt lat="43.76679" lon="6.99711">
        <ele>830</ele>
        <time>2011-07-16T16:20:21Z</time>
      </trkpt>
      <trkpt lat="43.76675" lon="6.9971">
        <ele>830</ele>
        <time>2011-07-16T16:20:22Z</time>
      </trkpt>
      <trkpt lat="43.76672" lon="6.99709">
        <ele>830</ele>
        <time>2011-07-16T16:20:23Z</time>
      </trkpt>
      <trkpt lat="43.76668" lon="6.99709">
        <ele>830</ele>
        <time>2011-07-16T16:20:24Z</time>
      </trkpt>
      <trkpt lat="43.76664" lon="6.99708">
        <ele>830</ele>
        <time>2011-07-16T16:20:25Z</time>
      </trkpt>
      <trkpt lat="43.7666" lon="6.99707">
        <ele>830</ele>
        <time>2011-07-16T16:20:26Z</time>
      </trkpt>
      <trkpt lat="43.76656" lon="6.99706">
        <ele>830</ele>
        <time>2011-07-16T16:20:27Z</time>
      </trkpt>
      <trkpt lat="43.76654" lon="6.99704">
        <ele>829</ele>
        <time>2011-07-16T16:20:28Z</time>
      </trkpt>
      <trkpt lat="43.7665" lon="6.99702">
        <ele>829</ele>
        <time>2011-07-16T16:20:29Z</time>
      </trkpt>
      <trkpt lat="43.76648" lon="6.997">
        <ele>829</ele>
        <time>2011-07-16T16:20:30Z</time>
      </trkpt>
      <trkpt lat="43.76645" lon="6.99698">
        <ele>829</ele>
        <time>2011-07-16T16:20:31Z</time>
      </trkpt>
      <trkpt lat="43.76643" lon="6.99696">
        <ele>829</ele>
        <time>2011-07-16T16:20:32Z</time>
      </trkpt>
      <trkpt lat="43.76641" lon="6.99694">
        <ele>829</ele>
        <time>2011-07-16T16:20:33Z</time>
      </trkpt>
      <trkpt lat="43.76639" lon="6.99693">
        <ele>829</ele>
        <time>2011-07-16T16:20:34Z</time>
      </trkpt>
      <trkpt lat="43.76634" lon="6.9969">
        <ele>829</ele>
        <time>2011-07-16T16:20:36Z</time>
      </trkpt>
      <trkpt lat="43.76631" lon="6.99688">
        <ele>829</ele>
        <time>2011-07-16T16:20:37Z</time>
      </trkpt>
      <trkpt lat="43.76629" lon="6.99686">
        <ele>829</ele>
        <time>2011-07-16T16:20:38Z</time>
      </trkpt>
      <trkpt lat="43.76626" lon="6.99685">
        <ele>830</ele>
        <time>2011-07-16T16:20:39Z</time>
      </trkpt>
      <trkpt lat="43.76625" lon="6.99682">
        <ele>829</ele>
        <time>2011-07-16T16:20:40Z</time>
      </trkpt>
      <trkpt lat="43.76623" lon="6.99681">
        <ele>829</ele>
        <time>2011-07-16T16:20:41Z</time>
      </trkpt>
      <trkpt lat="43.7662" lon="6.99679">
        <ele>829</ele>
        <time>2011-07-16T16:20:42Z</time>
      </trkpt>
      <trkpt lat="43.76617" lon="6.99676">
        <ele>830</ele>
        <time>2011-07-16T16:20:43Z</time>
      </trkpt>
      <trkpt lat="43.76614" lon="6.99675">
        <ele>830</ele>
        <time>2011-07-16T16:20:44Z</time>
      </trkpt>
      <trkpt lat="43.76612" lon="6.99672">
        <ele>830</ele>
        <time>2011-07-16T16:20:45Z</time>
      </trkpt>
      <trkpt lat="43.76609" lon="6.9967">
        <ele>829</ele>
        <time>2011-07-16T16:20:46Z</time>
      </trkpt>
      <trkpt lat="43.76606" lon="6.99668">
        <ele>829</ele>
        <time>2011-07-16T16:20:47Z</time>
      </trkpt>
      <trkpt lat="43.76603" lon="6.99666">
        <ele>829</ele>
        <time>2011-07-16T16:20:48Z</time>
      </trkpt>
      <trkpt lat="43.766" lon="6.99664">
        <ele>829</ele>
        <time>2011-07-16T16:20:49Z</time>
      </trkpt>
      <trkpt lat="43.76597" lon="6.99662">
        <ele>829</ele>
        <time>2011-07-16T16:20:50Z</time>
      </trkpt>
      <trkpt lat="43.76594" lon="6.99661">
        <ele>830</ele>
        <time>2011-07-16T16:20:51Z</time>
      </trkpt>
      <trkpt lat="43.76592" lon="6.99659">
        <ele>830</ele>
        <time>2011-07-16T16:20:52Z</time>
      </trkpt>
      <trkpt lat="43.76589" lon="6.99657">
        <ele>830</ele>
        <time>2011-07-16T16:20:53Z</time>
      </trkpt>
      <trkpt lat="43.76587" lon="6.99654">
        <ele>830</ele>
        <time>2011-07-16T16:20:54Z</time>
      </trkpt>
      <trkpt lat="43.76584" lon="6.99651">
        <ele>830</ele>
        <time>2011-07-16T16:20:55Z</time>
      </trkpt>
      <trkpt lat="43.76581" lon="6.99649">
        <ele>830</ele>
        <time>2011-07-16T16:20:56Z</time>
      </trkpt>
      <trkpt lat="43.76578" lon="6.99647">
        <ele>830</ele>
        <time>2011-07-16T16:20:57Z</time>
      </trkpt>
      <trkpt lat="43.76575" lon="6.99645">
        <ele>830</ele>
        <time>2011-07-16T16:20:58Z</time>
      </trkpt>
      <trkpt lat="43.76572" lon="6.99644">
        <ele>830</ele>
        <time>2011-07-16T16:20:59Z</time>
      </trkpt>
      <trkpt lat="43.76569" lon="6.99641">
        <ele>830</ele>
        <time>2011-07-16T16:21:00Z</time>
      </trkpt>
      <trkpt lat="43.76567" lon="6.99639">
        <ele>829</ele>
        <time>2011-07-16T16:21:01Z</time>
      </trkpt>
      <trkpt lat="43.76564" lon="6.99637">
        <ele>829</ele>
        <time>2011-07-16T16:21:02Z</time>
      </trkpt>
      <trkpt lat="43.7656" lon="6.99635">
        <ele>829</ele>
        <time>2011-07-16T16:21:03Z</time>
      </trkpt>
      <trkpt lat="43.76557" lon="6.99633">
        <ele>829</ele>
        <time>2011-07-16T16:21:04Z</time>
      </trkpt>
      <trkpt lat="43.76553" lon="6.99631">
        <ele>829</ele>
        <time>2011-07-16T16:21:05Z</time>
      </trkpt>
      <trkpt lat="43.76547" lon="6.99626">
        <ele>829</ele>
        <time>2011-07-16T16:21:07Z</time>
      </trkpt>
      <trkpt lat="43.76544" lon="6.99623">
        <ele>829</ele>
        <time>2011-07-16T16:21:08Z</time>
      </trkpt>
      <trkpt lat="43.76541" lon="6.99621">
        <ele>829</ele>
        <time>2011-07-16T16:21:09Z</time>
      </trkpt>
      <trkpt lat="43.76539" lon="6.99618">
        <ele>830</ele>
        <time>2011-07-16T16:21:10Z</time>
      </trkpt>
      <trkpt lat="43.76536" lon="6.99615">
        <ele>830</ele>
        <time>2011-07-16T16:21:11Z</time>
      </trkpt>
      <trkpt lat="43.76534" lon="6.99612">
        <ele>830</ele>
        <time>2011-07-16T16:21:12Z</time>
      </trkpt>
      <trkpt lat="43.76532" lon="6.99609">
        <ele>830</ele>
        <time>2011-07-16T16:21:14Z</time>
      </trkpt>
      <trkpt lat="43.7653" lon="6.99607">
        <ele>830</ele>
        <time>2011-07-16T16:21:15Z</time>
      </trkpt>
      <trkpt lat="43.76527" lon="6.99602">
        <ele>830</ele>
        <time>2011-07-16T16:21:17Z</time>
      </trkpt>
      <trkpt lat="43.76526" lon="6.996">
        <ele>830</ele>
        <time>2011-07-16T16:21:18Z</time>
      </trkpt>
      <trkpt lat="43.76523" lon="6.99598">
        <ele>830</ele>
        <time>2011-07-16T16:21:19Z</time>
      </trkpt>
      <trkpt lat="43.76521" lon="6.99596">
        <ele>830</ele>
        <time>2011-07-16T16:21:20Z</time>
      </trkpt>
      <trkpt lat="43.76518" lon="6.99594">
        <ele>830</ele>
        <time>2011-07-16T16:21:21Z</time>
      </trkpt>
      <trkpt lat="43.76516" lon="6.99592">
        <ele>830</ele>
        <time>2011-07-16T16:21:22Z</time>
      </trkpt>
      <trkpt lat="43.76514" lon="6.9959">
        <ele>830</ele>
        <time>2011-07-16T16:21:23Z</time>
      </trkpt>
      <trkpt lat="43.76512" lon="6.99588">
        <ele>830</ele>
        <time>2011-07-16T16:21:24Z</time>
      </trkpt>
      <trkpt lat="43.7651" lon="6.99588">
        <ele>830</ele>
        <time>2011-07-16T16:21:25Z</time>
      </trkpt>
      <trkpt lat="43.76508" lon="6.99587">
        <ele>830</ele>
        <time>2011-07-16T16:21:26Z</time>
      </trkpt>
      <trkpt lat="43.76506" lon="6.99586">
        <ele>830</ele>
        <time>2011-07-16T16:21:27Z</time>
      </trkpt>
      <trkpt lat="43.76504" lon="6.99585">
        <ele>830</ele>
        <time>2011-07-16T16:21:28Z</time>
      </trkpt>
      <trkpt lat="43.76502" lon="6.99584">
        <ele>830</ele>
        <time>2011-07-16T16:21:29Z</time>
      </trkpt>
      <trkpt lat="43.76502" lon="6.99582">
        <ele>830</ele>
        <time>2011-07-16T16:21:30Z</time>
      </trkpt>
      <trkpt lat="43.76502" lon="6.99581">
        <ele>830</ele>
        <time>2011-07-16T16:21:31Z</time>
      </trkpt>
      <trkpt lat="43.76503" lon="6.9958">
        <ele>830</ele>
        <time>2011-07-16T16:21:32Z</time>
      </trkpt>
      <trkpt lat="43.76504" lon="6.9958">
        <ele>830</ele>
        <time>2011-07-16T16:21:33Z</time>
      </trkpt>
      <trkpt lat="43.76507" lon="6.99581">
        <ele>830</ele>
        <time>2011-07-16T16:21:34Z</time>
      </trkpt>
      <trkpt lat="43.76509" lon="6.99581">
        <ele>830</ele>
        <time>2011-07-16T16:21:35Z</time>
      </trkpt>
      <trkpt lat="43.76512" lon="6.99581">
        <ele>830</ele>
        <time>2011-07-16T16:21:36Z</time>
      </trkpt>
      <trkpt lat="43.76514" lon="6.9958">
        <ele>830</ele>
        <time>2011-07-16T16:21:37Z</time>
      </trkpt>
      <trkpt lat="43.76515" lon="6.99579">
        <ele>830</ele>
        <time>2011-07-16T16:21:38Z</time>
      </trkpt>
      <trkpt lat="43.76517" lon="6.99578">
        <ele>830</ele>
        <time>2011-07-16T16:21:39Z</time>
      </trkpt>
      <trkpt lat="43.76518" lon="6.99577">
        <ele>830</ele>
        <time>2011-07-16T16:21:40Z</time>
      </trkpt>
      <trkpt lat="43.76519" lon="6.99576">
        <ele>830</ele>
        <time>2011-07-16T16:21:41Z</time>
      </trkpt>
      <trkpt lat="43.7652" lon="6.99575">
        <ele>830</ele>
        <time>2011-07-16T16:21:42Z</time>
      </trkpt>
      <trkpt lat="43.7652" lon="6.99574">
        <ele>830</ele>
        <time>2011-07-16T16:21:43Z</time>
      </trkpt>
      <trkpt lat="43.76519" lon="6.99573">
        <ele>830</ele>
        <time>2011-07-16T16:21:44Z</time>
      </trkpt>
      <trkpt lat="43.76519" lon="6.99573">
        <ele>830</ele>
        <time>2011-07-16T16:21:49Z</time>
      </trkpt>
      <trkpt lat="43.76518" lon="6.99572">
        <ele>830</ele>
        <time>2011-07-16T16:21:51Z</time>
      </trkpt>
      <trkpt lat="43.76518" lon="6.99571">
        <ele>830</ele>
        <time>2011-07-16T16:21:52Z</time>
      </trkpt>
      <trkpt lat="43.76518" lon="6.9957">
        <ele>830</ele>
        <time>2011-07-16T16:21:53Z</time>
      </trkpt>
      <trkpt lat="43.76517" lon="6.9957">
        <ele>830</ele>
        <time>2011-07-16T16:21:54Z</time>
      </trkpt>
      <trkpt lat="43.76517" lon="6.99569">
        <ele>830</ele>
        <time>2011-07-16T16:21:55Z</time>
      </trkpt>
      <trkpt lat="43.76517" lon="6.99568">
        <ele>830</ele>
        <time>2011-07-16T16:21:56Z</time>
      </trkpt>
      <trkpt lat="43.76517" lon="6.99567">
        <ele>830</ele>
        <time>2011-07-16T16:21:57Z</time>
      </trkpt>
      <trkpt lat="43.76517" lon="6.99566">
        <ele>830</ele>
        <time>2011-07-16T16:21:58Z</time>
      </trkpt>
      <trkpt lat="43.76518" lon="6.99565">
        <ele>830</ele>
        <time>2011-07-16T16:21:59Z</time>
      </trkpt>
      <trkpt lat="43.76518" lon="6.99565">
        <ele>830</ele>
        <time>2011-07-16T16:22:00Z</time>
      </trkpt>
      <trkpt lat="43.76519" lon="6.99564">
        <ele>830</ele>
        <time>2011-07-16T16:22:02Z</time>
      </trkpt>
      <trkpt lat="43.76519" lon="6.99564">
        <ele>830</ele>
        <time>2011-07-16T16:22:03Z</time>
      </trkpt>
      <trkpt lat="43.76519" lon="6.99563">
        <ele>830</ele>
        <time>2011-07-16T16:22:08Z</time>
      </trkpt>
      <trkpt lat="43.76521" lon="6.99562">
        <ele>830</ele>
        <time>2011-07-16T16:22:09Z</time>
      </trkpt>
      <trkpt lat="43.76522" lon="6.99561">
        <ele>830</ele>
        <time>2011-07-16T16:22:10Z</time>
      </trkpt>
      <trkpt lat="43.76524" lon="6.9956">
        <ele>830</ele>
        <time>2011-07-16T16:22:11Z</time>
      </trkpt>
      <trkpt lat="43.76527" lon="6.99559">
        <ele>830</ele>
        <time>2011-07-16T16:22:12Z</time>
      </trkpt>
      <trkpt lat="43.76529" lon="6.99558">
        <ele>830</ele>
        <time>2011-07-16T16:22:13Z</time>
      </trkpt>
      <trkpt lat="43.76531" lon="6.99557">
        <ele>830</ele>
        <time>2011-07-16T16:22:14Z</time>
      </trkpt>
      <trkpt lat="43.76532" lon="6.99557">
        <ele>830</ele>
        <time>2011-07-16T16:22:15Z</time>
      </trkpt>
      <trkpt lat="43.76534" lon="6.99556">
        <ele>830</ele>
        <time>2011-07-16T16:22:16Z</time>
      </trkpt>
      <trkpt lat="43.76535" lon="6.99554">
        <ele>830</ele>
        <time>2011-07-16T16:22:17Z</time>
      </trkpt>
      <trkpt lat="43.76537" lon="6.99552">
        <ele>830</ele>
        <time>2011-07-16T16:22:18Z</time>
      </trkpt>
      <trkpt lat="43.76539" lon="6.9955">
        <ele>830</ele>
        <time>2011-07-16T16:22:19Z</time>
      </trkpt>
      <trkpt lat="43.7654" lon="6.9955">
        <ele>830</ele>
        <time>2011-07-16T16:22:20Z</time>
      </trkpt>
      <trkpt lat="43.76541" lon="6.99548">
        <ele>830</ele>
        <time>2011-07-16T16:22:21Z</time>
      </trkpt>
      <trkpt lat="43.76543" lon="6.99547">
        <ele>830</ele>
        <time>2011-07-16T16:22:22Z</time>
      </trkpt>
      <trkpt lat="43.76546" lon="6.99545">
        <ele>830</ele>
        <time>2011-07-16T16:22:23Z</time>
      </trkpt>
      <trkpt lat="43.76548" lon="6.99544">
        <ele>830</ele>
        <time>2011-07-16T16:22:24Z</time>
      </trkpt>
      <trkpt lat="43.7655" lon="6.99543">
        <ele>830</ele>
        <time>2011-07-16T16:22:25Z</time>
      </trkpt>
      <trkpt lat="43.7655" lon="6.99541">
        <ele>830</ele>
        <time>2011-07-16T16:22:26Z</time>
      </trkpt>
      <trkpt lat="43.76549" lon="6.99539">
        <ele>830</ele>
        <time>2011-07-16T16:22:27Z</time>
      </trkpt>
      <trkpt lat="43.76548" lon="6.99537">
        <ele>830</ele>
        <time>2011-07-16T16:22:28Z</time>
      </trkpt>
      <trkpt lat="43.76546" lon="6.99535">
        <ele>830</ele>
        <time>2011-07-16T16:22:29Z</time>
      </trkpt>
      <trkpt lat="43.76544" lon="6.99533">
        <ele>830</ele>
        <time>2011-07-16T16:22:30Z</time>
      </trkpt>
      <trkpt lat="43.76542" lon="6.99532">
        <ele>830</ele>
        <time>2011-07-16T16:22:31Z</time>
      </trkpt>
      <trkpt lat="43.7654" lon="6.99531">
        <ele>830</ele>
        <time>2011-07-16T16:22:32Z</time>
      </trkpt>
      <trkpt lat="43.76539" lon="6.99529">
        <ele>830</ele>
        <time>2011-07-16T16:22:33Z</time>
      </trkpt>
      <trkpt lat="43.76537" lon="6.99528">
        <ele>830</ele>
        <time>2011-07-16T16:22:34Z</time>
      </trkpt>
      <trkpt lat="43.76535" lon="6.99526">
        <ele>830</ele>
        <time>2011-07-16T16:22:35Z</time>
      </trkpt>
      <trkpt lat="43.76533" lon="6.99525">
        <ele>830</ele>
        <time>2011-07-16T16:22:36Z</time>
      </trkpt>
      <trkpt lat="43.76532" lon="6.99523">
        <ele>830</ele>
        <time>2011-07-16T16:22:37Z</time>
      </trkpt>
      <trkpt lat="43.7653" lon="6.99522">
        <ele>830</ele>
        <time>2011-07-16T16:22:38Z</time>
      </trkpt>
      <trkpt lat="43.76529" lon="6.99521">
        <ele>830</ele>
        <time>2011-07-16T16:22:39Z</time>
      </trkpt>
      <trkpt lat="43.76528" lon="6.99521">
        <ele>830</ele>
        <time>2011-07-16T16:22:42Z</time>
      </trkpt>
      <trkpt lat="43.76528" lon="6.99522">
        <ele>830</ele>
        <time>2011-07-16T16:22:44Z</time>
      </trkpt>
      <trkpt lat="43.76529" lon="6.99522">
        <ele>830</ele>
        <time>2011-07-16T16:22:52Z</time>
      </trkpt>
      <trkpt lat="43.76529" lon="6.99523">
        <ele>830</ele>
        <time>2011-07-16T16:22:53Z</time>
      </trkpt>
      <trkpt lat="43.7653" lon="6.99524">
        <ele>830</ele>
        <time>2011-07-16T16:22:54Z</time>
      </trkpt>
      <trkpt lat="43.7653" lon="6.99524">
        <ele>830</ele>
        <time>2011-07-16T16:22:58Z</time>
      </trkpt>
      <trkpt lat="43.7653" lon="6.99524">
        <ele>830</ele>
        <time>2011-07-16T16:23:01Z</time>
      </trkpt>
      <trkpt lat="43.7653" lon="6.99523">
        <ele>830</ele>
        <time>2011-07-16T16:23:02Z</time>
      </trkpt>
      <trkpt lat="43.76528" lon="6.99521">
        <ele>830</ele>
        <time>2011-07-16T16:23:04Z</time>
      </trkpt>
      <trkpt lat="43.76527" lon="6.9952">
        <ele>830</ele>
        <time>2011-07-16T16:23:05Z</time>
      </trkpt>
      <trkpt lat="43.76526" lon="6.99519">
        <ele>830</ele>
        <time>2011-07-16T16:23:06Z</time>
      </trkpt>
      <trkpt lat="43.76525" lon="6.99517">
        <ele>830</ele>
        <time>2011-07-16T16:23:07Z</time>
      </trkpt>
      <trkpt lat="43.76525" lon="6.99516">
        <ele>830</ele>
        <time>2011-07-16T16:23:08Z</time>
      </trkpt>
      <trkpt lat="43.76525" lon="6.99515">
        <ele>830</ele>
        <time>2011-07-16T16:23:09Z</time>
      </trkpt>
      <trkpt lat="43.76525" lon="6.99514">
        <ele>830</ele>
        <time>2011-07-16T16:23:10Z</time>
      </trkpt>
      <trkpt lat="43.76525" lon="6.99512">
        <ele>830</ele>
        <time>2011-07-16T16:23:12Z</time>
      </trkpt>
      <trkpt lat="43.76525" lon="6.99511">
        <ele>830</ele>
        <time>2011-07-16T16:23:13Z</time>
      </trkpt>
      <trkpt lat="43.76524" lon="6.9951">
        <ele>830</ele>
        <time>2011-07-16T16:23:14Z</time>
      </trkpt>
      <trkpt lat="43.76523" lon="6.9951">
        <ele>830</ele>
        <time>2011-07-16T16:23:15Z</time>
      </trkpt>
      <trkpt lat="43.76523" lon="6.99509">
        <ele>830</ele>
        <time>2011-07-16T16:23:16Z</time>
      </trkpt>
      <trkpt lat="43.76522" lon="6.99509">
        <ele>830</ele>
        <time>2011-07-16T16:23:17Z</time>
      </trkpt>
      <trkpt lat="43.76522" lon="6.99508">
        <ele>830</ele>
        <time>2011-07-16T16:23:18Z</time>
      </trkpt>
      <trkpt lat="43.7652" lon="6.99507">
        <ele>830</ele>
        <time>2011-07-16T16:23:20Z</time>
      </trkpt>
      <trkpt lat="43.76519" lon="6.99506">
        <ele>830</ele>
        <time>2011-07-16T16:23:22Z</time>
      </trkpt>
      <trkpt lat="43.76519" lon="6.99505">
        <ele>830</ele>
        <time>2011-07-16T16:23:23Z</time>
      </trkpt>
      <trkpt lat="43.76519" lon="6.99504">
        <ele>830</ele>
        <time>2011-07-16T16:23:24Z</time>
      </trkpt>
      <trkpt lat="43.76519" lon="6.99504">
        <ele>830</ele>
        <time>2011-07-16T16:23:25Z</time>
      </trkpt>
      <trkpt lat="43.76518" lon="6.99504">
        <ele>830</ele>
        <time>2011-07-16T16:23:26Z</time>
      </trkpt>
      <trkpt lat="43.76518" lon="6.99503">
        <ele>830</ele>
        <time>2011-07-16T16:23:27Z</time>
      </trkpt>
      <trkpt lat="43.76517" lon="6.99503">
        <ele>830</ele>
        <time>2011-07-16T16:23:28Z</time>
      </trkpt>
      <trkpt lat="43.76515" lon="6.99501">
        <ele>830</ele>
        <time>2011-07-16T16:23:30Z</time>
      </trkpt>
      <trkpt lat="43.76515" lon="6.995">
        <ele>830</ele>
        <time>2011-07-16T16:23:31Z</time>
      </trkpt>
      <trkpt lat="43.76514" lon="6.99499">
        <ele>830</ele>
        <time>2011-07-16T16:23:32Z</time>
      </trkpt>
      <trkpt lat="43.76513" lon="6.99497">
        <ele>830</ele>
        <time>2011-07-16T16:23:33Z</time>
      </trkpt>
      <trkpt lat="43.76511" lon="6.99496">
        <ele>830</ele>
        <time>2011-07-16T16:23:34Z</time>
      </trkpt>
      <trkpt lat="43.76509" lon="6.99495">
        <ele>830</ele>
        <time>2011-07-16T16:23:35Z</time>
      </trkpt>
      <trkpt lat="43.76507" lon="6.99494">
        <ele>830</ele>
        <time>2011-07-16T16:23:36Z</time>
      </trkpt>
      <trkpt lat="43.76505" lon="6.99493">
        <ele>830</ele>
        <time>2011-07-16T16:23:37Z</time>
      </trkpt>
      <trkpt lat="43.76503" lon="6.99491">
        <ele>830</ele>
        <time>2011-07-16T16:23:38Z</time>
      </trkpt>
      <trkpt lat="43.76501" lon="6.9949">
        <ele>830</ele>
        <time>2011-07-16T16:23:39Z</time>
      </trkpt>
      <trkpt lat="43.76499" lon="6.99489">
        <ele>830</ele>
        <time>2011-07-16T16:23:40Z</time>
      </trkpt>
      <trkpt lat="43.76497" lon="6.99487">
        <ele>830</ele>
        <time>2011-07-16T16:23:41Z</time>
      </trkpt>
      <trkpt lat="43.76495" lon="6.99485">
        <ele>830</ele>
        <time>2011-07-16T16:23:42Z</time>
      </trkpt>
      <trkpt lat="43.76494" lon="6.99483">
        <ele>830</ele>
        <time>2011-07-16T16:23:43Z</time>
      </trkpt>
      <trkpt lat="43.76492" lon="6.99482">
        <ele>830</ele>
        <time>2011-07-16T16:23:44Z</time>
      </trkpt>
      <trkpt lat="43.76491" lon="6.9948">
        <ele>830</ele>
        <time>2011-07-16T16:23:45Z</time>
      </trkpt>
      <trkpt lat="43.7649" lon="6.99479">
        <ele>830</ele>
        <time>2011-07-16T16:23:46Z</time>
      </trkpt>
      <trkpt lat="43.76489" lon="6.99477">
        <ele>830</ele>
        <time>2011-07-16T16:23:47Z</time>
      </trkpt>
      <trkpt lat="43.76488" lon="6.99475">
        <ele>830</ele>
        <time>2011-07-16T16:23:48Z</time>
      </trkpt>
      <trkpt lat="43.76486" lon="6.99473">
        <ele>830</ele>
        <time>2011-07-16T16:23:49Z</time>
      </trkpt>
      <trkpt lat="43.76485" lon="6.99471">
        <ele>830</ele>
        <time>2011-07-16T16:23:50Z</time>
      </trkpt>
      <trkpt lat="43.76484" lon="6.99469">
        <ele>830</ele>
        <time>2011-07-16T16:23:51Z</time>
      </trkpt>
      <trkpt lat="43.76483" lon="6.99468">
        <ele>830</ele>
        <time>2011-07-16T16:23:52Z</time>
      </trkpt>
      <trkpt lat="43.76483" lon="6.99466">
        <ele>830</ele>
        <time>2011-07-16T16:23:53Z</time>
      </trkpt>
      <trkpt lat="43.76484" lon="6.99465">
        <ele>830</ele>
        <time>2011-07-16T16:23:54Z</time>
      </trkpt>
      <trkpt lat="43.76484" lon="6.99464">
        <ele>830</ele>
        <time>2011-07-16T16:23:55Z</time>
      </trkpt>
      <trkpt lat="43.76484" lon="6.99464">
        <ele>830</ele>
        <time>2011-07-16T16:23:56Z</time>
      </trkpt>
      <trkpt lat="43.76485" lon="6.99464">
        <ele>830</ele>
        <time>2011-07-16T16:23:57Z</time>
      </trkpt>
      <trkpt lat="43.76486" lon="6.99463">
        <ele>830</ele>
        <time>2011-07-16T16:23:58Z</time>
      </trkpt>
      <trkpt lat="43.76488" lon="6.99462">
        <ele>830</ele>
        <time>2011-07-16T16:23:59Z</time>
      </trkpt>
      <trkpt lat="43.7649" lon="6.99461">
        <ele>830</ele>
        <time>2011-07-16T16:24:00Z</time>
      </trkpt>
      <trkpt lat="43.76492" lon="6.9946">
        <ele>830</ele>
        <time>2011-07-16T16:24:01Z</time>
      </trkpt>
      <trkpt lat="43.76494" lon="6.9946">
        <ele>830</ele>
        <time>2011-07-16T16:24:02Z</time>
      </trkpt>
      <trkpt lat="43.76495" lon="6.9946">
        <ele>830</ele>
        <time>2011-07-16T16:24:03Z</time>
      </trkpt>
      <trkpt lat="43.76497" lon="6.9946">
        <ele>830</ele>
        <time>2011-07-16T16:24:04Z</time>
      </trkpt>
      <trkpt lat="43.76499" lon="6.99459">
        <ele>830</ele>
        <time>2011-07-16T16:24:05Z</time>
      </trkpt>
      <trkpt lat="43.76502" lon="6.99458">
        <ele>830</ele>
        <time>2011-07-16T16:24:06Z</time>
      </trkpt>
      <trkpt lat="43.76504" lon="6.99456">
        <ele>830</ele>
        <time>2011-07-16T16:24:07Z</time>
      </trkpt>
      <trkpt lat="43.76507" lon="6.99455">
        <ele>830</ele>
        <time>2011-07-16T16:24:08Z</time>
      </trkpt>
      <trkpt lat="43.7651" lon="6.99453">
        <ele>830</ele>
        <time>2011-07-16T16:24:09Z</time>
      </trkpt>
      <trkpt lat="43.76512" lon="6.99449">
        <ele>830</ele>
        <time>2011-07-16T16:24:10Z</time>
      </trkpt>
      <trkpt lat="43.76515" lon="6.99444">
        <ele>830</ele>
        <time>2011-07-16T16:24:11Z</time>
      </trkpt>
      <trkpt lat="43.76517" lon="6.9944">
        <ele>830</ele>
        <time>2011-07-16T16:24:12Z</time>
      </trkpt>
      <trkpt lat="43.76521" lon="6.99437">
        <ele>830</ele>
        <time>2011-07-16T16:24:13Z</time>
      </trkpt>
      <trkpt lat="43.76524" lon="6.99436">
        <ele>830</ele>
        <time>2011-07-16T16:24:14Z</time>
      </trkpt>
      <trkpt lat="43.76527" lon="6.99433">
        <ele>830</ele>
        <time>2011-07-16T16:24:15Z</time>
      </trkpt>
      <trkpt lat="43.76529" lon="6.99431">
        <ele>830</ele>
        <time>2011-07-16T16:24:16Z</time>
      </trkpt>
      <trkpt lat="43.76532" lon="6.99429">
        <ele>830</ele>
        <time>2011-07-16T16:24:17Z</time>
      </trkpt>
      <trkpt lat="43.76533" lon="6.99428">
        <ele>830</ele>
        <time>2011-07-16T16:24:18Z</time>
      </trkpt>
      <trkpt lat="43.76536" lon="6.99426">
        <ele>830</ele>
        <time>2011-07-16T16:24:19Z</time>
      </trkpt>
      <trkpt lat="43.76539" lon="6.99424">
        <ele>830</ele>
        <time>2011-07-16T16:24:20Z</time>
      </trkpt>
      <trkpt lat="43.76544" lon="6.99418">
        <ele>829</ele>
        <time>2011-07-16T16:24:21Z</time>
      </trkpt>
      <trkpt lat="43.76547" lon="6.99417">
        <ele>829</ele>
        <time>2011-07-16T16:24:22Z</time>
      </trkpt>
      <trkpt lat="43.7655" lon="6.99416">
        <ele>829</ele>
        <time>2011-07-16T16:24:23Z</time>
      </trkpt>
      <trkpt lat="43.76553" lon="6.99415">
        <ele>829</ele>
        <time>2011-07-16T16:24:24Z</time>
      </trkpt>
      <trkpt lat="43.76557" lon="6.99414">
        <ele>829</ele>
        <time>2011-07-16T16:24:25Z</time>
      </trkpt>
      <trkpt lat="43.76563" lon="6.9941">
        <ele>829</ele>
        <time>2011-07-16T16:24:26Z</time>
      </trkpt>
      <trkpt lat="43.76565" lon="6.99411">
        <ele>829</ele>
        <time>2011-07-16T16:24:27Z</time>
      </trkpt>
      <trkpt lat="43.76562" lon="6.99409">
        <ele>829</ele>
        <time>2011-07-16T16:24:28Z</time>
      </trkpt>
      <trkpt lat="43.76564" lon="6.99404">
        <ele>829</ele>
        <time>2011-07-16T16:24:29Z</time>
      </trkpt>
      <trkpt lat="43.76568" lon="6.994">
        <ele>829</ele>
        <time>2011-07-16T16:24:30Z</time>
      </trkpt>
      <trkpt lat="43.76569" lon="6.99395">
        <ele>828</ele>
        <time>2011-07-16T16:24:31Z</time>
      </trkpt>
      <trkpt lat="43.76568" lon="6.99393">
        <ele>828</ele>
        <time>2011-07-16T16:24:32Z</time>
      </trkpt>
      <trkpt lat="43.76569" lon="6.99389">
        <ele>828</ele>
        <time>2011-07-16T16:24:33Z</time>
      </trkpt>
      <trkpt lat="43.7657" lon="6.99385">
        <ele>828</ele>
        <time>2011-07-16T16:24:34Z</time>
      </trkpt>
      <trkpt lat="43.76571" lon="6.99381">
        <ele>828</ele>
        <time>2011-07-16T16:24:35Z</time>
      </trkpt>
      <trkpt lat="43.76571" lon="6.99379">
        <ele>828</ele>
        <time>2011-07-16T16:24:36Z</time>
      </trkpt>
      <trkpt lat="43.7657" lon="6.99376">
        <ele>828</ele>
        <time>2011-07-16T16:24:37Z</time>
      </trkpt>
      <trkpt lat="43.76567" lon="6.99376">
        <ele>827</ele>
        <time>2011-07-16T16:24:38Z</time>
      </trkpt>
      <trkpt lat="43.76565" lon="6.99376">
        <ele>827</ele>
        <time>2011-07-16T16:24:39Z</time>
      </trkpt>
      <trkpt lat="43.76564" lon="6.99373">
        <ele>827</ele>
        <time>2011-07-16T16:24:40Z</time>
      </trkpt>
      <trkpt lat="43.76559" lon="6.99372">
        <ele>827</ele>
        <time>2011-07-16T16:24:41Z</time>
      </trkpt>
      <trkpt lat="43.76555" lon="6.99373">
        <ele>827</ele>
        <time>2011-07-16T16:24:42Z</time>
      </trkpt>
      <trkpt lat="43.76552" lon="6.99373">
        <ele>827</ele>
        <time>2011-07-16T16:24:43Z</time>
      </trkpt>
      <trkpt lat="43.76549" lon="6.99373">
        <ele>826</ele>
        <time>2011-07-16T16:24:44Z</time>
      </trkpt>
      <trkpt lat="43.76546" lon="6.99372">
        <ele>826</ele>
        <time>2011-07-16T16:24:45Z</time>
      </trkpt>
      <trkpt lat="43.76542" lon="6.99373">
        <ele>826</ele>
        <time>2011-07-16T16:24:46Z</time>
      </trkpt>
      <trkpt lat="43.76537" lon="6.99374">
        <ele>826</ele>
        <time>2011-07-16T16:24:47Z</time>
      </trkpt>
      <trkpt lat="43.76533" lon="6.99375">
        <ele>826</ele>
        <time>2011-07-16T16:24:48Z</time>
      </trkpt>
      <trkpt lat="43.76529" lon="6.99375">
        <ele>826</ele>
        <time>2011-07-16T16:24:49Z</time>
      </trkpt>
      <trkpt lat="43.76527" lon="6.99375">
        <ele>825</ele>
        <time>2011-07-16T16:24:50Z</time>
      </trkpt>
      <trkpt lat="43.76523" lon="6.99376">
        <ele>825</ele>
        <time>2011-07-16T16:24:51Z</time>
      </trkpt>
      <trkpt lat="43.76518" lon="6.99375">
        <ele>825</ele>
        <time>2011-07-16T16:24:52Z</time>
      </trkpt>
      <trkpt lat="43.76516" lon="6.99374">
        <ele>825</ele>
        <time>2011-07-16T16:24:53Z</time>
      </trkpt>
      <trkpt lat="43.76514" lon="6.99371">
        <ele>824</ele>
        <time>2011-07-16T16:24:54Z</time>
      </trkpt>
      <trkpt lat="43.76511" lon="6.99371">
        <ele>824</ele>
        <time>2011-07-16T16:24:55Z</time>
      </trkpt>
      <trkpt lat="43.76509" lon="6.99369">
        <ele>824</ele>
        <time>2011-07-16T16:24:56Z</time>
      </trkpt>
      <trkpt lat="43.76506" lon="6.99368">
        <ele>824</ele>
        <time>2011-07-16T16:24:57Z</time>
      </trkpt>
      <trkpt lat="43.76504" lon="6.99367">
        <ele>824</ele>
        <time>2011-07-16T16:24:58Z</time>
      </trkpt>
      <trkpt lat="43.76502" lon="6.99364">
        <ele>823</ele>
        <time>2011-07-16T16:24:59Z</time>
      </trkpt>
      <trkpt lat="43.76501" lon="6.99363">
        <ele>823</ele>
        <time>2011-07-16T16:25:00Z</time>
      </trkpt>
      <trkpt lat="43.76499" lon="6.99362">
        <ele>823</ele>
        <time>2011-07-16T16:25:01Z</time>
      </trkpt>
      <trkpt lat="43.76498" lon="6.99361">
        <ele>823</ele>
        <time>2011-07-16T16:25:02Z</time>
      </trkpt>
      <trkpt lat="43.76501" lon="6.99361">
        <ele>822</ele>
        <time>2011-07-16T16:25:03Z</time>
      </trkpt>
      <trkpt lat="43.76501" lon="6.99359">
        <ele>822</ele>
        <time>2011-07-16T16:25:04Z</time>
      </trkpt>
      <trkpt lat="43.76501" lon="6.99359">
        <ele>822</ele>
        <time>2011-07-16T16:25:05Z</time>
      </trkpt>
      <trkpt lat="43.765" lon="6.99358">
        <ele>822</ele>
        <time>2011-07-16T16:25:06Z</time>
      </trkpt>
      <trkpt lat="43.765" lon="6.99358">
        <ele>822</ele>
        <time>2011-07-16T16:25:07Z</time>
      </trkpt>
      <trkpt lat="43.76499" lon="6.99359">
        <ele>822</ele>
        <time>2011-07-16T16:25:08Z</time>
      </trkpt>
      <trkpt lat="43.76497" lon="6.9936">
        <ele>821</ele>
        <time>2011-07-16T16:25:10Z</time>
      </trkpt>
      <trkpt lat="43.76496" lon="6.9936">
        <ele>821</ele>
        <time>2011-07-16T16:25:11Z</time>
      </trkpt>
      <trkpt lat="43.76495" lon="6.99359">
        <ele>821</ele>
        <time>2011-07-16T16:25:12Z</time>
      </trkpt>
      <trkpt lat="43.76495" lon="6.99359">
        <ele>821</ele>
        <time>2011-07-16T16:25:13Z</time>
      </trkpt>
      <trkpt lat="43.76494" lon="6.99361">
        <ele>819</ele>
        <time>2011-07-16T16:25:21Z</time>
      </trkpt>
      <trkpt lat="43.76494" lon="6.99361">
        <ele>819</ele>
        <time>2011-07-16T16:25:22Z</time>
      </trkpt>
      <trkpt lat="43.76495" lon="6.99361">
        <ele>819</ele>
        <time>2011-07-16T16:25:23Z</time>
      </trkpt>
      <trkpt lat="43.76498" lon="6.99361">
        <ele>819</ele>
        <time>2011-07-16T16:25:28Z</time>
      </trkpt>
      <trkpt lat="43.765" lon="6.99361">
        <ele>819</ele>
        <time>2011-07-16T16:25:29Z</time>
      </trkpt>
      <trkpt lat="43.76502" lon="6.9936">
        <ele>819</ele>
        <time>2011-07-16T16:25:30Z</time>
      </trkpt>
      <trkpt lat="43.76504" lon="6.9936">
        <ele>819</ele>
        <time>2011-07-16T16:25:31Z</time>
      </trkpt>
      <trkpt lat="43.76506" lon="6.99359">
        <ele>819</ele>
        <time>2011-07-16T16:25:32Z</time>
      </trkpt>
      <trkpt lat="43.76508" lon="6.99358">
        <ele>819</ele>
        <time>2011-07-16T16:25:33Z</time>
      </trkpt>
      <trkpt lat="43.7651" lon="6.99355">
        <ele>819</ele>
        <time>2011-07-16T16:25:34Z</time>
      </trkpt>
      <trkpt lat="43.76511" lon="6.99353">
        <ele>819</ele>
        <time>2011-07-16T16:25:35Z</time>
      </trkpt>
      <trkpt lat="43.76513" lon="6.99351">
        <ele>819</ele>
        <time>2011-07-16T16:25:36Z</time>
      </trkpt>
      <trkpt lat="43.76515" lon="6.99349">
        <ele>819</ele>
        <time>2011-07-16T16:25:37Z</time>
      </trkpt>
      <trkpt lat="43.76518" lon="6.99345">
        <ele>818</ele>
        <time>2011-07-16T16:25:38Z</time>
      </trkpt>
      <trkpt lat="43.7652" lon="6.99342">
        <ele>818</ele>
        <time>2011-07-16T16:25:39Z</time>
      </trkpt>
      <trkpt lat="43.76524" lon="6.99337">
        <ele>818</ele>
        <time>2011-07-16T16:25:40Z</time>
      </trkpt>
      <trkpt lat="43.76528" lon="6.99334">
        <ele>817</ele>
        <time>2011-07-16T16:25:41Z</time>
      </trkpt>
      <trkpt lat="43.76531" lon="6.99331">
        <ele>817</ele>
        <time>2011-07-16T16:25:42Z</time>
      </trkpt>
      <trkpt lat="43.76533" lon="6.9933">
        <ele>817</ele>
        <time>2011-07-16T16:25:43Z</time>
      </trkpt>
      <trkpt lat="43.76537" lon="6.9933">
        <ele>817</ele>
        <time>2011-07-16T16:25:44Z</time>
      </trkpt>
      <trkpt lat="43.76539" lon="6.9933">
        <ele>817</ele>
        <time>2011-07-16T16:25:45Z</time>
      </trkpt>
      <trkpt lat="43.76541" lon="6.99328">
        <ele>816</ele>
        <time>2011-07-16T16:25:46Z</time>
      </trkpt>
      <trkpt lat="43.76543" lon="6.99324">
        <ele>816</ele>
        <time>2011-07-16T16:25:47Z</time>
      </trkpt>
      <trkpt lat="43.76543" lon="6.99322">
        <ele>815</ele>
        <time>2011-07-16T16:25:48Z</time>
      </trkpt>
      <trkpt lat="43.76544" lon="6.99319">
        <ele>815</ele>
        <time>2011-07-16T16:25:49Z</time>
      </trkpt>
      <trkpt lat="43.76544" lon="6.99316">
        <ele>814</ele>
        <time>2011-07-16T16:25:50Z</time>
      </trkpt>
      <trkpt lat="43.76541" lon="6.99316">
        <ele>813</ele>
        <time>2011-07-16T16:25:51Z</time>
      </trkpt>
      <trkpt lat="43.7654" lon="6.99315">
        <ele>812</ele>
        <time>2011-07-16T16:25:52Z</time>
      </trkpt>
      <trkpt lat="43.76539" lon="6.99315">
        <ele>811</ele>
        <time>2011-07-16T16:25:53Z</time>
      </trkpt>
      <trkpt lat="43.76537" lon="6.99315">
        <ele>811</ele>
        <time>2011-07-16T16:25:54Z</time>
      </trkpt>
      <trkpt lat="43.76536" lon="6.99315">
        <ele>810</ele>
        <time>2011-07-16T16:25:55Z</time>
      </trkpt>
      <trkpt lat="43.76536" lon="6.99314">
        <ele>809</ele>
        <time>2011-07-16T16:25:56Z</time>
      </trkpt>
      <trkpt lat="43.76534" lon="6.99313">
        <ele>809</ele>
        <time>2011-07-16T16:25:57Z</time>
      </trkpt>
      <trkpt lat="43.76534" lon="6.99312">
        <ele>807</ele>
        <time>2011-07-16T16:25:58Z</time>
      </trkpt>
      <trkpt lat="43.76536" lon="6.9931">
        <ele>807</ele>
        <time>2011-07-16T16:25:59Z</time>
      </trkpt>
      <trkpt lat="43.76537" lon="6.99309">
        <ele>806</ele>
        <time>2011-07-16T16:26:00Z</time>
      </trkpt>
      <trkpt lat="43.76539" lon="6.99307">
        <ele>805</ele>
        <time>2011-07-16T16:26:01Z</time>
      </trkpt>
      <trkpt lat="43.76541" lon="6.99306">
        <ele>804</ele>
        <time>2011-07-16T16:26:02Z</time>
      </trkpt>
      <trkpt lat="43.76543" lon="6.99306">
        <ele>803</ele>
        <time>2011-07-16T16:26:03Z</time>
      </trkpt>
      <trkpt lat="43.76544" lon="6.99306">
        <ele>802</ele>
        <time>2011-07-16T16:26:04Z</time>
      </trkpt>
      <trkpt lat="43.76545" lon="6.99306">
        <ele>800</ele>
        <time>2011-07-16T16:26:05Z</time>
      </trkpt>
      <trkpt lat="43.76546" lon="6.99306">
        <ele>799</ele>
        <time>2011-07-16T16:26:06Z</time>
      </trkpt>
      <trkpt lat="43.76547" lon="6.99306">
        <ele>798</ele>
        <time>2011-07-16T16:26:07Z</time>
      </trkpt>
      <trkpt lat="43.76548" lon="6.99305">
        <ele>797</ele>
        <time>2011-07-16T16:26:08Z</time>
      </trkpt>
      <trkpt lat="43.76549" lon="6.99305">
        <ele>795</ele>
        <time>2011-07-16T16:26:09Z</time>
      </trkpt>
      <trkpt lat="43.76549" lon="6.99305">
        <ele>794</ele>
        <time>2011-07-16T16:26:10Z</time>
      </trkpt>
      <trkpt lat="43.7655" lon="6.99305">
        <ele>793</ele>
        <time>2011-07-16T16:26:11Z</time>
      </trkpt>
      <trkpt lat="43.7655" lon="6.99305">
        <ele>791</ele>
        <time>2011-07-16T16:26:12Z</time>
      </trkpt>
      <trkpt lat="43.7655" lon="6.99305">
        <ele>789</ele>
        <time>2011-07-16T16:26:13Z</time>
      </trkpt>
      <trkpt lat="43.76551" lon="6.99305">
        <ele>788</ele>
        <time>2011-07-16T16:26:14Z</time>
      </trkpt>
      <trkpt lat="43.76552" lon="6.99305">
        <ele>787</ele>
        <time>2011-07-16T16:26:15Z</time>
      </trkpt>
      <trkpt lat="43.76553" lon="6.99305">
        <ele>787</ele>
        <time>2011-07-16T16:26:16Z</time>
      </trkpt>
      <trkpt lat="43.76555" lon="6.99306">
        <ele>787</ele>
        <time>2011-07-16T16:26:17Z</time>
      </trkpt>
      <trkpt lat="43.76557" lon="6.99306">
        <ele>785</ele>
        <time>2011-07-16T16:26:18Z</time>
      </trkpt>
      <trkpt lat="43.76559" lon="6.99306">
        <ele>783</ele>
        <time>2011-07-16T16:26:19Z</time>
      </trkpt>
      <trkpt lat="43.76563" lon="6.99308">
        <ele>779</ele>
        <time>2011-07-16T16:26:21Z</time>
      </trkpt>
      <trkpt lat="43.76565" lon="6.99309">
        <ele>778</ele>
        <time>2011-07-16T16:26:22Z</time>
      </trkpt>
      <trkpt lat="43.76566" lon="6.99309">
        <ele>777</ele>
        <time>2011-07-16T16:26:23Z</time>
      </trkpt>
      <trkpt lat="43.76567" lon="6.99309">
        <ele>776</ele>
        <time>2011-07-16T16:26:24Z</time>
      </trkpt>
      <trkpt lat="43.76567" lon="6.99309">
        <ele>775</ele>
        <time>2011-07-16T16:26:25Z</time>
      </trkpt>
      <trkpt lat="43.76567" lon="6.99309">
        <ele>773</ele>
        <time>2011-07-16T16:26:26Z</time>
      </trkpt>
      <trkpt lat="43.76567" lon="6.99309">
        <ele>772</ele>
        <time>2011-07-16T16:26:27Z</time>
      </trkpt>
      <trkpt lat="43.76567" lon="6.99309">
        <ele>771</ele>
        <time>2011-07-16T16:26:28Z</time>
      </trkpt>
      <trkpt lat="43.76565" lon="6.99307">
        <ele>767</ele>
        <time>2011-07-16T16:26:30Z</time>
      </trkpt>
      <trkpt lat="43.76564" lon="6.99305">
        <ele>765</ele>
        <time>2011-07-16T16:26:31Z</time>
      </trkpt>
      <trkpt lat="43.76563" lon="6.99304">
        <ele>763</ele>
        <time>2011-07-16T16:26:32Z</time>
      </trkpt>
      <trkpt lat="43.76561" lon="6.99303">
        <ele>761</ele>
        <time>2011-07-16T16:26:33Z</time>
      </trkpt>
      <trkpt lat="43.76559" lon="6.99301">
        <ele>759</ele>
        <time>2011-07-16T16:26:34Z</time>
      </trkpt>
      <trkpt lat="43.76558" lon="6.99298">
        <ele>757</ele>
        <time>2011-07-16T16:26:35Z</time>
      </trkpt>
      <trkpt lat="43.76556" lon="6.99296">
        <ele>756</ele>
        <time>2011-07-16T16:26:36Z</time>
      </trkpt>
      <trkpt lat="43.76554" lon="6.99293">
        <ele>754</ele>
        <time>2011-07-16T16:26:37Z</time>
      </trkpt>
      <trkpt lat="43.76551" lon="6.99292">
        <ele>752</ele>
        <time>2011-07-16T16:26:38Z</time>
      </trkpt>
      <trkpt lat="43.76549" lon="6.99291">
        <ele>751</ele>
        <time>2011-07-16T16:26:39Z</time>
      </trkpt>
      <trkpt lat="43.76547" lon="6.9929">
        <ele>749</ele>
        <time>2011-07-16T16:26:40Z</time>
      </trkpt>
      <trkpt lat="43.76544" lon="6.9929">
        <ele>748</ele>
        <time>2011-07-16T16:26:41Z</time>
      </trkpt>
      <trkpt lat="43.76542" lon="6.99289">
        <ele>747</ele>
        <time>2011-07-16T16:26:42Z</time>
      </trkpt>
      <trkpt lat="43.76539" lon="6.99289">
        <ele>745</ele>
        <time>2011-07-16T16:26:43Z</time>
      </trkpt>
      <trkpt lat="43.76536" lon="6.99289">
        <ele>745</ele>
        <time>2011-07-16T16:26:44Z</time>
      </trkpt>
      <trkpt lat="43.76533" lon="6.99289">
        <ele>745</ele>
        <time>2011-07-16T16:26:45Z</time>
      </trkpt>
      <trkpt lat="43.7653" lon="6.99289">
        <ele>745</ele>
        <time>2011-07-16T16:26:46Z</time>
      </trkpt>
      <trkpt lat="43.76527" lon="6.99288">
        <ele>744</ele>
        <time>2011-07-16T16:26:47Z</time>
      </trkpt>
      <trkpt lat="43.76523" lon="6.99288">
        <ele>741</ele>
        <time>2011-07-16T16:26:49Z</time>
      </trkpt>
      <trkpt lat="43.76521" lon="6.99289">
        <ele>740</ele>
        <time>2011-07-16T16:26:50Z</time>
      </trkpt>
      <trkpt lat="43.76518" lon="6.9929">
        <ele>739</ele>
        <time>2011-07-16T16:26:51Z</time>
      </trkpt>
      <trkpt lat="43.76516" lon="6.99289">
        <ele>740</ele>
        <time>2011-07-16T16:26:52Z</time>
      </trkpt>
      <trkpt lat="43.76515" lon="6.99289">
        <ele>739</ele>
        <time>2011-07-16T16:26:53Z</time>
      </trkpt>
      <trkpt lat="43.76512" lon="6.99287">
        <ele>738</ele>
        <time>2011-07-16T16:26:54Z</time>
      </trkpt>
      <trkpt lat="43.7651" lon="6.99285">
        <ele>736</ele>
        <time>2011-07-16T16:26:55Z</time>
      </trkpt>
      <trkpt lat="43.76508" lon="6.99284">
        <ele>735</ele>
        <time>2011-07-16T16:26:56Z</time>
      </trkpt>
      <trkpt lat="43.76506" lon="6.99282">
        <ele>735</ele>
        <time>2011-07-16T16:26:57Z</time>
      </trkpt>
      <trkpt lat="43.76504" lon="6.9928">
        <ele>734</ele>
        <time>2011-07-16T16:26:58Z</time>
      </trkpt>
      <trkpt lat="43.76501" lon="6.99279">
        <ele>733</ele>
        <time>2011-07-16T16:26:59Z</time>
      </trkpt>
      <trkpt lat="43.76499" lon="6.99277">
        <ele>734</ele>
        <time>2011-07-16T16:27:00Z</time>
      </trkpt>
      <trkpt lat="43.76497" lon="6.99276">
        <ele>733</ele>
        <time>2011-07-16T16:27:01Z</time>
      </trkpt>
      <trkpt lat="43.76495" lon="6.99274">
        <ele>733</ele>
        <time>2011-07-16T16:27:02Z</time>
      </trkpt>
      <trkpt lat="43.76493" lon="6.99273">
        <ele>733</ele>
        <time>2011-07-16T16:27:03Z</time>
      </trkpt>
      <trkpt lat="43.7649" lon="6.99271">
        <ele>732</ele>
        <time>2011-07-16T16:27:04Z</time>
      </trkpt>
      <trkpt lat="43.76489" lon="6.9927">
        <ele>731</ele>
        <time>2011-07-16T16:27:05Z</time>
      </trkpt>
      <trkpt lat="43.76487" lon="6.9927">
        <ele>730</ele>
        <time>2011-07-16T16:27:06Z</time>
      </trkpt>
      <trkpt lat="43.76485" lon="6.9927">
        <ele>730</ele>
        <time>2011-07-16T16:27:07Z</time>
      </trkpt>
      <trkpt lat="43.76484" lon="6.99269">
        <ele>729</ele>
        <time>2011-07-16T16:27:08Z</time>
      </trkpt>
      <trkpt lat="43.76481" lon="6.99268">
        <ele>728</ele>
        <time>2011-07-16T16:27:09Z</time>
      </trkpt>
      <trkpt lat="43.7648" lon="6.99268">
        <ele>727</ele>
        <time>2011-07-16T16:27:10Z</time>
      </trkpt>
      <trkpt lat="43.76479" lon="6.99268">
        <ele>726</ele>
        <time>2011-07-16T16:27:11Z</time>
      </trkpt>
      <trkpt lat="43.76479" lon="6.99268">
        <ele>725</ele>
        <time>2011-07-16T16:27:12Z</time>
      </trkpt>
      <trkpt lat="43.76478" lon="6.99268">
        <ele>723</ele>
        <time>2011-07-16T16:27:13Z</time>
      </trkpt>
      <trkpt lat="43.76477" lon="6.99267">
        <ele>722</ele>
        <time>2011-07-16T16:27:14Z</time>
      </trkpt>
      <trkpt lat="43.76476" lon="6.99267">
        <ele>722</ele>
        <time>2011-07-16T16:27:15Z</time>
      </trkpt>
      <trkpt lat="43.76474" lon="6.99267">
        <ele>721</ele>
        <time>2011-07-16T16:27:16Z</time>
      </trkpt>
      <trkpt lat="43.76473" lon="6.99266">
        <ele>720</ele>
        <time>2011-07-16T16:27:17Z</time>
      </trkpt>
      <trkpt lat="43.76471" lon="6.99266">
        <ele>719</ele>
        <time>2011-07-16T16:27:18Z</time>
      </trkpt>
      <trkpt lat="43.7647" lon="6.99265">
        <ele>718</ele>
        <time>2011-07-16T16:27:19Z</time>
      </trkpt>
      <trkpt lat="43.76468" lon="6.99264">
        <ele>719</ele>
        <time>2011-07-16T16:27:20Z</time>
      </trkpt>
      <trkpt lat="43.76466" lon="6.99264">
        <ele>718</ele>
        <time>2011-07-16T16:27:21Z</time>
      </trkpt>
      <trkpt lat="43.76468" lon="6.99263">
        <ele>718</ele>
        <time>2011-07-16T16:27:22Z</time>
      </trkpt>
      <trkpt lat="43.76467" lon="6.99263">
        <ele>716</ele>
        <time>2011-07-16T16:27:26Z</time>
      </trkpt>
      <trkpt lat="43.76467" lon="6.99263">
        <ele>715</ele>
        <time>2011-07-16T16:27:27Z</time>
      </trkpt>
      <trkpt lat="43.76467" lon="6.99263">
        <ele>715</ele>
        <time>2011-07-16T16:27:28Z</time>
      </trkpt>
      <trkpt lat="43.76468" lon="6.99263">
        <ele>714</ele>
        <time>2011-07-16T16:27:29Z</time>
      </trkpt>
      <trkpt lat="43.76469" lon="6.99263">
        <ele>713</ele>
        <time>2011-07-16T16:27:30Z</time>
      </trkpt>
      <trkpt lat="43.76469" lon="6.99267">
        <ele>710</ele>
        <time>2011-07-16T16:27:31Z</time>
      </trkpt>
      <trkpt lat="43.76467" lon="6.99268">
        <ele>708</ele>
        <time>2011-07-16T16:27:32Z</time>
      </trkpt>
      <trkpt lat="43.76467" lon="6.99267">
        <ele>707</ele>
        <time>2011-07-16T16:27:33Z</time>
      </trkpt>
      <trkpt lat="43.76468" lon="6.99265">
        <ele>706</ele>
        <time>2011-07-16T16:27:34Z</time>
      </trkpt>
      <trkpt lat="43.7647" lon="6.99263">
        <ele>705</ele>
        <time>2011-07-16T16:27:35Z</time>
      </trkpt>
      <trkpt lat="43.76473" lon="6.99263">
        <ele>703</ele>
        <time>2011-07-16T16:27:36Z</time>
      </trkpt>
      <trkpt lat="43.76474" lon="6.99262">
        <ele>702</ele>
        <time>2011-07-16T16:27:37Z</time>
      </trkpt>
      <trkpt lat="43.76474" lon="6.99261">
        <ele>702</ele>
        <time>2011-07-16T16:27:38Z</time>
      </trkpt>
      <trkpt lat="43.76474" lon="6.99259">
        <ele>701</ele>
        <time>2011-07-16T16:27:39Z</time>
      </trkpt>
      <trkpt lat="43.76473" lon="6.99257">
        <ele>701</ele>
        <time>2011-07-16T16:27:40Z</time>
      </trkpt>
      <trkpt lat="43.76472" lon="6.99255">
        <ele>701</ele>
        <time>2011-07-16T16:27:41Z</time>
      </trkpt>
      <trkpt lat="43.76472" lon="6.99253">
        <ele>699</ele>
        <time>2011-07-16T16:27:42Z</time>
      </trkpt>
      <trkpt lat="43.76471" lon="6.9925">
        <ele>699</ele>
        <time>2011-07-16T16:27:43Z</time>
      </trkpt>
      <trkpt lat="43.76473" lon="6.99246">
        <ele>695</ele>
        <time>2011-07-16T16:27:44Z</time>
      </trkpt>
      <trkpt lat="43.76473" lon="6.99243">
        <ele>694</ele>
        <time>2011-07-16T16:27:45Z</time>
      </trkpt>
      <trkpt lat="43.76473" lon="6.9924">
        <ele>692</ele>
        <time>2011-07-16T16:27:46Z</time>
      </trkpt>
      <trkpt lat="43.7647" lon="6.99237">
        <ele>690</ele>
        <time>2011-07-16T16:27:47Z</time>
      </trkpt>
      <trkpt lat="43.76468" lon="6.99235">
        <ele>689</ele>
        <time>2011-07-16T16:27:48Z</time>
      </trkpt>
      <trkpt lat="43.76464" lon="6.99233">
        <ele>688</ele>
        <time>2011-07-16T16:27:49Z</time>
      </trkpt>
      <trkpt lat="43.7646" lon="6.99232">
        <ele>688</ele>
        <time>2011-07-16T16:27:50Z</time>
      </trkpt>
      <trkpt lat="43.76457" lon="6.99232">
        <ele>688</ele>
        <time>2011-07-16T16:27:51Z</time>
      </trkpt>
      <trkpt lat="43.76455" lon="6.99231">
        <ele>687</ele>
        <time>2011-07-16T16:27:52Z</time>
      </trkpt>
      <trkpt lat="43.76453" lon="6.9923">
        <ele>686</ele>
        <time>2011-07-16T16:27:53Z</time>
      </trkpt>
      <trkpt lat="43.76451" lon="6.9923">
        <ele>686</ele>
        <time>2011-07-16T16:27:54Z</time>
      </trkpt>
      <trkpt lat="43.76451" lon="6.99229">
        <ele>685</ele>
        <time>2011-07-16T16:27:55Z</time>
      </trkpt>
      <trkpt lat="43.76452" lon="6.99228">
        <ele>685</ele>
        <time>2011-07-16T16:27:56Z</time>
      </trkpt>
      <trkpt lat="43.76453" lon="6.99226">
        <ele>685</ele>
        <time>2011-07-16T16:27:57Z</time>
      </trkpt>
      <trkpt lat="43.76455" lon="6.99225">
        <ele>685</ele>
        <time>2011-07-16T16:27:58Z</time>
      </trkpt>
      <trkpt lat="43.76456" lon="6.99223">
        <ele>685</ele>
        <time>2011-07-16T16:27:59Z</time>
      </trkpt>
      <trkpt lat="43.76457" lon="6.99221">
        <ele>684</ele>
        <time>2011-07-16T16:28:00Z</time>
      </trkpt>
      <trkpt lat="43.76459" lon="6.99218">
        <ele>684</ele>
        <time>2011-07-16T16:28:01Z</time>
      </trkpt>
      <trkpt lat="43.7646" lon="6.99216">
        <ele>684</ele>
        <time>2011-07-16T16:28:02Z</time>
      </trkpt>
      <trkpt lat="43.76461" lon="6.99214">
        <ele>683</ele>
        <time>2011-07-16T16:28:03Z</time>
      </trkpt>
      <trkpt lat="43.76462" lon="6.99213">
        <ele>683</ele>
        <time>2011-07-16T16:28:04Z</time>
      </trkpt>
      <trkpt lat="43.76463" lon="6.9921">
        <ele>682</ele>
        <time>2011-07-16T16:28:05Z</time>
      </trkpt>
      <trkpt lat="43.76465" lon="6.99206">
        <ele>680</ele>
        <time>2011-07-16T16:28:06Z</time>
      </trkpt>
      <trkpt lat="43.76466" lon="6.99203">
        <ele>680</ele>
        <time>2011-07-16T16:28:07Z</time>
      </trkpt>
      <trkpt lat="43.76468" lon="6.99199">
        <ele>679</ele>
        <time>2011-07-16T16:28:08Z</time>
      </trkpt>
      <trkpt lat="43.76469" lon="6.99198">
        <ele>679</ele>
        <time>2011-07-16T16:28:09Z</time>
      </trkpt>
      <trkpt lat="43.7647" lon="6.99198">
        <ele>679</ele>
        <time>2011-07-16T16:28:10Z</time>
      </trkpt>
      <trkpt lat="43.76471" lon="6.99196">
        <ele>679</ele>
        <time>2011-07-16T16:28:11Z</time>
      </trkpt>
      <trkpt lat="43.76472" lon="6.99193">
        <ele>678</ele>
        <time>2011-07-16T16:28:12Z</time>
      </trkpt>
      <trkpt lat="43.76472" lon="6.9919">
        <ele>677</ele>
        <time>2011-07-16T16:28:13Z</time>
      </trkpt>
      <trkpt lat="43.76471" lon="6.99189">
        <ele>676</ele>
        <time>2011-07-16T16:28:14Z</time>
      </trkpt>
      <trkpt lat="43.76469" lon="6.99187">
        <ele>675</ele>
        <time>2011-07-16T16:28:15Z</time>
      </trkpt>
      <trkpt lat="43.76468" lon="6.99185">
        <ele>674</ele>
        <time>2011-07-16T16:28:16Z</time>
      </trkpt>
      <trkpt lat="43.76467" lon="6.99183">
        <ele>673</ele>
        <time>2011-07-16T16:28:17Z</time>
      </trkpt>
      <trkpt lat="43.76467" lon="6.99182">
        <ele>673</ele>
        <time>2011-07-16T16:28:18Z</time>
      </trkpt>
      <trkpt lat="43.76468" lon="6.99179">
        <ele>673</ele>
        <time>2011-07-16T16:28:19Z</time>
      </trkpt>
      <trkpt lat="43.7647" lon="6.99176">
        <ele>672</ele>
        <time>2011-07-16T16:28:20Z</time>
      </trkpt>
      <trkpt lat="43.76473" lon="6.99173">
        <ele>672</ele>
        <time>2011-07-16T16:28:21Z</time>
      </trkpt>
      <trkpt lat="43.76474" lon="6.9917">
        <ele>671</ele>
        <time>2011-07-16T16:28:22Z</time>
      </trkpt>
      <trkpt lat="43.76474" lon="6.99166">
        <ele>671</ele>
        <time>2011-07-16T16:28:23Z</time>
      </trkpt>
      <trkpt lat="43.76472" lon="6.99164">
        <ele>671</ele>
        <time>2011-07-16T16:28:24Z</time>
      </trkpt>
      <trkpt lat="43.76469" lon="6.99162">
        <ele>671</ele>
        <time>2011-07-16T16:28:25Z</time>
      </trkpt>
      <trkpt lat="43.76468" lon="6.99159">
        <ele>670</ele>
        <time>2011-07-16T16:28:26Z</time>
      </trkpt>
      <trkpt lat="43.76465" lon="6.99159">
        <ele>669</ele>
        <time>2011-07-16T16:28:27Z</time>
      </trkpt>
      <trkpt lat="43.76462" lon="6.9916">
        <ele>669</ele>
        <time>2011-07-16T16:28:28Z</time>
      </trkpt>
      <trkpt lat="43.76461" lon="6.99159">
        <ele>669</ele>
        <time>2011-07-16T16:28:29Z</time>
      </trkpt>
      <trkpt lat="43.76461" lon="6.99158">
        <ele>669</ele>
        <time>2011-07-16T16:28:30Z</time>
      </trkpt>
      <trkpt lat="43.76461" lon="6.99156">
        <ele>669</ele>
        <time>2011-07-16T16:28:31Z</time>
      </trkpt>
      <trkpt lat="43.76462" lon="6.99153">
        <ele>669</ele>
        <time>2011-07-16T16:28:32Z</time>
      </trkpt>
      <trkpt lat="43.76462" lon="6.99148">
        <ele>669</ele>
        <time>2011-07-16T16:28:33Z</time>
      </trkpt>
      <trkpt lat="43.76463" lon="6.99144">
        <ele>669</ele>
        <time>2011-07-16T16:28:34Z</time>
      </trkpt>
      <trkpt lat="43.76465" lon="6.99137">
        <ele>669</ele>
        <time>2011-07-16T16:28:35Z</time>
      </trkpt>
      <trkpt lat="43.76466" lon="6.99132">
        <ele>669</ele>
        <time>2011-07-16T16:28:36Z</time>
      </trkpt>
      <trkpt lat="43.76467" lon="6.99129">
        <ele>668</ele>
        <time>2011-07-16T16:28:37Z</time>
      </trkpt>
      <trkpt lat="43.76469" lon="6.99126">
        <ele>668</ele>
        <time>2011-07-16T16:28:38Z</time>
      </trkpt>
      <trkpt lat="43.76471" lon="6.99124">
        <ele>668</ele>
        <time>2011-07-16T16:28:39Z</time>
      </trkpt>
      <trkpt lat="43.76472" lon="6.99124">
        <ele>668</ele>
        <time>2011-07-16T16:28:40Z</time>
      </trkpt>
      <trkpt lat="43.76474" lon="6.99125">
        <ele>668</ele>
        <time>2011-07-16T16:28:41Z</time>
      </trkpt>
      <trkpt lat="43.76476" lon="6.99126">
        <ele>668</ele>
        <time>2011-07-16T16:28:42Z</time>
      </trkpt>
      <trkpt lat="43.76479" lon="6.99126">
        <ele>667</ele>
        <time>2011-07-16T16:28:43Z</time>
      </trkpt>
      <trkpt lat="43.7648" lon="6.99125">
        <ele>667</ele>
        <time>2011-07-16T16:28:44Z</time>
      </trkpt>
      <trkpt lat="43.7648" lon="6.99122">
        <ele>667</ele>
        <time>2011-07-16T16:28:45Z</time>
      </trkpt>
      <trkpt lat="43.7648" lon="6.99119">
        <ele>667</ele>
        <time>2011-07-16T16:28:46Z</time>
      </trkpt>
      <trkpt lat="43.76479" lon="6.99115">
        <ele>667</ele>
        <time>2011-07-16T16:28:47Z</time>
      </trkpt>
      <trkpt lat="43.76478" lon="6.9911">
        <ele>665</ele>
        <time>2011-07-16T16:28:48Z</time>
      </trkpt>
      <trkpt lat="43.76475" lon="6.99106">
        <ele>664</ele>
        <time>2011-07-16T16:28:49Z</time>
      </trkpt>
      <trkpt lat="43.76473" lon="6.99102">
        <ele>663</ele>
        <time>2011-07-16T16:28:50Z</time>
      </trkpt>
      <trkpt lat="43.76473" lon="6.99098">
        <ele>662</ele>
        <time>2011-07-16T16:28:51Z</time>
      </trkpt>
      <trkpt lat="43.76473" lon="6.99095">
        <ele>660</ele>
        <time>2011-07-16T16:28:52Z</time>
      </trkpt>
      <trkpt lat="43.76472" lon="6.99094">
        <ele>659</ele>
        <time>2011-07-16T16:28:53Z</time>
      </trkpt>
      <trkpt lat="43.76469" lon="6.99096">
        <ele>658</ele>
        <time>2011-07-16T16:28:54Z</time>
      </trkpt>
      <trkpt lat="43.76466" lon="6.99099">
        <ele>657</ele>
        <time>2011-07-16T16:28:55Z</time>
      </trkpt>
      <trkpt lat="43.76462" lon="6.99101">
        <ele>657</ele>
        <time>2011-07-16T16:28:56Z</time>
      </trkpt>
      <trkpt lat="43.7646" lon="6.99103">
        <ele>657</ele>
        <time>2011-07-16T16:28:57Z</time>
      </trkpt>
      <trkpt lat="43.76457" lon="6.99103">
        <ele>656</ele>
        <time>2011-07-16T16:28:58Z</time>
      </trkpt>
      <trkpt lat="43.76454" lon="6.99103">
        <ele>656</ele>
        <time>2011-07-16T16:28:59Z</time>
      </trkpt>
      <trkpt lat="43.7645" lon="6.99103">
        <ele>656</ele>
        <time>2011-07-16T16:29:00Z</time>
      </trkpt>
      <trkpt lat="43.76447" lon="6.99103">
        <ele>656</ele>
        <time>2011-07-16T16:29:01Z</time>
      </trkpt>
      <trkpt lat="43.76445" lon="6.99105">
        <ele>656</ele>
        <time>2011-07-16T16:29:02Z</time>
      </trkpt>
      <trkpt lat="43.76442" lon="6.99106">
        <ele>655</ele>
        <time>2011-07-16T16:29:03Z</time>
      </trkpt>
      <trkpt lat="43.7644" lon="6.99107">
        <ele>655</ele>
        <time>2011-07-16T16:29:04Z</time>
      </trkpt>
      <trkpt lat="43.76437" lon="6.99108">
        <ele>655</ele>
        <time>2011-07-16T16:29:05Z</time>
      </trkpt>
      <trkpt lat="43.76435" lon="6.99111">
        <ele>655</ele>
        <time>2011-07-16T16:29:06Z</time>
      </trkpt>
      <trkpt lat="43.76432" lon="6.99113">
        <ele>655</ele>
        <time>2011-07-16T16:29:07Z</time>
      </trkpt>
      <trkpt lat="43.76431" lon="6.99115">
        <ele>654</ele>
        <time>2011-07-16T16:29:08Z</time>
      </trkpt>
      <trkpt lat="43.76428" lon="6.99117">
        <ele>654</ele>
        <time>2011-07-16T16:29:09Z</time>
      </trkpt>
      <trkpt lat="43.76426" lon="6.99117">
        <ele>654</ele>
        <time>2011-07-16T16:29:10Z</time>
      </trkpt>
      <trkpt lat="43.76423" lon="6.99118">
        <ele>654</ele>
        <time>2011-07-16T16:29:11Z</time>
      </trkpt>
      <trkpt lat="43.76421" lon="6.99119">
        <ele>654</ele>
        <time>2011-07-16T16:29:12Z</time>
      </trkpt>
      <trkpt lat="43.76418" lon="6.9912">
        <ele>654</ele>
        <time>2011-07-16T16:29:13Z</time>
      </trkpt>
      <trkpt lat="43.76415" lon="6.9912">
        <ele>654</ele>
        <time>2011-07-16T16:29:14Z</time>
      </trkpt>
      <trkpt lat="43.76415" lon="6.99119">
        <ele>654</ele>
        <time>2011-07-16T16:29:15Z</time>
      </trkpt>
      <trkpt lat="43.76414" lon="6.99115">
        <ele>653</ele>
        <time>2011-07-16T16:29:16Z</time>
      </trkpt>
      <trkpt lat="43.76415" lon="6.99112">
        <ele>653</ele>
        <time>2011-07-16T16:29:17Z</time>
      </trkpt>
      <trkpt lat="43.76415" lon="6.99109">
        <ele>653</ele>
        <time>2011-07-16T16:29:18Z</time>
      </trkpt>
      <trkpt lat="43.76415" lon="6.99106">
        <ele>653</ele>
        <time>2011-07-16T16:29:19Z</time>
      </trkpt>
      <trkpt lat="43.76416" lon="6.99103">
        <ele>653</ele>
        <time>2011-07-16T16:29:20Z</time>
      </trkpt>
      <trkpt lat="43.76417" lon="6.99101">
        <ele>653</ele>
        <time>2011-07-16T16:29:21Z</time>
      </trkpt>
      <trkpt lat="43.76418" lon="6.99099">
        <ele>653</ele>
        <time>2011-07-16T16:29:22Z</time>
      </trkpt>
      <trkpt lat="43.76417" lon="6.99096">
        <ele>653</ele>
        <time>2011-07-16T16:29:23Z</time>
      </trkpt>
      <trkpt lat="43.76416" lon="6.99096">
        <ele>653</ele>
        <time>2011-07-16T16:29:24Z</time>
      </trkpt>
      <trkpt lat="43.76414" lon="6.99095">
        <ele>653</ele>
        <time>2011-07-16T16:29:25Z</time>
      </trkpt>
      <trkpt lat="43.76411" lon="6.99094">
        <ele>653</ele>
        <time>2011-07-16T16:29:26Z</time>
      </trkpt>
      <trkpt lat="43.76409" lon="6.99092">
        <ele>653</ele>
        <time>2011-07-16T16:29:27Z</time>
      </trkpt>
      <trkpt lat="43.7641" lon="6.9909">
        <ele>652</ele>
        <time>2011-07-16T16:29:28Z</time>
      </trkpt>
      <trkpt lat="43.76412" lon="6.99088">
        <ele>652</ele>
        <time>2011-07-16T16:29:29Z</time>
      </trkpt>
      <trkpt lat="43.76413" lon="6.99086">
        <ele>652</ele>
        <time>2011-07-16T16:29:30Z</time>
      </trkpt>
      <trkpt lat="43.76415" lon="6.99084">
        <ele>652</ele>
        <time>2011-07-16T16:29:31Z</time>
      </trkpt>
      <trkpt lat="43.76417" lon="6.9908">
        <ele>652</ele>
        <time>2011-07-16T16:29:32Z</time>
      </trkpt>
      <trkpt lat="43.76418" lon="6.99076">
        <ele>652</ele>
        <time>2011-07-16T16:29:33Z</time>
      </trkpt>
      <trkpt lat="43.7642" lon="6.99074">
        <ele>652</ele>
        <time>2011-07-16T16:29:34Z</time>
      </trkpt>
      <trkpt lat="43.76422" lon="6.99072">
        <ele>652</ele>
        <time>2011-07-16T16:29:35Z</time>
      </trkpt>
      <trkpt lat="43.76422" lon="6.9907">
        <ele>652</ele>
        <time>2011-07-16T16:29:36Z</time>
      </trkpt>
      <trkpt lat="43.76421" lon="6.99068">
        <ele>652</ele>
        <time>2011-07-16T16:29:37Z</time>
      </trkpt>
      <trkpt lat="43.76419" lon="6.99068">
        <ele>652</ele>
        <time>2011-07-16T16:29:38Z</time>
      </trkpt>
      <trkpt lat="43.76416" lon="6.99067">
        <ele>652</ele>
        <time>2011-07-16T16:29:39Z</time>
      </trkpt>
      <trkpt lat="43.76413" lon="6.99066">
        <ele>652</ele>
        <time>2011-07-16T16:29:40Z</time>
      </trkpt>
      <trkpt lat="43.76412" lon="6.99064">
        <ele>652</ele>
        <time>2011-07-16T16:29:41Z</time>
      </trkpt>
      <trkpt lat="43.76412" lon="6.99059">
        <ele>652</ele>
        <time>2011-07-16T16:29:42Z</time>
      </trkpt>
      <trkpt lat="43.76412" lon="6.99054">
        <ele>652</ele>
        <time>2011-07-16T16:29:43Z</time>
      </trkpt>
      <trkpt lat="43.76412" lon="6.9905">
        <ele>652</ele>
        <time>2011-07-16T16:29:44Z</time>
      </trkpt>
      <trkpt lat="43.76413" lon="6.99045">
        <ele>652</ele>
        <time>2011-07-16T16:29:45Z</time>
      </trkpt>
      <trkpt lat="43.76414" lon="6.99041">
        <ele>652</ele>
        <time>2011-07-16T16:29:46Z</time>
      </trkpt>
      <trkpt lat="43.76416" lon="6.99039">
        <ele>652</ele>
        <time>2011-07-16T16:29:47Z</time>
      </trkpt>
      <trkpt lat="43.76417" lon="6.99036">
        <ele>652</ele>
        <time>2011-07-16T16:29:48Z</time>
      </trkpt>
      <trkpt lat="43.76419" lon="6.99034">
        <ele>652</ele>
        <time>2011-07-16T16:29:49Z</time>
      </trkpt>
      <trkpt lat="43.76419" lon="6.99033">
        <ele>651</ele>
        <time>2011-07-16T16:29:50Z</time>
      </trkpt>
      <trkpt lat="43.76418" lon="6.99032">
        <ele>651</ele>
        <time>2011-07-16T16:29:51Z</time>
      </trkpt>
      <trkpt lat="43.76417" lon="6.99033">
        <ele>651</ele>
        <time>2011-07-16T16:29:52Z</time>
      </trkpt>
      <trkpt lat="43.76414" lon="6.99034">
        <ele>651</ele>
        <time>2011-07-16T16:29:53Z</time>
      </trkpt>
      <trkpt lat="43.76412" lon="6.99034">
        <ele>651</ele>
        <time>2011-07-16T16:29:54Z</time>
      </trkpt>
      <trkpt lat="43.76408" lon="6.99033">
        <ele>651</ele>
        <time>2011-07-16T16:29:55Z</time>
      </trkpt>
      <trkpt lat="43.76406" lon="6.99035">
        <ele>651</ele>
        <time>2011-07-16T16:29:56Z</time>
      </trkpt>
      <trkpt lat="43.76405" lon="6.99036">
        <ele>651</ele>
        <time>2011-07-16T16:29:57Z</time>
      </trkpt>
      <trkpt lat="43.76403" lon="6.99036">
        <ele>651</ele>
        <time>2011-07-16T16:29:58Z</time>
      </trkpt>
      <trkpt lat="43.76403" lon="6.99034">
        <ele>651</ele>
        <time>2011-07-16T16:29:59Z</time>
      </trkpt>
      <trkpt lat="43.76402" lon="6.99032">
        <ele>651</ele>
        <time>2011-07-16T16:30:00Z</time>
      </trkpt>
      <trkpt lat="43.764" lon="6.9903">
        <ele>651</ele>
        <time>2011-07-16T16:30:01Z</time>
      </trkpt>
      <trkpt lat="43.76398" lon="6.9903">
        <ele>651</ele>
        <time>2011-07-16T16:30:02Z</time>
      </trkpt>
      <trkpt lat="43.76396" lon="6.9903">
        <ele>651</ele>
        <time>2011-07-16T16:30:03Z</time>
      </trkpt>
      <trkpt lat="43.76393" lon="6.9903">
        <ele>651</ele>
        <time>2011-07-16T16:30:04Z</time>
      </trkpt>
      <trkpt lat="43.7639" lon="6.9903">
        <ele>650</ele>
        <time>2011-07-16T16:30:05Z</time>
      </trkpt>
      <trkpt lat="43.76387" lon="6.9903">
        <ele>650</ele>
        <time>2011-07-16T16:30:06Z</time>
      </trkpt>
      <trkpt lat="43.76385" lon="6.9903">
        <ele>650</ele>
        <time>2011-07-16T16:30:07Z</time>
      </trkpt>
      <trkpt lat="43.76382" lon="6.99032">
        <ele>650</ele>
        <time>2011-07-16T16:30:08Z</time>
      </trkpt>
      <trkpt lat="43.76379" lon="6.99033">
        <ele>650</ele>
        <time>2011-07-16T16:30:09Z</time>
      </trkpt>
      <trkpt lat="43.76377" lon="6.99035">
        <ele>650</ele>
        <time>2011-07-16T16:30:10Z</time>
      </trkpt>
      <trkpt lat="43.76375" lon="6.99036">
        <ele>650</ele>
        <time>2011-07-16T16:30:11Z</time>
      </trkpt>
      <trkpt lat="43.76373" lon="6.99038">
        <ele>650</ele>
        <time>2011-07-16T16:30:12Z</time>
      </trkpt>
      <trkpt lat="43.76371" lon="6.99042">
        <ele>650</ele>
        <time>2011-07-16T16:30:13Z</time>
      </trkpt>
      <trkpt lat="43.76372" lon="6.99042">
        <ele>650</ele>
        <time>2011-07-16T16:30:14Z</time>
      </trkpt>
      <trkpt lat="43.7637" lon="6.99044">
        <ele>650</ele>
        <time>2011-07-16T16:30:15Z</time>
      </trkpt>
      <trkpt lat="43.76369" lon="6.99046">
        <ele>650</ele>
        <time>2011-07-16T16:30:16Z</time>
      </trkpt>
      <trkpt lat="43.76368" lon="6.99048">
        <ele>650</ele>
        <time>2011-07-16T16:30:17Z</time>
      </trkpt>
      <trkpt lat="43.76366" lon="6.9905">
        <ele>650</ele>
        <time>2011-07-16T16:30:18Z</time>
      </trkpt>
      <trkpt lat="43.76364" lon="6.99051">
        <ele>650</ele>
        <time>2011-07-16T16:30:19Z</time>
      </trkpt>
      <trkpt lat="43.76363" lon="6.99048">
        <ele>650</ele>
        <time>2011-07-16T16:30:20Z</time>
      </trkpt>
      <trkpt lat="43.76361" lon="6.99043">
        <ele>650</ele>
        <time>2011-07-16T16:30:22Z</time>
      </trkpt>
      <trkpt lat="43.76361" lon="6.9904">
        <ele>650</ele>
        <time>2011-07-16T16:30:23Z</time>
      </trkpt>
      <trkpt lat="43.76361" lon="6.99036">
        <ele>650</ele>
        <time>2011-07-16T16:30:24Z</time>
      </trkpt>
      <trkpt lat="43.7636" lon="6.99033">
        <ele>650</ele>
        <time>2011-07-16T16:30:25Z</time>
      </trkpt>
      <trkpt lat="43.76361" lon="6.99029">
        <ele>650</ele>
        <time>2011-07-16T16:30:26Z</time>
      </trkpt>
      <trkpt lat="43.76361" lon="6.99021">
        <ele>650</ele>
        <time>2011-07-16T16:30:28Z</time>
      </trkpt>
      <trkpt lat="43.76362" lon="6.9902">
        <ele>650</ele>
        <time>2011-07-16T16:30:29Z</time>
      </trkpt>
      <trkpt lat="43.76362" lon="6.99014">
        <ele>650</ele>
        <time>2011-07-16T16:30:32Z</time>
      </trkpt>
      <trkpt lat="43.76363" lon="6.99012">
        <ele>650</ele>
        <time>2011-07-16T16:30:33Z</time>
      </trkpt>
      <trkpt lat="43.76364" lon="6.9901">
        <ele>650</ele>
        <time>2011-07-16T16:30:34Z</time>
      </trkpt>
      <trkpt lat="43.76364" lon="6.99008">
        <ele>650</ele>
        <time>2011-07-16T16:30:35Z</time>
      </trkpt>
      <trkpt lat="43.76365" lon="6.99006">
        <ele>650</ele>
        <time>2011-07-16T16:30:36Z</time>
      </trkpt>
      <trkpt lat="43.76366" lon="6.99003">
        <ele>650</ele>
        <time>2011-07-16T16:30:37Z</time>
      </trkpt>
      <trkpt lat="43.76366" lon="6.99">
        <ele>650</ele>
        <time>2011-07-16T16:30:38Z</time>
      </trkpt>
      <trkpt lat="43.76367" lon="6.98998">
        <ele>650</ele>
        <time>2011-07-16T16:30:39Z</time>
      </trkpt>
      <trkpt lat="43.76368" lon="6.98995">
        <ele>650</ele>
        <time>2011-07-16T16:30:40Z</time>
      </trkpt>
      <trkpt lat="43.76369" lon="6.98992">
        <ele>650</ele>
        <time>2011-07-16T16:30:41Z</time>
      </trkpt>
      <trkpt lat="43.76369" lon="6.98991">
        <ele>650</ele>
        <time>2011-07-16T16:30:42Z</time>
      </trkpt>
      <trkpt lat="43.76369" lon="6.98992">
        <ele>650</ele>
        <time>2011-07-16T16:30:43Z</time>
      </trkpt>
      <trkpt lat="43.76369" lon="6.98991">
        <ele>650</ele>
        <time>2011-07-16T16:30:44Z</time>
      </trkpt>
      <trkpt lat="43.76369" lon="6.98991">
        <ele>650</ele>
        <time>2011-07-16T16:30:45Z</time>
      </trkpt>
      <trkpt lat="43.76368" lon="6.98991">
        <ele>650</ele>
        <time>2011-07-16T16:30:46Z</time>
      </trkpt>
      <trkpt lat="43.76367" lon="6.98992">
        <ele>650</ele>
        <time>2011-07-16T16:30:47Z</time>
      </trkpt>
      <trkpt lat="43.76366" lon="6.98992">
        <ele>650</ele>
        <time>2011-07-16T16:30:48Z</time>
      </trkpt>
      <trkpt lat="43.76365" lon="6.98993">
        <ele>650</ele>
        <time>2011-07-16T16:30:49Z</time>
      </trkpt>
      <trkpt lat="43.76365" lon="6.98992">
        <ele>650</ele>
        <time>2011-07-16T16:30:55Z</time>
      </trkpt>
      <trkpt lat="43.76365" lon="6.98992">
        <ele>650</ele>
        <time>2011-07-16T16:30:56Z</time>
      </trkpt>
      <trkpt lat="43.76365" lon="6.98992">
        <ele>650</ele>
        <time>2011-07-16T16:30:57Z</time>
      </trkpt>
      <trkpt lat="43.76364" lon="6.98991">
        <ele>650</ele>
        <time>2011-07-16T16:31:02Z</time>
      </trkpt>
      <trkpt lat="43.76364" lon="6.98992">
        <ele>650</ele>
        <time>2011-07-16T16:31:03Z</time>
      </trkpt>
      <trkpt lat="43.76362" lon="6.98993">
        <ele>650</ele>
        <time>2011-07-16T16:31:04Z</time>
      </trkpt>
      <trkpt lat="43.76361" lon="6.98993">
        <ele>650</ele>
        <time>2011-07-16T16:31:05Z</time>
      </trkpt>
      <trkpt lat="43.76359" lon="6.98994">
        <ele>650</ele>
        <time>2011-07-16T16:31:06Z</time>
      </trkpt>
      <trkpt lat="43.76357" lon="6.98995">
        <ele>650</ele>
        <time>2011-07-16T16:31:07Z</time>
      </trkpt>
      <trkpt lat="43.76356" lon="6.98995">
        <ele>650</ele>
        <time>2011-07-16T16:31:08Z</time>
      </trkpt>
      <trkpt lat="43.76357" lon="6.98994">
        <ele>650</ele>
        <time>2011-07-16T16:31:09Z</time>
      </trkpt>
      <trkpt lat="43.76358" lon="6.98993">
        <ele>650</ele>
        <time>2011-07-16T16:31:10Z</time>
      </trkpt>
      <trkpt lat="43.76358" lon="6.98991">
        <ele>650</ele>
        <time>2011-07-16T16:31:11Z</time>
      </trkpt>
      <trkpt lat="43.76358" lon="6.9899">
        <ele>650</ele>
        <time>2011-07-16T16:31:12Z</time>
      </trkpt>
      <trkpt lat="43.76358" lon="6.98988">
        <ele>650</ele>
        <time>2011-07-16T16:31:13Z</time>
      </trkpt>
      <trkpt lat="43.76357" lon="6.98988">
        <ele>650</ele>
        <time>2011-07-16T16:31:14Z</time>
      </trkpt>
      <trkpt lat="43.76355" lon="6.98989">
        <ele>650</ele>
        <time>2011-07-16T16:31:15Z</time>
      </trkpt>
      <trkpt lat="43.76354" lon="6.9899">
        <ele>650</ele>
        <time>2011-07-16T16:31:16Z</time>
      </trkpt>
      <trkpt lat="43.76352" lon="6.98991">
        <ele>650</ele>
        <time>2011-07-16T16:31:17Z</time>
      </trkpt>
      <trkpt lat="43.76351" lon="6.98991">
        <ele>650</ele>
        <time>2011-07-16T16:31:18Z</time>
      </trkpt>
      <trkpt lat="43.7635" lon="6.98993">
        <ele>650</ele>
        <time>2011-07-16T16:31:19Z</time>
      </trkpt>
      <trkpt lat="43.76349" lon="6.98994">
        <ele>650</ele>
        <time>2011-07-16T16:31:20Z</time>
      </trkpt>
      <trkpt lat="43.76348" lon="6.9899">
        <ele>650</ele>
        <time>2011-07-16T16:31:21Z</time>
      </trkpt>
      <trkpt lat="43.76347" lon="6.98989">
        <ele>650</ele>
        <time>2011-07-16T16:31:22Z</time>
      </trkpt>
      <trkpt lat="43.76348" lon="6.98989">
        <ele>650</ele>
        <time>2011-07-16T16:31:23Z</time>
      </trkpt>
      <trkpt lat="43.76348" lon="6.98989">
        <ele>650</ele>
        <time>2011-07-16T16:31:24Z</time>
      </trkpt>
      <trkpt lat="43.76348" lon="6.9899">
        <ele>650</ele>
        <time>2011-07-16T16:31:30Z</time>
      </trkpt>
      <trkpt lat="43.76348" lon="6.98988">
        <ele>650</ele>
        <time>2011-07-16T16:31:31Z</time>
      </trkpt>
      <trkpt lat="43.76347" lon="6.98987">
        <ele>650</ele>
        <time>2011-07-16T16:31:32Z</time>
      </trkpt>
      <trkpt lat="43.76347" lon="6.98987">
        <ele>650</ele>
        <time>2011-07-16T16:31:33Z</time>
      </trkpt>
      <trkpt lat="43.76346" lon="6.98987">
        <ele>650</ele>
        <time>2011-07-16T16:31:34Z</time>
      </trkpt>
      <trkpt lat="43.76345" lon="6.98988">
        <ele>650</ele>
        <time>2011-07-16T16:31:35Z</time>
      </trkpt>
      <trkpt lat="43.76345" lon="6.9899">
        <ele>650</ele>
        <time>2011-07-16T16:31:36Z</time>
      </trkpt>
      <trkpt lat="43.76344" lon="6.98991">
        <ele>650</ele>
        <time>2011-07-16T16:31:37Z</time>
      </trkpt>
      <trkpt lat="43.76342" lon="6.98992">
        <ele>650</ele>
        <time>2011-07-16T16:31:38Z</time>
      </trkpt>
      <trkpt lat="43.76341" lon="6.98994">
        <ele>650</ele>
        <time>2011-07-16T16:31:39Z</time>
      </trkpt>
      <trkpt lat="43.76338" lon="6.98996">
        <ele>650</ele>
        <time>2011-07-16T16:31:40Z</time>
      </trkpt>
      <trkpt lat="43.76335" lon="6.98999">
        <ele>650</ele>
        <time>2011-07-16T16:31:41Z</time>
      </trkpt>
      <trkpt lat="43.76333" lon="6.99002">
        <ele>650</ele>
        <time>2011-07-16T16:31:42Z</time>
      </trkpt>
      <trkpt lat="43.76331" lon="6.99005">
        <ele>650</ele>
        <time>2011-07-16T16:31:43Z</time>
      </trkpt>
      <trkpt lat="43.76329" lon="6.99007">
        <ele>650</ele>
        <time>2011-07-16T16:31:44Z</time>
      </trkpt>
      <trkpt lat="43.76326" lon="6.99009">
        <ele>650</ele>
        <time>2011-07-16T16:31:45Z</time>
      </trkpt>
      <trkpt lat="43.76323" lon="6.99012">
        <ele>650</ele>
        <time>2011-07-16T16:31:46Z</time>
      </trkpt>
      <trkpt lat="43.76322" lon="6.99013">
        <ele>650</ele>
        <time>2011-07-16T16:31:47Z</time>
      </trkpt>
      <trkpt lat="43.76319" lon="6.99014">
        <ele>650</ele>
        <time>2011-07-16T16:31:48Z</time>
      </trkpt>
      <trkpt lat="43.76321" lon="6.99013">
        <ele>650</ele>
        <time>2011-07-16T16:31:49Z</time>
      </trkpt>
      <trkpt lat="43.76321" lon="6.99013">
        <ele>650</ele>
        <time>2011-07-16T16:31:50Z</time>
      </trkpt>
      <trkpt lat="43.7632" lon="6.99013">
        <ele>650</ele>
        <time>2011-07-16T16:31:55Z</time>
      </trkpt>
      <trkpt lat="43.7632" lon="6.99013">
        <ele>650</ele>
        <time>2011-07-16T16:31:56Z</time>
      </trkpt>
      <trkpt lat="43.7632" lon="6.99012">
        <ele>650</ele>
        <time>2011-07-16T16:32:07Z</time>
      </trkpt>
      <trkpt lat="43.7632" lon="6.99011">
        <ele>650</ele>
        <time>2011-07-16T16:32:08Z</time>
      </trkpt>
      <trkpt lat="43.76319" lon="6.99009">
        <ele>650</ele>
        <time>2011-07-16T16:32:09Z</time>
      </trkpt>
      <trkpt lat="43.76319" lon="6.99007">
        <ele>650</ele>
        <time>2011-07-16T16:32:10Z</time>
      </trkpt>
      <trkpt lat="43.76317" lon="6.99007">
        <ele>650</ele>
        <time>2011-07-16T16:32:11Z</time>
      </trkpt>
      <trkpt lat="43.76316" lon="6.99007">
        <ele>650</ele>
        <time>2011-07-16T16:32:12Z</time>
      </trkpt>
      <trkpt lat="43.76316" lon="6.99009">
        <ele>650</ele>
        <time>2011-07-16T16:32:13Z</time>
      </trkpt>
      <trkpt lat="43.76315" lon="6.9901">
        <ele>650</ele>
        <time>2011-07-16T16:32:14Z</time>
      </trkpt>
      <trkpt lat="43.76314" lon="6.99011">
        <ele>650</ele>
        <time>2011-07-16T16:32:15Z</time>
      </trkpt>
      <trkpt lat="43.76314" lon="6.99012">
        <ele>650</ele>
        <time>2011-07-16T16:32:16Z</time>
      </trkpt>
      <trkpt lat="43.76314" lon="6.99012">
        <ele>650</ele>
        <time>2011-07-16T16:32:17Z</time>
      </trkpt>
      <trkpt lat="43.76314" lon="6.99012">
        <ele>650</ele>
        <time>2011-07-16T16:33:25Z</time>
      </trkpt>
      <trkpt lat="43.76314" lon="6.99012">
        <ele>650</ele>
        <time>2011-07-16T16:33:27Z</time>
      </trkpt>
      <trkpt lat="43.76313" lon="6.99012">
        <ele>650</ele>
        <time>2011-07-16T16:33:55Z</time>
      </trkpt>
      <trkpt lat="43.76313" lon="6.99013">
        <ele>650</ele>
        <time>2011-07-16T16:33:57Z</time>
      </trkpt>
      <trkpt lat="43.76312" lon="6.99014">
        <ele>650</ele>
        <time>2011-07-16T16:33:58Z</time>
      </trkpt>
      <trkpt lat="43.76311" lon="6.99016">
        <ele>650</ele>
        <time>2011-07-16T16:33:59Z</time>
      </trkpt>
      <trkpt lat="43.7631" lon="6.99018">
        <ele>650</ele>
        <time>2011-07-16T16:34:00Z</time>
      </trkpt>
      <trkpt lat="43.76309" lon="6.99019">
        <ele>650</ele>
        <time>2011-07-16T16:34:01Z</time>
      </trkpt>
      <trkpt lat="43.76309" lon="6.99022">
        <ele>650</ele>
        <time>2011-07-16T16:34:02Z</time>
      </trkpt>
      <trkpt lat="43.76308" lon="6.99025">
        <ele>650</ele>
        <time>2011-07-16T16:34:03Z</time>
      </trkpt>
      <trkpt lat="43.76305" lon="6.9903">
        <ele>649</ele>
        <time>2011-07-16T16:34:04Z</time>
      </trkpt>
      <trkpt lat="43.76304" lon="6.99036">
        <ele>649</ele>
        <time>2011-07-16T16:34:05Z</time>
      </trkpt>
      <trkpt lat="43.76302" lon="6.99042">
        <ele>649</ele>
        <time>2011-07-16T16:34:06Z</time>
      </trkpt>
      <trkpt lat="43.763" lon="6.99049">
        <ele>649</ele>
        <time>2011-07-16T16:34:07Z</time>
      </trkpt>
      <trkpt lat="43.7625" lon="6.99085">
        <ele>647</ele>
        <time>2011-07-16T16:34:17Z</time>
      </trkpt>
      <trkpt lat="43.76194" lon="6.99115">
        <ele>645</ele>
        <time>2011-07-16T16:34:27Z</time>
      </trkpt>
      <trkpt lat="43.76193" lon="6.99118">
        <ele>645</ele>
        <time>2011-07-16T16:34:28Z</time>
      </trkpt>
      <trkpt lat="43.76191" lon="6.99121">
        <ele>644</ele>
        <time>2011-07-16T16:34:29Z</time>
      </trkpt>
      <trkpt lat="43.7619" lon="6.99124">
        <ele>644</ele>
        <time>2011-07-16T16:34:30Z</time>
      </trkpt>
      <trkpt lat="43.76188" lon="6.99127">
        <ele>644</ele>
        <time>2011-07-16T16:34:31Z</time>
      </trkpt>
      <trkpt lat="43.76187" lon="6.99128">
        <ele>644</ele>
        <time>2011-07-16T16:34:32Z</time>
      </trkpt>
      <trkpt lat="43.76184" lon="6.9913">
        <ele>644</ele>
        <time>2011-07-16T16:34:33Z</time>
      </trkpt>
      <trkpt lat="43.76182" lon="6.99132">
        <ele>644</ele>
        <time>2011-07-16T16:34:34Z</time>
      </trkpt>
      <trkpt lat="43.76179" lon="6.99134">
        <ele>644</ele>
        <time>2011-07-16T16:34:35Z</time>
      </trkpt>
      <trkpt lat="43.76175" lon="6.99135">
        <ele>644</ele>
        <time>2011-07-16T16:34:36Z</time>
      </trkpt>
      <trkpt lat="43.7617" lon="6.99136">
        <ele>644</ele>
        <time>2011-07-16T16:34:37Z</time>
      </trkpt>
      <trkpt lat="43.76166" lon="6.99136">
        <ele>644</ele>
        <time>2011-07-16T16:34:38Z</time>
      </trkpt>
      <trkpt lat="43.76163" lon="6.99135">
        <ele>644</ele>
        <time>2011-07-16T16:34:39Z</time>
      </trkpt>
      <trkpt lat="43.76162" lon="6.99133">
        <ele>644</ele>
        <time>2011-07-16T16:34:40Z</time>
      </trkpt>
      <trkpt lat="43.76162" lon="6.99131">
        <ele>644</ele>
        <time>2011-07-16T16:34:41Z</time>
      </trkpt>
      <trkpt lat="43.76162" lon="6.99128">
        <ele>644</ele>
        <time>2011-07-16T16:34:42Z</time>
      </trkpt>
      <trkpt lat="43.76165" lon="6.99126">
        <ele>644</ele>
        <time>2011-07-16T16:34:43Z</time>
      </trkpt>
      <trkpt lat="43.76167" lon="6.99124">
        <ele>644</ele>
        <time>2011-07-16T16:34:44Z</time>
      </trkpt>
      <trkpt lat="43.7617" lon="6.9912">
        <ele>644</ele>
        <time>2011-07-16T16:34:45Z</time>
      </trkpt>
      <trkpt lat="43.76174" lon="6.99116">
        <ele>644</ele>
        <time>2011-07-16T16:34:46Z</time>
      </trkpt>
      <trkpt lat="43.76178" lon="6.99111">
        <ele>644</ele>
        <time>2011-07-16T16:34:47Z</time>
      </trkpt>
      <trkpt lat="43.76182" lon="6.99105">
        <ele>644</ele>
        <time>2011-07-16T16:34:48Z</time>
      </trkpt>
      <trkpt lat="43.76199" lon="6.99016">
        <ele>644</ele>
        <time>2011-07-16T16:34:58Z</time>
      </trkpt>
      <trkpt lat="43.76156" lon="6.98909">
        <ele>644</ele>
        <time>2011-07-16T16:35:08Z</time>
      </trkpt>
      <trkpt lat="43.76199" lon="6.98798">
        <ele>644</ele>
        <time>2011-07-16T16:35:18Z</time>
      </trkpt>
      <trkpt lat="43.7621" lon="6.98775">
        <ele>644</ele>
        <time>2011-07-16T16:35:28Z</time>
      </trkpt>
      <trkpt lat="43.76207" lon="6.98778">
        <ele>644</ele>
        <time>2011-07-16T16:35:29Z</time>
      </trkpt>
      <trkpt lat="43.76203" lon="6.98781">
        <ele>644</ele>
        <time>2011-07-16T16:35:30Z</time>
      </trkpt>
      <trkpt lat="43.76198" lon="6.98785">
        <ele>644</ele>
        <time>2011-07-16T16:35:31Z</time>
      </trkpt>
      <trkpt lat="43.76194" lon="6.98789">
        <ele>644</ele>
        <time>2011-07-16T16:35:32Z</time>
      </trkpt>
      <trkpt lat="43.76188" lon="6.98792">
        <ele>644</ele>
        <time>2011-07-16T16:35:33Z</time>
      </trkpt>
      <trkpt lat="43.76136" lon="6.98847">
        <ele>644</ele>
        <time>2011-07-16T16:35:43Z</time>
      </trkpt>
      <trkpt lat="43.76099" lon="6.98896">
        <ele>644</ele>
        <time>2011-07-16T16:35:53Z</time>
      </trkpt>
      <trkpt lat="43.76098" lon="6.98896">
        <ele>644</ele>
        <time>2011-07-16T16:35:54Z</time>
      </trkpt>
      <trkpt lat="43.76097" lon="6.98897">
        <ele>644</ele>
        <time>2011-07-16T16:35:55Z</time>
      </trkpt>
      <trkpt lat="43.76098" lon="6.98897">
        <ele>644</ele>
        <time>2011-07-16T16:35:56Z</time>
      </trkpt>
      <trkpt lat="43.76097" lon="6.98897">
        <ele>644</ele>
        <time>2011-07-16T16:35:57Z</time>
      </trkpt>
      <trkpt lat="43.76097" lon="6.98898">
        <ele>644</ele>
        <time>2011-07-16T16:35:58Z</time>
      </trkpt>
      <trkpt lat="43.76097" lon="6.98898">
        <ele>644</ele>
        <time>2011-07-16T16:35:59Z</time>
      </trkpt>
      <trkpt lat="43.76096" lon="6.98898">
        <ele>644</ele>
        <time>2011-07-16T16:36:00Z</time>
      </trkpt>
      <trkpt lat="43.76096" lon="6.98898">
        <ele>644</ele>
        <time>2011-07-16T16:36:01Z</time>
      </trkpt>
      <trkpt lat="43.76096" lon="6.98898">
        <ele>644</ele>
        <time>2011-07-16T16:36:02Z</time>
      </trkpt>
      <trkpt lat="43.76096" lon="6.98898">
        <ele>644</ele>
        <time>2011-07-16T16:36:03Z</time>
      </trkpt>
      <trkpt lat="43.76097" lon="6.98899">
        <ele>644</ele>
        <time>2011-07-16T16:36:04Z</time>
      </trkpt>
      <trkpt lat="43.76097" lon="6.989">
        <ele>644</ele>
        <time>2011-07-16T16:36:05Z</time>
      </trkpt>
      <trkpt lat="43.76097" lon="6.989">
        <ele>644</ele>
        <time>2011-07-16T16:36:09Z</time>
      </trkpt>
      <trkpt lat="43.76097" lon="6.989">
        <ele>644</ele>
        <time>2011-07-16T16:36:10Z</time>
      </trkpt>
      <trkpt lat="43.76096" lon="6.98899">
        <ele>644</ele>
        <time>2011-07-16T16:36:12Z</time>
      </trkpt>
    </trkseg>
  </trk>
</gpx>